<?xml version='1.0' encoding='UTF-8'?><gpx version="1.1" creator="JPX - https://github.com/jenetics/jpx" xmlns="http://www.topografix.com/GPX/1/1"><trk><trkseg><trkpt lat="40.15823424370227" lon="9.19232407750265"><ele>799.6666666666667</ele><time>2026-04-27T06:50:02Z</time></trkpt><trkpt lat="40.15831867053753" lon="9.192384824957188"><ele>796.3333333333334</ele><time>2026-04-27T06:50:59Z</time></trkpt><trkpt lat="40.15836617906608" lon="9.192438933082355"><ele>793.0</ele><time>2026-04-27T06:51:00Z</time></trkpt><trkpt lat="40.15844816207" lon="9.192509848036648"><ele>789.6666666666667</ele><time>2026-04-27T06:51:02Z</time></trkpt><trkpt lat="40.158516619846075" lon="9.192508971157814"><ele>786.3333333333334</ele><time>2026-04-27T06:51:04Z</time></trkpt><trkpt lat="40.15859490284342" lon="9.19251021584779"><ele>783.0</ele><time>2026-04-27T06:51:06Z</time></trkpt><trkpt lat="40.15864780281857" lon="9.19256696092967"><ele>783.0</ele><time>2026-04-27T06:51:11Z</time></trkpt><trkpt lat="40.15869583073054" lon="9.192638628930146"><ele>783.0</ele><time>2026-04-27T06:51:20.002Z</time></trkpt><trkpt lat="40.158725919465944" lon="9.192711908347668"><ele>783.0</ele><time>2026-04-27T06:51:23.001Z</time></trkpt><trkpt lat="40.15875596567446" lon="9.192796737977371"><ele>783.0</ele><time>2026-04-27T06:51:28.001Z</time></trkpt><trkpt lat="40.15878180391769" lon="9.192881038390846"><ele>783.0</ele><time>2026-04-27T06:51:38.001Z</time></trkpt><trkpt lat="40.1588378999482" lon="9.19292841973049"><ele>783.0</ele><time>2026-04-27T06:51:43.001Z</time></trkpt><trkpt lat="40.158890694963624" lon="9.192983851700793"><ele>783.0</ele><time>2026-04-27T06:51:57Z</time></trkpt><trkpt lat="40.15893749909481" lon="9.193075228255351"><ele>783.0</ele><time>2026-04-27T06:52:03Z</time></trkpt><trkpt lat="40.158966203361" lon="9.193152384934319"><ele>783.0</ele><time>2026-04-27T06:52:06Z</time></trkpt><trkpt lat="40.15897453331479" lon="9.193234416331194"><ele>783.0</ele><time>2026-04-27T06:52:08Z</time></trkpt><trkpt lat="40.15897977376163" lon="9.193318935943259"><ele>783.0</ele><time>2026-04-27T06:52:10Z</time></trkpt><trkpt lat="40.15900393152832" lon="9.19340118133345"><ele>783.0</ele><time>2026-04-27T06:52:12Z</time></trkpt><trkpt lat="40.15902281280018" lon="9.193488163252837"><ele>783.0</ele><time>2026-04-27T06:52:15Z</time></trkpt><trkpt lat="40.15901697789594" lon="9.193577889261253"><ele>783.0</ele><time>2026-04-27T06:52:19Z</time></trkpt><trkpt lat="40.159010691135336" lon="9.193673946240231"><ele>779.8</ele><time>2026-04-27T06:52:22Z</time></trkpt><trkpt lat="40.15892940468483" lon="9.193689735680147"><ele>776.5999999999999</ele><time>2026-04-27T06:53:05.999Z</time></trkpt><trkpt lat="40.15880966160617" lon="9.193616566587979"><ele>773.4000000000001</ele><time>2026-04-27T06:53:07.999Z</time></trkpt><trkpt lat="40.15877375017897" lon="9.193500568742026"><ele>770.2</ele><time>2026-04-27T06:53:08.999Z</time></trkpt><trkpt lat="40.158706441143885" lon="9.193425310860773"><ele>767.0</ele><time>2026-04-27T06:53:09.999Z</time></trkpt><trkpt lat="40.158640156234014" lon="9.19336288823118"><ele>767.0</ele><time>2026-04-27T06:53:10.999Z</time></trkpt><trkpt lat="40.15858908878204" lon="9.19330861560411"><ele>767.0</ele><time>2026-04-27T06:53:11.999Z</time></trkpt><trkpt lat="40.15852856831058" lon="9.193282671158848"><ele>767.0</ele><time>2026-04-27T06:53:13.999Z</time></trkpt><trkpt lat="40.15846767613598" lon="9.193345766096918"><ele>767.0</ele><time>2026-04-27T06:53:17.999Z</time></trkpt><trkpt lat="40.15842353581864" lon="9.193410192684684"><ele>767.0</ele><time>2026-04-27T06:53:19.999Z</time></trkpt><trkpt lat="40.15835684709288" lon="9.193406452044291"><ele>767.0</ele><time>2026-04-27T06:53:24.999Z</time></trkpt><trkpt lat="40.15830417095158" lon="9.193312352842852"><ele>767.0</ele><time>2026-04-27T06:53:32.999Z</time></trkpt><trkpt lat="40.158187226284795" lon="9.19329214950845"><ele>766.4000000000001</ele><time>2026-04-27T06:53:34.999Z</time></trkpt><trkpt lat="40.158116968816344" lon="9.193305472509634"><ele>765.8000000000001</ele><time>2026-04-27T06:53:35.999Z</time></trkpt><trkpt lat="40.1580205635752" lon="9.193378484395454"><ele>765.2</ele><time>2026-04-27T06:53:37.999Z</time></trkpt><trkpt lat="40.157939543466206" lon="9.193318905265052"><ele>764.6</ele><time>2026-04-27T06:53:39.999Z</time></trkpt><trkpt lat="40.15783826918173" lon="9.193460406330457"><ele>764.0</ele><time>2026-04-27T06:53:40.999Z</time></trkpt><trkpt lat="40.15775867432129" lon="9.193535191539587"><ele>764.0</ele><time>2026-04-27T06:53:42.999Z</time></trkpt><trkpt lat="40.15769549545032" lon="9.193566787402922"><ele>764.0</ele><time>2026-04-27T06:53:43.999Z</time></trkpt><trkpt lat="40.157574237878364" lon="9.193611622153533"><ele>764.0</ele><time>2026-04-27T06:53:45.999Z</time></trkpt><trkpt lat="40.15750083909336" lon="9.19361214631633"><ele>764.0</ele><time>2026-04-27T06:53:46.999Z</time></trkpt><trkpt lat="40.15742331242256" lon="9.193623781651887"><ele>764.0</ele><time>2026-04-27T06:53:47.999Z</time></trkpt><trkpt lat="40.15735379715661" lon="9.19362552496338"><ele>764.0</ele><time>2026-04-27T06:53:48.999Z</time></trkpt><trkpt lat="40.15727392682743" lon="9.193632105470634"><ele>765.3333333333333</ele><time>2026-04-27T06:53:49.999Z</time></trkpt><trkpt lat="40.157198240507206" lon="9.193640900687766"><ele>766.6666666666666</ele><time>2026-04-27T06:53:50.999Z</time></trkpt><trkpt lat="40.157125400812944" lon="9.193651617456892"><ele>768.0</ele><time>2026-04-27T06:53:51.999Z</time></trkpt><trkpt lat="40.157050267128504" lon="9.193664915388178"><ele>769.3333333333333</ele><time>2026-04-27T06:53:52.999Z</time></trkpt><trkpt lat="40.15697195177137" lon="9.19369020922467"><ele>770.6666666666666</ele><time>2026-04-27T06:53:53.999Z</time></trkpt><trkpt lat="40.15690737511237" lon="9.193726872529293"><ele>772.0</ele><time>2026-04-27T06:53:54.999Z</time></trkpt><trkpt lat="40.15681903309876" lon="9.193805107405584"><ele>772.0</ele><time>2026-04-27T06:53:56.999Z</time></trkpt><trkpt lat="40.15671839268287" lon="9.193877482551708"><ele>772.0</ele><time>2026-04-27T06:53:58.999Z</time></trkpt><trkpt lat="40.15661973819863" lon="9.193957359610845"><ele>772.0</ele><time>2026-04-27T06:54:00.998Z</time></trkpt><trkpt lat="40.15656044601145" lon="9.193999205042639"><ele>772.0</ele><time>2026-04-27T06:54:01.998Z</time></trkpt><trkpt lat="40.156467959636714" lon="9.194077398723756"><ele>772.0</ele><time>2026-04-27T06:54:03.998Z</time></trkpt><trkpt lat="40.156415057240984" lon="9.194126482664135"><ele>768.5714285714287</ele><time>2026-04-27T06:54:04.998Z</time></trkpt><trkpt lat="40.1563500412044" lon="9.194166316077341"><ele>765.1428571428571</ele><time>2026-04-27T06:54:05.998Z</time></trkpt><trkpt lat="40.15629531777754" lon="9.194222327266129"><ele>761.7142857142858</ele><time>2026-04-27T06:54:06.998Z</time></trkpt><trkpt lat="40.15623736896147" lon="9.194259041261512"><ele>758.2857142857143</ele><time>2026-04-27T06:54:07.998Z</time></trkpt><trkpt lat="40.156168657578725" lon="9.194285047355049"><ele>754.8571428571429</ele><time>2026-04-27T06:54:08.998Z</time></trkpt><trkpt lat="40.156097091123556" lon="9.194307124224688"><ele>751.4285714285714</ele><time>2026-04-27T06:54:09.998Z</time></trkpt><trkpt lat="40.15602642008687" lon="9.19431930556314"><ele>748.0</ele><time>2026-04-27T06:54:10.998Z</time></trkpt><trkpt lat="40.155944096405484" lon="9.194324911724689"><ele>748.0</ele><time>2026-04-27T06:54:11.998Z</time></trkpt><trkpt lat="40.15585904017855" lon="9.194331966429358"><ele>748.0</ele><time>2026-04-27T06:54:12.998Z</time></trkpt><trkpt lat="40.155772376209676" lon="9.194334913512435"><ele>748.0</ele><time>2026-04-27T06:54:13.998Z</time></trkpt><trkpt lat="40.15568831631748" lon="9.194339998903207"><ele>748.0</ele><time>2026-04-27T06:54:14.998Z</time></trkpt><trkpt lat="40.155607730831036" lon="9.194339332307525"><ele>748.0</ele><time>2026-04-27T06:54:15.998Z</time></trkpt><trkpt lat="40.15552415435722" lon="9.19434560182275"><ele>748.0</ele><time>2026-04-27T06:54:16.998Z</time></trkpt><trkpt lat="40.15544515410214" lon="9.194357447368356"><ele>748.3333333333334</ele><time>2026-04-27T06:54:17.998Z</time></trkpt><trkpt lat="40.15536520437319" lon="9.194370175982902"><ele>748.6666666666667</ele><time>2026-04-27T06:54:18.998Z</time></trkpt><trkpt lat="40.155289781273936" lon="9.194381366819913"><ele>749.0</ele><time>2026-04-27T06:54:19.998Z</time></trkpt><trkpt lat="40.15520696422745" lon="9.19439109049543"><ele>749.3333333333334</ele><time>2026-04-27T06:54:20.998Z</time></trkpt><trkpt lat="40.1551228166882" lon="9.194399972722868"><ele>749.6666666666666</ele><time>2026-04-27T06:54:21.998Z</time></trkpt><trkpt lat="40.15503591065005" lon="9.194427322143795"><ele>750.0</ele><time>2026-04-27T06:54:22.998Z</time></trkpt><trkpt lat="40.15494384776403" lon="9.194453831880924"><ele>750.6</ele><time>2026-04-27T06:54:23.998Z</time></trkpt><trkpt lat="40.1548549934607" lon="9.194486340825097"><ele>751.2</ele><time>2026-04-27T06:54:24.998Z</time></trkpt><trkpt lat="40.15476647958936" lon="9.194533984124082"><ele>751.8</ele><time>2026-04-27T06:54:25.998Z</time></trkpt><trkpt lat="40.15467892978211" lon="9.194597150177762"><ele>752.4</ele><time>2026-04-27T06:54:26.998Z</time></trkpt><trkpt lat="40.154598602341785" lon="9.194682217590437"><ele>753.0</ele><time>2026-04-27T06:54:27.998Z</time></trkpt><trkpt lat="40.15452823176418" lon="9.19478808209823"><ele>750.5999999999999</ele><time>2026-04-27T06:54:28.998Z</time></trkpt><trkpt lat="40.15447617123764" lon="9.194896403312885"><ele>748.1999999999999</ele><time>2026-04-27T06:54:29.998Z</time></trkpt><trkpt lat="40.15443125782153" lon="9.195016038038961"><ele>745.8</ele><time>2026-04-27T06:54:30.998Z</time></trkpt><trkpt lat="40.15439305606577" lon="9.195154555507063"><ele>743.4</ele><time>2026-04-27T06:54:31.998Z</time></trkpt><trkpt lat="40.15436557655459" lon="9.195301908009318"><ele>741.0</ele><time>2026-04-27T06:54:32.998Z</time></trkpt><trkpt lat="40.154340607580565" lon="9.195445089623043"><ele>741.0</ele><time>2026-04-27T06:54:33.998Z</time></trkpt><trkpt lat="40.154262896813755" lon="9.195539069714219"><ele>741.0</ele><time>2026-04-27T06:54:34.998Z</time></trkpt><trkpt lat="40.1541740815135" lon="9.195600986629993"><ele>741.0</ele><time>2026-04-27T06:54:35.998Z</time></trkpt><trkpt lat="40.15406319773752" lon="9.195640327480502"><ele>741.0</ele><time>2026-04-27T06:54:36.998Z</time></trkpt><trkpt lat="40.15395653265175" lon="9.19567971396496"><ele>741.0</ele><time>2026-04-27T06:54:37.998Z</time></trkpt><trkpt lat="40.153844795729135" lon="9.195740989991434"><ele>740.0</ele><time>2026-04-27T06:54:38.998Z</time></trkpt><trkpt lat="40.15374318455786" lon="9.19581146439178"><ele>739.0</ele><time>2026-04-27T06:54:39.998Z</time></trkpt><trkpt lat="40.15364156235631" lon="9.195895684841059"><ele>738.0</ele><time>2026-04-27T06:54:40.998Z</time></trkpt><trkpt lat="40.15354796783475" lon="9.195995237376374"><ele>737.0</ele><time>2026-04-27T06:54:41.998Z</time></trkpt><trkpt lat="40.153439144502954" lon="9.196089826005435"><ele>737.0</ele><time>2026-04-27T06:54:42.998Z</time></trkpt><trkpt lat="40.15332566074177" lon="9.196154918023176"><ele>737.0</ele><time>2026-04-27T06:54:43.998Z</time></trkpt><trkpt lat="40.15321635356219" lon="9.196228237339188"><ele>737.0</ele><time>2026-04-27T06:54:44.998Z</time></trkpt><trkpt lat="40.15311783444214" lon="9.196320791494802"><ele>737.0</ele><time>2026-04-27T06:54:45.998Z</time></trkpt><trkpt lat="40.15302907043615" lon="9.19643914826795"><ele>732.5</ele><time>2026-04-27T06:54:46.998Z</time></trkpt><trkpt lat="40.15293940194143" lon="9.196563695665654"><ele>728.0</ele><time>2026-04-27T06:54:47.998Z</time></trkpt><trkpt lat="40.15284179891944" lon="9.196687381020375"><ele>723.5</ele><time>2026-04-27T06:54:48.998Z</time></trkpt><trkpt lat="40.15273950297418" lon="9.196773588478422"><ele>719.0</ele><time>2026-04-27T06:54:49.998Z</time></trkpt><trkpt lat="40.152618948358615" lon="9.196834938504113"><ele>719.0</ele><time>2026-04-27T06:54:50.998Z</time></trkpt><trkpt lat="40.15249633713634" lon="9.196880874762213"><ele>719.0</ele><time>2026-04-27T06:54:51.998Z</time></trkpt><trkpt lat="40.15237321038162" lon="9.196906677253162"><ele>719.0</ele><time>2026-04-27T06:54:52.998Z</time></trkpt><trkpt lat="40.15224186320566" lon="9.196888900834683"><ele>719.0</ele><time>2026-04-27T06:54:53.998Z</time></trkpt><trkpt lat="40.15212297219081" lon="9.196830978838065"><ele>716.25</ele><time>2026-04-27T06:54:54.998Z</time></trkpt><trkpt lat="40.15200557116942" lon="9.196760465550472"><ele>713.5</ele><time>2026-04-27T06:54:55.998Z</time></trkpt><trkpt lat="40.15190457187267" lon="9.196673820739344"><ele>710.75</ele><time>2026-04-27T06:54:56.998Z</time></trkpt><trkpt lat="40.1518321677004" lon="9.196544998520737"><ele>708.0</ele><time>2026-04-27T06:54:57.998Z</time></trkpt><trkpt lat="40.15182628616597" lon="9.196388570088326"><ele>708.0</ele><time>2026-04-27T06:54:58.998Z</time></trkpt><trkpt lat="40.15180448846794" lon="9.196226830502656"><ele>708.0</ele><time>2026-04-27T06:54:59.998Z</time></trkpt><trkpt lat="40.1517680631632" lon="9.196066285350648"><ele>708.0</ele><time>2026-04-27T06:55:00.998Z</time></trkpt><trkpt lat="40.151746391806604" lon="9.19590405164852"><ele>708.0</ele><time>2026-04-27T06:55:01.998Z</time></trkpt><trkpt lat="40.151728761422056" lon="9.195745339897321"><ele>710.25</ele><time>2026-04-27T06:55:02.998Z</time></trkpt><trkpt lat="40.15169840493773" lon="9.195599103009505"><ele>712.5</ele><time>2026-04-27T06:55:03.998Z</time></trkpt><trkpt lat="40.15163700515657" lon="9.195475861897862"><ele>714.75</ele><time>2026-04-27T06:55:04.998Z</time></trkpt><trkpt lat="40.15154442390574" lon="9.1953891618069"><ele>717.0</ele><time>2026-04-27T06:55:05.998Z</time></trkpt><trkpt lat="40.151431002877175" lon="9.195371088639902"><ele>717.25</ele><time>2026-04-27T06:55:06.998Z</time></trkpt><trkpt lat="40.15131889565254" lon="9.195415424798172"><ele>717.5</ele><time>2026-04-27T06:55:07.998Z</time></trkpt><trkpt lat="40.15122604644629" lon="9.195511293696422"><ele>717.75</ele><time>2026-04-27T06:55:08.998Z</time></trkpt><trkpt lat="40.15113896271741" lon="9.195631176804017"><ele>718.0</ele><time>2026-04-27T06:55:09.998Z</time></trkpt><trkpt lat="40.15102759585689" lon="9.195703762525975"><ele>713.5</ele><time>2026-04-27T06:55:10.998Z</time></trkpt><trkpt lat="40.15090335669624" lon="9.19571706890685"><ele>709.0</ele><time>2026-04-27T06:55:11.998Z</time></trkpt><trkpt lat="40.15077946623309" lon="9.195759390569354"><ele>704.5</ele><time>2026-04-27T06:55:12.998Z</time></trkpt><trkpt lat="40.150669668029" lon="9.195849340251751"><ele>700.0</ele><time>2026-04-27T06:55:13.997Z</time></trkpt><trkpt lat="40.15056229386009" lon="9.195953206408552"><ele>699.25</ele><time>2026-04-27T06:55:14.997Z</time></trkpt><trkpt lat="40.150437002421214" lon="9.195998517812503"><ele>698.5</ele><time>2026-04-27T06:55:15.997Z</time></trkpt><trkpt lat="40.150308398647866" lon="9.195940019353182"><ele>697.75</ele><time>2026-04-27T06:55:16.997Z</time></trkpt><trkpt lat="40.15018682764008" lon="9.195879062462907"><ele>697.0</ele><time>2026-04-27T06:55:17.997Z</time></trkpt><trkpt lat="40.15007250095523" lon="9.195793752201608"><ele>697.0</ele><time>2026-04-27T06:55:18.997Z</time></trkpt><trkpt lat="40.14994226072166" lon="9.195767188064735"><ele>697.0</ele><time>2026-04-27T06:55:19.997Z</time></trkpt><trkpt lat="40.14982120310636" lon="9.195771176795384"><ele>697.0</ele><time>2026-04-27T06:55:20.997Z</time></trkpt><trkpt lat="40.14970603999165" lon="9.195816218088057"><ele>697.0</ele><time>2026-04-27T06:55:21.997Z</time></trkpt><trkpt lat="40.14959632015667" lon="9.19589602760834"><ele>699.25</ele><time>2026-04-27T06:55:22.997Z</time></trkpt><trkpt lat="40.14950558113359" lon="9.19601172657882"><ele>701.5</ele><time>2026-04-27T06:55:23.997Z</time></trkpt><trkpt lat="40.14942442385802" lon="9.19613072823728"><ele>703.75</ele><time>2026-04-27T06:55:24.997Z</time></trkpt><trkpt lat="40.14938181093182" lon="9.196292523016215"><ele>706.0</ele><time>2026-04-27T06:55:25.997Z</time></trkpt><trkpt lat="40.14939259178314" lon="9.196456365622353"><ele>704.0</ele><time>2026-04-27T06:55:26.997Z</time></trkpt><trkpt lat="40.14940302092017" lon="9.196619347428829"><ele>702.0</ele><time>2026-04-27T06:55:27.997Z</time></trkpt><trkpt lat="40.14942329005028" lon="9.196784316280063"><ele>700.0</ele><time>2026-04-27T06:55:28.997Z</time></trkpt><trkpt lat="40.1494380739562" lon="9.196947632400809"><ele>698.0</ele><time>2026-04-27T06:55:29.997Z</time></trkpt><trkpt lat="40.149415791672865" lon="9.19710308593631"><ele>698.0</ele><time>2026-04-27T06:55:30.997Z</time></trkpt><trkpt lat="40.149340474941205" lon="9.197229820341748"><ele>698.0</ele><time>2026-04-27T06:55:31.997Z</time></trkpt><trkpt lat="40.14921890510048" lon="9.197272525861075"><ele>698.0</ele><time>2026-04-27T06:55:32.997Z</time></trkpt><trkpt lat="40.1491065419974" lon="9.197351330961597"><ele>698.0</ele><time>2026-04-27T06:55:33.997Z</time></trkpt><trkpt lat="40.148982295250136" lon="9.197394989263781"><ele>694.5</ele><time>2026-04-27T06:55:34.997Z</time></trkpt><trkpt lat="40.148856265402955" lon="9.197437050251343"><ele>691.0</ele><time>2026-04-27T06:55:35.997Z</time></trkpt><trkpt lat="40.14872613237607" lon="9.197466956029068"><ele>687.5</ele><time>2026-04-27T06:55:36.997Z</time></trkpt><trkpt lat="40.14858695657209" lon="9.197476411675668"><ele>684.0</ele><time>2026-04-27T06:55:37.997Z</time></trkpt><trkpt lat="40.14845231912564" lon="9.197469787761964"><ele>684.0</ele><time>2026-04-27T06:55:38.997Z</time></trkpt><trkpt lat="40.14831161399095" lon="9.197426277877337"><ele>684.0</ele><time>2026-04-27T06:55:39.997Z</time></trkpt><trkpt lat="40.14818066732768" lon="9.197409207140755"><ele>684.0</ele><time>2026-04-27T06:55:40.997Z</time></trkpt><trkpt lat="40.14804867121679" lon="9.197429350231124"><ele>684.0</ele><time>2026-04-27T06:55:41.997Z</time></trkpt><trkpt lat="40.1479263650201" lon="9.197498260103371"><ele>685.0</ele><time>2026-04-27T06:55:42.997Z</time></trkpt><trkpt lat="40.147798813388306" lon="9.197549662009534"><ele>686.0</ele><time>2026-04-27T06:55:43.997Z</time></trkpt><trkpt lat="40.14766245356776" lon="9.19755111635583"><ele>687.0</ele><time>2026-04-27T06:55:44.997Z</time></trkpt><trkpt lat="40.14754093037767" lon="9.197549789997833"><ele>688.0</ele><time>2026-04-27T06:55:45.997Z</time></trkpt><trkpt lat="40.14744757616529" lon="9.197595156384889"><ele>688.0</ele><time>2026-04-27T06:55:46.997Z</time></trkpt><trkpt lat="40.14739223879701" lon="9.19770531693418"><ele>688.0</ele><time>2026-04-27T06:55:47.997Z</time></trkpt><trkpt lat="40.147388151785535" lon="9.19783904938071"><ele>688.0</ele><time>2026-04-27T06:55:48.997Z</time></trkpt><trkpt lat="40.147418339571566" lon="9.197979005205873"><ele>688.0</ele><time>2026-04-27T06:55:49.997Z</time></trkpt><trkpt lat="40.147416179164374" lon="9.198128784815271"><ele>688.0</ele><time>2026-04-27T06:55:50.997Z</time></trkpt><trkpt lat="40.14735621245891" lon="9.19825604981415"><ele>686.0</ele><time>2026-04-27T06:55:51.997Z</time></trkpt><trkpt lat="40.14725765537809" lon="9.198356422293854"><ele>684.0</ele><time>2026-04-27T06:55:52.997Z</time></trkpt><trkpt lat="40.14720754011896" lon="9.198494192988903"><ele>682.0</ele><time>2026-04-27T06:55:53.997Z</time></trkpt><trkpt lat="40.14721717565288" lon="9.19865545013399"><ele>680.0</ele><time>2026-04-27T06:55:54.997Z</time></trkpt><trkpt lat="40.14726434085957" lon="9.198800872675589"><ele>680.0</ele><time>2026-04-27T06:55:55.997Z</time></trkpt><trkpt lat="40.14731610479327" lon="9.198944658686939"><ele>680.0</ele><time>2026-04-27T06:55:56.997Z</time></trkpt><trkpt lat="40.14734835308703" lon="9.19908749064883"><ele>680.0</ele><time>2026-04-27T06:55:57.997Z</time></trkpt><trkpt lat="40.147333945828485" lon="9.199222506526569"><ele>680.0</ele><time>2026-04-27T06:55:58.997Z</time></trkpt><trkpt lat="40.14726790526603" lon="9.19933313083949"><ele>680.0</ele><time>2026-04-27T06:55:59.997Z</time></trkpt><trkpt lat="40.14716800654751" lon="9.19938743406456"><ele>676.0</ele><time>2026-04-27T06:56:00.997Z</time></trkpt><trkpt lat="40.147050278212866" lon="9.199411433581155"><ele>672.0</ele><time>2026-04-27T06:56:01.997Z</time></trkpt><trkpt lat="40.146927703856804" lon="9.199441468639742"><ele>668.0</ele><time>2026-04-27T06:56:02.997Z</time></trkpt><trkpt lat="40.14679364456975" lon="9.199470119032709"><ele>664.0</ele><time>2026-04-27T06:56:03.997Z</time></trkpt><trkpt lat="40.14665276536509" lon="9.199457608254436"><ele>663.25</ele><time>2026-04-27T06:56:04.997Z</time></trkpt><trkpt lat="40.14651286928567" lon="9.199426256457405"><ele>662.5</ele><time>2026-04-27T06:56:05.997Z</time></trkpt><trkpt lat="40.14636969750191" lon="9.199395946962595"><ele>661.75</ele><time>2026-04-27T06:56:06.997Z</time></trkpt><trkpt lat="40.1462283865886" lon="9.199399555936548"><ele>661.0</ele><time>2026-04-27T06:56:07.997Z</time></trkpt><trkpt lat="40.14608726503574" lon="9.19942864068781"><ele>661.0</ele><time>2026-04-27T06:56:08.997Z</time></trkpt><trkpt lat="40.14594347808103" lon="9.199490886718381"><ele>661.0</ele><time>2026-04-27T06:56:09.997Z</time></trkpt><trkpt lat="40.14580942305847" lon="9.199550254873685"><ele>661.0</ele><time>2026-04-27T06:56:10.997Z</time></trkpt><trkpt lat="40.14568356728038" lon="9.199597581423163"><ele>661.0</ele><time>2026-04-27T06:56:11.997Z</time></trkpt><trkpt lat="40.14556697918753" lon="9.199656366711665"><ele>658.75</ele><time>2026-04-27T06:56:12.997Z</time></trkpt><trkpt lat="40.145485301899384" lon="9.19975788286579"><ele>656.5</ele><time>2026-04-27T06:56:13.997Z</time></trkpt><trkpt lat="40.14541362930847" lon="9.199882107055764"><ele>654.25</ele><time>2026-04-27T06:56:14.997Z</time></trkpt><trkpt lat="40.14536090055229" lon="9.20002797273018"><ele>652.0</ele><time>2026-04-27T06:56:15.997Z</time></trkpt><trkpt lat="40.14532748864794" lon="9.200199194208881"><ele>651.0</ele><time>2026-04-27T06:56:16.997Z</time></trkpt><trkpt lat="40.145291919674605" lon="9.200358574472814"><ele>650.0</ele><time>2026-04-27T06:56:17.997Z</time></trkpt><trkpt lat="40.1452529337231" lon="9.20051974057138"><ele>649.0</ele><time>2026-04-27T06:56:18.997Z</time></trkpt><trkpt lat="40.145219573002116" lon="9.200674276143415"><ele>648.0</ele><time>2026-04-27T06:56:19.997Z</time></trkpt><trkpt lat="40.14518509994188" lon="9.20083586861966"><ele>648.0</ele><time>2026-04-27T06:56:20.997Z</time></trkpt><trkpt lat="40.14514999261231" lon="9.200996452640648"><ele>648.0</ele><time>2026-04-27T06:56:21.997Z</time></trkpt><trkpt lat="40.14509956405047" lon="9.201133176825744"><ele>648.0</ele><time>2026-04-27T06:56:22.997Z</time></trkpt><trkpt lat="40.145029356882716" lon="9.201230766365601"><ele>648.0</ele><time>2026-04-27T06:56:23.997Z</time></trkpt><trkpt lat="40.14492704413443" lon="9.201259533651497"><ele>649.0</ele><time>2026-04-27T06:56:24.997Z</time></trkpt><trkpt lat="40.14481333412438" lon="9.20124327735101"><ele>650.0</ele><time>2026-04-27T06:56:25.996Z</time></trkpt><trkpt lat="40.14469531407997" lon="9.201194345034038"><ele>651.0</ele><time>2026-04-27T06:56:26.996Z</time></trkpt><trkpt lat="40.144573326700524" lon="9.201153230016857"><ele>652.0</ele><time>2026-04-27T06:56:27.996Z</time></trkpt><trkpt lat="40.144448281468016" lon="9.201117698040987"><ele>652.0</ele><time>2026-04-27T06:56:28.996Z</time></trkpt><trkpt lat="40.14431308299251" lon="9.201074761992551"><ele>652.0</ele><time>2026-04-27T06:56:29.996Z</time></trkpt><trkpt lat="40.14417573620425" lon="9.20102542907386"><ele>652.0</ele><time>2026-04-27T06:56:30.996Z</time></trkpt><trkpt lat="40.1440299156539" lon="9.2010016427661"><ele>652.0</ele><time>2026-04-27T06:56:31.996Z</time></trkpt><trkpt lat="40.143880702678906" lon="9.200993967400247"><ele>651.5</ele><time>2026-04-27T06:56:32.996Z</time></trkpt><trkpt lat="40.14372915847803" lon="9.201049962398791"><ele>651.0</ele><time>2026-04-27T06:56:33.996Z</time></trkpt><trkpt lat="40.14360523755856" lon="9.20115030568539"><ele>650.5</ele><time>2026-04-27T06:56:34.996Z</time></trkpt><trkpt lat="40.14349880177244" lon="9.201251983482507"><ele>650.0</ele><time>2026-04-27T06:56:35.996Z</time></trkpt><trkpt lat="40.14345822889992" lon="9.201408880423765"><ele>650.25</ele><time>2026-04-27T06:56:36.996Z</time></trkpt><trkpt lat="40.14340552967073" lon="9.201570936626473"><ele>650.5</ele><time>2026-04-27T06:56:37.996Z</time></trkpt><trkpt lat="40.1433670634932" lon="9.20175785520847"><ele>650.75</ele><time>2026-04-27T06:56:38.996Z</time></trkpt><trkpt lat="40.14332818402022" lon="9.20193469545142"><ele>651.0</ele><time>2026-04-27T06:56:39.996Z</time></trkpt><trkpt lat="40.14327516415446" lon="9.2021122588738"><ele>650.75</ele><time>2026-04-27T06:56:40.996Z</time></trkpt><trkpt lat="40.14319217080314" lon="9.20226338038403"><ele>650.5</ele><time>2026-04-27T06:56:41.996Z</time></trkpt><trkpt lat="40.14305838418933" lon="9.202366457339451"><ele>650.25</ele><time>2026-04-27T06:56:42.996Z</time></trkpt><trkpt lat="40.142935419318036" lon="9.202482883859787"><ele>650.0</ele><time>2026-04-27T06:56:43.996Z</time></trkpt><trkpt lat="40.14281781108124" lon="9.202603665772243"><ele>650.0</ele><time>2026-04-27T06:56:44.996Z</time></trkpt><trkpt lat="40.14272055929965" lon="9.202753892025255"><ele>650.0</ele><time>2026-04-27T06:56:45.996Z</time></trkpt><trkpt lat="40.14259870082392" lon="9.202856081743247"><ele>650.0</ele><time>2026-04-27T06:56:46.996Z</time></trkpt><trkpt lat="40.14247470708001" lon="9.202927602817638"><ele>650.0</ele><time>2026-04-27T06:56:47.996Z</time></trkpt><trkpt lat="40.142352815763886" lon="9.202913642511474"><ele>649.25</ele><time>2026-04-27T06:56:48.996Z</time></trkpt><trkpt lat="40.14224253077687" lon="9.202879491020681"><ele>648.5</ele><time>2026-04-27T06:56:49.996Z</time></trkpt><trkpt lat="40.14211306921308" lon="9.202860711664673"><ele>647.75</ele><time>2026-04-27T06:56:50.996Z</time></trkpt><trkpt lat="40.14196854183013" lon="9.202850834137502"><ele>647.0</ele><time>2026-04-27T06:56:51.996Z</time></trkpt><trkpt lat="40.14182255457608" lon="9.202853724977203"><ele>647.0</ele><time>2026-04-27T06:56:52.996Z</time></trkpt><trkpt lat="40.141677567041555" lon="9.20285507454741"><ele>647.0</ele><time>2026-04-27T06:56:53.996Z</time></trkpt><trkpt lat="40.1415221358532" lon="9.202856203766675"><ele>647.0</ele><time>2026-04-27T06:56:54.996Z</time></trkpt><trkpt lat="40.141373080244065" lon="9.202856376418431"><ele>647.0</ele><time>2026-04-27T06:56:55.996Z</time></trkpt><trkpt lat="40.141217780857204" lon="9.203387500143828"><ele>646.0</ele><time>2026-04-27T06:56:56.996Z</time></trkpt><trkpt lat="40.141054539601406" lon="9.203491970032989"><ele>645.0</ele><time>2026-04-27T06:56:57.996Z</time></trkpt><trkpt lat="40.14078918169717" lon="9.202880256219007"><ele>647.0</ele><time>2026-04-27T06:56:58.996Z</time></trkpt><trkpt lat="40.14062373088231" lon="9.202874828497123"><ele>649.0</ele><time>2026-04-27T06:56:59.996Z</time></trkpt><trkpt lat="40.14046067135401" lon="9.202878607690245"><ele>651.0</ele><time>2026-04-27T06:57:00.996Z</time></trkpt><trkpt lat="40.140297562908756" lon="9.202873351916395"><ele>651.0</ele><time>2026-04-27T06:57:01.996Z</time></trkpt><trkpt lat="40.14013739926312" lon="9.202881620494956"><ele>651.0</ele><time>2026-04-27T06:57:02.996Z</time></trkpt><trkpt lat="40.13998054047231" lon="9.20288957707444"><ele>651.0</ele><time>2026-04-27T06:57:03.996Z</time></trkpt><trkpt lat="40.1398186449315" lon="9.202898585744853"><ele>651.0</ele><time>2026-04-27T06:57:04.996Z</time></trkpt><trkpt lat="40.13966439988243" lon="9.202916367454726"><ele>651.0</ele><time>2026-04-27T06:57:05.996Z</time></trkpt><trkpt lat="40.13950499141538" lon="9.202971539779703"><ele>651.0</ele><time>2026-04-27T06:57:06.996Z</time></trkpt><trkpt lat="40.139355612814185" lon="9.203057889640847"><ele>651.0</ele><time>2026-04-27T06:57:07.996Z</time></trkpt><trkpt lat="40.1392107226398" lon="9.203162922844362"><ele>651.0</ele><time>2026-04-27T06:57:08.996Z</time></trkpt><trkpt lat="40.13906890315434" lon="9.203273544318876"><ele>651.0</ele><time>2026-04-27T06:57:09.996Z</time></trkpt><trkpt lat="40.138923958911455" lon="9.203383445082917"><ele>650.0</ele><time>2026-04-27T06:57:10.996Z</time></trkpt><trkpt lat="40.138774524057965" lon="9.203482921983465"><ele>649.0</ele><time>2026-04-27T06:57:11.996Z</time></trkpt><trkpt lat="40.138628195286046" lon="9.203585993314036"><ele>648.0</ele><time>2026-04-27T06:57:12.996Z</time></trkpt><trkpt lat="40.13847650885729" lon="9.20368691486088"><ele>648.0</ele><time>2026-04-27T06:57:13.996Z</time></trkpt><trkpt lat="40.138323952738006" lon="9.203784102519817"><ele>648.0</ele><time>2026-04-27T06:57:14.996Z</time></trkpt><trkpt lat="40.138170071762644" lon="9.203873798202792"><ele>648.0</ele><time>2026-04-27T06:57:15.996Z</time></trkpt><trkpt lat="40.138016739070636" lon="9.203960951380653"><ele>649.3333333333334</ele><time>2026-04-27T06:57:16.996Z</time></trkpt><trkpt lat="40.13786201108806" lon="9.204046729320247"><ele>650.6666666666667</ele><time>2026-04-27T06:57:17.996Z</time></trkpt><trkpt lat="40.137703773407296" lon="9.204131825822992"><ele>652.0</ele><time>2026-04-27T06:57:18.996Z</time></trkpt><trkpt lat="40.13754321987045" lon="9.204219274104815"><ele>649.0</ele><time>2026-04-27T06:57:19.996Z</time></trkpt><trkpt lat="40.137383040829505" lon="9.204308265644903"><ele>646.0</ele><time>2026-04-27T06:57:20.996Z</time></trkpt><trkpt lat="40.13722467705731" lon="9.204404712939207"><ele>643.0</ele><time>2026-04-27T06:57:21.996Z</time></trkpt><trkpt lat="40.13706703290505" lon="9.204504638516575"><ele>643.0</ele><time>2026-04-27T06:57:22.996Z</time></trkpt><trkpt lat="40.13691526351129" lon="9.204612647529475"><ele>643.0</ele><time>2026-04-27T06:57:23.996Z</time></trkpt><trkpt lat="40.136762921950016" lon="9.20472594035238"><ele>643.0</ele><time>2026-04-27T06:57:24.996Z</time></trkpt><trkpt lat="40.13661347162753" lon="9.204838911980092"><ele>642.0</ele><time>2026-04-27T06:57:25.996Z</time></trkpt><trkpt lat="40.13648559467475" lon="9.204968454290286"><ele>641.0</ele><time>2026-04-27T06:57:26.996Z</time></trkpt><trkpt lat="40.13639655532411" lon="9.205135805636301"><ele>640.0</ele><time>2026-04-27T06:57:27.996Z</time></trkpt><trkpt lat="40.136326221282225" lon="9.205381975040742"><ele>640.0</ele><time>2026-04-27T06:57:28.996Z</time></trkpt><trkpt lat="40.1362998158359" lon="9.20564777293119"><ele>640.0</ele><time>2026-04-27T06:57:29.996Z</time></trkpt><trkpt lat="40.136298935427554" lon="9.205906885443756"><ele>640.0</ele><time>2026-04-27T06:57:30.996Z</time></trkpt><trkpt lat="40.13629176568378" lon="9.206161128256118"><ele>641.0</ele><time>2026-04-27T06:57:31.996Z</time></trkpt><trkpt lat="40.13622026644759" lon="9.206378969477976"><ele>642.0</ele><time>2026-04-27T06:57:32.996Z</time></trkpt><trkpt lat="40.13609271842084" lon="9.206580096880684"><ele>643.0</ele><time>2026-04-27T06:57:33.996Z</time></trkpt><trkpt lat="40.13594516420132" lon="9.206811619446354"><ele>642.0</ele><time>2026-04-27T06:57:34.996Z</time></trkpt><trkpt lat="40.13579800615479" lon="9.207047196009398"><ele>641.0</ele><time>2026-04-27T06:57:35.996Z</time></trkpt><trkpt lat="40.13562505254726" lon="9.207240086684205"><ele>646.5</ele><time>2026-04-27T06:57:36.996Z</time></trkpt><trkpt lat="40.1354308119612" lon="9.207406426373103"><ele>652.0</ele><time>2026-04-27T06:57:37.996Z</time></trkpt><trkpt lat="40.135214009476904" lon="9.207540919806217"><ele>652.0</ele><time>2026-04-27T06:57:38.995Z</time></trkpt><trkpt lat="40.134999201919044" lon="9.207664496483977"><ele>652.0</ele><time>2026-04-27T06:57:39.995Z</time></trkpt><trkpt lat="40.13479064484982" lon="9.20778668138526"><ele>648.0</ele><time>2026-04-27T06:57:40.995Z</time></trkpt><trkpt lat="40.134595416794625" lon="9.207907411990183"><ele>644.0</ele><time>2026-04-27T06:57:41.995Z</time></trkpt><trkpt lat="40.134423833317946" lon="9.208011975168043"><ele>640.0</ele><time>2026-04-27T06:57:42.995Z</time></trkpt><trkpt lat="40.13428973598652" lon="9.208124876859692"><ele>644.3333333333334</ele><time>2026-04-27T06:57:43.995Z</time></trkpt><trkpt lat="40.13420237923039" lon="9.208292942410145"><ele>648.6666666666666</ele><time>2026-04-27T06:57:44.995Z</time></trkpt><trkpt lat="40.134156439472854" lon="9.208505025189686"><ele>653.0</ele><time>2026-04-27T06:57:45.995Z</time></trkpt><trkpt lat="40.13416586519253" lon="9.208747229289433"><ele>654.0</ele><time>2026-04-27T06:57:46.995Z</time></trkpt><trkpt lat="40.134232798039186" lon="9.209012671625223"><ele>655.0</ele><time>2026-04-27T06:57:47.995Z</time></trkpt><trkpt lat="40.13433801749655" lon="9.20930446130929"><ele>655.0</ele><time>2026-04-27T06:57:48.995Z</time></trkpt><trkpt lat="40.13444012229807" lon="9.209629268858867"><ele>655.0</ele><time>2026-04-27T06:57:49.995Z</time></trkpt><trkpt lat="40.134531972956644" lon="9.209921976103487"><ele>652.6666666666667</ele><time>2026-04-27T06:57:50.995Z</time></trkpt><trkpt lat="40.13462879965691" lon="9.210188223357097"><ele>650.3333333333334</ele><time>2026-04-27T06:57:51.995Z</time></trkpt><trkpt lat="40.13474510412798" lon="9.210413759459664"><ele>648.0</ele><time>2026-04-27T06:57:52.995Z</time></trkpt><trkpt lat="40.134851621762266" lon="9.210599173392028"><ele>647.6666666666666</ele><time>2026-04-27T06:57:53.995Z</time></trkpt><trkpt lat="40.134900326008854" lon="9.21081089218636"><ele>647.3333333333333</ele><time>2026-04-27T06:57:54.995Z</time></trkpt><trkpt lat="40.13491590164236" lon="9.211030318314192"><ele>647.0</ele><time>2026-04-27T06:57:55.995Z</time></trkpt><trkpt lat="40.13486866569403" lon="9.211259344657662"><ele>647.0</ele><time>2026-04-27T06:57:56.995Z</time></trkpt><trkpt lat="40.13476687537875" lon="9.211460200825256"><ele>647.0</ele><time>2026-04-27T06:57:57.995Z</time></trkpt><trkpt lat="40.134634032136844" lon="9.21166838258802"><ele>647.0</ele><time>2026-04-27T06:57:58.995Z</time></trkpt><trkpt lat="40.13449917072909" lon="9.2118931456365"><ele>647.5</ele><time>2026-04-27T06:57:59.995Z</time></trkpt><trkpt lat="40.134349491672765" lon="9.212120010872221"><ele>648.0</ele><time>2026-04-27T06:58:00.995Z</time></trkpt><trkpt lat="40.13421755124682" lon="9.212352502604414"><ele>651.0</ele><time>2026-04-27T06:58:01.995Z</time></trkpt><trkpt lat="40.134123535004434" lon="9.212612252470057"><ele>654.0</ele><time>2026-04-27T06:58:02.995Z</time></trkpt><trkpt lat="40.13406292198263" lon="9.21286583363081"><ele>657.0</ele><time>2026-04-27T06:58:03.995Z</time></trkpt><trkpt lat="40.13400915195381" lon="9.213088680180714"><ele>651.0</ele><time>2026-04-27T06:58:04.995Z</time></trkpt><trkpt lat="40.1339027114623" lon="9.213247214940772"><ele>645.0</ele><time>2026-04-27T06:58:05.995Z</time></trkpt><trkpt lat="40.13378689201615" lon="9.21336330725338"><ele>639.0</ele><time>2026-04-27T06:58:06.995Z</time></trkpt><trkpt lat="40.13363979338007" lon="9.213398810715004"><ele>639.0</ele><time>2026-04-27T06:58:07.995Z</time></trkpt><trkpt lat="40.13347881721642" lon="9.213355556504727"><ele>639.0</ele><time>2026-04-27T06:58:08.995Z</time></trkpt><trkpt lat="40.133303445908425" lon="9.213346029087615"><ele>639.0</ele><time>2026-04-27T06:58:09.995Z</time></trkpt><trkpt lat="40.13312806911093" lon="9.213312258225956"><ele>639.3333333333334</ele><time>2026-04-27T06:58:10.995Z</time></trkpt><trkpt lat="40.13294543028458" lon="9.213294308512623"><ele>639.6666666666667</ele><time>2026-04-27T06:58:11.995Z</time></trkpt><trkpt lat="40.13275691787114" lon="9.213267853302142"><ele>640.0</ele><time>2026-04-27T06:58:12.995Z</time></trkpt><trkpt lat="40.13256932764032" lon="9.213241433051108"><ele>640.0</ele><time>2026-04-27T06:58:13.995Z</time></trkpt><trkpt lat="40.13239615132957" lon="9.213215813100675"><ele>640.0</ele><time>2026-04-27T06:58:14.995Z</time></trkpt><trkpt lat="40.13223946565737" lon="9.21319816818979"><ele>640.0</ele><time>2026-04-27T06:58:15.995Z</time></trkpt><trkpt lat="40.13209786275069" lon="9.213182476175778"><ele>643.75</ele><time>2026-04-27T06:58:16.995Z</time></trkpt><trkpt lat="40.131966527924675" lon="9.213153251907931"><ele>647.5</ele><time>2026-04-27T06:58:17.995Z</time></trkpt><trkpt lat="40.13184363765648" lon="9.213075379966261"><ele>651.25</ele><time>2026-04-27T06:58:18.995Z</time></trkpt><trkpt lat="40.13175280927135" lon="9.21292169016825"><ele>655.0</ele><time>2026-04-27T06:58:19.995Z</time></trkpt><trkpt lat="40.131632109237074" lon="9.212778441914622"><ele>654.3333333333334</ele><time>2026-04-27T06:58:20.995Z</time></trkpt><trkpt lat="40.13153071813706" lon="9.212611887317887"><ele>653.6666666666666</ele><time>2026-04-27T06:58:21.995Z</time></trkpt><trkpt lat="40.13142158708915" lon="9.21244996909759"><ele>653.0</ele><time>2026-04-27T06:58:22.995Z</time></trkpt><trkpt lat="40.131302971871484" lon="9.212276195939355"><ele>653.0</ele><time>2026-04-27T06:58:23.995Z</time></trkpt><trkpt lat="40.131176659785716" lon="9.212134406557281"><ele>653.0</ele><time>2026-04-27T06:58:24.995Z</time></trkpt><trkpt lat="40.13103457004097" lon="9.21201961474723"><ele>653.0</ele><time>2026-04-27T06:58:25.995Z</time></trkpt><trkpt lat="40.130864583499815" lon="9.211938687696456"><ele>653.3333333333333</ele><time>2026-04-27T06:58:26.995Z</time></trkpt><trkpt lat="40.13068619410703" lon="9.211906881752867"><ele>653.6666666666666</ele><time>2026-04-27T06:58:27.995Z</time></trkpt><trkpt lat="40.1305027558393" lon="9.211922518132479"><ele>654.0</ele><time>2026-04-27T06:58:28.995Z</time></trkpt><trkpt lat="40.130329323705034" lon="9.211967230205278"><ele>654.0</ele><time>2026-04-27T06:58:29.995Z</time></trkpt><trkpt lat="40.13015735953349" lon="9.212018037230537"><ele>654.0</ele><time>2026-04-27T06:58:30.995Z</time></trkpt><trkpt lat="40.12998787558256" lon="9.212058615280805"><ele>654.0</ele><time>2026-04-27T06:58:31.995Z</time></trkpt><trkpt lat="40.129836925872155" lon="9.212014911316084"><ele>660.3333333333334</ele><time>2026-04-27T06:58:32.995Z</time></trkpt><trkpt lat="40.12969899436255" lon="9.211912506729336"><ele>666.6666666666667</ele><time>2026-04-27T06:58:33.995Z</time></trkpt><trkpt lat="40.12957243440135" lon="9.211744184031865"><ele>673.0</ele><time>2026-04-27T06:58:34.995Z</time></trkpt><trkpt lat="40.12944543011852" lon="9.211549057477939"><ele>670.6666666666667</ele><time>2026-04-27T06:58:35.995Z</time></trkpt><trkpt lat="40.12932378295948" lon="9.211356257533236"><ele>668.3333333333334</ele><time>2026-04-27T06:58:36.995Z</time></trkpt><trkpt lat="40.12922689137697" lon="9.211168547219629"><ele>666.0</ele><time>2026-04-27T06:58:37.995Z</time></trkpt><trkpt lat="40.129220330343095" lon="9.21094026994572"><ele>666.0</ele><time>2026-04-27T06:58:38.995Z</time></trkpt><trkpt lat="40.1292325566249" lon="9.210702762224827"><ele>666.0</ele><time>2026-04-27T06:58:39.995Z</time></trkpt><trkpt lat="40.12922731996942" lon="9.21044575354008"><ele>666.0</ele><time>2026-04-27T06:58:40.995Z</time></trkpt><trkpt lat="40.12924804057849" lon="9.210211317709504"><ele>663.6666666666666</ele><time>2026-04-27T06:58:41.995Z</time></trkpt><trkpt lat="40.12922568684827" lon="9.209984799253638"><ele>661.3333333333333</ele><time>2026-04-27T06:58:42.995Z</time></trkpt><trkpt lat="40.12914686675628" lon="9.209766518738867"><ele>659.0</ele><time>2026-04-27T06:58:43.995Z</time></trkpt><trkpt lat="40.12901873652405" lon="9.209588498297961"><ele>659.0</ele><time>2026-04-27T06:58:44.995Z</time></trkpt><trkpt lat="40.128845250318996" lon="9.20947170171405"><ele>659.0</ele><time>2026-04-27T06:58:45.995Z</time></trkpt><trkpt lat="40.12865190127368" lon="9.209387375302482"><ele>659.0</ele><time>2026-04-27T06:58:46.995Z</time></trkpt><trkpt lat="40.128468719514856" lon="9.209282967279378"><ele>659.0</ele><time>2026-04-27T06:58:47.995Z</time></trkpt><trkpt lat="40.128288254245426" lon="9.209183909616534"><ele>659.0</ele><time>2026-04-27T06:58:48.995Z</time></trkpt><trkpt lat="40.128108868408916" lon="9.209086101921264"><ele>659.0</ele><time>2026-04-27T06:58:49.995Z</time></trkpt><trkpt lat="40.12793199307939" lon="9.20899210927355"><ele>655.3333333333333</ele><time>2026-04-27T06:58:50.994Z</time></trkpt><trkpt lat="40.127769939224805" lon="9.208913192966552"><ele>651.6666666666666</ele><time>2026-04-27T06:58:51.994Z</time></trkpt><trkpt lat="40.1276158282839" lon="9.208862900773124"><ele>648.0</ele><time>2026-04-27T06:58:52.994Z</time></trkpt><trkpt lat="40.12747637814358" lon="9.208842443718273"><ele>646.0</ele><time>2026-04-27T06:58:53.994Z</time></trkpt><trkpt lat="40.12733753386288" lon="9.208876304354629"><ele>644.0</ele><time>2026-04-27T06:58:54.994Z</time></trkpt><trkpt lat="40.127195792789266" lon="9.208887855892288"><ele>642.0</ele><time>2026-04-27T06:58:55.994Z</time></trkpt><trkpt lat="40.12702776722706" lon="9.208934200669958"><ele>642.0</ele><time>2026-04-27T06:58:56.994Z</time></trkpt><trkpt lat="40.12684409980942" lon="9.208987480446563"><ele>642.0</ele><time>2026-04-27T06:58:57.994Z</time></trkpt><trkpt lat="40.126664060164" lon="9.209057744462854"><ele>642.0</ele><time>2026-04-27T06:58:58.994Z</time></trkpt><trkpt lat="40.126471383969765" lon="9.209097894960857"><ele>646.0</ele><time>2026-04-27T06:58:59.994Z</time></trkpt><trkpt lat="40.12627878169429" lon="9.209174508722532"><ele>650.0</ele><time>2026-04-27T06:59:00.994Z</time></trkpt><trkpt lat="40.12608187077264" lon="9.209227208243744"><ele>654.0</ele><time>2026-04-27T06:59:01.994Z</time></trkpt><trkpt lat="40.125897313086035" lon="9.209298967102251"><ele>651.0</ele><time>2026-04-27T06:59:02.994Z</time></trkpt><trkpt lat="40.12572606216205" lon="9.209401295325595"><ele>648.0</ele><time>2026-04-27T06:59:03.994Z</time></trkpt><trkpt lat="40.125551688936" lon="9.209514541690092"><ele>645.0</ele><time>2026-04-27T06:59:04.994Z</time></trkpt><trkpt lat="40.12536965429117" lon="9.20964054767947"><ele>645.0</ele><time>2026-04-27T06:59:05.994Z</time></trkpt><trkpt lat="40.12518505885106" lon="9.209768186029262"><ele>645.0</ele><time>2026-04-27T06:59:06.994Z</time></trkpt><trkpt lat="40.124988563084536" lon="9.20985840554804"><ele>645.0</ele><time>2026-04-27T06:59:07.994Z</time></trkpt><trkpt lat="40.124781907917416" lon="9.209918280338792"><ele>648.6666666666666</ele><time>2026-04-27T06:59:08.994Z</time></trkpt><trkpt lat="40.12456734205384" lon="9.209952303607764"><ele>652.3333333333333</ele><time>2026-04-27T06:59:09.994Z</time></trkpt><trkpt lat="40.124344681294474" lon="9.209986041457004"><ele>656.0</ele><time>2026-04-27T06:59:10.994Z</time></trkpt><trkpt lat="40.124123032426056" lon="9.210044855192868"><ele>653.5</ele><time>2026-04-27T06:59:11.994Z</time></trkpt><trkpt lat="40.12391451577936" lon="9.210165117951103"><ele>651.0</ele><time>2026-04-27T06:59:12.994Z</time></trkpt><trkpt lat="40.123726928669505" lon="9.21036297859868"><ele>651.0</ele><time>2026-04-27T06:59:13.994Z</time></trkpt><trkpt lat="40.12356319232492" lon="9.210565339944878"><ele>651.0</ele><time>2026-04-27T06:59:14.994Z</time></trkpt><trkpt lat="40.12338573759213" lon="9.210759403006001"><ele>657.0</ele><time>2026-04-27T06:59:15.994Z</time></trkpt><trkpt lat="40.12322011512294" lon="9.210932659450917"><ele>663.0</ele><time>2026-04-27T06:59:16.994Z</time></trkpt><trkpt lat="40.12306538043677" lon="9.211088389403969"><ele>669.0</ele><time>2026-04-27T06:59:17.994Z</time></trkpt><trkpt lat="40.12290195886716" lon="9.211172580824586"><ele>669.0</ele><time>2026-04-27T06:59:18.994Z</time></trkpt><trkpt lat="40.12273222499227" lon="9.211131661419092"><ele>669.0</ele><time>2026-04-27T06:59:19.994Z</time></trkpt><trkpt lat="40.122569571837595" lon="9.211049292265416"><ele>669.0</ele><time>2026-04-27T06:59:20.994Z</time></trkpt><trkpt lat="40.12244647172138" lon="9.2108794689931"><ele>672.6666666666666</ele><time>2026-04-27T06:59:21.994Z</time></trkpt><trkpt lat="40.12237244228169" lon="9.21065722720193"><ele>676.3333333333333</ele><time>2026-04-27T06:59:22.994Z</time></trkpt><trkpt lat="40.12235934762252" lon="9.21039519125428"><ele>680.0</ele><time>2026-04-27T06:59:23.994Z</time></trkpt><trkpt lat="40.12233390282855" lon="9.210126372288851"><ele>680.0</ele><time>2026-04-27T06:59:24.994Z</time></trkpt><trkpt lat="40.12232642890913" lon="9.209875737508725"><ele>680.0</ele><time>2026-04-27T06:59:25.994Z</time></trkpt><trkpt lat="40.122279595413666" lon="9.209676351968248"><ele>680.0</ele><time>2026-04-27T06:59:26.994Z</time></trkpt><trkpt lat="40.122166574529956" lon="9.209495898533676"><ele>673.3333333333333</ele><time>2026-04-27T06:59:27.994Z</time></trkpt><trkpt lat="40.12200313456828" lon="9.209361328349921"><ele>666.6666666666666</ele><time>2026-04-27T06:59:28.994Z</time></trkpt><trkpt lat="40.12180517100072" lon="9.209282660865071"><ele>660.0</ele><time>2026-04-27T06:59:29.994Z</time></trkpt><trkpt lat="40.12159283709267" lon="9.20921484846913"><ele>657.6666666666666</ele><time>2026-04-27T06:59:30.994Z</time></trkpt><trkpt lat="40.121410003066195" lon="9.209120979808139"><ele>655.3333333333333</ele><time>2026-04-27T06:59:31.994Z</time></trkpt><trkpt lat="40.121231376346515" lon="9.209027715806647"><ele>653.0</ele><time>2026-04-27T06:59:32.994Z</time></trkpt><trkpt lat="40.12107622993547" lon="9.208930483012372"><ele>653.0</ele><time>2026-04-27T06:59:33.994Z</time></trkpt><trkpt lat="40.120927249985975" lon="9.208866468029385"><ele>653.0</ele><time>2026-04-27T06:59:34.994Z</time></trkpt><trkpt lat="40.120793482956984" lon="9.208787652431965"><ele>653.0</ele><time>2026-04-27T06:59:35.994Z</time></trkpt><trkpt lat="40.12065474246468" lon="9.208719887843197"><ele>655.6666666666666</ele><time>2026-04-27T06:59:36.994Z</time></trkpt><trkpt lat="40.12051024493337" lon="9.208646040362387"><ele>658.3333333333334</ele><time>2026-04-27T06:59:37.994Z</time></trkpt><trkpt lat="40.120367209984984" lon="9.208558568860774"><ele>661.0</ele><time>2026-04-27T06:59:38.994Z</time></trkpt><trkpt lat="40.120215990837906" lon="9.208493109951103"><ele>661.0</ele><time>2026-04-27T06:59:39.994Z</time></trkpt><trkpt lat="40.120080877082394" lon="9.208415614973964"><ele>661.0</ele><time>2026-04-27T06:59:40.994Z</time></trkpt><trkpt lat="40.119932085681135" lon="9.208364229752624"><ele>661.0</ele><time>2026-04-27T06:59:41.994Z</time></trkpt><trkpt lat="40.11978078424853" lon="9.208371084607494"><ele>660.6666666666667</ele><time>2026-04-27T06:59:42.994Z</time></trkpt><trkpt lat="40.11963175658859" lon="9.208348984407905"><ele>660.3333333333334</ele><time>2026-04-27T06:59:43.994Z</time></trkpt><trkpt lat="40.11947655933656" lon="9.2083241496309"><ele>660.0</ele><time>2026-04-27T06:59:44.994Z</time></trkpt><trkpt lat="40.11932718523129" lon="9.208277760308306"><ele>660.0</ele><time>2026-04-27T06:59:45.994Z</time></trkpt><trkpt lat="40.11919005022658" lon="9.208200171864735"><ele>660.0</ele><time>2026-04-27T06:59:46.994Z</time></trkpt><trkpt lat="40.119072021040715" lon="9.208081217929859"><ele>660.0</ele><time>2026-04-27T06:59:47.994Z</time></trkpt><trkpt lat="40.11895618588027" lon="9.207947024371514"><ele>657.6666666666666</ele><time>2026-04-27T06:59:48.994Z</time></trkpt><trkpt lat="40.11884488699578" lon="9.207812369273137"><ele>655.3333333333333</ele><time>2026-04-27T06:59:49.994Z</time></trkpt><trkpt lat="40.118739413129276" lon="9.207669363525676"><ele>653.0</ele><time>2026-04-27T06:59:50.994Z</time></trkpt><trkpt lat="40.11863274379866" lon="9.207527790160507"><ele>653.0</ele><time>2026-04-27T06:59:51.994Z</time></trkpt><trkpt lat="40.11853236360596" lon="9.207379192021913"><ele>653.0</ele><time>2026-04-27T06:59:52.994Z</time></trkpt><trkpt lat="40.11845434040671" lon="9.207212928957247"><ele>653.0</ele><time>2026-04-27T06:59:53.994Z</time></trkpt><trkpt lat="40.11836730749296" lon="9.207045593223302"><ele>650.6666666666666</ele><time>2026-04-27T06:59:54.994Z</time></trkpt><trkpt lat="40.11828162401888" lon="9.206880593978207"><ele>648.3333333333334</ele><time>2026-04-27T06:59:55.994Z</time></trkpt><trkpt lat="40.118185398780554" lon="9.20672815269319"><ele>646.0</ele><time>2026-04-27T06:59:56.994Z</time></trkpt><trkpt lat="40.11810228555929" lon="9.206563460556987"><ele>643.3333333333334</ele><time>2026-04-27T06:59:57.994Z</time></trkpt><trkpt lat="40.11802181606118" lon="9.206394692763517"><ele>640.6666666666666</ele><time>2026-04-27T06:59:58.994Z</time></trkpt><trkpt lat="40.117936703052074" lon="9.206226720784509"><ele>638.0</ele><time>2026-04-27T06:59:59.994Z</time></trkpt><trkpt lat="40.117850321684585" lon="9.206061515202533"><ele>638.0</ele><time>2026-04-27T07:00:00.994Z</time></trkpt><trkpt lat="40.1177622539824" lon="9.205898624818694"><ele>638.0</ele><time>2026-04-27T07:00:01.994Z</time></trkpt><trkpt lat="40.11767487732515" lon="9.20573442958201"><ele>638.0</ele><time>2026-04-27T07:00:02.994Z</time></trkpt><trkpt lat="40.1175887771766" lon="9.205570573569933"><ele>641.6666666666666</ele><time>2026-04-27T07:00:03.993Z</time></trkpt><trkpt lat="40.11750187079098" lon="9.205403084934748"><ele>645.3333333333334</ele><time>2026-04-27T07:00:04.993Z</time></trkpt><trkpt lat="40.11741162147466" lon="9.205240390172111"><ele>649.0</ele><time>2026-04-27T07:00:05.993Z</time></trkpt><trkpt lat="40.11733852832187" lon="9.205065939767238"><ele>653.25</ele><time>2026-04-27T07:00:06.993Z</time></trkpt><trkpt lat="40.11724963727404" lon="9.204921786949868"><ele>657.5</ele><time>2026-04-27T07:00:07.993Z</time></trkpt><trkpt lat="40.117203732753964" lon="9.204752020845875"><ele>661.75</ele><time>2026-04-27T07:00:08.993Z</time></trkpt><trkpt lat="40.11719752704922" lon="9.204563579924102"><ele>666.0</ele><time>2026-04-27T07:00:09.993Z</time></trkpt><trkpt lat="40.11722868233804" lon="9.204379330601459"><ele>666.0</ele><time>2026-04-27T07:00:10.993Z</time></trkpt><trkpt lat="40.11729254802402" lon="9.204201120623907"><ele>666.0</ele><time>2026-04-27T07:00:11.993Z</time></trkpt><trkpt lat="40.117377755597225" lon="9.204029542372192"><ele>666.0</ele><time>2026-04-27T07:00:12.993Z</time></trkpt><trkpt lat="40.11746762340775" lon="9.203860448124141"><ele>666.0</ele><time>2026-04-27T07:00:13.993Z</time></trkpt><trkpt lat="40.117560809865125" lon="9.203694180724197"><ele>666.0</ele><time>2026-04-27T07:00:14.993Z</time></trkpt><trkpt lat="40.117670122581124" lon="9.203547246392702"><ele>666.0</ele><time>2026-04-27T07:00:15.993Z</time></trkpt><trkpt lat="40.117802715887066" lon="9.203441967259025"><ele>666.0</ele><time>2026-04-27T07:00:16.993Z</time></trkpt><trkpt lat="40.117957030998326" lon="9.203387049322494"><ele>666.0</ele><time>2026-04-27T07:00:17.993Z</time></trkpt><trkpt lat="40.11812182686862" lon="9.203369236819801"><ele>666.0</ele><time>2026-04-27T07:00:18.993Z</time></trkpt><trkpt lat="40.11829456525894" lon="9.203361144116268"><ele>665.0</ele><time>2026-04-27T07:00:19.993Z</time></trkpt><trkpt lat="40.118471015625154" lon="9.203363480607166"><ele>664.0</ele><time>2026-04-27T07:00:20.993Z</time></trkpt><trkpt lat="40.118643294393515" lon="9.203359255620992"><ele>663.0</ele><time>2026-04-27T07:00:21.993Z</time></trkpt><trkpt lat="40.118806347267665" lon="9.203323892041512"><ele>663.0</ele><time>2026-04-27T07:00:22.993Z</time></trkpt><trkpt lat="40.11897366746665" lon="9.203265311147698"><ele>663.0</ele><time>2026-04-27T07:00:23.993Z</time></trkpt><trkpt lat="40.11913074887229" lon="9.203181312507303"><ele>663.0</ele><time>2026-04-27T07:00:24.993Z</time></trkpt><trkpt lat="40.11929611302634" lon="9.203093367441465"><ele>671.0</ele><time>2026-04-27T07:00:25.993Z</time></trkpt><trkpt lat="40.11945133428972" lon="9.202975832660336"><ele>679.0</ele><time>2026-04-27T07:00:26.993Z</time></trkpt><trkpt lat="40.11961723065529" lon="9.20285428779433"><ele>687.0</ele><time>2026-04-27T07:00:27.993Z</time></trkpt><trkpt lat="40.11978895609865" lon="9.202737334710024"><ele>682.6666666666666</ele><time>2026-04-27T07:00:28.993Z</time></trkpt><trkpt lat="40.119973770235646" lon="9.202652694730773"><ele>678.3333333333333</ele><time>2026-04-27T07:00:29.993Z</time></trkpt><trkpt lat="40.120167344903976" lon="9.202579565816702"><ele>674.0</ele><time>2026-04-27T07:00:30.993Z</time></trkpt><trkpt lat="40.120365965516484" lon="9.202505121649969"><ele>674.0</ele><time>2026-04-27T07:00:31.993Z</time></trkpt><trkpt lat="40.12056648055608" lon="9.202426789424601"><ele>674.0</ele><time>2026-04-27T07:00:32.993Z</time></trkpt><trkpt lat="40.12077806636144" lon="9.202423907399153"><ele>674.0</ele><time>2026-04-27T07:00:33.993Z</time></trkpt><trkpt lat="40.120984198154055" lon="9.202496856876342"><ele>672.6666666666666</ele><time>2026-04-27T07:00:34.993Z</time></trkpt><trkpt lat="40.12119479984934" lon="9.20255355894618"><ele>671.3333333333334</ele><time>2026-04-27T07:00:35.993Z</time></trkpt><trkpt lat="40.12139916771142" lon="9.202618371993424"><ele>670.0</ele><time>2026-04-27T07:00:36.993Z</time></trkpt><trkpt lat="40.12161128187317" lon="9.202634051173346"><ele>670.0</ele><time>2026-04-27T07:00:37.993Z</time></trkpt><trkpt lat="40.12182889154505" lon="9.202584547241008"><ele>670.0</ele><time>2026-04-27T07:00:38.993Z</time></trkpt><trkpt lat="40.12205260396901" lon="9.202520776911266"><ele>670.0</ele><time>2026-04-27T07:00:39.993Z</time></trkpt><trkpt lat="40.12227425333295" lon="9.202428708221031"><ele>670.0</ele><time>2026-04-27T07:00:40.993Z</time></trkpt><trkpt lat="40.12250709259096" lon="9.202414200057328"><ele>669.0</ele><time>2026-04-27T07:00:41.993Z</time></trkpt><trkpt lat="40.122738786413805" lon="9.202459192478132"><ele>668.0</ele><time>2026-04-27T07:00:42.993Z</time></trkpt><trkpt lat="40.12297419889474" lon="9.202471415285544"><ele>668.0</ele><time>2026-04-27T07:00:43.993Z</time></trkpt><trkpt lat="40.12321145686439" lon="9.202507005766613"><ele>668.0</ele><time>2026-04-27T07:00:44.993Z</time></trkpt><trkpt lat="40.12344472291244" lon="9.202470986370054"><ele>667.5</ele><time>2026-04-27T07:00:45.993Z</time></trkpt><trkpt lat="40.12367615315173" lon="9.202395986932217"><ele>667.0</ele><time>2026-04-27T07:00:46.993Z</time></trkpt><trkpt lat="40.12391619410528" lon="9.202361353881885"><ele>672.0</ele><time>2026-04-27T07:00:47.993Z</time></trkpt><trkpt lat="40.12415378447817" lon="9.20230619121772"><ele>677.0</ele><time>2026-04-27T07:00:48.993Z</time></trkpt><trkpt lat="40.124381967563465" lon="9.202255839559879"><ele>677.0</ele><time>2026-04-27T07:00:49.993Z</time></trkpt><trkpt lat="40.12460583125755" lon="9.202222475286472"><ele>677.0</ele><time>2026-04-27T07:00:50.993Z</time></trkpt><trkpt lat="40.1248288340735" lon="9.20223328922416"><ele>677.0</ele><time>2026-04-27T07:00:51.993Z</time></trkpt><trkpt lat="40.1250509733161" lon="9.20230819190988"><ele>672.0</ele><time>2026-04-27T07:00:52.993Z</time></trkpt><trkpt lat="40.12526846981277" lon="9.202408140467153"><ele>667.0</ele><time>2026-04-27T07:00:53.993Z</time></trkpt><trkpt lat="40.12548741422222" lon="9.202503643419503"><ele>667.0</ele><time>2026-04-27T07:00:54.993Z</time></trkpt><trkpt lat="40.12570759324144" lon="9.202594715023308"><ele>667.0</ele><time>2026-04-27T07:00:55.993Z</time></trkpt><trkpt lat="40.1259245274516" lon="9.202685057416073"><ele>669.3333333333334</ele><time>2026-04-27T07:00:56.993Z</time></trkpt><trkpt lat="40.12614016632467" lon="9.20275186676405"><ele>671.6666666666666</ele><time>2026-04-27T07:00:57.993Z</time></trkpt><trkpt lat="40.12635592733696" lon="9.202787701178599"><ele>674.0</ele><time>2026-04-27T07:00:58.993Z</time></trkpt><trkpt lat="40.12657845425114" lon="9.202743220892007"><ele>674.5</ele><time>2026-04-27T07:00:59.993Z</time></trkpt><trkpt lat="40.12681312182862" lon="9.20268026632265"><ele>675.0</ele><time>2026-04-27T07:01:00.993Z</time></trkpt><trkpt lat="40.127049120694046" lon="9.202639361591313"><ele>675.0</ele><time>2026-04-27T07:01:01.993Z</time></trkpt><trkpt lat="40.127289275360646" lon="9.202580671406395"><ele>675.0</ele><time>2026-04-27T07:01:02.993Z</time></trkpt><trkpt lat="40.12752677852283" lon="9.202504656832547"><ele>673.0</ele><time>2026-04-27T07:01:03.993Z</time></trkpt><trkpt lat="40.127762440008716" lon="9.202441925790417"><ele>671.0</ele><time>2026-04-27T07:01:04.993Z</time></trkpt><trkpt lat="40.1279987868731" lon="9.202388278485914"><ele>681.5</ele><time>2026-04-27T07:01:05.993Z</time></trkpt><trkpt lat="40.12822675264954" lon="9.202321264604812"><ele>692.0</ele><time>2026-04-27T07:01:06.993Z</time></trkpt><trkpt lat="40.12845337375525" lon="9.202237930445268"><ele>692.0</ele><time>2026-04-27T07:01:07.993Z</time></trkpt><trkpt lat="40.12867613649493" lon="9.202152760256867"><ele>692.0</ele><time>2026-04-27T07:01:08.993Z</time></trkpt><trkpt lat="40.12889981775359" lon="9.202065525460977"><ele>686.0</ele><time>2026-04-27T07:01:09.993Z</time></trkpt><trkpt lat="40.12912239656905" lon="9.201978527517065"><ele>680.0</ele><time>2026-04-27T07:01:10.993Z</time></trkpt><trkpt lat="40.12933921193571" lon="9.201896402119853"><ele>680.0</ele><time>2026-04-27T07:01:11.993Z</time></trkpt><trkpt lat="40.129542237017" lon="9.20182030963142"><ele>680.0</ele><time>2026-04-27T07:01:12.993Z</time></trkpt><trkpt lat="40.129730400067814" lon="9.201754058177029"><ele>680.0</ele><time>2026-04-27T07:01:13.993Z</time></trkpt><trkpt lat="40.1299002202652" lon="9.201675846869831"><ele>681.0</ele><time>2026-04-27T07:01:14.993Z</time></trkpt><trkpt lat="40.13005706876581" lon="9.201579241569789"><ele>682.0</ele><time>2026-04-27T07:01:15.992Z</time></trkpt><trkpt lat="40.13019458670052" lon="9.20141555748183"><ele>683.0</ele><time>2026-04-27T07:01:16.992Z</time></trkpt><trkpt lat="40.130301039511785" lon="9.201208520644919"><ele>683.0</ele><time>2026-04-27T07:01:17.992Z</time></trkpt><trkpt lat="40.130351650547844" lon="9.200972481963262"><ele>683.0</ele><time>2026-04-27T07:01:18.992Z</time></trkpt><trkpt lat="40.13035116209935" lon="9.200726147835496"><ele>683.0</ele><time>2026-04-27T07:01:19.992Z</time></trkpt><trkpt lat="40.130335853833444" lon="9.200480322800862"><ele>682.6666666666666</ele><time>2026-04-27T07:01:20.992Z</time></trkpt><trkpt lat="40.13028926191176" lon="9.200241048274886"><ele>682.3333333333334</ele><time>2026-04-27T07:01:21.992Z</time></trkpt><trkpt lat="40.13019521224959" lon="9.200007275263665"><ele>682.0</ele><time>2026-04-27T07:01:22.992Z</time></trkpt><trkpt lat="40.13013445517229" lon="9.199764401760222"><ele>682.0</ele><time>2026-04-27T07:01:23.992Z</time></trkpt><trkpt lat="40.13007116452003" lon="9.199529763426545"><ele>682.0</ele><time>2026-04-27T07:01:24.992Z</time></trkpt><trkpt lat="40.13001857972257" lon="9.199296088355013"><ele>682.0</ele><time>2026-04-27T07:01:25.992Z</time></trkpt><trkpt lat="40.1299927942892" lon="9.199064602380648"><ele>683.6666666666667</ele><time>2026-04-27T07:01:26.992Z</time></trkpt><trkpt lat="40.13001043814426" lon="9.198844459288344"><ele>685.3333333333334</ele><time>2026-04-27T07:01:27.992Z</time></trkpt><trkpt lat="40.13005838248542" lon="9.198619238195743"><ele>687.0</ele><time>2026-04-27T07:01:28.992Z</time></trkpt><trkpt lat="40.13011629087278" lon="9.198384392072873"><ele>690.6666666666666</ele><time>2026-04-27T07:01:29.992Z</time></trkpt><trkpt lat="40.130177901514095" lon="9.198148297379996"><ele>694.3333333333333</ele><time>2026-04-27T07:01:30.992Z</time></trkpt><trkpt lat="40.1302403154643" lon="9.197906774083181"><ele>698.0</ele><time>2026-04-27T07:01:31.992Z</time></trkpt><trkpt lat="40.13030380870906" lon="9.197663823835912"><ele>698.0</ele><time>2026-04-27T07:01:32.992Z</time></trkpt><trkpt lat="40.130364997855814" lon="9.197419953863292"><ele>698.0</ele><time>2026-04-27T07:01:33.992Z</time></trkpt><trkpt lat="40.130422278364684" lon="9.197175590384548"><ele>698.0</ele><time>2026-04-27T07:01:34.992Z</time></trkpt><trkpt lat="40.13046965627374" lon="9.196924656210571"><ele>701.3333333333333</ele><time>2026-04-27T07:01:35.992Z</time></trkpt><trkpt lat="40.13050169787557" lon="9.196669987833618"><ele>704.6666666666666</ele><time>2026-04-27T07:01:36.992Z</time></trkpt><trkpt lat="40.13052043994673" lon="9.196409431198493"><ele>708.0</ele><time>2026-04-27T07:01:37.992Z</time></trkpt><trkpt lat="40.13052408073397" lon="9.196150478937186"><ele>708.6666666666666</ele><time>2026-04-27T07:01:38.992Z</time></trkpt><trkpt lat="40.130585591828755" lon="9.19591936784764"><ele>709.3333333333333</ele><time>2026-04-27T07:01:39.992Z</time></trkpt><trkpt lat="40.130637336790436" lon="9.195709820750418"><ele>710.0</ele><time>2026-04-27T07:01:40.992Z</time></trkpt><trkpt lat="40.13066409426621" lon="9.195485128708928"><ele>710.0</ele><time>2026-04-27T07:01:41.992Z</time></trkpt><trkpt lat="40.13062571431767" lon="9.195250217092655"><ele>710.0</ele><time>2026-04-27T07:01:42.992Z</time></trkpt><trkpt lat="40.130554426291454" lon="9.195021530688797"><ele>710.0</ele><time>2026-04-27T07:01:43.992Z</time></trkpt><trkpt lat="40.130461660518094" lon="9.194803983981714"><ele>705.3333333333333</ele><time>2026-04-27T07:01:44.992Z</time></trkpt><trkpt lat="40.13034309691229" lon="9.194608091214965"><ele>700.6666666666666</ele><time>2026-04-27T07:01:45.992Z</time></trkpt><trkpt lat="40.13019950472628" lon="9.194444771685603"><ele>696.0</ele><time>2026-04-27T07:01:46.992Z</time></trkpt><trkpt lat="40.13002168954436" lon="9.19435869752785"><ele>705.0</ele><time>2026-04-27T07:01:47.992Z</time></trkpt><trkpt lat="40.12984259227196" lon="9.194298078143053"><ele>714.0</ele><time>2026-04-27T07:01:48.992Z</time></trkpt><trkpt lat="40.12967692058584" lon="9.19421680630287"><ele>723.0</ele><time>2026-04-27T07:01:49.992Z</time></trkpt><trkpt lat="40.129540032370954" lon="9.194072596280906"><ele>721.0</ele><time>2026-04-27T07:01:50.992Z</time></trkpt><trkpt lat="40.12947155651226" lon="9.193897384003053"><ele>719.0</ele><time>2026-04-27T07:01:51.992Z</time></trkpt><trkpt lat="40.12945741674379" lon="9.193704829736815"><ele>717.0</ele><time>2026-04-27T07:01:52.992Z</time></trkpt><trkpt lat="40.129450084792744" lon="9.1934894355663"><ele>717.0</ele><time>2026-04-27T07:01:53.992Z</time></trkpt><trkpt lat="40.1294112532236" lon="9.193299889857743"><ele>717.0</ele><time>2026-04-27T07:01:54.992Z</time></trkpt><trkpt lat="40.129309841828935" lon="9.193126484627546"><ele>717.0</ele><time>2026-04-27T07:01:55.992Z</time></trkpt><trkpt lat="40.12919120050827" lon="9.192958129495368"><ele>713.3333333333334</ele><time>2026-04-27T07:01:56.992Z</time></trkpt><trkpt lat="40.12907021513916" lon="9.192778372133274"><ele>709.6666666666667</ele><time>2026-04-27T07:01:57.992Z</time></trkpt><trkpt lat="40.128951612165935" lon="9.192587577263684"><ele>706.0</ele><time>2026-04-27T07:01:58.992Z</time></trkpt><trkpt lat="40.1288340316015" lon="9.192394304185894"><ele>710.6666666666667</ele><time>2026-04-27T07:01:59.992Z</time></trkpt><trkpt lat="40.128727350331694" lon="9.192201592825953"><ele>715.3333333333334</ele><time>2026-04-27T07:02:00.992Z</time></trkpt><trkpt lat="40.128635315598665" lon="9.192010916369105"><ele>720.0</ele><time>2026-04-27T07:02:01.992Z</time></trkpt><trkpt lat="40.12851900441825" lon="9.191839493416598"><ele>720.0</ele><time>2026-04-27T07:02:02.992Z</time></trkpt><trkpt lat="40.12837165463963" lon="9.191706274952153"><ele>720.0</ele><time>2026-04-27T07:02:03.992Z</time></trkpt><trkpt lat="40.128218772740034" lon="9.191569455838872"><ele>720.0</ele><time>2026-04-27T07:02:04.992Z</time></trkpt><trkpt lat="40.12810077255387" lon="9.191386911543303"><ele>724.6666666666666</ele><time>2026-04-27T07:02:05.992Z</time></trkpt><trkpt lat="40.12799148834025" lon="9.191187555419566"><ele>729.3333333333333</ele><time>2026-04-27T07:02:06.992Z</time></trkpt><trkpt lat="40.12787278048342" lon="9.191005873117703"><ele>734.0</ele><time>2026-04-27T07:02:07.992Z</time></trkpt><trkpt lat="40.12774774700157" lon="9.19084755539453"><ele>734.0</ele><time>2026-04-27T07:02:08.992Z</time></trkpt><trkpt lat="40.12762828220183" lon="9.190686307530004"><ele>734.0</ele><time>2026-04-27T07:02:09.992Z</time></trkpt><trkpt lat="40.12757202810188" lon="9.190481730201011"><ele>734.0</ele><time>2026-04-27T07:02:10.992Z</time></trkpt><trkpt lat="40.12757045579529" lon="9.190263439041804"><ele>733.6666666666666</ele><time>2026-04-27T07:02:11.992Z</time></trkpt><trkpt lat="40.12760268449529" lon="9.190053113439886"><ele>733.3333333333334</ele><time>2026-04-27T07:02:12.992Z</time></trkpt><trkpt lat="40.127606494598176" lon="9.189835298187884"><ele>733.0</ele><time>2026-04-27T07:02:13.992Z</time></trkpt><trkpt lat="40.12758928140067" lon="9.189601970376332"><ele>735.0</ele><time>2026-04-27T07:02:14.992Z</time></trkpt><trkpt lat="40.12756943300002" lon="9.189359626396959"><ele>737.0</ele><time>2026-04-27T07:02:15.992Z</time></trkpt><trkpt lat="40.12756109069108" lon="9.189117949786725"><ele>739.0</ele><time>2026-04-27T07:02:16.992Z</time></trkpt><trkpt lat="40.12757388743019" lon="9.188876157690846"><ele>739.3333333333334</ele><time>2026-04-27T07:02:17.992Z</time></trkpt><trkpt lat="40.12759025448154" lon="9.188632402399216"><ele>739.6666666666666</ele><time>2026-04-27T07:02:18.992Z</time></trkpt><trkpt lat="40.12758719585274" lon="9.188404684239176"><ele>740.0</ele><time>2026-04-27T07:02:19.992Z</time></trkpt><trkpt lat="40.12756934939166" lon="9.18820555974911"><ele>740.3333333333333</ele><time>2026-04-27T07:02:20.992Z</time></trkpt><trkpt lat="40.12755291276796" lon="9.188016692799671"><ele>740.6666666666666</ele><time>2026-04-27T07:02:21.992Z</time></trkpt><trkpt lat="40.127535338214436" lon="9.187816381178088"><ele>741.0</ele><time>2026-04-27T07:02:22.992Z</time></trkpt><trkpt lat="40.12751012994674" lon="9.187614249671155"><ele>741.0</ele><time>2026-04-27T07:02:23.992Z</time></trkpt><trkpt lat="40.12745321400882" lon="9.187411863729231"><ele>741.0</ele><time>2026-04-27T07:02:24.992Z</time></trkpt><trkpt lat="40.12740061630574" lon="9.187210477116242"><ele>741.0</ele><time>2026-04-27T07:02:25.992Z</time></trkpt><trkpt lat="40.12740924224055" lon="9.187022463187668"><ele>742.3333333333334</ele><time>2026-04-27T07:02:26.992Z</time></trkpt><trkpt lat="40.12748021530255" lon="9.18686398837434"><ele>743.6666666666667</ele><time>2026-04-27T07:02:27.992Z</time></trkpt><trkpt lat="40.1275942423622" lon="9.186706600787868"><ele>745.0</ele><time>2026-04-27T07:02:28.991Z</time></trkpt><trkpt lat="40.12765834545238" lon="9.186519586605659"><ele>746.6666666666667</ele><time>2026-04-27T07:02:29.991Z</time></trkpt><trkpt lat="40.127680426304536" lon="9.18630825655781"><ele>748.3333333333334</ele><time>2026-04-27T07:02:30.991Z</time></trkpt><trkpt lat="40.12777382079681" lon="9.186121469798161"><ele>750.0</ele><time>2026-04-27T07:02:31.991Z</time></trkpt><trkpt lat="40.12786202610129" lon="9.18598843308979"><ele>750.0</ele><time>2026-04-27T07:02:32.991Z</time></trkpt><trkpt lat="40.12795284362611" lon="9.185834716983475"><ele>750.0</ele><time>2026-04-27T07:02:33.991Z</time></trkpt><trkpt lat="40.127969380635996" lon="9.185640441701567"><ele>750.0</ele><time>2026-04-27T07:02:34.991Z</time></trkpt><trkpt lat="40.12793841352682" lon="9.185444234924603"><ele>751.3333333333334</ele><time>2026-04-27T07:02:35.991Z</time></trkpt><trkpt lat="40.12785939205318" lon="9.18525167539075"><ele>752.6666666666667</ele><time>2026-04-27T07:02:36.991Z</time></trkpt><trkpt lat="40.12778414091355" lon="9.18506570566127"><ele>754.0</ele><time>2026-04-27T07:02:37.991Z</time></trkpt><trkpt lat="40.12774378917249" lon="9.184883672799298"><ele>755.3333333333334</ele><time>2026-04-27T07:02:38.991Z</time></trkpt><trkpt lat="40.12774302241541" lon="9.184684947306218"><ele>756.6666666666666</ele><time>2026-04-27T07:02:39.991Z</time></trkpt><trkpt lat="40.12775366344194" lon="9.184463542827967"><ele>758.0</ele><time>2026-04-27T07:02:40.991Z</time></trkpt><trkpt lat="40.12776682097301" lon="9.184234466757493"><ele>755.6666666666666</ele><time>2026-04-27T07:02:41.991Z</time></trkpt><trkpt lat="40.12777719502683" lon="9.183977205830669"><ele>753.3333333333334</ele><time>2026-04-27T07:02:42.991Z</time></trkpt><trkpt lat="40.12768666155163" lon="9.183680091554248"><ele>751.0</ele><time>2026-04-27T07:02:43.991Z</time></trkpt><trkpt lat="40.12757263276489" lon="9.183476247975117"><ele>751.0</ele><time>2026-04-27T07:02:44.991Z</time></trkpt><trkpt lat="40.127453933677984" lon="9.183267187062558"><ele>751.0</ele><time>2026-04-27T07:02:45.991Z</time></trkpt><trkpt lat="40.12731036253594" lon="9.183036516886663"><ele>751.0</ele><time>2026-04-27T07:02:46.991Z</time></trkpt><trkpt lat="40.127154896389655" lon="9.18285294924375"><ele>752.0</ele><time>2026-04-27T07:02:47.991Z</time></trkpt><trkpt lat="40.12698677546956" lon="9.182732421296778"><ele>753.0</ele><time>2026-04-27T07:02:48.991Z</time></trkpt><trkpt lat="40.12685565949029" lon="9.18266675372199"><ele>754.0</ele><time>2026-04-27T07:02:49.991Z</time></trkpt><trkpt lat="40.126733798322604" lon="9.182603348753194"><ele>754.0</ele><time>2026-04-27T07:02:50.991Z</time></trkpt><trkpt lat="40.126616144050615" lon="9.182543733747222"><ele>754.0</ele><time>2026-04-27T07:02:51.991Z</time></trkpt><trkpt lat="40.1264829323148" lon="9.182457761211516"><ele>754.0</ele><time>2026-04-27T07:02:52.991Z</time></trkpt><trkpt lat="40.12634889441331" lon="9.182314277058255"><ele>754.0</ele><time>2026-04-27T07:02:53.991Z</time></trkpt><trkpt lat="40.12619340842353" lon="9.182166989036622"><ele>754.3333333333334</ele><time>2026-04-27T07:02:54.991Z</time></trkpt><trkpt lat="40.1260151063951" lon="9.182042871779489"><ele>754.6666666666666</ele><time>2026-04-27T07:02:55.991Z</time></trkpt><trkpt lat="40.12582796874411" lon="9.18194691407476"><ele>755.0</ele><time>2026-04-27T07:02:56.991Z</time></trkpt><trkpt lat="40.12564072921086" lon="9.18184433138094"><ele>757.3333333333333</ele><time>2026-04-27T07:02:57.991Z</time></trkpt><trkpt lat="40.12547152368148" lon="9.181720398799596"><ele>759.6666666666666</ele><time>2026-04-27T07:02:58.991Z</time></trkpt><trkpt lat="40.12531984335123" lon="9.181572958734806"><ele>762.0</ele><time>2026-04-27T07:02:59.991Z</time></trkpt><trkpt lat="40.12518062296502" lon="9.18139952187308"><ele>762.0</ele><time>2026-04-27T07:03:00.991Z</time></trkpt><trkpt lat="40.12504876141523" lon="9.181204863444856"><ele>762.0</ele><time>2026-04-27T07:03:01.991Z</time></trkpt><trkpt lat="40.12491409912792" lon="9.181012521313539"><ele>762.0</ele><time>2026-04-27T07:03:02.991Z</time></trkpt><trkpt lat="40.12474696087267" lon="9.180853629803195"><ele>763.3333333333334</ele><time>2026-04-27T07:03:03.991Z</time></trkpt><trkpt lat="40.12456639542571" lon="9.180730602515277"><ele>764.6666666666667</ele><time>2026-04-27T07:03:04.991Z</time></trkpt><trkpt lat="40.12439616696975" lon="9.180589768464253"><ele>766.0</ele><time>2026-04-27T07:03:05.991Z</time></trkpt><trkpt lat="40.12423608694031" lon="9.180427724162074"><ele>772.6666666666667</ele><time>2026-04-27T07:03:06.991Z</time></trkpt><trkpt lat="40.12405435258705" lon="9.180307611448551"><ele>779.3333333333334</ele><time>2026-04-27T07:03:07.991Z</time></trkpt><trkpt lat="40.12385393099474" lon="9.180265905907051"><ele>786.0</ele><time>2026-04-27T07:03:08.991Z</time></trkpt><trkpt lat="40.12365833665861" lon="9.180218563792995"><ele>786.0</ele><time>2026-04-27T07:03:09.991Z</time></trkpt><trkpt lat="40.12348486930393" lon="9.180144760051137"><ele>786.0</ele><time>2026-04-27T07:03:10.991Z</time></trkpt><trkpt lat="40.123346321649834" lon="9.180027919968232"><ele>786.0</ele><time>2026-04-27T07:03:11.991Z</time></trkpt><trkpt lat="40.12325791085007" lon="9.179858878161498"><ele>795.6666666666667</ele><time>2026-04-27T07:03:12.991Z</time></trkpt><trkpt lat="40.123202161872676" lon="9.179667327723179"><ele>805.3333333333334</ele><time>2026-04-27T07:03:13.991Z</time></trkpt><trkpt lat="40.1231872807163" lon="9.179467402872172"><ele>815.0</ele><time>2026-04-27T07:03:14.991Z</time></trkpt><trkpt lat="40.12320429901005" lon="9.179262915456501"><ele>804.3333333333334</ele><time>2026-04-27T07:03:15.991Z</time></trkpt><trkpt lat="40.12326228917847" lon="9.179076458984705"><ele>793.6666666666667</ele><time>2026-04-27T07:03:16.991Z</time></trkpt><trkpt lat="40.12331144607534" lon="9.178907499640323"><ele>783.0</ele><time>2026-04-27T07:03:17.991Z</time></trkpt><trkpt lat="40.12330806581893" lon="9.178686858467453"><ele>783.0</ele><time>2026-04-27T07:03:18.991Z</time></trkpt><trkpt lat="40.12323750687152" lon="9.178468767461661"><ele>783.0</ele><time>2026-04-27T07:03:19.991Z</time></trkpt><trkpt lat="40.123134600198725" lon="9.178255092585237"><ele>783.0</ele><time>2026-04-27T07:03:20.991Z</time></trkpt><trkpt lat="40.12305908747513" lon="9.178039095032663"><ele>792.0</ele><time>2026-04-27T07:03:21.991Z</time></trkpt><trkpt lat="40.1230010278088" lon="9.177805964810855"><ele>801.0</ele><time>2026-04-27T07:03:22.991Z</time></trkpt><trkpt lat="40.122933566972925" lon="9.177568551636345"><ele>810.0</ele><time>2026-04-27T07:03:23.991Z</time></trkpt><trkpt lat="40.12285798857073" lon="9.177354025920167"><ele>805.0</ele><time>2026-04-27T07:03:24.991Z</time></trkpt><trkpt lat="40.12277691122115" lon="9.177166709983329"><ele>800.0</ele><time>2026-04-27T07:03:25.991Z</time></trkpt><trkpt lat="40.12266968761512" lon="9.177001488323436"><ele>795.0</ele><time>2026-04-27T07:03:26.991Z</time></trkpt><trkpt lat="40.12254820689332" lon="9.176842954049079"><ele>795.0</ele><time>2026-04-27T07:03:27.991Z</time></trkpt><trkpt lat="40.12241309694635" lon="9.1766998531391"><ele>795.0</ele><time>2026-04-27T07:03:28.991Z</time></trkpt><trkpt lat="40.12227677505744" lon="9.176582399554906"><ele>795.0</ele><time>2026-04-27T07:03:29.991Z</time></trkpt><trkpt lat="40.12213235668674" lon="9.176399513066807"><ele>800.0</ele><time>2026-04-27T07:03:30.991Z</time></trkpt><trkpt lat="40.12207991964918" lon="9.176095389438016"><ele>805.0</ele><time>2026-04-27T07:03:31.991Z</time></trkpt><trkpt lat="40.12210177023092" lon="9.175854748098091"><ele>810.0</ele><time>2026-04-27T07:03:32.991Z</time></trkpt><trkpt lat="40.1221100088586" lon="9.17570730661671"><ele>807.0</ele><time>2026-04-27T07:03:33.991Z</time></trkpt><trkpt lat="40.12209038221499" lon="9.175580442240204"><ele>804.0</ele><time>2026-04-27T07:03:34.991Z</time></trkpt><trkpt lat="40.1219953574298" lon="9.175469376062232"><ele>801.0</ele><time>2026-04-27T07:03:35.991Z</time></trkpt><trkpt lat="40.12185499102231" lon="9.175421837915282"><ele>798.0</ele><time>2026-04-27T07:03:36.991Z</time></trkpt><trkpt lat="40.12169102797991" lon="9.175468685882834"><ele>801.0</ele><time>2026-04-27T07:03:37.991Z</time></trkpt><trkpt lat="40.121489269526876" lon="9.175603546353976"><ele>804.0</ele><time>2026-04-27T07:03:38.991Z</time></trkpt><trkpt lat="40.121245684229024" lon="9.175776859150709"><ele>804.0</ele><time>2026-04-27T07:03:39.991Z</time></trkpt><trkpt lat="40.12098784223952" lon="9.17595843167563"><ele>804.0</ele><time>2026-04-27T07:03:40.99Z</time></trkpt><trkpt lat="40.120847027791825" lon="9.176002125433763"><ele>804.0</ele><time>2026-04-27T07:03:41.99Z</time></trkpt><trkpt lat="40.12063439861905" lon="9.17608567130777"><ele>802.0</ele><time>2026-04-27T07:03:42.99Z</time></trkpt><trkpt lat="40.12046522969623" lon="9.176154918393197"><ele>800.0</ele><time>2026-04-27T07:03:43.99Z</time></trkpt><trkpt lat="40.120333222356145" lon="9.176255472504453"><ele>798.0</ele><time>2026-04-27T07:03:44.99Z</time></trkpt><trkpt lat="40.12029911080135" lon="9.176427147421064"><ele>799.6666666666667</ele><time>2026-04-27T07:03:45.99Z</time></trkpt><trkpt lat="40.12029087450345" lon="9.176622153317732"><ele>801.3333333333334</ele><time>2026-04-27T07:03:46.99Z</time></trkpt><trkpt lat="40.12032671029892" lon="9.176832274774137"><ele>803.0</ele><time>2026-04-27T07:03:47.99Z</time></trkpt><trkpt lat="40.12038738193905" lon="9.177093023380452"><ele>802.5</ele><time>2026-04-27T07:03:48.99Z</time></trkpt><trkpt lat="40.1204028408815" lon="9.177431918760838"><ele>802.0</ele><time>2026-04-27T07:03:49.99Z</time></trkpt><trkpt lat="40.12041799503677" lon="9.177737444281025"><ele>802.0</ele><time>2026-04-27T07:03:50.99Z</time></trkpt><trkpt lat="40.12037293416615" lon="9.17802631842295"><ele>802.0</ele><time>2026-04-27T07:03:51.99Z</time></trkpt><trkpt lat="40.120257472944786" lon="9.178349607946885"><ele>802.5</ele><time>2026-04-27T07:03:52.99Z</time></trkpt><trkpt lat="40.12016366807862" lon="9.178663868336868"><ele>803.0</ele><time>2026-04-27T07:03:53.99Z</time></trkpt><trkpt lat="40.12009223874863" lon="9.178906751487698"><ele>804.6666666666667</ele><time>2026-04-27T07:03:54.99Z</time></trkpt><trkpt lat="40.12006407922085" lon="9.179138082439092"><ele>806.3333333333333</ele><time>2026-04-27T07:03:55.99Z</time></trkpt><trkpt lat="40.12012118745847" lon="9.179438655263105"><ele>808.0</ele><time>2026-04-27T07:03:56.99Z</time></trkpt><trkpt lat="40.12016294330512" lon="9.179710975341079"><ele>809.6666666666666</ele><time>2026-04-27T07:03:57.99Z</time></trkpt><trkpt lat="40.120083162546194" lon="9.179893801640251"><ele>811.3333333333333</ele><time>2026-04-27T07:03:58.99Z</time></trkpt><trkpt lat="40.11994735795582" lon="9.179985386458968"><ele>813.0</ele><time>2026-04-27T07:03:59.99Z</time></trkpt><trkpt lat="40.11975973252446" lon="9.180073007537432"><ele>807.5</ele><time>2026-04-27T07:04:00.99Z</time></trkpt><trkpt lat="40.11952699327657" lon="9.18020833345179"><ele>802.0</ele><time>2026-04-27T07:04:01.99Z</time></trkpt><trkpt lat="40.119329690415995" lon="9.18037843102468"><ele>802.0</ele><time>2026-04-27T07:04:02.99Z</time></trkpt><trkpt lat="40.119161085552456" lon="9.18054587991105"><ele>802.0</ele><time>2026-04-27T07:04:03.99Z</time></trkpt><trkpt lat="40.11899050751353" lon="9.180827469454712"><ele>805.0</ele><time>2026-04-27T07:04:04.99Z</time></trkpt><trkpt lat="40.11886580968931" lon="9.181125423722115"><ele>808.0</ele><time>2026-04-27T07:04:05.99Z</time></trkpt><trkpt lat="40.118713425062076" lon="9.181309433659244"><ele>808.0</ele><time>2026-04-27T07:04:06.99Z</time></trkpt><trkpt lat="40.11858346597148" lon="9.181434168549474"><ele>808.0</ele><time>2026-04-27T07:04:07.99Z</time></trkpt><trkpt lat="40.11843231009121" lon="9.181452689290792"><ele>808.0</ele><time>2026-04-27T07:04:08.99Z</time></trkpt><trkpt lat="40.11825182519983" lon="9.181380123210069"><ele>807.6666666666666</ele><time>2026-04-27T07:04:09.99Z</time></trkpt><trkpt lat="40.118043253228784" lon="9.181305930563106"><ele>807.3333333333333</ele><time>2026-04-27T07:04:10.99Z</time></trkpt><trkpt lat="40.117876221721694" lon="9.181277734964251"><ele>807.0</ele><time>2026-04-27T07:04:11.99Z</time></trkpt><trkpt lat="40.11773295651525" lon="9.181382224949457"><ele>809.0</ele><time>2026-04-27T07:04:12.99Z</time></trkpt><trkpt lat="40.11756574322932" lon="9.181551221780587"><ele>811.0</ele><time>2026-04-27T07:04:13.99Z</time></trkpt><trkpt lat="40.11740396467603" lon="9.181762977255174"><ele>813.0</ele><time>2026-04-27T07:04:14.99Z</time></trkpt><trkpt lat="40.117241537687235" lon="9.181967420494445"><ele>813.0</ele><time>2026-04-27T07:04:15.99Z</time></trkpt><trkpt lat="40.117129678821065" lon="9.18219106265646"><ele>813.0</ele><time>2026-04-27T07:04:16.99Z</time></trkpt><trkpt lat="40.11705205048286" lon="9.182470351207328"><ele>813.0</ele><time>2026-04-27T07:04:17.99Z</time></trkpt><trkpt lat="40.11700590912411" lon="9.182803342956536"><ele>813.0</ele><time>2026-04-27T07:04:18.99Z</time></trkpt><trkpt lat="40.11694631999026" lon="9.183127358565125"><ele>813.0</ele><time>2026-04-27T07:04:19.99Z</time></trkpt><trkpt lat="40.116878642028226" lon="9.18342722509828"><ele>813.3333333333333</ele><time>2026-04-27T07:04:20.99Z</time></trkpt><trkpt lat="40.11681127819731" lon="9.183669929327056"><ele>813.6666666666666</ele><time>2026-04-27T07:04:21.99Z</time></trkpt><trkpt lat="40.11668351383041" lon="9.18386184599619"><ele>814.0</ele><time>2026-04-27T07:04:22.99Z</time></trkpt><trkpt lat="40.11651263744066" lon="9.184033105706973"><ele>814.0</ele><time>2026-04-27T07:04:23.99Z</time></trkpt><trkpt lat="40.11632746433126" lon="9.18422580511404"><ele>814.0</ele><time>2026-04-27T07:04:24.99Z</time></trkpt><trkpt lat="40.11614728526689" lon="9.184407265920694"><ele>814.0</ele><time>2026-04-27T07:04:25.99Z</time></trkpt><trkpt lat="40.11600833701331" lon="9.184616954069911"><ele>814.0</ele><time>2026-04-27T07:04:26.99Z</time></trkpt><trkpt lat="40.11590841311447" lon="9.184815019349783"><ele>814.0</ele><time>2026-04-27T07:04:27.99Z</time></trkpt><trkpt lat="40.115747393489144" lon="9.184867538609124"><ele>818.3333333333333</ele><time>2026-04-27T07:04:28.99Z</time></trkpt><trkpt lat="40.115553974469066" lon="9.184872988742248"><ele>822.6666666666667</ele><time>2026-04-27T07:04:29.99Z</time></trkpt><trkpt lat="40.115321271445396" lon="9.184880665306022"><ele>827.0</ele><time>2026-04-27T07:04:30.99Z</time></trkpt><trkpt lat="40.115096855114594" lon="9.184896994968557"><ele>830.0</ele><time>2026-04-27T07:04:31.99Z</time></trkpt><trkpt lat="40.11490300413513" lon="9.184907171250297"><ele>833.0</ele><time>2026-04-27T07:04:32.99Z</time></trkpt><trkpt lat="40.11473721228829" lon="9.184906900496992"><ele>836.0</ele><time>2026-04-27T07:04:33.99Z</time></trkpt><trkpt lat="40.11460236759706" lon="9.184825418396748"><ele>836.0</ele><time>2026-04-27T07:04:34.99Z</time></trkpt><trkpt lat="40.11450734916975" lon="9.184690519294708"><ele>836.0</ele><time>2026-04-27T07:04:35.99Z</time></trkpt><trkpt lat="40.11445136632168" lon="9.184502638860987"><ele>836.0</ele><time>2026-04-27T07:04:36.99Z</time></trkpt><trkpt lat="40.11442325371203" lon="9.18425725583502"><ele>833.0</ele><time>2026-04-27T07:04:37.99Z</time></trkpt><trkpt lat="40.11438835246801" lon="9.1840099449381"><ele>830.0</ele><time>2026-04-27T07:04:38.99Z</time></trkpt><trkpt lat="40.11434460119226" lon="9.18377679556681"><ele>827.0</ele><time>2026-04-27T07:04:39.99Z</time></trkpt><trkpt lat="40.11427160822264" lon="9.183572591144374"><ele>827.0</ele><time>2026-04-27T07:04:40.99Z</time></trkpt><trkpt lat="40.11416872286264" lon="9.183393678676628"><ele>827.0</ele><time>2026-04-27T07:04:41.99Z</time></trkpt><trkpt lat="40.11405365800111" lon="9.183221953384036"><ele>827.0</ele><time>2026-04-27T07:04:42.99Z</time></trkpt><trkpt lat="40.11393352604951" lon="9.183056061365205"><ele>831.0</ele><time>2026-04-27T07:04:43.99Z</time></trkpt><trkpt lat="40.11382377377504" lon="9.182906946409657"><ele>835.0</ele><time>2026-04-27T07:04:44.99Z</time></trkpt><trkpt lat="40.1137039439812" lon="9.182755369651671"><ele>839.0</ele><time>2026-04-27T07:04:45.99Z</time></trkpt><trkpt lat="40.113577795167345" lon="9.182626894665539"><ele>839.0</ele><time>2026-04-27T07:04:46.99Z</time></trkpt><trkpt lat="40.113458888759354" lon="9.182474486527527"><ele>839.0</ele><time>2026-04-27T07:04:47.99Z</time></trkpt><trkpt lat="40.11336429235865" lon="9.182324089316243"><ele>839.0</ele><time>2026-04-27T07:04:48.99Z</time></trkpt><trkpt lat="40.11328853093328" lon="9.182158419214359"><ele>835.6666666666667</ele><time>2026-04-27T07:04:49.99Z</time></trkpt><trkpt lat="40.113256843742974" lon="9.181967828245758"><ele>832.3333333333333</ele><time>2026-04-27T07:04:50.99Z</time></trkpt><trkpt lat="40.113226959538224" lon="9.18176950562242"><ele>829.0</ele><time>2026-04-27T07:04:51.99Z</time></trkpt><trkpt lat="40.11320533414014" lon="9.181568859226989"><ele>828.0</ele><time>2026-04-27T07:04:52.99Z</time></trkpt><trkpt lat="40.11325863406315" lon="9.18137516789869"><ele>827.0</ele><time>2026-04-27T07:04:53.989Z</time></trkpt><trkpt lat="40.113316543947725" lon="9.181188494575592"><ele>826.0</ele><time>2026-04-27T07:04:54.989Z</time></trkpt><trkpt lat="40.113345788998984" lon="9.18101095195149"><ele>826.0</ele><time>2026-04-27T07:04:55.989Z</time></trkpt><trkpt lat="40.11330854045752" lon="9.180836661586937"><ele>826.0</ele><time>2026-04-27T07:04:56.989Z</time></trkpt><trkpt lat="40.113216634442615" lon="9.180658460462269"><ele>826.0</ele><time>2026-04-27T07:04:57.989Z</time></trkpt><trkpt lat="40.113107532536176" lon="9.180482830452643"><ele>826.6666666666666</ele><time>2026-04-27T07:04:58.989Z</time></trkpt><trkpt lat="40.11299622084621" lon="9.18032954512481"><ele>827.3333333333333</ele><time>2026-04-27T07:04:59.989Z</time></trkpt><trkpt lat="40.1128618160068" lon="9.180195677410614"><ele>828.0</ele><time>2026-04-27T07:05:00.989Z</time></trkpt><trkpt lat="40.11270985187627" lon="9.18012367063953"><ele>828.0</ele><time>2026-04-27T07:05:01.989Z</time></trkpt><trkpt lat="40.112548337875054" lon="9.180120148020803"><ele>828.0</ele><time>2026-04-27T07:05:02.989Z</time></trkpt><trkpt lat="40.11239599053033" lon="9.18009469746987"><ele>828.0</ele><time>2026-04-27T07:05:03.989Z</time></trkpt><trkpt lat="40.112262662315004" lon="9.180006804483346"><ele>827.6666666666667</ele><time>2026-04-27T07:05:04.989Z</time></trkpt><trkpt lat="40.112156980326084" lon="9.17987520973228"><ele>827.3333333333334</ele><time>2026-04-27T07:05:05.989Z</time></trkpt><trkpt lat="40.11206713547191" lon="9.179705739399992"><ele>827.0</ele><time>2026-04-27T07:05:06.989Z</time></trkpt><trkpt lat="40.11197595266509" lon="9.179534295406304"><ele>827.0</ele><time>2026-04-27T07:05:07.989Z</time></trkpt><trkpt lat="40.1118874720263" lon="9.179361097690403"><ele>827.0</ele><time>2026-04-27T07:05:08.989Z</time></trkpt><trkpt lat="40.11181597362921" lon="9.17917219852282"><ele>827.0</ele><time>2026-04-27T07:05:09.989Z</time></trkpt><trkpt lat="40.111783518074915" lon="9.178970028720471"><ele>826.0</ele><time>2026-04-27T07:05:10.989Z</time></trkpt><trkpt lat="40.11175174484602" lon="9.178760474538292"><ele>825.0</ele><time>2026-04-27T07:05:11.989Z</time></trkpt><trkpt lat="40.111712282809016" lon="9.178573831980923"><ele>824.0</ele><time>2026-04-27T07:05:12.989Z</time></trkpt><trkpt lat="40.111653231746914" lon="9.178420601675127"><ele>823.0</ele><time>2026-04-27T07:05:13.989Z</time></trkpt><trkpt lat="40.11155047725498" lon="9.178328544583131"><ele>822.3333333333333</ele><time>2026-04-27T07:05:14.989Z</time></trkpt><trkpt lat="40.11140081013721" lon="9.178311852592701"><ele>821.6666666666667</ele><time>2026-04-27T07:05:15.989Z</time></trkpt><trkpt lat="40.111229920964504" lon="9.178345378339033"><ele>821.0</ele><time>2026-04-27T07:05:16.989Z</time></trkpt><trkpt lat="40.11106463488305" lon="9.178394931056596"><ele>821.0</ele><time>2026-04-27T07:05:17.989Z</time></trkpt><trkpt lat="40.11091022623218" lon="9.178450480581434"><ele>821.0</ele><time>2026-04-27T07:05:18.989Z</time></trkpt><trkpt lat="40.110758072407364" lon="9.178505136468646"><ele>821.0</ele><time>2026-04-27T07:05:19.989Z</time></trkpt><trkpt lat="40.11061715044812" lon="9.178577346415658"><ele>815.6666666666667</ele><time>2026-04-27T07:05:20.989Z</time></trkpt><trkpt lat="40.11046799292244" lon="9.178631774737068"><ele>810.3333333333333</ele><time>2026-04-27T07:05:21.989Z</time></trkpt><trkpt lat="40.11032101663269" lon="9.178693411508252"><ele>805.0</ele><time>2026-04-27T07:05:22.989Z</time></trkpt><trkpt lat="40.11017662214307" lon="9.178782532579365"><ele>805.0</ele><time>2026-04-27T07:05:23.989Z</time></trkpt><trkpt lat="40.110040809589286" lon="9.178887140173547"><ele>805.0</ele><time>2026-04-27T07:05:24.989Z</time></trkpt><trkpt lat="40.1099129606024" lon="9.179010050877073"><ele>805.0</ele><time>2026-04-27T07:05:25.989Z</time></trkpt><trkpt lat="40.109783976872954" lon="9.179124456138426"><ele>806.6666666666666</ele><time>2026-04-27T07:05:26.989Z</time></trkpt><trkpt lat="40.10964821725765" lon="9.179228002986184"><ele>808.3333333333333</ele><time>2026-04-27T07:05:27.989Z</time></trkpt><trkpt lat="40.10951579931227" lon="9.179331299638157"><ele>810.0</ele><time>2026-04-27T07:05:28.989Z</time></trkpt><trkpt lat="40.109395738813745" lon="9.179444172033586"><ele>810.0</ele><time>2026-04-27T07:05:29.989Z</time></trkpt><trkpt lat="40.10925737281339" lon="9.179547275124085"><ele>810.0</ele><time>2026-04-27T07:05:30.989Z</time></trkpt><trkpt lat="40.10913124096908" lon="9.179658666717195"><ele>810.0</ele><time>2026-04-27T07:05:31.989Z</time></trkpt><trkpt lat="40.109006445174046" lon="9.179785111065117"><ele>812.3333333333333</ele><time>2026-04-27T07:05:32.989Z</time></trkpt><trkpt lat="40.10889204605291" lon="9.179923358638717"><ele>814.6666666666666</ele><time>2026-04-27T07:05:33.989Z</time></trkpt><trkpt lat="40.10878036976899" lon="9.180067033704756"><ele>817.0</ele><time>2026-04-27T07:05:34.989Z</time></trkpt><trkpt lat="40.10867639261704" lon="9.180209951923914"><ele>817.0</ele><time>2026-04-27T07:05:35.989Z</time></trkpt><trkpt lat="40.10857944746776" lon="9.180374623851495"><ele>817.0</ele><time>2026-04-27T07:05:36.989Z</time></trkpt><trkpt lat="40.10849214065355" lon="9.180518215570281"><ele>817.0</ele><time>2026-04-27T07:05:37.989Z</time></trkpt><trkpt lat="40.10837889629987" lon="9.180597057941231"><ele>817.0</ele><time>2026-04-27T07:05:38.989Z</time></trkpt><trkpt lat="40.10825557647345" lon="9.180530313796982"><ele>816.5</ele><time>2026-04-27T07:05:39.989Z</time></trkpt><trkpt lat="40.10815617706335" lon="9.1804190146567"><ele>816.0</ele><time>2026-04-27T07:05:40.989Z</time></trkpt><trkpt lat="40.10810189451344" lon="9.180235657204893"><ele>815.5</ele><time>2026-04-27T07:05:41.989Z</time></trkpt><trkpt lat="40.108004785181166" lon="9.180084382092241"><ele>815.0</ele><time>2026-04-27T07:05:42.989Z</time></trkpt><trkpt lat="40.10791184701853" lon="9.179986235889551"><ele>815.0</ele><time>2026-04-27T07:05:43.989Z</time></trkpt><trkpt lat="40.10775688488563" lon="9.180004329689698"><ele>815.0</ele><time>2026-04-27T07:05:44.989Z</time></trkpt><trkpt lat="40.10758100789074" lon="9.180098134138445"><ele>815.0</ele><time>2026-04-27T07:05:45.989Z</time></trkpt><trkpt lat="40.10741404197914" lon="9.180226489990547"><ele>814.0</ele><time>2026-04-27T07:05:46.989Z</time></trkpt><trkpt lat="40.10726397677144" lon="9.180376463978718"><ele>813.0</ele><time>2026-04-27T07:05:47.989Z</time></trkpt><trkpt lat="40.10715745556432" lon="9.180560676438791"><ele>812.0</ele><time>2026-04-27T07:05:48.989Z</time></trkpt><trkpt lat="40.10707857694056" lon="9.18075470509365"><ele>816.0</ele><time>2026-04-27T07:05:49.989Z</time></trkpt><trkpt lat="40.106981567944324" lon="9.180884158596326"><ele>820.0</ele><time>2026-04-27T07:05:50.989Z</time></trkpt><trkpt lat="40.106832558099455" lon="9.180880201497642"><ele>824.0</ele><time>2026-04-27T07:05:51.989Z</time></trkpt><trkpt lat="40.10668342118636" lon="9.18079253165419"><ele>825.0</ele><time>2026-04-27T07:05:52.989Z</time></trkpt><trkpt lat="40.106546546046324" lon="9.18065734578746"><ele>826.0</ele><time>2026-04-27T07:05:53.989Z</time></trkpt><trkpt lat="40.10640996757827" lon="9.180481387298272"><ele>827.0</ele><time>2026-04-27T07:05:54.989Z</time></trkpt><trkpt lat="40.106264659073155" lon="9.180310441034733"><ele>827.0</ele><time>2026-04-27T07:05:55.989Z</time></trkpt><trkpt lat="40.10613232818109" lon="9.180131257474097"><ele>827.0</ele><time>2026-04-27T07:05:56.989Z</time></trkpt><trkpt lat="40.10599797211007" lon="9.17995095981387"><ele>827.0</ele><time>2026-04-27T07:05:57.989Z</time></trkpt><trkpt lat="40.105878993914736" lon="9.179749259805611"><ele>829.3333333333334</ele><time>2026-04-27T07:05:58.989Z</time></trkpt><trkpt lat="40.10577355290503" lon="9.179556178954817"><ele>831.6666666666667</ele><time>2026-04-27T07:05:59.989Z</time></trkpt><trkpt lat="40.10571102813454" lon="9.179343566388223"><ele>834.0</ele><time>2026-04-27T07:06:00.989Z</time></trkpt><trkpt lat="40.105663180393215" lon="9.179095834767702"><ele>831.6666666666667</ele><time>2026-04-27T07:06:01.989Z</time></trkpt><trkpt lat="40.10557423454649" lon="9.178890541883248"><ele>829.3333333333334</ele><time>2026-04-27T07:06:02.989Z</time></trkpt><trkpt lat="40.10548389724354" lon="9.178692116281454"><ele>827.0</ele><time>2026-04-27T07:06:03.989Z</time></trkpt><trkpt lat="40.10538508659161" lon="9.178484115107413"><ele>827.0</ele><time>2026-04-27T07:06:04.989Z</time></trkpt><trkpt lat="40.10532655325444" lon="9.178244809005129"><ele>827.0</ele><time>2026-04-27T07:06:05.988Z</time></trkpt><trkpt lat="40.105236899109975" lon="9.178037462142818"><ele>827.0</ele><time>2026-04-27T07:06:06.988Z</time></trkpt><trkpt lat="40.10514993975391" lon="9.177838478239028"><ele>824.0</ele><time>2026-04-27T07:06:07.988Z</time></trkpt><trkpt lat="40.10504175756158" lon="9.177653938472565"><ele>821.0</ele><time>2026-04-27T07:06:08.988Z</time></trkpt><trkpt lat="40.10490369670497" lon="9.177490597152303"><ele>818.0</ele><time>2026-04-27T07:06:09.988Z</time></trkpt><trkpt lat="40.104750547945464" lon="9.177349564214488"><ele>815.3333333333334</ele><time>2026-04-27T07:06:10.988Z</time></trkpt><trkpt lat="40.1045857316174" lon="9.177252949907041"><ele>812.6666666666667</ele><time>2026-04-27T07:06:11.988Z</time></trkpt><trkpt lat="40.10442921577418" lon="9.17718718453297"><ele>810.0</ele><time>2026-04-27T07:06:12.988Z</time></trkpt><trkpt lat="40.10430186552766" lon="9.177160452936093"><ele>810.0</ele><time>2026-04-27T07:06:13.988Z</time></trkpt><trkpt lat="40.10419492721474" lon="9.17723974276065"><ele>810.0</ele><time>2026-04-27T07:06:14.988Z</time></trkpt><trkpt lat="40.10410917729506" lon="9.177374123337582"><ele>810.0</ele><time>2026-04-27T07:06:15.988Z</time></trkpt><trkpt lat="40.10405558504167" lon="9.17756816926712"><ele>810.0</ele><time>2026-04-27T07:06:16.988Z</time></trkpt><trkpt lat="40.104000578240445" lon="9.177731307959364"><ele>812.0</ele><time>2026-04-27T07:06:17.988Z</time></trkpt><trkpt lat="40.10388981352742" lon="9.177793377431781"><ele>814.0</ele><time>2026-04-27T07:06:18.988Z</time></trkpt><trkpt lat="40.103754509608095" lon="9.177768824548044"><ele>816.0</ele><time>2026-04-27T07:06:19.988Z</time></trkpt><trkpt lat="40.103585404831506" lon="9.17773709087089"><ele>818.0</ele><time>2026-04-27T07:06:20.988Z</time></trkpt><trkpt lat="40.10342427016872" lon="9.1776488113854"><ele>818.0</ele><time>2026-04-27T07:06:21.988Z</time></trkpt><trkpt lat="40.1032686683197" lon="9.177573326872277"><ele>818.0</ele><time>2026-04-27T07:06:22.988Z</time></trkpt><trkpt lat="40.10312457821661" lon="9.17748474763644"><ele>818.0</ele><time>2026-04-27T07:06:23.988Z</time></trkpt><trkpt lat="40.102979725168495" lon="9.177395242488354"><ele>817.5</ele><time>2026-04-27T07:06:24.988Z</time></trkpt><trkpt lat="40.102841674365195" lon="9.177347516463163"><ele>817.0</ele><time>2026-04-27T07:06:25.988Z</time></trkpt><trkpt lat="40.1026968764638" lon="9.177378502772562"><ele>816.5</ele><time>2026-04-27T07:06:26.988Z</time></trkpt><trkpt lat="40.102567309776504" lon="9.177487090145796"><ele>816.0</ele><time>2026-04-27T07:06:27.988Z</time></trkpt><trkpt lat="40.102437609250956" lon="9.177632292074508"><ele>816.3333333333333</ele><time>2026-04-27T07:06:28.988Z</time></trkpt><trkpt lat="40.10231118774113" lon="9.177776091210141"><ele>816.6666666666666</ele><time>2026-04-27T07:06:29.988Z</time></trkpt><trkpt lat="40.10218359218201" lon="9.177882903268955"><ele>817.0</ele><time>2026-04-27T07:06:30.988Z</time></trkpt><trkpt lat="40.10205755093767" lon="9.177976856306797"><ele>817.0</ele><time>2026-04-27T07:06:31.988Z</time></trkpt><trkpt lat="40.101917677559996" lon="9.177939366486342"><ele>817.0</ele><time>2026-04-27T07:06:32.988Z</time></trkpt><trkpt lat="40.10181176738787" lon="9.177857793914725"><ele>817.0</ele><time>2026-04-27T07:06:33.988Z</time></trkpt><trkpt lat="40.10171886872101" lon="9.17770497856628"><ele>817.0</ele><time>2026-04-27T07:06:34.988Z</time></trkpt><trkpt lat="40.10159131029076" lon="9.177544275983134"><ele>818.6666666666666</ele><time>2026-04-27T07:06:35.988Z</time></trkpt><trkpt lat="40.10145941389258" lon="9.177376294725079"><ele>820.3333333333333</ele><time>2026-04-27T07:06:36.988Z</time></trkpt><trkpt lat="40.10132167110691" lon="9.177232160148312"><ele>822.0</ele><time>2026-04-27T07:06:37.988Z</time></trkpt><trkpt lat="40.10116940071838" lon="9.177152852787524"><ele>818.6666666666667</ele><time>2026-04-27T07:06:38.988Z</time></trkpt><trkpt lat="40.10099921662994" lon="9.177120609867186"><ele>815.3333333333334</ele><time>2026-04-27T07:06:39.988Z</time></trkpt><trkpt lat="40.10080303320961" lon="9.177142356611252"><ele>812.0</ele><time>2026-04-27T07:06:40.988Z</time></trkpt><trkpt lat="40.10060523310746" lon="9.17716411264938"><ele>812.0</ele><time>2026-04-27T07:06:41.988Z</time></trkpt><trkpt lat="40.1004185687227" lon="9.17710785428936"><ele>812.0</ele><time>2026-04-27T07:06:42.988Z</time></trkpt><trkpt lat="40.10026445292064" lon="9.176997167050704"><ele>812.0</ele><time>2026-04-27T07:06:43.988Z</time></trkpt><trkpt lat="40.10012130282855" lon="9.176897581970392"><ele>812.0</ele><time>2026-04-27T07:06:44.988Z</time></trkpt><trkpt lat="40.09997289591206" lon="9.176857468250994"><ele>812.0</ele><time>2026-04-27T07:06:45.988Z</time></trkpt><trkpt lat="40.09982952925036" lon="9.176903871555943"><ele>812.0</ele><time>2026-04-27T07:06:46.988Z</time></trkpt><trkpt lat="40.09968216805465" lon="9.177023763378973"><ele>814.0</ele><time>2026-04-27T07:06:47.988Z</time></trkpt><trkpt lat="40.09952581036036" lon="9.177096925531348"><ele>816.0</ele><time>2026-04-27T07:06:48.988Z</time></trkpt><trkpt lat="40.09938380637368" lon="9.177030667470579"><ele>818.0</ele><time>2026-04-27T07:06:49.988Z</time></trkpt><trkpt lat="40.099269258461916" lon="9.17689984110068"><ele>818.0</ele><time>2026-04-27T07:06:50.988Z</time></trkpt><trkpt lat="40.09913275036924" lon="9.17683696515372"><ele>818.0</ele><time>2026-04-27T07:06:51.988Z</time></trkpt><trkpt lat="40.09902678202932" lon="9.176829447322392"><ele>818.0</ele><time>2026-04-27T07:06:52.988Z</time></trkpt><trkpt lat="40.09895966175761" lon="9.176821910497877"><ele>818.0</ele><time>2026-04-27T07:06:53.988Z</time></trkpt><trkpt lat="40.09887645527813" lon="9.176811638080594"><ele>818.0</ele><time>2026-04-27T07:06:55.988Z</time></trkpt><trkpt lat="40.098804594001194" lon="9.176800397625652"><ele>818.1666666666667</ele><time>2026-04-27T07:06:56.988Z</time></trkpt><trkpt lat="40.09872647483175" lon="9.176783764034894"><ele>818.3333333333334</ele><time>2026-04-27T07:06:57.988Z</time></trkpt><trkpt lat="40.09865151819039" lon="9.17674295382785"><ele>818.5</ele><time>2026-04-27T07:06:58.988Z</time></trkpt><trkpt lat="40.09856283389317" lon="9.176689193465348"><ele>818.6666666666667</ele><time>2026-04-27T07:06:59.988Z</time></trkpt><trkpt lat="40.09848286989622" lon="9.176619189140816"><ele>818.8333333333334</ele><time>2026-04-27T07:07:00.988Z</time></trkpt><trkpt lat="40.09840954766435" lon="9.17654129567726"><ele>819.0</ele><time>2026-04-27T07:07:01.988Z</time></trkpt><trkpt lat="40.09832947781854" lon="9.176461670881979"><ele>816.75</ele><time>2026-04-27T07:07:02.988Z</time></trkpt><trkpt lat="40.09823356083255" lon="9.176395473898824"><ele>814.5</ele><time>2026-04-27T07:07:03.988Z</time></trkpt><trkpt lat="40.09810002699073" lon="9.176329946105835"><ele>812.25</ele><time>2026-04-27T07:07:04.988Z</time></trkpt><trkpt lat="40.097934307681044" lon="9.176283670037453"><ele>810.0</ele><time>2026-04-27T07:07:05.988Z</time></trkpt><trkpt lat="40.097773801882234" lon="9.176234966019834"><ele>810.0</ele><time>2026-04-27T07:07:06.988Z</time></trkpt><trkpt lat="40.09759628846222" lon="9.176181437486136"><ele>810.0</ele><time>2026-04-27T07:07:07.988Z</time></trkpt><trkpt lat="40.09742608849479" lon="9.176131000081218"><ele>810.0</ele><time>2026-04-27T07:07:08.988Z</time></trkpt><trkpt lat="40.097271743760786" lon="9.176085329035837"><ele>807.75</ele><time>2026-04-27T07:07:09.988Z</time></trkpt><trkpt lat="40.097136672946974" lon="9.17603199400081"><ele>805.5</ele><time>2026-04-27T07:07:10.988Z</time></trkpt><trkpt lat="40.09702078909665" lon="9.17595606833627"><ele>803.25</ele><time>2026-04-27T07:07:11.988Z</time></trkpt><trkpt lat="40.09696268577733" lon="9.175828923296207"><ele>801.0</ele><time>2026-04-27T07:07:12.988Z</time></trkpt><trkpt lat="40.09695788683416" lon="9.175673475325645"><ele>800.5</ele><time>2026-04-27T07:07:13.988Z</time></trkpt><trkpt lat="40.09693842946426" lon="9.175471436363516"><ele>800.0</ele><time>2026-04-27T07:07:14.988Z</time></trkpt><trkpt lat="40.09693186411659" lon="9.175273694456608"><ele>799.5</ele><time>2026-04-27T07:07:15.988Z</time></trkpt><trkpt lat="40.0968729285759" lon="9.175115517064063"><ele>799.0</ele><time>2026-04-27T07:07:16.988Z</time></trkpt><trkpt lat="40.096761006654816" lon="9.175007633960337"><ele>799.0</ele><time>2026-04-27T07:07:17.988Z</time></trkpt><trkpt lat="40.096621357623356" lon="9.174941277894103"><ele>799.0</ele><time>2026-04-27T07:07:18.987Z</time></trkpt><trkpt lat="40.096474305328805" lon="9.17484165956501"><ele>799.0</ele><time>2026-04-27T07:07:19.987Z</time></trkpt><trkpt lat="40.096378006108225" lon="9.1747155873911"><ele>796.25</ele><time>2026-04-27T07:07:20.987Z</time></trkpt><trkpt lat="40.09631321971598" lon="9.174551526696343"><ele>793.5</ele><time>2026-04-27T07:07:21.987Z</time></trkpt><trkpt lat="40.09629572306586" lon="9.17439586053602"><ele>790.75</ele><time>2026-04-27T07:07:22.987Z</time></trkpt><trkpt lat="40.09633740826388" lon="9.17426413223906"><ele>788.0</ele><time>2026-04-27T07:07:23.987Z</time></trkpt><trkpt lat="40.09643901789275" lon="9.174152492175596"><ele>789.0</ele><time>2026-04-27T07:07:24.987Z</time></trkpt><trkpt lat="40.09655038407347" lon="9.174007183288115"><ele>790.0</ele><time>2026-04-27T07:07:25.987Z</time></trkpt><trkpt lat="40.0966272542735" lon="9.173811647459127"><ele>791.0</ele><time>2026-04-27T07:07:26.987Z</time></trkpt><trkpt lat="40.09668371533189" lon="9.173598671965397"><ele>791.0</ele><time>2026-04-27T07:07:27.987Z</time></trkpt><trkpt lat="40.09675644669107" lon="9.173376066962492"><ele>791.0</ele><time>2026-04-27T07:07:28.987Z</time></trkpt><trkpt lat="40.0968064019241" lon="9.173167545343414"><ele>791.0</ele><time>2026-04-27T07:07:29.987Z</time></trkpt><trkpt lat="40.096811903311604" lon="9.17296925031618"><ele>790.3333333333334</ele><time>2026-04-27T07:07:30.987Z</time></trkpt><trkpt lat="40.096774855055905" lon="9.172786587778313"><ele>789.6666666666667</ele><time>2026-04-27T07:07:31.987Z</time></trkpt><trkpt lat="40.096674814632536" lon="9.17262233880504"><ele>789.0</ele><time>2026-04-27T07:07:32.987Z</time></trkpt><trkpt lat="40.09656326777748" lon="9.172460392999902"><ele>786.6666666666667</ele><time>2026-04-27T07:07:33.987Z</time></trkpt><trkpt lat="40.09647646360826" lon="9.172289072375849"><ele>784.3333333333334</ele><time>2026-04-27T07:07:34.987Z</time></trkpt><trkpt lat="40.09643033464196" lon="9.172095649266744"><ele>782.0</ele><time>2026-04-27T07:07:35.987Z</time></trkpt><trkpt lat="40.09636266332459" lon="9.171905079497913"><ele>782.0</ele><time>2026-04-27T07:07:36.987Z</time></trkpt><trkpt lat="40.09626697365613" lon="9.171784685968102"><ele>782.0</ele><time>2026-04-27T07:07:37.987Z</time></trkpt><trkpt lat="40.09612942207314" lon="9.171681017476716"><ele>782.0</ele><time>2026-04-27T07:07:38.987Z</time></trkpt><trkpt lat="40.095975930433674" lon="9.171568664755116"><ele>781.3333333333334</ele><time>2026-04-27T07:07:39.987Z</time></trkpt><trkpt lat="40.095834564535636" lon="9.171442294969921"><ele>780.6666666666667</ele><time>2026-04-27T07:07:40.987Z</time></trkpt><trkpt lat="40.0956860265826" lon="9.1713307091258"><ele>780.0</ele><time>2026-04-27T07:07:41.987Z</time></trkpt><trkpt lat="40.095527548750674" lon="9.171246804316315"><ele>780.0</ele><time>2026-04-27T07:07:42.987Z</time></trkpt><trkpt lat="40.09536205635262" lon="9.171196408128342"><ele>780.0</ele><time>2026-04-27T07:07:43.987Z</time></trkpt><trkpt lat="40.09518998912303" lon="9.171179264160347"><ele>780.0</ele><time>2026-04-27T07:07:44.987Z</time></trkpt><trkpt lat="40.09500169596072" lon="9.171129758097253"><ele>774.6666666666666</ele><time>2026-04-27T07:07:45.987Z</time></trkpt><trkpt lat="40.0948262999298" lon="9.171058994143742"><ele>769.3333333333333</ele><time>2026-04-27T07:07:46.987Z</time></trkpt><trkpt lat="40.09468039508804" lon="9.170938771110297"><ele>764.0</ele><time>2026-04-27T07:07:47.987Z</time></trkpt><trkpt lat="40.094534452370134" lon="9.170818811446026"><ele>764.0</ele><time>2026-04-27T07:07:48.987Z</time></trkpt><trkpt lat="40.09439167017065" lon="9.17069453520643"><ele>764.0</ele><time>2026-04-27T07:07:49.987Z</time></trkpt><trkpt lat="40.09426647179385" lon="9.17053969305278"><ele>764.0</ele><time>2026-04-27T07:07:50.987Z</time></trkpt><trkpt lat="40.094173230282316" lon="9.170359592729193"><ele>760.6666666666666</ele><time>2026-04-27T07:07:51.987Z</time></trkpt><trkpt lat="40.094083735037124" lon="9.170158322393942"><ele>757.3333333333334</ele><time>2026-04-27T07:07:52.987Z</time></trkpt><trkpt lat="40.09399552387473" lon="9.169958251727376"><ele>754.0</ele><time>2026-04-27T07:07:53.987Z</time></trkpt><trkpt lat="40.093915362375185" lon="9.169761718238142"><ele>754.0</ele><time>2026-04-27T07:07:54.987Z</time></trkpt><trkpt lat="40.093850432500986" lon="9.169572011957777"><ele>754.0</ele><time>2026-04-27T07:07:55.987Z</time></trkpt><trkpt lat="40.09380265395494" lon="9.169386145049573"><ele>754.0</ele><time>2026-04-27T07:07:56.987Z</time></trkpt><trkpt lat="40.09374722882991" lon="9.169201862644766"><ele>755.6666666666667</ele><time>2026-04-27T07:07:57.987Z</time></trkpt><trkpt lat="40.09371958235803" lon="9.168989200712211"><ele>757.3333333333334</ele><time>2026-04-27T07:07:58.987Z</time></trkpt><trkpt lat="40.093684855258154" lon="9.168783002359259"><ele>759.0</ele><time>2026-04-27T07:07:59.987Z</time></trkpt><trkpt lat="40.09367608198061" lon="9.16860148963225"><ele>759.0</ele><time>2026-04-27T07:08:00.987Z</time></trkpt><trkpt lat="40.09373769400008" lon="9.168446422049795"><ele>759.0</ele><time>2026-04-27T07:08:01.987Z</time></trkpt><trkpt lat="40.09384112347511" lon="9.168300190308276"><ele>759.0</ele><time>2026-04-27T07:08:02.987Z</time></trkpt><trkpt lat="40.09396328350423" lon="9.168155645717329"><ele>758.0</ele><time>2026-04-27T07:08:03.987Z</time></trkpt><trkpt lat="40.09407163053372" lon="9.168009205638747"><ele>757.0</ele><time>2026-04-27T07:08:04.987Z</time></trkpt><trkpt lat="40.0941488628064" lon="9.167873774483988"><ele>756.0</ele><time>2026-04-27T07:08:05.987Z</time></trkpt><trkpt lat="40.09415155988885" lon="9.167693364170521"><ele>755.0</ele><time>2026-04-27T07:08:06.987Z</time></trkpt><trkpt lat="40.09410125251944" lon="9.167490328446572"><ele>753.5</ele><time>2026-04-27T07:08:07.987Z</time></trkpt><trkpt lat="40.094063025577476" lon="9.167304887038558"><ele>752.0</ele><time>2026-04-27T07:08:08.987Z</time></trkpt><trkpt lat="40.09408418604587" lon="9.167135985749592"><ele>750.5</ele><time>2026-04-27T07:08:09.987Z</time></trkpt><trkpt lat="40.09411898351702" lon="9.166983825986629"><ele>749.0</ele><time>2026-04-27T07:08:10.987Z</time></trkpt><trkpt lat="40.09414027664095" lon="9.166831214044482"><ele>749.0</ele><time>2026-04-27T07:08:11.987Z</time></trkpt><trkpt lat="40.09417179383716" lon="9.166693288683232"><ele>749.0</ele><time>2026-04-27T07:08:12.987Z</time></trkpt><trkpt lat="40.094190858480715" lon="9.166553618838533"><ele>749.0</ele><time>2026-04-27T07:08:13.987Z</time></trkpt><trkpt lat="40.094190292580315" lon="9.166414001807572"><ele>749.0</ele><time>2026-04-27T07:08:14.987Z</time></trkpt><trkpt lat="40.09417934966003" lon="9.16627990457866"><ele>749.0</ele><time>2026-04-27T07:08:15.987Z</time></trkpt><trkpt lat="40.094169653078495" lon="9.166147285579012"><ele>747.75</ele><time>2026-04-27T07:08:16.987Z</time></trkpt><trkpt lat="40.09419113737045" lon="9.166012381590802"><ele>746.5</ele><time>2026-04-27T07:08:17.987Z</time></trkpt><trkpt lat="40.094257833487404" lon="9.165896668726607"><ele>745.25</ele><time>2026-04-27T07:08:18.987Z</time></trkpt><trkpt lat="40.094373462249024" lon="9.165847093661927"><ele>744.0</ele><time>2026-04-27T07:08:19.987Z</time></trkpt><trkpt lat="40.094472285567186" lon="9.165761376508062"><ele>743.0</ele><time>2026-04-27T07:08:20.987Z</time></trkpt><trkpt lat="40.094577814527085" lon="9.165692529918102"><ele>742.0</ele><time>2026-04-27T07:08:21.987Z</time></trkpt><trkpt lat="40.09466628301492" lon="9.165602625089134"><ele>741.0</ele><time>2026-04-27T07:08:22.987Z</time></trkpt><trkpt lat="40.09473243845174" lon="9.165478713556952"><ele>740.0</ele><time>2026-04-27T07:08:23.987Z</time></trkpt><trkpt lat="40.0947770043076" lon="9.16533833286128"><ele>740.0</ele><time>2026-04-27T07:08:24.987Z</time></trkpt><trkpt lat="40.0948109327109" lon="9.165197067073269"><ele>740.0</ele><time>2026-04-27T07:08:25.987Z</time></trkpt><trkpt lat="40.09483413289651" lon="9.165048706530875"><ele>740.0</ele><time>2026-04-27T07:08:26.987Z</time></trkpt><trkpt lat="40.09487548377894" lon="9.164900763274"><ele>740.0</ele><time>2026-04-27T07:08:27.987Z</time></trkpt><trkpt lat="40.09492214174741" lon="9.164761199921992"><ele>738.75</ele><time>2026-04-27T07:08:28.987Z</time></trkpt><trkpt lat="40.09499218140718" lon="9.164632061721488"><ele>737.5</ele><time>2026-04-27T07:08:29.987Z</time></trkpt><trkpt lat="40.09505914443669" lon="9.164505787246318"><ele>736.25</ele><time>2026-04-27T07:08:30.986Z</time></trkpt><trkpt lat="40.09512791858307" lon="9.16438311906829"><ele>735.0</ele><time>2026-04-27T07:08:31.986Z</time></trkpt><trkpt lat="40.09519244505735" lon="9.164257659942132"><ele>735.0</ele><time>2026-04-27T07:08:32.986Z</time></trkpt><trkpt lat="40.095226774712664" lon="9.164116634631473"><ele>735.0</ele><time>2026-04-27T07:08:33.986Z</time></trkpt><trkpt lat="40.0952303434614" lon="9.163977219955077"><ele>735.0</ele><time>2026-04-27T07:08:34.986Z</time></trkpt><trkpt lat="40.095206203705345" lon="9.163852786428674"><ele>735.0</ele><time>2026-04-27T07:08:35.986Z</time></trkpt><trkpt lat="40.09517154111528" lon="9.163705484709672"><ele>735.0</ele><time>2026-04-27T07:08:36.986Z</time></trkpt><trkpt lat="40.09512593906677" lon="9.163574838975741"><ele>734.0</ele><time>2026-04-27T07:08:37.986Z</time></trkpt><trkpt lat="40.095086106017774" lon="9.163430585606331"><ele>733.0</ele><time>2026-04-27T07:08:38.986Z</time></trkpt><trkpt lat="40.095058811781186" lon="9.163292301233213"><ele>732.0</ele><time>2026-04-27T07:08:39.986Z</time></trkpt><trkpt lat="40.09502268519511" lon="9.163151680531508"><ele>731.0</ele><time>2026-04-27T07:08:40.986Z</time></trkpt><trkpt lat="40.094979412029865" lon="9.163006740674243"><ele>730.0</ele><time>2026-04-27T07:08:41.986Z</time></trkpt><trkpt lat="40.09494382236215" lon="9.162855919053362"><ele>729.0</ele><time>2026-04-27T07:08:42.986Z</time></trkpt><trkpt lat="40.09490796042003" lon="9.162708539459816"><ele>728.0</ele><time>2026-04-27T07:08:43.986Z</time></trkpt><trkpt lat="40.09486531049486" lon="9.16256064205176"><ele>727.0</ele><time>2026-04-27T07:08:44.986Z</time></trkpt><trkpt lat="40.09482719064788" lon="9.162409583870694"><ele>725.0</ele><time>2026-04-27T07:08:45.986Z</time></trkpt><trkpt lat="40.094792779482574" lon="9.16226131851461"><ele>723.0</ele><time>2026-04-27T07:08:46.986Z</time></trkpt><trkpt lat="40.09475759769768" lon="9.162120599795546"><ele>721.0</ele><time>2026-04-27T07:08:47.986Z</time></trkpt><trkpt lat="40.09473886610821" lon="9.161980539982789"><ele>719.0</ele><time>2026-04-27T07:08:48.986Z</time></trkpt><trkpt lat="40.0947505537799" lon="9.161840883462016"><ele>717.0</ele><time>2026-04-27T07:08:49.986Z</time></trkpt><trkpt lat="40.09478665458083" lon="9.16170812607022"><ele>717.0</ele><time>2026-04-27T07:08:50.986Z</time></trkpt><trkpt lat="40.094817137306094" lon="9.1615703591633"><ele>717.0</ele><time>2026-04-27T07:08:51.986Z</time></trkpt><trkpt lat="40.09484408885817" lon="9.161443061427265"><ele>717.0</ele><time>2026-04-27T07:08:52.986Z</time></trkpt><trkpt lat="40.09488794914286" lon="9.161322772250251"><ele>717.0</ele><time>2026-04-27T07:08:53.986Z</time></trkpt><trkpt lat="40.0949286689668" lon="9.161205691479765"><ele>717.0</ele><time>2026-04-27T07:08:54.986Z</time></trkpt><trkpt lat="40.0949605362858" lon="9.161087672498178"><ele>717.0</ele><time>2026-04-27T07:08:55.986Z</time></trkpt><trkpt lat="40.09499405678944" lon="9.16097203936059"><ele>717.0</ele><time>2026-04-27T07:08:56.986Z</time></trkpt><trkpt lat="40.09501394943006" lon="9.160858826132396"><ele>717.0</ele><time>2026-04-27T07:08:57.986Z</time></trkpt><trkpt lat="40.09500749529315" lon="9.16074932653372"><ele>717.0</ele><time>2026-04-27T07:08:58.986Z</time></trkpt><trkpt lat="40.09500951474393" lon="9.160663513994237"><ele>717.0</ele><time>2026-04-27T07:08:59.986Z</time></trkpt><trkpt lat="40.09499832932806" lon="9.160560325021214"><ele>717.0</ele><time>2026-04-27T07:09:00.986Z</time></trkpt><trkpt lat="40.09498298820638" lon="9.160458234945605"><ele>717.0</ele><time>2026-04-27T07:09:01.986Z</time></trkpt><trkpt lat="40.09496200663896" lon="9.160363238194666"><ele>717.0</ele><time>2026-04-27T07:09:02.986Z</time></trkpt><trkpt lat="40.09494209729033" lon="9.160256251751715"><ele>717.0</ele><time>2026-04-27T07:09:03.986Z</time></trkpt><trkpt lat="40.0949097531365" lon="9.160153888797312"><ele>717.0</ele><time>2026-04-27T07:09:04.986Z</time></trkpt><trkpt lat="40.09486227233087" lon="9.160045640671209"><ele>717.0</ele><time>2026-04-27T07:09:05.986Z</time></trkpt><trkpt lat="40.09481786362456" lon="9.159947040286175"><ele>717.0</ele><time>2026-04-27T07:09:06.986Z</time></trkpt><trkpt lat="40.09477086292977" lon="9.159842684419516"><ele>715.6666666666666</ele><time>2026-04-27T07:09:07.986Z</time></trkpt><trkpt lat="40.09472610649138" lon="9.159739460878784"><ele>714.3333333333334</ele><time>2026-04-27T07:09:08.986Z</time></trkpt><trkpt lat="40.094681944759124" lon="9.159638209069398"><ele>713.0</ele><time>2026-04-27T07:09:09.986Z</time></trkpt><trkpt lat="40.09463945217248" lon="9.159541124313478"><ele>711.6666666666667</ele><time>2026-04-27T07:09:10.986Z</time></trkpt><trkpt lat="40.09460108727121" lon="9.159451236692012"><ele>710.3333333333334</ele><time>2026-04-27T07:09:11.986Z</time></trkpt><trkpt lat="40.094564834823856" lon="9.159360734061899"><ele>709.0</ele><time>2026-04-27T07:09:12.986Z</time></trkpt><trkpt lat="40.09453415901448" lon="9.15927069086225"><ele>709.0</ele><time>2026-04-27T07:09:13.986Z</time></trkpt><trkpt lat="40.09451287317217" lon="9.159181884051057"><ele>709.0</ele><time>2026-04-27T07:09:14.986Z</time></trkpt><trkpt lat="40.09451121438753" lon="9.159094480189664"><ele>709.0</ele><time>2026-04-27T07:09:15.986Z</time></trkpt><trkpt lat="40.09451803303408" lon="9.158995142492566"><ele>709.0</ele><time>2026-04-27T07:09:16.986Z</time></trkpt><trkpt lat="40.09452578360809" lon="9.15888101080258"><ele>709.0</ele><time>2026-04-27T07:09:17.986Z</time></trkpt><trkpt lat="40.09454346805464" lon="9.158762412508633"><ele>709.0</ele><time>2026-04-27T07:09:18.986Z</time></trkpt><trkpt lat="40.09454376811565" lon="9.158637318861139"><ele>709.2</ele><time>2026-04-27T07:09:19.986Z</time></trkpt><trkpt lat="40.094578386553174" lon="9.15851054520892"><ele>709.4000000000001</ele><time>2026-04-27T07:09:20.986Z</time></trkpt><trkpt lat="40.09459996488871" lon="9.158369612131846"><ele>709.6</ele><time>2026-04-27T07:09:21.986Z</time></trkpt><trkpt lat="40.09461069898208" lon="9.158224069102186"><ele>709.8</ele><time>2026-04-27T07:09:22.986Z</time></trkpt><trkpt lat="40.09462482306068" lon="9.15807233078764"><ele>710.0</ele><time>2026-04-27T07:09:23.986Z</time></trkpt><trkpt lat="40.094626241556284" lon="9.15792140302699"><ele>710.0</ele><time>2026-04-27T07:09:24.986Z</time></trkpt><trkpt lat="40.094614323538" lon="9.157767103672484"><ele>710.0</ele><time>2026-04-27T07:09:25.986Z</time></trkpt><trkpt lat="40.094592932177264" lon="9.157609330310603"><ele>710.0</ele><time>2026-04-27T07:09:26.986Z</time></trkpt><trkpt lat="40.09455946237142" lon="9.157453386097497"><ele>710.0</ele><time>2026-04-27T07:09:27.986Z</time></trkpt><trkpt lat="40.09452626671489" lon="9.157302241669372"><ele>706.25</ele><time>2026-04-27T07:09:28.986Z</time></trkpt><trkpt lat="40.09444710036614" lon="9.157181619124765"><ele>702.5</ele><time>2026-04-27T07:09:29.986Z</time></trkpt><trkpt lat="40.09432858646644" lon="9.157118878438764"><ele>698.75</ele><time>2026-04-27T07:09:30.986Z</time></trkpt><trkpt lat="40.09421379373879" lon="9.15707630955588"><ele>695.0</ele><time>2026-04-27T07:09:31.986Z</time></trkpt><trkpt lat="40.094105589716904" lon="9.157005134340496"><ele>696.75</ele><time>2026-04-27T07:09:32.986Z</time></trkpt><trkpt lat="40.09399362648258" lon="9.156940463808871"><ele>698.5</ele><time>2026-04-27T07:09:33.986Z</time></trkpt><trkpt lat="40.0938796055121" lon="9.156844494802389"><ele>700.25</ele><time>2026-04-27T07:09:34.986Z</time></trkpt><trkpt lat="40.09377492334801" lon="9.15675802300345"><ele>702.0</ele><time>2026-04-27T07:09:35.986Z</time></trkpt><trkpt lat="40.093653880139705" lon="9.15670792473903"><ele>702.0</ele><time>2026-04-27T07:09:36.986Z</time></trkpt><trkpt lat="40.093530239374914" lon="9.156655339356517"><ele>702.0</ele><time>2026-04-27T07:09:37.986Z</time></trkpt><trkpt lat="40.09339314569558" lon="9.15668617578862"><ele>702.0</ele><time>2026-04-27T07:09:38.986Z</time></trkpt><trkpt lat="40.09326547254593" lon="9.156707043651648"><ele>702.0</ele><time>2026-04-27T07:09:39.986Z</time></trkpt><trkpt lat="40.09313656700462" lon="9.15674119534162"><ele>701.0</ele><time>2026-04-27T07:09:40.986Z</time></trkpt><trkpt lat="40.09302766300383" lon="9.156839763358109"><ele>700.0</ele><time>2026-04-27T07:09:41.986Z</time></trkpt><trkpt lat="40.09291562630639" lon="9.156927703393803"><ele>699.0</ele><time>2026-04-27T07:09:42.986Z</time></trkpt><trkpt lat="40.09279442414203" lon="9.15699814241194"><ele>698.0</ele><time>2026-04-27T07:09:43.985Z</time></trkpt><trkpt lat="40.09266157667148" lon="9.157028412416578"><ele>698.0</ele><time>2026-04-27T07:09:44.985Z</time></trkpt><trkpt lat="40.09252711129347" lon="9.157026079799051"><ele>698.0</ele><time>2026-04-27T07:09:45.985Z</time></trkpt><trkpt lat="40.09239691060471" lon="9.157008259320287"><ele>698.0</ele><time>2026-04-27T07:09:46.985Z</time></trkpt><trkpt lat="40.092263851312744" lon="9.156993953098164"><ele>698.0</ele><time>2026-04-27T07:09:47.985Z</time></trkpt><trkpt lat="40.09213200915155" lon="9.156983477952913"><ele>698.0</ele><time>2026-04-27T07:09:48.985Z</time></trkpt><trkpt lat="40.09200012571427" lon="9.156964981460098"><ele>698.0</ele><time>2026-04-27T07:09:49.985Z</time></trkpt><trkpt lat="40.09187091095101" lon="9.15693371790094"><ele>698.0</ele><time>2026-04-27T07:09:50.985Z</time></trkpt><trkpt lat="40.091742149909315" lon="9.156898719786152"><ele>698.0</ele><time>2026-04-27T07:09:51.985Z</time></trkpt><trkpt lat="40.09161501011412" lon="9.15685781623096"><ele>698.25</ele><time>2026-04-27T07:09:52.985Z</time></trkpt><trkpt lat="40.09148318156925" lon="9.156815417212824"><ele>698.5</ele><time>2026-04-27T07:09:53.985Z</time></trkpt><trkpt lat="40.09134876142597" lon="9.156772902488447"><ele>698.75</ele><time>2026-04-27T07:09:54.985Z</time></trkpt><trkpt lat="40.091208028642335" lon="9.156752398709198"><ele>699.0</ele><time>2026-04-27T07:09:55.985Z</time></trkpt><trkpt lat="40.09105833691247" lon="9.15675321296879"><ele>699.0</ele><time>2026-04-27T07:09:56.985Z</time></trkpt><trkpt lat="40.09091559714956" lon="9.156795629184606"><ele>699.0</ele><time>2026-04-27T07:09:57.985Z</time></trkpt><trkpt lat="40.09076515079173" lon="9.156854214461802"><ele>699.0</ele><time>2026-04-27T07:09:58.985Z</time></trkpt><trkpt lat="40.090604147646054" lon="9.156866232305902"><ele>698.3333333333334</ele><time>2026-04-27T07:09:59.985Z</time></trkpt><trkpt lat="40.09044535801532" lon="9.156859977043524"><ele>697.6666666666667</ele><time>2026-04-27T07:10:00.985Z</time></trkpt><trkpt lat="40.09028674074448" lon="9.156839084028242"><ele>697.0</ele><time>2026-04-27T07:10:01.985Z</time></trkpt><trkpt lat="40.0901219991604" lon="9.156807051458701"><ele>697.0</ele><time>2026-04-27T07:10:02.985Z</time></trkpt><trkpt lat="40.08994928092662" lon="9.156764031806214"><ele>697.0</ele><time>2026-04-27T07:10:03.985Z</time></trkpt><trkpt lat="40.08977004318951" lon="9.156713116939052"><ele>697.0</ele><time>2026-04-27T07:10:04.985Z</time></trkpt><trkpt lat="40.089591089444994" lon="9.15665400695529"><ele>698.0</ele><time>2026-04-27T07:10:05.985Z</time></trkpt><trkpt lat="40.08942081870304" lon="9.156603153146662"><ele>699.0</ele><time>2026-04-27T07:10:06.985Z</time></trkpt><trkpt lat="40.08925095150071" lon="9.156576258005204"><ele>700.0</ele><time>2026-04-27T07:10:07.985Z</time></trkpt><trkpt lat="40.08907957916454" lon="9.156600654373316"><ele>700.6666666666667</ele><time>2026-04-27T07:10:08.985Z</time></trkpt><trkpt lat="40.08891426718962" lon="9.156656180224791"><ele>701.3333333333334</ele><time>2026-04-27T07:10:09.985Z</time></trkpt><trkpt lat="40.088771373998945" lon="9.156722673822069"><ele>702.0</ele><time>2026-04-27T07:10:10.985Z</time></trkpt><trkpt lat="40.088653841865195" lon="9.156823515358402"><ele>702.0</ele><time>2026-04-27T07:10:11.985Z</time></trkpt><trkpt lat="40.08846971909109" lon="9.156855904470344"><ele>702.0</ele><time>2026-04-27T07:10:12.985Z</time></trkpt><trkpt lat="40.08836482327385" lon="9.156610830971042"><ele>702.0</ele><time>2026-04-27T07:10:13.985Z</time></trkpt><trkpt lat="40.08838091128748" lon="9.156858222341278"><ele>702.0</ele><time>2026-04-27T07:10:14.985Z</time></trkpt><trkpt lat="40.08834430086971" lon="9.15675844973563"><ele>702.0</ele><time>2026-04-27T07:10:15.985Z</time></trkpt><trkpt lat="40.0882879420753" lon="9.156605328776655"><ele>702.0</ele><time>2026-04-27T07:10:16.985Z</time></trkpt><trkpt lat="40.08819808926852" lon="9.15645786537067"><ele>702.0</ele><time>2026-04-27T07:10:17.985Z</time></trkpt><trkpt lat="40.08809780301989" lon="9.156332147043903"><ele>703.75</ele><time>2026-04-27T07:10:18.985Z</time></trkpt><trkpt lat="40.08802034488943" lon="9.156190636726292"><ele>705.5</ele><time>2026-04-27T07:10:19.985Z</time></trkpt><trkpt lat="40.08795316684616" lon="9.156023457278778"><ele>707.25</ele><time>2026-04-27T07:10:20.985Z</time></trkpt><trkpt lat="40.08788277176403" lon="9.155846186552575"><ele>709.0</ele><time>2026-04-27T07:10:21.985Z</time></trkpt><trkpt lat="40.087815966739385" lon="9.155668685164564"><ele>709.6</ele><time>2026-04-27T07:10:22.985Z</time></trkpt><trkpt lat="40.08777295523682" lon="9.155509538464505"><ele>710.2</ele><time>2026-04-27T07:10:23.985Z</time></trkpt><trkpt lat="40.08777234173073" lon="9.155366733646103"><ele>710.8000000000001</ele><time>2026-04-27T07:10:24.985Z</time></trkpt><trkpt lat="40.08782057184379" lon="9.155264505570916"><ele>711.4000000000001</ele><time>2026-04-27T07:10:25.985Z</time></trkpt><trkpt lat="40.087895117346804" lon="9.155172037994594"><ele>712.0</ele><time>2026-04-27T07:10:26.985Z</time></trkpt><trkpt lat="40.08799365718311" lon="9.155127735428392"><ele>712.0</ele><time>2026-04-27T07:10:27.985Z</time></trkpt><trkpt lat="40.0881357466325" lon="9.155093688245978"><ele>712.0</ele><time>2026-04-27T07:10:28.985Z</time></trkpt><trkpt lat="40.08827728567364" lon="9.15499621096555"><ele>712.0</ele><time>2026-04-27T07:10:29.985Z</time></trkpt><trkpt lat="40.088366418989544" lon="9.154830970566602"><ele>708.6666666666667</ele><time>2026-04-27T07:10:30.985Z</time></trkpt><trkpt lat="40.088379439263115" lon="9.154618692632118"><ele>705.3333333333334</ele><time>2026-04-27T07:10:31.985Z</time></trkpt><trkpt lat="40.088373306502895" lon="9.1543941954363"><ele>702.0</ele><time>2026-04-27T07:10:32.985Z</time></trkpt><trkpt lat="40.08837143408939" lon="9.154149043826642"><ele>703.3333333333334</ele><time>2026-04-27T07:10:33.985Z</time></trkpt><trkpt lat="40.08836578829157" lon="9.153907970337734"><ele>704.6666666666667</ele><time>2026-04-27T07:10:34.985Z</time></trkpt><trkpt lat="40.088384411935955" lon="9.153681798013638"><ele>706.0</ele><time>2026-04-27T07:10:35.985Z</time></trkpt><trkpt lat="40.08839370243049" lon="9.153478181765614"><ele>706.0</ele><time>2026-04-27T07:10:36.985Z</time></trkpt><trkpt lat="40.088436902600385" lon="9.153303521748693"><ele>706.0</ele><time>2026-04-27T07:10:37.985Z</time></trkpt><trkpt lat="40.08853849104036" lon="9.153150231038788"><ele>706.0</ele><time>2026-04-27T07:10:38.985Z</time></trkpt><trkpt lat="40.08866548237342" lon="9.152981434217878"><ele>703.0</ele><time>2026-04-27T07:10:39.985Z</time></trkpt><trkpt lat="40.08878787913998" lon="9.152792620459765"><ele>700.0</ele><time>2026-04-27T07:10:40.985Z</time></trkpt><trkpt lat="40.08894499611152" lon="9.15261607248491"><ele>697.0</ele><time>2026-04-27T07:10:41.985Z</time></trkpt><trkpt lat="40.089108307955684" lon="9.152437608187768"><ele>704.0</ele><time>2026-04-27T07:10:42.985Z</time></trkpt><trkpt lat="40.089303459028166" lon="9.15228910738645"><ele>711.0</ele><time>2026-04-27T07:10:43.985Z</time></trkpt><trkpt lat="40.08948439036475" lon="9.152139773735218"><ele>718.0</ele><time>2026-04-27T07:10:44.985Z</time></trkpt><trkpt lat="40.08967869598594" lon="9.152014304089857"><ele>718.0</ele><time>2026-04-27T07:10:45.985Z</time></trkpt><trkpt lat="40.089869777546646" lon="9.151875484161572"><ele>718.0</ele><time>2026-04-27T07:10:46.985Z</time></trkpt><trkpt lat="40.09006726914187" lon="9.151728024803283"><ele>718.0</ele><time>2026-04-27T07:10:47.985Z</time></trkpt><trkpt lat="40.090266617358246" lon="9.151582220011315"><ele>719.6666666666667</ele><time>2026-04-27T07:10:48.985Z</time></trkpt><trkpt lat="40.09046040361175" lon="9.151432032050094"><ele>721.3333333333334</ele><time>2026-04-27T07:10:49.985Z</time></trkpt><trkpt lat="40.09064248773358" lon="9.151292948988548"><ele>723.0</ele><time>2026-04-27T07:10:50.985Z</time></trkpt><trkpt lat="40.090808624414734" lon="9.151162895221796"><ele>716.0</ele><time>2026-04-27T07:10:51.985Z</time></trkpt><trkpt lat="40.090934748708115" lon="9.151005131739266"><ele>709.0</ele><time>2026-04-27T07:10:52.985Z</time></trkpt><trkpt lat="40.09099445459904" lon="9.150814964741475"><ele>702.0</ele><time>2026-04-27T07:10:53.985Z</time></trkpt><trkpt lat="40.09099130834426" lon="9.150603298420068"><ele>700.0</ele><time>2026-04-27T07:10:54.985Z</time></trkpt><trkpt lat="40.09092128843015" lon="9.150366562725418"><ele>698.0</ele><time>2026-04-27T07:10:55.984Z</time></trkpt><trkpt lat="40.09080767494434" lon="9.150143244408282"><ele>696.0</ele><time>2026-04-27T07:10:56.984Z</time></trkpt><trkpt lat="40.09068307922882" lon="9.149926371306833"><ele>700.6666666666666</ele><time>2026-04-27T07:10:57.984Z</time></trkpt><trkpt lat="40.09060133416764" lon="9.14968832657114"><ele>705.3333333333333</ele><time>2026-04-27T07:10:58.984Z</time></trkpt><trkpt lat="40.09052959535409" lon="9.149446421597013"><ele>710.0</ele><time>2026-04-27T07:10:59.984Z</time></trkpt><trkpt lat="40.0904835546516" lon="9.149210985159606"><ele>708.6666666666666</ele><time>2026-04-27T07:11:00.984Z</time></trkpt><trkpt lat="40.09047095037964" lon="9.148996868366828"><ele>707.3333333333334</ele><time>2026-04-27T07:11:01.984Z</time></trkpt><trkpt lat="40.090493390991654" lon="9.148791345224856"><ele>706.0</ele><time>2026-04-27T07:11:02.984Z</time></trkpt><trkpt lat="40.090531269319904" lon="9.148586881440115"><ele>706.0</ele><time>2026-04-27T07:11:03.984Z</time></trkpt><trkpt lat="40.09055237345857" lon="9.148376748987808"><ele>706.0</ele><time>2026-04-27T07:11:04.984Z</time></trkpt><trkpt lat="40.09054321232009" lon="9.148167243766752"><ele>706.0</ele><time>2026-04-27T07:11:05.984Z</time></trkpt><trkpt lat="40.090475724583044" lon="9.14796511973"><ele>701.3333333333334</ele><time>2026-04-27T07:11:06.984Z</time></trkpt><trkpt lat="40.0903659139782" lon="9.147775740957373"><ele>696.6666666666666</ele><time>2026-04-27T07:11:07.984Z</time></trkpt><trkpt lat="40.09022358250916" lon="9.147624792081027"><ele>692.0</ele><time>2026-04-27T07:11:08.984Z</time></trkpt><trkpt lat="40.09004798628747" lon="9.147506958827087"><ele>696.0</ele><time>2026-04-27T07:11:09.984Z</time></trkpt><trkpt lat="40.08986441802875" lon="9.147406164352597"><ele>700.0</ele><time>2026-04-27T07:11:10.984Z</time></trkpt><trkpt lat="40.08966909043515" lon="9.147319751212578"><ele>704.0</ele><time>2026-04-27T07:11:11.984Z</time></trkpt><trkpt lat="40.089472183380984" lon="9.147244096096735"><ele>701.3333333333333</ele><time>2026-04-27T07:11:12.984Z</time></trkpt><trkpt lat="40.089290031413135" lon="9.147132587233374"><ele>698.6666666666666</ele><time>2026-04-27T07:11:13.984Z</time></trkpt><trkpt lat="40.08913201356002" lon="9.146988362699375"><ele>696.0</ele><time>2026-04-27T07:11:14.984Z</time></trkpt><trkpt lat="40.088997827174225" lon="9.146797956726301"><ele>696.0</ele><time>2026-04-27T07:11:15.984Z</time></trkpt><trkpt lat="40.088877891061415" lon="9.146579251656997"><ele>696.0</ele><time>2026-04-27T07:11:16.984Z</time></trkpt><trkpt lat="40.08873361160317" lon="9.146392732211117"><ele>696.0</ele><time>2026-04-27T07:11:17.984Z</time></trkpt><trkpt lat="40.08860689854995" lon="9.146232935225388"><ele>685.0</ele><time>2026-04-27T07:11:18.984Z</time></trkpt><trkpt lat="40.08842321613569" lon="9.14610781613052"><ele>674.0</ele><time>2026-04-27T07:11:19.984Z</time></trkpt><trkpt lat="40.0882423858307" lon="9.146025493055133"><ele>663.0</ele><time>2026-04-27T07:11:20.984Z</time></trkpt><trkpt lat="40.08807046881136" lon="9.145979349961465"><ele>659.3333333333334</ele><time>2026-04-27T07:11:21.984Z</time></trkpt><trkpt lat="40.087894920037286" lon="9.14599464749867"><ele>655.6666666666667</ele><time>2026-04-27T07:11:22.984Z</time></trkpt><trkpt lat="40.08771652427175" lon="9.146065258901196"><ele>652.0</ele><time>2026-04-27T07:11:23.984Z</time></trkpt><trkpt lat="40.08754726511766" lon="9.14618859604158"><ele>650.3333333333334</ele><time>2026-04-27T07:11:24.984Z</time></trkpt><trkpt lat="40.087400493932115" lon="9.146335776911243"><ele>648.6666666666666</ele><time>2026-04-27T07:11:25.984Z</time></trkpt><trkpt lat="40.08727855947526" lon="9.146470897979023"><ele>647.0</ele><time>2026-04-27T07:11:26.984Z</time></trkpt><trkpt lat="40.08713506480088" lon="9.146475493505973"><ele>647.0</ele><time>2026-04-27T07:11:28.001Z</time></trkpt><trkpt lat="40.08698712817072" lon="9.146391808934208"><ele>647.0</ele><time>2026-04-27T07:11:29.001Z</time></trkpt><trkpt lat="40.08679392757933" lon="9.146316979892266"><ele>647.0</ele><time>2026-04-27T07:11:30.001Z</time></trkpt><trkpt lat="40.08661202825244" lon="9.146268773816825"><ele>654.3333333333333</ele><time>2026-04-27T07:11:31.001Z</time></trkpt><trkpt lat="40.086448913481256" lon="9.146174641237225"><ele>661.6666666666666</ele><time>2026-04-27T07:11:32.001Z</time></trkpt><trkpt lat="40.08632648891607" lon="9.146023559833202"><ele>669.0</ele><time>2026-04-27T07:11:33.001Z</time></trkpt><trkpt lat="40.086172889603134" lon="9.145861173960277"><ele>669.0</ele><time>2026-04-27T07:11:34.001Z</time></trkpt><trkpt lat="40.086005599913236" lon="9.145735451579268"><ele>669.0</ele><time>2026-04-27T07:11:35.001Z</time></trkpt><trkpt lat="40.085825006777725" lon="9.145641473373415"><ele>669.0</ele><time>2026-04-27T07:11:36.001Z</time></trkpt><trkpt lat="40.08563835024857" lon="9.145558855949625"><ele>658.6666666666666</ele><time>2026-04-27T07:11:37.001Z</time></trkpt><trkpt lat="40.08546472632143" lon="9.145449631778607"><ele>648.3333333333333</ele><time>2026-04-27T07:11:38.001Z</time></trkpt><trkpt lat="40.08529589383756" lon="9.14535942128792"><ele>638.0</ele><time>2026-04-27T07:11:39.001Z</time></trkpt><trkpt lat="40.085117573202034" lon="9.145321014912279"><ele>638.0</ele><time>2026-04-27T07:11:40.001Z</time></trkpt><trkpt lat="40.08492967578908" lon="9.145357784430141"><ele>638.0</ele><time>2026-04-27T07:11:41.001Z</time></trkpt><trkpt lat="40.084741050039895" lon="9.145385682969119"><ele>638.0</ele><time>2026-04-27T07:11:42.001Z</time></trkpt><trkpt lat="40.084559817687754" lon="9.145310600290014"><ele>637.3333333333333</ele><time>2026-04-27T07:11:43.001Z</time></trkpt><trkpt lat="40.084379899347404" lon="9.145309673076156"><ele>636.6666666666666</ele><time>2026-04-27T07:11:44.001Z</time></trkpt><trkpt lat="40.084208548122895" lon="9.14533493858407"><ele>636.0</ele><time>2026-04-27T07:11:45.001Z</time></trkpt><trkpt lat="40.084040208504305" lon="9.145423779428889"><ele>637.6666666666666</ele><time>2026-04-27T07:11:46.001Z</time></trkpt><trkpt lat="40.083879104040655" lon="9.14557025237417"><ele>639.3333333333333</ele><time>2026-04-27T07:11:47.001Z</time></trkpt><trkpt lat="40.0837293114115" lon="9.145740824897999"><ele>641.0</ele><time>2026-04-27T07:11:48.001Z</time></trkpt><trkpt lat="40.08358125192699" lon="9.14590159469738"><ele>641.0</ele><time>2026-04-27T07:11:49Z</time></trkpt><trkpt lat="40.083428131886755" lon="9.146055744880815"><ele>641.0</ele><time>2026-04-27T07:11:50Z</time></trkpt><trkpt lat="40.08326818607766" lon="9.146188704554774"><ele>641.0</ele><time>2026-04-27T07:11:51Z</time></trkpt><trkpt lat="40.08310905029356" lon="9.1462927974915"><ele>639.3333333333333</ele><time>2026-04-27T07:11:52Z</time></trkpt><trkpt lat="40.082965070960235" lon="9.14640485242023"><ele>637.6666666666666</ele><time>2026-04-27T07:11:53Z</time></trkpt><trkpt lat="40.082862152417995" lon="9.146587545191899"><ele>636.0</ele><time>2026-04-27T07:11:54Z</time></trkpt><trkpt lat="40.08279277446392" lon="9.146799049790825"><ele>636.0</ele><time>2026-04-27T07:11:55Z</time></trkpt><trkpt lat="40.08272879223261" lon="9.14700333834578"><ele>636.0</ele><time>2026-04-27T07:11:56Z</time></trkpt><trkpt lat="40.08261343136133" lon="9.147148662691505"><ele>636.0</ele><time>2026-04-27T07:11:57Z</time></trkpt><trkpt lat="40.08244710375612" lon="9.147163923233576"><ele>632.6666666666666</ele><time>2026-04-27T07:11:58Z</time></trkpt><trkpt lat="40.08225625118989" lon="9.14719547873724"><ele>629.3333333333333</ele><time>2026-04-27T07:11:59Z</time></trkpt><trkpt lat="40.08207330974534" lon="9.147147491311756"><ele>626.0</ele><time>2026-04-27T07:12:00Z</time></trkpt><trkpt lat="40.08190024237535" lon="9.147050701139786"><ele>626.0</ele><time>2026-04-27T07:12:01Z</time></trkpt><trkpt lat="40.08173108176477" lon="9.146974175675021"><ele>626.0</ele><time>2026-04-27T07:12:02Z</time></trkpt><trkpt lat="40.081549150192245" lon="9.146960593989949"><ele>626.0</ele><time>2026-04-27T07:12:03Z</time></trkpt><trkpt lat="40.0813528210053" lon="9.147042055914246"><ele>626.0</ele><time>2026-04-27T07:12:04Z</time></trkpt><trkpt lat="40.08116273386263" lon="9.147119302165"><ele>626.0</ele><time>2026-04-27T07:12:05Z</time></trkpt><trkpt lat="40.08096804346499" lon="9.147063664944039"><ele>626.0</ele><time>2026-04-27T07:12:06Z</time></trkpt><trkpt lat="40.080779793626824" lon="9.146979482614249"><ele>627.3333333333333</ele><time>2026-04-27T07:12:07Z</time></trkpt><trkpt lat="40.08059165053768" lon="9.146871868762219"><ele>628.6666666666666</ele><time>2026-04-27T07:12:08Z</time></trkpt><trkpt lat="40.080429346451545" lon="9.146720988212651"><ele>630.0</ele><time>2026-04-27T07:12:09Z</time></trkpt><trkpt lat="40.08026417042053" lon="9.14660137862763"><ele>626.0</ele><time>2026-04-27T07:12:10Z</time></trkpt><trkpt lat="40.080097871421394" lon="9.146522497182172"><ele>622.0</ele><time>2026-04-27T07:12:11Z</time></trkpt><trkpt lat="40.07991204154448" lon="9.146523463693251"><ele>618.0</ele><time>2026-04-27T07:12:12Z</time></trkpt><trkpt lat="40.07972280853313" lon="9.146610403928204"><ele>618.0</ele><time>2026-04-27T07:12:13.003Z</time></trkpt><trkpt lat="40.07954987029701" lon="9.146742858170965"><ele>618.0</ele><time>2026-04-27T07:12:14.002Z</time></trkpt><trkpt lat="40.079386753906434" lon="9.146884222192798"><ele>618.0</ele><time>2026-04-27T07:12:15.002Z</time></trkpt><trkpt lat="40.07920911671259" lon="9.146893812618272"><ele>617.0</ele><time>2026-04-27T07:12:16.003Z</time></trkpt><trkpt lat="40.07901713691006" lon="9.146843779394409"><ele>616.0</ele><time>2026-04-27T07:12:17.002Z</time></trkpt><trkpt lat="40.07882110467855" lon="9.146822342348297"><ele>615.0</ele><time>2026-04-27T07:12:18.002Z</time></trkpt><trkpt lat="40.07864632258136" lon="9.146806059570077"><ele>615.0</ele><time>2026-04-27T07:12:19.002Z</time></trkpt><trkpt lat="40.0784780143479" lon="9.146884723266398"><ele>615.0</ele><time>2026-04-27T07:12:20.002Z</time></trkpt><trkpt lat="40.07832116704773" lon="9.147008520063503"><ele>615.0</ele><time>2026-04-27T07:12:21.002Z</time></trkpt><trkpt lat="40.07817608978476" lon="9.147035764001107"><ele>618.0</ele><time>2026-04-27T07:12:22.003Z</time></trkpt><trkpt lat="40.078059881122655" lon="9.146969009008064"><ele>621.0</ele><time>2026-04-27T07:12:23.002Z</time></trkpt><trkpt lat="40.077991474745325" lon="9.146832488688544"><ele>624.0</ele><time>2026-04-27T07:12:24.002Z</time></trkpt><trkpt lat="40.07785911970172" lon="9.146661092823958"><ele>627.0</ele><time>2026-04-27T07:12:25.003Z</time></trkpt><trkpt lat="40.07771928946245" lon="9.146493812842873"><ele>617.6666666666666</ele><time>2026-04-27T07:12:26.002Z</time></trkpt><trkpt lat="40.077552550121105" lon="9.146347981034525"><ele>608.3333333333333</ele><time>2026-04-27T07:12:27.002Z</time></trkpt><trkpt lat="40.0773594896469" lon="9.146292719997307"><ele>599.0</ele><time>2026-04-27T07:12:28.002Z</time></trkpt><trkpt lat="40.0771505264466" lon="9.146295659368125"><ele>599.0</ele><time>2026-04-27T07:12:29.002Z</time></trkpt><trkpt lat="40.07693504426453" lon="9.146323690678743"><ele>599.0</ele><time>2026-04-27T07:12:30.002Z</time></trkpt><trkpt lat="40.07672015255017" lon="9.146337810215465"><ele>599.0</ele><time>2026-04-27T07:12:31.002Z</time></trkpt><trkpt lat="40.07650695147975" lon="9.146338301113538"><ele>597.0</ele><time>2026-04-27T07:12:32.002Z</time></trkpt><trkpt lat="40.076297381479684" lon="9.146342859525758"><ele>595.0</ele><time>2026-04-27T07:12:33.002Z</time></trkpt><trkpt lat="40.07609406627637" lon="9.146342478186746"><ele>593.0</ele><time>2026-04-27T07:12:34.002Z</time></trkpt><trkpt lat="40.07590685791979" lon="9.146341268398553"><ele>590.5</ele><time>2026-04-27T07:12:35.002Z</time></trkpt><trkpt lat="40.07574379715905" lon="9.146338963503322"><ele>588.0</ele><time>2026-04-27T07:12:36.002Z</time></trkpt><trkpt lat="40.075605985627114" lon="9.146376795384569"><ele>585.5</ele><time>2026-04-27T07:12:37.002Z</time></trkpt><trkpt lat="40.075495733056634" lon="9.146474440774469"><ele>583.0</ele><time>2026-04-27T07:12:38.002Z</time></trkpt><trkpt lat="40.07543765773151" lon="9.146654764902324"><ele>588.25</ele><time>2026-04-27T07:12:39.002Z</time></trkpt><trkpt lat="40.07539342609338" lon="9.146854607964725"><ele>593.5</ele><time>2026-04-27T07:12:40.002Z</time></trkpt><trkpt lat="40.07533206142438" lon="9.146980513029655"><ele>598.75</ele><time>2026-04-27T07:12:41.002Z</time></trkpt><trkpt lat="40.075216689216376" lon="9.14696568300715"><ele>604.0</ele><time>2026-04-27T07:12:42.002Z</time></trkpt><trkpt lat="40.075094883992996" lon="9.146928471277135"><ele>604.0</ele><time>2026-04-27T07:12:43.002Z</time></trkpt><trkpt lat="40.075014562283464" lon="9.14674065473097"><ele>604.0</ele><time>2026-04-27T07:12:44.002Z</time></trkpt><trkpt lat="40.07487701014909" lon="9.146613036469246"><ele>604.0</ele><time>2026-04-27T07:12:45.002Z</time></trkpt><trkpt lat="40.07474100486155" lon="9.146500232368899"><ele>594.3333333333334</ele><time>2026-04-27T07:12:46.002Z</time></trkpt><trkpt lat="40.07455381252408" lon="9.14647797761526"><ele>584.6666666666666</ele><time>2026-04-27T07:12:47.002Z</time></trkpt><trkpt lat="40.074348840099184" lon="9.146485786336706"><ele>575.0</ele><time>2026-04-27T07:12:48.002Z</time></trkpt><trkpt lat="40.07416585547573" lon="9.14650199125843"><ele>577.0</ele><time>2026-04-27T07:12:49.002Z</time></trkpt><trkpt lat="40.073993876570896" lon="9.146595179584663"><ele>579.0</ele><time>2026-04-27T07:12:50.002Z</time></trkpt><trkpt lat="40.07382408364661" lon="9.146696525172707"><ele>581.0</ele><time>2026-04-27T07:12:51.002Z</time></trkpt><trkpt lat="40.073656353418734" lon="9.146819933613488"><ele>581.0</ele><time>2026-04-27T07:12:52.002Z</time></trkpt><trkpt lat="40.07348290314768" lon="9.146920895286629"><ele>581.0</ele><time>2026-04-27T07:12:53.002Z</time></trkpt><trkpt lat="40.07330755120204" lon="9.147013895550872"><ele>581.0</ele><time>2026-04-27T07:12:54.002Z</time></trkpt><trkpt lat="40.07311792446449" lon="9.147038065773344"><ele>577.6666666666666</ele><time>2026-04-27T07:12:55.002Z</time></trkpt><trkpt lat="40.07292379747162" lon="9.14705657022804"><ele>574.3333333333334</ele><time>2026-04-27T07:12:56.002Z</time></trkpt><trkpt lat="40.07274373147169" lon="9.14708077145393"><ele>571.0</ele><time>2026-04-27T07:12:57.002Z</time></trkpt><trkpt lat="40.07256814093138" lon="9.147135592717317"><ele>567.3333333333334</ele><time>2026-04-27T07:12:58.002Z</time></trkpt><trkpt lat="40.07239362133344" lon="9.147200218905244"><ele>563.6666666666666</ele><time>2026-04-27T07:12:59.002Z</time></trkpt><trkpt lat="40.07222384097068" lon="9.147264135072364"><ele>560.0</ele><time>2026-04-27T07:13:00.002Z</time></trkpt><trkpt lat="40.07205488442235" lon="9.147324918506733"><ele>560.0</ele><time>2026-04-27T07:13:01.002Z</time></trkpt><trkpt lat="40.071888062287535" lon="9.14737189706631"><ele>560.0</ele><time>2026-04-27T07:13:02.002Z</time></trkpt><trkpt lat="40.07172800199814" lon="9.147397614044687"><ele>560.0</ele><time>2026-04-27T07:13:03.002Z</time></trkpt><trkpt lat="40.071573356935076" lon="9.147401207946514"><ele>563.0</ele><time>2026-04-27T07:13:04.002Z</time></trkpt><trkpt lat="40.07143268753949" lon="9.1473940754233"><ele>566.0</ele><time>2026-04-27T07:13:05.002Z</time></trkpt><trkpt lat="40.07126648640374" lon="9.147417484919572"><ele>569.0</ele><time>2026-04-27T07:13:06.002Z</time></trkpt><trkpt lat="40.07113743672549" lon="9.147477943638508"><ele>572.0</ele><time>2026-04-27T07:13:07.002Z</time></trkpt><trkpt lat="40.0710104720519" lon="9.147555952732"><ele>572.0</ele><time>2026-04-27T07:13:08.002Z</time></trkpt><trkpt lat="40.07087280481233" lon="9.147634847208433"><ele>572.0</ele><time>2026-04-27T07:13:09.002Z</time></trkpt><trkpt lat="40.07072305622552" lon="9.147714176500978"><ele>572.0</ele><time>2026-04-27T07:13:10.002Z</time></trkpt><trkpt lat="40.07059527679281" lon="9.147791755342594"><ele>570.75</ele><time>2026-04-27T07:13:11.002Z</time></trkpt><trkpt lat="40.07047536296507" lon="9.147875229416435"><ele>569.5</ele><time>2026-04-27T07:13:12.002Z</time></trkpt><trkpt lat="40.070355957980084" lon="9.147938420344381"><ele>568.25</ele><time>2026-04-27T07:13:13.002Z</time></trkpt><trkpt lat="40.07023360422519" lon="9.147912104211374"><ele>567.0</ele><time>2026-04-27T07:13:14.002Z</time></trkpt><trkpt lat="40.07014037330116" lon="9.147821066935972"><ele>567.0</ele><time>2026-04-27T07:13:15.002Z</time></trkpt><trkpt lat="40.070024467751765" lon="9.147762422479968"><ele>567.0</ele><time>2026-04-27T07:13:16.002Z</time></trkpt><trkpt lat="40.069913597735905" lon="9.147715587225607"><ele>567.0</ele><time>2026-04-27T07:13:17.002Z</time></trkpt><trkpt lat="40.06980430641748" lon="9.147674317154582"><ele>567.0</ele><time>2026-04-27T07:13:18.002Z</time></trkpt><trkpt lat="40.06970708773435" lon="9.147627747010414"><ele>566.6</ele><time>2026-04-27T07:13:19.002Z</time></trkpt><trkpt lat="40.069604480367765" lon="9.14758640682586"><ele>566.2</ele><time>2026-04-27T07:13:20.002Z</time></trkpt><trkpt lat="40.06950369177829" lon="9.14754741871178"><ele>565.8</ele><time>2026-04-27T07:13:21.002Z</time></trkpt><trkpt lat="40.06940652719923" lon="9.147514207884083"><ele>565.4</ele><time>2026-04-27T07:13:22.002Z</time></trkpt><trkpt lat="40.06931166643773" lon="9.147488569201302"><ele>565.0</ele><time>2026-04-27T07:13:23.002Z</time></trkpt><trkpt lat="40.06921288025953" lon="9.14748332823521"><ele>565.0</ele><time>2026-04-27T07:13:24.002Z</time></trkpt><trkpt lat="40.06912147540647" lon="9.147544278579327"><ele>565.0</ele><time>2026-04-27T07:13:25.002Z</time></trkpt><trkpt lat="40.06904231849891" lon="9.147599395258718"><ele>565.0</ele><time>2026-04-27T07:13:26.002Z</time></trkpt><trkpt lat="40.06897159226345" lon="9.147659378154433"><ele>565.0</ele><time>2026-04-27T07:13:27.002Z</time></trkpt><trkpt lat="40.068891874279785" lon="9.147707319430975"><ele>565.0</ele><time>2026-04-27T07:13:28.002Z</time></trkpt><trkpt lat="40.06881119375586" lon="9.147753592941102"><ele>564.1666666666667</ele><time>2026-04-27T07:13:29.002Z</time></trkpt><trkpt lat="40.068736225604304" lon="9.14776979436943"><ele>563.3333333333334</ele><time>2026-04-27T07:13:30.001Z</time></trkpt><trkpt lat="40.06866785704353" lon="9.147763060735262"><ele>562.5</ele><time>2026-04-27T07:13:31.001Z</time></trkpt><trkpt lat="40.06860370789009" lon="9.147785309101513"><ele>561.6666666666666</ele><time>2026-04-27T07:13:32.001Z</time></trkpt><trkpt lat="40.06854097920456" lon="9.147708814692527"><ele>560.8333333333333</ele><time>2026-04-27T07:13:33.001Z</time></trkpt><trkpt lat="40.06847124453746" lon="9.147654881444021"><ele>560.0</ele><time>2026-04-27T07:13:34.001Z</time></trkpt><trkpt lat="40.068390572704004" lon="9.147617347753135"><ele>560.0</ele><time>2026-04-27T07:13:35.001Z</time></trkpt><trkpt lat="40.06830957563376" lon="9.14760020526156"><ele>560.0</ele><time>2026-04-27T07:13:36.001Z</time></trkpt><trkpt lat="40.06821890784522" lon="9.147636731043312"><ele>560.0</ele><time>2026-04-27T07:13:37.001Z</time></trkpt><trkpt lat="40.068139479948826" lon="9.147697088218642"><ele>560.0</ele><time>2026-04-27T07:13:38.001Z</time></trkpt><trkpt lat="40.06807617209645" lon="9.147781834629763"><ele>560.0</ele><time>2026-04-27T07:13:39.001Z</time></trkpt><trkpt lat="40.06804377255631" lon="9.147886502437194"><ele>560.0</ele><time>2026-04-27T07:13:40.001Z</time></trkpt><trkpt lat="40.06800882479016" lon="9.148003638849927"><ele>560.1666666666666</ele><time>2026-04-27T07:13:41.001Z</time></trkpt><trkpt lat="40.06795864684647" lon="9.148099802051759"><ele>560.3333333333333</ele><time>2026-04-27T07:13:42.001Z</time></trkpt><trkpt lat="40.067905367284354" lon="9.148188557121799"><ele>560.5</ele><time>2026-04-27T07:13:43.001Z</time></trkpt><trkpt lat="40.067843334247975" lon="9.148268702662959"><ele>560.6666666666666</ele><time>2026-04-27T07:13:44.001Z</time></trkpt><trkpt lat="40.067789782283114" lon="9.14835096525765"><ele>560.8333333333334</ele><time>2026-04-27T07:13:45.001Z</time></trkpt><trkpt lat="40.06772046592363" lon="9.148430153102485"><ele>561.0</ele><time>2026-04-27T07:13:46.001Z</time></trkpt><trkpt lat="40.06765825330335" lon="9.148509497938921"><ele>561.0</ele><time>2026-04-27T07:13:47.001Z</time></trkpt><trkpt lat="40.067600980817225" lon="9.148590556593895"><ele>561.0</ele><time>2026-04-27T07:13:48.001Z</time></trkpt><trkpt lat="40.067543715839044" lon="9.14867649384301"><ele>561.0</ele><time>2026-04-27T07:13:49.001Z</time></trkpt><trkpt lat="40.067477045594636" lon="9.148753250849344"><ele>561.0</ele><time>2026-04-27T07:13:50.001Z</time></trkpt><trkpt lat="40.06740814389646" lon="9.148821014875098"><ele>561.0</ele><time>2026-04-27T07:13:51.001Z</time></trkpt><trkpt lat="40.06733742530164" lon="9.148889910366295"><ele>561.0</ele><time>2026-04-27T07:13:52.001Z</time></trkpt><trkpt lat="40.06727342439618" lon="9.14895389500278"><ele>561.3333333333334</ele><time>2026-04-27T07:13:53.001Z</time></trkpt><trkpt lat="40.06722405347957" lon="9.149052858115118"><ele>561.6666666666666</ele><time>2026-04-27T07:13:54.001Z</time></trkpt><trkpt lat="40.06720169308203" lon="9.14915932655272"><ele>562.0</ele><time>2026-04-27T07:13:55.001Z</time></trkpt><trkpt lat="40.067216868627995" lon="9.149284041877856"><ele>562.3333333333333</ele><time>2026-04-27T07:13:56.001Z</time></trkpt><trkpt lat="40.067241309242405" lon="9.149398666208329"><ele>562.6666666666666</ele><time>2026-04-27T07:13:57.001Z</time></trkpt><trkpt lat="40.06723457236994" lon="9.149506152691181"><ele>563.0</ele><time>2026-04-27T07:13:58.001Z</time></trkpt><trkpt lat="40.067185500610606" lon="9.14958477907521"><ele>563.0</ele><time>2026-04-27T07:13:59.001Z</time></trkpt><trkpt lat="40.06710024029778" lon="9.149615786624896"><ele>563.0</ele><time>2026-04-27T07:14:00.001Z</time></trkpt><trkpt lat="40.06700858153396" lon="9.149560095337177"><ele>563.0</ele><time>2026-04-27T07:14:01.001Z</time></trkpt><trkpt lat="40.066917387241425" lon="9.149526234527103"><ele>563.0</ele><time>2026-04-27T07:14:02.001Z</time></trkpt><trkpt lat="40.06682484485637" lon="9.149479523056185"><ele>563.0</ele><time>2026-04-27T07:14:03.001Z</time></trkpt><trkpt lat="40.06672700162013" lon="9.149457369905772"><ele>563.0</ele><time>2026-04-27T07:14:04.001Z</time></trkpt><trkpt lat="40.066625047624875" lon="9.149444469698695"><ele>563.0</ele><time>2026-04-27T07:14:05.001Z</time></trkpt><trkpt lat="40.06652649653782" lon="9.149454273448047"><ele>563.0</ele><time>2026-04-27T07:14:06.001Z</time></trkpt><trkpt lat="40.066435981195475" lon="9.149516594037419"><ele>563.0</ele><time>2026-04-27T07:14:07.001Z</time></trkpt><trkpt lat="40.06635181233055" lon="9.149594462163842"><ele>563.0</ele><time>2026-04-27T07:14:08.001Z</time></trkpt><trkpt lat="40.06626907310459" lon="9.149671429865426"><ele>564.0</ele><time>2026-04-27T07:14:09.001Z</time></trkpt><trkpt lat="40.066180811632364" lon="9.149744640255866"><ele>565.0</ele><time>2026-04-27T07:14:10.001Z</time></trkpt><trkpt lat="40.066085370610615" lon="9.14981404537"><ele>566.0</ele><time>2026-04-27T07:14:11.001Z</time></trkpt><trkpt lat="40.06600373328395" lon="9.149903621402927"><ele>567.0</ele><time>2026-04-27T07:14:12.001Z</time></trkpt><trkpt lat="40.065936209382144" lon="9.150021450388644"><ele>568.0</ele><time>2026-04-27T07:14:13.001Z</time></trkpt><trkpt lat="40.06588727122166" lon="9.150155333856253"><ele>568.0</ele><time>2026-04-27T07:14:14.001Z</time></trkpt><trkpt lat="40.065820244511535" lon="9.150271097788343"><ele>568.0</ele><time>2026-04-27T07:14:15.001Z</time></trkpt><trkpt lat="40.06573079384364" lon="9.150352936228144"><ele>568.0</ele><time>2026-04-27T07:14:16.001Z</time></trkpt><trkpt lat="40.065614353564285" lon="9.15039621426868"><ele>568.0</ele><time>2026-04-27T07:14:17.001Z</time></trkpt><trkpt lat="40.06550203638511" lon="9.150465047821568"><ele>567.75</ele><time>2026-04-27T07:14:18.001Z</time></trkpt><trkpt lat="40.06541289141655" lon="9.150576349724295"><ele>567.5</ele><time>2026-04-27T07:14:19.002Z</time></trkpt><trkpt lat="40.06533761502464" lon="9.150707984776092"><ele>567.25</ele><time>2026-04-27T07:14:20.003Z</time></trkpt><trkpt lat="40.06528130905406" lon="9.150855046284475"><ele>567.0</ele><time>2026-04-27T07:14:21.003Z</time></trkpt><trkpt lat="40.06522414421846" lon="9.151005760985438"><ele>567.0</ele><time>2026-04-27T07:14:22.003Z</time></trkpt><trkpt lat="40.06515065521745" lon="9.151141123291518"><ele>567.0</ele><time>2026-04-27T07:14:23.002Z</time></trkpt><trkpt lat="40.065092144242385" lon="9.151274381850026"><ele>567.0</ele><time>2026-04-27T07:14:24.002Z</time></trkpt><trkpt lat="40.06502503365769" lon="9.151386644639487"><ele>567.0</ele><time>2026-04-27T07:14:25.003Z</time></trkpt><trkpt lat="40.06493598045747" lon="9.151447769439924"><ele>570.0</ele><time>2026-04-27T07:14:26.002Z</time></trkpt><trkpt lat="40.06483049456249" lon="9.151431973194244"><ele>573.0</ele><time>2026-04-27T07:14:27.002Z</time></trkpt><trkpt lat="40.064762825951796" lon="9.1512994933943"><ele>576.0</ele><time>2026-04-27T07:14:28.002Z</time></trkpt><trkpt lat="40.064677066408926" lon="9.151189014926961"><ele>579.0</ele><time>2026-04-27T07:14:29.002Z</time></trkpt><trkpt lat="40.06459366056369" lon="9.151078664832601"><ele>579.0</ele><time>2026-04-27T07:14:30.002Z</time></trkpt><trkpt lat="40.064575741617176" lon="9.150919574775452"><ele>579.0</ele><time>2026-04-27T07:14:31.002Z</time></trkpt><trkpt lat="40.06453805320307" lon="9.150760419988393"><ele>579.0</ele><time>2026-04-27T07:14:32.002Z</time></trkpt><trkpt lat="40.064486171810685" lon="9.15060664644528"><ele>579.0</ele><time>2026-04-27T07:14:33.002Z</time></trkpt><trkpt lat="40.06445207597233" lon="9.150446706146528"><ele>576.5</ele><time>2026-04-27T07:14:34.002Z</time></trkpt><trkpt lat="40.06440124473608" lon="9.150294050346517"><ele>574.0</ele><time>2026-04-27T07:14:35.002Z</time></trkpt><trkpt lat="40.06434146961596" lon="9.150163330246082"><ele>571.5</ele><time>2026-04-27T07:14:36.002Z</time></trkpt><trkpt lat="40.06426092778976" lon="9.15006689925179"><ele>569.0</ele><time>2026-04-27T07:14:37.002Z</time></trkpt><trkpt lat="40.06415458120928" lon="9.150027178959247"><ele>570.5</ele><time>2026-04-27T07:14:38.002Z</time></trkpt><trkpt lat="40.06403998963478" lon="9.150016394057525"><ele>572.0</ele><time>2026-04-27T07:14:39.002Z</time></trkpt><trkpt lat="40.063921956644464" lon="9.14999988715859"><ele>573.5</ele><time>2026-04-27T07:14:40.002Z</time></trkpt><trkpt lat="40.0638005204442" lon="9.149957956037325"><ele>575.0</ele><time>2026-04-27T07:14:41.002Z</time></trkpt><trkpt lat="40.06368259281975" lon="9.149903364784274"><ele>569.5</ele><time>2026-04-27T07:14:42.002Z</time></trkpt><trkpt lat="40.06356194013874" lon="9.149854419232758"><ele>564.0</ele><time>2026-04-27T07:14:43.002Z</time></trkpt><trkpt lat="40.06343391569365" lon="9.149798530842048"><ele>558.5</ele><time>2026-04-27T07:14:44.002Z</time></trkpt><trkpt lat="40.06329759761474" lon="9.149772729362558"><ele>553.0</ele><time>2026-04-27T07:14:45.002Z</time></trkpt><trkpt lat="40.06315436764818" lon="9.14976773471482"><ele>551.6666666666667</ele><time>2026-04-27T07:14:46.002Z</time></trkpt><trkpt lat="40.06300369714932" lon="9.149760871775289"><ele>550.3333333333334</ele><time>2026-04-27T07:14:47.002Z</time></trkpt><trkpt lat="40.062850368163176" lon="9.149742910756324"><ele>549.0</ele><time>2026-04-27T07:14:48.002Z</time></trkpt><trkpt lat="40.06269596547013" lon="9.149724040323719"><ele>549.0</ele><time>2026-04-27T07:14:49.002Z</time></trkpt><trkpt lat="40.06253925247661" lon="9.149707021278978"><ele>549.0</ele><time>2026-04-27T07:14:50.002Z</time></trkpt><trkpt lat="40.06238244329315" lon="9.149704052004198"><ele>549.0</ele><time>2026-04-27T07:14:51.002Z</time></trkpt><trkpt lat="40.06221960686974" lon="9.14974665471742"><ele>545.3333333333334</ele><time>2026-04-27T07:14:52.002Z</time></trkpt><trkpt lat="40.062065465600405" lon="9.149861559167837"><ele>541.6666666666667</ele><time>2026-04-27T07:14:53.002Z</time></trkpt><trkpt lat="40.061931212475486" lon="9.150022530143643"><ele>538.0</ele><time>2026-04-27T07:14:54.002Z</time></trkpt><trkpt lat="40.06178908040694" lon="9.150192484128862"><ele>539.3333333333334</ele><time>2026-04-27T07:14:55.002Z</time></trkpt><trkpt lat="40.06162759632546" lon="9.150330017741135"><ele>540.6666666666666</ele><time>2026-04-27T07:14:56.002Z</time></trkpt><trkpt lat="40.061450786297115" lon="9.150438439893525"><ele>542.0</ele><time>2026-04-27T07:14:57.002Z</time></trkpt><trkpt lat="40.061267862247135" lon="9.150549381515395"><ele>542.0</ele><time>2026-04-27T07:14:58.002Z</time></trkpt><trkpt lat="40.06112237534812" lon="9.150704163786845"><ele>542.0</ele><time>2026-04-27T07:14:59.002Z</time></trkpt><trkpt lat="40.06098725525373" lon="9.150849061883989"><ele>542.0</ele><time>2026-04-27T07:15:00.002Z</time></trkpt><trkpt lat="40.06080967354429" lon="9.150884859137346"><ele>544.0</ele><time>2026-04-27T07:15:01.002Z</time></trkpt><trkpt lat="40.060628150073526" lon="9.15097230375866"><ele>546.0</ele><time>2026-04-27T07:15:02.002Z</time></trkpt><trkpt lat="40.0604280488875" lon="9.15104518883784"><ele>548.0</ele><time>2026-04-27T07:15:03.002Z</time></trkpt><trkpt lat="40.060233582968436" lon="9.15114063936778"><ele>548.0</ele><time>2026-04-27T07:15:04.002Z</time></trkpt><trkpt lat="40.060047543090676" lon="9.151240309136725"><ele>548.0</ele><time>2026-04-27T07:15:05.002Z</time></trkpt><trkpt lat="40.059877132953304" lon="9.151372597684155"><ele>548.0</ele><time>2026-04-27T07:15:06.002Z</time></trkpt><trkpt lat="40.05973467518635" lon="9.15154353691373"><ele>551.0</ele><time>2026-04-27T07:15:07.002Z</time></trkpt><trkpt lat="40.05960224010354" lon="9.151727128176312"><ele>554.0</ele><time>2026-04-27T07:15:08.002Z</time></trkpt><trkpt lat="40.05944174207426" lon="9.151836699115286"><ele>557.0</ele><time>2026-04-27T07:15:09.002Z</time></trkpt><trkpt lat="40.05926996091166" lon="9.151890421474917"><ele>553.0</ele><time>2026-04-27T07:15:10.002Z</time></trkpt><trkpt lat="40.05909200595954" lon="9.15189866071703"><ele>549.0</ele><time>2026-04-27T07:15:11.002Z</time></trkpt><trkpt lat="40.058930447109766" lon="9.152092229159717"><ele>545.0</ele><time>2026-04-27T07:15:12.002Z</time></trkpt><trkpt lat="40.05887727764736" lon="9.152372987367638"><ele>547.6666666666666</ele><time>2026-04-27T07:15:13.002Z</time></trkpt><trkpt lat="40.058765433881966" lon="9.152595044419169"><ele>550.3333333333334</ele><time>2026-04-27T07:15:14.002Z</time></trkpt><trkpt lat="40.058630652042936" lon="9.152793680983725"><ele>553.0</ele><time>2026-04-27T07:15:15.001Z</time></trkpt><trkpt lat="40.05848958402346" lon="9.152983202840963"><ele>553.0</ele><time>2026-04-27T07:15:16.001Z</time></trkpt><trkpt lat="40.0583446353193" lon="9.153171044496304"><ele>553.0</ele><time>2026-04-27T07:15:17.001Z</time></trkpt><trkpt lat="40.0582070561044" lon="9.153356912166622"><ele>553.0</ele><time>2026-04-27T07:15:18.001Z</time></trkpt><trkpt lat="40.058077879469806" lon="9.153561385959273"><ele>555.0</ele><time>2026-04-27T07:15:19.001Z</time></trkpt><trkpt lat="40.05796089154954" lon="9.153778287793415"><ele>557.0</ele><time>2026-04-27T07:15:20.001Z</time></trkpt><trkpt lat="40.05786309563694" lon="9.154010086216509"><ele>559.0</ele><time>2026-04-27T07:15:21.001Z</time></trkpt><trkpt lat="40.05776907384048" lon="9.154242634370805"><ele>561.3333333333334</ele><time>2026-04-27T07:15:22.001Z</time></trkpt><trkpt lat="40.057650802567096" lon="9.154448917518433"><ele>563.6666666666666</ele><time>2026-04-27T07:15:23.001Z</time></trkpt><trkpt lat="40.05755152000005" lon="9.154651861319945"><ele>566.0</ele><time>2026-04-27T07:15:24.001Z</time></trkpt><trkpt lat="40.057450253534505" lon="9.154813567265801"><ele>565.3333333333333</ele><time>2026-04-27T07:15:25.001Z</time></trkpt><trkpt lat="40.057376203543306" lon="9.154978964537197"><ele>564.6666666666666</ele><time>2026-04-27T07:15:26.001Z</time></trkpt><trkpt lat="40.057360660344806" lon="9.15519711627017"><ele>564.0</ele><time>2026-04-27T07:15:27.001Z</time></trkpt><trkpt lat="40.0573990998124" lon="9.155427938165559"><ele>565.0</ele><time>2026-04-27T07:15:28.001Z</time></trkpt><trkpt lat="40.05746557149364" lon="9.155653070062066"><ele>566.0</ele><time>2026-04-27T07:15:29.001Z</time></trkpt><trkpt lat="40.05745309233753" lon="9.155811604392987"><ele>567.0</ele><time>2026-04-27T07:15:30.001Z</time></trkpt><trkpt lat="40.057391346348375" lon="9.155914408482666"><ele>568.0</ele><time>2026-04-27T07:15:31.001Z</time></trkpt><trkpt lat="40.05726985445467" lon="9.156009764028681"><ele>568.0</ele><time>2026-04-27T07:15:32.001Z</time></trkpt><trkpt lat="40.057199344397084" lon="9.15618604690367"><ele>568.0</ele><time>2026-04-27T07:15:33.001Z</time></trkpt><trkpt lat="40.05716723125964" lon="9.15641499421013"><ele>568.0</ele><time>2026-04-27T07:15:34.001Z</time></trkpt><trkpt lat="40.05718477343641" lon="9.156673111228294"><ele>570.3333333333334</ele><time>2026-04-27T07:15:35.001Z</time></trkpt><trkpt lat="40.05713810555144" lon="9.156915543462954"><ele>572.6666666666666</ele><time>2026-04-27T07:15:36.001Z</time></trkpt><trkpt lat="40.05704608560815" lon="9.157142880029541"><ele>575.0</ele><time>2026-04-27T07:15:37.001Z</time></trkpt><trkpt lat="40.05694967001395" lon="9.157386322529034"><ele>577.3333333333333</ele><time>2026-04-27T07:15:38.001Z</time></trkpt><trkpt lat="40.05685199970717" lon="9.157627817181494"><ele>579.6666666666666</ele><time>2026-04-27T07:15:39.001Z</time></trkpt><trkpt lat="40.05674505366946" lon="9.157847514158115"><ele>582.0</ele><time>2026-04-27T07:15:40.001Z</time></trkpt><trkpt lat="40.056627571228574" lon="9.158044374449325"><ele>589.3333333333334</ele><time>2026-04-27T07:15:41.001Z</time></trkpt><trkpt lat="40.0565108642991" lon="9.158227669549285"><ele>596.6666666666667</ele><time>2026-04-27T07:15:42.001Z</time></trkpt><trkpt lat="40.0564043897308" lon="9.158383505803693"><ele>604.0</ele><time>2026-04-27T07:15:43.001Z</time></trkpt><trkpt lat="40.056292955306134" lon="9.158480879192304"><ele>604.0</ele><time>2026-04-27T07:15:44.001Z</time></trkpt><trkpt lat="40.056165757642795" lon="9.15854667961387"><ele>604.0</ele><time>2026-04-27T07:15:45.001Z</time></trkpt><trkpt lat="40.05605249539909" lon="9.158603961713856"><ele>604.0</ele><time>2026-04-27T07:15:46.001Z</time></trkpt><trkpt lat="40.05596435526279" lon="9.158633100672695"><ele>604.0</ele><time>2026-04-27T07:15:47.001Z</time></trkpt><trkpt lat="40.05590270739754" lon="9.158545519740336"><ele>604.0</ele><time>2026-04-27T07:15:48.001Z</time></trkpt><trkpt lat="40.05586462905823" lon="9.158388457670291"><ele>604.0</ele><time>2026-04-27T07:15:49.001Z</time></trkpt><trkpt lat="40.05584209148809" lon="9.158202021868192"><ele>604.0</ele><time>2026-04-27T07:15:50.001Z</time></trkpt><trkpt lat="40.05582103198351" lon="9.158005710991992"><ele>604.0</ele><time>2026-04-27T07:15:51.001Z</time></trkpt><trkpt lat="40.055843626655374" lon="9.157791156187153"><ele>600.6666666666667</ele><time>2026-04-27T07:15:52.001Z</time></trkpt><trkpt lat="40.05585171470088" lon="9.157575430073342"><ele>597.3333333333334</ele><time>2026-04-27T07:15:53.001Z</time></trkpt><trkpt lat="40.0558261322524" lon="9.157348448165301"><ele>594.0</ele><time>2026-04-27T07:15:54.001Z</time></trkpt><trkpt lat="40.05578684828999" lon="9.15712590119388"><ele>596.0</ele><time>2026-04-27T07:15:55.001Z</time></trkpt><trkpt lat="40.05576817968545" lon="9.156891324634156"><ele>598.0</ele><time>2026-04-27T07:15:56.001Z</time></trkpt><trkpt lat="40.055710614029586" lon="9.156669486364581"><ele>600.0</ele><time>2026-04-27T07:15:57.001Z</time></trkpt><trkpt lat="40.05568294315204" lon="9.156456989952254"><ele>600.0</ele><time>2026-04-27T07:15:58.001Z</time></trkpt><trkpt lat="40.0555780782685" lon="9.15630001272576"><ele>600.0</ele><time>2026-04-27T07:15:59.001Z</time></trkpt><trkpt lat="40.05549460215784" lon="9.156162783244321"><ele>600.0</ele><time>2026-04-27T07:16:00.001Z</time></trkpt><trkpt lat="40.055377320446574" lon="9.156084076770027"><ele>600.0</ele><time>2026-04-27T07:16:01.001Z</time></trkpt><trkpt lat="40.0552270809487" lon="9.156106037247396"><ele>600.0</ele><time>2026-04-27T07:16:02.001Z</time></trkpt><trkpt lat="40.055054898111834" lon="9.156144138363842"><ele>600.0</ele><time>2026-04-27T07:16:03.001Z</time></trkpt><trkpt lat="40.05493932801768" lon="9.15601703704686"><ele>600.0</ele><time>2026-04-27T07:16:04.001Z</time></trkpt><trkpt lat="40.05479921227729" lon="9.155871941618686"><ele>607.6666666666666</ele><time>2026-04-27T07:16:05.001Z</time></trkpt><trkpt lat="40.054651197816234" lon="9.15576173002569"><ele>615.3333333333333</ele><time>2026-04-27T07:16:06.001Z</time></trkpt><trkpt lat="40.05448523196623" lon="9.155692494282947"><ele>623.0</ele><time>2026-04-27T07:16:07.001Z</time></trkpt><trkpt lat="40.054319097803806" lon="9.155637980763553"><ele>623.25</ele><time>2026-04-27T07:16:08.001Z</time></trkpt><trkpt lat="40.05416369644443" lon="9.155576134506493"><ele>623.5</ele><time>2026-04-27T07:16:09.001Z</time></trkpt><trkpt lat="40.05403249163639" lon="9.155504909500035"><ele>623.75</ele><time>2026-04-27T07:16:10.001Z</time></trkpt><trkpt lat="40.05395229443304" lon="9.155431904016723"><ele>624.0</ele><time>2026-04-27T07:16:11.001Z</time></trkpt><trkpt lat="40.053945449347324" lon="9.155330938418247"><ele>624.0</ele><time>2026-04-27T07:16:12.001Z</time></trkpt><trkpt lat="40.054007680150036" lon="9.155266994850956"><ele>624.0</ele><time>2026-04-27T07:16:13.001Z</time></trkpt><trkpt lat="40.05408675678268" lon="9.155217767980544"><ele>624.0</ele><time>2026-04-27T07:16:14.001Z</time></trkpt><trkpt lat="40.05420522503748" lon="9.155148216683497"><ele>624.0</ele><time>2026-04-27T07:16:15.001Z</time></trkpt><trkpt lat="40.05433903172486" lon="9.155053463216746"><ele>624.0</ele><time>2026-04-27T07:16:16.001Z</time></trkpt><trkpt lat="40.05449012114824" lon="9.154940172209402"><ele>632.6666666666666</ele><time>2026-04-27T07:16:17.001Z</time></trkpt><trkpt lat="40.054628084140724" lon="9.154768245780469"><ele>641.3333333333333</ele><time>2026-04-27T07:16:18.001Z</time></trkpt><trkpt lat="40.054736702136566" lon="9.154573562414578"><ele>650.0</ele><time>2026-04-27T07:16:19.001Z</time></trkpt><trkpt lat="40.054850943632815" lon="9.154367253652318"><ele>652.6666666666666</ele><time>2026-04-27T07:16:20.001Z</time></trkpt><trkpt lat="40.055017741760885" lon="9.154148624239113"><ele>655.3333333333334</ele><time>2026-04-27T07:16:21.001Z</time></trkpt><trkpt lat="40.05517327327252" lon="9.15402627848338"><ele>658.0</ele><time>2026-04-27T07:16:22.001Z</time></trkpt><trkpt lat="40.05533606404004" lon="9.153905036463197"><ele>658.0</ele><time>2026-04-27T07:16:23.001Z</time></trkpt><trkpt lat="40.05548591134454" lon="9.153754859216281"><ele>658.0</ele><time>2026-04-27T07:16:24.003Z</time></trkpt><trkpt lat="40.055626522495366" lon="9.153605616342361"><ele>658.0</ele><time>2026-04-27T07:16:25.002Z</time></trkpt><trkpt lat="40.05574533902935" lon="9.153415894848187"><ele>651.0</ele><time>2026-04-27T07:16:26.002Z</time></trkpt><trkpt lat="40.05582764166966" lon="9.153192474317567"><ele>644.0</ele><time>2026-04-27T07:16:27.002Z</time></trkpt><trkpt lat="40.05589518992845" lon="9.15296308154562"><ele>637.0</ele><time>2026-04-27T07:16:28.003Z</time></trkpt><trkpt lat="40.055960466098334" lon="9.152729918476098"><ele>637.0</ele><time>2026-04-27T07:16:29.003Z</time></trkpt><trkpt lat="40.05603768605902" lon="9.15250341024102"><ele>637.0</ele><time>2026-04-27T07:16:30.002Z</time></trkpt><trkpt lat="40.05608533704622" lon="9.152273122632902"><ele>637.0</ele><time>2026-04-27T07:16:31.002Z</time></trkpt><trkpt lat="40.05610288149206" lon="9.152033211666554"><ele>642.0</ele><time>2026-04-27T07:16:32.002Z</time></trkpt><trkpt lat="40.05610130886274" lon="9.151799688989263"><ele>647.0</ele><time>2026-04-27T07:16:33.003Z</time></trkpt><trkpt lat="40.05615037419418" lon="9.151603059661861"><ele>652.0</ele><time>2026-04-27T07:16:34.002Z</time></trkpt><trkpt lat="40.056241974333325" lon="9.151435470906428"><ele>657.0</ele><time>2026-04-27T07:16:35.002Z</time></trkpt><trkpt lat="40.05634563434261" lon="9.151246585213686"><ele>662.0</ele><time>2026-04-27T07:16:36.002Z</time></trkpt><trkpt lat="40.05639618410841" lon="9.151019343967926"><ele>667.0</ele><time>2026-04-27T07:16:37.002Z</time></trkpt><trkpt lat="40.05644881490386" lon="9.150778498422259"><ele>672.0</ele><time>2026-04-27T07:16:38.002Z</time></trkpt><trkpt lat="40.056503559974956" lon="9.150526231507927"><ele>677.0</ele><time>2026-04-27T07:16:39.002Z</time></trkpt><trkpt lat="40.05657505571473" lon="9.150270109610334"><ele>682.0</ele><time>2026-04-27T07:16:40.002Z</time></trkpt><trkpt lat="40.05664852004607" lon="9.150014952241651"><ele>672.6666666666667</ele><time>2026-04-27T07:16:41.002Z</time></trkpt><trkpt lat="40.056734005691546" lon="9.14976675600185"><ele>663.3333333333334</ele><time>2026-04-27T07:16:42.002Z</time></trkpt><trkpt lat="40.05683128687524" lon="9.149522390444211"><ele>654.0</ele><time>2026-04-27T07:16:43.002Z</time></trkpt><trkpt lat="40.05692299798735" lon="9.149290498544609"><ele>654.0</ele><time>2026-04-27T07:16:44.002Z</time></trkpt><trkpt lat="40.05704829976757" lon="9.14907603381284"><ele>654.0</ele><time>2026-04-27T07:16:45.002Z</time></trkpt><trkpt lat="40.057153079863056" lon="9.148850211680548"><ele>654.0</ele><time>2026-04-27T07:16:46.002Z</time></trkpt><trkpt lat="40.05722281925138" lon="9.14857001037517"><ele>661.5</ele><time>2026-04-27T07:16:47.002Z</time></trkpt><trkpt lat="40.057285769932534" lon="9.14825664580274"><ele>669.0</ele><time>2026-04-27T07:16:48.002Z</time></trkpt><trkpt lat="40.057384856293055" lon="9.147946694096266"><ele>661.5</ele><time>2026-04-27T07:16:49.002Z</time></trkpt><trkpt lat="40.05754404293926" lon="9.14765482972149"><ele>654.0</ele><time>2026-04-27T07:16:50.002Z</time></trkpt><trkpt lat="40.05768532199668" lon="9.147363241667446"><ele>653.6666666666666</ele><time>2026-04-27T07:16:51.002Z</time></trkpt><trkpt lat="40.05778536211233" lon="9.147141060690132"><ele>653.3333333333333</ele><time>2026-04-27T07:16:52.002Z</time></trkpt><trkpt lat="40.0578377009448" lon="9.146966711985991"><ele>653.0</ele><time>2026-04-27T07:16:53.002Z</time></trkpt><trkpt lat="40.057850263932515" lon="9.146818646836367"><ele>653.0</ele><time>2026-04-27T07:16:54.002Z</time></trkpt><trkpt lat="40.05779539594846" lon="9.146696993127739"><ele>653.0</ele><time>2026-04-27T07:16:55.002Z</time></trkpt><trkpt lat="40.05766443511137" lon="9.146571892013215"><ele>653.0</ele><time>2026-04-27T07:16:56.002Z</time></trkpt><trkpt lat="40.05745977497427" lon="9.146452877392866"><ele>661.5</ele><time>2026-04-27T07:16:57.002Z</time></trkpt><trkpt lat="40.05725367922724" lon="9.146242429727153"><ele>670.0</ele><time>2026-04-27T07:16:58.002Z</time></trkpt><trkpt lat="40.057027990099414" lon="9.145973661343447"><ele>666.0</ele><time>2026-04-27T07:16:59.002Z</time></trkpt><trkpt lat="40.05679635936484" lon="9.145682814375254"><ele>662.0</ele><time>2026-04-27T07:17:00.002Z</time></trkpt><trkpt lat="40.056628191847" lon="9.145415938909109"><ele>674.0</ele><time>2026-04-27T07:17:01.002Z</time></trkpt><trkpt lat="40.05653277142311" lon="9.145217146833488"><ele>686.0</ele><time>2026-04-27T07:17:02.002Z</time></trkpt><trkpt lat="40.05648983737793" lon="9.145041330395975"><ele>698.0</ele><time>2026-04-27T07:17:03.002Z</time></trkpt><trkpt lat="40.05650017072865" lon="9.144846000886325"><ele>698.0</ele><time>2026-04-27T07:17:04.002Z</time></trkpt><trkpt lat="40.05656046025186" lon="9.144605614196482"><ele>698.0</ele><time>2026-04-27T07:17:05.002Z</time></trkpt><trkpt lat="40.05669868371275" lon="9.144339283268279"><ele>698.0</ele><time>2026-04-27T07:17:06.002Z</time></trkpt><trkpt lat="40.05686413573481" lon="9.144031025636426"><ele>692.0</ele><time>2026-04-27T07:17:07.002Z</time></trkpt><trkpt lat="40.057026447333065" lon="9.14383922544012"><ele>686.0</ele><time>2026-04-27T07:17:08.002Z</time></trkpt><trkpt lat="40.057101117342455" lon="9.143701287316308"><ele>680.0</ele><time>2026-04-27T07:17:09.002Z</time></trkpt><trkpt lat="40.05716516891082" lon="9.143568821895434"><ele>680.0</ele><time>2026-04-27T07:17:10.002Z</time></trkpt><trkpt lat="40.057164621246045" lon="9.143331067314152"><ele>680.0</ele><time>2026-04-27T07:17:11.002Z</time></trkpt><trkpt lat="40.05709628458505" lon="9.143024674078136"><ele>680.0</ele><time>2026-04-27T07:17:12.002Z</time></trkpt><trkpt lat="40.057003357937326" lon="9.14276733251864"><ele>675.5</ele><time>2026-04-27T07:17:13.002Z</time></trkpt><trkpt lat="40.056908356703396" lon="9.142625989950968"><ele>671.0</ele><time>2026-04-27T07:17:14.002Z</time></trkpt><trkpt lat="40.05679463531215" lon="9.14257743983857"><ele>666.5</ele><time>2026-04-27T07:17:15.002Z</time></trkpt><trkpt lat="40.056665812478116" lon="9.14264264186392"><ele>662.0</ele><time>2026-04-27T07:17:16.002Z</time></trkpt><trkpt lat="40.056518541950204" lon="9.142802455021044"><ele>668.5</ele><time>2026-04-27T07:17:17.002Z</time></trkpt><trkpt lat="40.05634888638655" lon="9.143030397465353"><ele>675.0</ele><time>2026-04-27T07:17:18.002Z</time></trkpt><trkpt lat="40.05613403737634" lon="9.143280913576335"><ele>675.0</ele><time>2026-04-27T07:17:19.002Z</time></trkpt><trkpt lat="40.05591030468477" lon="9.1434506722339"><ele>675.0</ele><time>2026-04-27T07:17:20.002Z</time></trkpt><trkpt lat="40.05567520160028" lon="9.143543435916643"><ele>663.0</ele><time>2026-04-27T07:17:21.002Z</time></trkpt><trkpt lat="40.055482581820144" lon="9.143705605025303"><ele>651.0</ele><time>2026-04-27T07:17:22.002Z</time></trkpt><trkpt lat="40.05531007185603" lon="9.143919424358721"><ele>657.0</ele><time>2026-04-27T07:17:23.002Z</time></trkpt><trkpt lat="40.05513124586524" lon="9.144213567707103"><ele>663.0</ele><time>2026-04-27T07:17:24.002Z</time></trkpt><trkpt lat="40.054885745668784" lon="9.144466859227869"><ele>663.0</ele><time>2026-04-27T07:17:25.002Z</time></trkpt><trkpt lat="40.05463914692495" lon="9.144664475647946"><ele>663.0</ele><time>2026-04-27T07:17:26.002Z</time></trkpt><trkpt lat="40.05445092410861" lon="9.144800359275875"><ele>663.0</ele><time>2026-04-27T07:17:27.002Z</time></trkpt><trkpt lat="40.05427766434385" lon="9.144809989323386"><ele>663.0</ele><time>2026-04-27T07:17:28.002Z</time></trkpt><trkpt lat="40.054139237863524" lon="9.144885535433247"><ele>663.0</ele><time>2026-04-27T07:17:29.002Z</time></trkpt><trkpt lat="40.054018988828936" lon="9.144959407480163"><ele>662.3333333333334</ele><time>2026-04-27T07:17:30.002Z</time></trkpt><trkpt lat="40.05390480653269" lon="9.145159818585205"><ele>661.6666666666667</ele><time>2026-04-27T07:17:31.002Z</time></trkpt><trkpt lat="40.053813976223445" lon="9.145432749718825"><ele>661.0</ele><time>2026-04-27T07:17:32.002Z</time></trkpt><trkpt lat="40.053732999304344" lon="9.145680562508025"><ele>668.5</ele><time>2026-04-27T07:17:33.002Z</time></trkpt><trkpt lat="40.05370730416312" lon="9.145921921825495"><ele>676.0</ele><time>2026-04-27T07:17:34.002Z</time></trkpt><trkpt lat="40.05374458135486" lon="9.146265084751944"><ele>680.5</ele><time>2026-04-27T07:17:35.002Z</time></trkpt><trkpt lat="40.05379373847495" lon="9.146638694320828"><ele>685.0</ele><time>2026-04-27T07:17:36.002Z</time></trkpt><trkpt lat="40.05376459385896" lon="9.14694459912969"><ele>685.0</ele><time>2026-04-27T07:17:37.002Z</time></trkpt><trkpt lat="40.05369267054274" lon="9.147210803674085"><ele>685.0</ele><time>2026-04-27T07:17:38.002Z</time></trkpt><trkpt lat="40.05356874048708" lon="9.147514090167167"><ele>689.5</ele><time>2026-04-27T07:17:39.002Z</time></trkpt><trkpt lat="40.05347691907156" lon="9.147858127541303"><ele>694.0</ele><time>2026-04-27T07:17:40.002Z</time></trkpt><trkpt lat="40.05338668357455" lon="9.148153744376534"><ele>690.3333333333334</ele><time>2026-04-27T07:17:41.002Z</time></trkpt><trkpt lat="40.05326027090498" lon="9.148329370807835"><ele>686.6666666666666</ele><time>2026-04-27T07:17:42.002Z</time></trkpt><trkpt lat="40.05309769033815" lon="9.148522977354533"><ele>683.0</ele><time>2026-04-27T07:17:43.002Z</time></trkpt><trkpt lat="40.05287239766645" lon="9.148739687385572"><ele>683.0</ele><time>2026-04-27T07:17:44.002Z</time></trkpt><trkpt lat="40.052676412904155" lon="9.148977623355698"><ele>683.0</ele><time>2026-04-27T07:17:45.002Z</time></trkpt><trkpt lat="40.052528655926274" lon="9.149146895753281"><ele>683.5</ele><time>2026-04-27T07:17:46.002Z</time></trkpt><trkpt lat="40.05241758003734" lon="9.149187006011706"><ele>684.0</ele><time>2026-04-27T07:17:47.001Z</time></trkpt><trkpt lat="40.052296317027036" lon="9.14916732064296"><ele>684.5</ele><time>2026-04-27T07:17:48.001Z</time></trkpt><trkpt lat="40.052148055285386" lon="9.149022730177084"><ele>685.0</ele><time>2026-04-27T07:17:49.001Z</time></trkpt><trkpt lat="40.05193399832767" lon="9.148896273923015"><ele>685.0</ele><time>2026-04-27T07:17:50.001Z</time></trkpt><trkpt lat="40.051741612405614" lon="9.148823244411066"><ele>685.0</ele><time>2026-04-27T07:17:51.001Z</time></trkpt><trkpt lat="40.051525180445154" lon="9.148880756492993"><ele>685.0</ele><time>2026-04-27T07:17:52.001Z</time></trkpt><trkpt lat="40.05128239010685" lon="9.148988132128762"><ele>683.6666666666667</ele><time>2026-04-27T07:17:53.001Z</time></trkpt><trkpt lat="40.0510971273844" lon="9.148983725044626"><ele>682.3333333333334</ele><time>2026-04-27T07:17:54.001Z</time></trkpt><trkpt lat="40.05092928007294" lon="9.149048005310126"><ele>681.0</ele><time>2026-04-27T07:17:55.001Z</time></trkpt><trkpt lat="40.05073478152549" lon="9.149207719733084"><ele>688.0</ele><time>2026-04-27T07:17:56.001Z</time></trkpt><trkpt lat="40.05050917608714" lon="9.14946781640266"><ele>695.0</ele><time>2026-04-27T07:17:57.001Z</time></trkpt><trkpt lat="40.05029332986707" lon="9.149789900849104"><ele>697.0</ele><time>2026-04-27T07:17:58.001Z</time></trkpt><trkpt lat="40.050099416828594" lon="9.150158922149028"><ele>699.0</ele><time>2026-04-27T07:17:59.001Z</time></trkpt><trkpt lat="40.04994444799414" lon="9.150492722458385"><ele>699.0</ele><time>2026-04-27T07:18:00.001Z</time></trkpt><trkpt lat="40.049784325131505" lon="9.150688935640467"><ele>699.0</ele><time>2026-04-27T07:18:01.001Z</time></trkpt><trkpt lat="40.04960916615388" lon="9.150797436703451"><ele>699.0</ele><time>2026-04-27T07:18:02.001Z</time></trkpt><trkpt lat="40.04940548567005" lon="9.150895797104871"><ele>703.0</ele><time>2026-04-27T07:18:03.001Z</time></trkpt><trkpt lat="40.049240380235275" lon="9.151081928399833"><ele>707.0</ele><time>2026-04-27T07:18:04.001Z</time></trkpt><trkpt lat="40.04907430687391" lon="9.15131871160502"><ele>713.5</ele><time>2026-04-27T07:18:05.001Z</time></trkpt><trkpt lat="40.04893274047119" lon="9.151621665452915"><ele>720.0</ele><time>2026-04-27T07:18:06.001Z</time></trkpt><trkpt lat="40.04876220402661" lon="9.151802095877326"><ele>720.0</ele><time>2026-04-27T07:18:07.001Z</time></trkpt><trkpt lat="40.04858883790064" lon="9.15191445404021"><ele>720.0</ele><time>2026-04-27T07:18:08.001Z</time></trkpt><trkpt lat="40.04839575412304" lon="9.152039900053191"><ele>720.0</ele><time>2026-04-27T07:18:09.001Z</time></trkpt><trkpt lat="40.04824594660001" lon="9.152167554652662"><ele>721.3333333333334</ele><time>2026-04-27T07:18:10.001Z</time></trkpt><trkpt lat="40.04814394316988" lon="9.152319287989624"><ele>722.6666666666667</ele><time>2026-04-27T07:18:11.001Z</time></trkpt><trkpt lat="40.04805986479465" lon="9.15257748144543"><ele>724.0</ele><time>2026-04-27T07:18:12.001Z</time></trkpt><trkpt lat="40.0479738132209" lon="9.15291756927447"><ele>725.0</ele><time>2026-04-27T07:18:13.001Z</time></trkpt><trkpt lat="40.04787146203799" lon="9.153308011620513"><ele>726.0</ele><time>2026-04-27T07:18:14.001Z</time></trkpt><trkpt lat="40.04774649769097" lon="9.153670035866838"><ele>726.0</ele><time>2026-04-27T07:18:15.001Z</time></trkpt><trkpt lat="40.04764142533289" lon="9.153956227818714"><ele>726.0</ele><time>2026-04-27T07:18:16.001Z</time></trkpt><trkpt lat="40.047565607590734" lon="9.154197533716367"><ele>726.0</ele><time>2026-04-27T07:18:17.001Z</time></trkpt><trkpt lat="40.04755530992741" lon="9.154462666191142"><ele>730.0</ele><time>2026-04-27T07:18:18.001Z</time></trkpt><trkpt lat="40.04759395731046" lon="9.154801118735318"><ele>734.0</ele><time>2026-04-27T07:18:19.001Z</time></trkpt><trkpt lat="40.0475648662612" lon="9.155130571719875"><ele>737.0</ele><time>2026-04-27T07:18:20.001Z</time></trkpt><trkpt lat="40.04746246382195" lon="9.155448463890588"><ele>740.0</ele><time>2026-04-27T07:18:21.001Z</time></trkpt><trkpt lat="40.0473611543853" lon="9.155765161670866"><ele>744.0</ele><time>2026-04-27T07:18:22.001Z</time></trkpt><trkpt lat="40.0472689175319" lon="9.15601736979928"><ele>748.0</ele><time>2026-04-27T07:18:23.001Z</time></trkpt><trkpt lat="40.04724247783897" lon="9.15629236571642"><ele>752.0</ele><time>2026-04-27T07:18:24.001Z</time></trkpt><trkpt lat="40.04731253604574" lon="9.156636260177615"><ele>752.0</ele><time>2026-04-27T07:18:25.001Z</time></trkpt><trkpt lat="40.04736785917725" lon="9.156918600572773"><ele>752.0</ele><time>2026-04-27T07:18:26.001Z</time></trkpt><trkpt lat="40.04731970847053" lon="9.15718753807712"><ele>752.0</ele><time>2026-04-27T07:18:27.001Z</time></trkpt><trkpt lat="40.04724187175518" lon="9.157456910458265"><ele>750.6666666666666</ele><time>2026-04-27T07:18:28.001Z</time></trkpt><trkpt lat="40.047139280862105" lon="9.157682105505693"><ele>749.3333333333334</ele><time>2026-04-27T07:18:29.001Z</time></trkpt><trkpt lat="40.047092171205236" lon="9.157888707897461"><ele>748.0</ele><time>2026-04-27T07:18:30.002Z</time></trkpt><trkpt lat="40.04707397465764" lon="9.158077591779373"><ele>746.6666666666667</ele><time>2026-04-27T07:18:31.003Z</time></trkpt><trkpt lat="40.04712793986796" lon="9.158327408788406"><ele>745.3333333333334</ele><time>2026-04-27T07:18:32.003Z</time></trkpt><trkpt lat="40.04713528201288" lon="9.158619906273042"><ele>744.0</ele><time>2026-04-27T07:18:33.003Z</time></trkpt><trkpt lat="40.047108752056886" lon="9.158865742493926"><ele>744.0</ele><time>2026-04-27T07:18:34.002Z</time></trkpt><trkpt lat="40.047058520841645" lon="9.159021971016774"><ele>744.0</ele><time>2026-04-27T07:18:35.002Z</time></trkpt><trkpt lat="40.04696939916836" lon="9.159122610820193"><ele>744.0</ele><time>2026-04-27T07:18:36.003Z</time></trkpt><trkpt lat="40.04680249169607" lon="9.159120202426315"><ele>744.0</ele><time>2026-04-27T07:18:37.003Z</time></trkpt><trkpt lat="40.04657504153513" lon="9.159222040419372"><ele>747.5</ele><time>2026-04-27T07:18:38.003Z</time></trkpt><trkpt lat="40.04631883585533" lon="9.159318844808244"><ele>751.0</ele><time>2026-04-27T07:18:39.003Z</time></trkpt><trkpt lat="40.04605354786234" lon="9.159501615140229"><ele>751.0</ele><time>2026-04-27T07:18:40.003Z</time></trkpt><trkpt lat="40.04580692212497" lon="9.159707622669005"><ele>751.0</ele><time>2026-04-27T07:18:41.003Z</time></trkpt><trkpt lat="40.045613004467185" lon="9.159877028154185"><ele>752.0</ele><time>2026-04-27T07:18:42.003Z</time></trkpt><trkpt lat="40.04545582695668" lon="9.159949828520672"><ele>753.0</ele><time>2026-04-27T07:18:43.003Z</time></trkpt><trkpt lat="40.0453282181953" lon="9.159989389717534"><ele>754.0</ele><time>2026-04-27T07:18:44.003Z</time></trkpt><trkpt lat="40.04523225747863" lon="9.160129892844823"><ele>755.0</ele><time>2026-04-27T07:18:45.003Z</time></trkpt><trkpt lat="40.04514831087176" lon="9.160338713459584"><ele>755.0</ele><time>2026-04-27T07:18:46.003Z</time></trkpt><trkpt lat="40.045100301310974" lon="9.160543590650091"><ele>755.0</ele><time>2026-04-27T07:18:47.003Z</time></trkpt><trkpt lat="40.04503306675094" lon="9.160637073327305"><ele>755.0</ele><time>2026-04-27T07:18:48.003Z</time></trkpt><trkpt lat="40.04492270690061" lon="9.160626598252492"><ele>755.0</ele><time>2026-04-27T07:18:49.003Z</time></trkpt><trkpt lat="40.04480496681033" lon="9.16051537668162"><ele>756.3333333333333</ele><time>2026-04-27T07:18:50.003Z</time></trkpt><trkpt lat="40.044787644226446" lon="9.160284320874649"><ele>757.6666666666666</ele><time>2026-04-27T07:18:51.002Z</time></trkpt><trkpt lat="40.04473310401343" lon="9.160020092643368"><ele>759.0</ele><time>2026-04-27T07:18:52.002Z</time></trkpt><trkpt lat="40.044615094892706" lon="9.15979885528639"><ele>759.0</ele><time>2026-04-27T07:18:53.002Z</time></trkpt><trkpt lat="40.04446905485317" lon="9.159594122610656"><ele>759.0</ele><time>2026-04-27T07:18:54.002Z</time></trkpt><trkpt lat="40.04427139394935" lon="9.15937492172996"><ele>760.5</ele><time>2026-04-27T07:18:55.002Z</time></trkpt><trkpt lat="40.04404074245576" lon="9.159125625283046"><ele>762.0</ele><time>2026-04-27T07:18:56.002Z</time></trkpt><trkpt lat="40.043850374702544" lon="9.158888493631865"><ele>762.0</ele><time>2026-04-27T07:18:57.002Z</time></trkpt><trkpt lat="40.043696139017094" lon="9.15870333193817"><ele>762.0</ele><time>2026-04-27T07:18:58.002Z</time></trkpt><trkpt lat="40.04349144765287" lon="9.158601407202879"><ele>762.0</ele><time>2026-04-27T07:18:59.002Z</time></trkpt><trkpt lat="40.04321372951195" lon="9.158545513607097"><ele>765.0</ele><time>2026-04-27T07:19:00.002Z</time></trkpt><trkpt lat="40.04291691169743" lon="9.15846819303292"><ele>768.0</ele><time>2026-04-27T07:19:01.002Z</time></trkpt><trkpt lat="40.0426538165829" lon="9.158349619481582"><ele>768.6666666666667</ele><time>2026-04-27T07:19:02.002Z</time></trkpt><trkpt lat="40.042445983514384" lon="9.15824614637541"><ele>769.3333333333334</ele><time>2026-04-27T07:19:03.002Z</time></trkpt><trkpt lat="40.042276407297834" lon="9.158198285124895"><ele>770.0</ele><time>2026-04-27T07:19:04.002Z</time></trkpt><trkpt lat="40.04213227791273" lon="9.158194663077479"><ele>771.6666666666667</ele><time>2026-04-27T07:19:05.002Z</time></trkpt><trkpt lat="40.0419944961944" lon="9.158285617137649"><ele>773.3333333333333</ele><time>2026-04-27T07:19:06.002Z</time></trkpt><trkpt lat="40.04186216085636" lon="9.15852282170933"><ele>775.0</ele><time>2026-04-27T07:19:07.002Z</time></trkpt><trkpt lat="40.041735337051925" lon="9.158787062600865"><ele>775.0</ele><time>2026-04-27T07:19:08.002Z</time></trkpt><trkpt lat="40.041648491660325" lon="9.158991176164434"><ele>775.0</ele><time>2026-04-27T07:19:09.002Z</time></trkpt><trkpt lat="40.041537369864834" lon="9.159043243996381"><ele>775.0</ele><time>2026-04-27T07:19:10.002Z</time></trkpt><trkpt lat="40.04141497209962" lon="9.159009912485235"><ele>775.0</ele><time>2026-04-27T07:19:11.002Z</time></trkpt><trkpt lat="40.041341045312336" lon="9.158899642684764"><ele>788.0</ele><time>2026-04-27T07:19:12.002Z</time></trkpt><trkpt lat="40.04134070785934" lon="9.15876012197989"><ele>801.0</ele><time>2026-04-27T07:19:13.002Z</time></trkpt><trkpt lat="40.04138787198278" lon="9.158549079911364"><ele>814.0</ele><time>2026-04-27T07:19:14.002Z</time></trkpt><trkpt lat="40.04146460462535" lon="9.158273448060626"><ele>808.3333333333333</ele><time>2026-04-27T07:19:15.002Z</time></trkpt><trkpt lat="40.04156060094572" lon="9.157986545582697"><ele>802.6666666666667</ele><time>2026-04-27T07:19:16.002Z</time></trkpt><trkpt lat="40.04159162738082" lon="9.15774019382163"><ele>797.0</ele><time>2026-04-27T07:19:17.002Z</time></trkpt><trkpt lat="40.04156450655477" lon="9.157543758922463"><ele>788.3333333333334</ele><time>2026-04-27T07:19:18.002Z</time></trkpt><trkpt lat="40.041450328506365" lon="9.157351880991245"><ele>779.6666666666667</ele><time>2026-04-27T07:19:19.002Z</time></trkpt><trkpt lat="40.04126860013618" lon="9.157160091957778"><ele>771.0</ele><time>2026-04-27T07:19:20.002Z</time></trkpt><trkpt lat="40.04101553998946" lon="9.156980902259221"><ele>772.0</ele><time>2026-04-27T07:19:21.002Z</time></trkpt><trkpt lat="40.04072987849415" lon="9.156808680148979"><ele>773.0</ele><time>2026-04-27T07:19:22.002Z</time></trkpt><trkpt lat="40.04053048900849" lon="9.156666367831019"><ele>773.0</ele><time>2026-04-27T07:19:23.002Z</time></trkpt><trkpt lat="40.04040828090873" lon="9.15657200256281"><ele>773.0</ele><time>2026-04-27T07:19:24.002Z</time></trkpt><trkpt lat="40.04030484003972" lon="9.156536644354134"><ele>773.0</ele><time>2026-04-27T07:19:25.002Z</time></trkpt><trkpt lat="40.04018124817694" lon="9.156593465903043"><ele>773.0</ele><time>2026-04-27T07:19:26.002Z</time></trkpt><trkpt lat="40.040014719363334" lon="9.156773674922452"><ele>769.5</ele><time>2026-04-27T07:19:27.002Z</time></trkpt><trkpt lat="40.039801272837934" lon="9.157003218378094"><ele>766.0</ele><time>2026-04-27T07:19:28.002Z</time></trkpt><trkpt lat="40.03956635212727" lon="9.15720065917085"><ele>766.0</ele><time>2026-04-27T07:19:29.002Z</time></trkpt><trkpt lat="40.039395429304875" lon="9.157358533651273"><ele>766.0</ele><time>2026-04-27T07:19:30.002Z</time></trkpt><trkpt lat="40.03927899885541" lon="9.157531068879853"><ele>766.0</ele><time>2026-04-27T07:19:31.002Z</time></trkpt><trkpt lat="40.039180641464846" lon="9.157800011022088"><ele>770.0</ele><time>2026-04-27T07:19:32.002Z</time></trkpt><trkpt lat="40.039095244365136" lon="9.158147508791696"><ele>774.0</ele><time>2026-04-27T07:19:33.002Z</time></trkpt><trkpt lat="40.03895682052629" lon="9.158463611552268"><ele>774.0</ele><time>2026-04-27T07:19:34.002Z</time></trkpt><trkpt lat="40.03880677289749" lon="9.15870371415622"><ele>774.0</ele><time>2026-04-27T07:19:35.002Z</time></trkpt><trkpt lat="40.038624205791095" lon="9.158859723462172"><ele>778.0</ele><time>2026-04-27T07:19:36.002Z</time></trkpt><trkpt lat="40.03841206449624" lon="9.15906109159028"><ele>782.0</ele><time>2026-04-27T07:19:37.002Z</time></trkpt><trkpt lat="40.03815112517528" lon="9.159261930016848"><ele>782.0</ele><time>2026-04-27T07:19:38.002Z</time></trkpt><trkpt lat="40.03792988652778" lon="9.159490123443987"><ele>782.0</ele><time>2026-04-27T07:19:39.002Z</time></trkpt><trkpt lat="40.03775619899878" lon="9.159685409136854"><ele>782.0</ele><time>2026-04-27T07:19:40.002Z</time></trkpt><trkpt lat="40.037611216763175" lon="9.159791443119586"><ele>782.0</ele><time>2026-04-27T07:19:41.002Z</time></trkpt><trkpt lat="40.037462298140696" lon="9.159787214841414"><ele>782.0</ele><time>2026-04-27T07:19:42.002Z</time></trkpt><trkpt lat="40.037329166799445" lon="9.15987904929107"><ele>787.5</ele><time>2026-04-27T07:19:43.002Z</time></trkpt><trkpt lat="40.03716030656239" lon="9.160079731387283"><ele>793.0</ele><time>2026-04-27T07:19:44.002Z</time></trkpt><trkpt lat="40.03698995840897" lon="9.160360633618456"><ele>793.0</ele><time>2026-04-27T07:19:45.002Z</time></trkpt><trkpt lat="40.03687226110044" lon="9.160557366886774"><ele>793.0</ele><time>2026-04-27T07:19:46.002Z</time></trkpt><trkpt lat="40.03679191601905" lon="9.160637340499513"><ele>793.0</ele><time>2026-04-27T07:19:47.002Z</time></trkpt><trkpt lat="40.036718138610354" lon="9.160621655809276"><ele>793.0</ele><time>2026-04-27T07:19:48.002Z</time></trkpt><trkpt lat="40.03665576804658" lon="9.160442878369839"><ele>792.6666666666666</ele><time>2026-04-27T07:19:49.002Z</time></trkpt><trkpt lat="40.03648668719722" lon="9.160308723321199"><ele>792.3333333333333</ele><time>2026-04-27T07:19:50.002Z</time></trkpt><trkpt lat="40.03629923518709" lon="9.160217989509503"><ele>792.0</ele><time>2026-04-27T07:19:51.002Z</time></trkpt><trkpt lat="40.036079082282335" lon="9.160179380607596"><ele>792.0</ele><time>2026-04-27T07:19:52.002Z</time></trkpt><trkpt lat="40.035884248497695" lon="9.16020618787063"><ele>792.0</ele><time>2026-04-27T07:19:53.002Z</time></trkpt><trkpt lat="40.035707713430014" lon="9.16027660374749"><ele>792.0</ele><time>2026-04-27T07:19:54.002Z</time></trkpt><trkpt lat="40.03550244866205" lon="9.160433490007234"><ele>795.0</ele><time>2026-04-27T07:19:55.002Z</time></trkpt><trkpt lat="40.03527398207495" lon="9.160669382365368"><ele>798.0</ele><time>2026-04-27T07:19:56.002Z</time></trkpt><trkpt lat="40.035012545700525" lon="9.160895208551683"><ele>801.5</ele><time>2026-04-27T07:19:57.002Z</time></trkpt><trkpt lat="40.03472348830189" lon="9.16107996857836"><ele>805.0</ele><time>2026-04-27T07:19:58.002Z</time></trkpt><trkpt lat="40.03442065725605" lon="9.1612508654382"><ele>805.0</ele><time>2026-04-27T07:19:59.002Z</time></trkpt><trkpt lat="40.034155181061216" lon="9.161406094553572"><ele>805.0</ele><time>2026-04-27T07:20:00.002Z</time></trkpt><trkpt lat="40.03392883738235" lon="9.161525120990374"><ele>803.3333333333333</ele><time>2026-04-27T07:20:01.002Z</time></trkpt><trkpt lat="40.033712634880125" lon="9.16155891447357"><ele>801.6666666666667</ele><time>2026-04-27T07:20:02.002Z</time></trkpt><trkpt lat="40.03353577830991" lon="9.161635137570523"><ele>800.0</ele><time>2026-04-27T07:20:03.001Z</time></trkpt><trkpt lat="40.03338324312272" lon="9.161751884933024"><ele>799.6666666666667</ele><time>2026-04-27T07:20:04.001Z</time></trkpt><trkpt lat="40.03324529210181" lon="9.161980490374097"><ele>799.3333333333333</ele><time>2026-04-27T07:20:05.001Z</time></trkpt><trkpt lat="40.03314658019681" lon="9.162244350339613"><ele>799.0</ele><time>2026-04-27T07:20:06.001Z</time></trkpt><trkpt lat="40.0330963070304" lon="9.162477265194372"><ele>799.0</ele><time>2026-04-27T07:20:07.001Z</time></trkpt><trkpt lat="40.03298864147461" lon="9.162588687574804"><ele>799.0</ele><time>2026-04-27T07:20:08.001Z</time></trkpt><trkpt lat="40.03289310911972" lon="9.162653080158828"><ele>799.0</ele><time>2026-04-27T07:20:09.001Z</time></trkpt><trkpt lat="40.03279801469774" lon="9.16266921788853"><ele>799.0</ele><time>2026-04-27T07:20:10.001Z</time></trkpt><trkpt lat="40.03270169123617" lon="9.162624736285832"><ele>799.0</ele><time>2026-04-27T07:20:11.001Z</time></trkpt><trkpt lat="40.03261631124932" lon="9.16256354346416"><ele>799.0</ele><time>2026-04-27T07:20:12.001Z</time></trkpt><trkpt lat="40.032560514031324" lon="9.162425227067667"><ele>799.0</ele><time>2026-04-27T07:20:13.001Z</time></trkpt><trkpt lat="40.032506284949534" lon="9.16232669415316"><ele>799.0</ele><time>2026-04-27T07:20:14.001Z</time></trkpt><trkpt lat="40.03248423982335" lon="9.162224176817626"><ele>799.0</ele><time>2026-04-27T07:20:15.001Z</time></trkpt><trkpt lat="40.03247302869473" lon="9.162093630419157"><ele>799.0</ele><time>2026-04-27T07:20:17.001Z</time></trkpt><trkpt lat="40.032307875592046" lon="9.162097494737676"><ele>803.4999999999999</ele><time>2026-04-27T07:20:19.001Z</time></trkpt><trkpt lat="40.03224678872044" lon="9.162151434554307"><ele>808.0</ele><time>2026-04-27T07:20:22.001Z</time></trkpt><trkpt lat="40.03217727868336" lon="9.162206199182755"><ele>812.5</ele><time>2026-04-27T07:27:36.003Z</time></trkpt><trkpt lat="40.0320948063104" lon="9.162256697843397"><ele>817.0</ele><time>2026-04-27T07:27:39.002Z</time></trkpt><trkpt lat="40.0320194156381" lon="9.162270399418114"><ele>821.4999999999999</ele><time>2026-04-27T07:27:41.002Z</time></trkpt><trkpt lat="40.03193718838435" lon="9.16226954979302"><ele>826.0</ele><time>2026-04-27T07:27:43.002Z</time></trkpt><trkpt lat="40.03184181585974" lon="9.162265282547617"><ele>826.0</ele><time>2026-04-27T07:27:45.002Z</time></trkpt><trkpt lat="40.031741713307746" lon="9.162277472813335"><ele>826.0</ele><time>2026-04-27T07:27:47.002Z</time></trkpt><trkpt lat="40.03164264796848" lon="9.162295420998053"><ele>826.0</ele><time>2026-04-27T07:27:49.002Z</time></trkpt><trkpt lat="40.03153645585841" lon="9.162303609669191"><ele>826.0</ele><time>2026-04-27T07:27:51.002Z</time></trkpt><trkpt lat="40.03143356403487" lon="9.162254333539163"><ele>826.0</ele><time>2026-04-27T07:27:53.002Z</time></trkpt><trkpt lat="40.03133401545504" lon="9.162245151685019"><ele>824.0</ele><time>2026-04-27T07:27:55.002Z</time></trkpt><trkpt lat="40.031243829774034" lon="9.162195148490984"><ele>822.0</ele><time>2026-04-27T07:27:57.002Z</time></trkpt><trkpt lat="40.031160525409256" lon="9.16208699715547"><ele>820.0</ele><time>2026-04-27T07:27:59.002Z</time></trkpt><trkpt lat="40.03108485532175" lon="9.161997629966645"><ele>818.0</ele><time>2026-04-27T07:28:01.002Z</time></trkpt><trkpt lat="40.03099771926537" lon="9.161903102525162"><ele>816.0</ele><time>2026-04-27T07:28:03.002Z</time></trkpt><trkpt lat="40.03093976261302" lon="9.161869969662522"><ele>816.0</ele><time>2026-04-27T07:28:04.002Z</time></trkpt><trkpt lat="40.03087731965572" lon="9.16183574184914"><ele>816.0</ele><time>2026-04-27T07:28:05.002Z</time></trkpt><trkpt lat="40.03081761633541" lon="9.161781751558976"><ele>816.0</ele><time>2026-04-27T07:28:06.002Z</time></trkpt><trkpt lat="40.030747413467715" lon="9.161765802478271"><ele>816.0</ele><time>2026-04-27T07:28:07.002Z</time></trkpt><trkpt lat="40.03068032619832" lon="9.161717330174326"><ele>816.0</ele><time>2026-04-27T07:28:08.002Z</time></trkpt><trkpt lat="40.03060403981382" lon="9.161694062688007"><ele>816.0</ele><time>2026-04-27T07:28:09.002Z</time></trkpt><trkpt lat="40.030525819704735" lon="9.161681316138655"><ele>816.0</ele><time>2026-04-27T07:28:10.002Z</time></trkpt><trkpt lat="40.0304436346226" lon="9.161687112152215"><ele>815.6666666666666</ele><time>2026-04-27T07:28:11.002Z</time></trkpt><trkpt lat="40.03036410369083" lon="9.161707953900635"><ele>815.3333333333333</ele><time>2026-04-27T07:28:12.002Z</time></trkpt><trkpt lat="40.03028385798995" lon="9.161726299280994"><ele>815.0</ele><time>2026-04-27T07:28:13.002Z</time></trkpt><trkpt lat="40.03019785628218" lon="9.161733780121342"><ele>814.6666666666666</ele><time>2026-04-27T07:28:14.002Z</time></trkpt><trkpt lat="40.03011697580863" lon="9.161737344725138"><ele>814.3333333333333</ele><time>2026-04-27T07:28:15.002Z</time></trkpt><trkpt lat="40.030043591796826" lon="9.161684818354027"><ele>814.0</ele><time>2026-04-27T07:28:16.002Z</time></trkpt><trkpt lat="40.02996313466651" lon="9.161631705474099"><ele>814.0</ele><time>2026-04-27T07:28:17.002Z</time></trkpt><trkpt lat="40.0298715037409" lon="9.16158960264621"><ele>814.0</ele><time>2026-04-27T07:28:18.002Z</time></trkpt><trkpt lat="40.02979256247755" lon="9.161518094607544"><ele>814.0</ele><time>2026-04-27T07:28:19.002Z</time></trkpt><trkpt lat="40.02970420814591" lon="9.161478629088824"><ele>814.0</ele><time>2026-04-27T07:28:20.002Z</time></trkpt><trkpt lat="40.02959946566267" lon="9.16145882493674"><ele>814.0</ele><time>2026-04-27T07:28:21.002Z</time></trkpt><trkpt lat="40.02950157897584" lon="9.161461668863902"><ele>814.0</ele><time>2026-04-27T07:28:22.002Z</time></trkpt><trkpt lat="40.02939932921428" lon="9.16149601352737"><ele>814.0</ele><time>2026-04-27T07:28:23.002Z</time></trkpt><trkpt lat="40.02930851851651" lon="9.161558239623737"><ele>814.0</ele><time>2026-04-27T07:28:24.002Z</time></trkpt><trkpt lat="40.02925465011048" lon="9.161682981537323"><ele>814.0</ele><time>2026-04-27T07:28:25.002Z</time></trkpt><trkpt lat="40.02920261645156" lon="9.161793135641304"><ele>814.0</ele><time>2026-04-27T07:28:26.002Z</time></trkpt><trkpt lat="40.02913775540881" lon="9.16189437106554"><ele>817.4000000000001</ele><time>2026-04-27T07:28:27.002Z</time></trkpt><trkpt lat="40.02908714975759" lon="9.161996487867157"><ele>820.8</ele><time>2026-04-27T07:28:28.002Z</time></trkpt><trkpt lat="40.029045038656115" lon="9.162105696061392"><ele>824.2</ele><time>2026-04-27T07:28:29.002Z</time></trkpt><trkpt lat="40.02896763525964" lon="9.16217555520536"><ele>827.5999999999999</ele><time>2026-04-27T07:28:30.002Z</time></trkpt><trkpt lat="40.028888314432734" lon="9.162228899323676"><ele>831.0</ele><time>2026-04-27T07:28:31.002Z</time></trkpt><trkpt lat="40.02881448898697" lon="9.16229850478968"><ele>831.0</ele><time>2026-04-27T07:28:32.002Z</time></trkpt><trkpt lat="40.02871154261484" lon="9.162326486394816"><ele>831.0</ele><time>2026-04-27T07:28:33.002Z</time></trkpt><trkpt lat="40.0286254047599" lon="9.162382086137416"><ele>831.0</ele><time>2026-04-27T07:28:34.002Z</time></trkpt><trkpt lat="40.0285336636525" lon="9.162437117366176"><ele>831.0</ele><time>2026-04-27T07:28:35.002Z</time></trkpt><trkpt lat="40.028440740503626" lon="9.162488020218262"><ele>831.0</ele><time>2026-04-27T07:28:36.002Z</time></trkpt><trkpt lat="40.02834023533104" lon="9.162518822325723"><ele>830.0</ele><time>2026-04-27T07:28:37.002Z</time></trkpt><trkpt lat="40.02822981634373" lon="9.162513774974423"><ele>829.0</ele><time>2026-04-27T07:28:38.002Z</time></trkpt><trkpt lat="40.028126795086514" lon="9.162487025652695"><ele>828.0</ele><time>2026-04-27T07:28:39.002Z</time></trkpt><trkpt lat="40.028030622711135" lon="9.162436398444166"><ele>827.0</ele><time>2026-04-27T07:28:40.002Z</time></trkpt><trkpt lat="40.02793882837397" lon="9.162359816796927"><ele>826.0</ele><time>2026-04-27T07:28:41.002Z</time></trkpt><trkpt lat="40.02785015936182" lon="9.162261322178384"><ele>826.0</ele><time>2026-04-27T07:28:42.002Z</time></trkpt><trkpt lat="40.02776192525847" lon="9.16214551831268"><ele>826.0</ele><time>2026-04-27T07:28:43.002Z</time></trkpt><trkpt lat="40.027665678594445" lon="9.162002105316246"><ele>826.0</ele><time>2026-04-27T07:28:44.002Z</time></trkpt><trkpt lat="40.02753915693799" lon="9.161883354371586"><ele>826.0</ele><time>2026-04-27T07:28:45.002Z</time></trkpt><trkpt lat="40.02741907173292" lon="9.161770643661091"><ele>824.6666666666666</ele><time>2026-04-27T07:28:46.002Z</time></trkpt><trkpt lat="40.02730919761159" lon="9.161677607792322"><ele>823.3333333333333</ele><time>2026-04-27T07:28:47.002Z</time></trkpt><trkpt lat="40.02721117917048" lon="9.16160614354813"><ele>822.0</ele><time>2026-04-27T07:28:48.002Z</time></trkpt><trkpt lat="40.02697776839069" lon="9.16186261081556"><ele>822.0</ele><time>2026-04-27T07:28:49.002Z</time></trkpt><trkpt lat="40.02684169008508" lon="9.161777837197183"><ele>822.0</ele><time>2026-04-27T07:28:50.001Z</time></trkpt><trkpt lat="40.02669950874149" lon="9.161667555038822"><ele>822.0</ele><time>2026-04-27T07:28:51.001Z</time></trkpt><trkpt lat="40.026536509272475" lon="9.161621030369687"><ele>822.3333333333333</ele><time>2026-04-27T07:28:52.001Z</time></trkpt><trkpt lat="40.02636448417678" lon="9.161635321113344"><ele>822.6666666666666</ele><time>2026-04-27T07:28:53.001Z</time></trkpt><trkpt lat="40.02619989189543" lon="9.161665351893369"><ele>823.0</ele><time>2026-04-27T07:28:54.001Z</time></trkpt><trkpt lat="40.02606134256194" lon="9.161739004544136"><ele>823.0</ele><time>2026-04-27T07:28:55.001Z</time></trkpt><trkpt lat="40.02595696156615" lon="9.161852931022183"><ele>823.0</ele><time>2026-04-27T07:28:56.001Z</time></trkpt><trkpt lat="40.025871975497004" lon="9.161976814862632"><ele>823.0</ele><time>2026-04-27T07:28:57.001Z</time></trkpt><trkpt lat="40.025815686945265" lon="9.16209972717206"><ele>823.0</ele><time>2026-04-27T07:28:58.001Z</time></trkpt><trkpt lat="40.025828558498866" lon="9.16224966567163"><ele>826.0</ele><time>2026-04-27T07:28:59.003Z</time></trkpt><trkpt lat="40.02589168682142" lon="9.162373809690168"><ele>829.0</ele><time>2026-04-27T07:29:00.003Z</time></trkpt><trkpt lat="40.02603396052745" lon="9.162419506902948"><ele>832.0</ele><time>2026-04-27T07:29:01.003Z</time></trkpt><trkpt lat="40.026199051481996" lon="9.162412736139029"><ele>835.0</ele><time>2026-04-27T07:29:02.003Z</time></trkpt><trkpt lat="40.02638294741319" lon="9.162418658962467"><ele>835.0</ele><time>2026-04-27T07:29:03.003Z</time></trkpt><trkpt lat="40.02657247765796" lon="9.162448615981983"><ele>835.0</ele><time>2026-04-27T07:29:04.003Z</time></trkpt><trkpt lat="40.02675422675116" lon="9.162517016597377"><ele>835.0</ele><time>2026-04-27T07:29:05.004Z</time></trkpt><trkpt lat="40.026942858905414" lon="9.162591920076927"><ele>831.3333333333333</ele><time>2026-04-27T07:29:06.003Z</time></trkpt><trkpt lat="40.02712629018921" lon="9.162639400226158"><ele>827.6666666666667</ele><time>2026-04-27T07:29:07.003Z</time></trkpt><trkpt lat="40.0272914332308" lon="9.162674089146352"><ele>824.0</ele><time>2026-04-27T07:29:08.004Z</time></trkpt><trkpt lat="40.027425406508236" lon="9.162757063266799"><ele>822.6666666666667</ele><time>2026-04-27T07:29:09.003Z</time></trkpt><trkpt lat="40.02750417765235" lon="9.162926557622118"><ele>821.3333333333333</ele><time>2026-04-27T07:29:10.003Z</time></trkpt><trkpt lat="40.02757643224446" lon="9.163121849191263"><ele>820.0</ele><time>2026-04-27T07:29:11.003Z</time></trkpt><trkpt lat="40.027682730253744" lon="9.163344569370658"><ele>825.6666666666666</ele><time>2026-04-27T07:29:12.003Z</time></trkpt><trkpt lat="40.02779141517543" lon="9.163494275796547"><ele>831.3333333333333</ele><time>2026-04-27T07:29:13.003Z</time></trkpt><trkpt lat="40.02792546633968" lon="9.16358241790493"><ele>837.0</ele><time>2026-04-27T07:29:14.003Z</time></trkpt><trkpt lat="40.02806628431737" lon="9.163644739422523"><ele>837.0</ele><time>2026-04-27T07:29:15.003Z</time></trkpt><trkpt lat="40.02816997996042" lon="9.163758855305145"><ele>837.0</ele><time>2026-04-27T07:29:16.003Z</time></trkpt><trkpt lat="40.028215826700325" lon="9.163945803703427"><ele>837.0</ele><time>2026-04-27T07:29:17.003Z</time></trkpt><trkpt lat="40.02823756430743" lon="9.164157673118924"><ele>834.6666666666667</ele><time>2026-04-27T07:29:18.003Z</time></trkpt><trkpt lat="40.02828036561703" lon="9.164353536294422"><ele>832.3333333333334</ele><time>2026-04-27T07:29:19.003Z</time></trkpt><trkpt lat="40.028337850504684" lon="9.164551936768211"><ele>830.0</ele><time>2026-04-27T07:29:20.003Z</time></trkpt><trkpt lat="40.02837227027866" lon="9.164762073486774"><ele>832.0</ele><time>2026-04-27T07:29:21.003Z</time></trkpt><trkpt lat="40.02835109664401" lon="9.164992381803438"><ele>834.0</ele><time>2026-04-27T07:29:22.003Z</time></trkpt><trkpt lat="40.028281906040874" lon="9.165189073106852"><ele>836.0</ele><time>2026-04-27T07:29:23.003Z</time></trkpt><trkpt lat="40.02823006446562" lon="9.165355759534151"><ele>840.0</ele><time>2026-04-27T07:29:24.003Z</time></trkpt><trkpt lat="40.02814289481959" lon="9.165469910497883"><ele>844.0</ele><time>2026-04-27T07:29:25.003Z</time></trkpt><trkpt lat="40.02800021466603" lon="9.16552876110197"><ele>848.0</ele><time>2026-04-27T07:29:26.003Z</time></trkpt><trkpt lat="40.02784029052042" lon="9.165532513738992"><ele>852.0</ele><time>2026-04-27T07:29:27.003Z</time></trkpt><trkpt lat="40.027676992372214" lon="9.165470919334673"><ele>852.0</ele><time>2026-04-27T07:29:28.003Z</time></trkpt><trkpt lat="40.0274995554648" lon="9.16542462272349"><ele>852.0</ele><time>2026-04-27T07:29:29.003Z</time></trkpt><trkpt lat="40.027343365830895" lon="9.165332413683892"><ele>852.0</ele><time>2026-04-27T07:29:30.003Z</time></trkpt><trkpt lat="40.027182780382056" lon="9.165289326723874"><ele>853.0</ele><time>2026-04-27T07:29:31.003Z</time></trkpt><trkpt lat="40.0270343234923" lon="9.165302174838285"><ele>854.0</ele><time>2026-04-27T07:29:32.003Z</time></trkpt><trkpt lat="40.0269012615665" lon="9.165390364216071"><ele>855.0</ele><time>2026-04-27T07:29:33.003Z</time></trkpt><trkpt lat="40.02678200364954" lon="9.165528468860717"><ele>855.0</ele><time>2026-04-27T07:29:34.003Z</time></trkpt><trkpt lat="40.02666549412398" lon="9.1656621284204"><ele>855.0</ele><time>2026-04-27T07:29:35.003Z</time></trkpt><trkpt lat="40.026547459054306" lon="9.165740899743836"><ele>855.0</ele><time>2026-04-27T07:29:36.003Z</time></trkpt><trkpt lat="40.02639377888565" lon="9.165759949155975"><ele>855.0</ele><time>2026-04-27T07:29:37.003Z</time></trkpt><trkpt lat="40.026230692532565" lon="9.165751864421514"><ele>854.6666666666667</ele><time>2026-04-27T07:29:38.003Z</time></trkpt><trkpt lat="40.02606108095303" lon="9.165750882568478"><ele>854.3333333333334</ele><time>2026-04-27T07:29:39.003Z</time></trkpt><trkpt lat="40.02589695042363" lon="9.165816448232553"><ele>854.0</ele><time>2026-04-27T07:29:40.003Z</time></trkpt><trkpt lat="40.02576780877476" lon="9.165917662712422"><ele>856.0</ele><time>2026-04-27T07:29:41.003Z</time></trkpt><trkpt lat="40.02564067461125" lon="9.166018761636199"><ele>858.0</ele><time>2026-04-27T07:29:42.003Z</time></trkpt><trkpt lat="40.025498627541445" lon="9.166085468100727"><ele>860.0</ele><time>2026-04-27T07:29:43.003Z</time></trkpt><trkpt lat="40.02534871545628" lon="9.166118722844576"><ele>860.0</ele><time>2026-04-27T07:29:44.003Z</time></trkpt><trkpt lat="40.025192759183874" lon="9.166121427716629"><ele>860.0</ele><time>2026-04-27T07:29:45.003Z</time></trkpt><trkpt lat="40.02503667817947" lon="9.166126180275125"><ele>860.0</ele><time>2026-04-27T07:29:46.003Z</time></trkpt><trkpt lat="40.02488742162173" lon="9.166142543165241"><ele>861.0</ele><time>2026-04-27T07:29:47.003Z</time></trkpt><trkpt lat="40.024733500554404" lon="9.16616641839969"><ele>862.0</ele><time>2026-04-27T07:29:48.003Z</time></trkpt><trkpt lat="40.0245871042598" lon="9.16618564113628"><ele>863.0</ele><time>2026-04-27T07:29:49.003Z</time></trkpt><trkpt lat="40.02443664455708" lon="9.166187217403877"><ele>863.0</ele><time>2026-04-27T07:29:50.003Z</time></trkpt><trkpt lat="40.02429245197523" lon="9.166167735134984"><ele>863.0</ele><time>2026-04-27T07:29:51.003Z</time></trkpt><trkpt lat="40.024152998679554" lon="9.166135559673334"><ele>863.0</ele><time>2026-04-27T07:29:52.003Z</time></trkpt><trkpt lat="40.02402058374594" lon="9.166091199607633"><ele>863.0</ele><time>2026-04-27T07:29:53.003Z</time></trkpt><trkpt lat="40.02391073904307" lon="9.16599998553694"><ele>863.25</ele><time>2026-04-27T07:29:54.003Z</time></trkpt><trkpt lat="40.02380882516708" lon="9.16587638110401"><ele>863.5</ele><time>2026-04-27T07:29:55.003Z</time></trkpt><trkpt lat="40.02369484374592" lon="9.165782673561283"><ele>863.75</ele><time>2026-04-27T07:29:56.003Z</time></trkpt><trkpt lat="40.02356303269826" lon="9.165768746409654"><ele>864.0</ele><time>2026-04-27T07:29:57.003Z</time></trkpt><trkpt lat="40.023426097570194" lon="9.165819641608659"><ele>866.25</ele><time>2026-04-27T07:29:58.003Z</time></trkpt><trkpt lat="40.0232955377333" lon="9.165834313877854"><ele>868.5</ele><time>2026-04-27T07:29:59.003Z</time></trkpt><trkpt lat="40.02317069418169" lon="9.165778328281165"><ele>870.75</ele><time>2026-04-27T07:30:00.003Z</time></trkpt><trkpt lat="40.02307671299839" lon="9.165631377243441"><ele>873.0</ele><time>2026-04-27T07:30:01.003Z</time></trkpt><trkpt lat="40.023023943946185" lon="9.165459868892786"><ele>875.5</ele><time>2026-04-27T07:30:02.003Z</time></trkpt><trkpt lat="40.02297142284919" lon="9.165338470475493"><ele>878.0</ele><time>2026-04-27T07:30:03.002Z</time></trkpt><trkpt lat="40.02288936996878" lon="9.165292224426214"><ele>880.5</ele><time>2026-04-27T07:30:04.002Z</time></trkpt><trkpt lat="40.022769775822816" lon="9.165362618379065"><ele>883.0</ele><time>2026-04-27T07:30:05.002Z</time></trkpt><trkpt lat="40.022685880568154" lon="9.16550143842143"><ele>883.0</ele><time>2026-04-27T07:30:06.002Z</time></trkpt><trkpt lat="40.02262331658111" lon="9.165638585369715"><ele>883.0</ele><time>2026-04-27T07:30:07.002Z</time></trkpt><trkpt lat="40.02255314030091" lon="9.16576243869196"><ele>883.0</ele><time>2026-04-27T07:30:08.002Z</time></trkpt><trkpt lat="40.022474821448306" lon="9.165880664556294"><ele>883.0</ele><time>2026-04-27T07:30:09.002Z</time></trkpt><trkpt lat="40.02239110986906" lon="9.165995097021417"><ele>884.25</ele><time>2026-04-27T07:30:10.002Z</time></trkpt><trkpt lat="40.0223275229106" lon="9.166135730487046"><ele>885.5</ele><time>2026-04-27T07:30:11.002Z</time></trkpt><trkpt lat="40.02231522038977" lon="9.16630266953168"><ele>886.75</ele><time>2026-04-27T07:30:12.002Z</time></trkpt><trkpt lat="40.02237520606771" lon="9.166456923798181"><ele>888.0</ele><time>2026-04-27T07:30:13.002Z</time></trkpt><trkpt lat="40.02247011469425" lon="9.166573853510503"><ele>886.25</ele><time>2026-04-27T07:30:14.002Z</time></trkpt><trkpt lat="40.02259942904311" lon="9.166648907025166"><ele>884.5</ele><time>2026-04-27T07:30:15.002Z</time></trkpt><trkpt lat="40.02272846376625" lon="9.166695339707708"><ele>882.75</ele><time>2026-04-27T07:30:16.002Z</time></trkpt><trkpt lat="40.022855163595125" lon="9.166750695223644"><ele>881.0</ele><time>2026-04-27T07:30:17.002Z</time></trkpt><trkpt lat="40.02297082596488" lon="9.166840902638521"><ele>881.0</ele><time>2026-04-27T07:30:18.002Z</time></trkpt><trkpt lat="40.02308332635423" lon="9.166937040866728"><ele>881.0</ele><time>2026-04-27T07:30:19.002Z</time></trkpt><trkpt lat="40.02319394023548" lon="9.167033240493964"><ele>881.0</ele><time>2026-04-27T07:30:20.002Z</time></trkpt><trkpt lat="40.023308320593884" lon="9.16713483306768"><ele>881.0</ele><time>2026-04-27T07:30:21.002Z</time></trkpt><trkpt lat="40.023429515432355" lon="9.1672320329092"><ele>882.25</ele><time>2026-04-27T07:30:22.002Z</time></trkpt><trkpt lat="40.023541268017354" lon="9.167346693838152"><ele>883.5</ele><time>2026-04-27T07:30:23.002Z</time></trkpt><trkpt lat="40.02365654382381" lon="9.167450244713383"><ele>884.75</ele><time>2026-04-27T07:30:24.002Z</time></trkpt><trkpt lat="40.0237751676636" lon="9.167555217613716"><ele>886.0</ele><time>2026-04-27T07:30:25.002Z</time></trkpt><trkpt lat="40.023898962416034" lon="9.167655424432777"><ele>886.0</ele><time>2026-04-27T07:30:26.002Z</time></trkpt><trkpt lat="40.02401668313912" lon="9.16774808202784"><ele>886.0</ele><time>2026-04-27T07:30:27.002Z</time></trkpt><trkpt lat="40.02410190642955" lon="9.167859488433361"><ele>886.0</ele><time>2026-04-27T07:30:28.002Z</time></trkpt><trkpt lat="40.02414557117829" lon="9.167978640921303"><ele>886.0</ele><time>2026-04-27T07:30:29.002Z</time></trkpt><trkpt lat="40.024132620359595" lon="9.168119942176954"><ele>887.0</ele><time>2026-04-27T07:30:30.002Z</time></trkpt><trkpt lat="40.02408493970071" lon="9.168249628416484"><ele>887.9999999999999</ele><time>2026-04-27T07:30:31.002Z</time></trkpt><trkpt lat="40.024024679752074" lon="9.168370885416419"><ele>888.9999999999999</ele><time>2026-04-27T07:30:32.002Z</time></trkpt><trkpt lat="40.02395914599637" lon="9.168484244342228"><ele>890.0</ele><time>2026-04-27T07:30:33.002Z</time></trkpt><trkpt lat="40.023893504509" lon="9.168598348970919"><ele>891.0</ele><time>2026-04-27T07:30:34.002Z</time></trkpt><trkpt lat="40.02382497587364" lon="9.168716011657423"><ele>891.0</ele><time>2026-04-27T07:30:35.002Z</time></trkpt><trkpt lat="40.023771915014756" lon="9.168853094422232"><ele>891.0</ele><time>2026-04-27T07:30:36.002Z</time></trkpt><trkpt lat="40.02372436011055" lon="9.168984227413157"><ele>891.0</ele><time>2026-04-27T07:30:37.002Z</time></trkpt><trkpt lat="40.023706611722105" lon="9.16912816529899"><ele>891.0</ele><time>2026-04-27T07:30:38.002Z</time></trkpt><trkpt lat="40.02372815213371" lon="9.169277364550256"><ele>890.5999999999999</ele><time>2026-04-27T07:30:39.002Z</time></trkpt><trkpt lat="40.02376842418938" lon="9.169414500919144"><ele>890.1999999999999</ele><time>2026-04-27T07:30:40.002Z</time></trkpt><trkpt lat="40.02381905895534" lon="9.169517256227373"><ele>889.8000000000001</ele><time>2026-04-27T07:30:41.002Z</time></trkpt><trkpt lat="40.023847661914914" lon="9.16959165523125"><ele>889.4000000000001</ele><time>2026-04-27T07:30:42.002Z</time></trkpt><trkpt lat="40.02389206338586" lon="9.169702277024859"><ele>889.0</ele><time>2026-04-27T07:30:45.002Z</time></trkpt><trkpt lat="40.02394172436199" lon="9.169837817075072"><ele>889.6</ele><time>2026-04-27T07:30:47.002Z</time></trkpt><trkpt lat="40.02397769678717" lon="9.169931375747591"><ele>890.2</ele><time>2026-04-27T07:30:48.002Z</time></trkpt><trkpt lat="40.024005874297984" lon="9.170043844712236"><ele>890.8000000000001</ele><time>2026-04-27T07:30:49.002Z</time></trkpt><trkpt lat="40.024044809645275" lon="9.170163877016465"><ele>891.4000000000001</ele><time>2026-04-27T07:30:50.002Z</time></trkpt><trkpt lat="40.02407983527764" lon="9.170275379052457"><ele>892.0</ele><time>2026-04-27T07:30:51.002Z</time></trkpt><trkpt lat="40.024117240578214" lon="9.170380800578902"><ele>891.8</ele><time>2026-04-27T07:30:52.002Z</time></trkpt><trkpt lat="40.02415236027445" lon="9.170488859172952"><ele>891.6</ele><time>2026-04-27T07:30:53.002Z</time></trkpt><trkpt lat="40.02418105100183" lon="9.17058704002584"><ele>891.3999999999999</ele><time>2026-04-27T07:30:54.002Z</time></trkpt><trkpt lat="40.024186848365" lon="9.17071546761671"><ele>891.1999999999999</ele><time>2026-04-27T07:30:55.002Z</time></trkpt><trkpt lat="40.02416071524841" lon="9.170829021353072"><ele>891.0</ele><time>2026-04-27T07:30:56.002Z</time></trkpt><trkpt lat="40.02411138094022" lon="9.170940592165842"><ele>892.1999999999999</ele><time>2026-04-27T07:30:57.002Z</time></trkpt><trkpt lat="40.02405145871089" lon="9.171039755699596"><ele>893.3999999999999</ele><time>2026-04-27T07:30:58.002Z</time></trkpt><trkpt lat="40.02399317910836" lon="9.17113230858529"><ele>894.6</ele><time>2026-04-27T07:30:59.002Z</time></trkpt><trkpt lat="40.02394141008617" lon="9.171242071319616"><ele>895.8</ele><time>2026-04-27T07:31:00.002Z</time></trkpt><trkpt lat="40.02389402141596" lon="9.171346443130934"><ele>897.0</ele><time>2026-04-27T07:31:01.002Z</time></trkpt><trkpt lat="40.02386900884075" lon="9.171456307995388"><ele>896.0</ele><time>2026-04-27T07:31:02.002Z</time></trkpt><trkpt lat="40.02387794991948" lon="9.171571091691527"><ele>895.0</ele><time>2026-04-27T07:31:03.002Z</time></trkpt><trkpt lat="40.023923027192964" lon="9.171680677261422"><ele>894.0</ele><time>2026-04-27T07:31:04.002Z</time></trkpt><trkpt lat="40.024010147763384" lon="9.171769460139751"><ele>893.0</ele><time>2026-04-27T07:31:05.003Z</time></trkpt><trkpt lat="40.02411962516074" lon="9.171808500211108"><ele>892.0</ele><time>2026-04-27T07:31:06.003Z</time></trkpt><trkpt lat="40.024208564629" lon="9.171848159938529"><ele>892.0</ele><time>2026-04-27T07:31:07.003Z</time></trkpt><trkpt lat="40.024300869425176" lon="9.171899938105804"><ele>892.0</ele><time>2026-04-27T07:31:08.003Z</time></trkpt><trkpt lat="40.02438790803869" lon="9.171961121443898"><ele>892.0</ele><time>2026-04-27T07:31:09.003Z</time></trkpt><trkpt lat="40.024433075916804" lon="9.172059127571151"><ele>892.0</ele><time>2026-04-27T07:31:10.003Z</time></trkpt><trkpt lat="40.024441192797156" lon="9.172179304262292"><ele>892.0</ele><time>2026-04-27T07:31:11.003Z</time></trkpt><trkpt lat="40.02439495232232" lon="9.172304837221537"><ele>891.2</ele><time>2026-04-27T07:31:12.003Z</time></trkpt><trkpt lat="40.0243345781692" lon="9.172411082270486"><ele>890.4000000000001</ele><time>2026-04-27T07:31:13.003Z</time></trkpt><trkpt lat="40.024254835039635" lon="9.172502327907875"><ele>889.5999999999999</ele><time>2026-04-27T07:31:14.003Z</time></trkpt><trkpt lat="40.02418056689123" lon="9.172602515101502"><ele>888.8</ele><time>2026-04-27T07:31:15.003Z</time></trkpt><trkpt lat="40.02410631694336" lon="9.17270028512718"><ele>888.0</ele><time>2026-04-27T07:31:16.003Z</time></trkpt><trkpt lat="40.02403447256055" lon="9.172803409997488"><ele>884.3333333333334</ele><time>2026-04-27T07:31:17.003Z</time></trkpt><trkpt lat="40.02397703011211" lon="9.172901585111003"><ele>880.6666666666667</ele><time>2026-04-27T07:31:18.002Z</time></trkpt><trkpt lat="40.02391762988804" lon="9.172990975156582"><ele>877.0</ele><time>2026-04-27T07:31:19.002Z</time></trkpt><trkpt lat="40.023891917076774" lon="9.173082953548478"><ele>873.3333333333334</ele><time>2026-04-27T07:31:20.002Z</time></trkpt><trkpt lat="40.02391731502012" lon="9.173178739067183"><ele>869.6666666666667</ele><time>2026-04-27T07:31:21.002Z</time></trkpt><trkpt lat="40.023993531100885" lon="9.173247914073025"><ele>866.0</ele><time>2026-04-27T07:31:22.002Z</time></trkpt><trkpt lat="40.0240670521714" lon="9.173269234655441"><ele>870.5999999999999</ele><time>2026-04-27T07:31:23.002Z</time></trkpt><trkpt lat="40.02415785017316" lon="9.173307040981951"><ele>875.1999999999999</ele><time>2026-04-27T07:31:24.002Z</time></trkpt><trkpt lat="40.02425496973026" lon="9.17335175005951"><ele>879.8000000000001</ele><time>2026-04-27T07:31:25.002Z</time></trkpt><trkpt lat="40.02430252701746" lon="9.173441500302362"><ele>884.4000000000001</ele><time>2026-04-27T07:31:26.002Z</time></trkpt><trkpt lat="40.024286989291376" lon="9.173597295015112"><ele>889.0</ele><time>2026-04-27T07:31:27.002Z</time></trkpt><trkpt lat="40.024253383297314" lon="9.173732886988445"><ele>889.0</ele><time>2026-04-27T07:31:28.002Z</time></trkpt><trkpt lat="40.02422953373313" lon="9.173854141011901"><ele>889.0000000000001</ele><time>2026-04-27T07:31:29.002Z</time></trkpt><trkpt lat="40.02425658361043" lon="9.173973509159213"><ele>889.0000000000001</ele><time>2026-04-27T07:31:30.002Z</time></trkpt><trkpt lat="40.02432837949457" lon="9.1740770282403"><ele>889.0</ele><time>2026-04-27T07:31:31.002Z</time></trkpt><trkpt lat="40.02441521485415" lon="9.174148202123787"><ele>889.0</ele><time>2026-04-27T07:31:32.002Z</time></trkpt><trkpt lat="40.02450797440535" lon="9.174210768320345"><ele>884.5</ele><time>2026-04-27T07:31:33.002Z</time></trkpt><trkpt lat="40.02460660264397" lon="9.174282647317483"><ele>880.0</ele><time>2026-04-27T07:31:34.002Z</time></trkpt><trkpt lat="40.02470513322929" lon="9.174373432397736"><ele>875.5</ele><time>2026-04-27T07:31:35.002Z</time></trkpt><trkpt lat="40.024800200308356" lon="9.174452535362228"><ele>871.0</ele><time>2026-04-27T07:31:36.002Z</time></trkpt><trkpt lat="40.0249058916887" lon="9.174531572979717"><ele>871.25</ele><time>2026-04-27T07:31:37.002Z</time></trkpt><trkpt lat="40.025009902958544" lon="9.174608299318795"><ele>871.5</ele><time>2026-04-27T07:31:38.002Z</time></trkpt><trkpt lat="40.02510972289893" lon="9.174693818651923"><ele>871.75</ele><time>2026-04-27T07:31:39.002Z</time></trkpt><trkpt lat="40.02518071842138" lon="9.174802971081677"><ele>872.0</ele><time>2026-04-27T07:31:40.002Z</time></trkpt><trkpt lat="40.02519425646076" lon="9.174937076510295"><ele>872.0</ele><time>2026-04-27T07:31:41.002Z</time></trkpt><trkpt lat="40.02515409613332" lon="9.175093019672328"><ele>872.0</ele><time>2026-04-27T07:31:42.002Z</time></trkpt><trkpt lat="40.02509269869621" lon="9.175238907302283"><ele>872.0</ele><time>2026-04-27T07:31:43.002Z</time></trkpt><trkpt lat="40.02505226174538" lon="9.175402142278116"><ele>872.0</ele><time>2026-04-27T07:31:44.002Z</time></trkpt><trkpt lat="40.025032659762495" lon="9.175575689359931"><ele>872.0</ele><time>2026-04-27T07:31:45.002Z</time></trkpt><trkpt lat="40.02502020421556" lon="9.175751406962616"><ele>872.0</ele><time>2026-04-27T07:31:46.002Z</time></trkpt><trkpt lat="40.02499788981945" lon="9.175929977312483"><ele>872.0</ele><time>2026-04-27T07:31:47.002Z</time></trkpt><trkpt lat="40.02497661787053" lon="9.17610519275615"><ele>872.0</ele><time>2026-04-27T07:31:48.002Z</time></trkpt><trkpt lat="40.02495826059999" lon="9.176278042570715"><ele>866.25</ele><time>2026-04-27T07:31:49.002Z</time></trkpt><trkpt lat="40.024927555459406" lon="9.176438522353545"><ele>860.5</ele><time>2026-04-27T07:31:50.002Z</time></trkpt><trkpt lat="40.024879786688594" lon="9.176591764415388"><ele>854.75</ele><time>2026-04-27T07:31:51.002Z</time></trkpt><trkpt lat="40.02479108386216" lon="9.176706964845618"><ele>849.0</ele><time>2026-04-27T07:31:52.002Z</time></trkpt><trkpt lat="40.02468557906483" lon="9.176793598889478"><ele>849.0</ele><time>2026-04-27T07:31:53.002Z</time></trkpt><trkpt lat="40.024595854419246" lon="9.176899780071572"><ele>849.0</ele><time>2026-04-27T07:31:54.002Z</time></trkpt><trkpt lat="40.02453815582636" lon="9.1770155699823"><ele>849.0</ele><time>2026-04-27T07:31:55.002Z</time></trkpt><trkpt lat="40.024495835077495" lon="9.177142031834657"><ele>849.0</ele><time>2026-04-27T07:31:56.002Z</time></trkpt><trkpt lat="40.02446598845208" lon="9.177262025418875"><ele>849.0</ele><time>2026-04-27T07:31:57.002Z</time></trkpt><trkpt lat="40.0244229003646" lon="9.177379524549632"><ele>850.2</ele><time>2026-04-27T07:31:58.002Z</time></trkpt><trkpt lat="40.024375888283245" lon="9.177495320742024"><ele>851.4000000000001</ele><time>2026-04-27T07:31:59.002Z</time></trkpt><trkpt lat="40.02432018878464" lon="9.177613600107952"><ele>852.6</ele><time>2026-04-27T07:32:00.002Z</time></trkpt><trkpt lat="40.024264491311776" lon="9.177734995404872"><ele>853.8</ele><time>2026-04-27T07:32:01.002Z</time></trkpt><trkpt lat="40.02421606436225" lon="9.177866206147723"><ele>855.0</ele><time>2026-04-27T07:32:02.002Z</time></trkpt><trkpt lat="40.02417296305396" lon="9.178000889017536"><ele>847.5</ele><time>2026-04-27T07:32:03.002Z</time></trkpt><trkpt lat="40.02411736647911" lon="9.178136284706001"><ele>840.0</ele><time>2026-04-27T07:32:04.002Z</time></trkpt><trkpt lat="40.02407499486228" lon="9.178282978876856"><ele>832.5</ele><time>2026-04-27T07:32:05.002Z</time></trkpt><trkpt lat="40.02402786473495" lon="9.178428626080864"><ele>825.0</ele><time>2026-04-27T07:32:06.002Z</time></trkpt><trkpt lat="40.02398710122592" lon="9.178577500699923"><ele>825.0</ele><time>2026-04-27T07:32:07.002Z</time></trkpt><trkpt lat="40.02394011885998" lon="9.17872335117962"><ele>825.0</ele><time>2026-04-27T07:32:08.002Z</time></trkpt><trkpt lat="40.023900445252735" lon="9.178874928292068"><ele>825.0</ele><time>2026-04-27T07:32:09.002Z</time></trkpt><trkpt lat="40.02386587336911" lon="9.179031730147996"><ele>825.0</ele><time>2026-04-27T07:32:10.002Z</time></trkpt><trkpt lat="40.02384357120135" lon="9.17919166859999"><ele>827.0</ele><time>2026-04-27T07:32:11.002Z</time></trkpt><trkpt lat="40.023826544030285" lon="9.179355857840365"><ele>829.0</ele><time>2026-04-27T07:32:12.002Z</time></trkpt><trkpt lat="40.0238006073662" lon="9.179517330925652"><ele>831.0</ele><time>2026-04-27T07:32:13.002Z</time></trkpt><trkpt lat="40.02375856067153" lon="9.179674000967374"><ele>833.0</ele><time>2026-04-27T07:32:14.002Z</time></trkpt><trkpt lat="40.02369604595967" lon="9.179818548419192"><ele>835.5</ele><time>2026-04-27T07:32:15.002Z</time></trkpt><trkpt lat="40.02361057829293" lon="9.179940611030075"><ele>838.0</ele><time>2026-04-27T07:32:16.002Z</time></trkpt><trkpt lat="40.023521856938316" lon="9.180061262148058"><ele>840.5</ele><time>2026-04-27T07:32:17.002Z</time></trkpt><trkpt lat="40.02343752075846" lon="9.180191449355416"><ele>843.0</ele><time>2026-04-27T07:32:18.002Z</time></trkpt><trkpt lat="40.02336333947636" lon="9.180334579107186"><ele>838.25</ele><time>2026-04-27T07:32:19.002Z</time></trkpt><trkpt lat="40.02329569992174" lon="9.180486156696231"><ele>833.5</ele><time>2026-04-27T07:32:20.002Z</time></trkpt><trkpt lat="40.0232166202283" lon="9.180638488667507"><ele>828.75</ele><time>2026-04-27T07:32:21.002Z</time></trkpt><trkpt lat="40.02313808913994" lon="9.180794470304495"><ele>824.0</ele><time>2026-04-27T07:32:22.002Z</time></trkpt><trkpt lat="40.02305053044523" lon="9.18095060671835"><ele>824.0</ele><time>2026-04-27T07:32:23.002Z</time></trkpt><trkpt lat="40.022947248593816" lon="9.181091007569778"><ele>824.0</ele><time>2026-04-27T07:32:24.002Z</time></trkpt><trkpt lat="40.02282150723571" lon="9.181209096279865"><ele>824.0</ele><time>2026-04-27T07:32:25.002Z</time></trkpt><trkpt lat="40.022696337690654" lon="9.18131950339676"><ele>824.0</ele><time>2026-04-27T07:32:26.002Z</time></trkpt><trkpt lat="40.02259641628811" lon="9.181453070037263"><ele>824.0</ele><time>2026-04-27T07:32:27.002Z</time></trkpt><trkpt lat="40.022528481222494" lon="9.181623733894101"><ele>824.0</ele><time>2026-04-27T07:32:28.001Z</time></trkpt><trkpt lat="40.02247592748767" lon="9.181797830677608"><ele>824.0</ele><time>2026-04-27T07:32:29.001Z</time></trkpt><trkpt lat="40.02242414332565" lon="9.18197018858599"><ele>822.5</ele><time>2026-04-27T07:32:30.001Z</time></trkpt><trkpt lat="40.02234212155356" lon="9.182127241333161"><ele>821.0</ele><time>2026-04-27T07:32:31.001Z</time></trkpt><trkpt lat="40.02223293996096" lon="9.18225947656071"><ele>819.5</ele><time>2026-04-27T07:32:32.001Z</time></trkpt><trkpt lat="40.02211202408295" lon="9.182361362007926"><ele>818.0</ele><time>2026-04-27T07:32:33.001Z</time></trkpt><trkpt lat="40.02200860729304" lon="9.182452859692933"><ele>818.0</ele><time>2026-04-27T07:32:34.001Z</time></trkpt><trkpt lat="40.021948060316106" lon="9.182598940697869"><ele>818.0</ele><time>2026-04-27T07:32:35.001Z</time></trkpt><trkpt lat="40.02193793021608" lon="9.182789859823746"><ele>818.0</ele><time>2026-04-27T07:32:36.001Z</time></trkpt><trkpt lat="40.02194492836801" lon="9.18298094155903"><ele>818.0</ele><time>2026-04-27T07:32:37.001Z</time></trkpt><trkpt lat="40.02193769986447" lon="9.183170463700701"><ele>821.0</ele><time>2026-04-27T07:32:38.001Z</time></trkpt><trkpt lat="40.02192713332498" lon="9.183326437834404"><ele>824.0</ele><time>2026-04-27T07:32:39.001Z</time></trkpt><trkpt lat="40.02187092905802" lon="9.183439834454774"><ele>827.0</ele><time>2026-04-27T07:32:40.001Z</time></trkpt><trkpt lat="40.021772958594624" lon="9.18349747814324"><ele>830.0</ele><time>2026-04-27T07:32:41.001Z</time></trkpt><trkpt lat="40.02164803991138" lon="9.18345321229267"><ele>830.0</ele><time>2026-04-27T07:32:42.001Z</time></trkpt><trkpt lat="40.02153112261976" lon="9.183329018056368"><ele>830.0</ele><time>2026-04-27T07:32:43.001Z</time></trkpt><trkpt lat="40.02138132929962" lon="9.183240689052365"><ele>830.0</ele><time>2026-04-27T07:32:44.001Z</time></trkpt><trkpt lat="40.021237443509264" lon="9.183225134365685"><ele>830.0</ele><time>2026-04-27T07:32:45.001Z</time></trkpt><trkpt lat="40.02108985345282" lon="9.183274112672079"><ele>830.0</ele><time>2026-04-27T07:32:46.001Z</time></trkpt><trkpt lat="40.02095603072276" lon="9.1833760001753"><ele>830.0</ele><time>2026-04-27T07:32:47.001Z</time></trkpt><trkpt lat="40.02084081715368" lon="9.183445366975944"><ele>830.0</ele><time>2026-04-27T07:32:48.001Z</time></trkpt><trkpt lat="40.02072695827167" lon="9.183430935744589"><ele>825.6666666666667</ele><time>2026-04-27T07:32:49.001Z</time></trkpt><trkpt lat="40.02061618209964" lon="9.183301788333692"><ele>821.3333333333333</ele><time>2026-04-27T07:32:50.001Z</time></trkpt><trkpt lat="40.020536346658744" lon="9.183111425625782"><ele>817.0</ele><time>2026-04-27T07:32:51.001Z</time></trkpt><trkpt lat="40.020454312963956" lon="9.182932745890112"><ele>817.0</ele><time>2026-04-27T07:32:52.001Z</time></trkpt><trkpt lat="40.02035328905504" lon="9.182787648398081"><ele>817.0</ele><time>2026-04-27T07:32:53.001Z</time></trkpt><trkpt lat="40.020223456970506" lon="9.1826680742071"><ele>817.0</ele><time>2026-04-27T07:32:54.001Z</time></trkpt><trkpt lat="40.020094677274024" lon="9.182574166232675"><ele>818.6666666666666</ele><time>2026-04-27T07:32:55.001Z</time></trkpt><trkpt lat="40.01994248790349" lon="9.182532275771853"><ele>820.3333333333333</ele><time>2026-04-27T07:32:56.001Z</time></trkpt><trkpt lat="40.01978298611018" lon="9.182523633906587"><ele>822.0</ele><time>2026-04-27T07:32:57.001Z</time></trkpt><trkpt lat="40.01959776329705" lon="9.182503537343067"><ele>822.0</ele><time>2026-04-27T07:32:58.001Z</time></trkpt><trkpt lat="40.01941887123994" lon="9.182450073508935"><ele>822.0</ele><time>2026-04-27T07:32:59.001Z</time></trkpt><trkpt lat="40.01923927047519" lon="9.182445499347928"><ele>822.0</ele><time>2026-04-27T07:33:00.001Z</time></trkpt><trkpt lat="40.019047536036396" lon="9.182424877318626"><ele>823.0</ele><time>2026-04-27T07:33:01.001Z</time></trkpt><trkpt lat="40.01886561878484" lon="9.182385735940539"><ele>824.0</ele><time>2026-04-27T07:33:02.001Z</time></trkpt><trkpt lat="40.01870190879933" lon="9.182312227505362"><ele>825.0</ele><time>2026-04-27T07:33:03.001Z</time></trkpt><trkpt lat="40.01857255064462" lon="9.182208076665937"><ele>818.0</ele><time>2026-04-27T07:33:04.001Z</time></trkpt><trkpt lat="40.01842434056044" lon="9.182141588437352"><ele>811.0</ele><time>2026-04-27T07:33:05.001Z</time></trkpt><trkpt lat="40.018254715274594" lon="9.182183397053441"><ele>804.0</ele><time>2026-04-27T07:33:06.001Z</time></trkpt><trkpt lat="40.0180802399442" lon="9.182272745280983"><ele>804.0</ele><time>2026-04-27T07:33:07.001Z</time></trkpt><trkpt lat="40.01793696219257" lon="9.182271734404456"><ele>804.0</ele><time>2026-04-27T07:33:08.001Z</time></trkpt><trkpt lat="40.01781732108798" lon="9.182169974004808"><ele>804.0</ele><time>2026-04-27T07:33:09.001Z</time></trkpt><trkpt lat="40.01777587803134" lon="9.181960842726843"><ele>804.0</ele><time>2026-04-27T07:33:10.001Z</time></trkpt><trkpt lat="40.017709456092206" lon="9.181766015406305"><ele>804.0</ele><time>2026-04-27T07:33:11.003Z</time></trkpt><trkpt lat="40.0175857367303" lon="9.181639836117283"><ele>804.0</ele><time>2026-04-27T07:33:12.003Z</time></trkpt><trkpt lat="40.017435576684356" lon="9.181608959671925"><ele>803.6666666666667</ele><time>2026-04-27T07:33:13.003Z</time></trkpt><trkpt lat="40.01725716964164" lon="9.181627756941724"><ele>803.3333333333334</ele><time>2026-04-27T07:33:14.004Z</time></trkpt><trkpt lat="40.0170799786328" lon="9.181635973646772"><ele>803.0</ele><time>2026-04-27T07:33:15.002Z</time></trkpt><trkpt lat="40.0168939640616" lon="9.181647901261373"><ele>803.0</ele><time>2026-04-27T07:33:16.002Z</time></trkpt><trkpt lat="40.01670155429052" lon="9.181643319350162"><ele>803.0</ele><time>2026-04-27T07:33:17.003Z</time></trkpt><trkpt lat="40.016507839195526" lon="9.181643182573882"><ele>803.0</ele><time>2026-04-27T07:33:18.003Z</time></trkpt><trkpt lat="40.01632922927729" lon="9.181630259380356"><ele>799.25</ele><time>2026-04-27T07:33:19.003Z</time></trkpt><trkpt lat="40.016171610941484" lon="9.181626454527327"><ele>795.5</ele><time>2026-04-27T07:33:20.003Z</time></trkpt><trkpt lat="40.0160416763384" lon="9.181651010027508"><ele>791.75</ele><time>2026-04-27T07:33:21.002Z</time></trkpt><trkpt lat="40.015942516422825" lon="9.181755457886464"><ele>788.0</ele><time>2026-04-27T07:33:22.002Z</time></trkpt><trkpt lat="40.01586874581846" lon="9.181943999066078"><ele>784.6666666666667</ele><time>2026-04-27T07:33:23.003Z</time></trkpt><trkpt lat="40.01580034646008" lon="9.182152965985972"><ele>781.3333333333333</ele><time>2026-04-27T07:33:24.003Z</time></trkpt><trkpt lat="40.015676531014776" lon="9.182286508834228"><ele>778.0</ele><time>2026-04-27T07:33:25.003Z</time></trkpt><trkpt lat="40.01556991671689" lon="9.182411164939383"><ele>778.0</ele><time>2026-04-27T07:33:26.003Z</time></trkpt><trkpt lat="40.01554156026278" lon="9.182582637465142"><ele>778.0</ele><time>2026-04-27T07:33:27.003Z</time></trkpt><trkpt lat="40.015582307090504" lon="9.182761788006038"><ele>778.0</ele><time>2026-04-27T07:33:28.003Z</time></trkpt><trkpt lat="40.01567266033794" lon="9.182979732391376"><ele>778.0</ele><time>2026-04-27T07:33:29.003Z</time></trkpt><trkpt lat="40.01569034820654" lon="9.18314981165649"><ele>778.0</ele><time>2026-04-27T07:33:30.003Z</time></trkpt><trkpt lat="40.01564649790237" lon="9.183279872837689"><ele>778.0</ele><time>2026-04-27T07:33:31.003Z</time></trkpt><trkpt lat="40.01554257453818" lon="9.183342927655616"><ele>778.0</ele><time>2026-04-27T07:33:32.003Z</time></trkpt><trkpt lat="40.01541022720298" lon="9.183323278906942"><ele>778.0</ele><time>2026-04-27T07:33:33.003Z</time></trkpt><trkpt lat="40.01526060778815" lon="9.183225330983307"><ele>778.0</ele><time>2026-04-27T07:33:34.003Z</time></trkpt><trkpt lat="40.01510603441454" lon="9.183145489100264"><ele>778.0</ele><time>2026-04-27T07:33:35.002Z</time></trkpt><trkpt lat="40.01494293047665" lon="9.18310945087734"><ele>775.3333333333333</ele><time>2026-04-27T07:33:36.002Z</time></trkpt><trkpt lat="40.01477384454005" lon="9.18306041477972"><ele>772.6666666666667</ele><time>2026-04-27T07:33:37.002Z</time></trkpt><trkpt lat="40.01459740418428" lon="9.183010284525485"><ele>770.0</ele><time>2026-04-27T07:33:38.002Z</time></trkpt><trkpt lat="40.01441868915421" lon="9.182955791839179"><ele>770.0</ele><time>2026-04-27T07:33:39.002Z</time></trkpt><trkpt lat="40.01425334111526" lon="9.182903667098099"><ele>770.0</ele><time>2026-04-27T07:33:40.002Z</time></trkpt><trkpt lat="40.01410222838993" lon="9.182864589431885"><ele>770.0</ele><time>2026-04-27T07:33:41.002Z</time></trkpt><trkpt lat="40.01395099928616" lon="9.182861976766223"><ele>765.6666666666667</ele><time>2026-04-27T07:33:42.002Z</time></trkpt><trkpt lat="40.013834211187536" lon="9.182959461430665"><ele>761.3333333333334</ele><time>2026-04-27T07:33:43.002Z</time></trkpt><trkpt lat="40.01375065854344" lon="9.183152360603499"><ele>757.0</ele><time>2026-04-27T07:33:44.002Z</time></trkpt><trkpt lat="40.013710759038375" lon="9.183393650282992"><ele>763.5</ele><time>2026-04-27T07:33:45.002Z</time></trkpt><trkpt lat="40.01366134464657" lon="9.183600586470176"><ele>770.0</ele><time>2026-04-27T07:33:46.002Z</time></trkpt><trkpt lat="40.01359980764466" lon="9.183731587285212"><ele>776.5</ele><time>2026-04-27T07:33:47.002Z</time></trkpt><trkpt lat="40.01349851182339" lon="9.183767945706343"><ele>783.0</ele><time>2026-04-27T07:33:48.002Z</time></trkpt><trkpt lat="40.013372172123624" lon="9.183680387216263"><ele>781.3333333333333</ele><time>2026-04-27T07:33:49.002Z</time></trkpt><trkpt lat="40.013251636272045" lon="9.18351984841403"><ele>779.6666666666666</ele><time>2026-04-27T07:33:50.002Z</time></trkpt><trkpt lat="40.01316732892971" lon="9.183340826585425"><ele>778.0</ele><time>2026-04-27T07:33:51.002Z</time></trkpt><trkpt lat="40.01305999666053" lon="9.183236745546894"><ele>778.0</ele><time>2026-04-27T07:33:52.002Z</time></trkpt><trkpt lat="40.01293491070392" lon="9.183190345980272"><ele>778.0</ele><time>2026-04-27T07:33:53.002Z</time></trkpt><trkpt lat="40.01278050049043" lon="9.183282163528357"><ele>778.0</ele><time>2026-04-27T07:33:54.002Z</time></trkpt><trkpt lat="40.01264363991714" lon="9.183443172325367"><ele>778.0</ele><time>2026-04-27T07:33:55.002Z</time></trkpt><trkpt lat="40.01251914824078" lon="9.183519327418056"><ele>778.0</ele><time>2026-04-27T07:33:56.002Z</time></trkpt><trkpt lat="40.012361626395034" lon="9.183508781432826"><ele>778.0</ele><time>2026-04-27T07:33:57.002Z</time></trkpt><trkpt lat="40.01222457727717" lon="9.183443166126676"><ele>778.0</ele><time>2026-04-27T07:33:58.002Z</time></trkpt><trkpt lat="40.01210862942505" lon="9.183318348647964"><ele>779.3333333333333</ele><time>2026-04-27T07:33:59.002Z</time></trkpt><trkpt lat="40.01198365418508" lon="9.183192599405402"><ele>780.6666666666667</ele><time>2026-04-27T07:34:00.002Z</time></trkpt><trkpt lat="40.01182913893228" lon="9.183116720351675"><ele>782.0</ele><time>2026-04-27T07:34:01.002Z</time></trkpt><trkpt lat="40.0116282707971" lon="9.183097496100189"><ele>771.6666666666667</ele><time>2026-04-27T07:34:02.002Z</time></trkpt><trkpt lat="40.01143078206872" lon="9.183045264579365"><ele>761.3333333333334</ele><time>2026-04-27T07:34:03.002Z</time></trkpt><trkpt lat="40.01123667636578" lon="9.18298319938611"><ele>751.0</ele><time>2026-04-27T07:34:04.002Z</time></trkpt><trkpt lat="40.01104805619638" lon="9.18292253041191"><ele>751.0</ele><time>2026-04-27T07:34:05.002Z</time></trkpt><trkpt lat="40.01087105386741" lon="9.182876117883279"><ele>751.0</ele><time>2026-04-27T07:34:06.002Z</time></trkpt><trkpt lat="40.01070493305085" lon="9.182859576170971"><ele>751.0</ele><time>2026-04-27T07:34:07.002Z</time></trkpt><trkpt lat="40.01054120725549" lon="9.182895292359511"><ele>746.3333333333334</ele><time>2026-04-27T07:34:08.002Z</time></trkpt><trkpt lat="40.01038504050197" lon="9.18298703999843"><ele>741.6666666666666</ele><time>2026-04-27T07:34:09.002Z</time></trkpt><trkpt lat="40.01021577671139" lon="9.183077642233568"><ele>737.0</ele><time>2026-04-27T07:34:10.002Z</time></trkpt><trkpt lat="40.0100499426983" lon="9.183156298046374"><ele>744.3333333333333</ele><time>2026-04-27T07:34:11.002Z</time></trkpt><trkpt lat="40.00988396930025" lon="9.18324562778045"><ele>751.6666666666666</ele><time>2026-04-27T07:34:12.002Z</time></trkpt><trkpt lat="40.00972921408424" lon="9.183346583506705"><ele>759.0</ele><time>2026-04-27T07:34:13.002Z</time></trkpt><trkpt lat="40.00958616989571" lon="9.183427104577914"><ele>759.0</ele><time>2026-04-27T07:34:14.002Z</time></trkpt><trkpt lat="40.0094265248564" lon="9.183446694285413"><ele>759.0</ele><time>2026-04-27T07:34:15.002Z</time></trkpt><trkpt lat="40.009250911759935" lon="9.18337446848604"><ele>759.0</ele><time>2026-04-27T07:34:16.002Z</time></trkpt><trkpt lat="40.00908392298744" lon="9.183308680563718"><ele>755.3333333333334</ele><time>2026-04-27T07:34:17.002Z</time></trkpt><trkpt lat="40.00891010363064" lon="9.18328915594148"><ele>751.6666666666667</ele><time>2026-04-27T07:34:18.002Z</time></trkpt><trkpt lat="40.0087266919529" lon="9.183316644117014"><ele>748.0</ele><time>2026-04-27T07:34:19.002Z</time></trkpt><trkpt lat="40.00856475718883" lon="9.18339109930966"><ele>748.0</ele><time>2026-04-27T07:34:20.002Z</time></trkpt><trkpt lat="40.00840433661908" lon="9.183498763911475"><ele>748.0</ele><time>2026-04-27T07:34:21.002Z</time></trkpt><trkpt lat="40.00826351788059" lon="9.183616030612573"><ele>748.0</ele><time>2026-04-27T07:34:22.002Z</time></trkpt><trkpt lat="40.008106097980274" lon="9.183713126486202"><ele>742.0</ele><time>2026-04-27T07:34:23.002Z</time></trkpt><trkpt lat="40.00793869690756" lon="9.1837988988112"><ele>736.0</ele><time>2026-04-27T07:34:24.002Z</time></trkpt><trkpt lat="40.007781064217035" lon="9.183880533076577"><ele>730.0</ele><time>2026-04-27T07:34:25.002Z</time></trkpt><trkpt lat="40.007625373613415" lon="9.183977288797434"><ele>726.25</ele><time>2026-04-27T07:34:26.002Z</time></trkpt><trkpt lat="40.007490537108374" lon="9.184077384085938"><ele>722.5</ele><time>2026-04-27T07:34:27.002Z</time></trkpt><trkpt lat="40.00738464995373" lon="9.184160654583994"><ele>718.75</ele><time>2026-04-27T07:34:28.002Z</time></trkpt><trkpt lat="40.00733895527613" lon="9.184275358287756"><ele>715.0</ele><time>2026-04-27T07:34:29.002Z</time></trkpt><trkpt lat="40.00737115103874" lon="9.184425946935168"><ele>715.0</ele><time>2026-04-27T07:34:30.002Z</time></trkpt><trkpt lat="40.00747766695791" lon="9.18459202514052"><ele>715.0</ele><time>2026-04-27T07:34:31.002Z</time></trkpt><trkpt lat="40.007591965439005" lon="9.184754972948292"><ele>715.0</ele><time>2026-04-27T07:34:32.002Z</time></trkpt><trkpt lat="40.00766176920674" lon="9.184947760336101"><ele>719.5</ele><time>2026-04-27T07:34:33.002Z</time></trkpt><trkpt lat="40.00770709163166" lon="9.18511510419158"><ele>724.0</ele><time>2026-04-27T07:34:34.002Z</time></trkpt><trkpt lat="40.00772921309791" lon="9.185295676129726"><ele>728.5</ele><time>2026-04-27T07:34:35.002Z</time></trkpt><trkpt lat="40.00772148200602" lon="9.185497595754663"><ele>733.0</ele><time>2026-04-27T07:34:36.002Z</time></trkpt><trkpt lat="40.007661637914715" lon="9.18568877609329"><ele>733.0</ele><time>2026-04-27T07:34:37.002Z</time></trkpt><trkpt lat="40.00760322617828" lon="9.185873978219234"><ele>733.0</ele><time>2026-04-27T07:34:38.002Z</time></trkpt><trkpt lat="40.007582595748254" lon="9.186064979991095"><ele>733.0</ele><time>2026-04-27T07:34:39.002Z</time></trkpt><trkpt lat="40.00763282215598" lon="9.186251227990457"><ele>733.0</ele><time>2026-04-27T07:34:40.002Z</time></trkpt><trkpt lat="40.007740596920115" lon="9.186388753005028"><ele>733.0</ele><time>2026-04-27T07:34:41.002Z</time></trkpt><trkpt lat="40.00791066292425" lon="9.186452517586734"><ele>733.0</ele><time>2026-04-27T07:34:42.002Z</time></trkpt><trkpt lat="40.008090029627745" lon="9.186486293542428"><ele>728.75</ele><time>2026-04-27T07:34:43.002Z</time></trkpt><trkpt lat="40.008222223677095" lon="9.18657794492766"><ele>724.5</ele><time>2026-04-27T07:34:44.002Z</time></trkpt><trkpt lat="40.00828893781594" lon="9.186714601280354"><ele>720.25</ele><time>2026-04-27T07:34:45.002Z</time></trkpt><trkpt lat="40.00828919208416" lon="9.186881652685317"><ele>716.0</ele><time>2026-04-27T07:34:46.002Z</time></trkpt><trkpt lat="40.00822061882039" lon="9.187057599318745"><ele>716.0</ele><time>2026-04-27T07:34:47.001Z</time></trkpt><trkpt lat="40.00814144719363" lon="9.187240506802455"><ele>716.0</ele><time>2026-04-27T07:34:48.001Z</time></trkpt><trkpt lat="40.00814364174783" lon="9.187450198009358"><ele>716.0</ele><time>2026-04-27T07:34:49.001Z</time></trkpt><trkpt lat="40.00817855867946" lon="9.187659828147298"><ele>714.25</ele><time>2026-04-27T07:34:50.001Z</time></trkpt><trkpt lat="40.008215578379236" lon="9.18785240066679"><ele>712.5</ele><time>2026-04-27T07:34:51.001Z</time></trkpt><trkpt lat="40.00822660503704" lon="9.187998396454029"><ele>710.75</ele><time>2026-04-27T07:34:52.001Z</time></trkpt><trkpt lat="40.00817489691138" lon="9.188113386823309"><ele>709.0</ele><time>2026-04-27T07:34:53.001Z</time></trkpt><trkpt lat="40.00808325680822" lon="9.188148800690193"><ele>709.0</ele><time>2026-04-27T07:34:54.001Z</time></trkpt><trkpt lat="40.00794833174066" lon="9.18808499860773"><ele>709.0</ele><time>2026-04-27T07:34:55.001Z</time></trkpt><trkpt lat="40.00780050389671" lon="9.187998517419837"><ele>709.0</ele><time>2026-04-27T07:34:56.001Z</time></trkpt><trkpt lat="40.00767283380276" lon="9.187946472480629"><ele>709.0</ele><time>2026-04-27T07:34:57.001Z</time></trkpt><trkpt lat="40.00753583073247" lon="9.187964829781514"><ele>704.0</ele><time>2026-04-27T07:34:58.001Z</time></trkpt><trkpt lat="40.00739726563525" lon="9.188029356251207"><ele>699.0</ele><time>2026-04-27T07:34:59.001Z</time></trkpt><trkpt lat="40.00728649509261" lon="9.188143656557775"><ele>694.0</ele><time>2026-04-27T07:35:00.001Z</time></trkpt><trkpt lat="40.007195595339255" lon="9.18829635762356"><ele>689.0</ele><time>2026-04-27T07:35:01.001Z</time></trkpt><trkpt lat="40.007146159818106" lon="9.188484172092044"><ele>689.0</ele><time>2026-04-27T07:35:02.001Z</time></trkpt><trkpt lat="40.00711857684905" lon="9.18867818748894"><ele>689.0</ele><time>2026-04-27T07:35:03.001Z</time></trkpt><trkpt lat="40.00706200001575" lon="9.188865866428133"><ele>689.0</ele><time>2026-04-27T07:35:04.001Z</time></trkpt><trkpt lat="40.00699101339139" lon="9.18903953903128"><ele>692.25</ele><time>2026-04-27T07:35:05.001Z</time></trkpt><trkpt lat="40.00697805968852" lon="9.189239975667055"><ele>695.5</ele><time>2026-04-27T07:35:06.001Z</time></trkpt><trkpt lat="40.00699710372562" lon="9.189438173802829"><ele>698.75</ele><time>2026-04-27T07:35:07.001Z</time></trkpt><trkpt lat="40.00700863398285" lon="9.189608607247843"><ele>702.0</ele><time>2026-04-27T07:35:08.001Z</time></trkpt><trkpt lat="40.006967940246085" lon="9.189757977472565"><ele>705.75</ele><time>2026-04-27T07:35:09.001Z</time></trkpt><trkpt lat="40.006845740557004" lon="9.189854876744135"><ele>709.5</ele><time>2026-04-27T07:35:10.001Z</time></trkpt><trkpt lat="40.00671547354824" lon="9.189935330029382"><ele>713.25</ele><time>2026-04-27T07:35:11.001Z</time></trkpt><trkpt lat="40.00661943744281" lon="9.190045495622742"><ele>717.0</ele><time>2026-04-27T07:35:12.001Z</time></trkpt><trkpt lat="40.00653798952978" lon="9.190199635553949"><ele>711.5</ele><time>2026-04-27T07:35:13.001Z</time></trkpt><trkpt lat="40.00649060755017" lon="9.190355969725784"><ele>706.0</ele><time>2026-04-27T07:35:14.001Z</time></trkpt><trkpt lat="40.00644478746418" lon="9.190497134627012"><ele>700.5</ele><time>2026-04-27T07:35:15.001Z</time></trkpt><trkpt lat="40.00639381311063" lon="9.190635322990401"><ele>695.0</ele><time>2026-04-27T07:35:16.001Z</time></trkpt><trkpt lat="40.006347188708986" lon="9.190800352477813"><ele>695.0</ele><time>2026-04-27T07:35:17.003Z</time></trkpt><trkpt lat="40.00630060388091" lon="9.191008100935768"><ele>695.0</ele><time>2026-04-27T07:35:18.003Z</time></trkpt><trkpt lat="40.00625770392623" lon="9.19126388547328"><ele>695.0</ele><time>2026-04-27T07:35:19.003Z</time></trkpt><trkpt lat="40.00619680977978" lon="9.191528188654344"><ele>697.6666666666666</ele><time>2026-04-27T07:35:20.004Z</time></trkpt><trkpt lat="40.006133693907984" lon="9.191790569703679"><ele>700.3333333333334</ele><time>2026-04-27T07:35:21.003Z</time></trkpt><trkpt lat="40.006073497738285" lon="9.192043037847856"><ele>703.0</ele><time>2026-04-27T07:35:22.003Z</time></trkpt><trkpt lat="40.00602535558266" lon="9.192290678280232"><ele>707.3333333333334</ele><time>2026-04-27T07:35:23.003Z</time></trkpt><trkpt lat="40.00598612132541" lon="9.19252167101504"><ele>711.6666666666666</ele><time>2026-04-27T07:35:24.003Z</time></trkpt><trkpt lat="40.00594921594102" lon="9.192728650456539"><ele>716.0</ele><time>2026-04-27T07:35:25.003Z</time></trkpt><trkpt lat="40.00592505056538" lon="9.192909366168113"><ele>716.0</ele><time>2026-04-27T07:35:26.003Z</time></trkpt><trkpt lat="40.00590414480276" lon="9.193073067850333"><ele>716.0</ele><time>2026-04-27T07:35:27.003Z</time></trkpt><trkpt lat="40.00588911848405" lon="9.193196415571135"><ele>716.0</ele><time>2026-04-27T07:35:28.003Z</time></trkpt><trkpt lat="40.00582567187001" lon="9.193256133454378"><ele>716.0</ele><time>2026-04-27T07:35:29.003Z</time></trkpt><trkpt lat="40.00573564518522" lon="9.19322374770585"><ele>716.0</ele><time>2026-04-27T07:35:30.003Z</time></trkpt><trkpt lat="40.00564972035313" lon="9.193079402922711"><ele>726.0</ele><time>2026-04-27T07:35:31.003Z</time></trkpt><trkpt lat="40.0055947062887" lon="9.192871662830028"><ele>736.0</ele><time>2026-04-27T07:35:32.003Z</time></trkpt><trkpt lat="40.005544829426924" lon="9.192665030980304"><ele>746.0</ele><time>2026-04-27T07:35:33.003Z</time></trkpt><trkpt lat="40.00548560374344" lon="9.19243971568756"><ele>741.0</ele><time>2026-04-27T07:35:34.003Z</time></trkpt><trkpt lat="40.00545791308465" lon="9.192199100119948"><ele>736.0</ele><time>2026-04-27T07:35:35.003Z</time></trkpt><trkpt lat="40.00544443152256" lon="9.191950078714958"><ele>731.0</ele><time>2026-04-27T07:35:36.003Z</time></trkpt><trkpt lat="40.00542120325024" lon="9.191683109233114"><ele>727.3333333333333</ele><time>2026-04-27T07:35:37.002Z</time></trkpt><trkpt lat="40.00540222208273" lon="9.191414572258596"><ele>723.6666666666666</ele><time>2026-04-27T07:35:38.002Z</time></trkpt><trkpt lat="40.00537947338968" lon="9.191136815468775"><ele>720.0</ele><time>2026-04-27T07:35:39.002Z</time></trkpt><trkpt lat="40.00535337070199" lon="9.190854781515656"><ele>715.6666666666666</ele><time>2026-04-27T07:35:40.002Z</time></trkpt><trkpt lat="40.00532566771696" lon="9.190577013850223"><ele>711.3333333333333</ele><time>2026-04-27T07:35:41.002Z</time></trkpt><trkpt lat="40.005297861582505" lon="9.190296134430703"><ele>707.0</ele><time>2026-04-27T07:35:42.002Z</time></trkpt><trkpt lat="40.00526885389489" lon="9.190011094629442"><ele>705.3333333333333</ele><time>2026-04-27T07:35:43.002Z</time></trkpt><trkpt lat="40.005241682857736" lon="9.189726339718904"><ele>703.6666666666666</ele><time>2026-04-27T07:35:44.002Z</time></trkpt><trkpt lat="40.005210031868295" lon="9.189440580573207"><ele>702.0</ele><time>2026-04-27T07:35:45.002Z</time></trkpt><trkpt lat="40.00518450398467" lon="9.189151020227502"><ele>699.6666666666666</ele><time>2026-04-27T07:35:46.002Z</time></trkpt><trkpt lat="40.00515735494454" lon="9.188864135165117"><ele>697.3333333333333</ele><time>2026-04-27T07:35:47.002Z</time></trkpt><trkpt lat="40.0051323384089" lon="9.18859179541436"><ele>695.0</ele><time>2026-04-27T07:35:48.002Z</time></trkpt><trkpt lat="40.0051085403064" lon="9.188331654406731"><ele>691.0</ele><time>2026-04-27T07:35:49.002Z</time></trkpt><trkpt lat="40.00510124544234" lon="9.18808463384417"><ele>687.0</ele><time>2026-04-27T07:35:50.002Z</time></trkpt><trkpt lat="40.00511772364085" lon="9.187834604231481"><ele>683.0</ele><time>2026-04-27T07:35:51.002Z</time></trkpt><trkpt lat="40.005122195662956" lon="9.187604694165454"><ele>683.0</ele><time>2026-04-27T07:35:52.002Z</time></trkpt><trkpt lat="40.00507038666888" lon="9.187372488401891"><ele>683.0</ele><time>2026-04-27T07:35:53.002Z</time></trkpt><trkpt lat="40.00496411672259" lon="9.18716231969873"><ele>683.0</ele><time>2026-04-27T07:35:54.002Z</time></trkpt><trkpt lat="40.004846197036" lon="9.186929781120387"><ele>681.3333333333333</ele><time>2026-04-27T07:35:55.002Z</time></trkpt><trkpt lat="40.004736014117405" lon="9.18670065864372"><ele>679.6666666666666</ele><time>2026-04-27T07:35:56.002Z</time></trkpt><trkpt lat="40.00461971083095" lon="9.186495162127901"><ele>678.0</ele><time>2026-04-27T07:35:57.002Z</time></trkpt><trkpt lat="40.004476856254634" lon="9.186353474105992"><ele>678.0</ele><time>2026-04-27T07:35:58.002Z</time></trkpt><trkpt lat="40.004321621875306" lon="9.186214892375165"><ele>678.0</ele><time>2026-04-27T07:35:59.002Z</time></trkpt><trkpt lat="40.0041916644445" lon="9.186071785335727"><ele>678.0</ele><time>2026-04-27T07:36:00.002Z</time></trkpt><trkpt lat="40.00413353127508" lon="9.185898740306985"><ele>683.6666666666666</ele><time>2026-04-27T07:36:01.002Z</time></trkpt><trkpt lat="40.00409970304079" lon="9.185688892323713"><ele>689.3333333333333</ele><time>2026-04-27T07:36:02.002Z</time></trkpt><trkpt lat="40.00407724399866" lon="9.185440094984534"><ele>695.0</ele><time>2026-04-27T07:36:03.002Z</time></trkpt><trkpt lat="40.00405845576684" lon="9.18520284958283"><ele>695.0</ele><time>2026-04-27T07:36:04.002Z</time></trkpt><trkpt lat="40.004014606222555" lon="9.184985391771804"><ele>695.0</ele><time>2026-04-27T07:36:05.002Z</time></trkpt><trkpt lat="40.00394862108832" lon="9.184804541553836"><ele>695.0</ele><time>2026-04-27T07:36:06.002Z</time></trkpt><trkpt lat="40.0038293311159" lon="9.184660879078796"><ele>687.6666666666666</ele><time>2026-04-27T07:36:07.002Z</time></trkpt><trkpt lat="40.00367447475574" lon="9.184533360993541"><ele>680.3333333333334</ele><time>2026-04-27T07:36:08.002Z</time></trkpt><trkpt lat="40.00351481845774" lon="9.184403642707705"><ele>673.0</ele><time>2026-04-27T07:36:09.002Z</time></trkpt><trkpt lat="40.00336717446328" lon="9.184248203971455"><ele>672.3333333333334</ele><time>2026-04-27T07:36:10.002Z</time></trkpt><trkpt lat="40.00324856046966" lon="9.184057436493244"><ele>671.6666666666666</ele><time>2026-04-27T07:36:11.002Z</time></trkpt><trkpt lat="40.003143503422145" lon="9.183852371922843"><ele>671.0</ele><time>2026-04-27T07:36:12.002Z</time></trkpt><trkpt lat="40.003043380038925" lon="9.183644514533334"><ele>671.0</ele><time>2026-04-27T07:36:13.002Z</time></trkpt><trkpt lat="40.00296407175415" lon="9.183420875092636"><ele>671.0</ele><time>2026-04-27T07:36:14.002Z</time></trkpt><trkpt lat="40.0029048623161" lon="9.183196835910094"><ele>671.0</ele><time>2026-04-27T07:36:15.002Z</time></trkpt><trkpt lat="40.002871730101205" lon="9.182986560284037"><ele>666.5</ele><time>2026-04-27T07:36:16.002Z</time></trkpt><trkpt lat="40.00284738561599" lon="9.182797579612076"><ele>662.0</ele><time>2026-04-27T07:36:17.002Z</time></trkpt><trkpt lat="40.00280644617966" lon="9.182640518229695"><ele>657.5</ele><time>2026-04-27T07:36:18.002Z</time></trkpt><trkpt lat="40.00273344217101" lon="9.18254842812864"><ele>653.0</ele><time>2026-04-27T07:36:19.002Z</time></trkpt><trkpt lat="40.002627363371886" lon="9.182524469421212"><ele>653.0</ele><time>2026-04-27T07:36:20.002Z</time></trkpt><trkpt lat="40.00252387429882" lon="9.182592622071303"><ele>653.0</ele><time>2026-04-27T07:36:21.002Z</time></trkpt><trkpt lat="40.00242984876286" lon="9.182740507356614"><ele>653.0</ele><time>2026-04-27T07:36:22.002Z</time></trkpt><trkpt lat="40.00233424591238" lon="9.182905219843903"><ele>653.0</ele><time>2026-04-27T07:36:23.002Z</time></trkpt><trkpt lat="40.00220858626057" lon="9.183032497238099"><ele>653.25</ele><time>2026-04-27T07:36:24.002Z</time></trkpt><trkpt lat="40.002076460443384" lon="9.18312227892891"><ele>653.5</ele><time>2026-04-27T07:36:25.002Z</time></trkpt><trkpt lat="40.001948429362834" lon="9.183156203948815"><ele>653.75</ele><time>2026-04-27T07:36:26.002Z</time></trkpt><trkpt lat="40.00180542893388" lon="9.18309460358726"><ele>654.0</ele><time>2026-04-27T07:36:27.002Z</time></trkpt><trkpt lat="40.001700834722556" lon="9.182958282954829"><ele>653.6666666666666</ele><time>2026-04-27T07:36:28.002Z</time></trkpt><trkpt lat="40.00165428704786" lon="9.182753596799664"><ele>653.3333333333333</ele><time>2026-04-27T07:36:29.002Z</time></trkpt><trkpt lat="40.00162965020841" lon="9.182519033434723"><ele>653.0</ele><time>2026-04-27T07:36:30.002Z</time></trkpt><trkpt lat="40.00158287757082" lon="9.182299997439182"><ele>653.0</ele><time>2026-04-27T07:36:31.002Z</time></trkpt><trkpt lat="40.001507660063126" lon="9.182077371646853"><ele>653.0</ele><time>2026-04-27T07:36:32.002Z</time></trkpt><trkpt lat="40.00141659386763" lon="9.181867965074712"><ele>653.0</ele><time>2026-04-27T07:36:33.002Z</time></trkpt><trkpt lat="40.001338863331505" lon="9.181670836669142"><ele>646.0</ele><time>2026-04-27T07:36:34.002Z</time></trkpt><trkpt lat="40.00125228643765" lon="9.181511667900208"><ele>639.0</ele><time>2026-04-27T07:36:35.002Z</time></trkpt><trkpt lat="40.00112889019631" lon="9.181394361133517"><ele>632.0</ele><time>2026-04-27T07:36:36.002Z</time></trkpt><trkpt lat="40.00097000953941" lon="9.181319059522611"><ele>630.0</ele><time>2026-04-27T07:36:37.002Z</time></trkpt><trkpt lat="40.000776433252405" lon="9.181302739736745"><ele>628.0</ele><time>2026-04-27T07:36:38.002Z</time></trkpt><trkpt lat="40.000589589691124" lon="9.181284713268848"><ele>626.0</ele><time>2026-04-27T07:36:39.002Z</time></trkpt><trkpt lat="40.00042341893323" lon="9.18123920613906"><ele>626.0</ele><time>2026-04-27T07:36:40.002Z</time></trkpt><trkpt lat="40.00015765924866" lon="9.181410125844343"><ele>626.0</ele><time>2026-04-27T07:36:41.002Z</time></trkpt><trkpt lat="39.99995253869976" lon="9.18144518347724"><ele>626.0</ele><time>2026-04-27T07:36:42.002Z</time></trkpt><trkpt lat="39.999749866260565" lon="9.181486191844517"><ele>626.0</ele><time>2026-04-27T07:36:43.002Z</time></trkpt><trkpt lat="39.999559201594295" lon="9.18152400453945"><ele>626.0</ele><time>2026-04-27T07:36:44.002Z</time></trkpt><trkpt lat="39.99938172218135" lon="9.18154978358486"><ele>628.25</ele><time>2026-04-27T07:36:45.002Z</time></trkpt><trkpt lat="39.99922170692004" lon="9.181534183256504"><ele>630.5</ele><time>2026-04-27T07:36:46.002Z</time></trkpt><trkpt lat="39.999094631837465" lon="9.181523280440183"><ele>632.75</ele><time>2026-04-27T07:36:47.002Z</time></trkpt><trkpt lat="39.998994791636925" lon="9.18157630064203"><ele>635.0</ele><time>2026-04-27T07:36:48.002Z</time></trkpt><trkpt lat="39.99892819795463" lon="9.1817167245178"><ele>635.0</ele><time>2026-04-27T07:36:49.002Z</time></trkpt><trkpt lat="39.99890565632932" lon="9.18191931294358"><ele>635.0</ele><time>2026-04-27T07:36:50.001Z</time></trkpt><trkpt lat="39.99889940286631" lon="9.182146908112784"><ele>635.0</ele><time>2026-04-27T07:36:51.001Z</time></trkpt><trkpt lat="39.998875261057435" lon="9.182381490386726"><ele>640.0</ele><time>2026-04-27T07:36:52.001Z</time></trkpt><trkpt lat="39.99882152614807" lon="9.182573105911052"><ele>645.0</ele><time>2026-04-27T07:36:53.001Z</time></trkpt><trkpt lat="39.9987203963009" lon="9.182740623822772"><ele>650.0</ele><time>2026-04-27T07:36:54.001Z</time></trkpt><trkpt lat="39.998617882399685" lon="9.182888819037494"><ele>650.0</ele><time>2026-04-27T07:36:55.001Z</time></trkpt><trkpt lat="39.99854269081562" lon="9.18299066838499"><ele>650.0</ele><time>2026-04-27T07:36:56.001Z</time></trkpt><trkpt lat="39.99844558918454" lon="9.183020104293997"><ele>650.0</ele><time>2026-04-27T07:36:57.001Z</time></trkpt><trkpt lat="39.998350344039885" lon="9.18294283066495"><ele>650.0</ele><time>2026-04-27T07:36:58.001Z</time></trkpt><trkpt lat="39.99825337185607" lon="9.182775879486107"><ele>642.6666666666666</ele><time>2026-04-27T07:36:59.001Z</time></trkpt><trkpt lat="39.99813344033342" lon="9.182608046193277"><ele>635.3333333333334</ele><time>2026-04-27T07:37:00.001Z</time></trkpt><trkpt lat="39.99798871709072" lon="9.182447189915537"><ele>628.0</ele><time>2026-04-27T07:37:01.001Z</time></trkpt><trkpt lat="39.99783594345473" lon="9.182310382722555"><ele>622.3333333333334</ele><time>2026-04-27T07:37:02.001Z</time></trkpt><trkpt lat="39.9976697201192" lon="9.18221225012565"><ele>616.6666666666666</ele><time>2026-04-27T07:37:03.001Z</time></trkpt><trkpt lat="39.997490629187055" lon="9.18213449438184"><ele>611.0</ele><time>2026-04-27T07:37:04.001Z</time></trkpt><trkpt lat="39.997303755613686" lon="9.182046139165356"><ele>611.0</ele><time>2026-04-27T07:37:05.001Z</time></trkpt><trkpt lat="39.99713484400066" lon="9.181941450364391"><ele>611.0</ele><time>2026-04-27T07:37:06.001Z</time></trkpt><trkpt lat="39.99698385382762" lon="9.181834936778543"><ele>611.0</ele><time>2026-04-27T07:37:07.001Z</time></trkpt><trkpt lat="39.99682620655375" lon="9.181795330722018"><ele>611.3333333333333</ele><time>2026-04-27T07:37:08.001Z</time></trkpt><trkpt lat="39.996648551456325" lon="9.181855395171755"><ele>611.6666666666666</ele><time>2026-04-27T07:37:09.001Z</time></trkpt><trkpt lat="39.996455328779035" lon="9.181902074451505"><ele>612.0</ele><time>2026-04-27T07:37:10.001Z</time></trkpt><trkpt lat="39.996274747294464" lon="9.181961257720024"><ele>612.0</ele><time>2026-04-27T07:37:11.001Z</time></trkpt><trkpt lat="39.996116475785676" lon="9.182017805629803"><ele>612.0</ele><time>2026-04-27T07:37:12.001Z</time></trkpt><trkpt lat="39.99596771978012" lon="9.182024279290896"><ele>612.0</ele><time>2026-04-27T07:37:13.001Z</time></trkpt><trkpt lat="39.99580324653877" lon="9.181888323302474"><ele>610.75</ele><time>2026-04-27T07:37:14.001Z</time></trkpt><trkpt lat="39.99570054647168" lon="9.181714934568461"><ele>609.5</ele><time>2026-04-27T07:37:15.001Z</time></trkpt><trkpt lat="39.99558352212202" lon="9.18163218952849"><ele>608.25</ele><time>2026-04-27T07:37:16.001Z</time></trkpt><trkpt lat="39.99543706810407" lon="9.181653033377891"><ele>607.0</ele><time>2026-04-27T07:37:17.001Z</time></trkpt><trkpt lat="39.995312682013505" lon="9.181811374486259"><ele>607.0</ele><time>2026-04-27T07:37:18.001Z</time></trkpt><trkpt lat="39.99525951928554" lon="9.182019272719781"><ele>607.0</ele><time>2026-04-27T07:37:19.001Z</time></trkpt><trkpt lat="39.995195312162075" lon="9.182238089797135"><ele>607.0</ele><time>2026-04-27T07:37:20.001Z</time></trkpt><trkpt lat="39.99512587482206" lon="9.182455129827245"><ele>608.0</ele><time>2026-04-27T07:37:21.001Z</time></trkpt><trkpt lat="39.99502807074166" lon="9.18259934454521"><ele>609.0</ele><time>2026-04-27T07:37:22.001Z</time></trkpt><trkpt lat="39.99494956411276" lon="9.18268311737614"><ele>610.0</ele><time>2026-04-27T07:37:23.003Z</time></trkpt><trkpt lat="39.99486690255528" lon="9.182698163440246"><ele>611.0</ele><time>2026-04-27T07:37:24.003Z</time></trkpt><trkpt lat="39.99478586023082" lon="9.182614557983712"><ele>612.0</ele><time>2026-04-27T07:37:25.002Z</time></trkpt><trkpt lat="39.99474761237223" lon="9.182460564150238"><ele>606.3333333333334</ele><time>2026-04-27T07:37:26.003Z</time></trkpt><trkpt lat="39.994699023183756" lon="9.182280543661093"><ele>600.6666666666667</ele><time>2026-04-27T07:37:27.003Z</time></trkpt><trkpt lat="39.994589998416316" lon="9.182111041667063"><ele>595.0</ele><time>2026-04-27T07:37:28.003Z</time></trkpt><trkpt lat="39.994436129007724" lon="9.181968076834696"><ele>595.0</ele><time>2026-04-27T07:37:29.004Z</time></trkpt><trkpt lat="39.99426004310813" lon="9.181856006786582"><ele>595.0</ele><time>2026-04-27T07:37:30.003Z</time></trkpt><trkpt lat="39.99409951396132" lon="9.181764104845836"><ele>595.0</ele><time>2026-04-27T07:37:31.003Z</time></trkpt><trkpt lat="39.99393310843071" lon="9.181715132128339"><ele>594.0</ele><time>2026-04-27T07:37:32.003Z</time></trkpt><trkpt lat="39.99374967539237" lon="9.181738570043303"><ele>593.0</ele><time>2026-04-27T07:37:33.003Z</time></trkpt><trkpt lat="39.993564057673275" lon="9.181766135171033"><ele>592.0</ele><time>2026-04-27T07:37:34.003Z</time></trkpt><trkpt lat="39.99337954298582" lon="9.181794749568294"><ele>590.3333333333334</ele><time>2026-04-27T07:37:35.004Z</time></trkpt><trkpt lat="39.99320672294561" lon="9.181822954423017"><ele>588.6666666666666</ele><time>2026-04-27T07:37:36.003Z</time></trkpt><trkpt lat="39.993052528975255" lon="9.181868048531317"><ele>587.0</ele><time>2026-04-27T07:37:37.002Z</time></trkpt><trkpt lat="39.99289494331076" lon="9.18194272486212"><ele>587.0</ele><time>2026-04-27T07:37:38.002Z</time></trkpt><trkpt lat="39.99275644652366" lon="9.182051968145382"><ele>587.0</ele><time>2026-04-27T07:37:39.002Z</time></trkpt><trkpt lat="39.99262499745853" lon="9.182148621641792"><ele>587.0</ele><time>2026-04-27T07:37:40.002Z</time></trkpt><trkpt lat="39.99249652993928" lon="9.182234839715228"><ele>587.25</ele><time>2026-04-27T07:37:41.002Z</time></trkpt><trkpt lat="39.99237842115658" lon="9.182328336726487"><ele>587.5</ele><time>2026-04-27T07:37:42.002Z</time></trkpt><trkpt lat="39.99227166853429" lon="9.18245991456356"><ele>587.75</ele><time>2026-04-27T07:37:43.002Z</time></trkpt><trkpt lat="39.99221216367505" lon="9.182627451877451"><ele>588.0</ele><time>2026-04-27T07:37:44.002Z</time></trkpt><trkpt lat="39.99219542962527" lon="9.182826938930356"><ele>588.0</ele><time>2026-04-27T07:37:45.002Z</time></trkpt><trkpt lat="39.992209170028175" lon="9.183030015647093"><ele>588.0</ele><time>2026-04-27T07:37:46.002Z</time></trkpt><trkpt lat="39.99220321597978" lon="9.183183461724651"><ele>588.0</ele><time>2026-04-27T07:37:47.002Z</time></trkpt><trkpt lat="39.99216873084575" lon="9.183282269260758"><ele>588.0</ele><time>2026-04-27T07:37:48.002Z</time></trkpt><trkpt lat="39.992094222721036" lon="9.18333069534452"><ele>588.0</ele><time>2026-04-27T07:37:49.002Z</time></trkpt><trkpt lat="39.99199651207663" lon="9.18332474228762"><ele>588.0</ele><time>2026-04-27T07:37:50.002Z</time></trkpt><trkpt lat="39.99190223886462" lon="9.18326343579603"><ele>588.0</ele><time>2026-04-27T07:37:51.002Z</time></trkpt><trkpt lat="39.99181986915281" lon="9.183161902829475"><ele>588.0</ele><time>2026-04-27T07:37:52.002Z</time></trkpt><trkpt lat="39.991739217825014" lon="9.18307165161017"><ele>588.0</ele><time>2026-04-27T07:37:53.002Z</time></trkpt><trkpt lat="39.991650499661155" lon="9.182988244527623"><ele>588.0</ele><time>2026-04-27T07:37:54.002Z</time></trkpt><trkpt lat="39.991561405492554" lon="9.182894035470731"><ele>584.5</ele><time>2026-04-27T07:37:55.002Z</time></trkpt><trkpt lat="39.991458316719" lon="9.182804029555015"><ele>581.0</ele><time>2026-04-27T07:37:56.002Z</time></trkpt><trkpt lat="39.99134839923198" lon="9.182764030314686"><ele>577.5</ele><time>2026-04-27T07:37:57.002Z</time></trkpt><trkpt lat="39.99121683267958" lon="9.182780077753723"><ele>574.0</ele><time>2026-04-27T07:37:58.002Z</time></trkpt><trkpt lat="39.991080186125835" lon="9.182840531921608"><ele>574.0</ele><time>2026-04-27T07:37:59.002Z</time></trkpt><trkpt lat="39.99094689811546" lon="9.182939208533508"><ele>574.0</ele><time>2026-04-27T07:38:00.002Z</time></trkpt><trkpt lat="39.990822050314875" lon="9.183052523364404"><ele>574.0</ele><time>2026-04-27T07:38:01.002Z</time></trkpt><trkpt lat="39.990681017651596" lon="9.183130686235017"><ele>576.6666666666667</ele><time>2026-04-27T07:38:02.002Z</time></trkpt><trkpt lat="39.99051986265658" lon="9.183180442605977"><ele>579.3333333333334</ele><time>2026-04-27T07:38:03.002Z</time></trkpt><trkpt lat="39.9903786917349" lon="9.183234065575709"><ele>582.0</ele><time>2026-04-27T07:38:04.002Z</time></trkpt><trkpt lat="39.9902736541177" lon="9.183376512221454"><ele>582.0</ele><time>2026-04-27T07:38:05.002Z</time></trkpt><trkpt lat="39.990188524102365" lon="9.183569739585279"><ele>582.0</ele><time>2026-04-27T07:38:06.002Z</time></trkpt><trkpt lat="39.99011828420286" lon="9.183761266361419"><ele>582.0</ele><time>2026-04-27T07:38:07.002Z</time></trkpt><trkpt lat="39.99004396735003" lon="9.183896679402501"><ele>577.75</ele><time>2026-04-27T07:38:08.002Z</time></trkpt><trkpt lat="39.98992593426621" lon="9.183930037584071"><ele>573.5</ele><time>2026-04-27T07:38:09.002Z</time></trkpt><trkpt lat="39.989795384222774" lon="9.183916837432767"><ele>569.25</ele><time>2026-04-27T07:38:10.002Z</time></trkpt><trkpt lat="39.989612122930005" lon="9.18392152770126"><ele>565.0</ele><time>2026-04-27T07:38:11.002Z</time></trkpt><trkpt lat="39.989441240118936" lon="9.183959510286948"><ele>566.0</ele><time>2026-04-27T07:38:12.002Z</time></trkpt><trkpt lat="39.989284240761805" lon="9.184031315202452"><ele>567.0</ele><time>2026-04-27T07:38:13.002Z</time></trkpt><trkpt lat="39.989119275854975" lon="9.184044170882805"><ele>568.0</ele><time>2026-04-27T07:38:14.002Z</time></trkpt><trkpt lat="39.98894616356426" lon="9.183975973782259"><ele>568.0</ele><time>2026-04-27T07:38:15.002Z</time></trkpt><trkpt lat="39.988807163672234" lon="9.18394916780422"><ele>568.0</ele><time>2026-04-27T07:38:16.002Z</time></trkpt><trkpt lat="39.988651764855966" lon="9.18401767041375"><ele>568.0</ele><time>2026-04-27T07:38:17.002Z</time></trkpt><trkpt lat="39.98850247350378" lon="9.184184808660575"><ele>568.0</ele><time>2026-04-27T07:38:18.002Z</time></trkpt><trkpt lat="39.9883455910033" lon="9.184342662404692"><ele>568.0</ele><time>2026-04-27T07:38:19.002Z</time></trkpt><trkpt lat="39.98817668855231" lon="9.184473544095711"><ele>568.0</ele><time>2026-04-27T07:38:20.002Z</time></trkpt><trkpt lat="39.98800899576322" lon="9.184604453472083"><ele>569.3333333333334</ele><time>2026-04-27T07:38:21.002Z</time></trkpt><trkpt lat="39.987853180833376" lon="9.184747410664377"><ele>570.6666666666666</ele><time>2026-04-27T07:38:22.002Z</time></trkpt><trkpt lat="39.987704293569244" lon="9.184910939333642"><ele>572.0</ele><time>2026-04-27T07:38:23.002Z</time></trkpt><trkpt lat="39.98756000636041" lon="9.18508248114244"><ele>566.0</ele><time>2026-04-27T07:38:24.002Z</time></trkpt><trkpt lat="39.987406186997134" lon="9.185231780686042"><ele>560.0</ele><time>2026-04-27T07:38:25.002Z</time></trkpt><trkpt lat="39.98725672521285" lon="9.185338048759586"><ele>554.0</ele><time>2026-04-27T07:38:26.002Z</time></trkpt><trkpt lat="39.98712667714208" lon="9.185466169757463"><ele>554.0</ele><time>2026-04-27T07:38:27.002Z</time></trkpt><trkpt lat="39.98701811341972" lon="9.185638235328888"><ele>554.0</ele><time>2026-04-27T07:38:28.002Z</time></trkpt><trkpt lat="39.98691846636743" lon="9.185831699997868"><ele>554.0</ele><time>2026-04-27T07:38:29.002Z</time></trkpt><trkpt lat="39.98684151057548" lon="9.186032190727019"><ele>557.0</ele><time>2026-04-27T07:38:30.002Z</time></trkpt><trkpt lat="39.98678537934747" lon="9.186223820524486"><ele>560.0</ele><time>2026-04-27T07:38:31.002Z</time></trkpt><trkpt lat="39.98676198206019" lon="9.186410538089234"><ele>563.0</ele><time>2026-04-27T07:38:32.002Z</time></trkpt><trkpt lat="39.98676533751114" lon="9.186582743669412"><ele>566.0</ele><time>2026-04-27T07:38:33.002Z</time></trkpt><trkpt lat="39.98673625226013" lon="9.186703305061627"><ele>563.5</ele><time>2026-04-27T07:38:34.002Z</time></trkpt><trkpt lat="39.986630874868794" lon="9.18677363779792"><ele>561.0</ele><time>2026-04-27T07:38:35.002Z</time></trkpt><trkpt lat="39.986491872246496" lon="9.186785395387279"><ele>558.5</ele><time>2026-04-27T07:38:36.002Z</time></trkpt><trkpt lat="39.986378619174396" lon="9.186734945908388"><ele>556.0</ele><time>2026-04-27T07:38:37.002Z</time></trkpt><trkpt lat="39.986292605206955" lon="9.18660008435518"><ele>554.0</ele><time>2026-04-27T07:38:38.002Z</time></trkpt><trkpt lat="39.986243324337636" lon="9.186411878239142"><ele>552.0</ele><time>2026-04-27T07:38:39.002Z</time></trkpt><trkpt lat="39.98618502942024" lon="9.186216570988627"><ele>550.0</ele><time>2026-04-27T07:38:40.002Z</time></trkpt><trkpt lat="39.986108463119315" lon="9.186034197516761"><ele>550.0</ele><time>2026-04-27T07:38:41.002Z</time></trkpt><trkpt lat="39.98602182890534" lon="9.185839170995273"><ele>550.0</ele><time>2026-04-27T07:38:42.002Z</time></trkpt><trkpt lat="39.98592946877115" lon="9.18562745389038"><ele>550.0</ele><time>2026-04-27T07:38:43.002Z</time></trkpt><trkpt lat="39.98584545821797" lon="9.185428998796217"><ele>549.3333333333334</ele><time>2026-04-27T07:38:44.002Z</time></trkpt><trkpt lat="39.98574384700596" lon="9.185261949445437"><ele>548.6666666666666</ele><time>2026-04-27T07:38:45.002Z</time></trkpt><trkpt lat="39.98559555848676" lon="9.185143856586647"><ele>548.0</ele><time>2026-04-27T07:38:46.002Z</time></trkpt><trkpt lat="39.9854146744367" lon="9.185072081169457"><ele>548.0</ele><time>2026-04-27T07:38:47.002Z</time></trkpt><trkpt lat="39.98521772108805" lon="9.185009238219696"><ele>548.0</ele><time>2026-04-27T07:38:48.002Z</time></trkpt><trkpt lat="39.98502530549863" lon="9.184958028335242"><ele>548.0</ele><time>2026-04-27T07:38:49.001Z</time></trkpt><trkpt lat="39.98481877044649" lon="9.184942220076463"><ele>550.3333333333333</ele><time>2026-04-27T07:38:50.001Z</time></trkpt><trkpt lat="39.98461075279163" lon="9.184952569579268"><ele>552.6666666666666</ele><time>2026-04-27T07:38:51.001Z</time></trkpt><trkpt lat="39.98440244136604" lon="9.184959965657562"><ele>555.0</ele><time>2026-04-27T07:38:52.001Z</time></trkpt><trkpt lat="39.98419541739034" lon="9.184956211683808"><ele>555.0</ele><time>2026-04-27T07:38:53.001Z</time></trkpt><trkpt lat="39.98399431274681" lon="9.184946477301093"><ele>555.0</ele><time>2026-04-27T07:38:54.001Z</time></trkpt><trkpt lat="39.983785519418426" lon="9.184931608144401"><ele>555.0</ele><time>2026-04-27T07:38:55.001Z</time></trkpt><trkpt lat="39.98360075409086" lon="9.18492046791716"><ele>555.0</ele><time>2026-04-27T07:38:56.001Z</time></trkpt><trkpt lat="39.98342799976441" lon="9.184963972471168"><ele>555.0</ele><time>2026-04-27T07:38:57.001Z</time></trkpt><trkpt lat="39.98328559800588" lon="9.1850889073365"><ele>555.0</ele><time>2026-04-27T07:38:58.001Z</time></trkpt><trkpt lat="39.98315562715875" lon="9.185244082878349"><ele>554.0</ele><time>2026-04-27T07:38:59.001Z</time></trkpt><trkpt lat="39.98302141525458" lon="9.185381291614979"><ele>553.0</ele><time>2026-04-27T07:39:00.001Z</time></trkpt><trkpt lat="39.98288338777604" lon="9.185485818613465"><ele>552.0</ele><time>2026-04-27T07:39:01.001Z</time></trkpt><trkpt lat="39.9827402794018" lon="9.185488585289411"><ele>552.0</ele><time>2026-04-27T07:39:02.001Z</time></trkpt><trkpt lat="39.982590979951375" lon="9.185402305637846"><ele>552.0</ele><time>2026-04-27T07:39:03.001Z</time></trkpt><trkpt lat="39.98243100461751" lon="9.18532559411666"><ele>552.0</ele><time>2026-04-27T07:39:04.001Z</time></trkpt><trkpt lat="39.98224520738472" lon="9.185349240529122"><ele>552.0</ele><time>2026-04-27T07:39:05.001Z</time></trkpt><trkpt lat="39.98205485085473" lon="9.185461847396857"><ele>552.0</ele><time>2026-04-27T07:39:06.001Z</time></trkpt><trkpt lat="39.98188002880013" lon="9.185556660754017"><ele>552.0</ele><time>2026-04-27T07:39:07.001Z</time></trkpt><trkpt lat="39.981684771424554" lon="9.185587949270289"><ele>552.3333333333334</ele><time>2026-04-27T07:39:08.001Z</time></trkpt><trkpt lat="39.98149520564283" lon="9.185576441613389"><ele>552.6666666666667</ele><time>2026-04-27T07:39:09.001Z</time></trkpt><trkpt lat="39.98130780528309" lon="9.185556711859"><ele>553.0</ele><time>2026-04-27T07:39:10.001Z</time></trkpt><trkpt lat="39.98110871862755" lon="9.185510755298624"><ele>553.0</ele><time>2026-04-27T07:39:11.001Z</time></trkpt><trkpt lat="39.98092402069415" lon="9.185430443007643"><ele>553.0</ele><time>2026-04-27T07:39:12.001Z</time></trkpt><trkpt lat="39.98077251664061" lon="9.185319879181552"><ele>553.0</ele><time>2026-04-27T07:39:13.001Z</time></trkpt><trkpt lat="39.980645199075575" lon="9.185247837682738"><ele>554.0</ele><time>2026-04-27T07:39:14.001Z</time></trkpt><trkpt lat="39.9805125894218" lon="9.185256870006132"><ele>555.0</ele><time>2026-04-27T07:39:15.001Z</time></trkpt><trkpt lat="39.98037834450547" lon="9.185389326622861"><ele>556.0</ele><time>2026-04-27T07:39:16.001Z</time></trkpt><trkpt lat="39.980237694559165" lon="9.18556773378718"><ele>559.0</ele><time>2026-04-27T07:39:17.001Z</time></trkpt><trkpt lat="39.980095505766364" lon="9.185734248438576"><ele>562.0</ele><time>2026-04-27T07:39:18.001Z</time></trkpt><trkpt lat="39.97994807123708" lon="9.1859016972545"><ele>565.0</ele><time>2026-04-27T07:39:19.001Z</time></trkpt><trkpt lat="39.97979440006843" lon="9.186067318281598"><ele>565.0</ele><time>2026-04-27T07:39:20.001Z</time></trkpt><trkpt lat="39.97964180181416" lon="9.186224263931646"><ele>565.0</ele><time>2026-04-27T07:39:21.001Z</time></trkpt><trkpt lat="39.979490289927156" lon="9.186387556978795"><ele>565.0</ele><time>2026-04-27T07:39:22.001Z</time></trkpt><trkpt lat="39.979338091545344" lon="9.186544008772954"><ele>566.0</ele><time>2026-04-27T07:39:23.001Z</time></trkpt><trkpt lat="39.97918962616594" lon="9.186683731086159"><ele>567.0</ele><time>2026-04-27T07:39:24.001Z</time></trkpt><trkpt lat="39.97905573360603" lon="9.186816960940938"><ele>568.0</ele><time>2026-04-27T07:39:25.001Z</time></trkpt><trkpt lat="39.97895366157999" lon="9.186972371079387"><ele>568.0</ele><time>2026-04-27T07:39:26.001Z</time></trkpt><trkpt lat="39.97888331807598" lon="9.187170868216255"><ele>568.0</ele><time>2026-04-27T07:39:27.001Z</time></trkpt><trkpt lat="39.97884356990801" lon="9.187394098269234"><ele>568.0</ele><time>2026-04-27T07:39:28.003Z</time></trkpt><trkpt lat="39.97884723808791" lon="9.187646145338158"><ele>571.6666666666667</ele><time>2026-04-27T07:39:29.003Z</time></trkpt><trkpt lat="39.97887430666417" lon="9.187876970232203"><ele>575.3333333333334</ele><time>2026-04-27T07:39:30.003Z</time></trkpt><trkpt lat="39.978915360336586" lon="9.188082206189144"><ele>579.0</ele><time>2026-04-27T07:39:31.004Z</time></trkpt><trkpt lat="39.978918235768035" lon="9.188272536056283"><ele>582.0</ele><time>2026-04-27T07:39:32.003Z</time></trkpt><trkpt lat="39.9788650297259" lon="9.188472497555486"><ele>585.0</ele><time>2026-04-27T07:39:33.003Z</time></trkpt><trkpt lat="39.978789009066304" lon="9.188620366519283"><ele>588.0</ele><time>2026-04-27T07:39:34.004Z</time></trkpt><trkpt lat="39.97869637869794" lon="9.18870092491546"><ele>591.0</ele><time>2026-04-27T07:39:35.003Z</time></trkpt><trkpt lat="39.9785876316146" lon="9.188710585623296"><ele>591.0</ele><time>2026-04-27T07:39:36.003Z</time></trkpt><trkpt lat="39.978462683846104" lon="9.188674715985936"><ele>591.0</ele><time>2026-04-27T07:39:37.003Z</time></trkpt><trkpt lat="39.97832673969095" lon="9.18862722939708"><ele>591.0</ele><time>2026-04-27T07:39:38.003Z</time></trkpt><trkpt lat="39.97818703240266" lon="9.188583075668276"><ele>591.0</ele><time>2026-04-27T07:39:39.003Z</time></trkpt><trkpt lat="39.97805368897592" lon="9.188502235438875"><ele>584.6666666666666</ele><time>2026-04-27T07:39:40.003Z</time></trkpt><trkpt lat="39.97793065861848" lon="9.18837549421236"><ele>578.3333333333333</ele><time>2026-04-27T07:39:41.003Z</time></trkpt><trkpt lat="39.97782424450891" lon="9.188212463359951"><ele>572.0</ele><time>2026-04-27T07:39:42.003Z</time></trkpt><trkpt lat="39.977746845907106" lon="9.18799046569364"><ele>570.0</ele><time>2026-04-27T07:39:43.003Z</time></trkpt><trkpt lat="39.97773403506548" lon="9.187750923250404"><ele>568.0</ele><time>2026-04-27T07:39:44.003Z</time></trkpt><trkpt lat="39.9777429816905" lon="9.18751103458421"><ele>566.0</ele><time>2026-04-27T07:39:45.003Z</time></trkpt><trkpt lat="39.97779265388633" lon="9.187284597821098"><ele>565.5</ele><time>2026-04-27T07:39:46.003Z</time></trkpt><trkpt lat="39.97786926289732" lon="9.18710653289322"><ele>565.0</ele><time>2026-04-27T07:39:47.003Z</time></trkpt><trkpt lat="39.97788872574482" lon="9.186923593372535"><ele>564.5</ele><time>2026-04-27T07:39:48.003Z</time></trkpt><trkpt lat="39.97786334015752" lon="9.186756215636779"><ele>564.0</ele><time>2026-04-27T07:39:49.003Z</time></trkpt><trkpt lat="39.977779721310576" lon="9.186672597452349"><ele>564.0</ele><time>2026-04-27T07:39:50.003Z</time></trkpt><trkpt lat="39.977664824671514" lon="9.186666359753758"><ele>564.0</ele><time>2026-04-27T07:39:51.003Z</time></trkpt><trkpt lat="39.97751312972046" lon="9.186743914948828"><ele>564.0</ele><time>2026-04-27T07:39:52.003Z</time></trkpt><trkpt lat="39.97735006250094" lon="9.186823494659688"><ele>567.6666666666666</ele><time>2026-04-27T07:39:53.003Z</time></trkpt><trkpt lat="39.977178551190704" lon="9.186842017822391"><ele>571.3333333333333</ele><time>2026-04-27T07:39:54.003Z</time></trkpt><trkpt lat="39.97699422948572" lon="9.186805740920331"><ele>575.0</ele><time>2026-04-27T07:39:55.003Z</time></trkpt><trkpt lat="39.976813334245286" lon="9.186739983642914"><ele>577.3333333333333</ele><time>2026-04-27T07:39:56.003Z</time></trkpt><trkpt lat="39.976625823526284" lon="9.186684450862572"><ele>579.6666666666666</ele><time>2026-04-27T07:39:57.003Z</time></trkpt><trkpt lat="39.976437807599055" lon="9.186669355156837"><ele>582.0</ele><time>2026-04-27T07:39:58.003Z</time></trkpt><trkpt lat="39.9762532923423" lon="9.186700891029336"><ele>582.0</ele><time>2026-04-27T07:39:59.003Z</time></trkpt><trkpt lat="39.97606458333649" lon="9.186761667225253"><ele>582.0</ele><time>2026-04-27T07:40:00.003Z</time></trkpt><trkpt lat="39.97587227914174" lon="9.186778015161735"><ele>582.0</ele><time>2026-04-27T07:40:01.003Z</time></trkpt><trkpt lat="39.97568755544343" lon="9.186743079315617"><ele>583.3333333333334</ele><time>2026-04-27T07:40:02.003Z</time></trkpt><trkpt lat="39.9755102571232" lon="9.186656932355378"><ele>584.6666666666667</ele><time>2026-04-27T07:40:03.003Z</time></trkpt><trkpt lat="39.97533353824015" lon="9.18653626477316"><ele>586.0</ele><time>2026-04-27T07:40:04.003Z</time></trkpt><trkpt lat="39.975169281458655" lon="9.18645425157042"><ele>581.3333333333334</ele><time>2026-04-27T07:40:05.003Z</time></trkpt><trkpt lat="39.97499729442742" lon="9.18641160464334"><ele>576.6666666666666</ele><time>2026-04-27T07:40:06.003Z</time></trkpt><trkpt lat="39.97482111629239" lon="9.186388845691026"><ele>572.0</ele><time>2026-04-27T07:40:07.003Z</time></trkpt><trkpt lat="39.97465705371644" lon="9.186391422375177"><ele>572.0</ele><time>2026-04-27T07:40:08.003Z</time></trkpt><trkpt lat="39.97451266439824" lon="9.186432114497647"><ele>572.0</ele><time>2026-04-27T07:40:09.003Z</time></trkpt><trkpt lat="39.97437395063077" lon="9.186501904650559"><ele>572.0</ele><time>2026-04-27T07:40:10.003Z</time></trkpt><trkpt lat="39.974233075515144" lon="9.186570195256571"><ele>572.0</ele><time>2026-04-27T07:40:11.003Z</time></trkpt><trkpt lat="39.97407469589666" lon="9.186621674854674"><ele>576.5</ele><time>2026-04-27T07:40:12.003Z</time></trkpt><trkpt lat="39.97393400814194" lon="9.186695798829755"><ele>581.0</ele><time>2026-04-27T07:40:13.003Z</time></trkpt><trkpt lat="39.97381386826991" lon="9.18675490835061"><ele>585.5</ele><time>2026-04-27T07:40:14.003Z</time></trkpt><trkpt lat="39.97373654906648" lon="9.186825594747084"><ele>590.0</ele><time>2026-04-27T07:40:15.003Z</time></trkpt><trkpt lat="39.97368492067024" lon="9.186920079920892"><ele>590.0</ele><time>2026-04-27T07:40:16.003Z</time></trkpt><trkpt lat="39.97365808291196" lon="9.187013942744096"><ele>590.0</ele><time>2026-04-27T07:40:17.003Z</time></trkpt><trkpt lat="39.97364469411382" lon="9.187108667822672"><ele>590.0</ele><time>2026-04-27T07:40:18.003Z</time></trkpt><trkpt lat="39.973628318649745" lon="9.187213110944462"><ele>590.0</ele><time>2026-04-27T07:40:19.003Z</time></trkpt><trkpt lat="39.973559434396236" lon="9.187304867648857"><ele>590.0</ele><time>2026-04-27T07:40:20.003Z</time></trkpt><trkpt lat="39.97347106039635" lon="9.1873294402606"><ele>590.0</ele><time>2026-04-27T07:40:21.003Z</time></trkpt><trkpt lat="39.973372913012255" lon="9.187265685488308"><ele>589.0</ele><time>2026-04-27T07:40:22.003Z</time></trkpt><trkpt lat="39.97328742058362" lon="9.187153126456472"><ele>588.0</ele><time>2026-04-27T07:40:23.003Z</time></trkpt><trkpt lat="39.97318471914259" lon="9.187069978115606"><ele>587.0</ele><time>2026-04-27T07:40:24.003Z</time></trkpt><trkpt lat="39.97305679259588" lon="9.18704525989523"><ele>586.0</ele><time>2026-04-27T07:40:25.003Z</time></trkpt><trkpt lat="39.97289721231412" lon="9.187068144803916"><ele>586.0</ele><time>2026-04-27T07:40:26.003Z</time></trkpt><trkpt lat="39.97273740676126" lon="9.187116589334922"><ele>586.0</ele><time>2026-04-27T07:40:27.003Z</time></trkpt><trkpt lat="39.97258288488223" lon="9.187207225857577"><ele>586.0</ele><time>2026-04-27T07:40:28.003Z</time></trkpt><trkpt lat="39.972429694495894" lon="9.187313494461367"><ele>592.0</ele><time>2026-04-27T07:40:29.003Z</time></trkpt><trkpt lat="39.97227055735818" lon="9.187434097438654"><ele>598.0</ele><time>2026-04-27T07:40:30.003Z</time></trkpt><trkpt lat="39.97210668923454" lon="9.1875426132879"><ele>604.0</ele><time>2026-04-27T07:40:31.003Z</time></trkpt><trkpt lat="39.97193788802689" lon="9.187646344449528"><ele>604.0</ele><time>2026-04-27T07:40:32.003Z</time></trkpt><trkpt lat="39.9717855012003" lon="9.187759865886587"><ele>604.0</ele><time>2026-04-27T07:40:33.003Z</time></trkpt><trkpt lat="39.97165939542853" lon="9.187870152767449"><ele>604.0</ele><time>2026-04-27T07:40:34.003Z</time></trkpt><trkpt lat="39.97156860828815" lon="9.18804560862235"><ele>604.6666666666667</ele><time>2026-04-27T07:40:35.003Z</time></trkpt><trkpt lat="39.97151629537013" lon="9.18825397263342"><ele>605.3333333333334</ele><time>2026-04-27T07:40:36.003Z</time></trkpt><trkpt lat="39.971485727521355" lon="9.18847230386115"><ele>606.0</ele><time>2026-04-27T07:40:37.003Z</time></trkpt><trkpt lat="39.971483748328694" lon="9.18869902340081"><ele>606.0</ele><time>2026-04-27T07:40:38.003Z</time></trkpt><trkpt lat="39.971498262724204" lon="9.18892554472853"><ele>606.0</ele><time>2026-04-27T07:40:39.003Z</time></trkpt><trkpt lat="39.97151259593063" lon="9.189140769930026"><ele>606.0</ele><time>2026-04-27T07:40:40.003Z</time></trkpt><trkpt lat="39.971509960516" lon="9.189304856765839"><ele>608.75</ele><time>2026-04-27T07:40:41.003Z</time></trkpt><trkpt lat="39.97146313672415" lon="9.189408551138248"><ele>611.5</ele><time>2026-04-27T07:40:42.003Z</time></trkpt><trkpt lat="39.971363881961935" lon="9.1894482550162"><ele>614.25</ele><time>2026-04-27T07:40:43.003Z</time></trkpt><trkpt lat="39.97125468202567" lon="9.189385206358448"><ele>617.0</ele><time>2026-04-27T07:40:44.002Z</time></trkpt><trkpt lat="39.971150159716736" lon="9.189256937619804"><ele>617.0</ele><time>2026-04-27T07:40:45.002Z</time></trkpt><trkpt lat="39.97106461938705" lon="9.189088095742669"><ele>617.0</ele><time>2026-04-27T07:40:46.002Z</time></trkpt><trkpt lat="39.97096766583017" lon="9.188929413229065"><ele>617.0</ele><time>2026-04-27T07:40:47.002Z</time></trkpt><trkpt lat="39.97084272520475" lon="9.188840557166591"><ele>615.6666666666666</ele><time>2026-04-27T07:40:48.002Z</time></trkpt><trkpt lat="39.970701572440944" lon="9.188827889327131"><ele>614.3333333333334</ele><time>2026-04-27T07:40:49.002Z</time></trkpt><trkpt lat="39.970543106365874" lon="9.188937347618367"><ele>613.0</ele><time>2026-04-27T07:40:50.002Z</time></trkpt><trkpt lat="39.97038215514814" lon="9.189070176793127"><ele>613.0</ele><time>2026-04-27T07:40:51.002Z</time></trkpt><trkpt lat="39.97022808183209" lon="9.189191264640492"><ele>613.0</ele><time>2026-04-27T07:40:52.002Z</time></trkpt><trkpt lat="39.97005853045163" lon="9.189274602661405"><ele>613.0</ele><time>2026-04-27T07:40:53.002Z</time></trkpt><trkpt lat="39.9698693743418" lon="9.18929887346643"><ele>612.6666666666667</ele><time>2026-04-27T07:40:54.002Z</time></trkpt><trkpt lat="39.969675599023205" lon="9.189273528993095"><ele>612.3333333333334</ele><time>2026-04-27T07:40:55.002Z</time></trkpt><trkpt lat="39.96948205488165" lon="9.1892264274941"><ele>612.0</ele><time>2026-04-27T07:40:56.002Z</time></trkpt><trkpt lat="39.96929332141184" lon="9.18918871975787"><ele>612.3333333333334</ele><time>2026-04-27T07:40:57.002Z</time></trkpt><trkpt lat="39.969109243540615" lon="9.189210899400026"><ele>612.6666666666667</ele><time>2026-04-27T07:40:58.002Z</time></trkpt><trkpt lat="39.968929922735335" lon="9.18932247156934"><ele>613.0</ele><time>2026-04-27T07:40:59.002Z</time></trkpt><trkpt lat="39.96875922646951" lon="9.189469393023938"><ele>613.0</ele><time>2026-04-27T07:41:00.002Z</time></trkpt><trkpt lat="39.96860885861722" lon="9.18964183424486"><ele>613.0</ele><time>2026-04-27T07:41:01.002Z</time></trkpt><trkpt lat="39.96846916815031" lon="9.189831432004803"><ele>613.0</ele><time>2026-04-27T07:41:02.002Z</time></trkpt><trkpt lat="39.96834440385124" lon="9.190028199317805"><ele>613.6666666666667</ele><time>2026-04-27T07:41:03.002Z</time></trkpt><trkpt lat="39.96824494779625" lon="9.190214247968445"><ele>614.3333333333334</ele><time>2026-04-27T07:41:04.002Z</time></trkpt><trkpt lat="39.96817767027027" lon="9.190399978192938"><ele>615.0</ele><time>2026-04-27T07:41:05.002Z</time></trkpt><trkpt lat="39.96812428440074" lon="9.190555646634502"><ele>615.0</ele><time>2026-04-27T07:41:06.002Z</time></trkpt><trkpt lat="39.96804008417688" lon="9.1906501364757"><ele>615.0</ele><time>2026-04-27T07:41:07.002Z</time></trkpt><trkpt lat="39.96790247188144" lon="9.19063722317749"><ele>615.0</ele><time>2026-04-27T07:41:08.002Z</time></trkpt><trkpt lat="39.96774463950698" lon="9.190503793858701"><ele>615.0</ele><time>2026-04-27T07:41:09.002Z</time></trkpt><trkpt lat="39.9676008323226" lon="9.190307789870698"><ele>616.6666666666666</ele><time>2026-04-27T07:41:10.002Z</time></trkpt><trkpt lat="39.96748003437558" lon="9.190123091884434"><ele>618.3333333333333</ele><time>2026-04-27T07:41:11.002Z</time></trkpt><trkpt lat="39.96735774092862" lon="9.190001733066856"><ele>620.0</ele><time>2026-04-27T07:41:12.002Z</time></trkpt><trkpt lat="39.96721565488818" lon="9.189956674143522"><ele>620.0</ele><time>2026-04-27T07:41:13.002Z</time></trkpt><trkpt lat="39.967049603088874" lon="9.18995641213292"><ele>620.0</ele><time>2026-04-27T07:41:14.002Z</time></trkpt><trkpt lat="39.966869446449785" lon="9.18990813591488"><ele>620.0</ele><time>2026-04-27T07:41:15.002Z</time></trkpt><trkpt lat="39.96672681358985" lon="9.189746959000788"><ele>622.6666666666666</ele><time>2026-04-27T07:41:16.002Z</time></trkpt><trkpt lat="39.96658355943954" lon="9.189605093758056"><ele>625.3333333333334</ele><time>2026-04-27T07:41:17.002Z</time></trkpt><trkpt lat="39.96641159066697" lon="9.189528154809643"><ele>628.0</ele><time>2026-04-27T07:41:18.002Z</time></trkpt><trkpt lat="39.96623356064023" lon="9.18951978346598"><ele>628.0</ele><time>2026-04-27T07:41:19.002Z</time></trkpt><trkpt lat="39.966064049777984" lon="9.189546448905299"><ele>628.0</ele><time>2026-04-27T07:41:20.002Z</time></trkpt><trkpt lat="39.96594139118177" lon="9.18952715659612"><ele>628.0</ele><time>2026-04-27T07:41:21.002Z</time></trkpt><trkpt lat="39.96586883834982" lon="9.189464972621293"><ele>628.0</ele><time>2026-04-27T07:41:22.002Z</time></trkpt><trkpt lat="39.96584167635972" lon="9.18934378667309"><ele>628.0</ele><time>2026-04-27T07:41:23.002Z</time></trkpt><trkpt lat="39.96589302986432" lon="9.18920945802913"><ele>628.0</ele><time>2026-04-27T07:41:24.002Z</time></trkpt><trkpt lat="39.9660264679184" lon="9.189116432318245"><ele>628.0</ele><time>2026-04-27T07:41:25.002Z</time></trkpt><trkpt lat="39.96619342682237" lon="9.189042351798706"><ele>628.0</ele><time>2026-04-27T07:41:26.002Z</time></trkpt><trkpt lat="39.96636334429961" lon="9.188975232164443"><ele>627.25</ele><time>2026-04-27T07:41:27.002Z</time></trkpt><trkpt lat="39.9665442698431" lon="9.188936297861014"><ele>626.5</ele><time>2026-04-27T07:41:28.002Z</time></trkpt><trkpt lat="39.966678397934544" lon="9.188890577282246"><ele>625.75</ele><time>2026-04-27T07:41:29.002Z</time></trkpt><trkpt lat="39.966789410288854" lon="9.188815054488845"><ele>625.0</ele><time>2026-04-27T07:41:30.002Z</time></trkpt><trkpt lat="39.96685954741554" lon="9.188648992110606"><ele>625.0</ele><time>2026-04-27T07:41:31.002Z</time></trkpt><trkpt lat="39.966896762236864" lon="9.188430533143782"><ele>625.0</ele><time>2026-04-27T07:41:32.002Z</time></trkpt><trkpt lat="39.96698014269836" lon="9.188230853435657"><ele>625.0</ele><time>2026-04-27T07:41:33.003Z</time></trkpt><trkpt lat="39.96712281732034" lon="9.188086717244891"><ele>621.6666666666667</ele><time>2026-04-27T07:41:34.003Z</time></trkpt><trkpt lat="39.967304133977606" lon="9.188002198371807"><ele>618.3333333333334</ele><time>2026-04-27T07:41:35.003Z</time></trkpt><trkpt lat="39.96747061091265" lon="9.187887671035869"><ele>615.0</ele><time>2026-04-27T07:41:36.003Z</time></trkpt><trkpt lat="39.96760530737132" lon="9.187707759747086"><ele>615.0</ele><time>2026-04-27T07:41:37.003Z</time></trkpt><trkpt lat="39.96770363046356" lon="9.187481784142662"><ele>615.0</ele><time>2026-04-27T07:41:38.003Z</time></trkpt><trkpt lat="39.96776015504983" lon="9.187238422170443"><ele>615.0</ele><time>2026-04-27T07:41:39.003Z</time></trkpt><trkpt lat="39.96780702472234" lon="9.18703175147807"><ele>616.0</ele><time>2026-04-27T07:41:40.003Z</time></trkpt><trkpt lat="39.96782808979182" lon="9.186853184464566"><ele>617.0</ele><time>2026-04-27T07:41:41.003Z</time></trkpt><trkpt lat="39.96776236398813" lon="9.1867152670718"><ele>618.0</ele><time>2026-04-27T07:41:42.003Z</time></trkpt><trkpt lat="39.967647504777155" lon="9.186618016565284"><ele>619.0</ele><time>2026-04-27T07:41:43.003Z</time></trkpt><trkpt lat="39.967494619201766" lon="9.186617751298167"><ele>623.25</ele><time>2026-04-27T07:41:44.003Z</time></trkpt><trkpt lat="39.967337911574695" lon="9.186702787738382"><ele>627.5</ele><time>2026-04-27T07:41:45.003Z</time></trkpt><trkpt lat="39.96720695925469" lon="9.18678210562707"><ele>631.75</ele><time>2026-04-27T07:41:46.003Z</time></trkpt><trkpt lat="39.96710442001166" lon="9.18679104753702"><ele>636.0</ele><time>2026-04-27T07:41:47.003Z</time></trkpt><trkpt lat="39.96701693905915" lon="9.186722731613854"><ele>636.0</ele><time>2026-04-27T07:41:48.003Z</time></trkpt><trkpt lat="39.96697743170219" lon="9.186606641596635"><ele>636.0</ele><time>2026-04-27T07:41:49.003Z</time></trkpt><trkpt lat="39.966977914502905" lon="9.186477455954646"><ele>636.0</ele><time>2026-04-27T07:41:50.003Z</time></trkpt><trkpt lat="39.96699997963163" lon="9.186358232712449"><ele>636.0</ele><time>2026-04-27T07:41:51.003Z</time></trkpt><trkpt lat="39.96700794108266" lon="9.186224612357291"><ele>636.0</ele><time>2026-04-27T07:41:52.003Z</time></trkpt><trkpt lat="39.96697800826395" lon="9.186108093266217"><ele>635.0</ele><time>2026-04-27T07:41:53.003Z</time></trkpt><trkpt lat="39.96692254765725" lon="9.185987262353715"><ele>634.0</ele><time>2026-04-27T07:41:54.003Z</time></trkpt><trkpt lat="39.9668561176316" lon="9.185882368082975"><ele>633.0</ele><time>2026-04-27T07:41:55.003Z</time></trkpt><trkpt lat="39.96679160253746" lon="9.185773887734769"><ele>632.0</ele><time>2026-04-27T07:41:56.003Z</time></trkpt><trkpt lat="39.9667047333765" lon="9.18568594254968"><ele>631.0</ele><time>2026-04-27T07:41:57.003Z</time></trkpt><trkpt lat="39.966634000065675" lon="9.185580962669889"><ele>633.8</ele><time>2026-04-27T07:41:58.003Z</time></trkpt><trkpt lat="39.9666066609182" lon="9.185445669515389"><ele>636.6</ele><time>2026-04-27T07:41:59.003Z</time></trkpt><trkpt lat="39.966591410212416" lon="9.185310796591876"><ele>639.4</ele><time>2026-04-27T07:42:00.003Z</time></trkpt><trkpt lat="39.966548919548195" lon="9.18518290043456"><ele>642.2</ele><time>2026-04-27T07:42:01.003Z</time></trkpt><trkpt lat="39.96648728930704" lon="9.185055042288063"><ele>645.0</ele><time>2026-04-27T07:42:02.003Z</time></trkpt><trkpt lat="39.966424601492385" lon="9.184932085730196"><ele>642.25</ele><time>2026-04-27T07:42:03.003Z</time></trkpt><trkpt lat="39.96636472603727" lon="9.1848048666739"><ele>639.5</ele><time>2026-04-27T07:42:04.003Z</time></trkpt><trkpt lat="39.966297964871835" lon="9.184686320069341"><ele>636.75</ele><time>2026-04-27T07:42:05.003Z</time></trkpt><trkpt lat="39.966215829796155" lon="9.184580002989968"><ele>634.0</ele><time>2026-04-27T07:42:06.003Z</time></trkpt><trkpt lat="39.96612545425279" lon="9.184496009166336"><ele>634.0</ele><time>2026-04-27T07:42:07.003Z</time></trkpt><trkpt lat="39.9660293309097" lon="9.184423825928457"><ele>634.0</ele><time>2026-04-27T07:42:08.003Z</time></trkpt><trkpt lat="39.96592512319945" lon="9.184349585929244"><ele>634.0</ele><time>2026-04-27T07:42:09.003Z</time></trkpt><trkpt lat="39.965828110117855" lon="9.184281934467034"><ele>634.0</ele><time>2026-04-27T07:42:10.003Z</time></trkpt><trkpt lat="39.96572258174902" lon="9.184226218155171"><ele>636.75</ele><time>2026-04-27T07:42:11.002Z</time></trkpt><trkpt lat="39.965618968606364" lon="9.184180144083331"><ele>639.5</ele><time>2026-04-27T07:42:12.002Z</time></trkpt><trkpt lat="39.965508016960115" lon="9.184177215579377"><ele>642.25</ele><time>2026-04-27T07:42:13.002Z</time></trkpt><trkpt lat="39.96539733337125" lon="9.184223847620418"><ele>645.0</ele><time>2026-04-27T07:42:14.002Z</time></trkpt><trkpt lat="39.9652908661499" lon="9.1842753984611"><ele>645.0</ele><time>2026-04-27T07:42:15.002Z</time></trkpt><trkpt lat="39.96519304595627" lon="9.184312220537063"><ele>645.0</ele><time>2026-04-27T07:42:16.002Z</time></trkpt><trkpt lat="39.9650784425842" lon="9.18434486241701"><ele>645.0</ele><time>2026-04-27T07:42:17.002Z</time></trkpt><trkpt lat="39.96496286667475" lon="9.184341134756698"><ele>645.0</ele><time>2026-04-27T07:42:18.002Z</time></trkpt><trkpt lat="39.96485906991547" lon="9.184315409514733"><ele>645.0</ele><time>2026-04-27T07:42:19.002Z</time></trkpt><trkpt lat="39.96475228495858" lon="9.184268281550521"><ele>646.2</ele><time>2026-04-27T07:42:20.002Z</time></trkpt><trkpt lat="39.964651187432" lon="9.184235767441578"><ele>647.4</ele><time>2026-04-27T07:42:21.002Z</time></trkpt><trkpt lat="39.96454269019603" lon="9.184249692557387"><ele>648.5999999999999</ele><time>2026-04-27T07:42:22.001Z</time></trkpt><trkpt lat="39.964435937164374" lon="9.184316804402224"><ele>649.8</ele><time>2026-04-27T07:42:23.001Z</time></trkpt><trkpt lat="39.964341631083116" lon="9.18437629661519"><ele>651.0</ele><time>2026-04-27T07:42:24Z</time></trkpt><trkpt lat="39.96424540435053" lon="9.184397258743084"><ele>651.1999999999999</ele><time>2026-04-27T07:42:25Z</time></trkpt><trkpt lat="39.96414788894333" lon="9.184364059755655"><ele>651.4</ele><time>2026-04-27T07:42:25.999Z</time></trkpt><trkpt lat="39.96405006585156" lon="9.184317967564484"><ele>651.6</ele><time>2026-04-27T07:42:26.999Z</time></trkpt><trkpt lat="39.96395737622535" lon="9.18428220137982"><ele>651.8</ele><time>2026-04-27T07:42:27.999Z</time></trkpt><trkpt lat="39.96387993750179" lon="9.184280630596517"><ele>652.0</ele><time>2026-04-27T07:42:28.998Z</time></trkpt><trkpt lat="39.963780667106604" lon="9.184298862077007"><ele>652.0</ele><time>2026-04-27T07:42:29.998Z</time></trkpt><trkpt lat="39.96369601853419" lon="9.18430067992868"><ele>652.0</ele><time>2026-04-27T07:42:30.998Z</time></trkpt><trkpt lat="39.96359338671496" lon="9.18430811749476"><ele>652.0</ele><time>2026-04-27T07:42:31.997Z</time></trkpt><trkpt lat="39.96349769951197" lon="9.18432226253841"><ele>652.0</ele><time>2026-04-27T07:42:32.997Z</time></trkpt><trkpt lat="39.963409389177194" lon="9.184340057028328"><ele>652.0</ele><time>2026-04-27T07:42:33.997Z</time></trkpt><trkpt lat="39.96331966363726" lon="9.184350221085754"><ele>651.6</ele><time>2026-04-27T07:42:34.996Z</time></trkpt><trkpt lat="39.96323855418247" lon="9.184367869540424"><ele>651.2</ele><time>2026-04-27T07:42:35.996Z</time></trkpt><trkpt lat="39.96316370582816" lon="9.184403118642265"><ele>650.8</ele><time>2026-04-27T07:42:36.996Z</time></trkpt><trkpt lat="39.96308126482526" lon="9.184477225220785"><ele>650.4</ele><time>2026-04-27T07:42:37.996Z</time></trkpt><trkpt lat="39.96301500511159" lon="9.18457056893474"><ele>650.0</ele><time>2026-04-27T07:42:38.996Z</time></trkpt><trkpt lat="39.96294099769197" lon="9.184665602420264"><ele>650.0</ele><time>2026-04-27T07:42:39.995Z</time></trkpt><trkpt lat="39.962865010649665" lon="9.184752564441236"><ele>650.0</ele><time>2026-04-27T07:42:40.995Z</time></trkpt><trkpt lat="39.96278727660676" lon="9.184824142242483"><ele>650.0</ele><time>2026-04-27T07:42:41.995Z</time></trkpt><trkpt lat="39.96270033568163" lon="9.184882043009763"><ele>650.0</ele><time>2026-04-27T07:42:42.995Z</time></trkpt><trkpt lat="39.96260474811281" lon="9.184919908185634"><ele>650.0</ele><time>2026-04-27T07:42:43.995Z</time></trkpt><trkpt lat="39.962507814559316" lon="9.184935163895027"><ele>653.2</ele><time>2026-04-27T07:42:44.995Z</time></trkpt><trkpt lat="39.96240720594379" lon="9.184941859889964"><ele>656.4</ele><time>2026-04-27T07:42:45.994Z</time></trkpt><trkpt lat="39.96230738625551" lon="9.184941737281132"><ele>659.5999999999999</ele><time>2026-04-27T07:42:46.994Z</time></trkpt><trkpt lat="39.96220392651508" lon="9.184941331255017"><ele>662.8</ele><time>2026-04-27T07:42:47.994Z</time></trkpt><trkpt lat="39.96209852817935" lon="9.184949335642838"><ele>666.0</ele><time>2026-04-27T07:42:48.994Z</time></trkpt><trkpt lat="39.96199634358973" lon="9.184954515590945"><ele>666.0</ele><time>2026-04-27T07:42:49.994Z</time></trkpt><trkpt lat="39.96189338718384" lon="9.18496707883451"><ele>666.0</ele><time>2026-04-27T07:42:50.994Z</time></trkpt><trkpt lat="39.96179111629982" lon="9.18495588400497"><ele>666.0</ele><time>2026-04-27T07:42:51.994Z</time></trkpt><trkpt lat="39.961683755938594" lon="9.184925710140162"><ele>666.0</ele><time>2026-04-27T07:42:52.994Z</time></trkpt><trkpt lat="39.961590963535606" lon="9.184882827072121"><ele>666.0</ele><time>2026-04-27T07:42:53.994Z</time></trkpt><trkpt lat="39.96149506234053" lon="9.184832573517111"><ele>663.5</ele><time>2026-04-27T07:42:54.994Z</time></trkpt><trkpt lat="39.961413628605364" lon="9.184777575264365"><ele>661.0</ele><time>2026-04-27T07:42:55.993Z</time></trkpt><trkpt lat="39.961329686406415" lon="9.184722671205611"><ele>658.5</ele><time>2026-04-27T07:42:56.993Z</time></trkpt><trkpt lat="39.961252957116145" lon="9.184671365084691"><ele>656.0</ele><time>2026-04-27T07:42:57.993Z</time></trkpt><trkpt lat="39.96117140777034" lon="9.18462847468632"><ele>653.5</ele><time>2026-04-27T07:42:58.993Z</time></trkpt><trkpt lat="39.96110115974784" lon="9.184590453022198"><ele>651.0</ele><time>2026-04-27T07:42:59.993Z</time></trkpt><trkpt lat="39.96101284817908" lon="9.184540843687422"><ele>651.0</ele><time>2026-04-27T07:43:01.993Z</time></trkpt><trkpt lat="39.96089645836062" lon="9.184480714834011"><ele>651.0</ele><time>2026-04-27T07:43:04.993Z</time></trkpt><trkpt lat="39.960787757467735" lon="9.184419089681333"><ele>651.0</ele><time>2026-04-27T07:43:06.993Z</time></trkpt><trkpt lat="39.9606808805256" lon="9.184346043687649"><ele>651.0</ele><time>2026-04-27T07:43:08.993Z</time></trkpt><trkpt lat="39.96056594311012" lon="9.184320842239131"><ele>653.75</ele><time>2026-04-27T07:43:10.993Z</time></trkpt><trkpt lat="39.96040226903307" lon="9.184290278265996"><ele>656.5</ele><time>2026-04-27T07:43:13.993Z</time></trkpt><trkpt lat="39.960295894085604" lon="9.18426415968665"><ele>659.25</ele><time>2026-04-27T07:43:15.992Z</time></trkpt><trkpt lat="39.96020073436621" lon="9.184218338305758"><ele>662.0</ele><time>2026-04-27T07:43:17.992Z</time></trkpt><trkpt lat="39.960125977701495" lon="9.184103224195995"><ele>662.0</ele><time>2026-04-27T07:43:19.992Z</time></trkpt><trkpt lat="39.96008268625065" lon="9.184035632480061"><ele>662.0</ele><time>2026-04-27T07:43:20.992Z</time></trkpt><trkpt lat="39.96001104975906" lon="9.18390681731776"><ele>662.0</ele><time>2026-04-27T07:43:22.992Z</time></trkpt><trkpt lat="39.95993648368446" lon="9.183776533327517"><ele>662.0</ele><time>2026-04-27T07:43:24.992Z</time></trkpt><trkpt lat="39.95984029984214" lon="9.183669530423245"><ele>662.0</ele><time>2026-04-27T07:43:26.992Z</time></trkpt><trkpt lat="39.959755008100636" lon="9.183658423010819"><ele>661.8333333333333</ele><time>2026-04-27T07:43:27.992Z</time></trkpt><trkpt lat="39.95968464392676" lon="9.183623966511"><ele>661.6666666666666</ele><time>2026-04-27T07:43:28.992Z</time></trkpt><trkpt lat="39.9596170500734" lon="9.183597818730862"><ele>661.5</ele><time>2026-04-27T07:43:29.992Z</time></trkpt><trkpt lat="39.95954425060596" lon="9.18356562396218"><ele>661.3333333333334</ele><time>2026-04-27T07:43:30.992Z</time></trkpt><trkpt lat="39.959477314471975" lon="9.183510835169422"><ele>661.1666666666667</ele><time>2026-04-27T07:43:31.992Z</time></trkpt><trkpt lat="39.95940630738742" lon="9.18346613167523"><ele>661.0</ele><time>2026-04-27T07:43:32.992Z</time></trkpt><trkpt lat="39.959326913567715" lon="9.183411301252569"><ele>661.0</ele><time>2026-04-27T07:43:33.992Z</time></trkpt><trkpt lat="39.959255842613715" lon="9.183360685719334"><ele>661.0</ele><time>2026-04-27T07:43:34.992Z</time></trkpt><trkpt lat="39.959177518536976" lon="9.183310055358119"><ele>661.0</ele><time>2026-04-27T07:43:35.992Z</time></trkpt><trkpt lat="39.95910289746868" lon="9.183285170892363"><ele>661.0</ele><time>2026-04-27T07:43:36.992Z</time></trkpt><trkpt lat="39.958998690468604" lon="9.183279009904103"><ele>661.0</ele><time>2026-04-27T07:43:37.992Z</time></trkpt><trkpt lat="39.95891277427501" lon="9.183282643423402"><ele>661.0</ele><time>2026-04-27T07:43:38.994Z</time></trkpt><trkpt lat="39.95884282007788" lon="9.183299501401228"><ele>659.4</ele><time>2026-04-27T07:43:39.994Z</time></trkpt><trkpt lat="39.95875534879821" lon="9.183306924673854"><ele>657.8</ele><time>2026-04-27T07:43:40.994Z</time></trkpt><trkpt lat="39.9586625041674" lon="9.183291591090724"><ele>656.1999999999999</ele><time>2026-04-27T07:43:41.994Z</time></trkpt><trkpt lat="39.95857370953433" lon="9.183259077035657"><ele>654.5999999999999</ele><time>2026-04-27T07:43:42.994Z</time></trkpt><trkpt lat="39.95848391149634" lon="9.183222826509025"><ele>653.0</ele><time>2026-04-27T07:43:43.994Z</time></trkpt><trkpt lat="39.958393619575396" lon="9.18317372824459"><ele>657.0</ele><time>2026-04-27T07:43:44.994Z</time></trkpt><trkpt lat="39.95832077869886" lon="9.183129365835782"><ele>661.0</ele><time>2026-04-27T07:43:45.994Z</time></trkpt><trkpt lat="39.95825187141382" lon="9.183043583768628"><ele>665.0</ele><time>2026-04-27T07:43:46.994Z</time></trkpt><trkpt lat="39.95818704924383" lon="9.182967331335858"><ele>669.0</ele><time>2026-04-27T07:43:47.994Z</time></trkpt><trkpt lat="39.95812156067628" lon="9.182873974036742"><ele>673.0</ele><time>2026-04-27T07:43:48.994Z</time></trkpt><trkpt lat="39.958050341426265" lon="9.182790066008959"><ele>673.0</ele><time>2026-04-27T07:43:49.994Z</time></trkpt><trkpt lat="39.957962743514294" lon="9.182715198342011"><ele>673.0</ele><time>2026-04-27T07:43:50.993Z</time></trkpt><trkpt lat="39.95787875334988" lon="9.18265060379717"><ele>673.0</ele><time>2026-04-27T07:43:51.993Z</time></trkpt><trkpt lat="39.95780008797041" lon="9.18257570025004"><ele>673.0</ele><time>2026-04-27T07:43:52.993Z</time></trkpt><trkpt lat="39.95773951327148" lon="9.182494654792874"><ele>673.0</ele><time>2026-04-27T07:43:53.993Z</time></trkpt><trkpt lat="39.957691235864964" lon="9.18239574190716"><ele>671.1666666666667</ele><time>2026-04-27T07:43:54.993Z</time></trkpt><trkpt lat="39.957659111506835" lon="9.182289295232122"><ele>669.3333333333334</ele><time>2026-04-27T07:43:55.993Z</time></trkpt><trkpt lat="39.95762940108805" lon="9.18218172065824"><ele>667.5</ele><time>2026-04-27T07:43:56.993Z</time></trkpt><trkpt lat="39.95760002585603" lon="9.182073045313693"><ele>665.6666666666666</ele><time>2026-04-27T07:43:57.993Z</time></trkpt><trkpt lat="39.957559954686964" lon="9.181974947490145"><ele>663.8333333333333</ele><time>2026-04-27T07:43:58.993Z</time></trkpt><trkpt lat="39.957490702330894" lon="9.181891366213621"><ele>662.0</ele><time>2026-04-27T07:43:59.993Z</time></trkpt><trkpt lat="39.95740545942596" lon="9.181820093214196"><ele>667.0</ele><time>2026-04-27T07:44:00.993Z</time></trkpt><trkpt lat="39.95730213060154" lon="9.181794728314625"><ele>672.0</ele><time>2026-04-27T07:44:01.993Z</time></trkpt><trkpt lat="39.95719910095749" lon="9.181762933748795"><ele>677.0</ele><time>2026-04-27T07:44:02.993Z</time></trkpt><trkpt lat="39.957098293761646" lon="9.181846762198006"><ele>682.0</ele><time>2026-04-27T07:44:03.993Z</time></trkpt><trkpt lat="39.95699666442556" lon="9.181923813020214"><ele>687.0</ele><time>2026-04-27T07:44:04.993Z</time></trkpt><trkpt lat="39.95689486295838" lon="9.182005350681077"><ele>687.0</ele><time>2026-04-27T07:44:05.993Z</time></trkpt><trkpt lat="39.95678577943736" lon="9.182095775334282"><ele>687.0</ele><time>2026-04-27T07:44:06.993Z</time></trkpt><trkpt lat="39.956671313018866" lon="9.182196627553932"><ele>687.0</ele><time>2026-04-27T07:44:07.993Z</time></trkpt><trkpt lat="39.95656214959277" lon="9.182308386564667"><ele>687.0</ele><time>2026-04-27T07:44:08.993Z</time></trkpt><trkpt lat="39.956460916137765" lon="9.182427941159142"><ele>690.0</ele><time>2026-04-27T07:44:09.993Z</time></trkpt><trkpt lat="39.95642577052962" lon="9.182600297968218"><ele>693.0</ele><time>2026-04-27T07:44:10.993Z</time></trkpt><trkpt lat="39.956444061977834" lon="9.182767746033988"><ele>696.0</ele><time>2026-04-27T07:44:11.993Z</time></trkpt><trkpt lat="39.95648064257743" lon="9.182943797142773"><ele>699.0</ele><time>2026-04-27T07:44:12.993Z</time></trkpt><trkpt lat="39.956542238952544" lon="9.183116616292299"><ele>701.0</ele><time>2026-04-27T07:44:13.993Z</time></trkpt><trkpt lat="39.95652864025115" lon="9.183316555403913"><ele>703.0</ele><time>2026-04-27T07:44:14.993Z</time></trkpt><trkpt lat="39.95651673384831" lon="9.183500149569758"><ele>705.0</ele><time>2026-04-27T07:44:15.993Z</time></trkpt><trkpt lat="39.956487859555224" lon="9.183659547082415"><ele>707.0</ele><time>2026-04-27T07:44:16.993Z</time></trkpt><trkpt lat="39.95643560502126" lon="9.1837998196913"><ele>707.0</ele><time>2026-04-27T07:44:17.993Z</time></trkpt><trkpt lat="39.95635220591706" lon="9.18393387234385"><ele>707.0</ele><time>2026-04-27T07:44:18.993Z</time></trkpt><trkpt lat="39.95621762254601" lon="9.184013319893742"><ele>707.0</ele><time>2026-04-27T07:44:19.993Z</time></trkpt><trkpt lat="39.956091258282044" lon="9.184130690614342"><ele>707.0</ele><time>2026-04-27T07:44:20.993Z</time></trkpt><trkpt lat="39.95600586821533" lon="9.184321999005585"><ele>711.0</ele><time>2026-04-27T07:44:21.993Z</time></trkpt><trkpt lat="39.95592650039766" lon="9.184512916499678"><ele>715.0</ele><time>2026-04-27T07:44:22.993Z</time></trkpt><trkpt lat="39.95590755581227" lon="9.184735294210038"><ele>719.0</ele><time>2026-04-27T07:44:23.993Z</time></trkpt><trkpt lat="39.95595381097732" lon="9.184960695440106"><ele>723.6666666666666</ele><time>2026-04-27T07:44:24.993Z</time></trkpt><trkpt lat="39.95597782945125" lon="9.185176298821078"><ele>728.3333333333334</ele><time>2026-04-27T07:44:25.993Z</time></trkpt><trkpt lat="39.95597603558545" lon="9.185408910840154"><ele>733.0</ele><time>2026-04-27T07:44:26.993Z</time></trkpt><trkpt lat="39.95600854436592" lon="9.185648544513045"><ele>735.3333333333334</ele><time>2026-04-27T07:44:27.993Z</time></trkpt><trkpt lat="39.9560878369576" lon="9.185872994585383"><ele>737.6666666666666</ele><time>2026-04-27T07:44:28.993Z</time></trkpt><trkpt lat="39.956142072711586" lon="9.186053858015109"><ele>740.0</ele><time>2026-04-27T07:44:29.993Z</time></trkpt><trkpt lat="39.956150947435916" lon="9.186201358876932"><ele>740.0</ele><time>2026-04-27T07:44:30.993Z</time></trkpt><trkpt lat="39.956086471862754" lon="9.186409598957031"><ele>740.0</ele><time>2026-04-27T07:44:31.993Z</time></trkpt><trkpt lat="39.95602767352792" lon="9.18662492209856"><ele>740.0</ele><time>2026-04-27T07:44:32.993Z</time></trkpt><trkpt lat="39.95599300578293" lon="9.186862750727327"><ele>740.6666666666666</ele><time>2026-04-27T07:44:33.993Z</time></trkpt><trkpt lat="39.95596688978827" lon="9.187114104502042"><ele>741.3333333333334</ele><time>2026-04-27T07:44:34.993Z</time></trkpt><trkpt lat="39.956007548077004" lon="9.187368739788527"><ele>742.0</ele><time>2026-04-27T07:44:35.993Z</time></trkpt><trkpt lat="39.956085005247004" lon="9.187620938233584"><ele>742.6666666666667</ele><time>2026-04-27T07:44:36.993Z</time></trkpt><trkpt lat="39.9561776597633" lon="9.187863368343798"><ele>743.3333333333334</ele><time>2026-04-27T07:44:37.993Z</time></trkpt><trkpt lat="39.956221939573034" lon="9.188129036216953"><ele>744.0</ele><time>2026-04-27T07:44:38.993Z</time></trkpt><trkpt lat="39.95626056971501" lon="9.188428373770027"><ele>744.0</ele><time>2026-04-27T07:44:39.993Z</time></trkpt><trkpt lat="39.956299432516445" lon="9.188754778925887"><ele>744.0</ele><time>2026-04-27T07:44:40.993Z</time></trkpt><trkpt lat="39.95629947558124" lon="9.189089484976833"><ele>744.0</ele><time>2026-04-27T07:44:41.993Z</time></trkpt><trkpt lat="39.95629594213555" lon="9.189400054103976"><ele>744.0</ele><time>2026-04-27T07:44:42.993Z</time></trkpt><trkpt lat="39.95631026908001" lon="9.189669860531147"><ele>744.0</ele><time>2026-04-27T07:44:43.993Z</time></trkpt><trkpt lat="39.95636713105571" lon="9.18990902409202"><ele>744.0</ele><time>2026-04-27T07:44:44.992Z</time></trkpt><trkpt lat="39.95644842305668" lon="9.190136344365856"><ele>744.0</ele><time>2026-04-27T07:44:45.992Z</time></trkpt><trkpt lat="39.956448614753214" lon="9.19036502542596"><ele>744.0</ele><time>2026-04-27T07:44:46.992Z</time></trkpt><trkpt lat="39.95647076098853" lon="9.190539599590588"><ele>742.75</ele><time>2026-04-27T07:44:47.992Z</time></trkpt><trkpt lat="39.956555803213085" lon="9.190687090707694"><ele>741.5</ele><time>2026-04-27T07:44:48.992Z</time></trkpt><trkpt lat="39.956649846513095" lon="9.190810330728448"><ele>740.25</ele><time>2026-04-27T07:44:49.992Z</time></trkpt><trkpt lat="39.95664064034132" lon="9.190954260474747"><ele>739.0</ele><time>2026-04-27T07:44:50.992Z</time></trkpt><trkpt lat="39.956573703599155" lon="9.191107372061623"><ele>739.0</ele><time>2026-04-27T07:44:51.992Z</time></trkpt><trkpt lat="39.95654337079483" lon="9.191303664946181"><ele>739.0</ele><time>2026-04-27T07:44:52.992Z</time></trkpt><trkpt lat="39.95652716849119" lon="9.19148834891411"><ele>739.0</ele><time>2026-04-27T07:44:53.992Z</time></trkpt><trkpt lat="39.95660664802714" lon="9.19163170992228"><ele>739.0</ele><time>2026-04-27T07:44:54.992Z</time></trkpt><trkpt lat="39.95672651030845" lon="9.191748121365874"><ele>746.3333333333334</ele><time>2026-04-27T07:44:55.992Z</time></trkpt><trkpt lat="39.95690096719088" lon="9.191799760464194"><ele>753.6666666666666</ele><time>2026-04-27T07:44:56.992Z</time></trkpt><trkpt lat="39.95704887801351" lon="9.191881292261412"><ele>761.0</ele><time>2026-04-27T07:44:57.992Z</time></trkpt><trkpt lat="39.95717302375657" lon="9.192043219467807"><ele>761.0</ele><time>2026-04-27T07:44:58.992Z</time></trkpt><trkpt lat="39.95724820563535" lon="9.192255437378117"><ele>761.0</ele><time>2026-04-27T07:44:59.992Z</time></trkpt><trkpt lat="39.957330389024875" lon="9.192481496277226"><ele>761.0</ele><time>2026-04-27T07:45:00.992Z</time></trkpt><trkpt lat="39.957385743795044" lon="9.192707506018662"><ele>758.6666666666666</ele><time>2026-04-27T07:45:01.992Z</time></trkpt><trkpt lat="39.957457150084636" lon="9.192920429861205"><ele>756.3333333333334</ele><time>2026-04-27T07:45:02.992Z</time></trkpt><trkpt lat="39.9575292094852" lon="9.193102045545864"><ele>754.0</ele><time>2026-04-27T07:45:03.992Z</time></trkpt><trkpt lat="39.95761631200089" lon="9.193264279671117"><ele>760.3333333333334</ele><time>2026-04-27T07:45:04.992Z</time></trkpt><trkpt lat="39.9577338590033" lon="9.19339025541774"><ele>766.6666666666667</ele><time>2026-04-27T07:45:05.992Z</time></trkpt><trkpt lat="39.95787431596363" lon="9.19350337989608"><ele>773.0</ele><time>2026-04-27T07:45:06.992Z</time></trkpt><trkpt lat="39.95800903223324" lon="9.193604613234802"><ele>773.0</ele><time>2026-04-27T07:45:07.992Z</time></trkpt><trkpt lat="39.95813099825154" lon="9.19374614253361"><ele>773.0</ele><time>2026-04-27T07:45:08.992Z</time></trkpt><trkpt lat="39.95824334800426" lon="9.193880147501895"><ele>773.0</ele><time>2026-04-27T07:45:09.992Z</time></trkpt><trkpt lat="39.958349918995275" lon="9.19400508036607"><ele>775.25</ele><time>2026-04-27T07:45:10.992Z</time></trkpt><trkpt lat="39.95844280794648" lon="9.194111763779093"><ele>777.5</ele><time>2026-04-27T07:45:11.992Z</time></trkpt><trkpt lat="39.958541563562356" lon="9.194212213071976"><ele>779.75</ele><time>2026-04-27T07:45:12.992Z</time></trkpt><trkpt lat="39.95863847437647" lon="9.194319346722477"><ele>782.0</ele><time>2026-04-27T07:45:13.992Z</time></trkpt><trkpt lat="39.95872550096144" lon="9.194421249676173"><ele>782.0</ele><time>2026-04-27T07:45:14.992Z</time></trkpt><trkpt lat="39.95881580738202" lon="9.194528433068928"><ele>782.0</ele><time>2026-04-27T07:45:15.992Z</time></trkpt><trkpt lat="39.95890288161893" lon="9.194640346884736"><ele>782.0</ele><time>2026-04-27T07:45:16.992Z</time></trkpt><trkpt lat="39.95898533172422" lon="9.194752377285823"><ele>782.0</ele><time>2026-04-27T07:45:17.992Z</time></trkpt><trkpt lat="39.9590586269907" lon="9.19487647288902"><ele>784.0</ele><time>2026-04-27T07:45:18.992Z</time></trkpt><trkpt lat="39.95911910655781" lon="9.195008190129629"><ele>786.0</ele><time>2026-04-27T07:45:19.992Z</time></trkpt><trkpt lat="39.959179060055106" lon="9.195144940309959"><ele>788.0</ele><time>2026-04-27T07:45:20.992Z</time></trkpt><trkpt lat="39.95924748128067" lon="9.195270525089382"><ele>790.0</ele><time>2026-04-27T07:45:21.992Z</time></trkpt><trkpt lat="39.95933012024564" lon="9.195389055214584"><ele>790.0</ele><time>2026-04-27T07:45:22.992Z</time></trkpt><trkpt lat="39.95941286030338" lon="9.19549447877609"><ele>790.0</ele><time>2026-04-27T07:45:23.992Z</time></trkpt><trkpt lat="39.95949887164713" lon="9.195607913848084"><ele>790.0</ele><time>2026-04-27T07:45:24.992Z</time></trkpt><trkpt lat="39.959585639059014" lon="9.195727055064019"><ele>790.0</ele><time>2026-04-27T07:45:25.992Z</time></trkpt><trkpt lat="39.9596555835455" lon="9.195849464454971"><ele>789.0</ele><time>2026-04-27T07:45:26.992Z</time></trkpt><trkpt lat="39.95969394163885" lon="9.195992802185634"><ele>788.0</ele><time>2026-04-27T07:45:27.992Z</time></trkpt><trkpt lat="39.959701457106654" lon="9.19614584625985"><ele>787.0</ele><time>2026-04-27T07:45:28.992Z</time></trkpt><trkpt lat="39.959676444564884" lon="9.196302993256834"><ele>786.0</ele><time>2026-04-27T07:45:29.992Z</time></trkpt><trkpt lat="39.95960853410187" lon="9.196431754369385"><ele>789.0</ele><time>2026-04-27T07:45:30.992Z</time></trkpt><trkpt lat="39.95953978731013" lon="9.196568771869016"><ele>792.0</ele><time>2026-04-27T07:45:31.992Z</time></trkpt><trkpt lat="39.959454370401005" lon="9.196691988175534"><ele>795.0</ele><time>2026-04-27T07:45:32.992Z</time></trkpt><trkpt lat="39.95937466164472" lon="9.19681034578206"><ele>798.0</ele><time>2026-04-27T07:45:33.992Z</time></trkpt><trkpt lat="39.95930159901307" lon="9.196943814910894"><ele>798.0</ele><time>2026-04-27T07:45:34.992Z</time></trkpt><trkpt lat="39.95922779391152" lon="9.197077048043111"><ele>798.0</ele><time>2026-04-27T07:45:35.992Z</time></trkpt><trkpt lat="39.959153052917216" lon="9.19720583053195"><ele>798.0</ele><time>2026-04-27T07:45:36.992Z</time></trkpt><trkpt lat="39.959081198296545" lon="9.197321018783168"><ele>798.0</ele><time>2026-04-27T07:45:37.992Z</time></trkpt><trkpt lat="39.95900641880691" lon="9.197423042836853"><ele>796.0</ele><time>2026-04-27T07:45:38.992Z</time></trkpt><trkpt lat="39.958917783058176" lon="9.197497462072842"><ele>794.0</ele><time>2026-04-27T07:45:39.992Z</time></trkpt><trkpt lat="39.95882155719882" lon="9.197501024715597"><ele>792.0</ele><time>2026-04-27T07:45:40.992Z</time></trkpt><trkpt lat="39.95871854467693" lon="9.19749753442462"><ele>790.0</ele><time>2026-04-27T07:45:41.992Z</time></trkpt><trkpt lat="39.95862201905386" lon="9.19742594347398"><ele>788.0</ele><time>2026-04-27T07:45:42.991Z</time></trkpt><trkpt lat="39.95852715662878" lon="9.197337435011397"><ele>786.5999999999999</ele><time>2026-04-27T07:45:43.993Z</time></trkpt><trkpt lat="39.958445856560985" lon="9.197243147712532"><ele>785.1999999999999</ele><time>2026-04-27T07:45:44.993Z</time></trkpt><trkpt lat="39.95837877450639" lon="9.197128055777721"><ele>783.8</ele><time>2026-04-27T07:45:45.993Z</time></trkpt><trkpt lat="39.95830170103069" lon="9.197039586091408"><ele>782.4</ele><time>2026-04-27T07:45:46.994Z</time></trkpt><trkpt lat="39.95822458284701" lon="9.196958652808782"><ele>781.0</ele><time>2026-04-27T07:45:47.994Z</time></trkpt><trkpt lat="39.95814950985373" lon="9.196877619419832"><ele>781.0</ele><time>2026-04-27T07:45:48.994Z</time></trkpt><trkpt lat="39.958075782893985" lon="9.196793258247782"><ele>781.0</ele><time>2026-04-27T07:45:49.994Z</time></trkpt><trkpt lat="39.9580065666811" lon="9.196713113173054"><ele>781.0</ele><time>2026-04-27T07:45:50.993Z</time></trkpt><trkpt lat="39.9579385288053" lon="9.19663611052358"><ele>781.0</ele><time>2026-04-27T07:45:51.993Z</time></trkpt><trkpt lat="39.95785909464863" lon="9.196563255405756"><ele>781.0</ele><time>2026-04-27T07:45:52.994Z</time></trkpt><trkpt lat="39.95777463346696" lon="9.196506593129454"><ele>779.8</ele><time>2026-04-27T07:45:53.994Z</time></trkpt><trkpt lat="39.95768009879323" lon="9.196479779354537"><ele>778.5999999999999</ele><time>2026-04-27T07:45:54.994Z</time></trkpt><trkpt lat="39.957588878545174" lon="9.19644961303258"><ele>777.4</ele><time>2026-04-27T07:45:55.993Z</time></trkpt><trkpt lat="39.95749950379375" lon="9.196443935643229"><ele>776.2</ele><time>2026-04-27T07:45:56.993Z</time></trkpt><trkpt lat="39.95741157711117" lon="9.196420634926866"><ele>775.0</ele><time>2026-04-27T07:45:57.993Z</time></trkpt><trkpt lat="39.95732872257038" lon="9.19641792615589"><ele>774.9999999999999</ele><time>2026-04-27T07:45:58.993Z</time></trkpt><trkpt lat="39.95724804408534" lon="9.196415288521251"><ele>775.0</ele><time>2026-04-27T07:45:59.993Z</time></trkpt><trkpt lat="39.95716003866023" lon="9.196416251845188"><ele>775.0</ele><time>2026-04-27T07:46:00.993Z</time></trkpt><trkpt lat="39.957066649458675" lon="9.19641625184753"><ele>775.0</ele><time>2026-04-27T07:46:01.993Z</time></trkpt><trkpt lat="39.95698791644648" lon="9.196411709058404"><ele>774.9999999999999</ele><time>2026-04-27T07:46:02.993Z</time></trkpt><trkpt lat="39.95691701261591" lon="9.196405037878606"><ele>775.0</ele><time>2026-04-27T07:46:03.993Z</time></trkpt><trkpt lat="39.95683562059024" lon="9.196398354287457"><ele>774.9999999999999</ele><time>2026-04-27T07:46:04.993Z</time></trkpt><trkpt lat="39.95675573552428" lon="9.196398389075869"><ele>775.0</ele><time>2026-04-27T07:46:05.993Z</time></trkpt><trkpt lat="39.95667969039433" lon="9.196429702669109"><ele>775.0</ele><time>2026-04-27T07:46:06.993Z</time></trkpt><trkpt lat="39.956610522519945" lon="9.196429193009028"><ele>775.0</ele><time>2026-04-27T07:46:07.993Z</time></trkpt><trkpt lat="39.95653522197032" lon="9.196453408992815"><ele>775.0</ele><time>2026-04-27T07:46:08.993Z</time></trkpt><trkpt lat="39.95646302784873" lon="9.196473460922814"><ele>774.9999999999999</ele><time>2026-04-27T07:46:09.993Z</time></trkpt><trkpt lat="39.95639874718407" lon="9.196446155080661"><ele>775.0</ele><time>2026-04-27T07:46:10.993Z</time></trkpt><trkpt lat="39.95632304495314" lon="9.196466146464404"><ele>776.2</ele><time>2026-04-27T07:46:12.993Z</time></trkpt><trkpt lat="39.956249966600566" lon="9.196487323410317"><ele>777.4</ele><time>2026-04-27T07:46:47.992Z</time></trkpt><trkpt lat="39.956186801057484" lon="9.196509247565688"><ele>778.5999999999999</ele><time>2026-04-27T07:46:49.992Z</time></trkpt><trkpt lat="39.95607620336541" lon="9.196554940832653"><ele>779.8</ele><time>2026-04-27T07:46:51.992Z</time></trkpt><trkpt lat="39.9559418294104" lon="9.196644897213544"><ele>781.0</ele><time>2026-04-27T07:46:53.992Z</time></trkpt><trkpt lat="39.955860705963076" lon="9.196705710481531"><ele>784.1666666666666</ele><time>2026-04-27T07:46:54.992Z</time></trkpt><trkpt lat="39.95578788776814" lon="9.19676020029791"><ele>787.3333333333333</ele><time>2026-04-27T07:46:55.992Z</time></trkpt><trkpt lat="39.95571174960457" lon="9.196809618851098"><ele>790.5</ele><time>2026-04-27T07:46:56.992Z</time></trkpt><trkpt lat="39.9556428216037" lon="9.196844696922415"><ele>793.6666666666667</ele><time>2026-04-27T07:46:57.992Z</time></trkpt><trkpt lat="39.955566841840394" lon="9.196880193220972"><ele>796.8333333333334</ele><time>2026-04-27T07:46:58.992Z</time></trkpt><trkpt lat="39.95549228029275" lon="9.196914572777606"><ele>800.0</ele><time>2026-04-27T07:46:59.992Z</time></trkpt><trkpt lat="39.95539377679626" lon="9.1969616968973"><ele>800.0000000000001</ele><time>2026-04-27T07:47:01.992Z</time></trkpt><trkpt lat="39.9552967724759" lon="9.197020745227698"><ele>800.0</ele><time>2026-04-27T07:47:03.992Z</time></trkpt><trkpt lat="39.95522160585434" lon="9.197082939733807"><ele>800.0</ele><time>2026-04-27T07:47:04.992Z</time></trkpt><trkpt lat="39.955140751320826" lon="9.197164661264962"><ele>800.0</ele><time>2026-04-27T07:47:06.992Z</time></trkpt><trkpt lat="39.95508848834842" lon="9.197223042484291"><ele>800.0000000000001</ele><time>2026-04-27T07:47:08.992Z</time></trkpt><trkpt lat="39.95503862902983" lon="9.197281489121842"><ele>800.0</ele><time>2026-04-27T07:47:09.992Z</time></trkpt><trkpt lat="39.95498653571192" lon="9.197343953968057"><ele>802.0000000000001</ele><time>2026-04-27T07:47:10.992Z</time></trkpt><trkpt lat="39.954929118755224" lon="9.19742428496988"><ele>804.0</ele><time>2026-04-27T07:47:11.992Z</time></trkpt><trkpt lat="39.95488302210048" lon="9.19750396940573"><ele>806.0</ele><time>2026-04-27T07:47:12.992Z</time></trkpt><trkpt lat="39.954839861066446" lon="9.197592244947854"><ele>808.0</ele><time>2026-04-27T07:47:13.992Z</time></trkpt><trkpt lat="39.954795899477" lon="9.197688930446782"><ele>810.0000000000001</ele><time>2026-04-27T07:47:14.992Z</time></trkpt><trkpt lat="39.95475345157098" lon="9.19778647614886"><ele>812.0</ele><time>2026-04-27T07:47:15.992Z</time></trkpt><trkpt lat="39.954722733567934" lon="9.19788770911808"><ele>812.0</ele><time>2026-04-27T07:47:16.992Z</time></trkpt><trkpt lat="39.95467974398579" lon="9.19796729355785"><ele>812.0</ele><time>2026-04-27T07:47:17.992Z</time></trkpt><trkpt lat="39.95464090274289" lon="9.198064625132968"><ele>812.0</ele><time>2026-04-27T07:47:18.991Z</time></trkpt><trkpt lat="39.954597017223094" lon="9.198142782623032"><ele>812.0</ele><time>2026-04-27T07:47:19.991Z</time></trkpt><trkpt lat="39.954558944823454" lon="9.198231239212747"><ele>812.0</ele><time>2026-04-27T07:47:20.991Z</time></trkpt><trkpt lat="39.954527397233356" lon="9.198309597006345"><ele>812.0</ele><time>2026-04-27T07:47:21.991Z</time></trkpt><trkpt lat="39.9544931315178" lon="9.19838716339946"><ele>812.0</ele><time>2026-04-27T07:47:22.991Z</time></trkpt><trkpt lat="39.9544541107501" lon="9.198466251152336"><ele>812.1666666666667</ele><time>2026-04-27T07:47:23.991Z</time></trkpt><trkpt lat="39.954412933284914" lon="9.198536566883435"><ele>812.3333333333334</ele><time>2026-04-27T07:47:24.991Z</time></trkpt><trkpt lat="39.954342190947926" lon="9.198544150266724"><ele>812.5</ele><time>2026-04-27T07:47:25.991Z</time></trkpt><trkpt lat="39.95427798450067" lon="9.198571833756752"><ele>812.6666666666667</ele><time>2026-04-27T07:47:26.991Z</time></trkpt><trkpt lat="39.95420017893872" lon="9.198554204903857"><ele>812.8333333333334</ele><time>2026-04-27T07:47:27.991Z</time></trkpt><trkpt lat="39.95414695124796" lon="9.198470860508587"><ele>813.0</ele><time>2026-04-27T07:47:28.991Z</time></trkpt><trkpt lat="39.95411632710868" lon="9.198349785260582"><ele>813.0</ele><time>2026-04-27T07:47:29.991Z</time></trkpt><trkpt lat="39.95407629904025" lon="9.198229523845896"><ele>813.0</ele><time>2026-04-27T07:47:30.991Z</time></trkpt><trkpt lat="39.95401603607717" lon="9.1981229150371"><ele>813.0</ele><time>2026-04-27T07:47:31.991Z</time></trkpt><trkpt lat="39.95394434666552" lon="9.198030346328704"><ele>813.0</ele><time>2026-04-27T07:47:32.991Z</time></trkpt><trkpt lat="39.95388286156045" lon="9.197951197893408"><ele>813.0</ele><time>2026-04-27T07:47:33.991Z</time></trkpt><trkpt lat="39.95380928662202" lon="9.19787858638202"><ele>810.8</ele><time>2026-04-27T07:47:34.991Z</time></trkpt><trkpt lat="39.95373764137644" lon="9.197798955041375"><ele>808.5999999999999</ele><time>2026-04-27T07:47:35.991Z</time></trkpt><trkpt lat="39.953658704726486" lon="9.197708653729334"><ele>806.4000000000001</ele><time>2026-04-27T07:47:36.991Z</time></trkpt><trkpt lat="39.95358114297502" lon="9.197625924403026"><ele>804.2</ele><time>2026-04-27T07:47:37.991Z</time></trkpt><trkpt lat="39.95350144920055" lon="9.197534345115276"><ele>802.0</ele><time>2026-04-27T07:47:38.991Z</time></trkpt><trkpt lat="39.9534164438777" lon="9.197452355570476"><ele>802.5</ele><time>2026-04-27T07:47:39.991Z</time></trkpt><trkpt lat="39.953322741401976" lon="9.197326911281813"><ele>803.0</ele><time>2026-04-27T07:47:40.991Z</time></trkpt><trkpt lat="39.95323756384034" lon="9.19724248774471"><ele>803.5</ele><time>2026-04-27T07:47:41.991Z</time></trkpt><trkpt lat="39.953141136338374" lon="9.197165394144315"><ele>804.0</ele><time>2026-04-27T07:47:42.991Z</time></trkpt><trkpt lat="39.95303819037795" lon="9.19710557937896"><ele>804.0</ele><time>2026-04-27T07:47:43.991Z</time></trkpt><trkpt lat="39.952958492051316" lon="9.19703423246425"><ele>804.0</ele><time>2026-04-27T07:47:44.991Z</time></trkpt><trkpt lat="39.9529091906691" lon="9.196927275768008"><ele>804.0</ele><time>2026-04-27T07:47:45.991Z</time></trkpt><trkpt lat="39.952942206363936" lon="9.19678544534786"><ele>804.0</ele><time>2026-04-27T07:47:46.991Z</time></trkpt><trkpt lat="39.95295824451469" lon="9.196643607169861"><ele>804.0</ele><time>2026-04-27T07:47:47.991Z</time></trkpt><trkpt lat="39.952962378740736" lon="9.19649935986673"><ele>803.25</ele><time>2026-04-27T07:47:48.991Z</time></trkpt><trkpt lat="39.952949227082115" lon="9.196357108822616"><ele>802.5</ele><time>2026-04-27T07:47:49.993Z</time></trkpt><trkpt lat="39.952906041149824" lon="9.19621794802469"><ele>801.75</ele><time>2026-04-27T07:47:50.993Z</time></trkpt><trkpt lat="39.95285204631893" lon="9.19608593066375"><ele>801.0</ele><time>2026-04-27T07:47:51.993Z</time></trkpt><trkpt lat="39.95280950715564" lon="9.195945641168283"><ele>801.0</ele><time>2026-04-27T07:47:52.993Z</time></trkpt><trkpt lat="39.95281314485404" lon="9.195799403117661"><ele>801.0</ele><time>2026-04-27T07:47:53.993Z</time></trkpt><trkpt lat="39.952883386405404" lon="9.195666789500983"><ele>801.0</ele><time>2026-04-27T07:47:54.993Z</time></trkpt><trkpt lat="39.95289892115268" lon="9.195518961788574"><ele>801.0</ele><time>2026-04-27T07:47:55.993Z</time></trkpt><trkpt lat="39.952888246075645" lon="9.195368243548971"><ele>800.25</ele><time>2026-04-27T07:47:56.993Z</time></trkpt><trkpt lat="39.95282951549863" lon="9.195225009085672"><ele>799.5</ele><time>2026-04-27T07:47:57.993Z</time></trkpt><trkpt lat="39.952743927007674" lon="9.195105199552778"><ele>798.75</ele><time>2026-04-27T07:47:58.994Z</time></trkpt><trkpt lat="39.95263939099033" lon="9.195003441407522"><ele>798.0</ele><time>2026-04-27T07:47:59.993Z</time></trkpt><trkpt lat="39.952524628560845" lon="9.194928198880403"><ele>801.75</ele><time>2026-04-27T07:48:00.993Z</time></trkpt><trkpt lat="39.95240684240081" lon="9.19486519011468"><ele>805.5</ele><time>2026-04-27T07:48:01.993Z</time></trkpt><trkpt lat="39.952301937022426" lon="9.194778318061042"><ele>809.25</ele><time>2026-04-27T07:48:02.993Z</time></trkpt><trkpt lat="39.95224115846862" lon="9.194647262003555"><ele>813.0</ele><time>2026-04-27T07:48:03.993Z</time></trkpt><trkpt lat="39.95226629196986" lon="9.194469368282638"><ele>813.0</ele><time>2026-04-27T07:48:04.993Z</time></trkpt><trkpt lat="39.95228663383877" lon="9.194316460536948"><ele>813.0</ele><time>2026-04-27T07:48:05.993Z</time></trkpt><trkpt lat="39.95227371265884" lon="9.194155706743539"><ele>813.0</ele><time>2026-04-27T07:48:06.993Z</time></trkpt><trkpt lat="39.95227034275473" lon="9.193989830475479"><ele>813.0</ele><time>2026-04-27T07:48:07.993Z</time></trkpt><trkpt lat="39.952245436837934" lon="9.193824903113699"><ele>812.75</ele><time>2026-04-27T07:48:08.993Z</time></trkpt><trkpt lat="39.95222084374535" lon="9.193660382703088"><ele>812.5</ele><time>2026-04-27T07:48:09.993Z</time></trkpt><trkpt lat="39.952199590628304" lon="9.193494431296909"><ele>812.25</ele><time>2026-04-27T07:48:10.993Z</time></trkpt><trkpt lat="39.95219925482268" lon="9.193331122355364"><ele>812.0</ele><time>2026-04-27T07:48:11.993Z</time></trkpt><trkpt lat="39.95220279989784" lon="9.19316423275768"><ele>811.25</ele><time>2026-04-27T07:48:12.993Z</time></trkpt><trkpt lat="39.95219252829489" lon="9.193004108036197"><ele>810.5</ele><time>2026-04-27T07:48:13.993Z</time></trkpt><trkpt lat="39.952157544852035" lon="9.192857091011232"><ele>809.75</ele><time>2026-04-27T07:48:14.993Z</time></trkpt><trkpt lat="39.95208008031874" lon="9.192731364130074"><ele>809.0</ele><time>2026-04-27T07:48:15.993Z</time></trkpt><trkpt lat="39.9519949303717" lon="9.192619915579641"><ele>809.0</ele><time>2026-04-27T07:48:16.993Z</time></trkpt><trkpt lat="39.95191202806052" lon="9.192491601035728"><ele>809.0</ele><time>2026-04-27T07:48:17.993Z</time></trkpt><trkpt lat="39.95185138723305" lon="9.192355584461948"><ele>809.0</ele><time>2026-04-27T07:48:18.993Z</time></trkpt><trkpt lat="39.95179500781793" lon="9.192218138801536"><ele>809.0</ele><time>2026-04-27T07:48:19.993Z</time></trkpt><trkpt lat="39.951731768877856" lon="9.192084716021414"><ele>812.5</ele><time>2026-04-27T07:48:20.992Z</time></trkpt><trkpt lat="39.95165302528739" lon="9.191976288824339"><ele>816.0</ele><time>2026-04-27T07:48:21.992Z</time></trkpt><trkpt lat="39.95153519073676" lon="9.191885186761938"><ele>819.5</ele><time>2026-04-27T07:48:22.992Z</time></trkpt><trkpt lat="39.95141595803633" lon="9.191796961505855"><ele>823.0</ele><time>2026-04-27T07:48:23.992Z</time></trkpt><trkpt lat="39.95131199407394" lon="9.191700879823074"><ele>823.0</ele><time>2026-04-27T07:48:24.992Z</time></trkpt><trkpt lat="39.95121482990108" lon="9.191599418181397"><ele>823.0</ele><time>2026-04-27T07:48:25.992Z</time></trkpt><trkpt lat="39.95111421962884" lon="9.191493149583813"><ele>823.0</ele><time>2026-04-27T07:48:26.992Z</time></trkpt><trkpt lat="39.951015513225016" lon="9.191382678957934"><ele>823.0</ele><time>2026-04-27T07:48:27.992Z</time></trkpt><trkpt lat="39.95091539217922" lon="9.19126607083468"><ele>824.75</ele><time>2026-04-27T07:48:28.992Z</time></trkpt><trkpt lat="39.95081797005397" lon="9.19115263986049"><ele>826.5</ele><time>2026-04-27T07:48:29.992Z</time></trkpt><trkpt lat="39.95071567652181" lon="9.191038639556135"><ele>828.25</ele><time>2026-04-27T07:48:30.992Z</time></trkpt><trkpt lat="39.9506252169135" lon="9.190908454017295"><ele>830.0</ele><time>2026-04-27T07:48:31.992Z</time></trkpt><trkpt lat="39.95054937250902" lon="9.190770351282206"><ele>827.0</ele><time>2026-04-27T07:48:32.992Z</time></trkpt><trkpt lat="39.950483757515954" lon="9.190590292128999"><ele>824.0</ele><time>2026-04-27T07:48:33.992Z</time></trkpt><trkpt lat="39.950420297530215" lon="9.190418559605728"><ele>821.0</ele><time>2026-04-27T07:48:34.992Z</time></trkpt><trkpt lat="39.950319563210726" lon="9.190282533624986"><ele>818.0</ele><time>2026-04-27T07:48:35.992Z</time></trkpt><trkpt lat="39.950181719014736" lon="9.19017822926634"><ele>821.6666666666667</ele><time>2026-04-27T07:48:36.992Z</time></trkpt><trkpt lat="39.9500326137415" lon="9.19008589628239"><ele>825.3333333333333</ele><time>2026-04-27T07:48:37.992Z</time></trkpt><trkpt lat="39.949901374663895" lon="9.189951309349203"><ele>829.0</ele><time>2026-04-27T07:48:38.992Z</time></trkpt><trkpt lat="39.94979944889122" lon="9.189770668993786"><ele>829.0</ele><time>2026-04-27T07:48:39.992Z</time></trkpt><trkpt lat="39.949666408303614" lon="9.18961106113933"><ele>829.0</ele><time>2026-04-27T07:48:40.992Z</time></trkpt><trkpt lat="39.94955142259722" lon="9.189434454942186"><ele>829.0</ele><time>2026-04-27T07:48:41.992Z</time></trkpt><trkpt lat="39.94945960146207" lon="9.189233272722573"><ele>827.6666666666666</ele><time>2026-04-27T07:48:42.992Z</time></trkpt><trkpt lat="39.94938995930281" lon="9.189008625867714"><ele>826.3333333333333</ele><time>2026-04-27T07:48:43.992Z</time></trkpt><trkpt lat="39.94935374452962" lon="9.188766126965234"><ele>825.0</ele><time>2026-04-27T07:48:44.992Z</time></trkpt><trkpt lat="39.94930912237134" lon="9.18851175516692"><ele>825.0</ele><time>2026-04-27T07:48:45.992Z</time></trkpt><trkpt lat="39.94921333150636" lon="9.188277564209555"><ele>825.0</ele><time>2026-04-27T07:48:46.992Z</time></trkpt><trkpt lat="39.949131097198446" lon="9.188076900510397"><ele>825.0</ele><time>2026-04-27T07:48:47.992Z</time></trkpt><trkpt lat="39.94905550135338" lon="9.187898062244484"><ele>828.6666666666667</ele><time>2026-04-27T07:48:48.992Z</time></trkpt><trkpt lat="39.94897484098483" lon="9.187728499321862"><ele>832.3333333333334</ele><time>2026-04-27T07:48:49.992Z</time></trkpt><trkpt lat="39.948886038586885" lon="9.18759088440001"><ele>836.0</ele><time>2026-04-27T07:48:50.992Z</time></trkpt><trkpt lat="39.94875482345411" lon="9.187473749860219"><ele>837.0</ele><time>2026-04-27T07:48:51.992Z</time></trkpt><trkpt lat="39.94861675265471" lon="9.187331493563853"><ele>838.0</ele><time>2026-04-27T07:48:52.992Z</time></trkpt><trkpt lat="39.94844733654345" lon="9.187194861527807"><ele>839.0</ele><time>2026-04-27T07:48:53.992Z</time></trkpt><trkpt lat="39.94825903627061" lon="9.187058352559037"><ele>839.0</ele><time>2026-04-27T07:48:54.992Z</time></trkpt><trkpt lat="39.9480846056366" lon="9.186949226546675"><ele>839.0</ele><time>2026-04-27T07:48:55.992Z</time></trkpt><trkpt lat="39.94793846979435" lon="9.186843208536393"><ele>839.0</ele><time>2026-04-27T07:48:56.992Z</time></trkpt><trkpt lat="39.94782169180134" lon="9.186725682573389"><ele>839.0</ele><time>2026-04-27T07:48:57.992Z</time></trkpt><trkpt lat="39.94772340272654" lon="9.18660253427571"><ele>839.0</ele><time>2026-04-27T07:48:58.992Z</time></trkpt><trkpt lat="39.94766623110057" lon="9.18645411379808"><ele>839.0</ele><time>2026-04-27T07:48:59.992Z</time></trkpt><trkpt lat="39.94767812584181" lon="9.186296109484168"><ele>839.0</ele><time>2026-04-27T07:49:00.992Z</time></trkpt><trkpt lat="39.94765260678712" lon="9.186122840233386"><ele>840.3333333333334</ele><time>2026-04-27T07:49:01.992Z</time></trkpt><trkpt lat="39.94768581597273" lon="9.18595365516302"><ele>841.6666666666667</ele><time>2026-04-27T07:49:02.992Z</time></trkpt><trkpt lat="39.947491814117896" lon="9.185907492857167"><ele>843.0</ele><time>2026-04-27T07:49:03.992Z</time></trkpt><trkpt lat="39.947355128818394" lon="9.185922177453811"><ele>843.0</ele><time>2026-04-27T07:49:04.992Z</time></trkpt><trkpt lat="39.94721561448078" lon="9.185988676059468"><ele>843.0</ele><time>2026-04-27T07:49:05.992Z</time></trkpt><trkpt lat="39.94709472841415" lon="9.186047913873582"><ele>843.0</ele><time>2026-04-27T07:49:06.992Z</time></trkpt><trkpt lat="39.94699293439028" lon="9.18610239217032"><ele>843.0</ele><time>2026-04-27T07:49:07.992Z</time></trkpt><trkpt lat="39.946885328083084" lon="9.186136160436606"><ele>843.0</ele><time>2026-04-27T07:49:08.992Z</time></trkpt><trkpt lat="39.946771764041536" lon="9.186162307879513"><ele>843.0</ele><time>2026-04-27T07:49:09.992Z</time></trkpt><trkpt lat="39.946658190029204" lon="9.186152299986128"><ele>843.0</ele><time>2026-04-27T07:49:10.992Z</time></trkpt><trkpt lat="39.94654310424806" lon="9.186090307713648"><ele>843.0</ele><time>2026-04-27T07:49:11.992Z</time></trkpt><trkpt lat="39.946437225702766" lon="9.185979873945032"><ele>843.75</ele><time>2026-04-27T07:49:12.992Z</time></trkpt><trkpt lat="39.946313196016554" lon="9.185884970929623"><ele>844.5</ele><time>2026-04-27T07:49:13.992Z</time></trkpt><trkpt lat="39.94619159854529" lon="9.185835041692915"><ele>845.25</ele><time>2026-04-27T07:49:14.992Z</time></trkpt><trkpt lat="39.946060408761795" lon="9.185833373300452"><ele>846.0</ele><time>2026-04-27T07:49:15.992Z</time></trkpt><trkpt lat="39.9459318235675" lon="9.185871052700456"><ele>845.5</ele><time>2026-04-27T07:49:16.992Z</time></trkpt><trkpt lat="39.94582107071669" lon="9.185846797094795"><ele>845.0</ele><time>2026-04-27T07:49:17.992Z</time></trkpt><trkpt lat="39.94571477912007" lon="9.185802800534901"><ele>844.5</ele><time>2026-04-27T07:49:18.991Z</time></trkpt><trkpt lat="39.94561668908232" lon="9.185731562634128"><ele>844.0</ele><time>2026-04-27T07:49:19.991Z</time></trkpt><trkpt lat="39.94554268847518" lon="9.185618958886087"><ele>844.0</ele><time>2026-04-27T07:49:20.991Z</time></trkpt><trkpt lat="39.9454646285912" lon="9.185466707211454"><ele>844.0</ele><time>2026-04-27T07:49:21.991Z</time></trkpt><trkpt lat="39.94537329818405" lon="9.185321157122328"><ele>844.0</ele><time>2026-04-27T07:49:22.991Z</time></trkpt><trkpt lat="39.945286333462555" lon="9.185170843963206"><ele>844.0</ele><time>2026-04-27T07:49:23.991Z</time></trkpt><trkpt lat="39.94516061253014" lon="9.185062942184077"><ele>845.0</ele><time>2026-04-27T07:49:24.991Z</time></trkpt><trkpt lat="39.94496779908483" lon="9.18495483952611"><ele>846.0</ele><time>2026-04-27T07:49:25.991Z</time></trkpt><trkpt lat="39.944735877287265" lon="9.184817660506837"><ele>846.0</ele><time>2026-04-27T07:49:26.991Z</time></trkpt><trkpt lat="39.944531515077045" lon="9.184705060352863"><ele>846.0</ele><time>2026-04-27T07:49:27.991Z</time></trkpt><trkpt lat="39.9443812380242" lon="9.1845781367144"><ele>846.0</ele><time>2026-04-27T07:49:28.991Z</time></trkpt><trkpt lat="39.944273054095156" lon="9.184419143959321"><ele>850.3333333333333</ele><time>2026-04-27T07:49:29.991Z</time></trkpt><trkpt lat="39.94420154500576" lon="9.184190230792623"><ele>854.6666666666666</ele><time>2026-04-27T07:49:30.991Z</time></trkpt><trkpt lat="39.94411992076802" lon="9.18389963300756"><ele>859.0</ele><time>2026-04-27T07:49:31.991Z</time></trkpt><trkpt lat="39.94406096349028" lon="9.183613019784527"><ele>859.0</ele><time>2026-04-27T07:49:32.991Z</time></trkpt><trkpt lat="39.94400059651898" lon="9.183345301147503"><ele>859.0</ele><time>2026-04-27T07:49:33.991Z</time></trkpt><trkpt lat="39.9440160124003" lon="9.183076145781474"><ele>859.0</ele><time>2026-04-27T07:49:34.991Z</time></trkpt><trkpt lat="39.94404328487568" lon="9.182836334165756"><ele>857.3333333333333</ele><time>2026-04-27T07:49:35.991Z</time></trkpt><trkpt lat="39.94405784725104" lon="9.182617217725332"><ele>855.6666666666667</ele><time>2026-04-27T07:49:36.991Z</time></trkpt><trkpt lat="39.94401178431151" lon="9.18240391051094"><ele>854.0</ele><time>2026-04-27T07:49:37.991Z</time></trkpt><trkpt lat="39.94389377727166" lon="9.18219328218887"><ele>850.3333333333334</ele><time>2026-04-27T07:49:38.991Z</time></trkpt><trkpt lat="39.94373495111384" lon="9.182024858648075"><ele>846.6666666666667</ele><time>2026-04-27T07:49:39.991Z</time></trkpt><trkpt lat="39.94354891059011" lon="9.18187749499343"><ele>843.0</ele><time>2026-04-27T07:49:40.991Z</time></trkpt><trkpt lat="39.94340055248273" lon="9.18169404561802"><ele>847.0</ele><time>2026-04-27T07:49:41.991Z</time></trkpt><trkpt lat="39.94325877841617" lon="9.181524771348075"><ele>851.0</ele><time>2026-04-27T07:49:42.991Z</time></trkpt><trkpt lat="39.94312610796587" lon="9.1813491865546"><ele>855.0</ele><time>2026-04-27T07:49:43.991Z</time></trkpt><trkpt lat="39.94301358180184" lon="9.181178915686134"><ele>855.0</ele><time>2026-04-27T07:49:44.991Z</time></trkpt><trkpt lat="39.94292843548079" lon="9.180963938858886"><ele>855.0</ele><time>2026-04-27T07:49:45.991Z</time></trkpt><trkpt lat="39.94289431026189" lon="9.180697088999915"><ele>855.0</ele><time>2026-04-27T07:49:46.991Z</time></trkpt><trkpt lat="39.94286352803054" lon="9.180434752715323"><ele>853.3333333333333</ele><time>2026-04-27T07:49:47.991Z</time></trkpt><trkpt lat="39.94281943747035" lon="9.180165176647979"><ele>851.6666666666666</ele><time>2026-04-27T07:49:48.991Z</time></trkpt><trkpt lat="39.94276295776273" lon="9.179907379630992"><ele>850.0</ele><time>2026-04-27T07:49:49.991Z</time></trkpt><trkpt lat="39.94269527791537" lon="9.179638783791749"><ele>850.0</ele><time>2026-04-27T07:49:50.991Z</time></trkpt><trkpt lat="39.9426364534195" lon="9.179388016181608"><ele>850.0</ele><time>2026-04-27T07:49:51.991Z</time></trkpt><trkpt lat="39.942600798540774" lon="9.179146046759044"><ele>850.0</ele><time>2026-04-27T07:49:52.991Z</time></trkpt><trkpt lat="39.94261830910432" lon="9.178885333825823"><ele>850.3333333333333</ele><time>2026-04-27T07:49:53.991Z</time></trkpt><trkpt lat="39.942667583548264" lon="9.178624821897767"><ele>850.6666666666667</ele><time>2026-04-27T07:49:54.991Z</time></trkpt><trkpt lat="39.94274340456623" lon="9.17836490665306"><ele>851.0</ele><time>2026-04-27T07:49:55.993Z</time></trkpt><trkpt lat="39.94283182667558" lon="9.17810938320017"><ele>851.3333333333334</ele><time>2026-04-27T07:49:56.993Z</time></trkpt><trkpt lat="39.94284573143181" lon="9.17783659903737"><ele>851.6666666666667</ele><time>2026-04-27T07:49:57.993Z</time></trkpt><trkpt lat="39.94279581030634" lon="9.177541994168902"><ele>852.0</ele><time>2026-04-27T07:49:58.993Z</time></trkpt><trkpt lat="39.94272557831722" lon="9.177266866340382"><ele>851.0</ele><time>2026-04-27T07:49:59.993Z</time></trkpt><trkpt lat="39.94261805608623" lon="9.17700171468513"><ele>850.0</ele><time>2026-04-27T07:50:00.993Z</time></trkpt><trkpt lat="39.94250243017655" lon="9.176771581401319"><ele>849.0</ele><time>2026-04-27T07:50:01.993Z</time></trkpt><trkpt lat="39.94242505997631" lon="9.176506726545815"><ele>858.3333333333333</ele><time>2026-04-27T07:50:02.992Z</time></trkpt><trkpt lat="39.942363976070986" lon="9.17623371775346"><ele>867.6666666666666</ele><time>2026-04-27T07:50:03.992Z</time></trkpt><trkpt lat="39.94230170944927" lon="9.175965234001268"><ele>877.0</ele><time>2026-04-27T07:50:04.993Z</time></trkpt><trkpt lat="39.9422314119236" lon="9.175701389851161"><ele>878.6666666666666</ele><time>2026-04-27T07:50:05.993Z</time></trkpt><trkpt lat="39.94219166525981" lon="9.17543881833964"><ele>880.3333333333333</ele><time>2026-04-27T07:50:06.993Z</time></trkpt><trkpt lat="39.94218147888501" lon="9.175177993068885"><ele>882.0</ele><time>2026-04-27T07:50:07.993Z</time></trkpt><trkpt lat="39.94221837513222" lon="9.174922279032963"><ele>886.6666666666667</ele><time>2026-04-27T07:50:08.993Z</time></trkpt><trkpt lat="39.94229918578462" lon="9.17467161300442"><ele>891.3333333333334</ele><time>2026-04-27T07:50:09.993Z</time></trkpt><trkpt lat="39.94238949120159" lon="9.174428473942742"><ele>896.0</ele><time>2026-04-27T07:50:10.993Z</time></trkpt><trkpt lat="39.94246818464847" lon="9.174202836688398"><ele>898.3333333333334</ele><time>2026-04-27T07:50:11.993Z</time></trkpt><trkpt lat="39.94257754689514" lon="9.174032311439358"><ele>900.6666666666667</ele><time>2026-04-27T07:50:12.993Z</time></trkpt><trkpt lat="39.94273655415573" lon="9.173896671133202"><ele>903.0</ele><time>2026-04-27T07:50:13.993Z</time></trkpt><trkpt lat="39.9429150392182" lon="9.17377957043785"><ele>903.0</ele><time>2026-04-27T07:50:14.993Z</time></trkpt><trkpt lat="39.94311894834483" lon="9.173667889059239"><ele>903.0</ele><time>2026-04-27T07:50:15.993Z</time></trkpt><trkpt lat="39.94331500771566" lon="9.173547031353321"><ele>903.0</ele><time>2026-04-27T07:50:16.993Z</time></trkpt><trkpt lat="39.943509895261684" lon="9.17341380379155"><ele>897.3333333333333</ele><time>2026-04-27T07:50:17.993Z</time></trkpt><trkpt lat="39.94367050031768" lon="9.173270869010125"><ele>891.6666666666666</ele><time>2026-04-27T07:50:18.993Z</time></trkpt><trkpt lat="39.94379100956192" lon="9.173130554072564"><ele>886.0</ele><time>2026-04-27T07:50:19.993Z</time></trkpt><trkpt lat="39.94386928093263" lon="9.172963003815047"><ele>886.0</ele><time>2026-04-27T07:50:20.993Z</time></trkpt><trkpt lat="39.943863041018155" lon="9.172720573950697"><ele>886.0</ele><time>2026-04-27T07:50:21.993Z</time></trkpt><trkpt lat="39.943814965652514" lon="9.172437955481806"><ele>886.0</ele><time>2026-04-27T07:50:22.993Z</time></trkpt><trkpt lat="39.943717282129455" lon="9.172143483211324"><ele>882.0</ele><time>2026-04-27T07:50:23.993Z</time></trkpt><trkpt lat="39.94358697645328" lon="9.171872742112983"><ele>878.0</ele><time>2026-04-27T07:50:24.993Z</time></trkpt><trkpt lat="39.94343832859859" lon="9.17162167435953"><ele>891.5</ele><time>2026-04-27T07:50:25.993Z</time></trkpt><trkpt lat="39.94329910685871" lon="9.171371451472174"><ele>905.0</ele><time>2026-04-27T07:50:26.993Z</time></trkpt><trkpt lat="39.94315350201502" lon="9.171135446703689"><ele>905.0</ele><time>2026-04-27T07:50:27.993Z</time></trkpt><trkpt lat="39.94303490276812" lon="9.170881929921235"><ele>905.0</ele><time>2026-04-27T07:50:28.993Z</time></trkpt><trkpt lat="39.94291481660108" lon="9.170632140985283"><ele>906.3333333333334</ele><time>2026-04-27T07:50:29.993Z</time></trkpt><trkpt lat="39.94280659238849" lon="9.170380685056575"><ele>907.6666666666667</ele><time>2026-04-27T07:50:30.993Z</time></trkpt><trkpt lat="39.94272564532009" lon="9.170114802557988"><ele>909.0</ele><time>2026-04-27T07:50:31.993Z</time></trkpt><trkpt lat="39.94267269858607" lon="9.169822931550627"><ele>911.0</ele><time>2026-04-27T07:50:32.993Z</time></trkpt><trkpt lat="39.94261841242091" lon="9.169529064981841"><ele>913.0</ele><time>2026-04-27T07:50:33.993Z</time></trkpt><trkpt lat="39.942552470030044" lon="9.169236563924423"><ele>919.5</ele><time>2026-04-27T07:50:34.993Z</time></trkpt><trkpt lat="39.942481525976156" lon="9.168950746516064"><ele>926.0</ele><time>2026-04-27T07:50:35.993Z</time></trkpt><trkpt lat="39.94239323465531" lon="9.1686673388455"><ele>926.0</ele><time>2026-04-27T07:50:36.993Z</time></trkpt><trkpt lat="39.942306535864624" lon="9.168399292675106"><ele>926.0</ele><time>2026-04-27T07:50:37.993Z</time></trkpt><trkpt lat="39.9422339223956" lon="9.168123498519503"><ele>926.0</ele><time>2026-04-27T07:50:38.993Z</time></trkpt><trkpt lat="39.94216754319524" lon="9.167841952819213"><ele>932.0</ele><time>2026-04-27T07:50:39.993Z</time></trkpt><trkpt lat="39.942082647563915" lon="9.167566859313917"><ele>938.0</ele><time>2026-04-27T07:50:40.993Z</time></trkpt><trkpt lat="39.94198863238813" lon="9.16730250684685"><ele>941.3333333333334</ele><time>2026-04-27T07:50:41.993Z</time></trkpt><trkpt lat="39.941896096979484" lon="9.167068611545314"><ele>944.6666666666667</ele><time>2026-04-27T07:50:42.993Z</time></trkpt><trkpt lat="39.941815187664915" lon="9.166863554701553"><ele>948.0</ele><time>2026-04-27T07:50:43.992Z</time></trkpt><trkpt lat="39.941729265616544" lon="9.166703226676546"><ele>942.0</ele><time>2026-04-27T07:50:44.992Z</time></trkpt><trkpt lat="39.941606817927166" lon="9.166635351562888"><ele>936.0</ele><time>2026-04-27T07:50:45.992Z</time></trkpt><trkpt lat="39.94144282831666" lon="9.166629227214033"><ele>930.0</ele><time>2026-04-27T07:50:46.992Z</time></trkpt><trkpt lat="39.94123045191374" lon="9.166646424003952"><ele>930.0</ele><time>2026-04-27T07:50:47.992Z</time></trkpt><trkpt lat="39.94099486277409" lon="9.166704658072767"><ele>930.0</ele><time>2026-04-27T07:50:48.992Z</time></trkpt><trkpt lat="39.940761221354386" lon="9.166819084517778"><ele>931.0</ele><time>2026-04-27T07:50:49.992Z</time></trkpt><trkpt lat="39.9405358313227" lon="9.1669275752882"><ele>932.0</ele><time>2026-04-27T07:50:50.992Z</time></trkpt><trkpt lat="39.94034683058492" lon="9.167062864408694"><ele>932.0</ele><time>2026-04-27T07:50:51.992Z</time></trkpt><trkpt lat="39.940188710014894" lon="9.167259560816488"><ele>932.0</ele><time>2026-04-27T07:50:52.992Z</time></trkpt><trkpt lat="39.94005611188551" lon="9.167460454905392"><ele>932.0</ele><time>2026-04-27T07:50:53.992Z</time></trkpt><trkpt lat="39.93994507749673" lon="9.167593851702096"><ele>931.3333333333334</ele><time>2026-04-27T07:50:54.992Z</time></trkpt><trkpt lat="39.93982168671418" lon="9.167623700479144"><ele>930.6666666666667</ele><time>2026-04-27T07:50:55.992Z</time></trkpt><trkpt lat="39.93965938432767" lon="9.167558592772464"><ele>930.0</ele><time>2026-04-27T07:50:56.992Z</time></trkpt><trkpt lat="39.93945365385048" lon="9.167440783645104"><ele>937.0</ele><time>2026-04-27T07:50:57.992Z</time></trkpt><trkpt lat="39.939234186389186" lon="9.1672838384144"><ele>944.0</ele><time>2026-04-27T07:50:58.992Z</time></trkpt><trkpt lat="39.93899900792561" lon="9.167098185719594"><ele>947.5</ele><time>2026-04-27T07:50:59.992Z</time></trkpt><trkpt lat="39.93877941087687" lon="9.166918714859554"><ele>951.0</ele><time>2026-04-27T07:51:00.992Z</time></trkpt><trkpt lat="39.93857651352425" lon="9.166771927071157"><ele>947.0</ele><time>2026-04-27T07:51:01.992Z</time></trkpt><trkpt lat="39.93834683758096" lon="9.166686375915239"><ele>943.0</ele><time>2026-04-27T07:51:02.992Z</time></trkpt><trkpt lat="39.9380952481553" lon="9.166650217509133"><ele>943.0</ele><time>2026-04-27T07:51:03.992Z</time></trkpt><trkpt lat="39.937858059915385" lon="9.166625185837288"><ele>943.0</ele><time>2026-04-27T07:51:04.992Z</time></trkpt><trkpt lat="39.93765309146797" lon="9.166595962103376"><ele>943.0</ele><time>2026-04-27T07:51:05.992Z</time></trkpt><trkpt lat="39.93748690009798" lon="9.166553332161623"><ele>945.3333333333333</ele><time>2026-04-27T07:51:06.992Z</time></trkpt><trkpt lat="39.93737897705811" lon="9.166447061564657"><ele>947.6666666666667</ele><time>2026-04-27T07:51:07.992Z</time></trkpt><trkpt lat="39.93732838180892" lon="9.16624575797789"><ele>950.0</ele><time>2026-04-27T07:51:08.992Z</time></trkpt><trkpt lat="39.937361351795104" lon="9.165983556986639"><ele>957.5</ele><time>2026-04-27T07:51:09.992Z</time></trkpt><trkpt lat="39.937359509137934" lon="9.165669397012921"><ele>965.0</ele><time>2026-04-27T07:51:10.992Z</time></trkpt><trkpt lat="39.93733546113211" lon="9.1653263933027"><ele>965.0</ele><time>2026-04-27T07:51:11.992Z</time></trkpt><trkpt lat="39.937239476871255" lon="9.16496438168617"><ele>965.0</ele><time>2026-04-27T07:51:12.992Z</time></trkpt><trkpt lat="39.937097287855224" lon="9.1646339668219"><ele>973.0</ele><time>2026-04-27T07:51:13.992Z</time></trkpt><trkpt lat="39.93697309879592" lon="9.164338576192092"><ele>981.0</ele><time>2026-04-27T07:51:14.992Z</time></trkpt><trkpt lat="39.9369146063019" lon="9.16399477708856"><ele>983.5</ele><time>2026-04-27T07:51:15.992Z</time></trkpt><trkpt lat="39.93686368836428" lon="9.163633828251607"><ele>986.0</ele><time>2026-04-27T07:51:16.992Z</time></trkpt><trkpt lat="39.93685225581242" lon="9.163268628957871"><ele>989.5</ele><time>2026-04-27T07:51:17.992Z</time></trkpt><trkpt lat="39.93685684337122" lon="9.16291006462068"><ele>993.0</ele><time>2026-04-27T07:51:18.992Z</time></trkpt><trkpt lat="39.936858183705375" lon="9.162581676387376"><ele>994.6666666666667</ele><time>2026-04-27T07:51:19.992Z</time></trkpt><trkpt lat="39.936847773550554" lon="9.1622959785973"><ele>996.3333333333334</ele><time>2026-04-27T07:51:20.992Z</time></trkpt><trkpt lat="39.9368248488857" lon="9.162018459090001"><ele>998.0</ele><time>2026-04-27T07:51:21.992Z</time></trkpt><trkpt lat="39.93680866983856" lon="9.161779384485243"><ele>997.5</ele><time>2026-04-27T07:51:22.992Z</time></trkpt><trkpt lat="39.93642511233925" lon="9.161622579192937"><ele>997.0</ele><time>2026-04-27T07:51:23.992Z</time></trkpt><trkpt lat="39.93622608659996" lon="9.16148274492467"><ele>997.0</ele><time>2026-04-27T07:51:24.992Z</time></trkpt><trkpt lat="39.936064093488255" lon="9.161293537381841"><ele>997.0</ele><time>2026-04-27T07:51:25.992Z</time></trkpt><trkpt lat="39.9359291196044" lon="9.161033648977803"><ele>994.0</ele><time>2026-04-27T07:51:26.992Z</time></trkpt><trkpt lat="39.93586143738953" lon="9.16075586653486"><ele>991.0</ele><time>2026-04-27T07:51:27.992Z</time></trkpt><trkpt lat="39.935788134028996" lon="9.160510592989088"><ele>988.0</ele><time>2026-04-27T07:51:28.992Z</time></trkpt><trkpt lat="39.93562826060804" lon="9.160291479592024"><ele>988.0</ele><time>2026-04-27T07:51:29.992Z</time></trkpt><trkpt lat="39.9354323423616" lon="9.16009713908245"><ele>988.0</ele><time>2026-04-27T07:51:30.992Z</time></trkpt><trkpt lat="39.93524519492261" lon="9.159901782225518"><ele>987.6666666666666</ele><time>2026-04-27T07:51:31.992Z</time></trkpt><trkpt lat="39.93510319372951" lon="9.159692587810072"><ele>987.3333333333333</ele><time>2026-04-27T07:51:32.992Z</time></trkpt><trkpt lat="39.935017195029005" lon="9.159465717308684"><ele>987.0</ele><time>2026-04-27T07:51:33.992Z</time></trkpt><trkpt lat="39.93494444360487" lon="9.15926861828242"><ele>987.0</ele><time>2026-04-27T07:51:34.992Z</time></trkpt><trkpt lat="39.934796518020256" lon="9.159154293766784"><ele>987.0</ele><time>2026-04-27T07:51:35.992Z</time></trkpt><trkpt lat="39.934600864943114" lon="9.159098041948454"><ele>987.0</ele><time>2026-04-27T07:51:36.992Z</time></trkpt><trkpt lat="39.93438400849425" lon="9.159051507823904"><ele>992.0</ele><time>2026-04-27T07:51:37.992Z</time></trkpt><trkpt lat="39.93417028367643" lon="9.158991602929284"><ele>997.0</ele><time>2026-04-27T07:51:38.992Z</time></trkpt><trkpt lat="39.93397762346547" lon="9.15892023910483"><ele>1002.0</ele><time>2026-04-27T07:51:39.992Z</time></trkpt><trkpt lat="39.93380217942568" lon="9.158828261226093"><ele>1002.0</ele><time>2026-04-27T07:51:40.992Z</time></trkpt><trkpt lat="39.93365284698176" lon="9.158675885736214"><ele>1002.0</ele><time>2026-04-27T07:51:41.991Z</time></trkpt><trkpt lat="39.93350519112594" lon="9.158504392864327"><ele>1002.0</ele><time>2026-04-27T07:51:42.991Z</time></trkpt><trkpt lat="39.933398870831724" lon="9.158268062267073"><ele>1000.0</ele><time>2026-04-27T07:51:43.991Z</time></trkpt><trkpt lat="39.933296724186675" lon="9.158022789594373"><ele>998.0</ele><time>2026-04-27T07:51:44.991Z</time></trkpt><trkpt lat="39.9331784549417" lon="9.157802588519921"><ele>996.0</ele><time>2026-04-27T07:51:45.991Z</time></trkpt><trkpt lat="39.933027975180565" lon="9.157620221677584"><ele>996.0</ele><time>2026-04-27T07:51:46.991Z</time></trkpt><trkpt lat="39.932891048355515" lon="9.157449004147256"><ele>996.0</ele><time>2026-04-27T07:51:47.991Z</time></trkpt><trkpt lat="39.93278508325692" lon="9.157269471712777"><ele>996.0</ele><time>2026-04-27T07:51:48.991Z</time></trkpt><trkpt lat="39.93274001546417" lon="9.157051495363351"><ele>992.6666666666667</ele><time>2026-04-27T07:51:49.991Z</time></trkpt><trkpt lat="39.932745308697534" lon="9.156787092450585"><ele>989.3333333333334</ele><time>2026-04-27T07:51:50.991Z</time></trkpt><trkpt lat="39.93278170834231" lon="9.156515919716199"><ele>986.0</ele><time>2026-04-27T07:51:51.991Z</time></trkpt><trkpt lat="39.93279766341621" lon="9.156237559543957"><ele>982.6666666666667</ele><time>2026-04-27T07:51:52.991Z</time></trkpt><trkpt lat="39.93280648878178" lon="9.15595711998402"><ele>979.3333333333333</ele><time>2026-04-27T07:51:53.991Z</time></trkpt><trkpt lat="39.93281706168308" lon="9.155685355292809"><ele>976.0</ele><time>2026-04-27T07:51:54.991Z</time></trkpt><trkpt lat="39.93287537083776" lon="9.155416135743597"><ele>976.0</ele><time>2026-04-27T07:51:55.991Z</time></trkpt><trkpt lat="39.932978272940154" lon="9.155165481108128"><ele>976.0</ele><time>2026-04-27T07:51:56.991Z</time></trkpt><trkpt lat="39.93307489143669" lon="9.154912909294177"><ele>976.0</ele><time>2026-04-27T07:51:57.991Z</time></trkpt><trkpt lat="39.933140248419875" lon="9.15463979244217"><ele>976.3333333333333</ele><time>2026-04-27T07:51:58.991Z</time></trkpt><trkpt lat="39.93318239490098" lon="9.154363310355357"><ele>976.6666666666667</ele><time>2026-04-27T07:51:59.991Z</time></trkpt><trkpt lat="39.93318807250325" lon="9.154086767731522"><ele>977.0</ele><time>2026-04-27T07:52:00.993Z</time></trkpt><trkpt lat="39.93312447930911" lon="9.153821222256417"><ele>972.6666666666667</ele><time>2026-04-27T07:52:01.993Z</time></trkpt><trkpt lat="39.93300825070219" lon="9.153578215904346"><ele>968.3333333333333</ele><time>2026-04-27T07:52:02.993Z</time></trkpt><trkpt lat="39.93289413311657" lon="9.153340460510835"><ele>964.0</ele><time>2026-04-27T07:52:03.993Z</time></trkpt><trkpt lat="39.932870173668576" lon="9.153071067551622"><ele>964.0</ele><time>2026-04-27T07:52:04.992Z</time></trkpt><trkpt lat="39.93290004394236" lon="9.152774228050484"><ele>964.0</ele><time>2026-04-27T07:52:05.992Z</time></trkpt><trkpt lat="39.93293057847067" lon="9.152491024018708"><ele>964.0</ele><time>2026-04-27T07:52:06.993Z</time></trkpt><trkpt lat="39.93294838619027" lon="9.152212751132549"><ele>964.0</ele><time>2026-04-27T07:52:07.992Z</time></trkpt><trkpt lat="39.932959505825934" lon="9.151971971467482"><ele>964.0</ele><time>2026-04-27T07:52:08.992Z</time></trkpt><trkpt lat="39.93297182765756" lon="9.15176408430712"><ele>964.0</ele><time>2026-04-27T07:52:09.992Z</time></trkpt><trkpt lat="39.93293905249853" lon="9.151587114200348"><ele>965.3333333333333</ele><time>2026-04-27T07:52:10.992Z</time></trkpt><trkpt lat="39.93280689683379" lon="9.151423013666616"><ele>966.6666666666667</ele><time>2026-04-27T07:52:11.992Z</time></trkpt><trkpt lat="39.932612721570486" lon="9.151256648892486"><ele>968.0</ele><time>2026-04-27T07:52:12.992Z</time></trkpt><trkpt lat="39.932409657518576" lon="9.151081175539906"><ele>968.0</ele><time>2026-04-27T07:52:13.993Z</time></trkpt><trkpt lat="39.932238175447715" lon="9.150917799411635"><ele>968.0</ele><time>2026-04-27T07:52:14.993Z</time></trkpt><trkpt lat="39.93206820897725" lon="9.15082596720673"><ele>968.0</ele><time>2026-04-27T07:52:15.993Z</time></trkpt><trkpt lat="39.93184156692945" lon="9.150835010697337"><ele>972.6666666666667</ele><time>2026-04-27T07:52:16.993Z</time></trkpt><trkpt lat="39.93163495434496" lon="9.150853961201387"><ele>977.3333333333333</ele><time>2026-04-27T07:52:17.993Z</time></trkpt><trkpt lat="39.931461877188205" lon="9.15072377348141"><ele>982.0</ele><time>2026-04-27T07:52:18.993Z</time></trkpt><trkpt lat="39.931297660385766" lon="9.15055542423285"><ele>982.0</ele><time>2026-04-27T07:52:19.993Z</time></trkpt><trkpt lat="39.931127033914365" lon="9.150370329185481"><ele>982.0</ele><time>2026-04-27T07:52:20.993Z</time></trkpt><trkpt lat="39.93097392679067" lon="9.15018952025367"><ele>982.0</ele><time>2026-04-27T07:52:21.993Z</time></trkpt><trkpt lat="39.93086786799544" lon="9.150001996808038"><ele>978.6666666666666</ele><time>2026-04-27T07:52:22.993Z</time></trkpt><trkpt lat="39.930821529805584" lon="9.149774548625507"><ele>975.3333333333333</ele><time>2026-04-27T07:52:23.993Z</time></trkpt><trkpt lat="39.93079727582386" lon="9.149511450322759"><ele>972.0</ele><time>2026-04-27T07:52:24.993Z</time></trkpt><trkpt lat="39.93076850330243" lon="9.149277528496167"><ele>972.0</ele><time>2026-04-27T07:52:25.993Z</time></trkpt><trkpt lat="39.93073071367415" lon="9.14908270156734"><ele>972.0</ele><time>2026-04-27T07:52:26.993Z</time></trkpt><trkpt lat="39.930619243725985" lon="9.148975750521895"><ele>972.0</ele><time>2026-04-27T07:52:27.993Z</time></trkpt><trkpt lat="39.93043587169998" lon="9.148944341501556"><ele>967.5</ele><time>2026-04-27T07:52:28.993Z</time></trkpt><trkpt lat="39.930189689929044" lon="9.148980594365376"><ele>963.0</ele><time>2026-04-27T07:52:29.993Z</time></trkpt><trkpt lat="39.929976577555394" lon="9.148934995688556"><ele>963.0</ele><time>2026-04-27T07:52:30.993Z</time></trkpt><trkpt lat="39.92980962519203" lon="9.148771461224394"><ele>963.0</ele><time>2026-04-27T07:52:31.993Z</time></trkpt><trkpt lat="39.929643222988155" lon="9.148578834076718"><ele>963.0</ele><time>2026-04-27T07:52:32.993Z</time></trkpt><trkpt lat="39.92947055552374" lon="9.148408160133783"><ele>963.0</ele><time>2026-04-27T07:52:33.993Z</time></trkpt><trkpt lat="39.92928527304348" lon="9.148243542920952"><ele>963.0</ele><time>2026-04-27T07:52:34.993Z</time></trkpt><trkpt lat="39.929068133929015" lon="9.14811358715351"><ele>959.0</ele><time>2026-04-27T07:52:35.993Z</time></trkpt><trkpt lat="39.92884331381078" lon="9.148003453994255"><ele>955.0</ele><time>2026-04-27T07:52:36.993Z</time></trkpt><trkpt lat="39.92861890971075" lon="9.147904959835198"><ele>955.0</ele><time>2026-04-27T07:52:37.993Z</time></trkpt><trkpt lat="39.92840272022895" lon="9.147789386956042"><ele>955.0</ele><time>2026-04-27T07:52:38.993Z</time></trkpt><trkpt lat="39.92820250307045" lon="9.14764957562995"><ele>955.6666666666666</ele><time>2026-04-27T07:52:39.993Z</time></trkpt><trkpt lat="39.928003298383864" lon="9.14750134919101"><ele>956.3333333333333</ele><time>2026-04-27T07:52:40.993Z</time></trkpt><trkpt lat="39.92782354737039" lon="9.147375575932747"><ele>957.0</ele><time>2026-04-27T07:52:41.993Z</time></trkpt><trkpt lat="39.927666699194695" lon="9.147260378343763"><ele>957.0</ele><time>2026-04-27T07:52:42.993Z</time></trkpt><trkpt lat="39.927555194075055" lon="9.14714503102908"><ele>957.0</ele><time>2026-04-27T07:52:43.993Z</time></trkpt><trkpt lat="39.92749996146561" lon="9.14700428404369"><ele>957.0</ele><time>2026-04-27T07:52:44.993Z</time></trkpt><trkpt lat="39.92753296404104" lon="9.14680948105865"><ele>957.0</ele><time>2026-04-27T07:52:45.993Z</time></trkpt><trkpt lat="39.927660398228525" lon="9.146617591057446"><ele>954.3333333333333</ele><time>2026-04-27T07:52:46.992Z</time></trkpt><trkpt lat="39.92775611613284" lon="9.146412036619349"><ele>951.6666666666666</ele><time>2026-04-27T07:52:47.992Z</time></trkpt><trkpt lat="39.92778233140753" lon="9.146191328044022"><ele>949.0</ele><time>2026-04-27T07:52:48.992Z</time></trkpt><trkpt lat="39.927716125320664" lon="9.14595015806625"><ele>944.0</ele><time>2026-04-27T07:52:49.992Z</time></trkpt><trkpt lat="39.927596670960156" lon="9.145684789716027"><ele>939.0</ele><time>2026-04-27T07:52:50.992Z</time></trkpt><trkpt lat="39.92746151935441" lon="9.145420701942928"><ele>953.5</ele><time>2026-04-27T07:52:51.992Z</time></trkpt><trkpt lat="39.9272934478422" lon="9.145159155204276"><ele>968.0</ele><time>2026-04-27T07:52:52.992Z</time></trkpt><trkpt lat="39.92714230340409" lon="9.144910370871987"><ele>965.3333333333334</ele><time>2026-04-27T07:52:53.992Z</time></trkpt><trkpt lat="39.92701910622791" lon="9.144677803155803"><ele>962.6666666666667</ele><time>2026-04-27T07:52:54.992Z</time></trkpt><trkpt lat="39.926936262604166" lon="9.144423838227071"><ele>960.0</ele><time>2026-04-27T07:52:55.992Z</time></trkpt><trkpt lat="39.92692543121791" lon="9.144128609011634"><ele>958.0</ele><time>2026-04-27T07:52:56.992Z</time></trkpt><trkpt lat="39.92691513258073" lon="9.143821661686669"><ele>956.0</ele><time>2026-04-27T07:52:57.992Z</time></trkpt><trkpt lat="39.92688123486695" lon="9.143507125550235"><ele>954.5</ele><time>2026-04-27T07:52:58.992Z</time></trkpt><trkpt lat="39.926812589260216" lon="9.14320688936571"><ele>953.0</ele><time>2026-04-27T07:52:59.992Z</time></trkpt><trkpt lat="39.9267514128177" lon="9.142928295044612"><ele>961.0</ele><time>2026-04-27T07:53:00.992Z</time></trkpt><trkpt lat="39.92669051752534" lon="9.142673972338907"><ele>969.0</ele><time>2026-04-27T07:53:01.992Z</time></trkpt><trkpt lat="39.92663056502494" lon="9.142441633932162"><ele>977.0</ele><time>2026-04-27T07:53:02.992Z</time></trkpt><trkpt lat="39.92661235513436" lon="9.14220257526287"><ele>977.6666666666667</ele><time>2026-04-27T07:53:03.992Z</time></trkpt><trkpt lat="39.92670647888675" lon="9.141974280604732"><ele>978.3333333333333</ele><time>2026-04-27T07:53:04.992Z</time></trkpt><trkpt lat="39.92679609795022" lon="9.1417171355316"><ele>979.0</ele><time>2026-04-27T07:53:05.992Z</time></trkpt><trkpt lat="39.926850816866235" lon="9.141444331676658"><ele>971.0</ele><time>2026-04-27T07:53:06.992Z</time></trkpt><trkpt lat="39.9268549791681" lon="9.141156276383818"><ele>963.0</ele><time>2026-04-27T07:53:07.992Z</time></trkpt><trkpt lat="39.92683317156956" lon="9.140889016261161"><ele>955.0</ele><time>2026-04-27T07:53:08.992Z</time></trkpt><trkpt lat="39.92679067417741" lon="9.140675118165731"><ele>964.0</ele><time>2026-04-27T07:53:09.992Z</time></trkpt><trkpt lat="39.92671285039029" lon="9.140505505415533"><ele>973.0</ele><time>2026-04-27T07:53:10.992Z</time></trkpt><trkpt lat="39.92655727574542" lon="9.140365626805758"><ele>982.0</ele><time>2026-04-27T07:53:11.992Z</time></trkpt><trkpt lat="39.926376040670895" lon="9.14024651458956"><ele>982.0</ele><time>2026-04-27T07:53:12.992Z</time></trkpt><trkpt lat="39.926161672083744" lon="9.140137291248896"><ele>982.0</ele><time>2026-04-27T07:53:13.992Z</time></trkpt><trkpt lat="39.925966749308735" lon="9.140044024227668"><ele>982.0</ele><time>2026-04-27T07:53:14.992Z</time></trkpt><trkpt lat="39.92575856230982" lon="9.140018898009773"><ele>986.5</ele><time>2026-04-27T07:53:15.992Z</time></trkpt><trkpt lat="39.92553927415873" lon="9.140067103710795"><ele>991.0</ele><time>2026-04-27T07:53:16.992Z</time></trkpt><trkpt lat="39.92531649280816" lon="9.140175193400703"><ele>991.0</ele><time>2026-04-27T07:53:17.992Z</time></trkpt><trkpt lat="39.92511642611982" lon="9.140330826310967"><ele>991.0</ele><time>2026-04-27T07:53:18.992Z</time></trkpt><trkpt lat="39.92488662668789" lon="9.140444989221047"><ele>993.0</ele><time>2026-04-27T07:53:19.992Z</time></trkpt><trkpt lat="39.92465756451792" lon="9.140564960702484"><ele>995.0</ele><time>2026-04-27T07:53:20.992Z</time></trkpt><trkpt lat="39.924434151528175" lon="9.140665822609826"><ele>992.3333333333334</ele><time>2026-04-27T07:53:21.992Z</time></trkpt><trkpt lat="39.92420202189018" lon="9.140739310237542"><ele>989.6666666666667</ele><time>2026-04-27T07:53:22.992Z</time></trkpt><trkpt lat="39.923997578453346" lon="9.140768520184416"><ele>987.0</ele><time>2026-04-27T07:53:23.992Z</time></trkpt><trkpt lat="39.92384687190164" lon="9.140754635388975"><ele>991.0</ele><time>2026-04-27T07:53:24.992Z</time></trkpt><trkpt lat="39.92374030339557" lon="9.140673337605952"><ele>995.0</ele><time>2026-04-27T07:53:25.992Z</time></trkpt><trkpt lat="39.92365531588594" lon="9.14051572921179"><ele>999.0</ele><time>2026-04-27T07:53:26.992Z</time></trkpt><trkpt lat="39.923645869209466" lon="9.140293224107637"><ele>1003.0</ele><time>2026-04-27T07:53:27.992Z</time></trkpt><trkpt lat="39.923605170126656" lon="9.140026708284584"><ele>1006.3333333333333</ele><time>2026-04-27T07:53:28.992Z</time></trkpt><trkpt lat="39.923583520946536" lon="9.139739205063169"><ele>1009.6666666666667</ele><time>2026-04-27T07:53:29.992Z</time></trkpt><trkpt lat="39.92356217593365" lon="9.139507035662103"><ele>1013.0</ele><time>2026-04-27T07:53:30.992Z</time></trkpt><trkpt lat="39.92353687659334" lon="9.139331493522134"><ele>1013.0</ele><time>2026-04-27T07:53:31.992Z</time></trkpt><trkpt lat="39.92346343631757" lon="9.139180507534135"><ele>1013.0</ele><time>2026-04-27T07:53:32.992Z</time></trkpt><trkpt lat="39.92331344848921" lon="9.139085402616534"><ele>1013.0</ele><time>2026-04-27T07:53:33.992Z</time></trkpt><trkpt lat="39.92310909197276" lon="9.139106645125969"><ele>1009.0</ele><time>2026-04-27T07:53:34.992Z</time></trkpt><trkpt lat="39.9228924357951" lon="9.139229721621705"><ele>1005.0</ele><time>2026-04-27T07:53:35.992Z</time></trkpt><trkpt lat="39.922688880887726" lon="9.139350281545404"><ele>1005.25</ele><time>2026-04-27T07:53:36.992Z</time></trkpt><trkpt lat="39.922508231661915" lon="9.139393380995923"><ele>1005.5</ele><time>2026-04-27T07:53:37.992Z</time></trkpt><trkpt lat="39.92237497612565" lon="9.139407962989532"><ele>1005.75</ele><time>2026-04-27T07:53:38.992Z</time></trkpt><trkpt lat="39.92226451462381" lon="9.139342960465758"><ele>1006.0</ele><time>2026-04-27T07:53:39.992Z</time></trkpt><trkpt lat="39.92218028463961" lon="9.139185736944176"><ele>1009.3333333333333</ele><time>2026-04-27T07:53:40.992Z</time></trkpt><trkpt lat="39.92214660173738" lon="9.138952411495916"><ele>1012.6666666666667</ele><time>2026-04-27T07:53:41.992Z</time></trkpt><trkpt lat="39.92214181957067" lon="9.138660809834708"><ele>1016.0</ele><time>2026-04-27T07:53:42.992Z</time></trkpt><trkpt lat="39.922161138493955" lon="9.138355884834908"><ele>1017.6666666666667</ele><time>2026-04-27T07:53:43.992Z</time></trkpt><trkpt lat="39.92223466512931" lon="9.1380736173267"><ele>1019.3333333333333</ele><time>2026-04-27T07:53:44.992Z</time></trkpt><trkpt lat="39.922307454049836" lon="9.137838668603166"><ele>1021.0</ele><time>2026-04-27T07:53:45.991Z</time></trkpt><trkpt lat="39.922353109880746" lon="9.137681451481999"><ele>1021.0</ele><time>2026-04-27T07:53:46.991Z</time></trkpt><trkpt lat="39.9223269035489" lon="9.137529903150032"><ele>1021.0</ele><time>2026-04-27T07:53:47.991Z</time></trkpt><trkpt lat="39.92221357974659" lon="9.137463359543672"><ele>1021.0</ele><time>2026-04-27T07:53:48.991Z</time></trkpt><trkpt lat="39.92205929360558" lon="9.137483454522414"><ele>1021.0</ele><time>2026-04-27T07:53:49.991Z</time></trkpt><trkpt lat="39.921884434754155" lon="9.137595114452433"><ele>1020.3333333333333</ele><time>2026-04-27T07:53:50.991Z</time></trkpt><trkpt lat="39.9217105736679" lon="9.137783621823434"><ele>1019.6666666666667</ele><time>2026-04-27T07:53:51.991Z</time></trkpt><trkpt lat="39.921507816877565" lon="9.137851516351613"><ele>1019.0</ele><time>2026-04-27T07:53:52.991Z</time></trkpt><trkpt lat="39.92135036183032" lon="9.137907979976019"><ele>1019.0</ele><time>2026-04-27T07:53:53.991Z</time></trkpt><trkpt lat="39.9212556005383" lon="9.137739833155377"><ele>1019.0</ele><time>2026-04-27T07:53:54.991Z</time></trkpt><trkpt lat="39.92120648167918" lon="9.13760147820638"><ele>1019.0</ele><time>2026-04-27T07:53:55.991Z</time></trkpt><trkpt lat="39.921215318867574" lon="9.137405488700962"><ele>1019.0</ele><time>2026-04-27T07:53:56.991Z</time></trkpt><trkpt lat="39.92120769447255" lon="9.137126735254947"><ele>1025.0</ele><time>2026-04-27T07:53:57.991Z</time></trkpt><trkpt lat="39.92119230109891" lon="9.136829689408927"><ele>1031.0</ele><time>2026-04-27T07:53:58.991Z</time></trkpt><trkpt lat="39.92108376404031" lon="9.136561749834108"><ele>1030.5</ele><time>2026-04-27T07:53:59.991Z</time></trkpt><trkpt lat="39.920919404736736" lon="9.136308718552645"><ele>1030.0</ele><time>2026-04-27T07:54:00.991Z</time></trkpt><trkpt lat="39.920810830584784" lon="9.13599299829513"><ele>1034.5</ele><time>2026-04-27T07:54:01.991Z</time></trkpt><trkpt lat="39.92068984304833" lon="9.135682277385666"><ele>1039.0</ele><time>2026-04-27T07:54:02.991Z</time></trkpt><trkpt lat="39.920618772437535" lon="9.135399573032652"><ele>1039.0</ele><time>2026-04-27T07:54:03.991Z</time></trkpt><trkpt lat="39.920522895287284" lon="9.135182788263199"><ele>1039.0</ele><time>2026-04-27T07:54:04.991Z</time></trkpt><trkpt lat="39.92038321781576" lon="9.135021141560717"><ele>1039.0</ele><time>2026-04-27T07:54:05.991Z</time></trkpt><trkpt lat="39.92016617233842" lon="9.134945457009911"><ele>1038.0</ele><time>2026-04-27T07:54:06.993Z</time></trkpt><trkpt lat="39.91989671893423" lon="9.134910593553792"><ele>1037.0</ele><time>2026-04-27T07:54:07.992Z</time></trkpt><trkpt lat="39.91964112393273" lon="9.134819334252603"><ele>1040.0</ele><time>2026-04-27T07:54:08.992Z</time></trkpt><trkpt lat="39.919419769476136" lon="9.134744825086662"><ele>1043.0</ele><time>2026-04-27T07:54:09.992Z</time></trkpt><trkpt lat="39.91923127940707" lon="9.134680413422398"><ele>1046.0</ele><time>2026-04-27T07:54:10.992Z</time></trkpt><trkpt lat="39.91905655073951" lon="9.134634863203113"><ele>1046.0</ele><time>2026-04-27T07:54:11.992Z</time></trkpt><trkpt lat="39.91890215526977" lon="9.134563654257123"><ele>1046.0</ele><time>2026-04-27T07:54:12.992Z</time></trkpt><trkpt lat="39.918773701855415" lon="9.134456325807976"><ele>1046.0</ele><time>2026-04-27T07:54:13.992Z</time></trkpt><trkpt lat="39.918651485916165" lon="9.13434224785972"><ele>1046.0</ele><time>2026-04-27T07:54:14.992Z</time></trkpt><trkpt lat="39.91853468646141" lon="9.134195016678868"><ele>1046.0</ele><time>2026-04-27T07:54:15.992Z</time></trkpt><trkpt lat="39.918419175743594" lon="9.134035750623438"><ele>1046.0</ele><time>2026-04-27T07:54:16.992Z</time></trkpt><trkpt lat="39.91830042477915" lon="9.133880478738714"><ele>1042.6666666666667</ele><time>2026-04-27T07:54:17.992Z</time></trkpt><trkpt lat="39.918210491614175" lon="9.133713095351368"><ele>1039.3333333333333</ele><time>2026-04-27T07:54:18.993Z</time></trkpt><trkpt lat="39.91813998953628" lon="9.133513769031726"><ele>1036.0</ele><time>2026-04-27T07:54:19.992Z</time></trkpt><trkpt lat="39.9180880398622" lon="9.133322591828719"><ele>1035.0</ele><time>2026-04-27T07:54:20.992Z</time></trkpt><trkpt lat="39.9180599909353" lon="9.133116024181803"><ele>1034.0</ele><time>2026-04-27T07:54:21.992Z</time></trkpt><trkpt lat="39.9180463397214" lon="9.132901398998083"><ele>1033.0</ele><time>2026-04-27T07:54:22.992Z</time></trkpt><trkpt lat="39.91801553708646" lon="9.132686856993308"><ele>1033.0</ele><time>2026-04-27T07:54:23.992Z</time></trkpt><trkpt lat="39.917955590253044" lon="9.132534732080856"><ele>1033.0</ele><time>2026-04-27T07:54:24.992Z</time></trkpt><trkpt lat="39.91781780821344" lon="9.132433613914095"><ele>1033.0</ele><time>2026-04-27T07:54:25.992Z</time></trkpt><trkpt lat="39.91761380965399" lon="9.13238925919017"><ele>1029.3333333333333</ele><time>2026-04-27T07:54:26.992Z</time></trkpt><trkpt lat="39.917426887537125" lon="9.132321396922434"><ele>1025.6666666666667</ele><time>2026-04-27T07:54:27.992Z</time></trkpt><trkpt lat="39.91724112096662" lon="9.132252038558637"><ele>1022.0</ele><time>2026-04-27T07:54:28.992Z</time></trkpt><trkpt lat="39.91706454436942" lon="9.132219933435518"><ele>1022.0</ele><time>2026-04-27T07:54:29.992Z</time></trkpt><trkpt lat="39.91687864993009" lon="9.132258745872603"><ele>1022.0</ele><time>2026-04-27T07:54:30.992Z</time></trkpt><trkpt lat="39.91670985750377" lon="9.132357635467988"><ele>1022.0</ele><time>2026-04-27T07:54:31.992Z</time></trkpt><trkpt lat="39.916571317657684" lon="9.132526235876833"><ele>1020.0</ele><time>2026-04-27T07:54:32.992Z</time></trkpt><trkpt lat="39.91648092490738" lon="9.132754843913771"><ele>1018.0</ele><time>2026-04-27T07:54:33.992Z</time></trkpt><trkpt lat="39.91639117883999" lon="9.132998263347666"><ele>1016.0</ele><time>2026-04-27T07:54:34.992Z</time></trkpt><trkpt lat="39.916245732332506" lon="9.133205979663462"><ele>1016.6666666666667</ele><time>2026-04-27T07:54:35.992Z</time></trkpt><trkpt lat="39.916099852642596" lon="9.133362013783788"><ele>1017.3333333333333</ele><time>2026-04-27T07:54:36.992Z</time></trkpt><trkpt lat="39.915938809139455" lon="9.13344556756728"><ele>1018.0</ele><time>2026-04-27T07:54:37.992Z</time></trkpt><trkpt lat="39.91575827913607" lon="9.133483610635148"><ele>1018.0</ele><time>2026-04-27T07:54:38.992Z</time></trkpt><trkpt lat="39.91558726423746" lon="9.133535390205846"><ele>1018.0</ele><time>2026-04-27T07:54:39.991Z</time></trkpt><trkpt lat="39.915467608369696" lon="9.133662544700663"><ele>1018.0</ele><time>2026-04-27T07:54:40.991Z</time></trkpt><trkpt lat="39.91539336984581" lon="9.13386230288119"><ele>1013.6666666666666</ele><time>2026-04-27T07:54:41.991Z</time></trkpt><trkpt lat="39.91534919720926" lon="9.134096725445382"><ele>1009.3333333333333</ele><time>2026-04-27T07:54:42.991Z</time></trkpt><trkpt lat="39.9152210322759" lon="9.134246524947258"><ele>1005.0</ele><time>2026-04-27T07:54:43.991Z</time></trkpt><trkpt lat="39.915076690438845" lon="9.134390583326418"><ele>1009.0</ele><time>2026-04-27T07:54:44.991Z</time></trkpt><trkpt lat="39.91489538158409" lon="9.13449726308327"><ele>1013.0</ele><time>2026-04-27T07:54:45.991Z</time></trkpt><trkpt lat="39.91468999894486" lon="9.134554793175822"><ele>1017.0</ele><time>2026-04-27T07:54:46.991Z</time></trkpt><trkpt lat="39.91448658919164" lon="9.13452274290166"><ele>1017.0</ele><time>2026-04-27T07:54:47.991Z</time></trkpt><trkpt lat="39.914303268501726" lon="9.134523273306897"><ele>1017.0</ele><time>2026-04-27T07:54:48.991Z</time></trkpt><trkpt lat="39.91412390572636" lon="9.134594126270361"><ele>1017.0</ele><time>2026-04-27T07:54:49.991Z</time></trkpt><trkpt lat="39.91395212559199" lon="9.134630713032424"><ele>1019.0</ele><time>2026-04-27T07:54:50.991Z</time></trkpt><trkpt lat="39.91379635955801" lon="9.13457365583686"><ele>1021.0</ele><time>2026-04-27T07:54:51.991Z</time></trkpt><trkpt lat="39.913610066882846" lon="9.134509732841492"><ele>1023.0</ele><time>2026-04-27T07:54:52.991Z</time></trkpt><trkpt lat="39.91344313695964" lon="9.134522651216916"><ele>1021.6666666666667</ele><time>2026-04-27T07:54:53.991Z</time></trkpt><trkpt lat="39.91329182355511" lon="9.134588878392528"><ele>1020.3333333333334</ele><time>2026-04-27T07:54:54.991Z</time></trkpt><trkpt lat="39.91317122384906" lon="9.134768742356462"><ele>1019.0</ele><time>2026-04-27T07:54:55.991Z</time></trkpt><trkpt lat="39.91312448017545" lon="9.135009041878854"><ele>1016.6666666666667</ele><time>2026-04-27T07:54:56.991Z</time></trkpt><trkpt lat="39.91310660328344" lon="9.135236949041591"><ele>1014.3333333333333</ele><time>2026-04-27T07:54:57.991Z</time></trkpt><trkpt lat="39.912987182251854" lon="9.135335631099151"><ele>1012.0</ele><time>2026-04-27T07:54:58.991Z</time></trkpt><trkpt lat="39.912833585848574" lon="9.135346472610637"><ele>1012.0</ele><time>2026-04-27T07:54:59.991Z</time></trkpt><trkpt lat="39.91263625350986" lon="9.13540432823296"><ele>1012.0</ele><time>2026-04-27T07:55:00.991Z</time></trkpt><trkpt lat="39.91245499908439" lon="9.135524204031366"><ele>1012.0</ele><time>2026-04-27T07:55:01.991Z</time></trkpt><trkpt lat="39.91228616195424" lon="9.135549568280542"><ele>1013.3333333333333</ele><time>2026-04-27T07:55:02.991Z</time></trkpt><trkpt lat="39.91212475464774" lon="9.135506336075556"><ele>1014.6666666666667</ele><time>2026-04-27T07:55:03.991Z</time></trkpt><trkpt lat="39.91197239425617" lon="9.135414648731354"><ele>1016.0</ele><time>2026-04-27T07:55:04.991Z</time></trkpt><trkpt lat="39.911842068231806" lon="9.135382160418448"><ele>1016.3333333333334</ele><time>2026-04-27T07:55:05.991Z</time></trkpt><trkpt lat="39.91171802132699" lon="9.135451824447566"><ele>1016.6666666666667</ele><time>2026-04-27T07:55:06.991Z</time></trkpt><trkpt lat="39.91160599933834" lon="9.135611814381187"><ele>1017.0</ele><time>2026-04-27T07:55:07.991Z</time></trkpt><trkpt lat="39.91153891366732" lon="9.13584571595786"><ele>1012.3333333333333</ele><time>2026-04-27T07:55:08.991Z</time></trkpt><trkpt lat="39.91144062496252" lon="9.136012204179817"><ele>1007.6666666666666</ele><time>2026-04-27T07:55:09.991Z</time></trkpt><trkpt lat="39.91130725729444" lon="9.135998330109462"><ele>1003.0</ele><time>2026-04-27T07:55:10.991Z</time></trkpt><trkpt lat="39.91114344318913" lon="9.135945427645975"><ele>1003.0</ele><time>2026-04-27T07:55:11.991Z</time></trkpt><trkpt lat="39.910930015223734" lon="9.135899437920784"><ele>1003.0</ele><time>2026-04-27T07:55:12.991Z</time></trkpt><trkpt lat="39.91072025110815" lon="9.135828370194265"><ele>1003.0</ele><time>2026-04-27T07:55:13.991Z</time></trkpt><trkpt lat="39.91055479208225" lon="9.135822606662868"><ele>1003.0</ele><time>2026-04-27T07:55:14.991Z</time></trkpt><trkpt lat="39.91041266227662" lon="9.135918913926641"><ele>1003.0</ele><time>2026-04-27T07:55:15.991Z</time></trkpt><trkpt lat="39.910286606208" lon="9.136136839355244"><ele>1003.0</ele><time>2026-04-27T07:55:16.991Z</time></trkpt><trkpt lat="39.91013731671909" lon="9.136355521806117"><ele>1005.3333333333333</ele><time>2026-04-27T07:55:17.991Z</time></trkpt><trkpt lat="39.90998047874363" lon="9.136510295205694"><ele>1007.6666666666667</ele><time>2026-04-27T07:55:18.991Z</time></trkpt><trkpt lat="39.90981383943274" lon="9.136588029841414"><ele>1010.0</ele><time>2026-04-27T07:55:19.991Z</time></trkpt><trkpt lat="39.90965775340251" lon="9.136580284489485"><ele>1003.3333333333334</ele><time>2026-04-27T07:55:20.991Z</time></trkpt><trkpt lat="39.90950887060282" lon="9.136621201723916"><ele>996.6666666666667</ele><time>2026-04-27T07:55:21.991Z</time></trkpt><trkpt lat="39.90938124094145" lon="9.136775329774677"><ele>990.0</ele><time>2026-04-27T07:55:22.991Z</time></trkpt><trkpt lat="39.90928535587473" lon="9.137007341548804"><ele>987.3333333333333</ele><time>2026-04-27T07:55:23.991Z</time></trkpt><trkpt lat="39.90916602870001" lon="9.137237575705305"><ele>984.6666666666666</ele><time>2026-04-27T07:55:24.991Z</time></trkpt><trkpt lat="39.908993577634114" lon="9.137419609184535"><ele>982.0</ele><time>2026-04-27T07:55:25.991Z</time></trkpt><trkpt lat="39.90881702911606" lon="9.137581764776034"><ele>982.0</ele><time>2026-04-27T07:55:26.991Z</time></trkpt><trkpt lat="39.90863647003364" lon="9.137672838105265"><ele>982.0</ele><time>2026-04-27T07:55:27.991Z</time></trkpt><trkpt lat="39.90847973532936" lon="9.13779742363321"><ele>982.0</ele><time>2026-04-27T07:55:28.991Z</time></trkpt><trkpt lat="39.908360937887615" lon="9.137957987615692"><ele>980.0</ele><time>2026-04-27T07:55:29.991Z</time></trkpt><trkpt lat="39.90827093644719" lon="9.138218712232439"><ele>978.0</ele><time>2026-04-27T07:55:30.991Z</time></trkpt><trkpt lat="39.908197830762646" lon="9.138509110682374"><ele>978.0</ele><time>2026-04-27T07:55:31.991Z</time></trkpt><trkpt lat="39.90807503826688" lon="9.138764599418671"><ele>978.0</ele><time>2026-04-27T07:55:32.991Z</time></trkpt><trkpt lat="39.9079658659713" lon="9.139029192430352"><ele>971.0</ele><time>2026-04-27T07:55:33.991Z</time></trkpt><trkpt lat="39.90784569854569" lon="9.139280018988613"><ele>964.0</ele><time>2026-04-27T07:55:34.991Z</time></trkpt><trkpt lat="39.90771545422861" lon="9.139523355771885"><ele>964.0</ele><time>2026-04-27T07:55:35.991Z</time></trkpt><trkpt lat="39.90757713410785" lon="9.139728088503846"><ele>964.0</ele><time>2026-04-27T07:55:36.991Z</time></trkpt><trkpt lat="39.907450868354616" lon="9.139889353849453"><ele>964.0</ele><time>2026-04-27T07:55:37.99Z</time></trkpt><trkpt lat="39.90733341642634" lon="9.139971085047554"><ele>965.0</ele><time>2026-04-27T07:55:38.99Z</time></trkpt><trkpt lat="39.90722763391494" lon="9.139973662074974"><ele>966.0</ele><time>2026-04-27T07:55:39.99Z</time></trkpt><trkpt lat="39.90712995448263" lon="9.139857681488575"><ele>967.0</ele><time>2026-04-27T07:55:40.99Z</time></trkpt><trkpt lat="39.90709429869694" lon="9.13970306832185"><ele>968.0</ele><time>2026-04-27T07:55:41.99Z</time></trkpt><trkpt lat="39.90699772919037" lon="9.139482035660473"><ele>973.0</ele><time>2026-04-27T07:55:42.99Z</time></trkpt><trkpt lat="39.906861189362075" lon="9.13917281197444"><ele>978.0</ele><time>2026-04-27T07:55:43.99Z</time></trkpt><trkpt lat="39.906717755096686" lon="9.13887589621318"><ele>978.0</ele><time>2026-04-27T07:55:44.99Z</time></trkpt><trkpt lat="39.90660877005799" lon="9.13861007584822"><ele>978.0</ele><time>2026-04-27T07:55:45.99Z</time></trkpt><trkpt lat="39.90647258457185" lon="9.13841565075381"><ele>978.0</ele><time>2026-04-27T07:55:46.99Z</time></trkpt><trkpt lat="39.906290261242994" lon="9.138313217419832"><ele>978.0</ele><time>2026-04-27T07:55:47.99Z</time></trkpt><trkpt lat="39.90608246016286" lon="9.138229211145013"><ele>978.0</ele><time>2026-04-27T07:55:48.99Z</time></trkpt><trkpt lat="39.90589118970039" lon="9.138106983050664"><ele>978.0</ele><time>2026-04-27T07:55:49.99Z</time></trkpt><trkpt lat="39.905699828764796" lon="9.13806831044362"><ele>976.6666666666667</ele><time>2026-04-27T07:55:50.99Z</time></trkpt><trkpt lat="39.905554617749296" lon="9.138117161618872"><ele>975.3333333333334</ele><time>2026-04-27T07:55:51.99Z</time></trkpt><trkpt lat="39.90539736665537" lon="9.13814864514788"><ele>974.0</ele><time>2026-04-27T07:55:52.99Z</time></trkpt><trkpt lat="39.905255401674964" lon="9.13810704826303"><ele>974.0</ele><time>2026-04-27T07:55:53.99Z</time></trkpt><trkpt lat="39.905126925859086" lon="9.137961208320199"><ele>974.0</ele><time>2026-04-27T07:55:54.99Z</time></trkpt><trkpt lat="39.905024680722725" lon="9.137781580859558"><ele>974.0</ele><time>2026-04-27T07:55:55.99Z</time></trkpt><trkpt lat="39.90494709282745" lon="9.137547801735902"><ele>967.0</ele><time>2026-04-27T07:55:56.99Z</time></trkpt><trkpt lat="39.904939220693535" lon="9.137266923320183"><ele>960.0</ele><time>2026-04-27T07:55:57.99Z</time></trkpt><trkpt lat="39.9049507716463" lon="9.136999160969593"><ele>953.0</ele><time>2026-04-27T07:55:58.99Z</time></trkpt><trkpt lat="39.90501142920406" lon="9.136702161420425"><ele>958.6666666666667</ele><time>2026-04-27T07:55:59.99Z</time></trkpt><trkpt lat="39.905093769687255" lon="9.1364272570175"><ele>964.3333333333333</ele><time>2026-04-27T07:56:00.99Z</time></trkpt><trkpt lat="39.90520292269176" lon="9.136193738629997"><ele>970.0</ele><time>2026-04-27T07:56:01.99Z</time></trkpt><trkpt lat="39.90527784981393" lon="9.135997097463422"><ele>970.0</ele><time>2026-04-27T07:56:02.99Z</time></trkpt><trkpt lat="39.905318953492426" lon="9.135793413186665"><ele>970.0</ele><time>2026-04-27T07:56:03.99Z</time></trkpt><trkpt lat="39.90531071177543" lon="9.135586763772682"><ele>970.0</ele><time>2026-04-27T07:56:04.99Z</time></trkpt><trkpt lat="39.90517991115417" lon="9.135377742482557"><ele>961.6666666666666</ele><time>2026-04-27T07:56:05.99Z</time></trkpt><trkpt lat="39.90502947120736" lon="9.135179102998931"><ele>953.3333333333333</ele><time>2026-04-27T07:56:06.99Z</time></trkpt><trkpt lat="39.90495711585255" lon="9.134948441206857"><ele>945.0</ele><time>2026-04-27T07:56:07.99Z</time></trkpt><trkpt lat="39.904943519327496" lon="9.134698456769218"><ele>942.6666666666667</ele><time>2026-04-27T07:56:08.99Z</time></trkpt><trkpt lat="39.90497576066355" lon="9.134424992864984"><ele>940.3333333333334</ele><time>2026-04-27T07:56:09.99Z</time></trkpt><trkpt lat="39.90505952592819" lon="9.134171451623713"><ele>938.0</ele><time>2026-04-27T07:56:10.99Z</time></trkpt><trkpt lat="39.90518069995406" lon="9.133953403855926"><ele>935.0</ele><time>2026-04-27T07:56:11.99Z</time></trkpt><trkpt lat="39.905340166520475" lon="9.133792382728622"><ele>932.0</ele><time>2026-04-27T07:56:12.992Z</time></trkpt><trkpt lat="39.90553306519109" lon="9.133652051068859"><ele>929.0</ele><time>2026-04-27T07:56:13.992Z</time></trkpt><trkpt lat="39.905722345345694" lon="9.133505519744945"><ele>925.3333333333334</ele><time>2026-04-27T07:56:14.992Z</time></trkpt><trkpt lat="39.905924241126044" lon="9.133376202479097"><ele>921.6666666666667</ele><time>2026-04-27T07:56:15.992Z</time></trkpt><trkpt lat="39.90612663159239" lon="9.133259347219129"><ele>918.0</ele><time>2026-04-27T07:56:16.992Z</time></trkpt><trkpt lat="39.90633070374474" lon="9.133148190166008"><ele>918.0</ele><time>2026-04-27T07:56:17.992Z</time></trkpt><trkpt lat="39.906528640493704" lon="9.13303562256487"><ele>918.0</ele><time>2026-04-27T07:56:18.992Z</time></trkpt><trkpt lat="39.90671625205177" lon="9.132906710679208"><ele>918.0</ele><time>2026-04-27T07:56:19.991Z</time></trkpt><trkpt lat="39.90689799971535" lon="9.132760118218972"><ele>914.6666666666667</ele><time>2026-04-27T07:56:20.991Z</time></trkpt><trkpt lat="39.90706775448626" lon="9.132595856199572"><ele>911.3333333333334</ele><time>2026-04-27T07:56:21.992Z</time></trkpt><trkpt lat="39.907220487807926" lon="9.132437706377292"><ele>908.0</ele><time>2026-04-27T07:56:22.992Z</time></trkpt><trkpt lat="39.90736580402507" lon="9.13229232394668"><ele>908.0</ele><time>2026-04-27T07:56:23.992Z</time></trkpt><trkpt lat="39.907528540377804" lon="9.132257084492343"><ele>908.0</ele><time>2026-04-27T07:56:24.992Z</time></trkpt><trkpt lat="39.90770250658227" lon="9.132263245222514"><ele>908.0</ele><time>2026-04-27T07:56:25.992Z</time></trkpt><trkpt lat="39.90788253368126" lon="9.132342606155495"><ele>908.5</ele><time>2026-04-27T07:56:26.992Z</time></trkpt><trkpt lat="39.908046811726415" lon="9.132404643383932"><ele>909.0</ele><time>2026-04-27T07:56:27.992Z</time></trkpt><trkpt lat="39.908171417152346" lon="9.132438112242331"><ele>909.5</ele><time>2026-04-27T07:56:28.992Z</time></trkpt><trkpt lat="39.90828723911834" lon="9.132377173914776"><ele>910.0</ele><time>2026-04-27T07:56:29.992Z</time></trkpt><trkpt lat="39.90836076255056" lon="9.132196611922195"><ele>910.0</ele><time>2026-04-27T07:56:30.992Z</time></trkpt><trkpt lat="39.908414526909766" lon="9.13194996818891"><ele>910.0</ele><time>2026-04-27T07:56:31.992Z</time></trkpt><trkpt lat="39.90849140838209" lon="9.1316869739668"><ele>910.0</ele><time>2026-04-27T07:56:32.992Z</time></trkpt><trkpt lat="39.90864554990119" lon="9.131481608214685"><ele>910.0</ele><time>2026-04-27T07:56:33.991Z</time></trkpt><trkpt lat="39.90882443096178" lon="9.131312026426407"><ele>910.0</ele><time>2026-04-27T07:56:34.991Z</time></trkpt><trkpt lat="39.90900170723475" lon="9.131155280764037"><ele>910.0</ele><time>2026-04-27T07:56:35.991Z</time></trkpt><trkpt lat="39.909167063266246" lon="9.131028650320406"><ele>914.3333333333333</ele><time>2026-04-27T07:56:36.991Z</time></trkpt><trkpt lat="39.90928297390676" lon="9.130837602128855"><ele>918.6666666666667</ele><time>2026-04-27T07:56:37.991Z</time></trkpt><trkpt lat="39.9093459517104" lon="9.130576615001823"><ele>923.0</ele><time>2026-04-27T07:56:38.991Z</time></trkpt><trkpt lat="39.90941867685787" lon="9.130312353643937"><ele>923.0</ele><time>2026-04-27T07:56:39.991Z</time></trkpt><trkpt lat="39.90946190373985" lon="9.130072512435717"><ele>923.0</ele><time>2026-04-27T07:56:40.991Z</time></trkpt><trkpt lat="39.909431671037815" lon="9.129819336758048"><ele>923.0</ele><time>2026-04-27T07:56:41.991Z</time></trkpt><trkpt lat="39.90935098616525" lon="9.129571234761544"><ele>918.5</ele><time>2026-04-27T07:56:42.991Z</time></trkpt><trkpt lat="39.90927701319797" lon="9.129374241454252"><ele>914.0</ele><time>2026-04-27T07:56:43.991Z</time></trkpt><trkpt lat="39.9092129764169" lon="9.12921189000233"><ele>909.5</ele><time>2026-04-27T07:56:44.991Z</time></trkpt><trkpt lat="39.90920763672854" lon="9.129085909575897"><ele>905.0</ele><time>2026-04-27T07:56:45.991Z</time></trkpt><trkpt lat="39.90931422969097" lon="9.12898717725233"><ele>899.6666666666667</ele><time>2026-04-27T07:56:46.991Z</time></trkpt><trkpt lat="39.909469101591846" lon="9.128946157357312"><ele>894.3333333333333</ele><time>2026-04-27T07:56:47.991Z</time></trkpt><trkpt lat="39.90965722289288" lon="9.12899359849594"><ele>889.0</ele><time>2026-04-27T07:56:48.991Z</time></trkpt><trkpt lat="39.90987233925162" lon="9.129004174126381"><ele>899.3333333333333</ele><time>2026-04-27T07:56:49.991Z</time></trkpt><trkpt lat="39.91008133028805" lon="9.129039979819161"><ele>909.6666666666667</ele><time>2026-04-27T07:56:50.991Z</time></trkpt><trkpt lat="39.9102653123141" lon="9.129053666558363"><ele>920.0</ele><time>2026-04-27T07:56:51.991Z</time></trkpt><trkpt lat="39.910410027630085" lon="9.129030386125443"><ele>920.0</ele><time>2026-04-27T07:56:52.991Z</time></trkpt><trkpt lat="39.91050872316522" lon="9.128954157816354"><ele>920.0</ele><time>2026-04-27T07:56:53.991Z</time></trkpt><trkpt lat="39.91056354105435" lon="9.128807149200576"><ele>920.0</ele><time>2026-04-27T07:56:54.991Z</time></trkpt><trkpt lat="39.91052906602653" lon="9.128615002047633"><ele>920.0</ele><time>2026-04-27T07:56:55.991Z</time></trkpt><trkpt lat="39.91040954975824" lon="9.128440250343392"><ele>920.0</ele><time>2026-04-27T07:56:56.991Z</time></trkpt><trkpt lat="39.91024492525156" lon="9.128293364061177"><ele>920.0</ele><time>2026-04-27T07:56:57.991Z</time></trkpt><trkpt lat="39.91012013681424" lon="9.128109623175646"><ele>920.0</ele><time>2026-04-27T07:56:58.991Z</time></trkpt><trkpt lat="39.9100899039125" lon="9.127888993000692"><ele>922.3333333333334</ele><time>2026-04-27T07:56:59.991Z</time></trkpt><trkpt lat="39.91008481472599" lon="9.127609912971382"><ele>924.6666666666667</ele><time>2026-04-27T07:57:00.991Z</time></trkpt><trkpt lat="39.910062168981746" lon="9.127344955273642"><ele>927.0</ele><time>2026-04-27T07:57:01.991Z</time></trkpt><trkpt lat="39.91000298525121" lon="9.127137424707028"><ele>918.0</ele><time>2026-04-27T07:57:02.991Z</time></trkpt><trkpt lat="39.90989891079922" lon="9.127001075635295"><ele>909.0</ele><time>2026-04-27T07:57:03.991Z</time></trkpt><trkpt lat="39.909738615993156" lon="9.126937095045053"><ele>900.0</ele><time>2026-04-27T07:57:04.991Z</time></trkpt><trkpt lat="39.90958198984931" lon="9.1268700324934"><ele>900.0</ele><time>2026-04-27T07:57:05.991Z</time></trkpt><trkpt lat="39.909543264793754" lon="9.126660451975331"><ele>900.0</ele><time>2026-04-27T07:57:06.991Z</time></trkpt><trkpt lat="39.909485748631205" lon="9.126379069957352"><ele>900.0</ele><time>2026-04-27T07:57:07.991Z</time></trkpt><trkpt lat="39.909428936087245" lon="9.126065104215668"><ele>901.0</ele><time>2026-04-27T07:57:08.991Z</time></trkpt><trkpt lat="39.90937961246075" lon="9.12578608853128"><ele>902.0</ele><time>2026-04-27T07:57:09.991Z</time></trkpt><trkpt lat="39.90938384377596" lon="9.125560044808665"><ele>903.0</ele><time>2026-04-27T07:57:10.991Z</time></trkpt><trkpt lat="39.90945964853076" lon="9.125351550605808"><ele>899.6666666666667</ele><time>2026-04-27T07:57:11.991Z</time></trkpt><trkpt lat="39.909541196446824" lon="9.125081029669598"><ele>896.3333333333334</ele><time>2026-04-27T07:57:12.991Z</time></trkpt><trkpt lat="39.90961106252118" lon="9.124806002506158"><ele>893.0</ele><time>2026-04-27T07:57:13.991Z</time></trkpt><trkpt lat="39.909639971182415" lon="9.124557507697991"><ele>887.6666666666667</ele><time>2026-04-27T07:57:14.991Z</time></trkpt><trkpt lat="39.90971397845421" lon="9.124331428453669"><ele>882.3333333333333</ele><time>2026-04-27T07:57:15.991Z</time></trkpt><trkpt lat="39.90987980911908" lon="9.124143578745452"><ele>877.0</ele><time>2026-04-27T07:57:16.991Z</time></trkpt><trkpt lat="39.91002221560973" lon="9.123912259053276"><ele>876.6666666666666</ele><time>2026-04-27T07:57:17.991Z</time></trkpt><trkpt lat="39.91014182302557" lon="9.123677932104913"><ele>876.3333333333333</ele><time>2026-04-27T07:57:18.991Z</time></trkpt><trkpt lat="39.910258687059084" lon="9.123458577954924"><ele>876.0</ele><time>2026-04-27T07:57:19.991Z</time></trkpt><trkpt lat="39.91042183765253" lon="9.123314327182669"><ele>872.3333333333333</ele><time>2026-04-27T07:57:20.991Z</time></trkpt><trkpt lat="39.91060226177686" lon="9.12315868769476"><ele>868.6666666666666</ele><time>2026-04-27T07:57:21.991Z</time></trkpt><trkpt lat="39.91076326323699" lon="9.122992067221718"><ele>865.0</ele><time>2026-04-27T07:57:22.991Z</time></trkpt><trkpt lat="39.9109295949776" lon="9.12282971805275"><ele>865.0</ele><time>2026-04-27T07:57:23.991Z</time></trkpt><trkpt lat="39.911081089915704" lon="9.122660016361477"><ele>865.0</ele><time>2026-04-27T07:57:24.991Z</time></trkpt><trkpt lat="39.911236706748305" lon="9.122490199759525"><ele>865.0</ele><time>2026-04-27T07:57:25.991Z</time></trkpt><trkpt lat="39.911417144129096" lon="9.122374151475384"><ele>859.6666666666666</ele><time>2026-04-27T07:57:26.991Z</time></trkpt><trkpt lat="39.91160516635025" lon="9.122267678169475"><ele>854.3333333333333</ele><time>2026-04-27T07:57:27.991Z</time></trkpt><trkpt lat="39.911812363719704" lon="9.122188770242508"><ele>849.0</ele><time>2026-04-27T07:57:28.991Z</time></trkpt><trkpt lat="39.91200919348325" lon="9.122152381015479"><ele>847.5</ele><time>2026-04-27T07:57:29.991Z</time></trkpt><trkpt lat="39.912174783494436" lon="9.12217255453839"><ele>846.0</ele><time>2026-04-27T07:57:30.991Z</time></trkpt><trkpt lat="39.91231188426053" lon="9.122197519768424"><ele>844.5</ele><time>2026-04-27T07:57:31.991Z</time></trkpt><trkpt lat="39.91241180371091" lon="9.12223833640926"><ele>843.0</ele><time>2026-04-27T07:57:32.99Z</time></trkpt><trkpt lat="39.91249202793666" lon="9.122181570479489"><ele>843.0</ele><time>2026-04-27T07:57:33.99Z</time></trkpt><trkpt lat="39.912525145340396" lon="9.122050146229837"><ele>843.0</ele><time>2026-04-27T07:57:34.99Z</time></trkpt><trkpt lat="39.912484577523195" lon="9.121882070862107"><ele>843.0</ele><time>2026-04-27T07:57:35.99Z</time></trkpt><trkpt lat="39.91236505418024" lon="9.12176480004241"><ele>843.0</ele><time>2026-04-27T07:57:36.99Z</time></trkpt><trkpt lat="39.91218900517557" lon="9.121733740076444"><ele>843.0</ele><time>2026-04-27T07:57:37.99Z</time></trkpt><trkpt lat="39.91198547872954" lon="9.121741315112928"><ele>843.0</ele><time>2026-04-27T07:57:38.99Z</time></trkpt><trkpt lat="39.91177642043707" lon="9.121747930585643"><ele>843.0</ele><time>2026-04-27T07:57:39.99Z</time></trkpt><trkpt lat="39.91157730923255" lon="9.121776109985738"><ele>845.0</ele><time>2026-04-27T07:57:40.99Z</time></trkpt><trkpt lat="39.911385177024776" lon="9.121838184358827"><ele>847.0</ele><time>2026-04-27T07:57:41.99Z</time></trkpt><trkpt lat="39.91120152619461" lon="9.121946884627292"><ele>849.0</ele><time>2026-04-27T07:57:42.99Z</time></trkpt><trkpt lat="39.9110334561272" lon="9.122099749689788"><ele>845.6666666666667</ele><time>2026-04-27T07:57:43.99Z</time></trkpt><trkpt lat="39.910868771528826" lon="9.122232594890164"><ele>842.3333333333334</ele><time>2026-04-27T07:57:44.99Z</time></trkpt><trkpt lat="39.91069650705651" lon="9.122274793436198"><ele>839.0</ele><time>2026-04-27T07:57:45.99Z</time></trkpt><trkpt lat="39.91053240630433" lon="9.122298627844117"><ele>839.0</ele><time>2026-04-27T07:57:46.99Z</time></trkpt><trkpt lat="39.91038308249085" lon="9.122260724646374"><ele>839.0</ele><time>2026-04-27T07:57:47.99Z</time></trkpt><trkpt lat="39.91025380577757" lon="9.12217331745583"><ele>839.0</ele><time>2026-04-27T07:57:48.99Z</time></trkpt><trkpt lat="39.91014809699691" lon="9.122013232124901"><ele>839.0</ele><time>2026-04-27T07:57:49.99Z</time></trkpt><trkpt lat="39.91012582706664" lon="9.121815558452276"><ele>839.0</ele><time>2026-04-27T07:57:50.99Z</time></trkpt><trkpt lat="39.910068789225484" lon="9.121644049335528"><ele>839.0</ele><time>2026-04-27T07:57:51.99Z</time></trkpt><trkpt lat="39.91000858407894" lon="9.121529846540783"><ele>839.0</ele><time>2026-04-27T07:57:52.99Z</time></trkpt><trkpt lat="39.90987127915852" lon="9.121534916139433"><ele>839.3333333333334</ele><time>2026-04-27T07:57:53.99Z</time></trkpt><trkpt lat="39.90972590956993" lon="9.121611660578699"><ele>839.6666666666667</ele><time>2026-04-27T07:57:54.99Z</time></trkpt><trkpt lat="39.90963610343158" lon="9.12183090138145"><ele>840.0</ele><time>2026-04-27T07:57:55.99Z</time></trkpt><trkpt lat="39.90955797395914" lon="9.122110332464265"><ele>840.0</ele><time>2026-04-27T07:57:56.99Z</time></trkpt><trkpt lat="39.90946379225757" lon="9.12238486811663"><ele>840.0</ele><time>2026-04-27T07:57:57.99Z</time></trkpt><trkpt lat="39.909380058833406" lon="9.122624306197588"><ele>840.0</ele><time>2026-04-27T07:57:58.99Z</time></trkpt><trkpt lat="39.90927893652285" lon="9.122811739348817"><ele>838.75</ele><time>2026-04-27T07:57:59.99Z</time></trkpt><trkpt lat="39.90915711038042" lon="9.12285475739196"><ele>837.5</ele><time>2026-04-27T07:58:00.99Z</time></trkpt><trkpt lat="39.90905612579114" lon="9.122801149011028"><ele>836.25</ele><time>2026-04-27T07:58:01.99Z</time></trkpt><trkpt lat="39.90890667839117" lon="9.122754316500572"><ele>835.0</ele><time>2026-04-27T07:58:02.99Z</time></trkpt><trkpt lat="39.90871790601233" lon="9.122784225357687"><ele>835.0</ele><time>2026-04-27T07:58:03.99Z</time></trkpt><trkpt lat="39.90856811744208" lon="9.122867587055971"><ele>835.0</ele><time>2026-04-27T07:58:04.99Z</time></trkpt><trkpt lat="39.908483731623164" lon="9.123025253130265"><ele>835.0</ele><time>2026-04-27T07:58:05.99Z</time></trkpt><trkpt lat="39.90845539979876" lon="9.123242099987579"><ele>832.6666666666666</ele><time>2026-04-27T07:58:06.99Z</time></trkpt><trkpt lat="39.90848622810927" lon="9.123489975382633"><ele>830.3333333333333</ele><time>2026-04-27T07:58:07.99Z</time></trkpt><trkpt lat="39.90846902978975" lon="9.123718671882234"><ele>828.0</ele><time>2026-04-27T07:58:08.99Z</time></trkpt><trkpt lat="39.90838982378861" lon="9.123890079465333"><ele>828.0</ele><time>2026-04-27T07:58:09.99Z</time></trkpt><trkpt lat="39.9082577279319" lon="9.123982870693952"><ele>828.0</ele><time>2026-04-27T07:58:10.99Z</time></trkpt><trkpt lat="39.9080900437173" lon="9.124102980910868"><ele>828.0</ele><time>2026-04-27T07:58:11.99Z</time></trkpt><trkpt lat="39.90787793782196" lon="9.124279295953343"><ele>832.0</ele><time>2026-04-27T07:58:12.99Z</time></trkpt><trkpt lat="39.90763959319346" lon="9.124427487045295"><ele>836.0</ele><time>2026-04-27T07:58:13.99Z</time></trkpt><trkpt lat="39.90746516337446" lon="9.124544996444778"><ele>830.6666666666667</ele><time>2026-04-27T07:58:14.99Z</time></trkpt><trkpt lat="39.90729642476589" lon="9.124586001988876"><ele>825.3333333333333</ele><time>2026-04-27T07:58:15.99Z</time></trkpt><trkpt lat="39.90713986624936" lon="9.124547875401499"><ele>820.0</ele><time>2026-04-27T07:58:16.99Z</time></trkpt><trkpt lat="39.906959268169516" lon="9.124380680004453"><ele>820.0</ele><time>2026-04-27T07:58:17.99Z</time></trkpt><trkpt lat="39.90685651170284" lon="9.124145383598409"><ele>820.0</ele><time>2026-04-27T07:58:18.992Z</time></trkpt><trkpt lat="39.90676856331288" lon="9.123844214524379"><ele>817.6666666666666</ele><time>2026-04-27T07:58:19.991Z</time></trkpt><trkpt lat="39.90671113740045" lon="9.123571814522172"><ele>815.3333333333333</ele><time>2026-04-27T07:58:20.991Z</time></trkpt><trkpt lat="39.90667342835558" lon="9.123358716024319"><ele>813.0</ele><time>2026-04-27T07:58:21.991Z</time></trkpt><trkpt lat="39.906608144709374" lon="9.12319006999437"><ele>808.0</ele><time>2026-04-27T07:58:22.992Z</time></trkpt><trkpt lat="39.90650361812034" lon="9.123076145203953"><ele>803.0</ele><time>2026-04-27T07:58:23.992Z</time></trkpt><trkpt lat="39.90635183199481" lon="9.123068334334048"><ele>798.0</ele><time>2026-04-27T07:58:24.992Z</time></trkpt><trkpt lat="39.90618673936156" lon="9.12316973111954"><ele>801.5</ele><time>2026-04-27T07:58:25.992Z</time></trkpt><trkpt lat="39.90605502565277" lon="9.123392967064529"><ele>805.0</ele><time>2026-04-27T07:58:26.992Z</time></trkpt><trkpt lat="39.90588310794422" lon="9.123663234928525"><ele>805.0</ele><time>2026-04-27T07:58:27.992Z</time></trkpt><trkpt lat="39.90570601628578" lon="9.12384116359424"><ele>805.0</ele><time>2026-04-27T07:58:28.991Z</time></trkpt><trkpt lat="39.90549920918538" lon="9.124002524594173"><ele>811.5</ele><time>2026-04-27T07:58:29.991Z</time></trkpt><trkpt lat="39.90527475540573" lon="9.124180521116127"><ele>818.0</ele><time>2026-04-27T07:58:30.992Z</time></trkpt><trkpt lat="39.905092196105954" lon="9.124360997925447"><ele>815.0</ele><time>2026-04-27T07:58:31.991Z</time></trkpt><trkpt lat="39.904921831398894" lon="9.124551166591495"><ele>812.0</ele><time>2026-04-27T07:58:32.991Z</time></trkpt><trkpt lat="39.90476253918769" lon="9.124664633343311"><ele>809.0</ele><time>2026-04-27T07:58:33.991Z</time></trkpt><trkpt lat="39.90463755978719" lon="9.124655667340816"><ele>809.0</ele><time>2026-04-27T07:58:34.991Z</time></trkpt><trkpt lat="39.90454660698686" lon="9.124583943223373"><ele>809.0</ele><time>2026-04-27T07:58:35.991Z</time></trkpt><trkpt lat="39.90441634294353" lon="9.124398031616655"><ele>809.0</ele><time>2026-04-27T07:58:36.991Z</time></trkpt><trkpt lat="39.90428479361833" lon="9.124167075289328"><ele>806.0</ele><time>2026-04-27T07:58:37.991Z</time></trkpt><trkpt lat="39.90419606783134" lon="9.123905244888567"><ele>803.0</ele><time>2026-04-27T07:58:38.991Z</time></trkpt><trkpt lat="39.904102392785454" lon="9.123614629167287"><ele>803.0</ele><time>2026-04-27T07:58:39.991Z</time></trkpt><trkpt lat="39.90407876244631" lon="9.123339019463199"><ele>803.0</ele><time>2026-04-27T07:58:40.991Z</time></trkpt><trkpt lat="39.90407301649273" lon="9.12310739080145"><ele>803.0</ele><time>2026-04-27T07:58:41.991Z</time></trkpt><trkpt lat="39.90406828971199" lon="9.12287324369791"><ele>802.25</ele><time>2026-04-27T07:58:42.991Z</time></trkpt><trkpt lat="39.90397335819463" lon="9.122723492149639"><ele>801.5</ele><time>2026-04-27T07:58:43.991Z</time></trkpt><trkpt lat="39.90387319806387" lon="9.122632104149405"><ele>800.75</ele><time>2026-04-27T07:58:44.991Z</time></trkpt><trkpt lat="39.90377336357227" lon="9.122549136001775"><ele>800.0</ele><time>2026-04-27T07:58:45.991Z</time></trkpt><trkpt lat="39.90372040340177" lon="9.122483817691203"><ele>799.6</ele><time>2026-04-27T07:58:46.991Z</time></trkpt><trkpt lat="39.90368909115488" lon="9.122377906253408"><ele>799.2</ele><time>2026-04-27T07:58:47.991Z</time></trkpt><trkpt lat="39.90364272371611" lon="9.122311540177897"><ele>798.8</ele><time>2026-04-27T07:58:49.991Z</time></trkpt><trkpt lat="39.903543397503874" lon="9.122368328920066"><ele>798.4</ele><time>2026-04-27T08:05:09.93Z</time></trkpt><trkpt lat="39.90343175309544" lon="9.122376520442982"><ele>798.0</ele><time>2026-04-27T08:05:11.93Z</time></trkpt><trkpt lat="39.90332280433087" lon="9.122390658279782"><ele>797.0</ele><time>2026-04-27T08:05:13.93Z</time></trkpt><trkpt lat="39.903221073234164" lon="9.122405465758705"><ele>796.0</ele><time>2026-04-27T08:05:15.93Z</time></trkpt><trkpt lat="39.903115094615444" lon="9.122415946849612"><ele>795.0</ele><time>2026-04-27T08:05:17.93Z</time></trkpt><trkpt lat="39.90300658837351" lon="9.122395103348254"><ele>794.0</ele><time>2026-04-27T08:05:19.929Z</time></trkpt><trkpt lat="39.902892737814945" lon="9.122337231828105"><ele>793.0</ele><time>2026-04-27T08:05:21.929Z</time></trkpt><trkpt lat="39.90283125977896" lon="9.122292092023617"><ele>793.0</ele><time>2026-04-27T08:05:22.929Z</time></trkpt><trkpt lat="39.90276495788327" lon="9.122234031753342"><ele>793.0</ele><time>2026-04-27T08:05:23.929Z</time></trkpt><trkpt lat="39.90270551256428" lon="9.122169533343989"><ele>793.0</ele><time>2026-04-27T08:05:24.929Z</time></trkpt><trkpt lat="39.90263544498008" lon="9.1220885144444"><ele>793.0</ele><time>2026-04-27T08:05:25.929Z</time></trkpt><trkpt lat="39.902557580848374" lon="9.122011025555366"><ele>793.0</ele><time>2026-04-27T08:05:26.929Z</time></trkpt><trkpt lat="39.902473253217245" lon="9.121932636288086"><ele>794.4</ele><time>2026-04-27T08:05:27.929Z</time></trkpt><trkpt lat="39.902386627156" lon="9.121850785129112"><ele>795.8</ele><time>2026-04-27T08:05:28.929Z</time></trkpt><trkpt lat="39.90229956372514" lon="9.12176520514531"><ele>797.2</ele><time>2026-04-27T08:05:29.929Z</time></trkpt><trkpt lat="39.90221405255937" lon="9.121673166351128"><ele>798.6</ele><time>2026-04-27T08:05:30.929Z</time></trkpt><trkpt lat="39.90212354387448" lon="9.12158048583007"><ele>800.0</ele><time>2026-04-27T08:05:31.929Z</time></trkpt><trkpt lat="39.902024195530196" lon="9.121484605498127"><ele>800.0</ele><time>2026-04-27T08:05:32.929Z</time></trkpt><trkpt lat="39.90192233956407" lon="9.121380529011972"><ele>800.0</ele><time>2026-04-27T08:05:33.929Z</time></trkpt><trkpt lat="39.90181927764841" lon="9.12127262641398"><ele>800.0</ele><time>2026-04-27T08:05:34.929Z</time></trkpt><trkpt lat="39.90171573166666" lon="9.12116495133464"><ele>800.0</ele><time>2026-04-27T08:05:35.929Z</time></trkpt><trkpt lat="39.90161061953414" lon="9.121054023115256"><ele>800.0</ele><time>2026-04-27T08:05:36.929Z</time></trkpt><trkpt lat="39.90150342839448" lon="9.120949134257588"><ele>800.0</ele><time>2026-04-27T08:05:37.929Z</time></trkpt><trkpt lat="39.90139588362387" lon="9.120843110742959"><ele>800.0</ele><time>2026-04-27T08:05:38.929Z</time></trkpt><trkpt lat="39.901291607547684" lon="9.12073666165007"><ele>800.0</ele><time>2026-04-27T08:05:39.929Z</time></trkpt><trkpt lat="39.90119265756075" lon="9.12063182030533"><ele>800.75</ele><time>2026-04-27T08:05:40.929Z</time></trkpt><trkpt lat="39.901088903363686" lon="9.120527628414305"><ele>801.5</ele><time>2026-04-27T08:05:41.929Z</time></trkpt><trkpt lat="39.90098556450757" lon="9.120420992577099"><ele>802.25</ele><time>2026-04-27T08:05:42.929Z</time></trkpt><trkpt lat="39.9008818584613" lon="9.12031296571643"><ele>803.0</ele><time>2026-04-27T08:05:43.929Z</time></trkpt><trkpt lat="39.900778761470484" lon="9.120206804540203"><ele>803.0</ele><time>2026-04-27T08:05:44.929Z</time></trkpt><trkpt lat="39.900674676246396" lon="9.120103197926145"><ele>803.0</ele><time>2026-04-27T08:05:45.929Z</time></trkpt><trkpt lat="39.90056807712896" lon="9.119997681606666"><ele>803.0</ele><time>2026-04-27T08:05:46.929Z</time></trkpt><trkpt lat="39.90045841222778" lon="9.119886732952969"><ele>803.0</ele><time>2026-04-27T08:05:47.929Z</time></trkpt><trkpt lat="39.90034590003774" lon="9.119775256390048"><ele>803.5</ele><time>2026-04-27T08:05:48.929Z</time></trkpt><trkpt lat="39.90023506041325" lon="9.119658642327488"><ele>804.0</ele><time>2026-04-27T08:05:49.928Z</time></trkpt><trkpt lat="39.90011989849253" lon="9.119541417103132"><ele>804.5</ele><time>2026-04-27T08:05:50.928Z</time></trkpt><trkpt lat="39.900000028537974" lon="9.119429805908048"><ele>805.0</ele><time>2026-04-27T08:05:51.928Z</time></trkpt><trkpt lat="39.899882544680345" lon="9.119312958618425"><ele>805.0</ele><time>2026-04-27T08:05:52.928Z</time></trkpt><trkpt lat="39.89976929545487" lon="9.119198817948407"><ele>805.0</ele><time>2026-04-27T08:05:53.928Z</time></trkpt><trkpt lat="39.89965838234142" lon="9.11907555729578"><ele>805.0</ele><time>2026-04-27T08:05:54.928Z</time></trkpt><trkpt lat="39.89954309897852" lon="9.118957485442909"><ele>805.0</ele><time>2026-04-27T08:05:55.928Z</time></trkpt><trkpt lat="39.899435221459505" lon="9.1188432441204"><ele>807.0</ele><time>2026-04-27T08:05:56.928Z</time></trkpt><trkpt lat="39.899324400560275" lon="9.118728211767737"><ele>809.0</ele><time>2026-04-27T08:05:57.928Z</time></trkpt><trkpt lat="39.89920376286226" lon="9.118633887206505"><ele>811.0</ele><time>2026-04-27T08:05:58.928Z</time></trkpt><trkpt lat="39.899075174650335" lon="9.118564203935701"><ele>813.0</ele><time>2026-04-27T08:05:59.928Z</time></trkpt><trkpt lat="39.89893760944675" lon="9.11852230190773"><ele>813.0</ele><time>2026-04-27T08:06:00.928Z</time></trkpt><trkpt lat="39.89879754438182" lon="9.118508805080685"><ele>813.0</ele><time>2026-04-27T08:06:01.928Z</time></trkpt><trkpt lat="39.89865029864118" lon="9.118508164002781"><ele>813.0</ele><time>2026-04-27T08:06:02.928Z</time></trkpt><trkpt lat="39.898511940008355" lon="9.118497143816233"><ele>813.0</ele><time>2026-04-27T08:06:03.928Z</time></trkpt><trkpt lat="39.89837174777519" lon="9.118480539817474"><ele>813.75</ele><time>2026-04-27T08:06:04.928Z</time></trkpt><trkpt lat="39.89823294072669" lon="9.11846770628551"><ele>814.5</ele><time>2026-04-27T08:06:05.928Z</time></trkpt><trkpt lat="39.89808513012493" lon="9.118454813916522"><ele>815.25</ele><time>2026-04-27T08:06:06.928Z</time></trkpt><trkpt lat="39.897940893728695" lon="9.118442159128076"><ele>816.0</ele><time>2026-04-27T08:06:07.928Z</time></trkpt><trkpt lat="39.89779562476238" lon="9.118429430865932"><ele>816.0</ele><time>2026-04-27T08:06:08.928Z</time></trkpt><trkpt lat="39.897652521025556" lon="9.118419298213158"><ele>816.0</ele><time>2026-04-27T08:06:09.928Z</time></trkpt><trkpt lat="39.89749577884726" lon="9.118410663269325"><ele>816.0</ele><time>2026-04-27T08:06:10.928Z</time></trkpt><trkpt lat="39.897340830933715" lon="9.118396927354759"><ele>818.0</ele><time>2026-04-27T08:06:11.928Z</time></trkpt><trkpt lat="39.897189275722155" lon="9.118392299886043"><ele>820.0</ele><time>2026-04-27T08:06:12.928Z</time></trkpt><trkpt lat="39.89702837423902" lon="9.118380733082615"><ele>822.0</ele><time>2026-04-27T08:06:13.928Z</time></trkpt><trkpt lat="39.89687337381302" lon="9.11836761460256"><ele>822.5</ele><time>2026-04-27T08:06:14.928Z</time></trkpt><trkpt lat="39.896741690528124" lon="9.118355006689567"><ele>823.0</ele><time>2026-04-27T08:06:15.928Z</time></trkpt><trkpt lat="39.89662211234693" lon="9.118345226693132"><ele>823.5</ele><time>2026-04-27T08:06:16.928Z</time></trkpt><trkpt lat="39.896507181003685" lon="9.118334499351016"><ele>824.0</ele><time>2026-04-27T08:06:17.928Z</time></trkpt><trkpt lat="39.89639085024371" lon="9.118326016208284"><ele>824.0</ele><time>2026-04-27T08:06:18.928Z</time></trkpt><trkpt lat="39.896271894485686" lon="9.118324658934522"><ele>824.0</ele><time>2026-04-27T08:06:19.927Z</time></trkpt><trkpt lat="39.8961424354964" lon="9.11830994399186"><ele>824.0</ele><time>2026-04-27T08:06:20.927Z</time></trkpt><trkpt lat="39.896013303539554" lon="9.118295148979353"><ele>824.0</ele><time>2026-04-27T08:06:21.927Z</time></trkpt><trkpt lat="39.89588209097703" lon="9.118284942985666"><ele>824.75</ele><time>2026-04-27T08:06:22.927Z</time></trkpt><trkpt lat="39.895746909979" lon="9.118278859224386"><ele>825.5</ele><time>2026-04-27T08:06:23.927Z</time></trkpt><trkpt lat="39.895606904996676" lon="9.118279470136939"><ele>826.25</ele><time>2026-04-27T08:06:24.927Z</time></trkpt><trkpt lat="39.895461675415866" lon="9.118286378111353"><ele>827.0</ele><time>2026-04-27T08:06:25.927Z</time></trkpt><trkpt lat="39.89532188011159" lon="9.118299487631784"><ele>827.0</ele><time>2026-04-27T08:06:26.927Z</time></trkpt><trkpt lat="39.89517489485596" lon="9.118317665205875"><ele>827.0</ele><time>2026-04-27T08:06:27.927Z</time></trkpt><trkpt lat="39.89502736825953" lon="9.118337214367829"><ele>827.0</ele><time>2026-04-27T08:06:28.927Z</time></trkpt><trkpt lat="39.894874000983975" lon="9.118354685186036"><ele>828.0</ele><time>2026-04-27T08:06:29.927Z</time></trkpt><trkpt lat="39.89471943620878" lon="9.11837345742167"><ele>829.0</ele><time>2026-04-27T08:06:30.927Z</time></trkpt><trkpt lat="39.894562732288925" lon="9.118394696325298"><ele>830.0</ele><time>2026-04-27T08:06:31.927Z</time></trkpt><trkpt lat="39.89440883939149" lon="9.11841608977801"><ele>831.3333333333334</ele><time>2026-04-27T08:06:32.927Z</time></trkpt><trkpt lat="39.89425130675872" lon="9.118434645221567"><ele>832.6666666666667</ele><time>2026-04-27T08:06:33.927Z</time></trkpt><trkpt lat="39.894096342623506" lon="9.118453639240371"><ele>834.0</ele><time>2026-04-27T08:06:34.927Z</time></trkpt><trkpt lat="39.89394034561114" lon="9.118476767228442"><ele>834.0</ele><time>2026-04-27T08:06:35.927Z</time></trkpt><trkpt lat="39.893781014282595" lon="9.118503682552051"><ele>834.0</ele><time>2026-04-27T08:06:36.927Z</time></trkpt><trkpt lat="39.893623217173406" lon="9.11853061086582"><ele>834.0</ele><time>2026-04-27T08:06:37.927Z</time></trkpt><trkpt lat="39.89346335261775" lon="9.118555558460388"><ele>835.0</ele><time>2026-04-27T08:06:38.927Z</time></trkpt><trkpt lat="39.893297314480016" lon="9.118572994916477"><ele>836.0</ele><time>2026-04-27T08:06:39.927Z</time></trkpt><trkpt lat="39.8931316525351" lon="9.118592226288595"><ele>837.0</ele><time>2026-04-27T08:06:40.927Z</time></trkpt><trkpt lat="39.89296441453306" lon="9.118611283379224"><ele>837.0</ele><time>2026-04-27T08:06:41.927Z</time></trkpt><trkpt lat="39.89279696222655" lon="9.11863268108004"><ele>837.0</ele><time>2026-04-27T08:06:42.928Z</time></trkpt><trkpt lat="39.89262696135373" lon="9.118655909245689"><ele>837.0</ele><time>2026-04-27T08:06:43.928Z</time></trkpt><trkpt lat="39.89245429044737" lon="9.118681234271861"><ele>837.3333333333333</ele><time>2026-04-27T08:06:44.928Z</time></trkpt><trkpt lat="39.892277603653724" lon="9.118696640754802"><ele>837.6666666666666</ele><time>2026-04-27T08:06:45.928Z</time></trkpt><trkpt lat="39.89210114652045" lon="9.118721525063576"><ele>838.0</ele><time>2026-04-27T08:06:46.929Z</time></trkpt><trkpt lat="39.891925289329734" lon="9.11874713846228"><ele>838.0</ele><time>2026-04-27T08:06:47.929Z</time></trkpt><trkpt lat="39.891749526002855" lon="9.118768982322925"><ele>838.0</ele><time>2026-04-27T08:06:48.929Z</time></trkpt><trkpt lat="39.89156726950942" lon="9.118789145677967"><ele>838.0</ele><time>2026-04-27T08:06:49.928Z</time></trkpt><trkpt lat="39.89138371840203" lon="9.118808004994287"><ele>838.0</ele><time>2026-04-27T08:06:50.928Z</time></trkpt><trkpt lat="39.89120362737456" lon="9.118829670357123"><ele>838.0</ele><time>2026-04-27T08:06:51.928Z</time></trkpt><trkpt lat="39.891021409122736" lon="9.118859328754414"><ele>838.0</ele><time>2026-04-27T08:06:52.928Z</time></trkpt><trkpt lat="39.89083382636445" lon="9.118889180042475"><ele>837.3333333333333</ele><time>2026-04-27T08:06:53.928Z</time></trkpt><trkpt lat="39.890643550131045" lon="9.11891657402103"><ele>836.6666666666667</ele><time>2026-04-27T08:06:54.928Z</time></trkpt><trkpt lat="39.890451868988016" lon="9.118941773826943"><ele>836.0</ele><time>2026-04-27T08:06:55.928Z</time></trkpt><trkpt lat="39.890254736193924" lon="9.118970357351664"><ele>833.6666666666667</ele><time>2026-04-27T08:06:56.928Z</time></trkpt><trkpt lat="39.890063800841716" lon="9.1190040789571"><ele>831.3333333333333</ele><time>2026-04-27T08:06:57.928Z</time></trkpt><trkpt lat="39.88989174904236" lon="9.119015522140467"><ele>829.0</ele><time>2026-04-27T08:06:58.928Z</time></trkpt><trkpt lat="39.8897241385055" lon="9.118965292940931"><ele>829.0</ele><time>2026-04-27T08:06:59.928Z</time></trkpt><trkpt lat="39.88956285764392" lon="9.118871278662896"><ele>829.0</ele><time>2026-04-27T08:07:00.928Z</time></trkpt><trkpt lat="39.88940481466764" lon="9.118780183497089"><ele>829.0</ele><time>2026-04-27T08:07:01.928Z</time></trkpt><trkpt lat="39.889242720345266" lon="9.118678592051674"><ele>828.6666666666666</ele><time>2026-04-27T08:07:02.928Z</time></trkpt><trkpt lat="39.889085977878665" lon="9.118576053317534"><ele>828.3333333333333</ele><time>2026-04-27T08:07:03.928Z</time></trkpt><trkpt lat="39.88894509786683" lon="9.118449432211081"><ele>828.0</ele><time>2026-04-27T08:07:04.927Z</time></trkpt><trkpt lat="39.88884878390862" lon="9.118291295274926"><ele>826.3333333333333</ele><time>2026-04-27T08:07:05.927Z</time></trkpt><trkpt lat="39.88879528151004" lon="9.118089297686483"><ele>824.6666666666666</ele><time>2026-04-27T08:07:06.927Z</time></trkpt><trkpt lat="39.888745103374575" lon="9.117882227847979"><ele>823.0</ele><time>2026-04-27T08:07:07.927Z</time></trkpt><trkpt lat="39.88867812334027" lon="9.117666357038095"><ele>823.0</ele><time>2026-04-27T08:07:08.927Z</time></trkpt><trkpt lat="39.888609916225086" lon="9.117444706387936"><ele>823.0</ele><time>2026-04-27T08:07:09.927Z</time></trkpt><trkpt lat="39.8885284821636" lon="9.117205016872896"><ele>823.0</ele><time>2026-04-27T08:07:10.927Z</time></trkpt><trkpt lat="39.88843538251589" lon="9.11697591337496"><ele>822.6666666666666</ele><time>2026-04-27T08:07:11.927Z</time></trkpt><trkpt lat="39.88836665361682" lon="9.116734321868192"><ele>822.3333333333333</ele><time>2026-04-27T08:07:12.927Z</time></trkpt><trkpt lat="39.888282968516855" lon="9.116488114468444"><ele>822.0</ele><time>2026-04-27T08:07:13.927Z</time></trkpt><trkpt lat="39.888194583364736" lon="9.116250031905007"><ele>820.3333333333333</ele><time>2026-04-27T08:07:14.927Z</time></trkpt><trkpt lat="39.88812158826028" lon="9.116002577769287"><ele>818.6666666666666</ele><time>2026-04-27T08:07:15.927Z</time></trkpt><trkpt lat="39.88804417721957" lon="9.11575896824382"><ele>817.0</ele><time>2026-04-27T08:07:16.927Z</time></trkpt><trkpt lat="39.88796544158527" lon="9.115517094519614"><ele>813.6666666666666</ele><time>2026-04-27T08:07:17.927Z</time></trkpt><trkpt lat="39.887888499402344" lon="9.115277652135804"><ele>810.3333333333333</ele><time>2026-04-27T08:07:18.927Z</time></trkpt><trkpt lat="39.88782063112657" lon="9.11504231411822"><ele>807.0</ele><time>2026-04-27T08:07:19.927Z</time></trkpt><trkpt lat="39.8877553059451" lon="9.114811708125751"><ele>808.0</ele><time>2026-04-27T08:07:20.927Z</time></trkpt><trkpt lat="39.88769439225516" lon="9.114595933135186"><ele>809.0</ele><time>2026-04-27T08:07:21.927Z</time></trkpt><trkpt lat="39.8876127752593" lon="9.114409743369993"><ele>810.0</ele><time>2026-04-27T08:07:22.927Z</time></trkpt><trkpt lat="39.887499099335514" lon="9.114247902030222"><ele>810.0</ele><time>2026-04-27T08:07:23.927Z</time></trkpt><trkpt lat="39.88736118334891" lon="9.1141156764284"><ele>810.0</ele><time>2026-04-27T08:07:24.927Z</time></trkpt><trkpt lat="39.88721598763858" lon="9.113991539033217"><ele>810.0</ele><time>2026-04-27T08:07:25.927Z</time></trkpt><trkpt lat="39.88708224353839" lon="9.113864842745636"><ele>806.0</ele><time>2026-04-27T08:07:26.927Z</time></trkpt><trkpt lat="39.88698327427131" lon="9.113705646143833"><ele>802.0</ele><time>2026-04-27T08:07:27.927Z</time></trkpt><trkpt lat="39.88692824082874" lon="9.11350882875457"><ele>798.0</ele><time>2026-04-27T08:07:28.927Z</time></trkpt><trkpt lat="39.88690203363486" lon="9.113288203650612"><ele>796.0</ele><time>2026-04-27T08:07:29.927Z</time></trkpt><trkpt lat="39.8868983361704" lon="9.113047447488242"><ele>794.0</ele><time>2026-04-27T08:07:30.927Z</time></trkpt><trkpt lat="39.886898612507146" lon="9.112801582725563"><ele>792.0</ele><time>2026-04-27T08:07:31.927Z</time></trkpt><trkpt lat="39.88687412181698" lon="9.112549621574885"><ele>789.3333333333333</ele><time>2026-04-27T08:07:32.927Z</time></trkpt><trkpt lat="39.88684260066168" lon="9.11229729063503"><ele>786.6666666666666</ele><time>2026-04-27T08:07:33.927Z</time></trkpt><trkpt lat="39.88678929462738" lon="9.112050205971116"><ele>784.0</ele><time>2026-04-27T08:07:34.926Z</time></trkpt><trkpt lat="39.88674333473849" lon="9.11180190414043"><ele>786.3333333333333</ele><time>2026-04-27T08:07:35.926Z</time></trkpt><trkpt lat="39.88667565411342" lon="9.111570394491846"><ele>788.6666666666667</ele><time>2026-04-27T08:07:36.926Z</time></trkpt><trkpt lat="39.886585742930876" lon="9.111363741503268"><ele>791.0</ele><time>2026-04-27T08:07:37.926Z</time></trkpt><trkpt lat="39.88648144358133" lon="9.111157296043439"><ele>791.0</ele><time>2026-04-27T08:07:38.926Z</time></trkpt><trkpt lat="39.88638601417916" lon="9.110969573529689"><ele>791.0</ele><time>2026-04-27T08:07:39.926Z</time></trkpt><trkpt lat="39.886291470243634" lon="9.110772856464713"><ele>791.0</ele><time>2026-04-27T08:07:40.926Z</time></trkpt><trkpt lat="39.88619813689697" lon="9.110476472045777"><ele>787.0</ele><time>2026-04-27T08:07:41.926Z</time></trkpt><trkpt lat="39.88615549934012" lon="9.110205562294784"><ele>783.0</ele><time>2026-04-27T08:07:42.926Z</time></trkpt><trkpt lat="39.88610498932276" lon="9.109973269409736"><ele>779.0</ele><time>2026-04-27T08:07:43.926Z</time></trkpt><trkpt lat="39.88604625615239" lon="9.109723135606078"><ele>780.0</ele><time>2026-04-27T08:07:44.926Z</time></trkpt><trkpt lat="39.8859852017407" lon="9.109446094659885"><ele>781.0</ele><time>2026-04-27T08:07:45.926Z</time></trkpt><trkpt lat="39.885935699617555" lon="9.109173938076912"><ele>782.0</ele><time>2026-04-27T08:07:46.926Z</time></trkpt><trkpt lat="39.88589789116787" lon="9.108928809831012"><ele>782.0</ele><time>2026-04-27T08:07:47.926Z</time></trkpt><trkpt lat="39.88585612237838" lon="9.108745690986897"><ele>782.0</ele><time>2026-04-27T08:07:48.926Z</time></trkpt><trkpt lat="39.88576287320156" lon="9.108560500391574"><ele>782.0</ele><time>2026-04-27T08:07:49.926Z</time></trkpt><trkpt lat="39.885640436191586" lon="9.108409450329875"><ele>782.0</ele><time>2026-04-27T08:07:50.926Z</time></trkpt><trkpt lat="39.8855062523904" lon="9.108259753235075"><ele>782.0</ele><time>2026-04-27T08:07:51.926Z</time></trkpt><trkpt lat="39.885374162146114" lon="9.108159460660815"><ele>782.0</ele><time>2026-04-27T08:07:52.926Z</time></trkpt><trkpt lat="39.88521111897452" lon="9.108179399872785"><ele>783.3333333333334</ele><time>2026-04-27T08:07:53.926Z</time></trkpt><trkpt lat="39.885028223072794" lon="9.108226825734562"><ele>784.6666666666667</ele><time>2026-04-27T08:07:54.926Z</time></trkpt><trkpt lat="39.88483357800625" lon="9.108270034805184"><ele>786.0</ele><time>2026-04-27T08:07:55.926Z</time></trkpt><trkpt lat="39.884659929653296" lon="9.108288120507696"><ele>786.0</ele><time>2026-04-27T08:07:56.926Z</time></trkpt><trkpt lat="39.8845021596935" lon="9.108250071606635"><ele>786.0</ele><time>2026-04-27T08:07:57.926Z</time></trkpt><trkpt lat="39.884378534594184" lon="9.108192394436912"><ele>786.0</ele><time>2026-04-27T08:07:58.926Z</time></trkpt><trkpt lat="39.88429484181872" lon="9.10806952645364"><ele>786.0</ele><time>2026-04-27T08:07:59.926Z</time></trkpt><trkpt lat="39.884247334526044" lon="9.107898910356894"><ele>785.0</ele><time>2026-04-27T08:08:00.926Z</time></trkpt><trkpt lat="39.884196768063354" lon="9.107732238236284"><ele>784.0</ele><time>2026-04-27T08:08:01.926Z</time></trkpt><trkpt lat="39.88413008763638" lon="9.107548345701904"><ele>783.0</ele><time>2026-04-27T08:08:02.926Z</time></trkpt><trkpt lat="39.884058099537896" lon="9.10734936824223"><ele>783.0</ele><time>2026-04-27T08:08:03.926Z</time></trkpt><trkpt lat="39.883989541727246" lon="9.107142774680174"><ele>783.0</ele><time>2026-04-27T08:08:04.926Z</time></trkpt><trkpt lat="39.88395381538184" lon="9.106935377314446"><ele>783.0</ele><time>2026-04-27T08:08:05.925Z</time></trkpt><trkpt lat="39.883966664439114" lon="9.106759180702308"><ele>783.0</ele><time>2026-04-27T08:08:06.925Z</time></trkpt><trkpt lat="39.88401581328123" lon="9.106564436259452"><ele>783.0</ele><time>2026-04-27T08:08:07.925Z</time></trkpt><trkpt lat="39.88403045846652" lon="9.106368944226459"><ele>783.0</ele><time>2026-04-27T08:08:08.925Z</time></trkpt><trkpt lat="39.88400327333971" lon="9.106199791814564"><ele>783.0</ele><time>2026-04-27T08:08:09.925Z</time></trkpt><trkpt lat="39.88392090631737" lon="9.106020521285949"><ele>783.0</ele><time>2026-04-27T08:08:10.925Z</time></trkpt><trkpt lat="39.883825442650455" lon="9.105830925796402"><ele>783.0</ele><time>2026-04-27T08:08:11.925Z</time></trkpt><trkpt lat="39.883733266757005" lon="9.105625450668958"><ele>783.0</ele><time>2026-04-27T08:08:12.925Z</time></trkpt><trkpt lat="39.88364239198485" lon="9.105402150030447"><ele>782.0</ele><time>2026-04-27T08:08:13.925Z</time></trkpt><trkpt lat="39.88354975433834" lon="9.105175159318623"><ele>781.0</ele><time>2026-04-27T08:08:14.925Z</time></trkpt><trkpt lat="39.88345196443958" lon="9.104949831774505"><ele>780.0</ele><time>2026-04-27T08:08:15.925Z</time></trkpt><trkpt lat="39.88335354185383" lon="9.104725554554063"><ele>779.6666666666667</ele><time>2026-04-27T08:08:16.925Z</time></trkpt><trkpt lat="39.88325954161359" lon="9.10449828887417"><ele>779.3333333333334</ele><time>2026-04-27T08:08:17.925Z</time></trkpt><trkpt lat="39.88316498046368" lon="9.104274779713878"><ele>779.0</ele><time>2026-04-27T08:08:18.925Z</time></trkpt><trkpt lat="39.883076656152326" lon="9.104061442030712"><ele>776.5</ele><time>2026-04-27T08:08:19.925Z</time></trkpt><trkpt lat="39.88299335334529" lon="9.103870698031637"><ele>774.0</ele><time>2026-04-27T08:08:20.925Z</time></trkpt><trkpt lat="39.882915444433415" lon="9.103718568714847"><ele>771.5</ele><time>2026-04-27T08:08:21.925Z</time></trkpt><trkpt lat="39.88280783569691" lon="9.103629771795578"><ele>769.0</ele><time>2026-04-27T08:08:22.925Z</time></trkpt><trkpt lat="39.8826783581899" lon="9.103641988414433"><ele>769.0</ele><time>2026-04-27T08:08:23.925Z</time></trkpt><trkpt lat="39.8825066348445" lon="9.103685774913139"><ele>769.0</ele><time>2026-04-27T08:08:24.925Z</time></trkpt><trkpt lat="39.88232839130573" lon="9.103673620534451"><ele>769.0</ele><time>2026-04-27T08:08:25.925Z</time></trkpt><trkpt lat="39.88214840197354" lon="9.103659911337921"><ele>769.0</ele><time>2026-04-27T08:08:26.925Z</time></trkpt><trkpt lat="39.88195946744102" lon="9.103613673685555"><ele>769.0</ele><time>2026-04-27T08:08:27.925Z</time></trkpt><trkpt lat="39.88179488640985" lon="9.103551902184755"><ele>769.0</ele><time>2026-04-27T08:08:28.925Z</time></trkpt><trkpt lat="39.88168809807523" lon="9.103430533269671"><ele>769.0</ele><time>2026-04-27T08:08:29.925Z</time></trkpt><trkpt lat="39.881640601273425" lon="9.103300420287438"><ele>769.0</ele><time>2026-04-27T08:08:30.925Z</time></trkpt><trkpt lat="39.88169116669539" lon="9.103167860955601"><ele>769.0</ele><time>2026-04-27T08:08:31.925Z</time></trkpt><trkpt lat="39.88170804109811" lon="9.102925949178843"><ele>769.0</ele><time>2026-04-27T08:08:32.925Z</time></trkpt><trkpt lat="39.88171136329298" lon="9.102688750125116"><ele>767.3333333333333</ele><time>2026-04-27T08:08:33.925Z</time></trkpt><trkpt lat="39.88164510287942" lon="9.102450320074832"><ele>765.6666666666666</ele><time>2026-04-27T08:08:34.925Z</time></trkpt><trkpt lat="39.881556566364196" lon="9.10225957170259"><ele>764.0</ele><time>2026-04-27T08:08:35.925Z</time></trkpt><trkpt lat="39.88147454819511" lon="9.102122771424229"><ele>764.0</ele><time>2026-04-27T08:08:36.924Z</time></trkpt><trkpt lat="39.8813764218793" lon="9.102072401277766"><ele>764.0</ele><time>2026-04-27T08:08:37.924Z</time></trkpt><trkpt lat="39.881245992199005" lon="9.10214841567766"><ele>764.0</ele><time>2026-04-27T08:08:38.924Z</time></trkpt><trkpt lat="39.88111903127385" lon="9.102287697022946"><ele>764.0</ele><time>2026-04-27T08:08:39.924Z</time></trkpt><trkpt lat="39.880978947316684" lon="9.102427161765311"><ele>761.6666666666666</ele><time>2026-04-27T08:08:40.924Z</time></trkpt><trkpt lat="39.8808143916739" lon="9.102531005254004"><ele>759.3333333333334</ele><time>2026-04-27T08:08:41.924Z</time></trkpt><trkpt lat="39.880663733674496" lon="9.10256436756387"><ele>757.0</ele><time>2026-04-27T08:08:42.924Z</time></trkpt><trkpt lat="39.880512967209995" lon="9.102552185673536"><ele>757.0</ele><time>2026-04-27T08:08:43.924Z</time></trkpt><trkpt lat="39.880386013100946" lon="9.10246210114989"><ele>757.0</ele><time>2026-04-27T08:08:44.924Z</time></trkpt><trkpt lat="39.88028820587012" lon="9.102317711623419"><ele>757.0</ele><time>2026-04-27T08:08:45.924Z</time></trkpt><trkpt lat="39.880279260375474" lon="9.102139879611215"><ele>757.0</ele><time>2026-04-27T08:08:46.924Z</time></trkpt><trkpt lat="39.88031223585645" lon="9.101955164706341"><ele>755.6666666666667</ele><time>2026-04-27T08:08:47.924Z</time></trkpt><trkpt lat="39.88034273523132" lon="9.10174258323032"><ele>754.3333333333334</ele><time>2026-04-27T08:08:48.925Z</time></trkpt><trkpt lat="39.88036099006079" lon="9.10152028682099"><ele>753.0</ele><time>2026-04-27T08:08:49.925Z</time></trkpt><trkpt lat="39.88033052244298" lon="9.10129450195219"><ele>752.6666666666666</ele><time>2026-04-27T08:08:50.925Z</time></trkpt><trkpt lat="39.88027296600342" lon="9.101076600124182"><ele>752.3333333333333</ele><time>2026-04-27T08:08:51.925Z</time></trkpt><trkpt lat="39.8802191763892" lon="9.100857014027548"><ele>752.0</ele><time>2026-04-27T08:08:52.925Z</time></trkpt><trkpt lat="39.88015592754287" lon="9.100637940198597"><ele>755.6666666666666</ele><time>2026-04-27T08:08:53.925Z</time></trkpt><trkpt lat="39.880064911968" lon="9.100447011961206"><ele>759.3333333333334</ele><time>2026-04-27T08:08:54.926Z</time></trkpt><trkpt lat="39.879952500148505" lon="9.100270626197016"><ele>763.0</ele><time>2026-04-27T08:08:55.925Z</time></trkpt><trkpt lat="39.87991084383817" lon="9.100074191538912"><ele>763.25</ele><time>2026-04-27T08:08:56.925Z</time></trkpt><trkpt lat="39.8799175373126" lon="9.099894840255688"><ele>763.5</ele><time>2026-04-27T08:08:57.925Z</time></trkpt><trkpt lat="39.88001552527887" lon="9.099775235314675"><ele>763.75</ele><time>2026-04-27T08:08:58.925Z</time></trkpt><trkpt lat="39.880117088880674" lon="9.09961252965852"><ele>764.0</ele><time>2026-04-27T08:08:59.925Z</time></trkpt><trkpt lat="39.880212176769554" lon="9.099457942268527"><ele>762.6666666666666</ele><time>2026-04-27T08:09:00.925Z</time></trkpt><trkpt lat="39.880239334046664" lon="9.099228703202284"><ele>761.3333333333334</ele><time>2026-04-27T08:09:01.925Z</time></trkpt><trkpt lat="39.88026300328926" lon="9.09898992455931"><ele>760.0</ele><time>2026-04-27T08:09:02.925Z</time></trkpt><trkpt lat="39.88027307474115" lon="9.098737952447888"><ele>758.75</ele><time>2026-04-27T08:09:03.925Z</time></trkpt><trkpt lat="39.88030522693452" lon="9.098516436261942"><ele>757.5</ele><time>2026-04-27T08:09:04.924Z</time></trkpt><trkpt lat="39.88033360387532" lon="9.098333526274011"><ele>756.25</ele><time>2026-04-27T08:09:05.924Z</time></trkpt><trkpt lat="39.88026038946825" lon="9.098197405771645"><ele>755.0</ele><time>2026-04-27T08:09:06.924Z</time></trkpt><trkpt lat="39.8801285713541" lon="9.098106796206483"><ele>752.0</ele><time>2026-04-27T08:09:07.924Z</time></trkpt><trkpt lat="39.87996371844638" lon="9.098019115344036"><ele>749.0</ele><time>2026-04-27T08:09:08.924Z</time></trkpt><trkpt lat="39.87976658182427" lon="9.09799784555854"><ele>746.0</ele><time>2026-04-27T08:09:09.924Z</time></trkpt><trkpt lat="39.87957885604192" lon="9.098010530166516"><ele>746.0</ele><time>2026-04-27T08:09:10.924Z</time></trkpt><trkpt lat="39.87943119698556" lon="9.097905926522301"><ele>746.0</ele><time>2026-04-27T08:09:11.924Z</time></trkpt><trkpt lat="39.87930075047533" lon="9.097756754231686"><ele>746.0</ele><time>2026-04-27T08:09:12.924Z</time></trkpt><trkpt lat="39.87917919415578" lon="9.097577278231723"><ele>746.0</ele><time>2026-04-27T08:09:13.924Z</time></trkpt><trkpt lat="39.879091810386456" lon="9.097353972139715"><ele>746.0</ele><time>2026-04-27T08:09:14.924Z</time></trkpt><trkpt lat="39.87900637353801" lon="9.097115509931989"><ele>746.0</ele><time>2026-04-27T08:09:15.924Z</time></trkpt><trkpt lat="39.87893871878797" lon="9.096894583839235"><ele>746.0</ele><time>2026-04-27T08:09:16.924Z</time></trkpt><trkpt lat="39.878925359857156" lon="9.096689608430642"><ele>746.0</ele><time>2026-04-27T08:09:17.924Z</time></trkpt><trkpt lat="39.878969338123696" lon="9.096486378472944"><ele>746.0</ele><time>2026-04-27T08:09:18.924Z</time></trkpt><trkpt lat="39.87906312171712" lon="9.096299447149324"><ele>745.0</ele><time>2026-04-27T08:09:19.924Z</time></trkpt><trkpt lat="39.8791437226095" lon="9.09608667023291"><ele>744.0</ele><time>2026-04-27T08:09:20.924Z</time></trkpt><trkpt lat="39.87919654658302" lon="9.095910440184937"><ele>743.0</ele><time>2026-04-27T08:09:21.924Z</time></trkpt><trkpt lat="39.87913669922581" lon="9.09572135021369"><ele>742.3333333333333</ele><time>2026-04-27T08:09:22.924Z</time></trkpt><trkpt lat="39.87906851530954" lon="9.095510196712402"><ele>741.6666666666666</ele><time>2026-04-27T08:09:23.924Z</time></trkpt><trkpt lat="39.87898848773689" lon="9.095309254807244"><ele>741.0</ele><time>2026-04-27T08:09:24.924Z</time></trkpt><trkpt lat="39.878909343466525" lon="9.095143435067305"><ele>741.0</ele><time>2026-04-27T08:09:25.924Z</time></trkpt><trkpt lat="39.878805829150686" lon="9.095048670340507"><ele>741.0</ele><time>2026-04-27T08:09:26.924Z</time></trkpt><trkpt lat="39.878672473531" lon="9.095006628710081"><ele>741.0</ele><time>2026-04-27T08:09:27.924Z</time></trkpt><trkpt lat="39.878549632360226" lon="9.094977209810644"><ele>741.0</ele><time>2026-04-27T08:09:28.924Z</time></trkpt><trkpt lat="39.87844147816771" lon="9.094939635125385"><ele>740.3333333333334</ele><time>2026-04-27T08:09:29.924Z</time></trkpt><trkpt lat="39.8783536369423" lon="9.094902905577706"><ele>739.6666666666666</ele><time>2026-04-27T08:09:30.924Z</time></trkpt><trkpt lat="39.87828154316624" lon="9.094869313622576"><ele>739.0</ele><time>2026-04-27T08:09:31.924Z</time></trkpt><trkpt lat="39.878207438065125" lon="9.094838600868277"><ele>738.3333333333333</ele><time>2026-04-27T08:09:32.924Z</time></trkpt><trkpt lat="39.87812965783522" lon="9.094809040742675"><ele>737.6666666666666</ele><time>2026-04-27T08:09:33.924Z</time></trkpt><trkpt lat="39.87803114888844" lon="9.094761840191183"><ele>737.0</ele><time>2026-04-27T08:09:34.923Z</time></trkpt><trkpt lat="39.87792475463615" lon="9.0947135299823"><ele>737.0</ele><time>2026-04-27T08:09:35.923Z</time></trkpt><trkpt lat="39.87781533184902" lon="9.094660371165036"><ele>737.0</ele><time>2026-04-27T08:09:36.923Z</time></trkpt><trkpt lat="39.87770016761588" lon="9.094607768578427"><ele>737.0</ele><time>2026-04-27T08:09:37.923Z</time></trkpt><trkpt lat="39.87757789132767" lon="9.094546562760165"><ele>737.0</ele><time>2026-04-27T08:09:38.923Z</time></trkpt><trkpt lat="39.87745639728059" lon="9.094456831366227"><ele>736.25</ele><time>2026-04-27T08:09:39.923Z</time></trkpt><trkpt lat="39.87734474978127" lon="9.09434329309079"><ele>735.5</ele><time>2026-04-27T08:09:40.923Z</time></trkpt><trkpt lat="39.87720932280246" lon="9.094260000989077"><ele>734.75</ele><time>2026-04-27T08:09:41.923Z</time></trkpt><trkpt lat="39.87707036367969" lon="9.094169412282891"><ele>734.0</ele><time>2026-04-27T08:09:42.923Z</time></trkpt><trkpt lat="39.87692399749067" lon="9.094105453544765"><ele>731.3333333333333</ele><time>2026-04-27T08:09:43.923Z</time></trkpt><trkpt lat="39.87676367458805" lon="9.094054302194058"><ele>728.6666666666666</ele><time>2026-04-27T08:09:44.923Z</time></trkpt><trkpt lat="39.87659545162295" lon="9.094000120146825"><ele>726.0</ele><time>2026-04-27T08:09:45.923Z</time></trkpt><trkpt lat="39.87642907539936" lon="9.093915677631284"><ele>726.0</ele><time>2026-04-27T08:09:46.923Z</time></trkpt><trkpt lat="39.876247838889086" lon="9.09385281822632"><ele>726.0</ele><time>2026-04-27T08:09:47.923Z</time></trkpt><trkpt lat="39.87607480395946" lon="9.09379691631018"><ele>726.0</ele><time>2026-04-27T08:09:48.923Z</time></trkpt><trkpt lat="39.875915919765575" lon="9.093747062817203"><ele>724.25</ele><time>2026-04-27T08:09:49.923Z</time></trkpt><trkpt lat="39.87576929899645" lon="9.093701711239854"><ele>722.5</ele><time>2026-04-27T08:09:50.923Z</time></trkpt><trkpt lat="39.8756521460035" lon="9.093655778494936"><ele>720.75</ele><time>2026-04-27T08:09:51.923Z</time></trkpt><trkpt lat="39.875558085203544" lon="9.093614594057877"><ele>719.0</ele><time>2026-04-27T08:09:52.923Z</time></trkpt><trkpt lat="39.87551504384178" lon="9.093477454646207"><ele>719.0</ele><time>2026-04-27T08:09:53.923Z</time></trkpt><trkpt lat="39.87557390641943" lon="9.093291007703089"><ele>719.0</ele><time>2026-04-27T08:09:54.923Z</time></trkpt><trkpt lat="39.875593582631005" lon="9.093071788242904"><ele>719.0</ele><time>2026-04-27T08:09:55.923Z</time></trkpt><trkpt lat="39.87559955721172" lon="9.092852158391846"><ele>719.0</ele><time>2026-04-27T08:09:56.923Z</time></trkpt><trkpt lat="39.87552630465249" lon="9.092644049687413"><ele>719.0</ele><time>2026-04-27T08:09:57.923Z</time></trkpt><trkpt lat="39.87541010517252" lon="9.0924476657175"><ele>719.0</ele><time>2026-04-27T08:09:58.923Z</time></trkpt><trkpt lat="39.875281300111446" lon="9.092245054330604"><ele>718.3333333333333</ele><time>2026-04-27T08:09:59.923Z</time></trkpt><trkpt lat="39.87512820093836" lon="9.092059325678443"><ele>717.6666666666666</ele><time>2026-04-27T08:10:00.923Z</time></trkpt><trkpt lat="39.87498781261596" lon="9.091875701722985"><ele>717.0</ele><time>2026-04-27T08:10:01.923Z</time></trkpt><trkpt lat="39.87485246236486" lon="9.091731230021628"><ele>717.0</ele><time>2026-04-27T08:10:02.923Z</time></trkpt><trkpt lat="39.874698081099424" lon="9.09164515781138"><ele>717.0</ele><time>2026-04-27T08:10:03.923Z</time></trkpt><trkpt lat="39.87451760154865" lon="9.09159395607483"><ele>717.0</ele><time>2026-04-27T08:10:04.923Z</time></trkpt><trkpt lat="39.87431213218001" lon="9.09157741068414"><ele>715.6666666666666</ele><time>2026-04-27T08:10:05.922Z</time></trkpt><trkpt lat="39.87410861770046" lon="9.091635358387295"><ele>714.3333333333333</ele><time>2026-04-27T08:10:06.922Z</time></trkpt><trkpt lat="39.87390441388914" lon="9.09174703873293"><ele>713.0</ele><time>2026-04-27T08:10:07.922Z</time></trkpt><trkpt lat="39.87371189292266" lon="9.091852470501832"><ele>713.0</ele><time>2026-04-27T08:10:08.922Z</time></trkpt><trkpt lat="39.87350792198078" lon="9.091877656745632"><ele>713.0</ele><time>2026-04-27T08:10:09.922Z</time></trkpt><trkpt lat="39.87329693447901" lon="9.091895849931518"><ele>713.0</ele><time>2026-04-27T08:10:10.922Z</time></trkpt><trkpt lat="39.873105154656756" lon="9.091893864871789"><ele>711.6666666666666</ele><time>2026-04-27T08:10:11.922Z</time></trkpt><trkpt lat="39.872937225962566" lon="9.09184685609004"><ele>710.3333333333334</ele><time>2026-04-27T08:10:12.922Z</time></trkpt><trkpt lat="39.87278999920554" lon="9.091716917021836"><ele>709.0</ele><time>2026-04-27T08:10:13.922Z</time></trkpt><trkpt lat="39.87262208509833" lon="9.09156562210495"><ele>707.6666666666667</ele><time>2026-04-27T08:10:14.922Z</time></trkpt><trkpt lat="39.87244724197924" lon="9.091436418925678"><ele>706.3333333333334</ele><time>2026-04-27T08:10:15.922Z</time></trkpt><trkpt lat="39.872295239486185" lon="9.09131757272919"><ele>705.0</ele><time>2026-04-27T08:10:16.922Z</time></trkpt><trkpt lat="39.87219447281169" lon="9.091192816372336"><ele>705.0</ele><time>2026-04-27T08:10:17.922Z</time></trkpt><trkpt lat="39.87214813431187" lon="9.091092023745045"><ele>705.0</ele><time>2026-04-27T08:10:18.922Z</time></trkpt><trkpt lat="39.87215251322411" lon="9.09098460696182"><ele>705.0</ele><time>2026-04-27T08:10:19.922Z</time></trkpt><trkpt lat="39.872220346426836" lon="9.090896703850907"><ele>705.0</ele><time>2026-04-27T08:10:20.922Z</time></trkpt><trkpt lat="39.872284281256505" lon="9.090791389881305"><ele>705.0</ele><time>2026-04-27T08:10:21.922Z</time></trkpt><trkpt lat="39.87234894965402" lon="9.090651998916394"><ele>708.0</ele><time>2026-04-27T08:10:22.922Z</time></trkpt><trkpt lat="39.87243120025582" lon="9.090497599892336"><ele>711.0</ele><time>2026-04-27T08:10:23.922Z</time></trkpt><trkpt lat="39.87251684347653" lon="9.090316769121424"><ele>714.0</ele><time>2026-04-27T08:10:24.922Z</time></trkpt><trkpt lat="39.872600853344544" lon="9.09012602918248"><ele>707.3333333333334</ele><time>2026-04-27T08:10:25.922Z</time></trkpt><trkpt lat="39.87267996325688" lon="9.089944206514325"><ele>700.6666666666667</ele><time>2026-04-27T08:10:26.922Z</time></trkpt><trkpt lat="39.87273310529345" lon="9.089732903750175"><ele>694.0</ele><time>2026-04-27T08:10:27.922Z</time></trkpt><trkpt lat="39.87277127791601" lon="9.089509491770116"><ele>694.0</ele><time>2026-04-27T08:10:28.922Z</time></trkpt><trkpt lat="39.87279347085206" lon="9.089289072706633"><ele>694.0</ele><time>2026-04-27T08:10:29.922Z</time></trkpt><trkpt lat="39.87279976060167" lon="9.089066149998663"><ele>694.0</ele><time>2026-04-27T08:10:30.922Z</time></trkpt><trkpt lat="39.87285029116493" lon="9.088890598004042"><ele>700.3333333333334</ele><time>2026-04-27T08:10:31.922Z</time></trkpt><trkpt lat="39.8729533784654" lon="9.088742760679635"><ele>706.6666666666666</ele><time>2026-04-27T08:10:32.922Z</time></trkpt><trkpt lat="39.87308413494967" lon="9.088568686869282"><ele>713.0</ele><time>2026-04-27T08:10:33.922Z</time></trkpt><trkpt lat="39.873214564310004" lon="9.088394467457608"><ele>713.0</ele><time>2026-04-27T08:10:34.922Z</time></trkpt><trkpt lat="39.87335068785847" lon="9.088208208203362"><ele>713.0</ele><time>2026-04-27T08:10:35.922Z</time></trkpt><trkpt lat="39.87349133951014" lon="9.0880097814288"><ele>713.0</ele><time>2026-04-27T08:10:36.921Z</time></trkpt><trkpt lat="39.873634683197054" lon="9.087815921924745"><ele>713.0</ele><time>2026-04-27T08:10:37.921Z</time></trkpt><trkpt lat="39.87378790596517" lon="9.087639073798703"><ele>713.0</ele><time>2026-04-27T08:10:38.921Z</time></trkpt><trkpt lat="39.87395973450208" lon="9.087494605676135"><ele>713.0</ele><time>2026-04-27T08:10:39.921Z</time></trkpt><trkpt lat="39.874119257104475" lon="9.087313344001796"><ele>712.0</ele><time>2026-04-27T08:10:40.921Z</time></trkpt><trkpt lat="39.874289406468016" lon="9.087158280244937"><ele>711.0</ele><time>2026-04-27T08:10:41.921Z</time></trkpt><trkpt lat="39.87445138245755" lon="9.0870065906179"><ele>710.0</ele><time>2026-04-27T08:10:42.921Z</time></trkpt><trkpt lat="39.8745963288715" lon="9.086850899046567"><ele>710.0</ele><time>2026-04-27T08:10:43.921Z</time></trkpt><trkpt lat="39.87470686473825" lon="9.086678227412758"><ele>710.0</ele><time>2026-04-27T08:10:44.921Z</time></trkpt><trkpt lat="39.87478316518784" lon="9.086456729871866"><ele>710.0</ele><time>2026-04-27T08:10:45.921Z</time></trkpt><trkpt lat="39.874834985302755" lon="9.086204297863002"><ele>711.3333333333333</ele><time>2026-04-27T08:10:46.921Z</time></trkpt><trkpt lat="39.874862269143605" lon="9.085954967359587"><ele>712.6666666666666</ele><time>2026-04-27T08:10:47.921Z</time></trkpt><trkpt lat="39.874914767415056" lon="9.085718727264396"><ele>714.0</ele><time>2026-04-27T08:10:48.921Z</time></trkpt><trkpt lat="39.87495716122917" lon="9.085511900611365"><ele>713.6666666666666</ele><time>2026-04-27T08:10:49.921Z</time></trkpt><trkpt lat="39.87500410533275" lon="9.085316787542018"><ele>713.3333333333333</ele><time>2026-04-27T08:10:50.921Z</time></trkpt><trkpt lat="39.87516656760885" lon="9.085194306503164"><ele>713.0</ele><time>2026-04-27T08:10:51.921Z</time></trkpt><trkpt lat="39.87533794696645" lon="9.085091491022936"><ele>713.0</ele><time>2026-04-27T08:10:52.921Z</time></trkpt><trkpt lat="39.87550861265116" lon="9.085023745578315"><ele>713.0</ele><time>2026-04-27T08:10:53.921Z</time></trkpt><trkpt lat="39.87568566767761" lon="9.08500052811046"><ele>713.0</ele><time>2026-04-27T08:10:54.922Z</time></trkpt><trkpt lat="39.875864231986554" lon="9.084959078608762"><ele>713.6666666666666</ele><time>2026-04-27T08:10:55.922Z</time></trkpt><trkpt lat="39.87604848064632" lon="9.084863778585733"><ele>714.3333333333334</ele><time>2026-04-27T08:10:56.922Z</time></trkpt><trkpt lat="39.876229898352946" lon="9.08472805902071"><ele>715.0</ele><time>2026-04-27T08:10:57.922Z</time></trkpt><trkpt lat="39.876407212577185" lon="9.084576671999693"><ele>715.0</ele><time>2026-04-27T08:10:58.922Z</time></trkpt><trkpt lat="39.87660836674704" lon="9.084429741927888"><ele>715.0</ele><time>2026-04-27T08:10:59.922Z</time></trkpt><trkpt lat="39.87680567851504" lon="9.084282782411398"><ele>712.6666666666667</ele><time>2026-04-27T08:11:00.922Z</time></trkpt><trkpt lat="39.87699918003201" lon="9.084147525618098"><ele>710.3333333333334</ele><time>2026-04-27T08:11:01.922Z</time></trkpt><trkpt lat="39.87717638056467" lon="9.084002452477902"><ele>708.0</ele><time>2026-04-27T08:11:02.922Z</time></trkpt><trkpt lat="39.8773282122125" lon="9.083811472035475"><ele>708.0</ele><time>2026-04-27T08:11:03.922Z</time></trkpt><trkpt lat="39.87745653060066" lon="9.083587833683294"><ele>708.0</ele><time>2026-04-27T08:11:04.922Z</time></trkpt><trkpt lat="39.87756197981503" lon="9.08333746867556"><ele>708.0</ele><time>2026-04-27T08:11:05.922Z</time></trkpt><trkpt lat="39.877657887455996" lon="9.083066228397433"><ele>700.5</ele><time>2026-04-27T08:11:06.922Z</time></trkpt><trkpt lat="39.8777591147738" lon="9.082801655959019"><ele>693.0</ele><time>2026-04-27T08:11:07.922Z</time></trkpt><trkpt lat="39.87787484740381" lon="9.082536563702854"><ele>699.0</ele><time>2026-04-27T08:11:08.922Z</time></trkpt><trkpt lat="39.87797982923915" lon="9.082263993109347"><ele>705.0</ele><time>2026-04-27T08:11:09.922Z</time></trkpt><trkpt lat="39.878109295678435" lon="9.082005572840783"><ele>705.0</ele><time>2026-04-27T08:11:10.922Z</time></trkpt><trkpt lat="39.878261025475794" lon="9.08175933258024"><ele>705.0</ele><time>2026-04-27T08:11:11.922Z</time></trkpt><trkpt lat="39.87842112981863" lon="9.081513236667083"><ele>696.5</ele><time>2026-04-27T08:11:12.922Z</time></trkpt><trkpt lat="39.87856010028346" lon="9.081238595465026"><ele>688.0</ele><time>2026-04-27T08:11:13.922Z</time></trkpt><trkpt lat="39.878676961201975" lon="9.08095085226177"><ele>697.0</ele><time>2026-04-27T08:11:14.922Z</time></trkpt><trkpt lat="39.8787897728415" lon="9.08065838526601"><ele>706.0</ele><time>2026-04-27T08:11:15.922Z</time></trkpt><trkpt lat="39.87892084068816" lon="9.080399846419914"><ele>706.0</ele><time>2026-04-27T08:11:16.922Z</time></trkpt><trkpt lat="39.879076157010154" lon="9.080153165258986"><ele>706.0</ele><time>2026-04-27T08:11:17.922Z</time></trkpt><trkpt lat="39.879239383638456" lon="9.079921632447878"><ele>703.0</ele><time>2026-04-27T08:11:18.922Z</time></trkpt><trkpt lat="39.87942632503767" lon="9.079710742316035"><ele>700.0</ele><time>2026-04-27T08:11:19.922Z</time></trkpt><trkpt lat="39.879636939298" lon="9.07954172306334"><ele>700.0</ele><time>2026-04-27T08:11:20.922Z</time></trkpt><trkpt lat="39.879853798323694" lon="9.079384121817489"><ele>700.0</ele><time>2026-04-27T08:11:21.921Z</time></trkpt><trkpt lat="39.880065371744465" lon="9.079237350176644"><ele>697.0</ele><time>2026-04-27T08:11:22.921Z</time></trkpt><trkpt lat="39.88024821728022" lon="9.079084527873873"><ele>694.0</ele><time>2026-04-27T08:11:23.921Z</time></trkpt><trkpt lat="39.88041010789587" lon="9.078899794619105"><ele>691.0</ele><time>2026-04-27T08:11:24.921Z</time></trkpt><trkpt lat="39.880550291585536" lon="9.078657811925794"><ele>691.0</ele><time>2026-04-27T08:11:25.921Z</time></trkpt><trkpt lat="39.88067291107718" lon="9.078390684296485"><ele>691.0</ele><time>2026-04-27T08:11:26.921Z</time></trkpt><trkpt lat="39.88079020678876" lon="9.078108248655768"><ele>695.5</ele><time>2026-04-27T08:11:27.921Z</time></trkpt><trkpt lat="39.88090161205914" lon="9.077834866748269"><ele>700.0</ele><time>2026-04-27T08:11:28.921Z</time></trkpt><trkpt lat="39.88100773797568" lon="9.077593985644802"><ele>694.0</ele><time>2026-04-27T08:11:29.921Z</time></trkpt><trkpt lat="39.88108294191298" lon="9.077358508946173"><ele>688.0</ele><time>2026-04-27T08:11:30.921Z</time></trkpt><trkpt lat="39.88111194152326" lon="9.077103224817776"><ele>682.0</ele><time>2026-04-27T08:11:31.921Z</time></trkpt><trkpt lat="39.88110001159339" lon="9.076823637199661"><ele>684.0</ele><time>2026-04-27T08:11:32.921Z</time></trkpt><trkpt lat="39.88105764144697" lon="9.076559325481785"><ele>686.0</ele><time>2026-04-27T08:11:33.921Z</time></trkpt><trkpt lat="39.880964890905005" lon="9.07632714672705"><ele>688.0</ele><time>2026-04-27T08:11:34.921Z</time></trkpt><trkpt lat="39.88081302630807" lon="9.076143503001122"><ele>688.0</ele><time>2026-04-27T08:11:35.921Z</time></trkpt><trkpt lat="39.88060600101453" lon="9.075982512127583"><ele>688.0</ele><time>2026-04-27T08:11:36.921Z</time></trkpt><trkpt lat="39.88043359157578" lon="9.075819238560829"><ele>684.6666666666667</ele><time>2026-04-27T08:11:37.921Z</time></trkpt><trkpt lat="39.880306750973226" lon="9.07566068317438"><ele>681.3333333333334</ele><time>2026-04-27T08:11:38.921Z</time></trkpt><trkpt lat="39.880246613312224" lon="9.075472326741458"><ele>678.0</ele><time>2026-04-27T08:11:39.921Z</time></trkpt><trkpt lat="39.88024546867552" lon="9.07524587975407"><ele>678.0</ele><time>2026-04-27T08:11:40.921Z</time></trkpt><trkpt lat="39.8802782034367" lon="9.074976137778618"><ele>678.0</ele><time>2026-04-27T08:11:41.921Z</time></trkpt><trkpt lat="39.880297474875015" lon="9.07470892990443"><ele>678.0</ele><time>2026-04-27T08:11:42.921Z</time></trkpt><trkpt lat="39.88029791321811" lon="9.074435176695275"><ele>678.3333333333334</ele><time>2026-04-27T08:11:43.921Z</time></trkpt><trkpt lat="39.88031277970982" lon="9.074174541965553"><ele>678.6666666666667</ele><time>2026-04-27T08:11:44.921Z</time></trkpt><trkpt lat="39.88031273383276" lon="9.07392674737858"><ele>679.0</ele><time>2026-04-27T08:11:45.921Z</time></trkpt><trkpt lat="39.880268734164986" lon="9.073692947659465"><ele>679.0</ele><time>2026-04-27T08:11:46.921Z</time></trkpt><trkpt lat="39.88018396548521" lon="9.073454760860244"><ele>679.0</ele><time>2026-04-27T08:11:47.921Z</time></trkpt><trkpt lat="39.880088382331095" lon="9.073209352728213"><ele>679.0</ele><time>2026-04-27T08:11:48.921Z</time></trkpt><trkpt lat="39.879994818370314" lon="9.072951485046998"><ele>680.3333333333334</ele><time>2026-04-27T08:11:49.921Z</time></trkpt><trkpt lat="39.8799045332331" lon="9.072688672695213"><ele>681.6666666666666</ele><time>2026-04-27T08:11:50.921Z</time></trkpt><trkpt lat="39.87982201626578" lon="9.072432226156502"><ele>683.0</ele><time>2026-04-27T08:11:51.921Z</time></trkpt><trkpt lat="39.879771663926064" lon="9.072169968086895"><ele>683.0</ele><time>2026-04-27T08:11:52.92Z</time></trkpt><trkpt lat="39.87974461697228" lon="9.071938260144345"><ele>683.0</ele><time>2026-04-27T08:11:53.92Z</time></trkpt><trkpt lat="39.87972663035799" lon="9.07172450600677"><ele>683.0</ele><time>2026-04-27T08:11:54.92Z</time></trkpt><trkpt lat="39.87967744559746" lon="9.07156959687646"><ele>681.0</ele><time>2026-04-27T08:11:55.92Z</time></trkpt><trkpt lat="39.879603346076145" lon="9.071463495822453"><ele>679.0</ele><time>2026-04-27T08:11:56.92Z</time></trkpt><trkpt lat="39.87950946277378" lon="9.071416265752829"><ele>677.0</ele><time>2026-04-27T08:11:57.92Z</time></trkpt><trkpt lat="39.87940415400884" lon="9.0714498346147"><ele>675.0</ele><time>2026-04-27T08:11:58.92Z</time></trkpt><trkpt lat="39.87929302692258" lon="9.071555874735315"><ele>679.3333333333334</ele><time>2026-04-27T08:11:59.92Z</time></trkpt><trkpt lat="39.87918974383225" lon="9.071689876698557"><ele>683.6666666666667</ele><time>2026-04-27T08:12:00.92Z</time></trkpt><trkpt lat="39.87904049271098" lon="9.071790165223993"><ele>688.0</ele><time>2026-04-27T08:12:01.92Z</time></trkpt><trkpt lat="39.878857119704634" lon="9.071847943488027"><ele>688.0</ele><time>2026-04-27T08:12:02.92Z</time></trkpt><trkpt lat="39.87866283985844" lon="9.07189156179175"><ele>688.0</ele><time>2026-04-27T08:12:03.92Z</time></trkpt><trkpt lat="39.87848648296727" lon="9.071983856368421"><ele>688.0</ele><time>2026-04-27T08:12:04.92Z</time></trkpt><trkpt lat="39.87830976056208" lon="9.072110575165807"><ele>692.3333333333334</ele><time>2026-04-27T08:12:05.92Z</time></trkpt><trkpt lat="39.87813414167785" lon="9.072234914172986"><ele>696.6666666666666</ele><time>2026-04-27T08:12:06.92Z</time></trkpt><trkpt lat="39.877946747514194" lon="9.07234945903266"><ele>701.0</ele><time>2026-04-27T08:12:07.92Z</time></trkpt><trkpt lat="39.87774471167758" lon="9.072448271085003"><ele>692.0</ele><time>2026-04-27T08:12:08.92Z</time></trkpt><trkpt lat="39.87753427424021" lon="9.072541809342669"><ele>683.0</ele><time>2026-04-27T08:12:09.92Z</time></trkpt><trkpt lat="39.877317614064616" lon="9.072642154568168"><ele>683.0</ele><time>2026-04-27T08:12:10.92Z</time></trkpt><trkpt lat="39.87709984016946" lon="9.072748145098643"><ele>683.0</ele><time>2026-04-27T08:12:11.92Z</time></trkpt><trkpt lat="39.8768784442583" lon="9.072869206322293"><ele>674.0</ele><time>2026-04-27T08:12:12.92Z</time></trkpt><trkpt lat="39.876655427321595" lon="9.07299961121008"><ele>665.0</ele><time>2026-04-27T08:12:13.92Z</time></trkpt><trkpt lat="39.87643225968565" lon="9.07310676084913"><ele>665.0</ele><time>2026-04-27T08:12:14.92Z</time></trkpt><trkpt lat="39.876204303831535" lon="9.073204019501688"><ele>665.0</ele><time>2026-04-27T08:12:15.92Z</time></trkpt><trkpt lat="39.875982259508845" lon="9.073290048687554"><ele>667.6666666666666</ele><time>2026-04-27T08:12:16.92Z</time></trkpt><trkpt lat="39.87577416430793" lon="9.073349650479154"><ele>670.3333333333334</ele><time>2026-04-27T08:12:17.92Z</time></trkpt><trkpt lat="39.875572093832616" lon="9.073389807227509"><ele>673.0</ele><time>2026-04-27T08:12:18.92Z</time></trkpt><trkpt lat="39.87539488679085" lon="9.073420177957466"><ele>673.0</ele><time>2026-04-27T08:12:19.92Z</time></trkpt><trkpt lat="39.875251426466555" lon="9.073487235356936"><ele>673.0</ele><time>2026-04-27T08:12:20.92Z</time></trkpt><trkpt lat="39.87512494564603" lon="9.073481922334096"><ele>673.0</ele><time>2026-04-27T08:12:21.92Z</time></trkpt><trkpt lat="39.875028044104866" lon="9.073416504091888"><ele>673.0</ele><time>2026-04-27T08:12:22.92Z</time></trkpt><trkpt lat="39.874975940806024" lon="9.073274538688317"><ele>676.0</ele><time>2026-04-27T08:12:23.919Z</time></trkpt><trkpt lat="39.87499314409958" lon="9.073082966652228"><ele>679.0</ele><time>2026-04-27T08:12:24.919Z</time></trkpt><trkpt lat="39.87507092463115" lon="9.072886244777662"><ele>682.0</ele><time>2026-04-27T08:12:25.919Z</time></trkpt><trkpt lat="39.875181188783145" lon="9.072680433118567"><ele>675.6666666666667</ele><time>2026-04-27T08:12:26.919Z</time></trkpt><trkpt lat="39.87528844535143" lon="9.072462670161068"><ele>669.3333333333334</ele><time>2026-04-27T08:12:27.919Z</time></trkpt><trkpt lat="39.87540218643663" lon="9.072235910782242"><ele>663.0</ele><time>2026-04-27T08:12:28.919Z</time></trkpt><trkpt lat="39.875518883583325" lon="9.072005078523254"><ele>663.0</ele><time>2026-04-27T08:12:29.919Z</time></trkpt><trkpt lat="39.87562282611814" lon="9.071788403137356"><ele>663.0</ele><time>2026-04-27T08:12:30.919Z</time></trkpt><trkpt lat="39.87569316985698" lon="9.071554926244163"><ele>663.0</ele><time>2026-04-27T08:12:31.919Z</time></trkpt><trkpt lat="39.87572287588141" lon="9.07129864935566"><ele>666.0</ele><time>2026-04-27T08:12:32.919Z</time></trkpt><trkpt lat="39.87574618484342" lon="9.07103477297465"><ele>669.0</ele><time>2026-04-27T08:12:33.919Z</time></trkpt><trkpt lat="39.875810659980395" lon="9.070809662910507"><ele>672.0</ele><time>2026-04-27T08:12:34.919Z</time></trkpt><trkpt lat="39.875845427784434" lon="9.070595835125348"><ele>673.0</ele><time>2026-04-27T08:12:35.919Z</time></trkpt><trkpt lat="39.875828941703325" lon="9.0703509674963"><ele>674.0</ele><time>2026-04-27T08:12:36.919Z</time></trkpt><trkpt lat="39.87578247630921" lon="9.070091450897369"><ele>675.0</ele><time>2026-04-27T08:12:37.919Z</time></trkpt><trkpt lat="39.87572963117715" lon="9.069824700014216"><ele>675.0</ele><time>2026-04-27T08:12:38.919Z</time></trkpt><trkpt lat="39.87567405325212" lon="9.06957928021596"><ele>675.0</ele><time>2026-04-27T08:12:39.919Z</time></trkpt><trkpt lat="39.8755829751073" lon="9.069341799747585"><ele>675.0</ele><time>2026-04-27T08:12:40.919Z</time></trkpt><trkpt lat="39.875470235188594" lon="9.069127662583705"><ele>674.3333333333334</ele><time>2026-04-27T08:12:41.919Z</time></trkpt><trkpt lat="39.875375352755064" lon="9.068940873022358"><ele>673.6666666666667</ele><time>2026-04-27T08:12:42.919Z</time></trkpt><trkpt lat="39.87533766505825" lon="9.068739650520643"><ele>673.0</ele><time>2026-04-27T08:12:43.919Z</time></trkpt><trkpt lat="39.87538056117251" lon="9.068488345733392"><ele>673.0</ele><time>2026-04-27T08:12:44.919Z</time></trkpt><trkpt lat="39.87544674075159" lon="9.068253445004402"><ele>673.0</ele><time>2026-04-27T08:12:45.919Z</time></trkpt><trkpt lat="39.87511459745063" lon="9.068279406756178"><ele>675.6666666666667</ele><time>2026-04-27T08:12:46.919Z</time></trkpt><trkpt lat="39.8751434829088" lon="9.068060109733487"><ele>678.3333333333334</ele><time>2026-04-27T08:12:47.919Z</time></trkpt><trkpt lat="39.87511765655895" lon="9.067840330819648"><ele>681.0</ele><time>2026-04-27T08:12:48.919Z</time></trkpt><trkpt lat="39.87513285207936" lon="9.06762720007725"><ele>682.75</ele><time>2026-04-27T08:12:49.919Z</time></trkpt><trkpt lat="39.87517550028586" lon="9.067425219282358"><ele>684.5</ele><time>2026-04-27T08:12:50.919Z</time></trkpt><trkpt lat="39.87524261343026" lon="9.067270160785503"><ele>686.25</ele><time>2026-04-27T08:12:51.919Z</time></trkpt><trkpt lat="39.875351339766674" lon="9.067171467028695"><ele>688.0</ele><time>2026-04-27T08:12:52.919Z</time></trkpt><trkpt lat="39.87548446846451" lon="9.067117031446342"><ele>688.0</ele><time>2026-04-27T08:12:53.918Z</time></trkpt><trkpt lat="39.87558931252366" lon="9.067021191728212"><ele>688.0</ele><time>2026-04-27T08:12:54.918Z</time></trkpt><trkpt lat="39.8756503903719" lon="9.066889810713771"><ele>688.0</ele><time>2026-04-27T08:12:55.918Z</time></trkpt><trkpt lat="39.87563738248417" lon="9.066747947104785"><ele>688.0</ele><time>2026-04-27T08:12:56.918Z</time></trkpt><trkpt lat="39.87555228225561" lon="9.066652701239219"><ele>688.0</ele><time>2026-04-27T08:12:57.918Z</time></trkpt><trkpt lat="39.87543585561182" lon="9.066620741824467"><ele>688.0</ele><time>2026-04-27T08:12:58.918Z</time></trkpt><trkpt lat="39.875318143138756" lon="9.06661914314753"><ele>688.0</ele><time>2026-04-27T08:12:59.92Z</time></trkpt><trkpt lat="39.87524323945853" lon="9.066559144683115"><ele>688.0</ele><time>2026-04-27T08:13:00.92Z</time></trkpt><trkpt lat="39.87520162674275" lon="9.066475181666544"><ele>688.0</ele><time>2026-04-27T08:13:01.92Z</time></trkpt><trkpt lat="39.875174437580135" lon="9.066383898293207"><ele>686.75</ele><time>2026-04-27T08:13:02.92Z</time></trkpt><trkpt lat="39.87515930076655" lon="9.066247391730846"><ele>685.5</ele><time>2026-04-27T08:13:03.92Z</time></trkpt><trkpt lat="39.87515775390309" lon="9.066082159412487"><ele>684.25</ele><time>2026-04-27T08:13:04.919Z</time></trkpt><trkpt lat="39.875163539092306" lon="9.065895062918294"><ele>683.0</ele><time>2026-04-27T08:13:05.92Z</time></trkpt><trkpt lat="39.875149849446196" lon="9.065692136224401"><ele>682.6666666666666</ele><time>2026-04-27T08:13:06.92Z</time></trkpt><trkpt lat="39.87513224979887" lon="9.06547407657547"><ele>682.3333333333334</ele><time>2026-04-27T08:13:07.92Z</time></trkpt><trkpt lat="39.87513246059425" lon="9.065240183236462"><ele>682.0</ele><time>2026-04-27T08:13:08.919Z</time></trkpt><trkpt lat="39.8751455293181" lon="9.064988313335073"><ele>684.6666666666667</ele><time>2026-04-27T08:13:09.919Z</time></trkpt><trkpt lat="39.87520172760874" lon="9.064718707957185"><ele>687.3333333333334</ele><time>2026-04-27T08:13:10.919Z</time></trkpt><trkpt lat="39.87527930443273" lon="9.064470689326418"><ele>690.0</ele><time>2026-04-27T08:13:11.92Z</time></trkpt><trkpt lat="39.87538599484938" lon="9.064223327245829"><ele>693.0</ele><time>2026-04-27T08:13:12.919Z</time></trkpt><trkpt lat="39.87550494310624" lon="9.063979017585083"><ele>696.0</ele><time>2026-04-27T08:13:13.919Z</time></trkpt><trkpt lat="39.87562248563566" lon="9.063730621413663"><ele>699.0</ele><time>2026-04-27T08:13:14.919Z</time></trkpt><trkpt lat="39.875731117782806" lon="9.063468103153877"><ele>694.5</ele><time>2026-04-27T08:13:15.919Z</time></trkpt><trkpt lat="39.87585252091072" lon="9.06321089575104"><ele>690.0</ele><time>2026-04-27T08:13:16.919Z</time></trkpt><trkpt lat="39.87597602096889" lon="9.062950705602258"><ele>690.0</ele><time>2026-04-27T08:13:17.919Z</time></trkpt><trkpt lat="39.876121800417096" lon="9.062707477717506"><ele>690.0</ele><time>2026-04-27T08:13:18.919Z</time></trkpt><trkpt lat="39.876267438712354" lon="9.062461996333376"><ele>694.0</ele><time>2026-04-27T08:13:19.919Z</time></trkpt><trkpt lat="39.87641288311525" lon="9.062222987332136"><ele>698.0</ele><time>2026-04-27T08:13:20.919Z</time></trkpt><trkpt lat="39.876560376080064" lon="9.062016617262646"><ele>698.0</ele><time>2026-04-27T08:13:21.919Z</time></trkpt><trkpt lat="39.87670714256401" lon="9.061846009504242"><ele>698.0</ele><time>2026-04-27T08:13:22.919Z</time></trkpt><trkpt lat="39.876823028064" lon="9.06167253093427"><ele>698.0</ele><time>2026-04-27T08:13:23.919Z</time></trkpt><trkpt lat="39.876889131128564" lon="9.061467073723938"><ele>693.3333333333333</ele><time>2026-04-27T08:13:24.919Z</time></trkpt><trkpt lat="39.876897934370646" lon="9.061231529227017"><ele>688.6666666666666</ele><time>2026-04-27T08:13:25.919Z</time></trkpt><trkpt lat="39.876878638500585" lon="9.060943456201477"><ele>684.0</ele><time>2026-04-27T08:13:26.919Z</time></trkpt><trkpt lat="39.876919891757886" lon="9.060656106564487"><ele>684.0</ele><time>2026-04-27T08:13:27.919Z</time></trkpt><trkpt lat="39.8769935343309" lon="9.060387287445584"><ele>684.0</ele><time>2026-04-27T08:13:28.919Z</time></trkpt><trkpt lat="39.877063703108924" lon="9.06016469449954"><ele>684.0</ele><time>2026-04-27T08:13:29.919Z</time></trkpt><trkpt lat="39.87707694014685" lon="9.059937646579426"><ele>683.3333333333334</ele><time>2026-04-27T08:13:30.919Z</time></trkpt><trkpt lat="39.876996411576506" lon="9.059703807663263"><ele>682.6666666666667</ele><time>2026-04-27T08:13:31.919Z</time></trkpt><trkpt lat="39.8768490480319" lon="9.05950412898127"><ele>682.0</ele><time>2026-04-27T08:13:32.919Z</time></trkpt><trkpt lat="39.876677650665734" lon="9.059302000688689"><ele>680.0</ele><time>2026-04-27T08:13:33.919Z</time></trkpt><trkpt lat="39.87646640382501" lon="9.059130667937326"><ele>678.0</ele><time>2026-04-27T08:13:34.919Z</time></trkpt><trkpt lat="39.876274829881126" lon="9.058914795058593"><ele>678.0</ele><time>2026-04-27T08:13:35.919Z</time></trkpt><trkpt lat="39.87610117494753" lon="9.058716034382059"><ele>678.0</ele><time>2026-04-27T08:13:36.919Z</time></trkpt><trkpt lat="39.875921044478766" lon="9.05855999406764"><ele>678.0</ele><time>2026-04-27T08:13:37.919Z</time></trkpt><trkpt lat="39.875725417075316" lon="9.058469887279795"><ele>679.0</ele><time>2026-04-27T08:13:38.918Z</time></trkpt><trkpt lat="39.8755066229554" lon="9.058412382114506"><ele>680.0</ele><time>2026-04-27T08:13:39.918Z</time></trkpt><trkpt lat="39.87530654253918" lon="9.05833024594035"><ele>681.0</ele><time>2026-04-27T08:13:40.918Z</time></trkpt><trkpt lat="39.87512295818233" lon="9.058263035166036"><ele>683.6666666666666</ele><time>2026-04-27T08:13:41.918Z</time></trkpt><trkpt lat="39.87494183597115" lon="9.058220860758503"><ele>686.3333333333333</ele><time>2026-04-27T08:13:42.918Z</time></trkpt><trkpt lat="39.87475070528177" lon="9.058241948432826"><ele>689.0</ele><time>2026-04-27T08:13:43.918Z</time></trkpt><trkpt lat="39.87454390737906" lon="9.058340751867636"><ele>688.3333333333333</ele><time>2026-04-27T08:13:44.918Z</time></trkpt><trkpt lat="39.874351436801874" lon="9.058489813986228"><ele>687.6666666666666</ele><time>2026-04-27T08:13:45.918Z</time></trkpt><trkpt lat="39.87414802593332" lon="9.058614961479432"><ele>687.0</ele><time>2026-04-27T08:13:46.918Z</time></trkpt><trkpt lat="39.873936722515275" lon="9.058758097026594"><ele>687.0</ele><time>2026-04-27T08:13:47.918Z</time></trkpt><trkpt lat="39.87373026169104" lon="9.058900940682031"><ele>687.0</ele><time>2026-04-27T08:13:48.918Z</time></trkpt><trkpt lat="39.873545106935296" lon="9.05902164456797"><ele>687.0</ele><time>2026-04-27T08:13:49.918Z</time></trkpt><trkpt lat="39.873367771963316" lon="9.05912452449492"><ele>686.0</ele><time>2026-04-27T08:13:50.918Z</time></trkpt><trkpt lat="39.87321318284578" lon="9.059220418813425"><ele>685.0</ele><time>2026-04-27T08:13:51.918Z</time></trkpt><trkpt lat="39.87306425466116" lon="9.059300798863598"><ele>684.0</ele><time>2026-04-27T08:13:52.918Z</time></trkpt><trkpt lat="39.872902903707654" lon="9.05934833492766"><ele>684.0</ele><time>2026-04-27T08:13:53.918Z</time></trkpt><trkpt lat="39.87274061497735" lon="9.05934186591637"><ele>684.0</ele><time>2026-04-27T08:13:54.918Z</time></trkpt><trkpt lat="39.872583998913136" lon="9.059311821876616"><ele>684.0</ele><time>2026-04-27T08:13:55.918Z</time></trkpt><trkpt lat="39.87242663415382" lon="9.05927006842188"><ele>682.25</ele><time>2026-04-27T08:13:56.918Z</time></trkpt><trkpt lat="39.87227916445537" lon="9.059229538623363"><ele>680.5</ele><time>2026-04-27T08:13:57.918Z</time></trkpt><trkpt lat="39.87215713140923" lon="9.05917991557048"><ele>678.75</ele><time>2026-04-27T08:13:58.918Z</time></trkpt><trkpt lat="39.87204909856888" lon="9.059081830091335"><ele>677.0</ele><time>2026-04-27T08:13:59.918Z</time></trkpt><trkpt lat="39.87197064088859" lon="9.058940620843716"><ele>674.4000000000001</ele><time>2026-04-27T08:14:00.918Z</time></trkpt><trkpt lat="39.87191688466449" lon="9.058800974103468"><ele>671.8000000000001</ele><time>2026-04-27T08:14:01.918Z</time></trkpt><trkpt lat="39.871882754025656" lon="9.058659413674413"><ele>669.2</ele><time>2026-04-27T08:14:02.918Z</time></trkpt><trkpt lat="39.87185420859789" lon="9.058540045242278"><ele>666.6</ele><time>2026-04-27T08:14:03.918Z</time></trkpt><trkpt lat="39.87187349123096" lon="9.0584243658904"><ele>664.0</ele><time>2026-04-27T08:14:04.918Z</time></trkpt><trkpt lat="39.87188416040475" lon="9.058315418694878"><ele>664.25</ele><time>2026-04-27T08:14:05.918Z</time></trkpt><trkpt lat="39.87186694487379" lon="9.058190341563233"><ele>664.5</ele><time>2026-04-27T08:14:06.918Z</time></trkpt><trkpt lat="39.87182792357508" lon="9.058046849730705"><ele>664.75</ele><time>2026-04-27T08:14:07.918Z</time></trkpt><trkpt lat="39.87178408756033" lon="9.05787595286983"><ele>665.0</ele><time>2026-04-27T08:14:08.918Z</time></trkpt><trkpt lat="39.87173244421977" lon="9.057707668762248"><ele>665.0</ele><time>2026-04-27T08:14:09.917Z</time></trkpt><trkpt lat="39.87166650413535" lon="9.057535685456733"><ele>665.0</ele><time>2026-04-27T08:14:10.917Z</time></trkpt><trkpt lat="39.87157772228817" lon="9.057374446102504"><ele>665.0</ele><time>2026-04-27T08:14:11.917Z</time></trkpt><trkpt lat="39.87146527889201" lon="9.057216360889313"><ele>660.6666666666666</ele><time>2026-04-27T08:14:12.917Z</time></trkpt><trkpt lat="39.87134448341673" lon="9.057051183857848"><ele>656.3333333333334</ele><time>2026-04-27T08:14:13.917Z</time></trkpt><trkpt lat="39.8712079318391" lon="9.056878715508082"><ele>652.0</ele><time>2026-04-27T08:14:14.917Z</time></trkpt><trkpt lat="39.87106017657588" lon="9.056713095352523"><ele>647.6666666666667</ele><time>2026-04-27T08:14:15.917Z</time></trkpt><trkpt lat="39.87089196132065" lon="9.05656810840606"><ele>643.3333333333334</ele><time>2026-04-27T08:14:16.917Z</time></trkpt><trkpt lat="39.87069030536018" lon="9.056450839273257"><ele>639.0</ele><time>2026-04-27T08:14:17.917Z</time></trkpt><trkpt lat="39.870485684912744" lon="9.056363310467397"><ele>639.0</ele><time>2026-04-27T08:14:18.917Z</time></trkpt><trkpt lat="39.87027696919533" lon="9.056277199744212"><ele>639.0</ele><time>2026-04-27T08:14:19.917Z</time></trkpt><trkpt lat="39.87010326217466" lon="9.056173962361152"><ele>639.0</ele><time>2026-04-27T08:14:20.917Z</time></trkpt><trkpt lat="39.869960847011015" lon="9.056086530638442"><ele>640.0</ele><time>2026-04-27T08:14:21.917Z</time></trkpt><trkpt lat="39.86981423291251" lon="9.056018691583912"><ele>641.0</ele><time>2026-04-27T08:14:22.917Z</time></trkpt><trkpt lat="39.869660826139615" lon="9.056021430640948"><ele>642.0</ele><time>2026-04-27T08:14:23.917Z</time></trkpt><trkpt lat="39.86950540128296" lon="9.056131098136177"><ele>642.0</ele><time>2026-04-27T08:14:24.917Z</time></trkpt><trkpt lat="39.86937481799062" lon="9.056264021289673"><ele>642.0</ele><time>2026-04-27T08:14:25.917Z</time></trkpt><trkpt lat="39.86925401415954" lon="9.056385311664341"><ele>642.0</ele><time>2026-04-27T08:14:26.917Z</time></trkpt><trkpt lat="39.869139065236965" lon="9.056472371547557"><ele>639.75</ele><time>2026-04-27T08:14:27.917Z</time></trkpt><trkpt lat="39.86902445117669" lon="9.05656899179462"><ele>637.5</ele><time>2026-04-27T08:14:28.917Z</time></trkpt><trkpt lat="39.86890413806367" lon="9.056658465430898"><ele>635.25</ele><time>2026-04-27T08:14:29.917Z</time></trkpt><trkpt lat="39.86878204627822" lon="9.056717565370727"><ele>633.0</ele><time>2026-04-27T08:14:30.917Z</time></trkpt><trkpt lat="39.8686528650374" lon="9.05672164021488"><ele>635.25</ele><time>2026-04-27T08:14:31.917Z</time></trkpt><trkpt lat="39.86852262056169" lon="9.056665622108062"><ele>637.5</ele><time>2026-04-27T08:14:32.917Z</time></trkpt><trkpt lat="39.868425916673566" lon="9.056561383027304"><ele>639.75</ele><time>2026-04-27T08:14:33.917Z</time></trkpt><trkpt lat="39.86835228694865" lon="9.056423128912028"><ele>642.0</ele><time>2026-04-27T08:14:34.917Z</time></trkpt><trkpt lat="39.86829840056894" lon="9.056247760779653"><ele>642.0</ele><time>2026-04-27T08:14:35.917Z</time></trkpt><trkpt lat="39.86825545531109" lon="9.05603726803355"><ele>642.0</ele><time>2026-04-27T08:14:36.917Z</time></trkpt><trkpt lat="39.86821127482799" lon="9.055802456002452"><ele>642.0</ele><time>2026-04-27T08:14:37.917Z</time></trkpt><trkpt lat="39.86819617863322" lon="9.055506389604698"><ele>634.5</ele><time>2026-04-27T08:14:38.917Z</time></trkpt><trkpt lat="39.8681540567702" lon="9.055173121466437"><ele>627.0</ele><time>2026-04-27T08:14:39.917Z</time></trkpt><trkpt lat="39.86808766868916" lon="9.054851826622869"><ele>618.0</ele><time>2026-04-27T08:14:40.916Z</time></trkpt><trkpt lat="39.867991445943694" lon="9.054575105160314"><ele>609.0</ele><time>2026-04-27T08:14:41.916Z</time></trkpt><trkpt lat="39.86788399561554" lon="9.054305994225157"><ele>615.0</ele><time>2026-04-27T08:14:42.916Z</time></trkpt><trkpt lat="39.8677555939534" lon="9.054051526819894"><ele>621.0</ele><time>2026-04-27T08:14:43.916Z</time></trkpt><trkpt lat="39.867607110005686" lon="9.053827876371784"><ele>621.0</ele><time>2026-04-27T08:14:44.916Z</time></trkpt><trkpt lat="39.86747733047223" lon="9.053596021687383"><ele>621.0</ele><time>2026-04-27T08:14:45.916Z</time></trkpt><trkpt lat="39.86736329693867" lon="9.05336929043933"><ele>621.0</ele><time>2026-04-27T08:14:46.916Z</time></trkpt><trkpt lat="39.86722770765257" lon="9.053163329405503"><ele>612.0</ele><time>2026-04-27T08:14:47.916Z</time></trkpt><trkpt lat="39.86706014795769" lon="9.052976650244329"><ele>603.0</ele><time>2026-04-27T08:14:48.916Z</time></trkpt><trkpt lat="39.86684916566706" lon="9.052841243565814"><ele>607.0</ele><time>2026-04-27T08:14:49.916Z</time></trkpt><trkpt lat="39.86663102861463" lon="9.052732784264242"><ele>611.0</ele><time>2026-04-27T08:14:50.916Z</time></trkpt><trkpt lat="39.866469095868" lon="9.052620782542094"><ele>615.0</ele><time>2026-04-27T08:14:51.916Z</time></trkpt><trkpt lat="39.86630346776191" lon="9.052540450406381"><ele>615.0</ele><time>2026-04-27T08:14:52.916Z</time></trkpt><trkpt lat="39.86611728332886" lon="9.052545618854506"><ele>615.0</ele><time>2026-04-27T08:14:53.916Z</time></trkpt><trkpt lat="39.86591079787095" lon="9.052609422262343"><ele>615.0</ele><time>2026-04-27T08:14:54.916Z</time></trkpt><trkpt lat="39.86569400901408" lon="9.052681966640804"><ele>613.0</ele><time>2026-04-27T08:14:55.916Z</time></trkpt><trkpt lat="39.86546733911724" lon="9.052732325909641"><ele>611.0</ele><time>2026-04-27T08:14:56.916Z</time></trkpt><trkpt lat="39.86523197529459" lon="9.052754940641348"><ele>608.6666666666666</ele><time>2026-04-27T08:14:57.916Z</time></trkpt><trkpt lat="39.86499927886652" lon="9.052754353979743"><ele>606.3333333333334</ele><time>2026-04-27T08:14:58.916Z</time></trkpt><trkpt lat="39.86478360009768" lon="9.052728502301786"><ele>604.0</ele><time>2026-04-27T08:14:59.916Z</time></trkpt><trkpt lat="39.864583113907734" lon="9.052713747848903"><ele>604.0</ele><time>2026-04-27T08:15:00.916Z</time></trkpt><trkpt lat="39.86438979194474" lon="9.052712622854346"><ele>604.0</ele><time>2026-04-27T08:15:01.916Z</time></trkpt><trkpt lat="39.86420574215223" lon="9.052774210175826"><ele>604.0</ele><time>2026-04-27T08:15:02.916Z</time></trkpt><trkpt lat="39.864033944932395" lon="9.052902068398573"><ele>604.0</ele><time>2026-04-27T08:15:03.916Z</time></trkpt><trkpt lat="39.86386941798726" lon="9.053060365190111"><ele>604.0</ele><time>2026-04-27T08:15:04.916Z</time></trkpt><trkpt lat="39.86369306141445" lon="9.053187435074713"><ele>604.0</ele><time>2026-04-27T08:15:05.917Z</time></trkpt><trkpt lat="39.86348005549269" lon="9.053239654426413"><ele>603.6666666666667</ele><time>2026-04-27T08:15:06.918Z</time></trkpt><trkpt lat="39.863290351120774" lon="9.053277675582535"><ele>603.3333333333334</ele><time>2026-04-27T08:15:07.918Z</time></trkpt><trkpt lat="39.86311377339385" lon="9.053350669287012"><ele>603.0</ele><time>2026-04-27T08:15:08.918Z</time></trkpt><trkpt lat="39.86294448808719" lon="9.053430585238168"><ele>603.0</ele><time>2026-04-27T08:15:09.918Z</time></trkpt><trkpt lat="39.86275678341508" lon="9.053466151522327"><ele>603.0</ele><time>2026-04-27T08:15:10.918Z</time></trkpt><trkpt lat="39.86255667235801" lon="9.053434903482144"><ele>603.0</ele><time>2026-04-27T08:15:11.917Z</time></trkpt><trkpt lat="39.86235385731659" lon="9.05336745615724"><ele>596.6666666666666</ele><time>2026-04-27T08:15:12.917Z</time></trkpt><trkpt lat="39.86217764148377" lon="9.053273267428946"><ele>590.3333333333333</ele><time>2026-04-27T08:15:13.917Z</time></trkpt><trkpt lat="39.86202234273224" lon="9.053185964268925"><ele>584.0</ele><time>2026-04-27T08:15:14.917Z</time></trkpt><trkpt lat="39.86191139722991" lon="9.053075449411095"><ele>584.0</ele><time>2026-04-27T08:15:15.917Z</time></trkpt><trkpt lat="39.86184082019229" lon="9.052914797973907"><ele>584.0</ele><time>2026-04-27T08:15:16.917Z</time></trkpt><trkpt lat="39.86183174592373" lon="9.052700327564411"><ele>584.0</ele><time>2026-04-27T08:15:17.917Z</time></trkpt><trkpt lat="39.861847233569726" lon="9.052446068205873"><ele>580.6666666666666</ele><time>2026-04-27T08:15:18.917Z</time></trkpt><trkpt lat="39.86179696615408" lon="9.052251157303033"><ele>577.3333333333334</ele><time>2026-04-27T08:15:19.917Z</time></trkpt><trkpt lat="39.86165723649271" lon="9.052121599992612"><ele>574.0</ele><time>2026-04-27T08:15:20.917Z</time></trkpt><trkpt lat="39.861509724450414" lon="9.052053897000233"><ele>574.0</ele><time>2026-04-27T08:15:21.917Z</time></trkpt><trkpt lat="39.86132392991409" lon="9.052060141746342"><ele>574.0</ele><time>2026-04-27T08:15:22.917Z</time></trkpt><trkpt lat="39.86112904548117" lon="9.052091783937394"><ele>574.0</ele><time>2026-04-27T08:15:23.917Z</time></trkpt><trkpt lat="39.860923379815205" lon="9.052124854421631"><ele>573.0</ele><time>2026-04-27T08:15:24.917Z</time></trkpt><trkpt lat="39.86071939229185" lon="9.052174953628807"><ele>572.0</ele><time>2026-04-27T08:15:25.917Z</time></trkpt><trkpt lat="39.860504527966846" lon="9.052217094632946"><ele>571.0</ele><time>2026-04-27T08:15:26.917Z</time></trkpt><trkpt lat="39.860312232830964" lon="9.052265311103918"><ele>571.0</ele><time>2026-04-27T08:15:27.917Z</time></trkpt><trkpt lat="39.86014007383663" lon="9.052321124793748"><ele>571.0</ele><time>2026-04-27T08:15:28.917Z</time></trkpt><trkpt lat="39.859985921809965" lon="9.05234488245674"><ele>571.0</ele><time>2026-04-27T08:15:29.917Z</time></trkpt><trkpt lat="39.85985582977627" lon="9.052288611154138"><ele>570.6666666666667</ele><time>2026-04-27T08:15:30.917Z</time></trkpt><trkpt lat="39.859767364534285" lon="9.052132917662593"><ele>570.3333333333334</ele><time>2026-04-27T08:15:31.917Z</time></trkpt><trkpt lat="39.859739018669586" lon="9.051921373888346"><ele>570.0</ele><time>2026-04-27T08:15:32.917Z</time></trkpt><trkpt lat="39.85974085642459" lon="9.051663055589158"><ele>566.3333333333334</ele><time>2026-04-27T08:15:33.917Z</time></trkpt><trkpt lat="39.85972679254995" lon="9.051393746616542"><ele>562.6666666666667</ele><time>2026-04-27T08:15:34.917Z</time></trkpt><trkpt lat="39.85971821820413" lon="9.051138063101401"><ele>559.0</ele><time>2026-04-27T08:15:35.917Z</time></trkpt><trkpt lat="39.859709407701004" lon="9.050901117164475"><ele>555.6666666666667</ele><time>2026-04-27T08:15:36.917Z</time></trkpt><trkpt lat="39.85967787708126" lon="9.050700985599828"><ele>552.3333333333334</ele><time>2026-04-27T08:15:37.917Z</time></trkpt><trkpt lat="39.85958851646482" lon="9.050531936083381"><ele>549.0</ele><time>2026-04-27T08:15:38.917Z</time></trkpt><trkpt lat="39.85944800039323" lon="9.050388678614869"><ele>549.0</ele><time>2026-04-27T08:15:39.917Z</time></trkpt><trkpt lat="39.85930626005082" lon="9.05025835721624"><ele>549.0</ele><time>2026-04-27T08:15:40.917Z</time></trkpt><trkpt lat="39.859208697264606" lon="9.050091692549271"><ele>549.0</ele><time>2026-04-27T08:15:41.917Z</time></trkpt><trkpt lat="39.85912140545352" lon="9.049936867403146"><ele>550.5</ele><time>2026-04-27T08:15:42.917Z</time></trkpt><trkpt lat="39.85901996128472" lon="9.049812315294735"><ele>552.0</ele><time>2026-04-27T08:15:43.917Z</time></trkpt><trkpt lat="39.8588879783945" lon="9.049771134184553"><ele>553.5</ele><time>2026-04-27T08:15:44.916Z</time></trkpt><trkpt lat="39.85875813891715" lon="9.049803022622458"><ele>555.0</ele><time>2026-04-27T08:15:45.916Z</time></trkpt><trkpt lat="39.858644785963655" lon="9.049892177342562"><ele>554.25</ele><time>2026-04-27T08:15:46.916Z</time></trkpt><trkpt lat="39.85854095575161" lon="9.050016559143183"><ele>553.5</ele><time>2026-04-27T08:15:47.916Z</time></trkpt><trkpt lat="39.858448501566365" lon="9.05016796683757"><ele>552.75</ele><time>2026-04-27T08:15:48.916Z</time></trkpt><trkpt lat="39.858356082571" lon="9.050313336242228"><ele>552.0</ele><time>2026-04-27T08:15:49.916Z</time></trkpt><trkpt lat="39.85827050044135" lon="9.050442696204996"><ele>552.0</ele><time>2026-04-27T08:15:50.916Z</time></trkpt><trkpt lat="39.858186670242354" lon="9.050547802301914"><ele>552.0</ele><time>2026-04-27T08:15:51.916Z</time></trkpt><trkpt lat="39.85811615159548" lon="9.050663656489743"><ele>552.0</ele><time>2026-04-27T08:15:52.916Z</time></trkpt><trkpt lat="39.858059926723044" lon="9.050789822252032"><ele>552.0</ele><time>2026-04-27T08:15:53.916Z</time></trkpt><trkpt lat="39.85802196148346" lon="9.050934000786459"><ele>554.75</ele><time>2026-04-27T08:15:54.916Z</time></trkpt><trkpt lat="39.8580012217625" lon="9.051074591918889"><ele>557.5</ele><time>2026-04-27T08:15:55.916Z</time></trkpt><trkpt lat="39.85797854793497" lon="9.051217279298607"><ele>560.25</ele><time>2026-04-27T08:15:56.916Z</time></trkpt><trkpt lat="39.85796880892143" lon="9.051376903646634"><ele>563.0</ele><time>2026-04-27T08:15:57.916Z</time></trkpt><trkpt lat="39.85799198566219" lon="9.051526163888086"><ele>563.5</ele><time>2026-04-27T08:15:58.916Z</time></trkpt><trkpt lat="39.85803492545118" lon="9.051664126636755"><ele>564.0</ele><time>2026-04-27T08:15:59.916Z</time></trkpt><trkpt lat="39.85808393267742" lon="9.051800506082557"><ele>564.5</ele><time>2026-04-27T08:16:00.916Z</time></trkpt><trkpt lat="39.85812583879476" lon="9.051950786015622"><ele>565.0</ele><time>2026-04-27T08:16:01.916Z</time></trkpt><trkpt lat="39.85816043262515" lon="9.052102417764564"><ele>565.0</ele><time>2026-04-27T08:16:02.916Z</time></trkpt><trkpt lat="39.85819246274312" lon="9.05225026556979"><ele>565.0</ele><time>2026-04-27T08:16:03.916Z</time></trkpt><trkpt lat="39.85820144866902" lon="9.05238734535578"><ele>565.0</ele><time>2026-04-27T08:16:04.916Z</time></trkpt><trkpt lat="39.85819131624556" lon="9.052515554166522"><ele>565.0</ele><time>2026-04-27T08:16:05.916Z</time></trkpt><trkpt lat="39.85813677518709" lon="9.052610100305515"><ele>565.0</ele><time>2026-04-27T08:16:06.916Z</time></trkpt><trkpt lat="39.85805741850602" lon="9.052655839567946"><ele>563.8</ele><time>2026-04-27T08:16:07.916Z</time></trkpt><trkpt lat="39.85796184300831" lon="9.052636918964781"><ele>562.6</ele><time>2026-04-27T08:16:08.916Z</time></trkpt><trkpt lat="39.857860304975624" lon="9.05258218203608"><ele>561.4</ele><time>2026-04-27T08:16:09.916Z</time></trkpt><trkpt lat="39.8577538690299" lon="9.052551691591011"><ele>560.2</ele><time>2026-04-27T08:16:10.916Z</time></trkpt><trkpt lat="39.857649932770414" lon="9.052524858640155"><ele>559.0</ele><time>2026-04-27T08:16:11.916Z</time></trkpt><trkpt lat="39.857540115929474" lon="9.052518825790175"><ele>557.4</ele><time>2026-04-27T08:16:12.916Z</time></trkpt><trkpt lat="39.85744577518381" lon="9.052472963461165"><ele>555.8</ele><time>2026-04-27T08:16:13.916Z</time></trkpt><trkpt lat="39.857343718392215" lon="9.052445225240708"><ele>554.2</ele><time>2026-04-27T08:16:14.916Z</time></trkpt><trkpt lat="39.85723491336388" lon="9.052426790435709"><ele>552.6</ele><time>2026-04-27T08:16:15.915Z</time></trkpt><trkpt lat="39.85713205895953" lon="9.052402224939467"><ele>551.0</ele><time>2026-04-27T08:16:16.915Z</time></trkpt><trkpt lat="39.857028958496436" lon="9.052376017455353"><ele>549.2</ele><time>2026-04-27T08:16:17.915Z</time></trkpt><trkpt lat="39.85692540827313" lon="9.052350713505225"><ele>547.4000000000001</ele><time>2026-04-27T08:16:18.915Z</time></trkpt><trkpt lat="39.85682522551783" lon="9.052328415692694"><ele>545.6</ele><time>2026-04-27T08:16:19.915Z</time></trkpt><trkpt lat="39.856731018212976" lon="9.052323280369029"><ele>543.8000000000001</ele><time>2026-04-27T08:16:20.915Z</time></trkpt><trkpt lat="39.85664985192177" lon="9.052314335600979"><ele>542.0</ele><time>2026-04-27T08:16:21.915Z</time></trkpt><trkpt lat="39.85657643274068" lon="9.052291860087141"><ele>540.4</ele><time>2026-04-27T08:16:22.915Z</time></trkpt><trkpt lat="39.85650838628932" lon="9.05226048677597"><ele>538.8000000000001</ele><time>2026-04-27T08:16:23.915Z</time></trkpt><trkpt lat="39.856407117140655" lon="9.052185686873816"><ele>537.2</ele><time>2026-04-27T08:16:25.915Z</time></trkpt><trkpt lat="39.856302956833865" lon="9.0521111519468"><ele>535.6</ele><time>2026-04-27T08:16:27.915Z</time></trkpt><trkpt lat="39.85622265473113" lon="9.05207019213879"><ele>534.0</ele><time>2026-04-27T08:16:28.915Z</time></trkpt><trkpt lat="39.856133981724454" lon="9.05202796092772"><ele>534.0</ele><time>2026-04-27T08:16:29.915Z</time></trkpt><trkpt lat="39.85604068093714" lon="9.051982583157688"><ele>534.0</ele><time>2026-04-27T08:16:30.915Z</time></trkpt><trkpt lat="39.855958093562975" lon="9.05194056251069"><ele>534.0</ele><time>2026-04-27T08:16:31.915Z</time></trkpt><trkpt lat="39.8558632030974" lon="9.05189459778331"><ele>534.0</ele><time>2026-04-27T08:16:32.915Z</time></trkpt><trkpt lat="39.85575953155258" lon="9.05184137347406"><ele>534.0</ele><time>2026-04-27T08:16:33.915Z</time></trkpt><trkpt lat="39.85567098802674" lon="9.05175321979256"><ele>534.4</ele><time>2026-04-27T08:16:34.915Z</time></trkpt><trkpt lat="39.85559302492375" lon="9.051654895017082"><ele>534.8</ele><time>2026-04-27T08:16:35.915Z</time></trkpt><trkpt lat="39.85552206264214" lon="9.051563533598484"><ele>535.2</ele><time>2026-04-27T08:16:36.915Z</time></trkpt><trkpt lat="39.85545355258487" lon="9.051482705440513"><ele>535.6</ele><time>2026-04-27T08:16:37.915Z</time></trkpt><trkpt lat="39.855383759654046" lon="9.051410343847863"><ele>536.0</ele><time>2026-04-27T08:16:38.915Z</time></trkpt><trkpt lat="39.85530919042562" lon="9.05135353202473"><ele>535.5</ele><time>2026-04-27T08:16:39.915Z</time></trkpt><trkpt lat="39.855231173980805" lon="9.051310520881437"><ele>535.0</ele><time>2026-04-27T08:16:40.915Z</time></trkpt><trkpt lat="39.855154118048205" lon="9.051279809795899"><ele>534.5</ele><time>2026-04-27T08:16:41.915Z</time></trkpt><trkpt lat="39.85507652096105" lon="9.051251317665768"><ele>534.0</ele><time>2026-04-27T08:16:42.915Z</time></trkpt><trkpt lat="39.85500602682804" lon="9.051262304250189"><ele>533.5</ele><time>2026-04-27T08:16:43.915Z</time></trkpt><trkpt lat="39.85492340990859" lon="9.051275187564197"><ele>533.0</ele><time>2026-04-27T08:16:44.915Z</time></trkpt><trkpt lat="39.85484555008283" lon="9.051311397350553"><ele>533.0</ele><time>2026-04-27T08:16:45.915Z</time></trkpt><trkpt lat="39.85476795001238" lon="9.05136519246328"><ele>533.0</ele><time>2026-04-27T08:16:46.914Z</time></trkpt><trkpt lat="39.85469798444543" lon="9.051425935796305"><ele>533.0</ele><time>2026-04-27T08:16:47.914Z</time></trkpt><trkpt lat="39.854630454254576" lon="9.051499869860068"><ele>533.0</ele><time>2026-04-27T08:16:48.914Z</time></trkpt><trkpt lat="39.85456882945183" lon="9.051573824222796"><ele>533.0</ele><time>2026-04-27T08:16:49.914Z</time></trkpt><trkpt lat="39.85451362506933" lon="9.05164839324788"><ele>533.0</ele><time>2026-04-27T08:16:50.914Z</time></trkpt><trkpt lat="39.8544705784708" lon="9.051737075359327"><ele>532.5</ele><time>2026-04-27T08:16:51.914Z</time></trkpt><trkpt lat="39.85442578537986" lon="9.051814533470619"><ele>532.0</ele><time>2026-04-27T08:16:52.914Z</time></trkpt><trkpt lat="39.85438150897229" lon="9.051893999941898"><ele>531.5</ele><time>2026-04-27T08:16:53.914Z</time></trkpt><trkpt lat="39.854335896284695" lon="9.051982825010167"><ele>531.0</ele><time>2026-04-27T08:16:54.914Z</time></trkpt><trkpt lat="39.85428930927696" lon="9.052070691505946"><ele>530.5</ele><time>2026-04-27T08:16:55.914Z</time></trkpt><trkpt lat="39.854242570608996" lon="9.052149940697687"><ele>530.0</ele><time>2026-04-27T08:16:56.914Z</time></trkpt><trkpt lat="39.85420383465992" lon="9.05221603128682"><ele>530.0</ele><time>2026-04-27T08:16:57.914Z</time></trkpt><trkpt lat="39.854156610744866" lon="9.052278000997475"><ele>530.0</ele><time>2026-04-27T08:16:59.914Z</time></trkpt><trkpt lat="39.85411743061752" lon="9.052346347833526"><ele>530.0</ele><time>2026-04-27T08:17:13.915Z</time></trkpt></trkseg><trkseg><trkpt lat="39.854103001608046" lon="9.052515067377577"><ele>532.0</ele><time>2026-04-27T08:36:32.853Z</time></trkpt><trkpt lat="39.85403583466253" lon="9.052587405585466"><ele>532.0</ele><time>2026-04-27T08:36:35.853Z</time></trkpt><trkpt lat="39.85397639580577" lon="9.05264838030578"><ele>532.0</ele><time>2026-04-27T08:36:37.852Z</time></trkpt><trkpt lat="39.85391124210908" lon="9.052734886667213"><ele>532.0</ele><time>2026-04-27T08:36:39.852Z</time></trkpt><trkpt lat="39.85385585387348" lon="9.052816889704127"><ele>532.0</ele><time>2026-04-27T08:36:41.852Z</time></trkpt><trkpt lat="39.85380715606032" lon="9.052906228148716"><ele>532.0</ele><time>2026-04-27T08:36:43.852Z</time></trkpt><trkpt lat="39.853743713174694" lon="9.053007090663415"><ele>532.0</ele><time>2026-04-27T08:36:45.852Z</time></trkpt><trkpt lat="39.85368375466458" lon="9.053108253167366"><ele>532.0</ele><time>2026-04-27T08:36:47.852Z</time></trkpt><trkpt lat="39.85361312088749" lon="9.053212624553804"><ele>532.0</ele><time>2026-04-27T08:36:49.852Z</time></trkpt><trkpt lat="39.85354139049347" lon="9.053236899493463"><ele>532.0</ele><time>2026-04-27T08:36:50.852Z</time></trkpt><trkpt lat="39.85346672135126" lon="9.053361365127948"><ele>532.0</ele><time>2026-04-27T08:36:52.852Z</time></trkpt><trkpt lat="39.85342686351451" lon="9.053428466643927"><ele>531.1666666666667</ele><time>2026-04-27T08:36:53.852Z</time></trkpt><trkpt lat="39.85334980724977" lon="9.053558192501312"><ele>530.3333333333334</ele><time>2026-04-27T08:36:55.852Z</time></trkpt><trkpt lat="39.853307188533286" lon="9.05362994201504"><ele>529.5</ele><time>2026-04-27T08:36:56.852Z</time></trkpt><trkpt lat="39.85326608238327" lon="9.053699145092317"><ele>528.6666666666666</ele><time>2026-04-27T08:36:57.852Z</time></trkpt><trkpt lat="39.85322163436343" lon="9.053773401546536"><ele>527.8333333333333</ele><time>2026-04-27T08:36:58.852Z</time></trkpt><trkpt lat="39.85317629509605" lon="9.053848014375756"><ele>527.0</ele><time>2026-04-27T08:36:59.852Z</time></trkpt><trkpt lat="39.85312902024228" lon="9.053924942873447"><ele>527.0000000000001</ele><time>2026-04-27T08:37:00.852Z</time></trkpt><trkpt lat="39.85309341972354" lon="9.054012561450325"><ele>527.0</ele><time>2026-04-27T08:37:01.852Z</time></trkpt><trkpt lat="39.853035601288084" lon="9.054077024513354"><ele>527.0</ele><time>2026-04-27T08:37:02.851Z</time></trkpt><trkpt lat="39.85299050315581" lon="9.054155283735902"><ele>527.0</ele><time>2026-04-27T08:37:03.851Z</time></trkpt><trkpt lat="39.8529470274183" lon="9.054236190549176"><ele>527.0</ele><time>2026-04-27T08:37:04.851Z</time></trkpt><trkpt lat="39.85290763072184" lon="9.05431686262297"><ele>527.0000000000001</ele><time>2026-04-27T08:37:05.851Z</time></trkpt><trkpt lat="39.8528729249158" lon="9.054400203860618"><ele>527.0</ele><time>2026-04-27T08:37:06.851Z</time></trkpt><trkpt lat="39.85284513382111" lon="9.054481951089503"><ele>527.4</ele><time>2026-04-27T08:37:07.851Z</time></trkpt><trkpt lat="39.85281390921559" lon="9.054627879971246"><ele>527.8000000000001</ele><time>2026-04-27T08:37:09.851Z</time></trkpt><trkpt lat="39.852808573174286" lon="9.054758805665687"><ele>528.2</ele><time>2026-04-27T08:37:11.851Z</time></trkpt><trkpt lat="39.85281695625746" lon="9.054894083569355"><ele>528.6</ele><time>2026-04-27T08:37:13.851Z</time></trkpt><trkpt lat="39.85283957919162" lon="9.055022632897112"><ele>529.0</ele><time>2026-04-27T08:37:15.851Z</time></trkpt><trkpt lat="39.85286775010682" lon="9.055142283807266"><ele>529.0</ele><time>2026-04-27T08:37:17.851Z</time></trkpt><trkpt lat="39.852897062991715" lon="9.055252436428628"><ele>529.0</ele><time>2026-04-27T08:37:19.851Z</time></trkpt><trkpt lat="39.85292215263431" lon="9.05534263513233"><ele>529.0</ele><time>2026-04-27T08:37:21.851Z</time></trkpt><trkpt lat="39.85295785962832" lon="9.055420123023822"><ele>529.0</ele><time>2026-04-27T08:37:24.851Z</time></trkpt><trkpt lat="39.85297644267424" lon="9.055499485039974"><ele>529.0</ele><time>2026-04-27T08:37:28.85Z</time></trkpt><trkpt lat="39.85299914047993" lon="9.055585193565406"><ele>529.0</ele><time>2026-04-27T08:37:32.85Z</time></trkpt><trkpt lat="39.85302912097841" lon="9.055683543389534"><ele>529.0</ele><time>2026-04-27T08:38:09.85Z</time></trkpt><trkpt lat="39.853082640648935" lon="9.055818748795113"><ele>527.6666666666667</ele><time>2026-04-27T08:38:12.85Z</time></trkpt><trkpt lat="39.8530882054492" lon="9.055904090631515"><ele>526.3333333333334</ele><time>2026-04-27T08:38:13.85Z</time></trkpt><trkpt lat="39.85312131862835" lon="9.055997880668528"><ele>525.0</ele><time>2026-04-27T08:38:14.85Z</time></trkpt><trkpt lat="39.85315166224422" lon="9.056088704042102"><ele>523.6666666666666</ele><time>2026-04-27T08:38:15.85Z</time></trkpt><trkpt lat="39.853174920718715" lon="9.056192198565672"><ele>522.3333333333333</ele><time>2026-04-27T08:38:16.85Z</time></trkpt><trkpt lat="39.853205439711026" lon="9.056298076699736"><ele>521.0</ele><time>2026-04-27T08:38:17.85Z</time></trkpt><trkpt lat="39.8532238313976" lon="9.05640343136863"><ele>521.0</ele><time>2026-04-27T08:38:18.85Z</time></trkpt><trkpt lat="39.85322653932354" lon="9.05650737097707"><ele>521.0</ele><time>2026-04-27T08:38:19.85Z</time></trkpt><trkpt lat="39.85320926602025" lon="9.056621877138403"><ele>521.0</ele><time>2026-04-27T08:38:20.85Z</time></trkpt><trkpt lat="39.85316292005562" lon="9.056740311859498"><ele>521.0</ele><time>2026-04-27T08:38:21.85Z</time></trkpt><trkpt lat="39.85310146419229" lon="9.05685145570593"><ele>521.0</ele><time>2026-04-27T08:38:22.85Z</time></trkpt><trkpt lat="39.85301147776157" lon="9.056930344851581"><ele>522.0</ele><time>2026-04-27T08:38:23.85Z</time></trkpt><trkpt lat="39.85291551699948" lon="9.056994103653901"><ele>523.0</ele><time>2026-04-27T08:38:24.85Z</time></trkpt><trkpt lat="39.85281910880379" lon="9.057036933684394"><ele>524.0</ele><time>2026-04-27T08:38:25.849Z</time></trkpt><trkpt lat="39.852714896236485" lon="9.057068784141414"><ele>525.0</ele><time>2026-04-27T08:38:26.849Z</time></trkpt><trkpt lat="39.85261340455882" lon="9.057096626354316"><ele>526.0</ele><time>2026-04-27T08:38:27.849Z</time></trkpt><trkpt lat="39.85251100412494" lon="9.05710359478321"><ele>522.0</ele><time>2026-04-27T08:38:28.849Z</time></trkpt><trkpt lat="39.85241111151435" lon="9.057100842041725"><ele>518.0</ele><time>2026-04-27T08:38:29.849Z</time></trkpt><trkpt lat="39.852303725272954" lon="9.057096553465424"><ele>514.0</ele><time>2026-04-27T08:38:30.849Z</time></trkpt><trkpt lat="39.852184799066386" lon="9.057068017049737"><ele>510.0</ele><time>2026-04-27T08:38:31.849Z</time></trkpt><trkpt lat="39.85206463009881" lon="9.057029730264917"><ele>510.0</ele><time>2026-04-27T08:38:32.849Z</time></trkpt><trkpt lat="39.85193862626004" lon="9.056975962783119"><ele>510.0</ele><time>2026-04-27T08:38:33.849Z</time></trkpt><trkpt lat="39.85182163448598" lon="9.056895702317949"><ele>510.0</ele><time>2026-04-27T08:38:34.849Z</time></trkpt><trkpt lat="39.851700104291055" lon="9.056830204010959"><ele>510.0</ele><time>2026-04-27T08:38:35.849Z</time></trkpt><trkpt lat="39.851593548689095" lon="9.056714226719453"><ele>507.75</ele><time>2026-04-27T08:38:36.849Z</time></trkpt><trkpt lat="39.85149292437064" lon="9.056578163702614"><ele>505.5</ele><time>2026-04-27T08:38:37.849Z</time></trkpt><trkpt lat="39.85139449478975" lon="9.056466258187482"><ele>503.25</ele><time>2026-04-27T08:38:38.849Z</time></trkpt><trkpt lat="39.85128516181528" lon="9.056357446317536"><ele>501.0</ele><time>2026-04-27T08:38:39.849Z</time></trkpt><trkpt lat="39.85117554722094" lon="9.056280749546348"><ele>501.0</ele><time>2026-04-27T08:38:40.849Z</time></trkpt><trkpt lat="39.8510416211702" lon="9.056242751709403"><ele>501.0</ele><time>2026-04-27T08:38:41.849Z</time></trkpt><trkpt lat="39.85090291156124" lon="9.056282488294517"><ele>501.0</ele><time>2026-04-27T08:38:42.849Z</time></trkpt><trkpt lat="39.850786719803224" lon="9.056394480972235"><ele>501.0</ele><time>2026-04-27T08:38:43.849Z</time></trkpt><trkpt lat="39.85070345455019" lon="9.056532116082609"><ele>502.75</ele><time>2026-04-27T08:38:44.849Z</time></trkpt><trkpt lat="39.85065760400965" lon="9.056734799942454"><ele>504.5</ele><time>2026-04-27T08:38:45.849Z</time></trkpt><trkpt lat="39.850592810948825" lon="9.056902405266612"><ele>506.25</ele><time>2026-04-27T08:38:46.849Z</time></trkpt><trkpt lat="39.85051885289713" lon="9.057059547007977"><ele>508.0</ele><time>2026-04-27T08:38:47.849Z</time></trkpt><trkpt lat="39.850485714773775" lon="9.057261498507387"><ele>508.0</ele><time>2026-04-27T08:38:48.849Z</time></trkpt><trkpt lat="39.85032080277477" lon="9.05734575321652"><ele>508.0</ele><time>2026-04-27T08:38:49.849Z</time></trkpt><trkpt lat="39.85025202591401" lon="9.05750902772714"><ele>508.0</ele><time>2026-04-27T08:38:50.848Z</time></trkpt><trkpt lat="39.85021564196466" lon="9.057684702273718"><ele>510.0</ele><time>2026-04-27T08:38:51.848Z</time></trkpt><trkpt lat="39.850226456991265" lon="9.057879683127437"><ele>512.0</ele><time>2026-04-27T08:38:52.848Z</time></trkpt><trkpt lat="39.85026425296271" lon="9.058079511097525"><ele>514.0</ele><time>2026-04-27T08:38:53.848Z</time></trkpt><trkpt lat="39.85026517375879" lon="9.058265599849102"><ele>514.75</ele><time>2026-04-27T08:38:54.848Z</time></trkpt><trkpt lat="39.850250808200116" lon="9.058423465877953"><ele>515.5</ele><time>2026-04-27T08:38:55.848Z</time></trkpt><trkpt lat="39.85018071383284" lon="9.058535117866207"><ele>516.25</ele><time>2026-04-27T08:38:56.848Z</time></trkpt><trkpt lat="39.850081688959285" lon="9.058621917797703"><ele>517.0</ele><time>2026-04-27T08:38:57.848Z</time></trkpt><trkpt lat="39.84995489457961" lon="9.058684136634623"><ele>508.6666666666667</ele><time>2026-04-27T08:38:58.848Z</time></trkpt><trkpt lat="39.849815062309425" lon="9.058657595658163"><ele>500.33333333333337</ele><time>2026-04-27T08:38:59.848Z</time></trkpt><trkpt lat="39.84966963017284" lon="9.058583615915541"><ele>492.0</ele><time>2026-04-27T08:39:00.848Z</time></trkpt><trkpt lat="39.84952100892509" lon="9.058506228972014"><ele>492.0</ele><time>2026-04-27T08:39:01.848Z</time></trkpt><trkpt lat="39.84936058574798" lon="9.058419026588185"><ele>492.0</ele><time>2026-04-27T08:39:02.848Z</time></trkpt><trkpt lat="39.849188909179205" lon="9.058344865909316"><ele>492.0</ele><time>2026-04-27T08:39:03.848Z</time></trkpt><trkpt lat="39.849030296333694" lon="9.058261453551175"><ele>486.5</ele><time>2026-04-27T08:39:04.848Z</time></trkpt><trkpt lat="39.848920024804244" lon="9.058133328878938"><ele>481.0</ele><time>2026-04-27T08:39:05.848Z</time></trkpt><trkpt lat="39.84882143079163" lon="9.05799198775624"><ele>475.5</ele><time>2026-04-27T08:39:06.848Z</time></trkpt><trkpt lat="39.8487161025535" lon="9.057922003165647"><ele>470.0</ele><time>2026-04-27T08:39:07.848Z</time></trkpt><trkpt lat="39.848615520551554" lon="9.057879610762118"><ele>470.0</ele><time>2026-04-27T08:39:08.848Z</time></trkpt><trkpt lat="39.8484817268504" lon="9.057928664120622"><ele>470.0</ele><time>2026-04-27T08:39:09.848Z</time></trkpt><trkpt lat="39.848353911562455" lon="9.058094495627083"><ele>470.0</ele><time>2026-04-27T08:39:10.848Z</time></trkpt><trkpt lat="39.84824423856245" lon="9.058243729456628"><ele>473.25</ele><time>2026-04-27T08:39:11.848Z</time></trkpt><trkpt lat="39.84814101879144" lon="9.058392126426172"><ele>476.5</ele><time>2026-04-27T08:39:12.848Z</time></trkpt><trkpt lat="39.848072427191745" lon="9.058552695612663"><ele>479.75</ele><time>2026-04-27T08:39:13.848Z</time></trkpt><trkpt lat="39.84807582015595" lon="9.058749859005127"><ele>483.0</ele><time>2026-04-27T08:39:14.848Z</time></trkpt><trkpt lat="39.848123827206415" lon="9.058953682092675"><ele>483.66666666666663</ele><time>2026-04-27T08:39:15.847Z</time></trkpt><trkpt lat="39.848220582668546" lon="9.059159735244021"><ele>484.3333333333333</ele><time>2026-04-27T08:39:16.847Z</time></trkpt><trkpt lat="39.848249980621155" lon="9.059340541259141"><ele>485.0</ele><time>2026-04-27T08:39:17.847Z</time></trkpt><trkpt lat="39.848222856345984" lon="9.059516108732671"><ele>485.0</ele><time>2026-04-27T08:39:18.847Z</time></trkpt><trkpt lat="39.84814560740069" lon="9.059688857838468"><ele>485.0</ele><time>2026-04-27T08:39:19.847Z</time></trkpt><trkpt lat="39.84805060257783" lon="9.05981140164915"><ele>485.0</ele><time>2026-04-27T08:39:20.847Z</time></trkpt><trkpt lat="39.84793887256685" lon="9.059880351352964"><ele>485.0</ele><time>2026-04-27T08:39:21.847Z</time></trkpt><trkpt lat="39.84780086923997" lon="9.05990020951202"><ele>485.0</ele><time>2026-04-27T08:39:22.847Z</time></trkpt><trkpt lat="39.847641604730526" lon="9.05986330741437"><ele>485.0</ele><time>2026-04-27T08:39:23.847Z</time></trkpt><trkpt lat="39.847478410770144" lon="9.059819816712247"><ele>485.0</ele><time>2026-04-27T08:39:24.847Z</time></trkpt><trkpt lat="39.847324929057415" lon="9.05974006947138"><ele>479.3333333333333</ele><time>2026-04-27T08:39:25.847Z</time></trkpt><trkpt lat="39.84717635340016" lon="9.059678955494848"><ele>473.66666666666663</ele><time>2026-04-27T08:39:26.847Z</time></trkpt><trkpt lat="39.847019206390016" lon="9.059621308103692"><ele>468.0</ele><time>2026-04-27T08:39:27.847Z</time></trkpt><trkpt lat="39.84686083248428" lon="9.059556828577103"><ele>470.33333333333337</ele><time>2026-04-27T08:39:28.847Z</time></trkpt><trkpt lat="39.846710942231645" lon="9.059482783885846"><ele>472.6666666666667</ele><time>2026-04-27T08:39:29.847Z</time></trkpt><trkpt lat="39.84656805533696" lon="9.059379361058724"><ele>475.0</ele><time>2026-04-27T08:39:30.847Z</time></trkpt><trkpt lat="39.84646407971187" lon="9.059247935465079"><ele>473.0</ele><time>2026-04-27T08:39:31.847Z</time></trkpt><trkpt lat="39.846393652841414" lon="9.059072648493961"><ele>471.0</ele><time>2026-04-27T08:39:32.847Z</time></trkpt><trkpt lat="39.846366846977766" lon="9.058869946543624"><ele>469.0</ele><time>2026-04-27T08:39:33.847Z</time></trkpt><trkpt lat="39.8463678428499" lon="9.058666398148826"><ele>469.0</ele><time>2026-04-27T08:39:34.847Z</time></trkpt><trkpt lat="39.8463778661433" lon="9.058443508170518"><ele>469.0</ele><time>2026-04-27T08:39:35.847Z</time></trkpt><trkpt lat="39.84640279575867" lon="9.058205204628418"><ele>469.0</ele><time>2026-04-27T08:39:36.847Z</time></trkpt><trkpt lat="39.846447489471515" lon="9.057970756141216"><ele>469.6666666666667</ele><time>2026-04-27T08:39:37.847Z</time></trkpt><trkpt lat="39.84649253021386" lon="9.057749778760487"><ele>470.33333333333337</ele><time>2026-04-27T08:39:38.847Z</time></trkpt><trkpt lat="39.846565198290094" lon="9.057572385103697"><ele>471.0</ele><time>2026-04-27T08:39:39.847Z</time></trkpt><trkpt lat="39.84665112243449" lon="9.057437894255049"><ele>471.0</ele><time>2026-04-27T08:39:40.846Z</time></trkpt><trkpt lat="39.84675303580318" lon="9.057341300946444"><ele>471.0</ele><time>2026-04-27T08:39:41.846Z</time></trkpt><trkpt lat="39.846844479222284" lon="9.057299983799588"><ele>471.0</ele><time>2026-04-27T08:39:42.846Z</time></trkpt><trkpt lat="39.846911704195094" lon="9.057252503097224"><ele>471.0</ele><time>2026-04-27T08:39:43.846Z</time></trkpt><trkpt lat="39.846985730973586" lon="9.05711122424469"><ele>471.0</ele><time>2026-04-27T08:39:45.846Z</time></trkpt><trkpt lat="39.84699592296684" lon="9.057018089915276"><ele>466.4</ele><time>2026-04-27T08:39:46.846Z</time></trkpt><trkpt lat="39.84698735506803" lon="9.056906721297151"><ele>461.8</ele><time>2026-04-27T08:39:47.846Z</time></trkpt><trkpt lat="39.84695977955356" lon="9.056777801590249"><ele>457.19999999999993</ele><time>2026-04-27T08:39:48.846Z</time></trkpt><trkpt lat="39.84691793631731" lon="9.056651629101312"><ele>452.59999999999997</ele><time>2026-04-27T08:39:49.846Z</time></trkpt><trkpt lat="39.84687417165833" lon="9.056529582558843"><ele>448.0</ele><time>2026-04-27T08:39:50.846Z</time></trkpt><trkpt lat="39.84683043528267" lon="9.056422136232714"><ele>448.79999999999995</ele><time>2026-04-27T08:39:51.848Z</time></trkpt><trkpt lat="39.846773774844394" lon="9.056330916792412"><ele>449.59999999999997</ele><time>2026-04-27T08:39:52.847Z</time></trkpt><trkpt lat="39.84669480980453" lon="9.056271327932672"><ele>450.40000000000003</ele><time>2026-04-27T08:39:53.847Z</time></trkpt><trkpt lat="39.84660700608661" lon="9.056238058971443"><ele>451.20000000000005</ele><time>2026-04-27T08:39:54.848Z</time></trkpt><trkpt lat="39.84651267764269" lon="9.056216564211034"><ele>452.0</ele><time>2026-04-27T08:39:55.847Z</time></trkpt><trkpt lat="39.84642475259067" lon="9.056192236859303"><ele>451.99999999999994</ele><time>2026-04-27T08:39:56.847Z</time></trkpt><trkpt lat="39.84634950861502" lon="9.056142763297979"><ele>452.0</ele><time>2026-04-27T08:39:57.848Z</time></trkpt><trkpt lat="39.84629503084824" lon="9.056074969433102"><ele>452.0</ele><time>2026-04-27T08:39:58.848Z</time></trkpt><trkpt lat="39.846260489935474" lon="9.055982233875099"><ele>452.0</ele><time>2026-04-27T08:39:59.848Z</time></trkpt><trkpt lat="39.84625906978658" lon="9.055874981005548"><ele>451.99999999999994</ele><time>2026-04-27T08:40:00.847Z</time></trkpt><trkpt lat="39.84624562106361" lon="9.055765471211572"><ele>452.0</ele><time>2026-04-27T08:40:01.847Z</time></trkpt><trkpt lat="39.846220057729354" lon="9.055635080322428"><ele>449.0</ele><time>2026-04-27T08:40:02.847Z</time></trkpt><trkpt lat="39.84618094073311" lon="9.055498833092809"><ele>446.0</ele><time>2026-04-27T08:40:03.847Z</time></trkpt><trkpt lat="39.84615158782294" lon="9.055357494009792"><ele>443.0</ele><time>2026-04-27T08:40:04.847Z</time></trkpt><trkpt lat="39.84612573422624" lon="9.055186485207443"><ele>440.0</ele><time>2026-04-27T08:40:05.847Z</time></trkpt><trkpt lat="39.846110184884" lon="9.05499876620719"><ele>439.5</ele><time>2026-04-27T08:40:06.847Z</time></trkpt><trkpt lat="39.846118656118406" lon="9.054804737913807"><ele>439.0</ele><time>2026-04-27T08:40:07.847Z</time></trkpt><trkpt lat="39.84613282441701" lon="9.05462361392382"><ele>438.5</ele><time>2026-04-27T08:40:08.847Z</time></trkpt><trkpt lat="39.84615920186535" lon="9.054440949337367"><ele>438.0</ele><time>2026-04-27T08:40:09.847Z</time></trkpt><trkpt lat="39.84620271214415" lon="9.054259504315521"><ele>438.5</ele><time>2026-04-27T08:40:10.847Z</time></trkpt><trkpt lat="39.84625062895826" lon="9.054103888565228"><ele>439.0</ele><time>2026-04-27T08:40:11.847Z</time></trkpt><trkpt lat="39.846308862654176" lon="9.053935819024836"><ele>439.5</ele><time>2026-04-27T08:40:12.847Z</time></trkpt><trkpt lat="39.84635805266258" lon="9.053785488885778"><ele>440.0</ele><time>2026-04-27T08:40:13.847Z</time></trkpt><trkpt lat="39.84640720362355" lon="9.05360669555929"><ele>440.0</ele><time>2026-04-27T08:40:14.847Z</time></trkpt><trkpt lat="39.846424843128545" lon="9.053423836379157"><ele>440.0</ele><time>2026-04-27T08:40:15.847Z</time></trkpt><trkpt lat="39.84642120330491" lon="9.053228203499534"><ele>440.0</ele><time>2026-04-27T08:40:16.847Z</time></trkpt><trkpt lat="39.84639323861247" lon="9.05303041177149"><ele>440.0</ele><time>2026-04-27T08:40:17.847Z</time></trkpt><trkpt lat="39.8463383917689" lon="9.052828226242701"><ele>437.66666666666663</ele><time>2026-04-27T08:40:18.847Z</time></trkpt><trkpt lat="39.84625168577441" lon="9.052645301799013"><ele>435.33333333333337</ele><time>2026-04-27T08:40:19.847Z</time></trkpt><trkpt lat="39.846132670196354" lon="9.052454861264719"><ele>433.0</ele><time>2026-04-27T08:40:20.846Z</time></trkpt><trkpt lat="39.84599470827962" lon="9.052245287409457"><ele>433.0</ele><time>2026-04-27T08:40:21.846Z</time></trkpt><trkpt lat="39.84586419537391" lon="9.052053699133511"><ele>433.0</ele><time>2026-04-27T08:40:22.846Z</time></trkpt><trkpt lat="39.845744446854475" lon="9.051883478186209"><ele>433.0</ele><time>2026-04-27T08:40:23.846Z</time></trkpt><trkpt lat="39.84563994225513" lon="9.05173763752208"><ele>430.25</ele><time>2026-04-27T08:40:24.846Z</time></trkpt><trkpt lat="39.845528004842684" lon="9.051604705457379"><ele>427.5</ele><time>2026-04-27T08:40:25.846Z</time></trkpt><trkpt lat="39.845413878404635" lon="9.051496169608173"><ele>424.75</ele><time>2026-04-27T08:40:26.846Z</time></trkpt><trkpt lat="39.84529585225497" lon="9.051420646779125"><ele>422.0</ele><time>2026-04-27T08:40:27.846Z</time></trkpt><trkpt lat="39.84519949772929" lon="9.05133993870656"><ele>422.0</ele><time>2026-04-27T08:40:28.846Z</time></trkpt><trkpt lat="39.84513011867548" lon="9.051244674400614"><ele>422.0</ele><time>2026-04-27T08:40:29.846Z</time></trkpt><trkpt lat="39.8450770714335" lon="9.051121807080841"><ele>422.0</ele><time>2026-04-27T08:40:30.846Z</time></trkpt><trkpt lat="39.84502688911592" lon="9.050985516355206"><ele>422.0</ele><time>2026-04-27T08:40:31.846Z</time></trkpt><trkpt lat="39.84498704196193" lon="9.050849228175965"><ele>422.0</ele><time>2026-04-27T08:40:32.846Z</time></trkpt><trkpt lat="39.84493462295116" lon="9.050705850263379"><ele>421.5</ele><time>2026-04-27T08:40:33.846Z</time></trkpt><trkpt lat="39.84485651735422" lon="9.050579271292596"><ele>421.0</ele><time>2026-04-27T08:40:34.846Z</time></trkpt><trkpt lat="39.84476749220553" lon="9.05045118804811"><ele>420.5</ele><time>2026-04-27T08:40:35.846Z</time></trkpt><trkpt lat="39.84469242301934" lon="9.050305725843227"><ele>420.0</ele><time>2026-04-27T08:40:36.846Z</time></trkpt><trkpt lat="39.84460477534201" lon="9.050173347835468"><ele>420.0</ele><time>2026-04-27T08:40:37.846Z</time></trkpt><trkpt lat="39.844511547000586" lon="9.050059509009195"><ele>420.0</ele><time>2026-04-27T08:40:38.846Z</time></trkpt><trkpt lat="39.844406234463555" lon="9.049970897738762"><ele>420.0</ele><time>2026-04-27T08:40:39.846Z</time></trkpt><trkpt lat="39.84430603198108" lon="9.049903139312415"><ele>420.0</ele><time>2026-04-27T08:40:40.846Z</time></trkpt><trkpt lat="39.844201983203085" lon="9.049858268196553"><ele>418.2</ele><time>2026-04-27T08:40:41.846Z</time></trkpt><trkpt lat="39.84409705073525" lon="9.049852017198633"><ele>416.4</ele><time>2026-04-27T08:40:42.846Z</time></trkpt><trkpt lat="39.84400441032565" lon="9.049864959984824"><ele>414.6</ele><time>2026-04-27T08:40:43.846Z</time></trkpt><trkpt lat="39.84390927256558" lon="9.049892743479587"><ele>412.8</ele><time>2026-04-27T08:40:44.846Z</time></trkpt><trkpt lat="39.843824823259915" lon="9.049888056238233"><ele>411.0</ele><time>2026-04-27T08:40:45.845Z</time></trkpt><trkpt lat="39.843754405557846" lon="9.049870128359395"><ele>411.0</ele><time>2026-04-27T08:40:46.845Z</time></trkpt><trkpt lat="39.84368878610175" lon="9.049822242528162"><ele>411.0</ele><time>2026-04-27T08:40:47.845Z</time></trkpt><trkpt lat="39.84364027296353" lon="9.049740355273478"><ele>411.0</ele><time>2026-04-27T08:40:48.845Z</time></trkpt><trkpt lat="39.84359759663212" lon="9.04964796420888"><ele>411.0</ele><time>2026-04-27T08:40:49.845Z</time></trkpt><trkpt lat="39.843553175567976" lon="9.049530643242687"><ele>411.0</ele><time>2026-04-27T08:40:50.845Z</time></trkpt><trkpt lat="39.84347647529002" lon="9.04940688213734"><ele>409.0</ele><time>2026-04-27T08:40:51.845Z</time></trkpt><trkpt lat="39.84332648556304" lon="9.049241089632714"><ele>407.0</ele><time>2026-04-27T08:40:52.845Z</time></trkpt><trkpt lat="39.84311046002395" lon="9.049079199008423"><ele>405.0</ele><time>2026-04-27T08:40:53.845Z</time></trkpt><trkpt lat="39.84288014735949" lon="9.048901544490095"><ele>405.0</ele><time>2026-04-27T08:40:54.845Z</time></trkpt><trkpt lat="39.84268725534467" lon="9.048671363496585"><ele>405.0</ele><time>2026-04-27T08:40:55.845Z</time></trkpt><trkpt lat="39.84252169172497" lon="9.048443839197555"><ele>404.0</ele><time>2026-04-27T08:40:56.845Z</time></trkpt><trkpt lat="39.8423682234183" lon="9.048230033963751"><ele>403.0</ele><time>2026-04-27T08:40:57.845Z</time></trkpt><trkpt lat="39.84223456216322" lon="9.048043822391369"><ele>402.0</ele><time>2026-04-27T08:40:58.845Z</time></trkpt><trkpt lat="39.84212770649853" lon="9.047894954753216"><ele>402.0</ele><time>2026-04-27T08:40:59.845Z</time></trkpt><trkpt lat="39.8420423931639" lon="9.047776099151369"><ele>402.0</ele><time>2026-04-27T08:41:00.845Z</time></trkpt><trkpt lat="39.84189391550283" lon="9.047767954132508"><ele>402.0</ele><time>2026-04-27T08:41:01.845Z</time></trkpt><trkpt lat="39.84174863018755" lon="9.04779631866031"><ele>402.0</ele><time>2026-04-27T08:41:02.845Z</time></trkpt><trkpt lat="39.84160861428273" lon="9.047846257366672"><ele>404.0</ele><time>2026-04-27T08:41:03.845Z</time></trkpt><trkpt lat="39.84146791238369" lon="9.047859556990934"><ele>406.0</ele><time>2026-04-27T08:41:04.845Z</time></trkpt><trkpt lat="39.84132876532673" lon="9.047825957180155"><ele>408.0</ele><time>2026-04-27T08:41:05.845Z</time></trkpt><trkpt lat="39.8412034898759" lon="9.047790928496548"><ele>410.0</ele><time>2026-04-27T08:41:06.845Z</time></trkpt><trkpt lat="39.84107483839299" lon="9.047785442865866"><ele>407.25</ele><time>2026-04-27T08:41:07.845Z</time></trkpt><trkpt lat="39.840952643191315" lon="9.047807564113388"><ele>404.5</ele><time>2026-04-27T08:41:08.845Z</time></trkpt><trkpt lat="39.84083167391383" lon="9.047850699948938"><ele>401.75</ele><time>2026-04-27T08:41:09.845Z</time></trkpt><trkpt lat="39.84071727192635" lon="9.047894903397655"><ele>399.0</ele><time>2026-04-27T08:41:10.844Z</time></trkpt><trkpt lat="39.84060303586027" lon="9.047929550395853"><ele>399.0</ele><time>2026-04-27T08:41:11.844Z</time></trkpt><trkpt lat="39.8404874956359" lon="9.047952384167678"><ele>399.0</ele><time>2026-04-27T08:41:12.844Z</time></trkpt><trkpt lat="39.840376698648775" lon="9.04795984907705"><ele>399.0</ele><time>2026-04-27T08:41:13.844Z</time></trkpt><trkpt lat="39.84026898066098" lon="9.047917460216166"><ele>399.0</ele><time>2026-04-27T08:41:14.844Z</time></trkpt><trkpt lat="39.840193396489276" lon="9.04781503128922"><ele>399.0</ele><time>2026-04-27T08:41:15.844Z</time></trkpt><trkpt lat="39.84016239652065" lon="9.047686995006858"><ele>399.0</ele><time>2026-04-27T08:41:16.844Z</time></trkpt><trkpt lat="39.840164170978376" lon="9.047552868308005"><ele>399.0</ele><time>2026-04-27T08:41:17.844Z</time></trkpt><trkpt lat="39.84020050073825" lon="9.047414141499953"><ele>399.0</ele><time>2026-04-27T08:41:18.844Z</time></trkpt><trkpt lat="39.840251286270686" lon="9.047278308529513"><ele>399.0</ele><time>2026-04-27T08:41:19.844Z</time></trkpt><trkpt lat="39.840300895198865" lon="9.047136484839106"><ele>398.0</ele><time>2026-04-27T08:41:20.844Z</time></trkpt><trkpt lat="39.84034608165302" lon="9.046996389009871"><ele>397.0</ele><time>2026-04-27T08:41:21.844Z</time></trkpt><trkpt lat="39.84039495894519" lon="9.046871755788418"><ele>396.0</ele><time>2026-04-27T08:41:22.844Z</time></trkpt><trkpt lat="39.84043027326405" lon="9.046742007145362"><ele>395.0</ele><time>2026-04-27T08:41:23.844Z</time></trkpt><trkpt lat="39.840463976409794" lon="9.046620158864451"><ele>394.0</ele><time>2026-04-27T08:41:24.844Z</time></trkpt><trkpt lat="39.8404757099404" lon="9.046497625772739"><ele>392.4</ele><time>2026-04-27T08:41:25.844Z</time></trkpt><trkpt lat="39.840455422307464" lon="9.046383210721755"><ele>390.79999999999995</ele><time>2026-04-27T08:41:26.844Z</time></trkpt><trkpt lat="39.84041549907367" lon="9.04628061361618"><ele>389.20000000000005</ele><time>2026-04-27T08:41:27.844Z</time></trkpt><trkpt lat="39.840361608330646" lon="9.04619169968784"><ele>387.6</ele><time>2026-04-27T08:41:28.844Z</time></trkpt><trkpt lat="39.840295026510375" lon="9.046112794539681"><ele>386.0</ele><time>2026-04-27T08:41:29.844Z</time></trkpt><trkpt lat="39.8402303851972" lon="9.04602169102734"><ele>386.0</ele><time>2026-04-27T08:41:30.844Z</time></trkpt><trkpt lat="39.8401742914083" lon="9.04591500547675"><ele>386.0</ele><time>2026-04-27T08:41:31.844Z</time></trkpt><trkpt lat="39.84013051564562" lon="9.045802759652277"><ele>386.0</ele><time>2026-04-27T08:41:32.844Z</time></trkpt><trkpt lat="39.84009214271356" lon="9.045688106523015"><ele>386.0</ele><time>2026-04-27T08:41:33.844Z</time></trkpt><trkpt lat="39.840052696535096" lon="9.045579470302687"><ele>386.0</ele><time>2026-04-27T08:41:34.844Z</time></trkpt><trkpt lat="39.84000103508311" lon="9.045483658949333"><ele>387.8</ele><time>2026-04-27T08:41:35.843Z</time></trkpt><trkpt lat="39.83993267717117" lon="9.045398416113617"><ele>389.6</ele><time>2026-04-27T08:41:36.843Z</time></trkpt><trkpt lat="39.83985461966523" lon="9.045327460177294"><ele>391.4</ele><time>2026-04-27T08:41:37.843Z</time></trkpt><trkpt lat="39.83977654493389" lon="9.045257885719204"><ele>393.2</ele><time>2026-04-27T08:41:38.843Z</time></trkpt><trkpt lat="39.83969648424772" lon="9.045195396228452"><ele>395.0</ele><time>2026-04-27T08:41:39.843Z</time></trkpt><trkpt lat="39.839603791954524" lon="9.045168357188741"><ele>395.0</ele><time>2026-04-27T08:41:40.843Z</time></trkpt><trkpt lat="39.839511211239305" lon="9.045180559984933"><ele>395.0</ele><time>2026-04-27T08:41:41.843Z</time></trkpt><trkpt lat="39.83942927911623" lon="9.04523024391346"><ele>395.0</ele><time>2026-04-27T08:41:42.843Z</time></trkpt><trkpt lat="39.83935908448115" lon="9.045315028376745"><ele>395.0</ele><time>2026-04-27T08:41:43.843Z</time></trkpt><trkpt lat="39.83929136860841" lon="9.045412917043421"><ele>395.0</ele><time>2026-04-27T08:41:44.843Z</time></trkpt><trkpt lat="39.83921746657641" lon="9.045505923426884"><ele>396.6</ele><time>2026-04-27T08:41:45.843Z</time></trkpt><trkpt lat="39.83914445446125" lon="9.045592434832724"><ele>398.2</ele><time>2026-04-27T08:41:46.843Z</time></trkpt><trkpt lat="39.83906074288477" lon="9.045658302255072"><ele>399.79999999999995</ele><time>2026-04-27T08:41:47.843Z</time></trkpt><trkpt lat="39.83896886995851" lon="9.045691651192337"><ele>401.4</ele><time>2026-04-27T08:41:48.843Z</time></trkpt><trkpt lat="39.83887999172406" lon="9.045685306930345"><ele>403.0</ele><time>2026-04-27T08:41:49.843Z</time></trkpt><trkpt lat="39.83879604462683" lon="9.045627768504305"><ele>403.0</ele><time>2026-04-27T08:41:50.843Z</time></trkpt><trkpt lat="39.838714464172185" lon="9.045561844484604"><ele>403.0</ele><time>2026-04-27T08:41:51.843Z</time></trkpt><trkpt lat="39.83863159017255" lon="9.045507329392352"><ele>403.0</ele><time>2026-04-27T08:41:52.843Z</time></trkpt><trkpt lat="39.83854279422334" lon="9.045471193948206"><ele>403.0</ele><time>2026-04-27T08:41:53.843Z</time></trkpt><trkpt lat="39.83845295903562" lon="9.045460370130742"><ele>403.0</ele><time>2026-04-27T08:41:54.843Z</time></trkpt><trkpt lat="39.83836420427367" lon="9.045483298009861"><ele>401.50000000000006</ele><time>2026-04-27T08:41:55.843Z</time></trkpt><trkpt lat="39.83828292825323" lon="9.045519510590168"><ele>400.0</ele><time>2026-04-27T08:41:56.843Z</time></trkpt><trkpt lat="39.8382044170248" lon="9.045561893535545"><ele>398.5</ele><time>2026-04-27T08:41:57.845Z</time></trkpt><trkpt lat="39.838132218964205" lon="9.045615923672662"><ele>397.0</ele><time>2026-04-27T08:41:58.844Z</time></trkpt><trkpt lat="39.83806056795612" lon="9.045668995052115"><ele>395.50000000000006</ele><time>2026-04-27T08:41:59.844Z</time></trkpt><trkpt lat="39.837982218680146" lon="9.04570676475833"><ele>394.0</ele><time>2026-04-27T08:42:00.844Z</time></trkpt><trkpt lat="39.837899313518584" lon="9.045727483151103"><ele>394.00000000000006</ele><time>2026-04-27T08:42:01.844Z</time></trkpt><trkpt lat="39.83781540254292" lon="9.04572586012685"><ele>394.0</ele><time>2026-04-27T08:42:02.844Z</time></trkpt><trkpt lat="39.83773334679359" lon="9.045694802103716"><ele>394.0</ele><time>2026-04-27T08:42:03.844Z</time></trkpt><trkpt lat="39.837657200840916" lon="9.045642604743508"><ele>394.0</ele><time>2026-04-27T08:42:04.844Z</time></trkpt><trkpt lat="39.83758981378448" lon="9.045574060305817"><ele>394.00000000000006</ele><time>2026-04-27T08:42:05.844Z</time></trkpt><trkpt lat="39.83752141403489" lon="9.04551413195035"><ele>394.0</ele><time>2026-04-27T08:42:06.844Z</time></trkpt><trkpt lat="39.83744718834317" lon="9.0454625050248"><ele>394.6</ele><time>2026-04-27T08:42:07.844Z</time></trkpt><trkpt lat="39.83736826282418" lon="9.045416326180801"><ele>395.2</ele><time>2026-04-27T08:42:08.844Z</time></trkpt><trkpt lat="39.83728128457618" lon="9.045383624107968"><ele>395.8</ele><time>2026-04-27T08:42:09.844Z</time></trkpt><trkpt lat="39.83718801285796" lon="9.045374752994674"><ele>396.40000000000003</ele><time>2026-04-27T08:42:10.843Z</time></trkpt><trkpt lat="39.837095467223136" lon="9.045384314934061"><ele>397.0</ele><time>2026-04-27T08:42:11.843Z</time></trkpt><trkpt lat="39.837008597962885" lon="9.0454129728062"><ele>397.0</ele><time>2026-04-27T08:42:12.843Z</time></trkpt><trkpt lat="39.836927785765674" lon="9.045464447185832"><ele>397.0</ele><time>2026-04-27T08:42:13.843Z</time></trkpt><trkpt lat="39.83684768676842" lon="9.045526015551742"><ele>397.0</ele><time>2026-04-27T08:42:14.843Z</time></trkpt><trkpt lat="39.83677627727849" lon="9.045598375364518"><ele>397.0</ele><time>2026-04-27T08:42:15.843Z</time></trkpt><trkpt lat="39.83670878402062" lon="9.045673314441352"><ele>397.0</ele><time>2026-04-27T08:42:16.843Z</time></trkpt><trkpt lat="39.83664342317169" lon="9.045753473551146"><ele>398.40000000000003</ele><time>2026-04-27T08:42:17.843Z</time></trkpt><trkpt lat="39.83658098297677" lon="9.045842557280347"><ele>399.8</ele><time>2026-04-27T08:42:18.843Z</time></trkpt><trkpt lat="39.83652340760072" lon="9.045941755237624"><ele>401.2</ele><time>2026-04-27T08:42:19.843Z</time></trkpt><trkpt lat="39.836475224464586" lon="9.046049500961145"><ele>402.6</ele><time>2026-04-27T08:42:20.843Z</time></trkpt><trkpt lat="39.83643568973463" lon="9.046162343437562"><ele>404.0</ele><time>2026-04-27T08:42:21.843Z</time></trkpt><trkpt lat="39.83640266286171" lon="9.046276466353921"><ele>404.0</ele><time>2026-04-27T08:42:22.843Z</time></trkpt><trkpt lat="39.83635126634493" lon="9.04637666284717"><ele>404.0</ele><time>2026-04-27T08:42:23.843Z</time></trkpt><trkpt lat="39.83626931924027" lon="9.046431607869621"><ele>404.0</ele><time>2026-04-27T08:42:24.843Z</time></trkpt><trkpt lat="39.83617410916913" lon="9.04644693584782"><ele>404.0</ele><time>2026-04-27T08:42:25.843Z</time></trkpt><trkpt lat="39.83607545204956" lon="9.046445462697227"><ele>404.0</ele><time>2026-04-27T08:42:26.843Z</time></trkpt><trkpt lat="39.83597125972221" lon="9.046452105499235"><ele>402.25</ele><time>2026-04-27T08:42:27.842Z</time></trkpt><trkpt lat="39.83586116401188" lon="9.046465776692804"><ele>400.5</ele><time>2026-04-27T08:42:28.842Z</time></trkpt><trkpt lat="39.83575007377376" lon="9.046484834335516"><ele>398.75</ele><time>2026-04-27T08:42:29.842Z</time></trkpt><trkpt lat="39.83563398817207" lon="9.04651213322754"><ele>397.0</ele><time>2026-04-27T08:42:30.842Z</time></trkpt><trkpt lat="39.835514237707415" lon="9.046539100708255"><ele>397.0</ele><time>2026-04-27T08:42:31.842Z</time></trkpt><trkpt lat="39.83539301366912" lon="9.046570363574201"><ele>397.0</ele><time>2026-04-27T08:42:32.842Z</time></trkpt><trkpt lat="39.835273134730464" lon="9.046601031273036"><ele>397.0</ele><time>2026-04-27T08:42:33.842Z</time></trkpt><trkpt lat="39.835154244033845" lon="9.046635201813807"><ele>397.0</ele><time>2026-04-27T08:42:34.842Z</time></trkpt><trkpt lat="39.835036689085285" lon="9.046667403310238"><ele>396.25</ele><time>2026-04-27T08:42:35.842Z</time></trkpt><trkpt lat="39.8349202463397" lon="9.046705877665657"><ele>395.5</ele><time>2026-04-27T08:42:36.842Z</time></trkpt><trkpt lat="39.83481019044033" lon="9.046766745119665"><ele>394.75</ele><time>2026-04-27T08:42:37.842Z</time></trkpt><trkpt lat="39.8347096181555" lon="9.046851990601425"><ele>394.0</ele><time>2026-04-27T08:42:38.842Z</time></trkpt><trkpt lat="39.83462176097927" lon="9.04696109505094"><ele>394.0</ele><time>2026-04-27T08:42:39.842Z</time></trkpt><trkpt lat="39.83453688825958" lon="9.047086824729922"><ele>394.0</ele><time>2026-04-27T08:42:40.842Z</time></trkpt><trkpt lat="39.83444260068387" lon="9.047209085318729"><ele>394.0</ele><time>2026-04-27T08:42:41.842Z</time></trkpt><trkpt lat="39.83433918624018" lon="9.047332776603993"><ele>394.0</ele><time>2026-04-27T08:42:42.842Z</time></trkpt><trkpt lat="39.834213846793006" lon="9.04741554079953"><ele>391.33333333333337</ele><time>2026-04-27T08:42:43.842Z</time></trkpt><trkpt lat="39.834060711237576" lon="9.047416867804339"><ele>388.66666666666663</ele><time>2026-04-27T08:42:44.842Z</time></trkpt><trkpt lat="39.83391641325544" lon="9.047384116872468"><ele>386.0</ele><time>2026-04-27T08:42:45.842Z</time></trkpt><trkpt lat="39.833763046947446" lon="9.04734436032272"><ele>386.0</ele><time>2026-04-27T08:42:46.842Z</time></trkpt><trkpt lat="39.833603929199136" lon="9.047302438169803"><ele>386.0</ele><time>2026-04-27T08:42:47.842Z</time></trkpt><trkpt lat="39.8334302442612" lon="9.047250483817779"><ele>386.0</ele><time>2026-04-27T08:42:48.842Z</time></trkpt><trkpt lat="39.8332590775452" lon="9.047206487823821"><ele>384.3333333333333</ele><time>2026-04-27T08:42:49.842Z</time></trkpt><trkpt lat="39.83308879548447" lon="9.047169874816134"><ele>382.66666666666663</ele><time>2026-04-27T08:42:50.842Z</time></trkpt><trkpt lat="39.8329241140401" lon="9.04711011047369"><ele>381.0</ele><time>2026-04-27T08:42:51.842Z</time></trkpt><trkpt lat="39.83276498689786" lon="9.047031830915532"><ele>380.3333333333333</ele><time>2026-04-27T08:42:52.841Z</time></trkpt><trkpt lat="39.83261579304878" lon="9.046936358631271"><ele>379.66666666666663</ele><time>2026-04-27T08:42:53.841Z</time></trkpt><trkpt lat="39.832465433780406" lon="9.046871778850646"><ele>379.0</ele><time>2026-04-27T08:42:54.841Z</time></trkpt><trkpt lat="39.83231198418924" lon="9.046834491055485"><ele>379.0</ele><time>2026-04-27T08:42:55.841Z</time></trkpt><trkpt lat="39.832153153694065" lon="9.046810008522868"><ele>379.0</ele><time>2026-04-27T08:42:56.841Z</time></trkpt><trkpt lat="39.832005093245" lon="9.046792662275262"><ele>379.0</ele><time>2026-04-27T08:42:57.841Z</time></trkpt><trkpt lat="39.831861376124756" lon="9.046774246159458"><ele>378.75</ele><time>2026-04-27T08:42:58.841Z</time></trkpt><trkpt lat="39.83171461007216" lon="9.046759218986635"><ele>378.5</ele><time>2026-04-27T08:42:59.841Z</time></trkpt><trkpt lat="39.83156434424288" lon="9.04675875661847"><ele>378.25</ele><time>2026-04-27T08:43:00.841Z</time></trkpt><trkpt lat="39.83141893662865" lon="9.04680145808227"><ele>378.0</ele><time>2026-04-27T08:43:01.841Z</time></trkpt><trkpt lat="39.831279743032844" lon="9.046891160020175"><ele>378.0</ele><time>2026-04-27T08:43:02.841Z</time></trkpt><trkpt lat="39.83116001867227" lon="9.047020659762309"><ele>378.0</ele><time>2026-04-27T08:43:03.841Z</time></trkpt><trkpt lat="39.8310560268252" lon="9.047165032739558"><ele>378.0</ele><time>2026-04-27T08:43:04.841Z</time></trkpt><trkpt lat="39.8309629325943" lon="9.04729368004295"><ele>378.0</ele><time>2026-04-27T08:43:05.841Z</time></trkpt><trkpt lat="39.83084906956549" lon="9.047384568372149"><ele>377.0</ele><time>2026-04-27T08:43:06.841Z</time></trkpt><trkpt lat="39.83071420004368" lon="9.047411296051258"><ele>376.0</ele><time>2026-04-27T08:43:07.841Z</time></trkpt><trkpt lat="39.8305813478762" lon="9.047386979389186"><ele>375.0</ele><time>2026-04-27T08:43:08.841Z</time></trkpt><trkpt lat="39.83044434108197" lon="9.04733870396331"><ele>374.0</ele><time>2026-04-27T08:43:09.841Z</time></trkpt><trkpt lat="39.83030714216004" lon="9.047276003380418"><ele>374.0</ele><time>2026-04-27T08:43:10.841Z</time></trkpt><trkpt lat="39.83016569108097" lon="9.047217583234252"><ele>374.0</ele><time>2026-04-27T08:43:11.841Z</time></trkpt><trkpt lat="39.83002599930262" lon="9.047166541094098"><ele>374.0</ele><time>2026-04-27T08:43:12.841Z</time></trkpt><trkpt lat="39.82988309818551" lon="9.047141720447174"><ele>374.0</ele><time>2026-04-27T08:43:13.841Z</time></trkpt><trkpt lat="39.8297350116467" lon="9.047159066139878"><ele>373.6666666666667</ele><time>2026-04-27T08:43:14.841Z</time></trkpt><trkpt lat="39.82959797835896" lon="9.04725523703104"><ele>373.3333333333333</ele><time>2026-04-27T08:43:15.841Z</time></trkpt><trkpt lat="39.82947870303785" lon="9.047385565035594"><ele>373.0</ele><time>2026-04-27T08:43:16.841Z</time></trkpt><trkpt lat="39.82936261063573" lon="9.04751555399819"><ele>375.0</ele><time>2026-04-27T08:43:17.84Z</time></trkpt><trkpt lat="39.82922913583377" lon="9.047584506349631"><ele>377.0</ele><time>2026-04-27T08:43:18.84Z</time></trkpt><trkpt lat="39.82907507603293" lon="9.047566602270528"><ele>379.0</ele><time>2026-04-27T08:43:19.84Z</time></trkpt><trkpt lat="39.82892463992678" lon="9.047484946964062"><ele>377.0</ele><time>2026-04-27T08:43:20.84Z</time></trkpt><trkpt lat="39.82878370050944" lon="9.047375057333905"><ele>375.0</ele><time>2026-04-27T08:43:21.84Z</time></trkpt><trkpt lat="39.828633081239325" lon="9.047296428094272"><ele>373.0</ele><time>2026-04-27T08:43:22.84Z</time></trkpt><trkpt lat="39.828490107107484" lon="9.04728269881432"><ele>373.0</ele><time>2026-04-27T08:43:23.84Z</time></trkpt><trkpt lat="39.82836030471675" lon="9.04735652781218"><ele>373.0</ele><time>2026-04-27T08:43:24.84Z</time></trkpt><trkpt lat="39.828274922606255" lon="9.047518570254349"><ele>373.0</ele><time>2026-04-27T08:43:25.84Z</time></trkpt><trkpt lat="39.8282454075031" lon="9.047736665958224"><ele>375.0</ele><time>2026-04-27T08:43:26.84Z</time></trkpt><trkpt lat="39.82824152603022" lon="9.047982876429126"><ele>377.0</ele><time>2026-04-27T08:43:27.84Z</time></trkpt><trkpt lat="39.828252193740425" lon="9.048209713211305"><ele>379.0</ele><time>2026-04-27T08:43:28.84Z</time></trkpt><trkpt lat="39.828218917955475" lon="9.048394686953689"><ele>380.0</ele><time>2026-04-27T08:43:29.84Z</time></trkpt><trkpt lat="39.82812694704096" lon="9.04851755651916"><ele>381.0</ele><time>2026-04-27T08:43:30.84Z</time></trkpt><trkpt lat="39.82797745208143" lon="9.048550152907278"><ele>382.0</ele><time>2026-04-27T08:43:31.84Z</time></trkpt><trkpt lat="39.82780739026643" lon="9.048575639150044"><ele>380.3333333333333</ele><time>2026-04-27T08:43:32.84Z</time></trkpt><trkpt lat="39.82762859394652" lon="9.048611756320907"><ele>378.6666666666667</ele><time>2026-04-27T08:43:33.84Z</time></trkpt><trkpt lat="39.827481199137495" lon="9.04872608564671"><ele>377.0</ele><time>2026-04-27T08:43:34.84Z</time></trkpt><trkpt lat="39.827361546735965" lon="9.048909306723672"><ele>377.0</ele><time>2026-04-27T08:43:35.84Z</time></trkpt><trkpt lat="39.827263267887886" lon="9.049121879656607"><ele>377.0</ele><time>2026-04-27T08:43:36.84Z</time></trkpt><trkpt lat="39.8271747885365" lon="9.049326072367004"><ele>377.0</ele><time>2026-04-27T08:43:37.84Z</time></trkpt><trkpt lat="39.82707903929101" lon="9.049502538118801"><ele>378.0</ele><time>2026-04-27T08:43:38.84Z</time></trkpt><trkpt lat="39.82694873232316" lon="9.049614562841503"><ele>379.0</ele><time>2026-04-27T08:43:39.84Z</time></trkpt><trkpt lat="39.82679757740719" lon="9.049628502813254"><ele>380.0</ele><time>2026-04-27T08:43:40.84Z</time></trkpt><trkpt lat="39.82664272136377" lon="9.049550982052832"><ele>380.0</ele><time>2026-04-27T08:43:41.84Z</time></trkpt><trkpt lat="39.82648632276073" lon="9.049418703223363"><ele>380.0</ele><time>2026-04-27T08:43:42.839Z</time></trkpt><trkpt lat="39.82632874184659" lon="9.04927136727535"><ele>380.0</ele><time>2026-04-27T08:43:43.839Z</time></trkpt><trkpt lat="39.826156962564184" lon="9.04912394601888"><ele>381.0</ele><time>2026-04-27T08:43:44.839Z</time></trkpt><trkpt lat="39.825989730463014" lon="9.048987371194439"><ele>382.0</ele><time>2026-04-27T08:43:45.839Z</time></trkpt><trkpt lat="39.82584169354191" lon="9.048861134675922"><ele>383.0</ele><time>2026-04-27T08:43:46.839Z</time></trkpt><trkpt lat="39.82570039010208" lon="9.048758488624426"><ele>383.0</ele><time>2026-04-27T08:43:47.839Z</time></trkpt><trkpt lat="39.825557318203494" lon="9.048714075379275"><ele>383.0</ele><time>2026-04-27T08:43:48.839Z</time></trkpt><trkpt lat="39.82540618656165" lon="9.048747772558126"><ele>383.0</ele><time>2026-04-27T08:43:49.839Z</time></trkpt><trkpt lat="39.8252509495706" lon="9.048844508144454"><ele>383.0</ele><time>2026-04-27T08:43:50.839Z</time></trkpt><trkpt lat="39.825096674033375" lon="9.048995163079814"><ele>383.0</ele><time>2026-04-27T08:43:51.839Z</time></trkpt><trkpt lat="39.82494262908525" lon="9.049181193619681"><ele>383.0</ele><time>2026-04-27T08:43:52.839Z</time></trkpt><trkpt lat="39.824788758131646" lon="9.049379983341668"><ele>383.6666666666667</ele><time>2026-04-27T08:43:53.839Z</time></trkpt><trkpt lat="39.8246344896583" lon="9.049584093240087"><ele>384.33333333333337</ele><time>2026-04-27T08:43:54.839Z</time></trkpt><trkpt lat="39.82451237658296" lon="9.04980771822712"><ele>385.0</ele><time>2026-04-27T08:43:55.839Z</time></trkpt><trkpt lat="39.82442425433491" lon="9.05003918886289"><ele>385.0</ele><time>2026-04-27T08:43:56.839Z</time></trkpt><trkpt lat="39.8243442160726" lon="9.050265895184213"><ele>385.0</ele><time>2026-04-27T08:43:57.839Z</time></trkpt><trkpt lat="39.82421129314021" lon="9.050404392873547"><ele>385.0</ele><time>2026-04-27T08:43:58.839Z</time></trkpt><trkpt lat="39.82403204443855" lon="9.05047465598483"><ele>382.0</ele><time>2026-04-27T08:43:59.839Z</time></trkpt><trkpt lat="39.82382598227995" lon="9.050511029690659"><ele>379.0</ele><time>2026-04-27T08:44:00.839Z</time></trkpt><trkpt lat="39.823612834032744" lon="9.050596972197122"><ele>376.0</ele><time>2026-04-27T08:44:01.839Z</time></trkpt><trkpt lat="39.82340987712542" lon="9.050720296840554"><ele>375.3333333333333</ele><time>2026-04-27T08:44:02.839Z</time></trkpt><trkpt lat="39.82322523701349" lon="9.050878414855056"><ele>374.6666666666667</ele><time>2026-04-27T08:44:03.84Z</time></trkpt><trkpt lat="39.82306789554809" lon="9.051068238518233"><ele>374.0</ele><time>2026-04-27T08:44:04.841Z</time></trkpt><trkpt lat="39.822935475841106" lon="9.051256652808906"><ele>374.0</ele><time>2026-04-27T08:44:05.841Z</time></trkpt><trkpt lat="39.822828111638245" lon="9.051430260146942"><ele>374.0</ele><time>2026-04-27T08:44:06.84Z</time></trkpt><trkpt lat="39.822727815493344" lon="9.051564282039608"><ele>374.0</ele><time>2026-04-27T08:44:07.841Z</time></trkpt><trkpt lat="39.82262027157987" lon="9.051607978674042"><ele>374.0</ele><time>2026-04-27T08:44:08.841Z</time></trkpt><trkpt lat="39.82251408224018" lon="9.051564577789469"><ele>373.0</ele><time>2026-04-27T08:44:09.841Z</time></trkpt><trkpt lat="39.82241591815872" lon="9.051410912022527"><ele>372.0</ele><time>2026-04-27T08:44:10.84Z</time></trkpt><trkpt lat="39.82229998400569" lon="9.051225264411636"><ele>371.0</ele><time>2026-04-27T08:44:11.84Z</time></trkpt><trkpt lat="39.82213778182269" lon="9.05112718255737"><ele>371.0</ele><time>2026-04-27T08:44:12.84Z</time></trkpt><trkpt lat="39.82194593583707" lon="9.05110128426273"><ele>371.0</ele><time>2026-04-27T08:44:13.84Z</time></trkpt><trkpt lat="39.82177114816386" lon="9.051154803925092"><ele>371.0</ele><time>2026-04-27T08:44:14.84Z</time></trkpt><trkpt lat="39.8216390920372" lon="9.051290790939035"><ele>373.0</ele><time>2026-04-27T08:44:15.84Z</time></trkpt><trkpt lat="39.82153540315872" lon="9.051488398346617"><ele>375.0</ele><time>2026-04-27T08:44:16.84Z</time></trkpt><trkpt lat="39.821484691211644" lon="9.051740962694698"><ele>377.0</ele><time>2026-04-27T08:44:17.84Z</time></trkpt><trkpt lat="39.82147623171057" lon="9.05198380048569"><ele>377.0</ele><time>2026-04-27T08:44:18.84Z</time></trkpt><trkpt lat="39.82145006956136" lon="9.05219198563159"><ele>377.0</ele><time>2026-04-27T08:44:19.84Z</time></trkpt><trkpt lat="39.82136051759398" lon="9.05233229883545"><ele>377.0</ele><time>2026-04-27T08:44:20.84Z</time></trkpt><trkpt lat="39.82121291120287" lon="9.052382003242895"><ele>377.0</ele><time>2026-04-27T08:44:21.84Z</time></trkpt><trkpt lat="39.82103160374075" lon="9.052348902298428"><ele>377.0</ele><time>2026-04-27T08:44:22.84Z</time></trkpt><trkpt lat="39.82084966683428" lon="9.052342013263887"><ele>377.0</ele><time>2026-04-27T08:44:23.84Z</time></trkpt><trkpt lat="39.82071115989985" lon="9.052480535675596"><ele>375.0</ele><time>2026-04-27T08:44:24.839Z</time></trkpt><trkpt lat="39.82061213307806" lon="9.052650245886968"><ele>373.0</ele><time>2026-04-27T08:44:25.839Z</time></trkpt><trkpt lat="39.82050424215867" lon="9.052736465069808"><ele>371.0</ele><time>2026-04-27T08:44:26.839Z</time></trkpt><trkpt lat="39.82037364022388" lon="9.052694457861998"><ele>369.0</ele><time>2026-04-27T08:44:27.839Z</time></trkpt><trkpt lat="39.820246393900526" lon="9.052564641094193"><ele>368.0</ele><time>2026-04-27T08:44:28.839Z</time></trkpt><trkpt lat="39.82011385296909" lon="9.052450427531902"><ele>367.0</ele><time>2026-04-27T08:44:29.839Z</time></trkpt><trkpt lat="39.819945820706444" lon="9.052469082971994"><ele>366.0</ele><time>2026-04-27T08:44:30.839Z</time></trkpt><trkpt lat="39.81977932513577" lon="9.052575701762988"><ele>366.0</ele><time>2026-04-27T08:44:31.839Z</time></trkpt><trkpt lat="39.819622492137746" lon="9.052735764209675"><ele>366.0</ele><time>2026-04-27T08:44:32.839Z</time></trkpt><trkpt lat="39.81950452947155" lon="9.052951098620621"><ele>366.0</ele><time>2026-04-27T08:44:33.839Z</time></trkpt><trkpt lat="39.819429084545035" lon="9.053144072925623"><ele>366.0</ele><time>2026-04-27T08:44:34.839Z</time></trkpt><trkpt lat="39.81932966533557" lon="9.05326364077521"><ele>366.0</ele><time>2026-04-27T08:44:35.839Z</time></trkpt><trkpt lat="39.819181591794376" lon="9.053287034565763"><ele>366.0</ele><time>2026-04-27T08:44:36.839Z</time></trkpt><trkpt lat="39.81899957760985" lon="9.053263529987163"><ele>366.6666666666667</ele><time>2026-04-27T08:44:37.839Z</time></trkpt><trkpt lat="39.81880498642132" lon="9.053306147077075"><ele>367.33333333333337</ele><time>2026-04-27T08:44:38.839Z</time></trkpt><trkpt lat="39.81862253003609" lon="9.053446559344128"><ele>368.0</ele><time>2026-04-27T08:44:39.839Z</time></trkpt><trkpt lat="39.8184567354011" lon="9.053638622124138"><ele>364.5</ele><time>2026-04-27T08:44:40.839Z</time></trkpt><trkpt lat="39.81827988044569" lon="9.053840243204961"><ele>361.0</ele><time>2026-04-27T08:44:41.839Z</time></trkpt><trkpt lat="39.81809698914932" lon="9.054050153003466"><ele>363.5</ele><time>2026-04-27T08:44:42.839Z</time></trkpt><trkpt lat="39.81792560263238" lon="9.05429312760248"><ele>366.0</ele><time>2026-04-27T08:44:43.839Z</time></trkpt><trkpt lat="39.81777319258133" lon="9.05456287520243"><ele>362.0</ele><time>2026-04-27T08:44:44.839Z</time></trkpt><trkpt lat="39.81763258212085" lon="9.05483496198113"><ele>358.0</ele><time>2026-04-27T08:44:45.839Z</time></trkpt><trkpt lat="39.81747007721616" lon="9.05510994977423"><ele>358.0</ele><time>2026-04-27T08:44:46.839Z</time></trkpt><trkpt lat="39.81729374772099" lon="9.055370573296228"><ele>358.0</ele><time>2026-04-27T08:44:47.839Z</time></trkpt><trkpt lat="39.8171016005118" lon="9.055620357083514"><ele>357.0</ele><time>2026-04-27T08:44:48.839Z</time></trkpt><trkpt lat="39.8168950558139" lon="9.055857499597993"><ele>356.0</ele><time>2026-04-27T08:44:49.838Z</time></trkpt><trkpt lat="39.81667952466759" lon="9.056076829853488"><ele>356.0</ele><time>2026-04-27T08:44:50.838Z</time></trkpt><trkpt lat="39.816462159553815" lon="9.056294210677502"><ele>356.0</ele><time>2026-04-27T08:44:51.838Z</time></trkpt><trkpt lat="39.81624103150858" lon="9.056514800767962"><ele>357.0</ele><time>2026-04-27T08:44:52.838Z</time></trkpt><trkpt lat="39.81602520155693" lon="9.056738757134287"><ele>358.0</ele><time>2026-04-27T08:44:53.838Z</time></trkpt><trkpt lat="39.81581152691821" lon="9.056959585939548"><ele>358.0</ele><time>2026-04-27T08:44:54.838Z</time></trkpt><trkpt lat="39.815604789752825" lon="9.057175446323066"><ele>358.0</ele><time>2026-04-27T08:44:55.838Z</time></trkpt><trkpt lat="39.81540284123311" lon="9.057388951447672"><ele>358.5</ele><time>2026-04-27T08:44:56.838Z</time></trkpt><trkpt lat="39.81520000561632" lon="9.057600983254247"><ele>359.0</ele><time>2026-04-27T08:44:57.838Z</time></trkpt><trkpt lat="39.81499865051725" lon="9.057811922697917"><ele>362.0</ele><time>2026-04-27T08:44:58.838Z</time></trkpt><trkpt lat="39.81480059529172" lon="9.05801523606378"><ele>365.0</ele><time>2026-04-27T08:44:59.838Z</time></trkpt><trkpt lat="39.81459627464744" lon="9.058225921948445"><ele>366.0</ele><time>2026-04-27T08:45:00.838Z</time></trkpt><trkpt lat="39.81439476820946" lon="9.058440536155658"><ele>367.0</ele><time>2026-04-27T08:45:01.838Z</time></trkpt><trkpt lat="39.81419507177537" lon="9.058654063906127"><ele>370.0</ele><time>2026-04-27T08:45:02.838Z</time></trkpt><trkpt lat="39.81399637664483" lon="9.05887612822072"><ele>373.0</ele><time>2026-04-27T08:45:03.838Z</time></trkpt><trkpt lat="39.81380549691478" lon="9.059111529820697"><ele>373.5</ele><time>2026-04-27T08:45:04.838Z</time></trkpt><trkpt lat="39.81362068807695" lon="9.059349766320569"><ele>374.0</ele><time>2026-04-27T08:45:05.838Z</time></trkpt><trkpt lat="39.81343986871109" lon="9.059589802206526"><ele>375.5</ele><time>2026-04-27T08:45:06.838Z</time></trkpt><trkpt lat="39.81325506706691" lon="9.059828238934816"><ele>377.0</ele><time>2026-04-27T08:45:07.838Z</time></trkpt><trkpt lat="39.81306416927914" lon="9.060069366257245"><ele>377.0</ele><time>2026-04-27T08:45:08.838Z</time></trkpt><trkpt lat="39.81287532993672" lon="9.060313975161025"><ele>377.0</ele><time>2026-04-27T08:45:09.838Z</time></trkpt><trkpt lat="39.81268322468251" lon="9.06056167869975"><ele>380.0</ele><time>2026-04-27T08:45:10.838Z</time></trkpt><trkpt lat="39.81249122448513" lon="9.060810163320625"><ele>383.0</ele><time>2026-04-27T08:45:11.838Z</time></trkpt><trkpt lat="39.812301868373396" lon="9.061057224238906"><ele>383.0</ele><time>2026-04-27T08:45:12.838Z</time></trkpt><trkpt lat="39.81211016054333" lon="9.061305103640356"><ele>383.0</ele><time>2026-04-27T08:45:13.838Z</time></trkpt><trkpt lat="39.81191586321629" lon="9.061553515517815"><ele>385.0</ele><time>2026-04-27T08:45:14.837Z</time></trkpt><trkpt lat="39.81171986872171" lon="9.06180078456521"><ele>387.0</ele><time>2026-04-27T08:45:15.837Z</time></trkpt><trkpt lat="39.811520229555676" lon="9.06204918307318"><ele>387.0</ele><time>2026-04-27T08:45:16.837Z</time></trkpt><trkpt lat="39.81132249715371" lon="9.062299933772259"><ele>387.0</ele><time>2026-04-27T08:45:17.837Z</time></trkpt><trkpt lat="39.81112517537455" lon="9.062552227997397"><ele>385.0</ele><time>2026-04-27T08:45:18.837Z</time></trkpt><trkpt lat="39.810931238077856" lon="9.062802747154034"><ele>383.0</ele><time>2026-04-27T08:45:19.837Z</time></trkpt><trkpt lat="39.810738139290834" lon="9.06304774261493"><ele>384.5</ele><time>2026-04-27T08:45:20.837Z</time></trkpt><trkpt lat="39.8105492075921" lon="9.063294631785537"><ele>386.0</ele><time>2026-04-27T08:45:21.837Z</time></trkpt><trkpt lat="39.81036065591564" lon="9.063543704962305"><ele>386.0</ele><time>2026-04-27T08:45:22.837Z</time></trkpt><trkpt lat="39.81017404342945" lon="9.06378895277066"><ele>386.0</ele><time>2026-04-27T08:45:23.837Z</time></trkpt><trkpt lat="39.80998438372342" lon="9.064030427196176"><ele>387.0</ele><time>2026-04-27T08:45:24.837Z</time></trkpt><trkpt lat="39.80979090762443" lon="9.064271699644495"><ele>388.0</ele><time>2026-04-27T08:45:25.837Z</time></trkpt><trkpt lat="39.809598222066896" lon="9.064510891970414"><ele>388.0</ele><time>2026-04-27T08:45:26.837Z</time></trkpt><trkpt lat="39.80940332444144" lon="9.064754906367039"><ele>388.0</ele><time>2026-04-27T08:45:27.837Z</time></trkpt><trkpt lat="39.80921207170079" lon="9.065000661250219"><ele>388.0</ele><time>2026-04-27T08:45:28.837Z</time></trkpt><trkpt lat="39.80901993280742" lon="9.065247214376088"><ele>388.0</ele><time>2026-04-27T08:45:29.837Z</time></trkpt><trkpt lat="39.80882780023367" lon="9.065495475136764"><ele>388.0</ele><time>2026-04-27T08:45:30.837Z</time></trkpt><trkpt lat="39.80863074706241" lon="9.065742499598157"><ele>388.0</ele><time>2026-04-27T08:45:31.837Z</time></trkpt><trkpt lat="39.808436072274034" lon="9.065999993838629"><ele>385.5</ele><time>2026-04-27T08:45:32.837Z</time></trkpt><trkpt lat="39.808237459122644" lon="9.066255097703458"><ele>383.0</ele><time>2026-04-27T08:45:33.837Z</time></trkpt><trkpt lat="39.808042816889" lon="9.066502471159783"><ele>384.5</ele><time>2026-04-27T08:45:34.837Z</time></trkpt><trkpt lat="39.80785924929346" lon="9.066738695999748"><ele>386.0</ele><time>2026-04-27T08:45:35.837Z</time></trkpt><trkpt lat="39.807680368974985" lon="9.066964010356727"><ele>385.66666666666663</ele><time>2026-04-27T08:45:36.837Z</time></trkpt><trkpt lat="39.80752232813138" lon="9.067174243605129"><ele>385.33333333333337</ele><time>2026-04-27T08:45:37.837Z</time></trkpt><trkpt lat="39.80737320000301" lon="9.067375055768006"><ele>385.0</ele><time>2026-04-27T08:45:38.837Z</time></trkpt><trkpt lat="39.807224844787804" lon="9.067553004607493"><ele>385.0</ele><time>2026-04-27T08:45:39.836Z</time></trkpt><trkpt lat="39.80707094267074" lon="9.067729592176608"><ele>385.0</ele><time>2026-04-27T08:45:40.836Z</time></trkpt><trkpt lat="39.8069226428487" lon="9.067912783070339"><ele>385.0</ele><time>2026-04-27T08:45:41.836Z</time></trkpt><trkpt lat="39.80677937763962" lon="9.068103155319333"><ele>385.33333333333337</ele><time>2026-04-27T08:45:42.836Z</time></trkpt><trkpt lat="39.806631823453834" lon="9.068293995779015"><ele>385.66666666666663</ele><time>2026-04-27T08:45:43.836Z</time></trkpt><trkpt lat="39.80648279547312" lon="9.06849349869751"><ele>386.0</ele><time>2026-04-27T08:45:44.836Z</time></trkpt><trkpt lat="39.80633721934842" lon="9.068710203929983"><ele>386.0</ele><time>2026-04-27T08:45:45.836Z</time></trkpt><trkpt lat="39.80620003020762" lon="9.06894366350809"><ele>386.0</ele><time>2026-04-27T08:45:46.836Z</time></trkpt><trkpt lat="39.8060711128272" lon="9.06919203326015"><ele>385.0</ele><time>2026-04-27T08:45:47.836Z</time></trkpt><trkpt lat="39.80593971037202" lon="9.069446474771127"><ele>384.0</ele><time>2026-04-27T08:45:48.836Z</time></trkpt><trkpt lat="39.80580743412387" lon="9.069702530175144"><ele>385.0</ele><time>2026-04-27T08:45:49.836Z</time></trkpt><trkpt lat="39.80567067992871" lon="9.06996220470675"><ele>386.0</ele><time>2026-04-27T08:45:50.836Z</time></trkpt><trkpt lat="39.805531066674476" lon="9.070234534817331"><ele>386.0</ele><time>2026-04-27T08:45:51.836Z</time></trkpt><trkpt lat="39.8053866569101" lon="9.07051150318311"><ele>386.0</ele><time>2026-04-27T08:45:52.836Z</time></trkpt><trkpt lat="39.805238579168545" lon="9.070792931355495"><ele>384.0</ele><time>2026-04-27T08:45:53.836Z</time></trkpt><trkpt lat="39.805088376254155" lon="9.071083628591467"><ele>382.0</ele><time>2026-04-27T08:45:54.836Z</time></trkpt><trkpt lat="39.804939261045625" lon="9.07137775691863"><ele>382.5</ele><time>2026-04-27T08:45:55.836Z</time></trkpt><trkpt lat="39.804790350497605" lon="9.071673053291734"><ele>383.0</ele><time>2026-04-27T08:45:56.836Z</time></trkpt><trkpt lat="39.80463867323322" lon="9.071967505027045"><ele>383.0</ele><time>2026-04-27T08:45:57.836Z</time></trkpt><trkpt lat="39.80448696086462" lon="9.072265249447792"><ele>383.0</ele><time>2026-04-27T08:45:58.836Z</time></trkpt><trkpt lat="39.804336468455794" lon="9.072563341660402"><ele>382.0</ele><time>2026-04-27T08:45:59.836Z</time></trkpt><trkpt lat="39.80418705512511" lon="9.072856603306649"><ele>381.0</ele><time>2026-04-27T08:46:00.836Z</time></trkpt><trkpt lat="39.804041600447974" lon="9.073144801536142"><ele>381.5</ele><time>2026-04-27T08:46:01.836Z</time></trkpt><trkpt lat="39.80390077435368" lon="9.073430609142745"><ele>382.0</ele><time>2026-04-27T08:46:02.836Z</time></trkpt><trkpt lat="39.803757592212385" lon="9.073708775842896"><ele>382.0</ele><time>2026-04-27T08:46:03.836Z</time></trkpt><trkpt lat="39.80361527330061" lon="9.073982162093664"><ele>382.0</ele><time>2026-04-27T08:46:04.835Z</time></trkpt><trkpt lat="39.803471350086845" lon="9.074256221528561"><ele>381.5</ele><time>2026-04-27T08:46:05.835Z</time></trkpt><trkpt lat="39.80332829449075" lon="9.074531419534084"><ele>381.0</ele><time>2026-04-27T08:46:06.835Z</time></trkpt><trkpt lat="39.803182896822115" lon="9.074806845867968"><ele>383.5</ele><time>2026-04-27T08:46:07.835Z</time></trkpt><trkpt lat="39.803041311977566" lon="9.075085834340364"><ele>386.0</ele><time>2026-04-27T08:46:08.837Z</time></trkpt><trkpt lat="39.80290060173695" lon="9.075364484990368"><ele>386.0</ele><time>2026-04-27T08:46:09.837Z</time></trkpt><trkpt lat="39.802756217643136" lon="9.075643324381137"><ele>386.0</ele><time>2026-04-27T08:46:10.837Z</time></trkpt><trkpt lat="39.802616566826266" lon="9.075921262397504"><ele>386.5</ele><time>2026-04-27T08:46:11.837Z</time></trkpt><trkpt lat="39.802469769650564" lon="9.076191037254983"><ele>387.0</ele><time>2026-04-27T08:46:12.837Z</time></trkpt><trkpt lat="39.80231233962732" lon="9.076447089896657"><ele>391.5</ele><time>2026-04-27T08:46:13.837Z</time></trkpt><trkpt lat="39.802146347736205" lon="9.076697197768254"><ele>396.0</ele><time>2026-04-27T08:46:14.837Z</time></trkpt><trkpt lat="39.80196842584452" lon="9.076938528778348"><ele>392.5</ele><time>2026-04-27T08:46:15.837Z</time></trkpt><trkpt lat="39.801786182366705" lon="9.07716996431802"><ele>389.0</ele><time>2026-04-27T08:46:16.837Z</time></trkpt><trkpt lat="39.80159364606878" lon="9.077396691270646"><ele>393.5</ele><time>2026-04-27T08:46:17.837Z</time></trkpt><trkpt lat="39.80138760301271" lon="9.07761246382717"><ele>398.0</ele><time>2026-04-27T08:46:18.837Z</time></trkpt><trkpt lat="39.801172679844115" lon="9.077814964257449"><ele>396.0</ele><time>2026-04-27T08:46:19.836Z</time></trkpt><trkpt lat="39.80094794481449" lon="9.077992187588865"><ele>394.0</ele><time>2026-04-27T08:46:20.837Z</time></trkpt><trkpt lat="39.80072462449145" lon="9.078168589311574"><ele>396.5</ele><time>2026-04-27T08:46:21.836Z</time></trkpt><trkpt lat="39.80050206066746" lon="9.07834401252807"><ele>399.0</ele><time>2026-04-27T08:46:22.836Z</time></trkpt><trkpt lat="39.80028408163004" lon="9.078520427146238"><ele>398.0</ele><time>2026-04-27T08:46:23.836Z</time></trkpt><trkpt lat="39.80006820043305" lon="9.078693932189058"><ele>397.0</ele><time>2026-04-27T08:46:24.836Z</time></trkpt><trkpt lat="39.79984798601842" lon="9.078871599852567"><ele>397.0</ele><time>2026-04-27T08:46:25.836Z</time></trkpt><trkpt lat="39.799619841747216" lon="9.079055520382838"><ele>397.0</ele><time>2026-04-27T08:46:26.836Z</time></trkpt><trkpt lat="39.79938597931275" lon="9.079238856265157"><ele>395.0</ele><time>2026-04-27T08:46:27.836Z</time></trkpt><trkpt lat="39.799147870719274" lon="9.079418910721719"><ele>393.0</ele><time>2026-04-27T08:46:28.836Z</time></trkpt><trkpt lat="39.79891358401752" lon="9.079604702478596"><ele>393.0</ele><time>2026-04-27T08:46:29.836Z</time></trkpt><trkpt lat="39.7986777568083" lon="9.079790619254114"><ele>393.0</ele><time>2026-04-27T08:46:30.836Z</time></trkpt><trkpt lat="39.79844364247716" lon="9.079976393743076"><ele>391.5</ele><time>2026-04-27T08:46:31.836Z</time></trkpt><trkpt lat="39.798209022722496" lon="9.080160878973375"><ele>390.0</ele><time>2026-04-27T08:46:32.836Z</time></trkpt><trkpt lat="39.797974346252744" lon="9.080346835677265"><ele>390.0</ele><time>2026-04-27T08:46:33.836Z</time></trkpt><trkpt lat="39.79774505273609" lon="9.08053012345318"><ele>390.0</ele><time>2026-04-27T08:46:34.836Z</time></trkpt><trkpt lat="39.797518151604265" lon="9.080711022526295"><ele>386.5</ele><time>2026-04-27T08:46:35.836Z</time></trkpt><trkpt lat="39.79729287618219" lon="9.08089016251217"><ele>383.0</ele><time>2026-04-27T08:46:36.836Z</time></trkpt><trkpt lat="39.79707156923064" lon="9.081071958263356"><ele>383.0</ele><time>2026-04-27T08:46:37.836Z</time></trkpt><trkpt lat="39.79685034329181" lon="9.081250336431212"><ele>383.0</ele><time>2026-04-27T08:46:38.836Z</time></trkpt><trkpt lat="39.796632174109696" lon="9.081428804892191"><ele>381.0</ele><time>2026-04-27T08:46:39.836Z</time></trkpt><trkpt lat="39.79641586958204" lon="9.08160114230014"><ele>379.0</ele><time>2026-04-27T08:46:40.836Z</time></trkpt><trkpt lat="39.7962017793317" lon="9.081764097065317"><ele>378.0</ele><time>2026-04-27T08:46:41.836Z</time></trkpt><trkpt lat="39.79598497717262" lon="9.081901033888728"><ele>377.0</ele><time>2026-04-27T08:46:42.835Z</time></trkpt><trkpt lat="39.79576263494896" lon="9.081994864476975"><ele>377.0</ele><time>2026-04-27T08:46:43.835Z</time></trkpt><trkpt lat="39.79553101516436" lon="9.082059896025344"><ele>377.0</ele><time>2026-04-27T08:46:44.835Z</time></trkpt><trkpt lat="39.7952998238153" lon="9.08209563186649"><ele>377.5</ele><time>2026-04-27T08:46:45.835Z</time></trkpt><trkpt lat="39.795066583210144" lon="9.082091007584497"><ele>378.0</ele><time>2026-04-27T08:46:46.835Z</time></trkpt><trkpt lat="39.794828010723904" lon="9.08204850812149"><ele>378.0</ele><time>2026-04-27T08:46:47.835Z</time></trkpt><trkpt lat="39.79459376562019" lon="9.081965403067567"><ele>378.0</ele><time>2026-04-27T08:46:48.835Z</time></trkpt><trkpt lat="39.794364161548835" lon="9.081848398598613"><ele>377.5</ele><time>2026-04-27T08:46:49.835Z</time></trkpt><trkpt lat="39.79414141552677" lon="9.081698120884734"><ele>377.0</ele><time>2026-04-27T08:46:50.835Z</time></trkpt><trkpt lat="39.793928026930786" lon="9.081532243404288"><ele>377.0</ele><time>2026-04-27T08:46:51.835Z</time></trkpt><trkpt lat="39.79373589294975" lon="9.081348120810137"><ele>377.0</ele><time>2026-04-27T08:46:52.835Z</time></trkpt><trkpt lat="39.79356960781529" lon="9.081162791121889"><ele>378.33333333333337</ele><time>2026-04-27T08:46:53.835Z</time></trkpt><trkpt lat="39.793419373565754" lon="9.08098347163608"><ele>379.6666666666667</ele><time>2026-04-27T08:46:54.835Z</time></trkpt><trkpt lat="39.793298525781395" lon="9.080799881647838"><ele>381.0</ele><time>2026-04-27T08:46:55.835Z</time></trkpt><trkpt lat="39.793200907415276" lon="9.080613655102441"><ele>381.0</ele><time>2026-04-27T08:46:56.835Z</time></trkpt><trkpt lat="39.79311872811845" lon="9.080437893404659"><ele>381.0</ele><time>2026-04-27T08:46:57.835Z</time></trkpt><trkpt lat="39.793043979109726" lon="9.080266192741565"><ele>381.0</ele><time>2026-04-27T08:46:58.835Z</time></trkpt><trkpt lat="39.79297910394909" lon="9.080110473060019"><ele>381.0</ele><time>2026-04-27T08:46:59.835Z</time></trkpt><trkpt lat="39.792916488515985" lon="9.079967800252037"><ele>379.4</ele><time>2026-04-27T08:47:00.835Z</time></trkpt><trkpt lat="39.792856661733815" lon="9.079833868238133"><ele>377.8</ele><time>2026-04-27T08:47:01.835Z</time></trkpt><trkpt lat="39.792803693383775" lon="9.079711585977979"><ele>376.2</ele><time>2026-04-27T08:47:02.835Z</time></trkpt><trkpt lat="39.79275179515696" lon="9.07960279263877"><ele>374.59999999999997</ele><time>2026-04-27T08:47:03.835Z</time></trkpt><trkpt lat="39.79270770350237" lon="9.079497325812513"><ele>373.0</ele><time>2026-04-27T08:47:04.835Z</time></trkpt><trkpt lat="39.79266074727496" lon="9.079402238200824"><ele>373.8333333333333</ele><time>2026-04-27T08:47:05.835Z</time></trkpt><trkpt lat="39.79262149581853" lon="9.079300560849218"><ele>374.66666666666663</ele><time>2026-04-27T08:47:06.835Z</time></trkpt><trkpt lat="39.79257738003482" lon="9.0792011235551"><ele>375.5</ele><time>2026-04-27T08:47:07.834Z</time></trkpt><trkpt lat="39.79252859426195" lon="9.079100180116363"><ele>376.3333333333333</ele><time>2026-04-27T08:47:08.834Z</time></trkpt><trkpt lat="39.79248500787807" lon="9.07900260250583"><ele>377.1666666666667</ele><time>2026-04-27T08:47:09.834Z</time></trkpt><trkpt lat="39.79244066076754" lon="9.078930618083719"><ele>378.0</ele><time>2026-04-27T08:47:10.834Z</time></trkpt><trkpt lat="39.7923878619062" lon="9.078873364443185"><ele>378.0</ele><time>2026-04-27T08:47:11.834Z</time></trkpt><trkpt lat="39.79232497077932" lon="9.078842809500747"><ele>378.0</ele><time>2026-04-27T08:47:12.834Z</time></trkpt><trkpt lat="39.79225088475855" lon="9.07883918280748"><ele>378.0</ele><time>2026-04-27T08:47:13.834Z</time></trkpt><trkpt lat="39.79217774843983" lon="9.07886445617593"><ele>378.0</ele><time>2026-04-27T08:47:14.834Z</time></trkpt><trkpt lat="39.79210405347654" lon="9.078920991027987"><ele>378.0</ele><time>2026-04-27T08:47:15.834Z</time></trkpt><trkpt lat="39.7920328548467" lon="9.078984773574357"><ele>378.0</ele><time>2026-04-27T08:47:16.834Z</time></trkpt><trkpt lat="39.791962798902404" lon="9.079039540780556"><ele>378.0</ele><time>2026-04-27T08:47:17.834Z</time></trkpt><trkpt lat="39.791892572425674" lon="9.079090244546824"><ele>378.0</ele><time>2026-04-27T08:47:18.834Z</time></trkpt><trkpt lat="39.791818935327306" lon="9.079139055458187"><ele>378.0</ele><time>2026-04-27T08:47:19.834Z</time></trkpt><trkpt lat="39.79174497053941" lon="9.079179727990587"><ele>378.0</ele><time>2026-04-27T08:47:20.834Z</time></trkpt><trkpt lat="39.79167051272128" lon="9.079211097664942"><ele>378.0</ele><time>2026-04-27T08:47:21.834Z</time></trkpt><trkpt lat="39.79159788272346" lon="9.079223329270537"><ele>378.0</ele><time>2026-04-27T08:47:22.834Z</time></trkpt><trkpt lat="39.791527736041" lon="9.079215206947891"><ele>381.1666666666667</ele><time>2026-04-27T08:47:23.834Z</time></trkpt><trkpt lat="39.79146035191222" lon="9.079201482031783"><ele>384.33333333333337</ele><time>2026-04-27T08:47:24.834Z</time></trkpt><trkpt lat="39.79138942738865" lon="9.079192348723302"><ele>387.5</ele><time>2026-04-27T08:47:25.834Z</time></trkpt><trkpt lat="39.79132040070177" lon="9.079180214569133"><ele>390.6666666666667</ele><time>2026-04-27T08:47:26.834Z</time></trkpt><trkpt lat="39.791254895537385" lon="9.079166756204872"><ele>393.83333333333337</ele><time>2026-04-27T08:47:27.834Z</time></trkpt><trkpt lat="39.791190909499086" lon="9.079149717750072"><ele>397.0</ele><time>2026-04-27T08:47:28.834Z</time></trkpt><trkpt lat="39.79107759352255" lon="9.079143139177532"><ele>397.0</ele><time>2026-04-27T08:47:30.834Z</time></trkpt><trkpt lat="39.79096283269468" lon="9.07919854313503"><ele>397.0</ele><time>2026-04-27T08:47:32.833Z</time></trkpt><trkpt lat="39.79089378475301" lon="9.079231207410313"><ele>397.0</ele><time>2026-04-27T08:47:33.833Z</time></trkpt><trkpt lat="39.79081049158329" lon="9.079257566799114"><ele>397.0</ele><time>2026-04-27T08:47:34.833Z</time></trkpt><trkpt lat="39.79072384458253" lon="9.079278138226023"><ele>397.0</ele><time>2026-04-27T08:47:35.833Z</time></trkpt><trkpt lat="39.79063534449457" lon="9.079300877498396"><ele>397.0</ele><time>2026-04-27T08:47:36.833Z</time></trkpt><trkpt lat="39.79054518877447" lon="9.079325511085344"><ele>397.0</ele><time>2026-04-27T08:47:37.833Z</time></trkpt><trkpt lat="39.79044688781499" lon="9.079345863048662"><ele>397.0</ele><time>2026-04-27T08:47:38.833Z</time></trkpt><trkpt lat="39.790352544963746" lon="9.079364838073111"><ele>397.0</ele><time>2026-04-27T08:47:39.833Z</time></trkpt><trkpt lat="39.790253421525634" lon="9.079389282723183"><ele>397.0</ele><time>2026-04-27T08:47:40.833Z</time></trkpt><trkpt lat="39.79015479250448" lon="9.07941692117068"><ele>396.20000000000005</ele><time>2026-04-27T08:47:41.833Z</time></trkpt><trkpt lat="39.790051543078576" lon="9.079449055603211"><ele>395.4</ele><time>2026-04-27T08:47:42.833Z</time></trkpt><trkpt lat="39.789950896091476" lon="9.079479627708189"><ele>394.6</ele><time>2026-04-27T08:47:43.833Z</time></trkpt><trkpt lat="39.789848810023905" lon="9.079510613678961"><ele>393.79999999999995</ele><time>2026-04-27T08:47:44.833Z</time></trkpt><trkpt lat="39.78974785289583" lon="9.079541600699216"><ele>393.0</ele><time>2026-04-27T08:47:45.833Z</time></trkpt><trkpt lat="39.789641913830586" lon="9.079569565567585"><ele>393.0</ele><time>2026-04-27T08:47:46.833Z</time></trkpt><trkpt lat="39.78953059693171" lon="9.07959152866452"><ele>393.0</ele><time>2026-04-27T08:47:47.833Z</time></trkpt><trkpt lat="39.78942071862659" lon="9.07960734303882"><ele>393.0</ele><time>2026-04-27T08:47:48.833Z</time></trkpt><trkpt lat="39.789317955613505" lon="9.079621198451871"><ele>393.0</ele><time>2026-04-27T08:47:49.833Z</time></trkpt><trkpt lat="39.78921892876597" lon="9.079620017182377"><ele>393.0</ele><time>2026-04-27T08:47:50.833Z</time></trkpt><trkpt lat="39.78912281172186" lon="9.079586830780691"><ele>392.59999999999997</ele><time>2026-04-27T08:47:51.833Z</time></trkpt><trkpt lat="39.78903533938583" lon="9.079537471312058"><ele>392.2</ele><time>2026-04-27T08:47:52.833Z</time></trkpt><trkpt lat="39.78896144171989" lon="9.079452290135533"><ele>391.8</ele><time>2026-04-27T08:47:53.833Z</time></trkpt><trkpt lat="39.78889494579029" lon="9.079329906892617"><ele>391.4</ele><time>2026-04-27T08:47:54.833Z</time></trkpt><trkpt lat="39.78883575700798" lon="9.07920413759866"><ele>391.0</ele><time>2026-04-27T08:47:55.833Z</time></trkpt><trkpt lat="39.78876834117283" lon="9.079080314357846"><ele>391.0</ele><time>2026-04-27T08:47:56.833Z</time></trkpt><trkpt lat="39.78869958922063" lon="9.078949222066806"><ele>391.0</ele><time>2026-04-27T08:47:57.832Z</time></trkpt><trkpt lat="39.788626847878" lon="9.078819037784307"><ele>391.0</ele><time>2026-04-27T08:47:58.832Z</time></trkpt><trkpt lat="39.788540829600535" lon="9.078698251103088"><ele>391.0</ele><time>2026-04-27T08:47:59.832Z</time></trkpt><trkpt lat="39.78844125611659" lon="9.078588755639492"><ele>389.0</ele><time>2026-04-27T08:48:00.832Z</time></trkpt><trkpt lat="39.788331254057596" lon="9.07847942764928"><ele>387.0</ele><time>2026-04-27T08:48:01.832Z</time></trkpt><trkpt lat="39.78821211907133" lon="9.078383155849723"><ele>385.0</ele><time>2026-04-27T08:48:02.832Z</time></trkpt><trkpt lat="39.78809429592683" lon="9.078279417047892"><ele>383.0</ele><time>2026-04-27T08:48:03.832Z</time></trkpt><trkpt lat="39.78797156364573" lon="9.07817322247045"><ele>381.5</ele><time>2026-04-27T08:48:04.832Z</time></trkpt><trkpt lat="39.78785146705396" lon="9.078059576383572"><ele>380.0</ele><time>2026-04-27T08:48:05.832Z</time></trkpt><trkpt lat="39.787730586652664" lon="9.077949667684724"><ele>378.5</ele><time>2026-04-27T08:48:06.832Z</time></trkpt><trkpt lat="39.78760195649545" lon="9.077841712063744"><ele>377.0</ele><time>2026-04-27T08:48:07.832Z</time></trkpt><trkpt lat="39.78747436643711" lon="9.077735090180555"><ele>376.75</ele><time>2026-04-27T08:48:08.832Z</time></trkpt><trkpt lat="39.78734907269394" lon="9.077626009676436"><ele>376.5</ele><time>2026-04-27T08:48:09.832Z</time></trkpt><trkpt lat="39.787222004315964" lon="9.077518573854817"><ele>376.25</ele><time>2026-04-27T08:48:10.832Z</time></trkpt><trkpt lat="39.78709791147073" lon="9.077422212704006"><ele>376.0</ele><time>2026-04-27T08:48:11.832Z</time></trkpt><trkpt lat="39.78698096433231" lon="9.077335717276794"><ele>375.5</ele><time>2026-04-27T08:48:12.832Z</time></trkpt><trkpt lat="39.78687180400729" lon="9.077252787090822"><ele>375.0</ele><time>2026-04-27T08:48:13.834Z</time></trkpt><trkpt lat="39.78678057992281" lon="9.077155481797963"><ele>374.5</ele><time>2026-04-27T08:48:14.834Z</time></trkpt><trkpt lat="39.7867054813978" lon="9.077050356861193"><ele>374.0</ele><time>2026-04-27T08:48:15.834Z</time></trkpt><trkpt lat="39.786641934386466" lon="9.07695315798631"><ele>373.6</ele><time>2026-04-27T08:48:16.834Z</time></trkpt><trkpt lat="39.78659574815186" lon="9.076853034422518"><ele>373.2</ele><time>2026-04-27T08:48:17.833Z</time></trkpt><trkpt lat="39.78657017785317" lon="9.076732899301282"><ele>372.8</ele><time>2026-04-27T08:48:18.833Z</time></trkpt><trkpt lat="39.78656655151482" lon="9.076593246887576"><ele>372.40000000000003</ele><time>2026-04-27T08:48:19.834Z</time></trkpt><trkpt lat="39.78657389103166" lon="9.076439166471152"><ele>372.0</ele><time>2026-04-27T08:48:20.833Z</time></trkpt><trkpt lat="39.78657711494523" lon="9.076274897404486"><ele>371.5</ele><time>2026-04-27T08:48:21.833Z</time></trkpt><trkpt lat="39.78657924715227" lon="9.076094560745798"><ele>371.0</ele><time>2026-04-27T08:48:22.833Z</time></trkpt><trkpt lat="39.78658111985483" lon="9.075904846964072"><ele>370.5</ele><time>2026-04-27T08:48:23.833Z</time></trkpt><trkpt lat="39.78658103135258" lon="9.075701141335974"><ele>370.0</ele><time>2026-04-27T08:48:24.833Z</time></trkpt><trkpt lat="39.786582472678404" lon="9.075491519931417"><ele>369.3333333333333</ele><time>2026-04-27T08:48:25.833Z</time></trkpt><trkpt lat="39.7865895961719" lon="9.075278826545048"><ele>368.6666666666667</ele><time>2026-04-27T08:48:26.833Z</time></trkpt><trkpt lat="39.78658929907213" lon="9.07505695396874"><ele>368.0</ele><time>2026-04-27T08:48:27.833Z</time></trkpt><trkpt lat="39.786588841563066" lon="9.074830047957956"><ele>367.6666666666667</ele><time>2026-04-27T08:48:28.833Z</time></trkpt><trkpt lat="39.78658813828087" lon="9.074593363958712"><ele>367.3333333333333</ele><time>2026-04-27T08:48:29.833Z</time></trkpt><trkpt lat="39.78659099895355" lon="9.074351553508775"><ele>367.0</ele><time>2026-04-27T08:48:30.833Z</time></trkpt><trkpt lat="39.78659601792835" lon="9.074096828993735"><ele>366.66666666666663</ele><time>2026-04-27T08:48:31.833Z</time></trkpt><trkpt lat="39.78659662089843" lon="9.07383123197181"><ele>366.3333333333333</ele><time>2026-04-27T08:48:32.833Z</time></trkpt><trkpt lat="39.786594606735896" lon="9.073552868011072"><ele>366.0</ele><time>2026-04-27T08:48:33.833Z</time></trkpt><trkpt lat="39.78659353338641" lon="9.073266131740958"><ele>365.5</ele><time>2026-04-27T08:48:34.833Z</time></trkpt><trkpt lat="39.78660134374508" lon="9.072974314386752"><ele>365.0</ele><time>2026-04-27T08:48:35.833Z</time></trkpt><trkpt lat="39.786609383224075" lon="9.072672798973615"><ele>364.5</ele><time>2026-04-27T08:48:36.833Z</time></trkpt><trkpt lat="39.78661397225585" lon="9.072367019407178"><ele>364.0</ele><time>2026-04-27T08:48:37.833Z</time></trkpt><trkpt lat="39.78661894748389" lon="9.072059088673258"><ele>364.0</ele><time>2026-04-27T08:48:38.833Z</time></trkpt><trkpt lat="39.78662378692968" lon="9.071748409216324"><ele>364.0</ele><time>2026-04-27T08:48:39.833Z</time></trkpt><trkpt lat="39.78662924184172" lon="9.071434960269833"><ele>364.0</ele><time>2026-04-27T08:48:40.833Z</time></trkpt><trkpt lat="39.78663016515897" lon="9.07112813239165"><ele>364.0</ele><time>2026-04-27T08:48:41.833Z</time></trkpt><trkpt lat="39.78663279306085" lon="9.070815713968965"><ele>362.0</ele><time>2026-04-27T08:48:42.833Z</time></trkpt><trkpt lat="39.786631179650904" lon="9.070500619894966"><ele>360.0</ele><time>2026-04-27T08:48:43.833Z</time></trkpt><trkpt lat="39.78663449623831" lon="9.07017328534122"><ele>359.0</ele><time>2026-04-27T08:48:44.833Z</time></trkpt><trkpt lat="39.786644595591824" lon="9.069840365185934"><ele>358.0</ele><time>2026-04-27T08:48:45.833Z</time></trkpt><trkpt lat="39.786646042486794" lon="9.069499328446721"><ele>358.0</ele><time>2026-04-27T08:48:46.833Z</time></trkpt><trkpt lat="39.78665032796057" lon="9.06915492449212"><ele>358.0</ele><time>2026-04-27T08:48:47.833Z</time></trkpt><trkpt lat="39.78664549130081" lon="9.068806699514411"><ele>357.0</ele><time>2026-04-27T08:48:48.833Z</time></trkpt><trkpt lat="39.786628867600115" lon="9.068459600000189"><ele>356.0</ele><time>2026-04-27T08:48:49.833Z</time></trkpt><trkpt lat="39.78659674160084" lon="9.068123504216217"><ele>355.5</ele><time>2026-04-27T08:48:50.832Z</time></trkpt><trkpt lat="39.786555267770034" lon="9.067791417259892"><ele>355.0</ele><time>2026-04-27T08:48:51.832Z</time></trkpt><trkpt lat="39.78651342599798" lon="9.067460950075988"><ele>355.0</ele><time>2026-04-27T08:48:52.832Z</time></trkpt><trkpt lat="39.786469622066356" lon="9.067129226778317"><ele>355.0</ele><time>2026-04-27T08:48:53.832Z</time></trkpt><trkpt lat="39.786421750771254" lon="9.066793532054005"><ele>355.5</ele><time>2026-04-27T08:48:54.832Z</time></trkpt><trkpt lat="39.786368832887305" lon="9.06645443590596"><ele>356.0</ele><time>2026-04-27T08:48:55.832Z</time></trkpt><trkpt lat="39.78631375798692" lon="9.066120010752876"><ele>356.0</ele><time>2026-04-27T08:48:56.832Z</time></trkpt><trkpt lat="39.78626344727387" lon="9.065782482482838"><ele>356.0</ele><time>2026-04-27T08:48:57.832Z</time></trkpt><trkpt lat="39.78621421817811" lon="9.065446613636038"><ele>355.0</ele><time>2026-04-27T08:48:58.832Z</time></trkpt><trkpt lat="39.786166527306335" lon="9.06511104667281"><ele>354.0</ele><time>2026-04-27T08:48:59.832Z</time></trkpt><trkpt lat="39.786116881543265" lon="9.064773660380595"><ele>353.5</ele><time>2026-04-27T08:49:00.832Z</time></trkpt><trkpt lat="39.78606765807196" lon="9.064440173187826"><ele>353.0</ele><time>2026-04-27T08:49:01.832Z</time></trkpt><trkpt lat="39.78601496471699" lon="9.064105533856488"><ele>351.5</ele><time>2026-04-27T08:49:02.832Z</time></trkpt><trkpt lat="39.78596368578433" lon="9.063767876607615"><ele>350.0</ele><time>2026-04-27T08:49:03.832Z</time></trkpt><trkpt lat="39.78591261250425" lon="9.063426649899034"><ele>350.0</ele><time>2026-04-27T08:49:04.832Z</time></trkpt><trkpt lat="39.78586137849681" lon="9.063085267839757"><ele>350.0</ele><time>2026-04-27T08:49:05.832Z</time></trkpt><trkpt lat="39.78581072475549" lon="9.062741311957408"><ele>350.0</ele><time>2026-04-27T08:49:06.832Z</time></trkpt><trkpt lat="39.78576070935241" lon="9.062394125253952"><ele>350.0</ele><time>2026-04-27T08:49:07.832Z</time></trkpt><trkpt lat="39.78570921553519" lon="9.062048851567146"><ele>350.0</ele><time>2026-04-27T08:49:08.832Z</time></trkpt><trkpt lat="39.785654247356" lon="9.061701448363653"><ele>350.0</ele><time>2026-04-27T08:49:09.832Z</time></trkpt><trkpt lat="39.78559954021646" lon="9.061357566041648"><ele>350.0</ele><time>2026-04-27T08:49:10.832Z</time></trkpt><trkpt lat="39.78554485178298" lon="9.061019731923363"><ele>350.0</ele><time>2026-04-27T08:49:11.832Z</time></trkpt><trkpt lat="39.78548962197336" lon="9.060682945640263"><ele>349.5</ele><time>2026-04-27T08:49:12.832Z</time></trkpt><trkpt lat="39.78543430447814" lon="9.06034232444848"><ele>349.0</ele><time>2026-04-27T08:49:13.832Z</time></trkpt><trkpt lat="39.785380534383044" lon="9.060004987341957"><ele>348.0</ele><time>2026-04-27T08:49:14.832Z</time></trkpt><trkpt lat="39.7853251387586" lon="9.059669558102014"><ele>347.0</ele><time>2026-04-27T08:49:15.831Z</time></trkpt><trkpt lat="39.785271120220244" lon="9.059335932192214"><ele>347.0</ele><time>2026-04-27T08:49:16.831Z</time></trkpt><trkpt lat="39.78521796279487" lon="9.059002773031725"><ele>347.0</ele><time>2026-04-27T08:49:17.831Z</time></trkpt><trkpt lat="39.78516203870006" lon="9.058670396342936"><ele>345.5</ele><time>2026-04-27T08:49:18.831Z</time></trkpt><trkpt lat="39.78510512584722" lon="9.058338339022043"><ele>344.0</ele><time>2026-04-27T08:49:19.831Z</time></trkpt><trkpt lat="39.785048074244536" lon="9.058009418138841"><ele>344.0</ele><time>2026-04-27T08:49:20.831Z</time></trkpt><trkpt lat="39.78499067181416" lon="9.057679401057126"><ele>344.0</ele><time>2026-04-27T08:49:21.831Z</time></trkpt><trkpt lat="39.784938377972274" lon="9.057345864035717"><ele>344.5</ele><time>2026-04-27T08:49:22.831Z</time></trkpt><trkpt lat="39.7848904582569" lon="9.057011926785943"><ele>345.0</ele><time>2026-04-27T08:49:23.831Z</time></trkpt><trkpt lat="39.784844335631036" lon="9.056673567648943"><ele>344.5</ele><time>2026-04-27T08:49:24.831Z</time></trkpt><trkpt lat="39.78480326497582" lon="9.056330736731772"><ele>344.0</ele><time>2026-04-27T08:49:25.831Z</time></trkpt><trkpt lat="39.784760915253685" lon="9.055984421969049"><ele>344.5</ele><time>2026-04-27T08:49:26.831Z</time></trkpt><trkpt lat="39.78471778617388" lon="9.055634626748592"><ele>345.0</ele><time>2026-04-27T08:49:27.831Z</time></trkpt><trkpt lat="39.78467606982454" lon="9.055278276821802"><ele>344.5</ele><time>2026-04-27T08:49:28.831Z</time></trkpt><trkpt lat="39.78463718866804" lon="9.054919913371249"><ele>344.0</ele><time>2026-04-27T08:49:29.831Z</time></trkpt><trkpt lat="39.784599879720744" lon="9.054561438131739"><ele>344.0</ele><time>2026-04-27T08:49:30.831Z</time></trkpt><trkpt lat="39.784562434714864" lon="9.05420411779729"><ele>344.0</ele><time>2026-04-27T08:49:31.831Z</time></trkpt><trkpt lat="39.784523280894255" lon="9.053848659627947"><ele>343.5</ele><time>2026-04-27T08:49:32.831Z</time></trkpt><trkpt lat="39.784480976750835" lon="9.05349886402923"><ele>343.0</ele><time>2026-04-27T08:49:33.831Z</time></trkpt><trkpt lat="39.78443603664632" lon="9.053153165807847"><ele>343.0</ele><time>2026-04-27T08:49:34.831Z</time></trkpt><trkpt lat="39.78439300417041" lon="9.052810513275771"><ele>343.0</ele><time>2026-04-27T08:49:35.831Z</time></trkpt><trkpt lat="39.78435177479906" lon="9.052474561393566"><ele>340.5</ele><time>2026-04-27T08:49:36.831Z</time></trkpt><trkpt lat="39.78431428630182" lon="9.052144941581938"><ele>338.0</ele><time>2026-04-27T08:49:37.831Z</time></trkpt><trkpt lat="39.78427957932921" lon="9.051820792232931"><ele>338.0</ele><time>2026-04-27T08:49:38.831Z</time></trkpt><trkpt lat="39.78424636180533" lon="9.051499130662359"><ele>338.0</ele><time>2026-04-27T08:49:39.83Z</time></trkpt><trkpt lat="39.78421597039851" lon="9.051179574372014"><ele>338.0</ele><time>2026-04-27T08:49:40.83Z</time></trkpt><trkpt lat="39.78418819799521" lon="9.050864594677874"><ele>338.0</ele><time>2026-04-27T08:49:41.83Z</time></trkpt><trkpt lat="39.78415646535557" lon="9.050549261302319"><ele>337.5</ele><time>2026-04-27T08:49:42.83Z</time></trkpt><trkpt lat="39.78412281293886" lon="9.05023468707524"><ele>337.0</ele><time>2026-04-27T08:49:43.83Z</time></trkpt><trkpt lat="39.78409003478209" lon="9.04992488830068"><ele>337.0</ele><time>2026-04-27T08:49:44.83Z</time></trkpt><trkpt lat="39.784058048084844" lon="9.04962644269285"><ele>337.0</ele><time>2026-04-27T08:49:45.83Z</time></trkpt><trkpt lat="39.78401547733143" lon="9.049330582967269"><ele>338.0</ele><time>2026-04-27T08:49:46.83Z</time></trkpt><trkpt lat="39.783954583288775" lon="9.049040975888612"><ele>339.0</ele><time>2026-04-27T08:49:47.831Z</time></trkpt><trkpt lat="39.78386997656937" lon="9.048756964827117"><ele>339.0</ele><time>2026-04-27T08:49:48.831Z</time></trkpt><trkpt lat="39.78376298382589" lon="9.04848167298558"><ele>339.0</ele><time>2026-04-27T08:49:49.831Z</time></trkpt><trkpt lat="39.78364328489575" lon="9.048218496288541"><ele>339.5</ele><time>2026-04-27T08:49:50.831Z</time></trkpt><trkpt lat="39.78352086999197" lon="9.04795112120934"><ele>340.0</ele><time>2026-04-27T08:49:51.832Z</time></trkpt><trkpt lat="39.78339905665421" lon="9.047683180351559"><ele>341.0</ele><time>2026-04-27T08:49:52.832Z</time></trkpt><trkpt lat="39.78327907206367" lon="9.047407053795089"><ele>342.0</ele><time>2026-04-27T08:49:53.832Z</time></trkpt><trkpt lat="39.783155395136355" lon="9.047132564647454"><ele>342.0</ele><time>2026-04-27T08:49:54.832Z</time></trkpt><trkpt lat="39.7830298123717" lon="9.046859443662662"><ele>342.0</ele><time>2026-04-27T08:49:55.833Z</time></trkpt><trkpt lat="39.78290376117327" lon="9.046583569615438"><ele>343.5</ele><time>2026-04-27T08:49:56.833Z</time></trkpt><trkpt lat="39.782781690012655" lon="9.046304595889557"><ele>345.0</ele><time>2026-04-27T08:49:57.833Z</time></trkpt><trkpt lat="39.78265978650739" lon="9.046024556339402"><ele>346.5</ele><time>2026-04-27T08:49:58.833Z</time></trkpt><trkpt lat="39.78253553228944" lon="9.045743679987417"><ele>348.0</ele><time>2026-04-27T08:49:59.833Z</time></trkpt><trkpt lat="39.78241164533092" lon="9.045460424104666"><ele>348.0</ele><time>2026-04-27T08:50:00.833Z</time></trkpt><trkpt lat="39.78228453018291" lon="9.045175927795796"><ele>348.0</ele><time>2026-04-27T08:50:01.833Z</time></trkpt><trkpt lat="39.78215903327763" lon="9.044891034327089"><ele>349.0</ele><time>2026-04-27T08:50:02.834Z</time></trkpt><trkpt lat="39.782030624897224" lon="9.044608238467811"><ele>350.0</ele><time>2026-04-27T08:50:03.834Z</time></trkpt><trkpt lat="39.7819040365924" lon="9.044329835212814"><ele>351.5</ele><time>2026-04-27T08:50:04.834Z</time></trkpt><trkpt lat="39.78178300361584" lon="9.044066676255222"><ele>353.0</ele><time>2026-04-27T08:50:05.834Z</time></trkpt><trkpt lat="39.78166522680805" lon="9.043808678864234"><ele>353.0</ele><time>2026-04-27T08:50:06.834Z</time></trkpt><trkpt lat="39.78154764852321" lon="9.043553350301547"><ele>353.0</ele><time>2026-04-27T08:50:07.834Z</time></trkpt><trkpt lat="39.78143408539178" lon="9.043296830582369"><ele>354.5</ele><time>2026-04-27T08:50:08.834Z</time></trkpt><trkpt lat="39.781316143334216" lon="9.043038759821934"><ele>356.0</ele><time>2026-04-27T08:50:09.834Z</time></trkpt><trkpt lat="39.78120042790959" lon="9.042777978175035"><ele>356.0</ele><time>2026-04-27T08:50:10.834Z</time></trkpt><trkpt lat="39.78107983384329" lon="9.042515518005295"><ele>356.0</ele><time>2026-04-27T08:50:11.834Z</time></trkpt><trkpt lat="39.780959815096686" lon="9.042252453357465"><ele>355.33333333333337</ele><time>2026-04-27T08:50:12.834Z</time></trkpt><trkpt lat="39.78084473537937" lon="9.041998672294435"><ele>354.6666666666667</ele><time>2026-04-27T08:50:13.834Z</time></trkpt><trkpt lat="39.78074293736513" lon="9.04175949663458"><ele>354.0</ele><time>2026-04-27T08:50:14.834Z</time></trkpt><trkpt lat="39.78064626098623" lon="9.041530718365541"><ele>354.0</ele><time>2026-04-27T08:50:15.834Z</time></trkpt><trkpt lat="39.780551585486194" lon="9.04132015100504"><ele>354.0</ele><time>2026-04-27T08:50:16.834Z</time></trkpt><trkpt lat="39.78045137124296" lon="9.041132613130655"><ele>354.0</ele><time>2026-04-27T08:50:17.834Z</time></trkpt><trkpt lat="39.780349948780156" lon="9.040953350733234"><ele>354.0</ele><time>2026-04-27T08:50:18.834Z</time></trkpt><trkpt lat="39.78024626078741" lon="9.0407874366687"><ele>354.0</ele><time>2026-04-27T08:50:19.836Z</time></trkpt><trkpt lat="39.78014370259477" lon="9.040632531259304"><ele>354.0</ele><time>2026-04-27T08:50:20.835Z</time></trkpt><trkpt lat="39.78004080916602" lon="9.04049398823371"><ele>354.5</ele><time>2026-04-27T08:50:21.835Z</time></trkpt><trkpt lat="39.77994128128368" lon="9.040374769245219"><ele>355.0</ele><time>2026-04-27T08:50:22.836Z</time></trkpt><trkpt lat="39.77983567765232" lon="9.040268769722848"><ele>355.5</ele><time>2026-04-27T08:50:23.836Z</time></trkpt><trkpt lat="39.77972771278022" lon="9.04017771384187"><ele>356.0</ele><time>2026-04-27T08:50:24.836Z</time></trkpt><trkpt lat="39.77961589133522" lon="9.040090752027456"><ele>356.0</ele><time>2026-04-27T08:50:25.836Z</time></trkpt><trkpt lat="39.7795067703549" lon="9.040008893303524"><ele>356.0</ele><time>2026-04-27T08:50:26.836Z</time></trkpt><trkpt lat="39.779396563796276" lon="9.039927522191254"><ele>356.0</ele><time>2026-04-27T08:50:27.836Z</time></trkpt><trkpt lat="39.7792879185632" lon="9.039843816742723"><ele>356.0</ele><time>2026-04-27T08:50:28.835Z</time></trkpt><trkpt lat="39.77917563133937" lon="9.039765304719934"><ele>357.0</ele><time>2026-04-27T08:50:29.836Z</time></trkpt><trkpt lat="39.77906782982631" lon="9.039683694570405"><ele>358.0</ele><time>2026-04-27T08:50:30.836Z</time></trkpt><trkpt lat="39.77895796534938" lon="9.03961143090204"><ele>359.0</ele><time>2026-04-27T08:50:31.836Z</time></trkpt><trkpt lat="39.77884350959044" lon="9.039533268201678"><ele>360.0</ele><time>2026-04-27T08:50:32.836Z</time></trkpt><trkpt lat="39.77873476892159" lon="9.03945377389419"><ele>360.0</ele><time>2026-04-27T08:50:33.836Z</time></trkpt><trkpt lat="39.778624865122" lon="9.03936550091667"><ele>360.0</ele><time>2026-04-27T08:50:34.836Z</time></trkpt><trkpt lat="39.778512106298635" lon="9.039273653676318"><ele>360.0</ele><time>2026-04-27T08:50:35.836Z</time></trkpt><trkpt lat="39.778395882142796" lon="9.039181865360058"><ele>360.0</ele><time>2026-04-27T08:50:36.836Z</time></trkpt><trkpt lat="39.778277536288485" lon="9.039093283413294"><ele>360.25</ele><time>2026-04-27T08:50:37.836Z</time></trkpt><trkpt lat="39.778157333188624" lon="9.039000404624204"><ele>360.5</ele><time>2026-04-27T08:50:38.836Z</time></trkpt><trkpt lat="39.77805311437561" lon="9.03889471433477"><ele>360.75</ele><time>2026-04-27T08:50:39.836Z</time></trkpt><trkpt lat="39.77793394060932" lon="9.038821818628694"><ele>361.0</ele><time>2026-04-27T08:50:40.836Z</time></trkpt><trkpt lat="39.77782537930338" lon="9.038730185629863"><ele>361.0</ele><time>2026-04-27T08:50:41.836Z</time></trkpt><trkpt lat="39.777716936596136" lon="9.038636648443877"><ele>361.0</ele><time>2026-04-27T08:50:42.836Z</time></trkpt><trkpt lat="39.77760589462751" lon="9.038547936382319"><ele>361.0</ele><time>2026-04-27T08:50:43.836Z</time></trkpt><trkpt lat="39.77749329688902" lon="9.038455309048567"><ele>361.0</ele><time>2026-04-27T08:50:44.835Z</time></trkpt><trkpt lat="39.77738510064015" lon="9.038353979718934"><ele>361.5</ele><time>2026-04-27T08:50:45.835Z</time></trkpt><trkpt lat="39.77728360012977" lon="9.03824931075244"><ele>362.0</ele><time>2026-04-27T08:50:46.835Z</time></trkpt><trkpt lat="39.777199308437474" lon="9.03812540934428"><ele>362.5</ele><time>2026-04-27T08:50:47.835Z</time></trkpt><trkpt lat="39.777112061589875" lon="9.038010160365452"><ele>363.0</ele><time>2026-04-27T08:50:48.835Z</time></trkpt><trkpt lat="39.77702465200701" lon="9.037902481168556"><ele>363.0</ele><time>2026-04-27T08:50:49.835Z</time></trkpt><trkpt lat="39.77695249503035" lon="9.03780251320497"><ele>363.0</ele><time>2026-04-27T08:50:50.835Z</time></trkpt><trkpt lat="39.77689154578034" lon="9.037712866894529"><ele>363.0</ele><time>2026-04-27T08:50:51.835Z</time></trkpt><trkpt lat="39.77683674018509" lon="9.037633547273753"><ele>363.0</ele><time>2026-04-27T08:50:52.835Z</time></trkpt><trkpt lat="39.7767878742798" lon="9.037565553458457"><ele>363.0</ele><time>2026-04-27T08:50:53.835Z</time></trkpt><trkpt lat="39.77674647145775" lon="9.037502134753833"><ele>363.0</ele><time>2026-04-27T08:50:54.835Z</time></trkpt><trkpt lat="39.77666094120469" lon="9.037395152802397"><ele>362.0</ele><time>2026-04-27T08:50:56.835Z</time></trkpt><trkpt lat="39.776576229295586" lon="9.03727278670145"><ele>361.0</ele><time>2026-04-27T08:50:58.835Z</time></trkpt><trkpt lat="39.7765506491266" lon="9.037178258578532"><ele>360.0</ele><time>2026-04-27T08:50:59.835Z</time></trkpt><trkpt lat="39.77652660871343" lon="9.037094829463664"><ele>359.0</ele><time>2026-04-27T08:51:00.835Z</time></trkpt><trkpt lat="39.77651691004853" lon="9.036981767611255"><ele>358.0</ele><time>2026-04-27T08:51:01.835Z</time></trkpt><trkpt lat="39.776513865305205" lon="9.03686468624904"><ele>358.0</ele><time>2026-04-27T08:51:02.835Z</time></trkpt><trkpt lat="39.77651876153914" lon="9.036752725306355"><ele>358.0</ele><time>2026-04-27T08:51:03.835Z</time></trkpt><trkpt lat="39.776521296581" lon="9.036647153106616"><ele>358.0</ele><time>2026-04-27T08:51:04.835Z</time></trkpt><trkpt lat="39.776503929320135" lon="9.03650259380499"><ele>358.0</ele><time>2026-04-27T08:51:06.835Z</time></trkpt><trkpt lat="39.77648064205257" lon="9.036361046443206"><ele>358.0</ele><time>2026-04-27T08:51:08.835Z</time></trkpt><trkpt lat="39.77646624593045" lon="9.036267150665772"><ele>357.79999999999995</ele><time>2026-04-27T08:51:09.835Z</time></trkpt><trkpt lat="39.77640600596615" lon="9.036148312015793"><ele>357.6</ele><time>2026-04-27T08:51:10.835Z</time></trkpt><trkpt lat="39.776355317067726" lon="9.036033793128409"><ele>357.4</ele><time>2026-04-27T08:51:11.835Z</time></trkpt><trkpt lat="39.77630606477003" lon="9.035920134690787"><ele>357.20000000000005</ele><time>2026-04-27T08:51:12.835Z</time></trkpt><trkpt lat="39.776263072874045" lon="9.035802881898556"><ele>357.0</ele><time>2026-04-27T08:51:13.834Z</time></trkpt><trkpt lat="39.77622866284004" lon="9.035671702342812"><ele>356.0</ele><time>2026-04-27T08:51:14.834Z</time></trkpt><trkpt lat="39.77620093491508" lon="9.035535995316165"><ele>355.0</ele><time>2026-04-27T08:51:15.834Z</time></trkpt><trkpt lat="39.77617977014884" lon="9.03538192544291"><ele>354.0</ele><time>2026-04-27T08:51:16.834Z</time></trkpt><trkpt lat="39.77616159889066" lon="9.035220195501111"><ele>353.0</ele><time>2026-04-27T08:51:17.834Z</time></trkpt><trkpt lat="39.776109732759785" lon="9.0350643744123"><ele>351.75</ele><time>2026-04-27T08:51:18.834Z</time></trkpt><trkpt lat="39.77606717665345" lon="9.034902622198631"><ele>350.5</ele><time>2026-04-27T08:51:19.834Z</time></trkpt><trkpt lat="39.77602648007782" lon="9.034743706274408"><ele>349.25</ele><time>2026-04-27T08:51:20.834Z</time></trkpt><trkpt lat="39.77599755046617" lon="9.034575696072881"><ele>348.0</ele><time>2026-04-27T08:51:21.834Z</time></trkpt><trkpt lat="39.77597315625995" lon="9.034396176044458"><ele>348.0</ele><time>2026-04-27T08:51:22.834Z</time></trkpt><trkpt lat="39.775946630700176" lon="9.03422142821391"><ele>348.0</ele><time>2026-04-27T08:51:23.834Z</time></trkpt><trkpt lat="39.775907693870316" lon="9.03404691819155"><ele>348.0</ele><time>2026-04-27T08:51:24.834Z</time></trkpt><trkpt lat="39.775857542279134" lon="9.033866286617476"><ele>348.0</ele><time>2026-04-27T08:51:25.834Z</time></trkpt><trkpt lat="39.77579769336109" lon="9.033681954594861"><ele>346.6666666666667</ele><time>2026-04-27T08:51:26.834Z</time></trkpt><trkpt lat="39.77573629845269" lon="9.03350772529857"><ele>345.33333333333337</ele><time>2026-04-27T08:51:27.834Z</time></trkpt><trkpt lat="39.77568116477279" lon="9.03331578526922"><ele>344.0</ele><time>2026-04-27T08:51:28.834Z</time></trkpt><trkpt lat="39.775624690965216" lon="9.03312459546427"><ele>343.6666666666667</ele><time>2026-04-27T08:51:29.834Z</time></trkpt><trkpt lat="39.77556982036196" lon="9.032932812091932"><ele>343.3333333333333</ele><time>2026-04-27T08:51:30.834Z</time></trkpt><trkpt lat="39.775512519300534" lon="9.032738715487813"><ele>343.0</ele><time>2026-04-27T08:51:31.834Z</time></trkpt><trkpt lat="39.775453474937294" lon="9.032540320335231"><ele>343.66666666666663</ele><time>2026-04-27T08:51:32.834Z</time></trkpt><trkpt lat="39.77539931787923" lon="9.032327835398542"><ele>344.3333333333333</ele><time>2026-04-27T08:51:33.834Z</time></trkpt><trkpt lat="39.775342907171186" lon="9.032113312932937"><ele>345.0</ele><time>2026-04-27T08:51:34.834Z</time></trkpt><trkpt lat="39.775278111944" lon="9.031896178789186"><ele>345.0</ele><time>2026-04-27T08:51:35.834Z</time></trkpt><trkpt lat="39.775192111669774" lon="9.031710703162622"><ele>345.0</ele><time>2026-04-27T08:51:36.834Z</time></trkpt><trkpt lat="39.77506763405788" lon="9.031565962756698"><ele>345.0</ele><time>2026-04-27T08:51:37.834Z</time></trkpt><trkpt lat="39.77490886560947" lon="9.031468685432019"><ele>345.6666666666667</ele><time>2026-04-27T08:51:38.834Z</time></trkpt><trkpt lat="39.77473216827126" lon="9.031426893849908"><ele>346.33333333333337</ele><time>2026-04-27T08:51:39.833Z</time></trkpt><trkpt lat="39.7745510897203" lon="9.031396335189326"><ele>347.0</ele><time>2026-04-27T08:51:40.833Z</time></trkpt><trkpt lat="39.77438066055762" lon="9.031350351702399"><ele>346.33333333333337</ele><time>2026-04-27T08:51:41.833Z</time></trkpt><trkpt lat="39.77422412177843" lon="9.031293987558241"><ele>345.6666666666667</ele><time>2026-04-27T08:51:42.833Z</time></trkpt><trkpt lat="39.774065314220046" lon="9.031277085756532"><ele>345.0</ele><time>2026-04-27T08:51:43.833Z</time></trkpt><trkpt lat="39.77391277884267" lon="9.031323618980972"><ele>345.0</ele><time>2026-04-27T08:51:44.833Z</time></trkpt><trkpt lat="39.77375539896725" lon="9.031429817451189"><ele>345.0</ele><time>2026-04-27T08:51:45.833Z</time></trkpt><trkpt lat="39.773586615923755" lon="9.031535682113553"><ele>345.0</ele><time>2026-04-27T08:51:46.833Z</time></trkpt><trkpt lat="39.7734167653377" lon="9.03166535985348"><ele>344.0</ele><time>2026-04-27T08:51:47.833Z</time></trkpt><trkpt lat="39.773244663099625" lon="9.031798363554156"><ele>343.0</ele><time>2026-04-27T08:51:48.833Z</time></trkpt><trkpt lat="39.77306429397855" lon="9.03193670792731"><ele>342.0</ele><time>2026-04-27T08:51:49.833Z</time></trkpt><trkpt lat="39.77288199181715" lon="9.032064934491004"><ele>341.0</ele><time>2026-04-27T08:51:50.833Z</time></trkpt><trkpt lat="39.77268751229687" lon="9.032181850229097"><ele>340.0</ele><time>2026-04-27T08:51:51.833Z</time></trkpt><trkpt lat="39.77248084471945" lon="9.032267316821105"><ele>339.0</ele><time>2026-04-27T08:51:52.833Z</time></trkpt><trkpt lat="39.772269295359166" lon="9.032351462665789"><ele>339.0</ele><time>2026-04-27T08:51:53.833Z</time></trkpt><trkpt lat="39.77204717239491" lon="9.032416596208297"><ele>339.0</ele><time>2026-04-27T08:51:54.833Z</time></trkpt><trkpt lat="39.7718319092707" lon="9.032503218167953"><ele>337.5</ele><time>2026-04-27T08:51:55.833Z</time></trkpt><trkpt lat="39.77161758328321" lon="9.032598554291193"><ele>336.0</ele><time>2026-04-27T08:51:56.833Z</time></trkpt><trkpt lat="39.77140847227993" lon="9.032699653422556"><ele>336.0</ele><time>2026-04-27T08:51:57.833Z</time></trkpt><trkpt lat="39.771201369525" lon="9.03280855633834"><ele>336.0</ele><time>2026-04-27T08:51:58.833Z</time></trkpt><trkpt lat="39.77099429011681" lon="9.032916390505783"><ele>336.0</ele><time>2026-04-27T08:51:59.833Z</time></trkpt><trkpt lat="39.770790014273054" lon="9.033026998248078"><ele>338.0</ele><time>2026-04-27T08:52:00.833Z</time></trkpt><trkpt lat="39.770581216298886" lon="9.033135952391433"><ele>340.0</ele><time>2026-04-27T08:52:01.833Z</time></trkpt><trkpt lat="39.77038193771208" lon="9.033242782421231"><ele>342.0</ele><time>2026-04-27T08:52:02.833Z</time></trkpt><trkpt lat="39.77019939466505" lon="9.033339819329544"><ele>343.3333333333333</ele><time>2026-04-27T08:52:03.833Z</time></trkpt><trkpt lat="39.77002493847551" lon="9.033446420318219"><ele>344.66666666666663</ele><time>2026-04-27T08:52:04.833Z</time></trkpt><trkpt lat="39.76986165454183" lon="9.03359696578884"><ele>346.0</ele><time>2026-04-27T08:52:05.832Z</time></trkpt><trkpt lat="39.769718564833994" lon="9.033799699268384"><ele>346.0</ele><time>2026-04-27T08:52:06.832Z</time></trkpt><trkpt lat="39.76960419096451" lon="9.034032500834263"><ele>346.0</ele><time>2026-04-27T08:52:07.832Z</time></trkpt><trkpt lat="39.76949805268492" lon="9.034273689265929"><ele>346.0</ele><time>2026-04-27T08:52:08.832Z</time></trkpt><trkpt lat="39.76938332488804" lon="9.03451536181762"><ele>346.0</ele><time>2026-04-27T08:52:09.832Z</time></trkpt><trkpt lat="39.76925126912436" lon="9.0347476682519"><ele>346.0</ele><time>2026-04-27T08:52:10.832Z</time></trkpt><trkpt lat="39.769093453236344" lon="9.034952267492029"><ele>346.0</ele><time>2026-04-27T08:52:11.832Z</time></trkpt><trkpt lat="39.76891088335289" lon="9.035149441582098"><ele>346.0</ele><time>2026-04-27T08:52:12.832Z</time></trkpt><trkpt lat="39.76872650137693" lon="9.035324057896641"><ele>346.0</ele><time>2026-04-27T08:52:13.832Z</time></trkpt><trkpt lat="39.768566061988665" lon="9.03546685560746"><ele>346.0</ele><time>2026-04-27T08:52:14.832Z</time></trkpt><trkpt lat="39.76841172099228" lon="9.03552258143525"><ele>348.66666666666663</ele><time>2026-04-27T08:52:15.832Z</time></trkpt><trkpt lat="39.76826077651781" lon="9.035480591563347"><ele>351.3333333333333</ele><time>2026-04-27T08:52:16.832Z</time></trkpt><trkpt lat="39.768095239205515" lon="9.035429113422675"><ele>354.0</ele><time>2026-04-27T08:52:17.832Z</time></trkpt><trkpt lat="39.76791696012684" lon="9.035393326324696"><ele>354.0</ele><time>2026-04-27T08:52:18.832Z</time></trkpt><trkpt lat="39.76773602493395" lon="9.03542905532868"><ele>354.0</ele><time>2026-04-27T08:52:19.832Z</time></trkpt><trkpt lat="39.76755996745098" lon="9.035549588184015"><ele>354.0</ele><time>2026-04-27T08:52:20.832Z</time></trkpt><trkpt lat="39.767419318343336" lon="9.03573347011711"><ele>353.0</ele><time>2026-04-27T08:52:21.832Z</time></trkpt><trkpt lat="39.76729757204721" lon="9.035950135369761"><ele>352.0</ele><time>2026-04-27T08:52:22.832Z</time></trkpt><trkpt lat="39.76715540338948" lon="9.03614026998529"><ele>351.0</ele><time>2026-04-27T08:52:23.832Z</time></trkpt><trkpt lat="39.76699673040469" lon="9.03628707682219"><ele>352.3333333333333</ele><time>2026-04-27T08:52:24.832Z</time></trkpt><trkpt lat="39.76681097265704" lon="9.036354044332441"><ele>353.66666666666663</ele><time>2026-04-27T08:52:25.833Z</time></trkpt><trkpt lat="39.76663247533438" lon="9.036432359763642"><ele>355.0</ele><time>2026-04-27T08:52:26.833Z</time></trkpt><trkpt lat="39.76648624854953" lon="9.036536168593647"><ele>355.0</ele><time>2026-04-27T08:52:27.833Z</time></trkpt><trkpt lat="39.766206878686475" lon="9.036256233199515"><ele>355.0</ele><time>2026-04-27T08:52:28.833Z</time></trkpt><trkpt lat="39.766009110673394" lon="9.036140806416329"><ele>354.0</ele><time>2026-04-27T08:52:29.832Z</time></trkpt><trkpt lat="39.765806897311975" lon="9.03602727829335"><ele>353.0</ele><time>2026-04-27T08:52:30.832Z</time></trkpt><trkpt lat="39.76559744084583" lon="9.03592246254668"><ele>352.0</ele><time>2026-04-27T08:52:31.833Z</time></trkpt><trkpt lat="39.76540238388327" lon="9.035812160732725"><ele>351.3333333333333</ele><time>2026-04-27T08:52:32.833Z</time></trkpt><trkpt lat="39.765225907445064" lon="9.03568142187673"><ele>350.6666666666667</ele><time>2026-04-27T08:52:33.833Z</time></trkpt><trkpt lat="39.76506726473258" lon="9.035496457401374"><ele>350.0</ele><time>2026-04-27T08:52:34.833Z</time></trkpt><trkpt lat="39.764921128173235" lon="9.03528633042214"><ele>350.0</ele><time>2026-04-27T08:52:35.832Z</time></trkpt><trkpt lat="39.7647928136591" lon="9.03504598647505"><ele>350.0</ele><time>2026-04-27T08:52:36.832Z</time></trkpt><trkpt lat="39.76467747336999" lon="9.03480849550141"><ele>350.0</ele><time>2026-04-27T08:52:37.832Z</time></trkpt><trkpt lat="39.76455612917758" lon="9.034556877721581"><ele>349.6666666666667</ele><time>2026-04-27T08:52:38.833Z</time></trkpt><trkpt lat="39.76443077570519" lon="9.03430867785792"><ele>349.3333333333333</ele><time>2026-04-27T08:52:39.833Z</time></trkpt><trkpt lat="39.76430425061042" lon="9.034076704684404"><ele>349.0</ele><time>2026-04-27T08:52:40.833Z</time></trkpt><trkpt lat="39.76418038495179" lon="9.033861871742573"><ele>346.0</ele><time>2026-04-27T08:52:41.833Z</time></trkpt><trkpt lat="39.76404237007581" lon="9.033687132183198"><ele>343.0</ele><time>2026-04-27T08:52:42.833Z</time></trkpt><trkpt lat="39.763852482829485" lon="9.033573514332971"><ele>340.0</ele><time>2026-04-27T08:52:43.833Z</time></trkpt><trkpt lat="39.7636309596491" lon="9.03351639177416"><ele>338.3333333333333</ele><time>2026-04-27T08:52:44.833Z</time></trkpt><trkpt lat="39.763407458422854" lon="9.033464595817252"><ele>336.6666666666667</ele><time>2026-04-27T08:52:45.833Z</time></trkpt><trkpt lat="39.763196843991906" lon="9.03337994401956"><ele>335.0</ele><time>2026-04-27T08:52:46.833Z</time></trkpt><trkpt lat="39.76298268723814" lon="9.033264797968766"><ele>334.0</ele><time>2026-04-27T08:52:47.833Z</time></trkpt><trkpt lat="39.762782470921984" lon="9.033096889595031"><ele>333.0</ele><time>2026-04-27T08:52:48.833Z</time></trkpt><trkpt lat="39.76259574390693" lon="9.032891379384349"><ele>333.0</ele><time>2026-04-27T08:52:49.833Z</time></trkpt><trkpt lat="39.76241597758649" lon="9.032674722745167"><ele>333.0</ele><time>2026-04-27T08:52:50.833Z</time></trkpt><trkpt lat="39.762231844760706" lon="9.032472359395726"><ele>333.0</ele><time>2026-04-27T08:52:51.833Z</time></trkpt><trkpt lat="39.76204125877077" lon="9.032272000276235"><ele>333.0</ele><time>2026-04-27T08:52:52.833Z</time></trkpt><trkpt lat="39.761861321130404" lon="9.032071973951158"><ele>333.0</ele><time>2026-04-27T08:52:53.833Z</time></trkpt><trkpt lat="39.76169184904359" lon="9.031884078145286"><ele>333.0</ele><time>2026-04-27T08:52:54.832Z</time></trkpt><trkpt lat="39.76152985757239" lon="9.03171671269806"><ele>333.0</ele><time>2026-04-27T08:52:55.832Z</time></trkpt><trkpt lat="39.76136295588016" lon="9.031595427095205"><ele>333.0</ele><time>2026-04-27T08:52:56.832Z</time></trkpt><trkpt lat="39.76117056567657" lon="9.03154197895379"><ele>333.0</ele><time>2026-04-27T08:52:57.832Z</time></trkpt><trkpt lat="39.76096629201531" lon="9.0315673769463"><ele>333.0</ele><time>2026-04-27T08:52:58.832Z</time></trkpt><trkpt lat="39.760763081926505" lon="9.03165651393722"><ele>331.5</ele><time>2026-04-27T08:52:59.832Z</time></trkpt><trkpt lat="39.76055871569854" lon="9.031765745219815"><ele>330.0</ele><time>2026-04-27T08:53:00.832Z</time></trkpt><trkpt lat="39.76034475079482" lon="9.031871754651084"><ele>331.3333333333333</ele><time>2026-04-27T08:53:01.832Z</time></trkpt><trkpt lat="39.76014644134668" lon="9.031962575591606"><ele>332.66666666666663</ele><time>2026-04-27T08:53:02.832Z</time></trkpt><trkpt lat="39.75997185056845" lon="9.032036538918856"><ele>334.0</ele><time>2026-04-27T08:53:03.832Z</time></trkpt><trkpt lat="39.75979894258094" lon="9.032048721020434"><ele>334.0</ele><time>2026-04-27T08:53:04.832Z</time></trkpt><trkpt lat="39.75962573359227" lon="9.031966154029494"><ele>334.0</ele><time>2026-04-27T08:53:05.832Z</time></trkpt><trkpt lat="39.75946687894643" lon="9.031830674261341"><ele>334.0</ele><time>2026-04-27T08:53:06.832Z</time></trkpt><trkpt lat="39.759292562635046" lon="9.031682781722541"><ele>333.66666666666663</ele><time>2026-04-27T08:53:07.832Z</time></trkpt><trkpt lat="39.759104229203885" lon="9.03154492529433"><ele>333.3333333333333</ele><time>2026-04-27T08:53:08.832Z</time></trkpt><trkpt lat="39.758911139748" lon="9.031404072487412"><ele>333.0</ele><time>2026-04-27T08:53:09.832Z</time></trkpt><trkpt lat="39.75871595065674" lon="9.03126017379923"><ele>331.5</ele><time>2026-04-27T08:53:10.832Z</time></trkpt><trkpt lat="39.758520093644165" lon="9.031106205069541"><ele>330.0</ele><time>2026-04-27T08:53:11.832Z</time></trkpt><trkpt lat="39.758323479726116" lon="9.030942379569634"><ele>335.0</ele><time>2026-04-27T08:53:12.832Z</time></trkpt><trkpt lat="39.75812167719908" lon="9.030784747976085"><ele>340.0</ele><time>2026-04-27T08:53:13.832Z</time></trkpt><trkpt lat="39.757917722025425" lon="9.030622117943649"><ele>340.0</ele><time>2026-04-27T08:53:14.832Z</time></trkpt><trkpt lat="39.75771684858463" lon="9.030476963820675"><ele>340.0</ele><time>2026-04-27T08:53:15.832Z</time></trkpt><trkpt lat="39.757522550722875" lon="9.030325901581154"><ele>340.3333333333333</ele><time>2026-04-27T08:53:16.832Z</time></trkpt><trkpt lat="39.7573430436245" lon="9.030156496341167"><ele>340.6666666666667</ele><time>2026-04-27T08:53:17.832Z</time></trkpt><trkpt lat="39.75719041054627" lon="9.029941822936062"><ele>341.0</ele><time>2026-04-27T08:53:18.832Z</time></trkpt><trkpt lat="39.75704067497968" lon="9.02972691940719"><ele>339.5</ele><time>2026-04-27T08:53:19.832Z</time></trkpt><trkpt lat="39.75688182551674" lon="9.029498752925692"><ele>338.0</ele><time>2026-04-27T08:53:20.831Z</time></trkpt><trkpt lat="39.75671005826053" lon="9.029272793707655"><ele>342.0</ele><time>2026-04-27T08:53:21.831Z</time></trkpt><trkpt lat="39.75653637888624" lon="9.029043316969842"><ele>346.0</ele><time>2026-04-27T08:53:22.831Z</time></trkpt><trkpt lat="39.756370361988225" lon="9.02880499986095"><ele>346.0</ele><time>2026-04-27T08:53:23.831Z</time></trkpt><trkpt lat="39.75621446748887" lon="9.028559124487078"><ele>346.0</ele><time>2026-04-27T08:53:24.831Z</time></trkpt><trkpt lat="39.75606655549148" lon="9.028301906927155"><ele>342.0</ele><time>2026-04-27T08:53:25.831Z</time></trkpt><trkpt lat="39.75591278720008" lon="9.02805099909269"><ele>338.0</ele><time>2026-04-27T08:53:26.831Z</time></trkpt><trkpt lat="39.755740196855434" lon="9.027821137198117"><ele>338.0</ele><time>2026-04-27T08:53:27.831Z</time></trkpt><trkpt lat="39.755547003022016" lon="9.027629081948788"><ele>338.0</ele><time>2026-04-27T08:53:28.831Z</time></trkpt><trkpt lat="39.75534326941763" lon="9.027463747815467"><ele>337.0</ele><time>2026-04-27T08:53:29.831Z</time></trkpt><trkpt lat="39.75513858861685" lon="9.02736174863053"><ele>336.0</ele><time>2026-04-27T08:53:30.831Z</time></trkpt><trkpt lat="39.75493229799879" lon="9.027322247989556"><ele>335.0</ele><time>2026-04-27T08:53:31.831Z</time></trkpt><trkpt lat="39.754714446692915" lon="9.027277889389914"><ele>335.0</ele><time>2026-04-27T08:53:32.831Z</time></trkpt><trkpt lat="39.754514835797686" lon="9.027159748013723"><ele>335.0</ele><time>2026-04-27T08:53:33.831Z</time></trkpt><trkpt lat="39.754330003890345" lon="9.026992968710529"><ele>335.0</ele><time>2026-04-27T08:53:34.831Z</time></trkpt><trkpt lat="39.75414256300675" lon="9.02682444022542"><ele>333.0</ele><time>2026-04-27T08:53:35.831Z</time></trkpt><trkpt lat="39.75395522517862" lon="9.026644528940306"><ele>331.0</ele><time>2026-04-27T08:53:36.831Z</time></trkpt><trkpt lat="39.753799373891894" lon="9.02643318621363"><ele>331.0</ele><time>2026-04-27T08:53:37.831Z</time></trkpt><trkpt lat="39.75364790362905" lon="9.026220187389281"><ele>331.0</ele><time>2026-04-27T08:53:38.831Z</time></trkpt><trkpt lat="39.753463964734614" lon="9.026054285836244"><ele>331.0</ele><time>2026-04-27T08:53:39.831Z</time></trkpt><trkpt lat="39.753216752888854" lon="9.025955349700128"><ele>328.0</ele><time>2026-04-27T08:53:40.831Z</time></trkpt><trkpt lat="39.752958525614" lon="9.025929273387787"><ele>325.0</ele><time>2026-04-27T08:53:41.831Z</time></trkpt><trkpt lat="39.752714032832976" lon="9.025917595538466"><ele>323.5</ele><time>2026-04-27T08:53:42.831Z</time></trkpt><trkpt lat="39.75246673362169" lon="9.025905783647906"><ele>322.0</ele><time>2026-04-27T08:53:43.831Z</time></trkpt><trkpt lat="39.75225445019496" lon="9.025895644235455"><ele>322.0</ele><time>2026-04-27T08:53:44.831Z</time></trkpt><trkpt lat="39.75204361717751" lon="9.025903108199591"><ele>322.0</ele><time>2026-04-27T08:53:45.831Z</time></trkpt><trkpt lat="39.75184896116596" lon="9.025959943276701"><ele>322.0</ele><time>2026-04-27T08:53:46.83Z</time></trkpt><trkpt lat="39.751646366690956" lon="9.026073302771925"><ele>321.66666666666663</ele><time>2026-04-27T08:53:47.83Z</time></trkpt><trkpt lat="39.751459278956354" lon="9.026231575933966"><ele>321.3333333333333</ele><time>2026-04-27T08:53:48.83Z</time></trkpt><trkpt lat="39.75128713262381" lon="9.026380050730587"><ele>321.0</ele><time>2026-04-27T08:53:49.83Z</time></trkpt><trkpt lat="39.751136602451645" lon="9.026492183258588"><ele>319.5</ele><time>2026-04-27T08:53:50.83Z</time></trkpt><trkpt lat="39.751005388426385" lon="9.026540737780401"><ele>318.0</ele><time>2026-04-27T08:53:51.83Z</time></trkpt><trkpt lat="39.75089319485071" lon="9.026498515032374"><ele>316.5</ele><time>2026-04-27T08:53:52.83Z</time></trkpt><trkpt lat="39.7508307028003" lon="9.026385644851754"><ele>315.0</ele><time>2026-04-27T08:53:53.83Z</time></trkpt><trkpt lat="39.7507393250434" lon="9.026231376039465"><ele>315.0</ele><time>2026-04-27T08:53:54.83Z</time></trkpt><trkpt lat="39.75064050315996" lon="9.026064316765131"><ele>315.0</ele><time>2026-04-27T08:53:55.83Z</time></trkpt><trkpt lat="39.75053875467523" lon="9.0259169335602"><ele>315.0</ele><time>2026-04-27T08:53:56.83Z</time></trkpt><trkpt lat="39.75041857184106" lon="9.025842440545391"><ele>315.0</ele><time>2026-04-27T08:53:57.83Z</time></trkpt><trkpt lat="39.75029714196096" lon="9.025824117864481"><ele>314.3333333333333</ele><time>2026-04-27T08:53:58.83Z</time></trkpt><trkpt lat="39.75016964082109" lon="9.025911664422967"><ele>313.66666666666663</ele><time>2026-04-27T08:53:59.83Z</time></trkpt><trkpt lat="39.750060139346004" lon="9.026086622354102"><ele>313.0</ele><time>2026-04-27T08:54:00.83Z</time></trkpt><trkpt lat="39.749945160267984" lon="9.026253063341215"><ele>313.0</ele><time>2026-04-27T08:54:01.83Z</time></trkpt><trkpt lat="39.74981229531243" lon="9.026417731771927"><ele>313.0</ele><time>2026-04-27T08:54:02.83Z</time></trkpt><trkpt lat="39.74968120874643" lon="9.026604734695464"><ele>313.0</ele><time>2026-04-27T08:54:03.83Z</time></trkpt><trkpt lat="39.74950376449051" lon="9.026714629219812"><ele>311.3333333333333</ele><time>2026-04-27T08:54:04.83Z</time></trkpt><trkpt lat="39.749341826589514" lon="9.026813273127962"><ele>309.6666666666667</ele><time>2026-04-27T08:54:05.83Z</time></trkpt><trkpt lat="39.74918588027138" lon="9.02689863630366"><ele>308.0</ele><time>2026-04-27T08:54:06.83Z</time></trkpt><trkpt lat="39.74903273910756" lon="9.026955957795012"><ele>308.0</ele><time>2026-04-27T08:54:07.83Z</time></trkpt><trkpt lat="39.748874597279325" lon="9.026950405429416"><ele>308.0</ele><time>2026-04-27T08:54:08.83Z</time></trkpt><trkpt lat="39.748708024811286" lon="9.026880052225696"><ele>308.0</ele><time>2026-04-27T08:54:09.83Z</time></trkpt><trkpt lat="39.748520127221596" lon="9.026796270760407"><ele>307.6666666666667</ele><time>2026-04-27T08:54:10.83Z</time></trkpt><trkpt lat="39.74831882445815" lon="9.026704686290994"><ele>307.3333333333333</ele><time>2026-04-27T08:54:11.83Z</time></trkpt><trkpt lat="39.748109637865326" lon="9.026609514938915"><ele>307.0</ele><time>2026-04-27T08:54:12.829Z</time></trkpt><trkpt lat="39.74789303288988" lon="9.026510968630124"><ele>303.0</ele><time>2026-04-27T08:54:13.829Z</time></trkpt><trkpt lat="39.74767063214227" lon="9.026407670405815"><ele>299.0</ele><time>2026-04-27T08:54:14.829Z</time></trkpt><trkpt lat="39.74744473547046" lon="9.026308002442981"><ele>299.0</ele><time>2026-04-27T08:54:15.829Z</time></trkpt><trkpt lat="39.74722605101797" lon="9.02620057896299"><ele>299.0</ele><time>2026-04-27T08:54:16.829Z</time></trkpt><trkpt lat="39.74701470817354" lon="9.026099462117728"><ele>297.33333333333337</ele><time>2026-04-27T08:54:17.829Z</time></trkpt><trkpt lat="39.746805454715314" lon="9.026000453654154"><ele>295.6666666666667</ele><time>2026-04-27T08:54:18.829Z</time></trkpt><trkpt lat="39.74660442064582" lon="9.025906668824554"><ele>294.0</ele><time>2026-04-27T08:54:19.829Z</time></trkpt><trkpt lat="39.746403087498756" lon="9.025812249865288"><ele>294.6666666666667</ele><time>2026-04-27T08:54:20.829Z</time></trkpt><trkpt lat="39.746200365792276" lon="9.025710177486493"><ele>295.33333333333337</ele><time>2026-04-27T08:54:21.829Z</time></trkpt><trkpt lat="39.74598445813495" lon="9.025639380709539"><ele>296.0</ele><time>2026-04-27T08:54:22.829Z</time></trkpt><trkpt lat="39.745758393789025" lon="9.025624181722927"><ele>294.0</ele><time>2026-04-27T08:54:23.829Z</time></trkpt><trkpt lat="39.74552619622022" lon="9.025659247525784"><ele>292.0</ele><time>2026-04-27T08:54:24.829Z</time></trkpt><trkpt lat="39.74528224917504" lon="9.025647681287897"><ele>294.0</ele><time>2026-04-27T08:54:25.829Z</time></trkpt><trkpt lat="39.74503467108867" lon="9.025613425304542"><ele>296.0</ele><time>2026-04-27T08:54:26.829Z</time></trkpt><trkpt lat="39.744785489521895" lon="9.025562315568525"><ele>296.0</ele><time>2026-04-27T08:54:27.829Z</time></trkpt><trkpt lat="39.74454731251399" lon="9.025484297810882"><ele>296.0</ele><time>2026-04-27T08:54:28.829Z</time></trkpt><trkpt lat="39.74430313243159" lon="9.025418779000649"><ele>298.5</ele><time>2026-04-27T08:54:29.829Z</time></trkpt><trkpt lat="39.74406250249942" lon="9.025364235265142"><ele>301.0</ele><time>2026-04-27T08:54:30.829Z</time></trkpt><trkpt lat="39.743826260879125" lon="9.025325309517427"><ele>301.0</ele><time>2026-04-27T08:54:31.829Z</time></trkpt><trkpt lat="39.74360360512241" lon="9.025326145964181"><ele>301.0</ele><time>2026-04-27T08:54:32.829Z</time></trkpt><trkpt lat="39.743400426315574" lon="9.02537603362614"><ele>301.0</ele><time>2026-04-27T08:54:33.83Z</time></trkpt><trkpt lat="39.743214783652476" lon="9.02541254995147"><ele>300.66666666666663</ele><time>2026-04-27T08:54:34.829Z</time></trkpt><trkpt lat="39.74303294207289" lon="9.025372101240615"><ele>300.3333333333333</ele><time>2026-04-27T08:54:35.829Z</time></trkpt><trkpt lat="39.74284323915751" lon="9.025269461088405"><ele>300.0</ele><time>2026-04-27T08:54:36.829Z</time></trkpt><trkpt lat="39.74265790430645" lon="9.025184650122744"><ele>300.0</ele><time>2026-04-27T08:54:37.829Z</time></trkpt><trkpt lat="39.74246723150916" lon="9.025115263660792"><ele>300.0</ele><time>2026-04-27T08:54:38.829Z</time></trkpt><trkpt lat="39.742261101696855" lon="9.02507318932934"><ele>300.0</ele><time>2026-04-27T08:54:39.829Z</time></trkpt><trkpt lat="39.74205411080883" lon="9.025035232300409"><ele>298.3333333333333</ele><time>2026-04-27T08:54:40.829Z</time></trkpt><trkpt lat="39.741858474796445" lon="9.024984320650738"><ele>296.66666666666663</ele><time>2026-04-27T08:54:41.829Z</time></trkpt><trkpt lat="39.74169031790343" lon="9.024893007160813"><ele>295.0</ele><time>2026-04-27T08:54:42.83Z</time></trkpt><trkpt lat="39.741548645323626" lon="9.024745853140404"><ele>298.3333333333333</ele><time>2026-04-27T08:54:43.829Z</time></trkpt><trkpt lat="39.74144522712262" lon="9.024553334057478"><ele>301.6666666666667</ele><time>2026-04-27T08:54:44.829Z</time></trkpt><trkpt lat="39.74138239039554" lon="9.024309658708992"><ele>305.0</ele><time>2026-04-27T08:54:45.829Z</time></trkpt><trkpt lat="39.74134525565439" lon="9.024046111937958"><ele>307.6666666666667</ele><time>2026-04-27T08:54:46.829Z</time></trkpt><trkpt lat="39.74131054348335" lon="9.023780173185992"><ele>310.3333333333333</ele><time>2026-04-27T08:54:47.829Z</time></trkpt><trkpt lat="39.74125141368481" lon="9.023553928126242"><ele>313.0</ele><time>2026-04-27T08:54:48.829Z</time></trkpt><trkpt lat="39.74121314878276" lon="9.023355546078907"><ele>318.0</ele><time>2026-04-27T08:54:49.829Z</time></trkpt><trkpt lat="39.74096408422033" lon="9.023269111561618"><ele>323.0</ele><time>2026-04-27T08:54:50.829Z</time></trkpt><trkpt lat="39.74076807687039" lon="9.023168193402835"><ele>323.0</ele><time>2026-04-27T08:54:51.829Z</time></trkpt><trkpt lat="39.74057020753402" lon="9.02306116362036"><ele>323.0</ele><time>2026-04-27T08:54:52.829Z</time></trkpt><trkpt lat="39.74036509917862" lon="9.022962170091674"><ele>323.0</ele><time>2026-04-27T08:54:53.829Z</time></trkpt><trkpt lat="39.74014896525146" lon="9.022884341121381"><ele>317.0</ele><time>2026-04-27T08:54:54.829Z</time></trkpt><trkpt lat="39.739916745421716" lon="9.022864863247733"><ele>311.0</ele><time>2026-04-27T08:54:55.829Z</time></trkpt><trkpt lat="39.739677917298486" lon="9.022875446107728"><ele>311.0</ele><time>2026-04-27T08:54:56.829Z</time></trkpt><trkpt lat="39.7394356377556" lon="9.022917309972403"><ele>311.0</ele><time>2026-04-27T08:54:57.829Z</time></trkpt><trkpt lat="39.73919112116361" lon="9.022974853835407"><ele>310.0</ele><time>2026-04-27T08:54:58.829Z</time></trkpt><trkpt lat="39.73894870969754" lon="9.023058141954175"><ele>309.0</ele><time>2026-04-27T08:54:59.829Z</time></trkpt><trkpt lat="39.73870667836859" lon="9.023140006852103"><ele>307.5</ele><time>2026-04-27T08:55:00.829Z</time></trkpt><trkpt lat="39.738478902622305" lon="9.023223429028041"><ele>306.0</ele><time>2026-04-27T08:55:01.829Z</time></trkpt><trkpt lat="39.738278726063314" lon="9.023321368679387"><ele>306.0</ele><time>2026-04-27T08:55:02.829Z</time></trkpt><trkpt lat="39.738099162015935" lon="9.023398954666293"><ele>306.0</ele><time>2026-04-27T08:55:03.829Z</time></trkpt><trkpt lat="39.73791840465025" lon="9.023387964543085"><ele>306.0</ele><time>2026-04-27T08:55:04.829Z</time></trkpt><trkpt lat="39.737728599917524" lon="9.023321271165203"><ele>316.3333333333333</ele><time>2026-04-27T08:55:05.829Z</time></trkpt><trkpt lat="39.73754353928628" lon="9.023268912792288"><ele>326.66666666666663</ele><time>2026-04-27T08:55:06.829Z</time></trkpt><trkpt lat="39.73734043075724" lon="9.023266948472504"><ele>337.0</ele><time>2026-04-27T08:55:07.828Z</time></trkpt><trkpt lat="39.73712992273592" lon="9.023261705314473"><ele>337.0</ele><time>2026-04-27T08:55:08.828Z</time></trkpt><trkpt lat="39.73692926372956" lon="9.023282213642679"><ele>337.0</ele><time>2026-04-27T08:55:09.828Z</time></trkpt><trkpt lat="39.73674412232107" lon="9.02337332721782"><ele>337.0</ele><time>2026-04-27T08:55:10.828Z</time></trkpt><trkpt lat="39.73657358070005" lon="9.02351500687354"><ele>331.3333333333333</ele><time>2026-04-27T08:55:11.828Z</time></trkpt><trkpt lat="39.73641161600376" lon="9.023633511355301"><ele>325.6666666666667</ele><time>2026-04-27T08:55:12.828Z</time></trkpt><trkpt lat="39.736221087157176" lon="9.023653952085636"><ele>320.0</ele><time>2026-04-27T08:55:13.828Z</time></trkpt><trkpt lat="39.7360089667569" lon="9.023599891736067"><ele>320.0</ele><time>2026-04-27T08:55:14.828Z</time></trkpt><trkpt lat="39.735834128056645" lon="9.023463286059886"><ele>320.0</ele><time>2026-04-27T08:55:15.828Z</time></trkpt><trkpt lat="39.7356725422733" lon="9.023349265018314"><ele>320.0</ele><time>2026-04-27T08:55:16.828Z</time></trkpt><trkpt lat="39.735531464329455" lon="9.023322932709824"><ele>320.0</ele><time>2026-04-27T08:55:17.828Z</time></trkpt><trkpt lat="39.73540391755146" lon="9.023343361916272"><ele>320.0</ele><time>2026-04-27T08:55:18.828Z</time></trkpt><trkpt lat="39.7352923700339" lon="9.023391678417509"><ele>320.0</ele><time>2026-04-27T08:55:19.828Z</time></trkpt><trkpt lat="39.73522394760543" lon="9.023494884417763"><ele>320.0</ele><time>2026-04-27T08:55:20.828Z</time></trkpt><trkpt lat="39.73518431421564" lon="9.02359887772967"><ele>320.0</ele><time>2026-04-27T08:55:21.828Z</time></trkpt><trkpt lat="39.73513985171416" lon="9.0236651854878"><ele>321.4</ele><time>2026-04-27T08:55:22.828Z</time></trkpt><trkpt lat="39.7350391517439" lon="9.023778807601804"><ele>322.8</ele><time>2026-04-27T08:55:24.828Z</time></trkpt><trkpt lat="39.7349865525942" lon="9.023839120405967"><ele>324.20000000000005</ele><time>2026-04-27T08:55:25.828Z</time></trkpt><trkpt lat="39.73493497774149" lon="9.023887059377559"><ele>325.6</ele><time>2026-04-27T08:55:26.828Z</time></trkpt><trkpt lat="39.73482404006275" lon="9.02395483200155"><ele>327.0</ele><time>2026-04-27T08:55:28.828Z</time></trkpt><trkpt lat="39.734762515848985" lon="9.023981402979844"><ele>327.0</ele><time>2026-04-27T08:55:29.828Z</time></trkpt><trkpt lat="39.73464076103298" lon="9.023983951181929"><ele>327.0</ele><time>2026-04-27T08:55:31.828Z</time></trkpt><trkpt lat="39.73452887054216" lon="9.023965764641286"><ele>327.0</ele><time>2026-04-27T08:55:33.827Z</time></trkpt><trkpt lat="39.73441777818712" lon="9.023932948786067"><ele>327.0</ele><time>2026-04-27T08:55:35.827Z</time></trkpt><trkpt lat="39.734315201561046" lon="9.023853975538593"><ele>326.42857142857144</ele><time>2026-04-27T08:55:37.827Z</time></trkpt><trkpt lat="39.7342626735511" lon="9.02380304666104"><ele>325.8571428571429</ele><time>2026-04-27T08:55:38.827Z</time></trkpt><trkpt lat="39.734225821115665" lon="9.023731490353573"><ele>325.28571428571433</ele><time>2026-04-27T08:55:39.827Z</time></trkpt><trkpt lat="39.73419007070168" lon="9.023655586029708"><ele>324.7142857142857</ele><time>2026-04-27T08:55:40.827Z</time></trkpt><trkpt lat="39.73415298152657" lon="9.023583656456715"><ele>324.14285714285717</ele><time>2026-04-27T08:55:41.827Z</time></trkpt><trkpt lat="39.73411613334992" lon="9.023514735037073"><ele>323.5714285714286</ele><time>2026-04-27T08:55:42.827Z</time></trkpt><trkpt lat="39.73408106797312" lon="9.02344399106254"><ele>323.0</ele><time>2026-04-27T08:55:43.827Z</time></trkpt><trkpt lat="39.73404396069122" lon="9.023352943113661"><ele>323.14285714285717</ele><time>2026-04-27T08:55:45.827Z</time></trkpt><trkpt lat="39.73401293559161" lon="9.023279528850686"><ele>323.2857142857143</ele><time>2026-04-27T08:55:48.827Z</time></trkpt><trkpt lat="39.733966878785346" lon="9.02321268054345"><ele>323.42857142857144</ele><time>2026-04-27T08:55:52.827Z</time></trkpt><trkpt lat="39.733944186818576" lon="9.0231314341376"><ele>323.57142857142856</ele><time>2026-04-27T08:56:04.826Z</time></trkpt><trkpt lat="39.73388880348663" lon="9.023066415467612"><ele>323.7142857142857</ele><time>2026-04-27T08:56:07.826Z</time></trkpt><trkpt lat="39.73382240521877" lon="9.022983703003412"><ele>323.8571428571429</ele><time>2026-04-27T08:56:10.826Z</time></trkpt><trkpt lat="39.733763554423184" lon="9.02293174491295"><ele>324.0</ele><time>2026-04-27T08:56:14.826Z</time></trkpt><trkpt lat="39.733678803881574" lon="9.02287836360099"><ele>324.0</ele><time>2026-04-27T08:56:20.826Z</time></trkpt><trkpt lat="39.733608863742106" lon="9.02281057291824"><ele>324.0</ele><time>2026-04-27T08:56:22.826Z</time></trkpt><trkpt lat="39.73355711860164" lon="9.022727552894779"><ele>324.0</ele><time>2026-04-27T08:56:24.825Z</time></trkpt><trkpt lat="39.733517303211464" lon="9.022624150462821"><ele>324.0</ele><time>2026-04-27T08:56:26.825Z</time></trkpt><trkpt lat="39.73351325233954" lon="9.022514981147223"><ele>324.0</ele><time>2026-04-27T08:56:28.825Z</time></trkpt><trkpt lat="39.73349483357753" lon="9.022421710322941"><ele>324.0</ele><time>2026-04-27T08:56:30.825Z</time></trkpt><trkpt lat="39.733477975594205" lon="9.022308451920114"><ele>322.6666666666667</ele><time>2026-04-27T08:56:33.825Z</time></trkpt><trkpt lat="39.73346603058613" lon="9.022222044942781"><ele>321.3333333333333</ele><time>2026-04-27T08:56:35.825Z</time></trkpt><trkpt lat="39.733454027108195" lon="9.022117802966543"><ele>320.0</ele><time>2026-04-27T08:56:37.826Z</time></trkpt><trkpt lat="39.733442561141764" lon="9.021987474433141"><ele>318.66666666666663</ele><time>2026-04-27T08:56:39.826Z</time></trkpt><trkpt lat="39.733440190566135" lon="9.021859744745344"><ele>317.3333333333333</ele><time>2026-04-27T08:56:41.826Z</time></trkpt><trkpt lat="39.73344618596316" lon="9.021745162896112"><ele>316.0</ele><time>2026-04-27T08:56:43.825Z</time></trkpt><trkpt lat="39.73345064858826" lon="9.021622911387103"><ele>316.0</ele><time>2026-04-27T08:56:45.826Z</time></trkpt><trkpt lat="39.733405236167314" lon="9.021482533421633"><ele>316.0</ele><time>2026-04-27T08:56:47.826Z</time></trkpt><trkpt lat="39.73334420462352" lon="9.021453988983065"><ele>316.0</ele><time>2026-04-27T08:56:48.826Z</time></trkpt><trkpt lat="39.733269041632624" lon="9.02138375786979"><ele>316.0</ele><time>2026-04-27T08:56:50.825Z</time></trkpt><trkpt lat="39.73319729999117" lon="9.021348329685308"><ele>316.0</ele><time>2026-04-27T08:56:52.825Z</time></trkpt><trkpt lat="39.733128895428656" lon="9.021336195238115"><ele>316.0</ele><time>2026-04-27T08:56:54.825Z</time></trkpt><trkpt lat="39.73306898654458" lon="9.021285872617474"><ele>316.0</ele><time>2026-04-27T08:56:56.825Z</time></trkpt><trkpt lat="39.73300340429682" lon="9.02127117588961"><ele>316.0</ele><time>2026-04-27T08:56:58.825Z</time></trkpt><trkpt lat="39.73293333411067" lon="9.021243403514129"><ele>316.0</ele><time>2026-04-27T08:57:00.825Z</time></trkpt><trkpt lat="39.732842096918" lon="9.021219124323142"><ele>316.0</ele><time>2026-04-27T08:57:02.825Z</time></trkpt><trkpt lat="39.732777917901" lon="9.021206813656208"><ele>316.0</ele><time>2026-04-27T08:57:03.825Z</time></trkpt><trkpt lat="39.732702226649494" lon="9.021226885483873"><ele>316.0</ele><time>2026-04-27T08:57:04.825Z</time></trkpt><trkpt lat="39.732620398476755" lon="9.021244293220152"><ele>315.0</ele><time>2026-04-27T08:57:05.824Z</time></trkpt><trkpt lat="39.73254002965966" lon="9.021279924702512"><ele>314.0</ele><time>2026-04-27T08:57:06.824Z</time></trkpt><trkpt lat="39.732458046982714" lon="9.021308187586682"><ele>313.0</ele><time>2026-04-27T08:57:07.824Z</time></trkpt><trkpt lat="39.73236647168303" lon="9.021339628767153"><ele>312.0</ele><time>2026-04-27T08:57:08.824Z</time></trkpt><trkpt lat="39.73226634715213" lon="9.02139486649381"><ele>311.0</ele><time>2026-04-27T08:57:09.824Z</time></trkpt><trkpt lat="39.73215145163908" lon="9.021429966070722"><ele>311.0</ele><time>2026-04-27T08:57:10.824Z</time></trkpt><trkpt lat="39.73203373201214" lon="9.021471527278523"><ele>311.0</ele><time>2026-04-27T08:57:11.824Z</time></trkpt><trkpt lat="39.73191244043552" lon="9.021536735859472"><ele>311.0</ele><time>2026-04-27T08:57:12.824Z</time></trkpt><trkpt lat="39.73180049349438" lon="9.02161869846186"><ele>311.0</ele><time>2026-04-27T08:57:13.824Z</time></trkpt><trkpt lat="39.73168654189087" lon="9.02170447370104"><ele>308.5</ele><time>2026-04-27T08:57:14.824Z</time></trkpt><trkpt lat="39.731580401232264" lon="9.02179790360001"><ele>306.0</ele><time>2026-04-27T08:57:15.824Z</time></trkpt><trkpt lat="39.73146533272893" lon="9.021904374399538"><ele>303.5</ele><time>2026-04-27T08:57:16.824Z</time></trkpt><trkpt lat="39.73135533890398" lon="9.022005914694606"><ele>301.0</ele><time>2026-04-27T08:57:17.824Z</time></trkpt><trkpt lat="39.731235363835644" lon="9.022104788076561"><ele>301.0</ele><time>2026-04-27T08:57:18.824Z</time></trkpt><trkpt lat="39.73111510711985" lon="9.022198460977995"><ele>301.0</ele><time>2026-04-27T08:57:19.824Z</time></trkpt><trkpt lat="39.73099355297655" lon="9.02228982813654"><ele>301.0</ele><time>2026-04-27T08:57:20.824Z</time></trkpt><trkpt lat="39.730867725483286" lon="9.022364699388543"><ele>301.0</ele><time>2026-04-27T08:57:21.824Z</time></trkpt><trkpt lat="39.730706266297744" lon="9.022403028886242"><ele>302.0</ele><time>2026-04-27T08:57:22.824Z</time></trkpt><trkpt lat="39.73053924003001" lon="9.022420955690679"><ele>303.0</ele><time>2026-04-27T08:57:23.824Z</time></trkpt><trkpt lat="39.73036293715408" lon="9.022461574649116"><ele>304.0</ele><time>2026-04-27T08:57:24.824Z</time></trkpt><trkpt lat="39.73019187382092" lon="9.02254260629407"><ele>301.3333333333333</ele><time>2026-04-27T08:57:25.824Z</time></trkpt><trkpt lat="39.73002314954484" lon="9.022640324031196"><ele>298.6666666666667</ele><time>2026-04-27T08:57:26.824Z</time></trkpt><trkpt lat="39.729855344482715" lon="9.022743875672637"><ele>296.0</ele><time>2026-04-27T08:57:27.824Z</time></trkpt><trkpt lat="39.72969475163419" lon="9.022825707432085"><ele>296.0</ele><time>2026-04-27T08:57:28.824Z</time></trkpt><trkpt lat="39.72953719567721" lon="9.022849214339164"><ele>296.0</ele><time>2026-04-27T08:57:29.824Z</time></trkpt><trkpt lat="39.72936902831857" lon="9.02282608330973"><ele>296.0</ele><time>2026-04-27T08:57:30.823Z</time></trkpt><trkpt lat="39.72919657898526" lon="9.02281957278518"><ele>294.6666666666667</ele><time>2026-04-27T08:57:31.823Z</time></trkpt><trkpt lat="39.72903210132882" lon="9.022874985552987"><ele>293.3333333333333</ele><time>2026-04-27T08:57:32.823Z</time></trkpt><trkpt lat="39.72888523126177" lon="9.022961047915167"><ele>292.0</ele><time>2026-04-27T08:57:33.823Z</time></trkpt><trkpt lat="39.72876666364538" lon="9.023102552465561"><ele>292.0</ele><time>2026-04-27T08:57:34.823Z</time></trkpt><trkpt lat="39.72867779517037" lon="9.023293403639578"><ele>292.0</ele><time>2026-04-27T08:57:35.823Z</time></trkpt><trkpt lat="39.72860716925177" lon="9.023513539441366"><ele>292.0</ele><time>2026-04-27T08:57:36.823Z</time></trkpt><trkpt lat="39.728540691677644" lon="9.023746453116077"><ele>289.0</ele><time>2026-04-27T08:57:37.823Z</time></trkpt><trkpt lat="39.72842698455585" lon="9.023961845987905"><ele>286.0</ele><time>2026-04-27T08:57:38.823Z</time></trkpt><trkpt lat="39.72828169590881" lon="9.024153870951253"><ele>283.0</ele><time>2026-04-27T08:57:39.823Z</time></trkpt><trkpt lat="39.72812567455633" lon="9.02435443881655"><ele>281.0</ele><time>2026-04-27T08:57:40.823Z</time></trkpt><trkpt lat="39.727975629649315" lon="9.024564548015507"><ele>279.0</ele><time>2026-04-27T08:57:41.823Z</time></trkpt><trkpt lat="39.72782846699798" lon="9.024786660703489"><ele>277.0</ele><time>2026-04-27T08:57:42.823Z</time></trkpt><trkpt lat="39.727659943639786" lon="9.025004622658267"><ele>277.0</ele><time>2026-04-27T08:57:43.823Z</time></trkpt><trkpt lat="39.72751671034384" lon="9.025243226719605"><ele>277.0</ele><time>2026-04-27T08:57:44.823Z</time></trkpt><trkpt lat="39.727387937206984" lon="9.025487003705937"><ele>277.0</ele><time>2026-04-27T08:57:45.823Z</time></trkpt><trkpt lat="39.72725485127325" lon="9.025735301101657"><ele>277.0</ele><time>2026-04-27T08:57:46.823Z</time></trkpt><trkpt lat="39.72712026497957" lon="9.025985655054964"><ele>277.0</ele><time>2026-04-27T08:57:47.823Z</time></trkpt><trkpt lat="39.726956457146024" lon="9.02620932461066"><ele>277.0</ele><time>2026-04-27T08:57:48.823Z</time></trkpt><trkpt lat="39.726767326562076" lon="9.026395226060298"><ele>277.0</ele><time>2026-04-27T08:57:49.823Z</time></trkpt><trkpt lat="39.72658462041141" lon="9.026576954237678"><ele>277.0</ele><time>2026-04-27T08:57:50.823Z</time></trkpt><trkpt lat="39.726408033958386" lon="9.026751660367305"><ele>275.66666666666663</ele><time>2026-04-27T08:57:51.823Z</time></trkpt><trkpt lat="39.726239498363526" lon="9.026937332643184"><ele>274.3333333333333</ele><time>2026-04-27T08:57:52.823Z</time></trkpt><trkpt lat="39.72604051212186" lon="9.027080687284725"><ele>273.0</ele><time>2026-04-27T08:57:53.823Z</time></trkpt><trkpt lat="39.72583674900246" lon="9.027203223799804"><ele>273.0</ele><time>2026-04-27T08:57:54.823Z</time></trkpt><trkpt lat="39.72562013525045" lon="9.027300885697777"><ele>273.0</ele><time>2026-04-27T08:57:55.823Z</time></trkpt><trkpt lat="39.72539442697338" lon="9.027358338853887"><ele>273.3333333333333</ele><time>2026-04-27T08:57:56.822Z</time></trkpt><trkpt lat="39.72516863561448" lon="9.027379109459655"><ele>273.66666666666663</ele><time>2026-04-27T08:57:57.822Z</time></trkpt><trkpt lat="39.72495783551414" lon="9.027357897452461"><ele>274.0</ele><time>2026-04-27T08:57:58.822Z</time></trkpt><trkpt lat="39.72476323320608" lon="9.027332425082625"><ele>274.0</ele><time>2026-04-27T08:57:59.822Z</time></trkpt><trkpt lat="39.724576726779404" lon="9.027336108925281"><ele>274.0</ele><time>2026-04-27T08:58:00.822Z</time></trkpt><trkpt lat="39.72439313104842" lon="9.027399326709183"><ele>274.0</ele><time>2026-04-27T08:58:01.822Z</time></trkpt><trkpt lat="39.72419001570452" lon="9.027520333225134"><ele>264.0</ele><time>2026-04-27T08:58:02.822Z</time></trkpt><trkpt lat="39.72400638707896" lon="9.027678162897423"><ele>254.0</ele><time>2026-04-27T08:58:03.822Z</time></trkpt><trkpt lat="39.72381607862137" lon="9.027848046385818"><ele>254.0</ele><time>2026-04-27T08:58:04.822Z</time></trkpt><trkpt lat="39.723627599674174" lon="9.02799160707887"><ele>254.0</ele><time>2026-04-27T08:58:05.822Z</time></trkpt><trkpt lat="39.72344713887104" lon="9.02811291359103"><ele>254.0</ele><time>2026-04-27T08:58:06.822Z</time></trkpt><trkpt lat="39.72327645425645" lon="9.028224813702622"><ele>255.66666666666669</ele><time>2026-04-27T08:58:07.822Z</time></trkpt><trkpt lat="39.7231126234961" lon="9.028304352023595"><ele>257.3333333333333</ele><time>2026-04-27T08:58:08.822Z</time></trkpt><trkpt lat="39.72294596367367" lon="9.028334710003897"><ele>259.0</ele><time>2026-04-27T08:58:09.822Z</time></trkpt><trkpt lat="39.72275777783514" lon="9.028294390354954"><ele>255.0</ele><time>2026-04-27T08:58:10.822Z</time></trkpt><trkpt lat="39.72258236037354" lon="9.028205904660924"><ele>251.0</ele><time>2026-04-27T08:58:11.822Z</time></trkpt><trkpt lat="39.72243293936208" lon="9.028128687752334"><ele>247.0</ele><time>2026-04-27T08:58:12.822Z</time></trkpt><trkpt lat="39.7222594199932" lon="9.028026048187895"><ele>247.0</ele><time>2026-04-27T08:58:13.822Z</time></trkpt><trkpt lat="39.72207274488628" lon="9.027909647939582"><ele>247.0</ele><time>2026-04-27T08:58:14.822Z</time></trkpt><trkpt lat="39.72186658248862" lon="9.027822462607743"><ele>247.0</ele><time>2026-04-27T08:58:15.822Z</time></trkpt><trkpt lat="39.72163553475809" lon="9.027765476799336"><ele>241.5</ele><time>2026-04-27T08:58:16.822Z</time></trkpt><trkpt lat="39.72139431362542" lon="9.027720877659023"><ele>236.0</ele><time>2026-04-27T08:58:17.822Z</time></trkpt><trkpt lat="39.7211468069695" lon="9.027676862594959"><ele>233.5</ele><time>2026-04-27T08:58:18.822Z</time></trkpt><trkpt lat="39.72090026916522" lon="9.027635324528259"><ele>231.0</ele><time>2026-04-27T08:58:19.822Z</time></trkpt><trkpt lat="39.720667554152165" lon="9.027591938458183"><ele>231.0</ele><time>2026-04-27T08:58:20.822Z</time></trkpt><trkpt lat="39.7204554659328" lon="9.027557837616161"><ele>231.0</ele><time>2026-04-27T08:58:21.822Z</time></trkpt><trkpt lat="39.72025942574609" lon="9.027501005845792"><ele>231.0</ele><time>2026-04-27T08:58:22.821Z</time></trkpt><trkpt lat="39.720073919556995" lon="9.027464961336838"><ele>230.0</ele><time>2026-04-27T08:58:23.821Z</time></trkpt><trkpt lat="39.71991153068998" lon="9.027384141592625"><ele>229.0</ele><time>2026-04-27T08:58:24.821Z</time></trkpt><trkpt lat="39.71977965315572" lon="9.027241384933479"><ele>228.0</ele><time>2026-04-27T08:58:25.821Z</time></trkpt><trkpt lat="39.71968096815648" lon="9.027057547721789"><ele>228.0</ele><time>2026-04-27T08:58:26.821Z</time></trkpt><trkpt lat="39.71961502820605" lon="9.02683464091771"><ele>228.0</ele><time>2026-04-27T08:58:27.821Z</time></trkpt><trkpt lat="39.71954952685611" lon="9.026569741038179"><ele>228.0</ele><time>2026-04-27T08:58:28.821Z</time></trkpt><trkpt lat="39.7194792250298" lon="9.026280848706124"><ele>226.0</ele><time>2026-04-27T08:58:29.821Z</time></trkpt><trkpt lat="39.7194010416599" lon="9.02596097476088"><ele>224.0</ele><time>2026-04-27T08:58:30.821Z</time></trkpt><trkpt lat="39.719318174570304" lon="9.025625362185565"><ele>223.5</ele><time>2026-04-27T08:58:31.821Z</time></trkpt><trkpt lat="39.71923319926732" lon="9.025280987853234"><ele>223.0</ele><time>2026-04-27T08:58:32.821Z</time></trkpt><trkpt lat="39.71914617414788" lon="9.0249281473719"><ele>226.5</ele><time>2026-04-27T08:58:33.821Z</time></trkpt><trkpt lat="39.71905660162365" lon="9.024564802040317"><ele>230.0</ele><time>2026-04-27T08:58:34.821Z</time></trkpt><trkpt lat="39.71895313821121" lon="9.024198058784842"><ele>233.5</ele><time>2026-04-27T08:58:35.821Z</time></trkpt><trkpt lat="39.718858127334784" lon="9.023822311587859"><ele>237.0</ele><time>2026-04-27T08:58:36.821Z</time></trkpt><trkpt lat="39.7187646218047" lon="9.023448894944993"><ele>239.5</ele><time>2026-04-27T08:58:37.821Z</time></trkpt><trkpt lat="39.71868914181062" lon="9.023074814773684"><ele>242.0</ele><time>2026-04-27T08:58:38.821Z</time></trkpt><trkpt lat="39.71858104487345" lon="9.022713526865715"><ele>235.5</ele><time>2026-04-27T08:58:39.821Z</time></trkpt><trkpt lat="39.718497238614376" lon="9.022344559282184"><ele>229.0</ele><time>2026-04-27T08:58:40.821Z</time></trkpt><trkpt lat="39.718412430868526" lon="9.021974785865886"><ele>231.0</ele><time>2026-04-27T08:58:41.821Z</time></trkpt><trkpt lat="39.71832611859557" lon="9.02161426263343"><ele>233.0</ele><time>2026-04-27T08:58:42.823Z</time></trkpt><trkpt lat="39.71823634730105" lon="9.021250838841304"><ele>233.0</ele><time>2026-04-27T08:58:43.822Z</time></trkpt><trkpt lat="39.71814786207471" lon="9.020885568467735"><ele>233.0</ele><time>2026-04-27T08:58:44.822Z</time></trkpt><trkpt lat="39.71805903649262" lon="9.020522421542884"><ele>232.0</ele><time>2026-04-27T08:58:45.823Z</time></trkpt><trkpt lat="39.71796996023249" lon="9.020160369835034"><ele>231.0</ele><time>2026-04-27T08:58:46.822Z</time></trkpt><trkpt lat="39.71788234137866" lon="9.019798253261998"><ele>230.0</ele><time>2026-04-27T08:58:47.822Z</time></trkpt><trkpt lat="39.71779273254212" lon="9.019437032270591"><ele>229.0</ele><time>2026-04-27T08:58:48.823Z</time></trkpt><trkpt lat="39.717630888562255" lon="9.019104858956009"><ele>227.0</ele><time>2026-04-27T08:58:49.822Z</time></trkpt><trkpt lat="39.71754600558938" lon="9.018741358221025"><ele>225.0</ele><time>2026-04-27T08:58:50.822Z</time></trkpt><trkpt lat="39.71753455060004" lon="9.018347056008201"><ele>226.0</ele><time>2026-04-27T08:58:51.823Z</time></trkpt><trkpt lat="39.71744358646358" lon="9.017984533041917"><ele>227.0</ele><time>2026-04-27T08:58:52.823Z</time></trkpt><trkpt lat="39.717355588667246" lon="9.017627084690941"><ele>228.0</ele><time>2026-04-27T08:58:53.822Z</time></trkpt><trkpt lat="39.71726729309982" lon="9.017265814868678"><ele>229.0</ele><time>2026-04-27T08:58:54.822Z</time></trkpt><trkpt lat="39.717178335685404" lon="9.016901145283981"><ele>231.0</ele><time>2026-04-27T08:58:55.822Z</time></trkpt><trkpt lat="39.717088503399125" lon="9.01653605795098"><ele>233.0</ele><time>2026-04-27T08:58:56.822Z</time></trkpt><trkpt lat="39.71700068876578" lon="9.016169392786487"><ele>234.0</ele><time>2026-04-27T08:58:57.822Z</time></trkpt><trkpt lat="39.71691315111356" lon="9.015801243685083"><ele>235.0</ele><time>2026-04-27T08:58:58.822Z</time></trkpt><trkpt lat="39.716823708579426" lon="9.015440251123463"><ele>232.0</ele><time>2026-04-27T08:58:59.822Z</time></trkpt><trkpt lat="39.716735033650224" lon="9.015079274595944"><ele>229.0</ele><time>2026-04-27T08:59:00.822Z</time></trkpt><trkpt lat="39.71664362605908" lon="9.014719175964574"><ele>229.0</ele><time>2026-04-27T08:59:01.822Z</time></trkpt><trkpt lat="39.71655685572841" lon="9.014357225547332"><ele>229.0</ele><time>2026-04-27T08:59:02.822Z</time></trkpt><trkpt lat="39.71646955420489" lon="9.013996208431225"><ele>229.5</ele><time>2026-04-27T08:59:03.822Z</time></trkpt><trkpt lat="39.71637817218461" lon="9.013636240523528"><ele>230.0</ele><time>2026-04-27T08:59:04.822Z</time></trkpt><trkpt lat="39.71628385396262" lon="9.013275257230742"><ele>231.0</ele><time>2026-04-27T08:59:05.822Z</time></trkpt><trkpt lat="39.71619282899301" lon="9.012913373524984"><ele>232.0</ele><time>2026-04-27T08:59:06.822Z</time></trkpt><trkpt lat="39.716106037094335" lon="9.012548259533943"><ele>232.0</ele><time>2026-04-27T08:59:07.822Z</time></trkpt><trkpt lat="39.71602191755283" lon="9.012185725504969"><ele>232.0</ele><time>2026-04-27T08:59:08.822Z</time></trkpt><trkpt lat="39.715930722281485" lon="9.011824020906655"><ele>232.0</ele><time>2026-04-27T08:59:09.822Z</time></trkpt><trkpt lat="39.7158395424916" lon="9.011464280738199"><ele>232.0</ele><time>2026-04-27T08:59:10.822Z</time></trkpt><trkpt lat="39.71574983957362" lon="9.011106678464193"><ele>233.0</ele><time>2026-04-27T08:59:11.822Z</time></trkpt><trkpt lat="39.71566000558025" lon="9.010740892255633"><ele>234.0</ele><time>2026-04-27T08:59:12.822Z</time></trkpt><trkpt lat="39.71556823969321" lon="9.01037885236503"><ele>234.0</ele><time>2026-04-27T08:59:13.822Z</time></trkpt><trkpt lat="39.71547743580759" lon="9.010009618871175"><ele>234.0</ele><time>2026-04-27T08:59:14.822Z</time></trkpt><trkpt lat="39.715388244379206" lon="9.009642132289237"><ele>234.5</ele><time>2026-04-27T08:59:15.822Z</time></trkpt><trkpt lat="39.71529912178334" lon="9.00927936489887"><ele>235.0</ele><time>2026-04-27T08:59:16.822Z</time></trkpt><trkpt lat="39.71521419395405" lon="9.00891568945098"><ele>234.5</ele><time>2026-04-27T08:59:17.822Z</time></trkpt><trkpt lat="39.71512774710866" lon="9.008553483084324"><ele>234.0</ele><time>2026-04-27T08:59:18.821Z</time></trkpt><trkpt lat="39.715036327903455" lon="9.008213320146446"><ele>234.0</ele><time>2026-04-27T08:59:19.821Z</time></trkpt><trkpt lat="39.7149290047245" lon="9.007877074237907"><ele>234.0</ele><time>2026-04-27T08:59:20.821Z</time></trkpt><trkpt lat="39.714804341473936" lon="9.007555513912443"><ele>235.5</ele><time>2026-04-27T08:59:21.821Z</time></trkpt><trkpt lat="39.714658531081746" lon="9.007237798949602"><ele>237.0</ele><time>2026-04-27T08:59:22.821Z</time></trkpt><trkpt lat="39.71448769266061" lon="9.006946882886558"><ele>237.0</ele><time>2026-04-27T08:59:23.821Z</time></trkpt><trkpt lat="39.71430536469281" lon="9.006666193767652"><ele>237.0</ele><time>2026-04-27T08:59:24.821Z</time></trkpt><trkpt lat="39.71410889559038" lon="9.006396730388099"><ele>237.0</ele><time>2026-04-27T08:59:25.821Z</time></trkpt><trkpt lat="39.713894188308416" lon="9.00615737669173"><ele>237.0</ele><time>2026-04-27T08:59:26.821Z</time></trkpt><trkpt lat="39.71367089426085" lon="9.005937899776987"><ele>243.0</ele><time>2026-04-27T08:59:27.821Z</time></trkpt><trkpt lat="39.713435060829994" lon="9.005741427852408"><ele>249.0</ele><time>2026-04-27T08:59:28.821Z</time></trkpt><trkpt lat="39.713189847606934" lon="9.00556784899799"><ele>249.0</ele><time>2026-04-27T08:59:29.821Z</time></trkpt><trkpt lat="39.712938685822415" lon="9.005424651589289"><ele>249.0</ele><time>2026-04-27T08:59:30.821Z</time></trkpt><trkpt lat="39.712688466962945" lon="9.005299628066272"><ele>246.0</ele><time>2026-04-27T08:59:31.821Z</time></trkpt><trkpt lat="39.71243222028225" lon="9.005173883601843"><ele>243.0</ele><time>2026-04-27T08:59:32.821Z</time></trkpt><trkpt lat="39.71217071339053" lon="9.005053504131695"><ele>246.0</ele><time>2026-04-27T08:59:33.821Z</time></trkpt><trkpt lat="39.71190972110556" lon="9.004938599590572"><ele>249.0</ele><time>2026-04-27T08:59:34.821Z</time></trkpt><trkpt lat="39.71164141350275" lon="9.004804070678032"><ele>242.0</ele><time>2026-04-27T08:59:35.821Z</time></trkpt><trkpt lat="39.71137232224145" lon="9.004668178018854"><ele>235.0</ele><time>2026-04-27T08:59:36.821Z</time></trkpt><trkpt lat="39.7111056982877" lon="9.004533223933933"><ele>231.5</ele><time>2026-04-27T08:59:37.821Z</time></trkpt><trkpt lat="39.71084253531725" lon="9.004402009227165"><ele>228.0</ele><time>2026-04-27T08:59:38.821Z</time></trkpt><trkpt lat="39.71057808277285" lon="9.004270571277864"><ele>229.5</ele><time>2026-04-27T08:59:39.821Z</time></trkpt><trkpt lat="39.71030930894485" lon="9.004137196907259"><ele>231.0</ele><time>2026-04-27T08:59:40.821Z</time></trkpt><trkpt lat="39.71004767262102" lon="9.004008749529783"><ele>228.0</ele><time>2026-04-27T08:59:41.821Z</time></trkpt><trkpt lat="39.70978900770813" lon="9.003884754657092"><ele>225.0</ele><time>2026-04-27T08:59:42.821Z</time></trkpt><trkpt lat="39.70951903435411" lon="9.00375939049431"><ele>224.0</ele><time>2026-04-27T08:59:43.821Z</time></trkpt><trkpt lat="39.709251753134346" lon="9.003624885557842"><ele>223.0</ele><time>2026-04-27T08:59:44.82Z</time></trkpt><trkpt lat="39.70898630186608" lon="9.003497419573764"><ele>223.0</ele><time>2026-04-27T08:59:45.82Z</time></trkpt><trkpt lat="39.70871936853383" lon="9.003365680734435"><ele>223.0</ele><time>2026-04-27T08:59:46.82Z</time></trkpt><trkpt lat="39.7084525901964" lon="9.003231936305"><ele>224.0</ele><time>2026-04-27T08:59:47.82Z</time></trkpt><trkpt lat="39.70818844810776" lon="9.003107036004264"><ele>225.0</ele><time>2026-04-27T08:59:48.82Z</time></trkpt><trkpt lat="39.707928578520985" lon="9.002978784786581"><ele>222.5</ele><time>2026-04-27T08:59:49.82Z</time></trkpt><trkpt lat="39.707672597857126" lon="9.002856033274814"><ele>220.0</ele><time>2026-04-27T08:59:50.82Z</time></trkpt><trkpt lat="39.7074238356554" lon="9.002730950385454"><ele>220.0</ele><time>2026-04-27T08:59:51.82Z</time></trkpt><trkpt lat="39.70717592103425" lon="9.00260652266703"><ele>220.0</ele><time>2026-04-27T08:59:52.82Z</time></trkpt><trkpt lat="39.70693801204913" lon="9.002497612967442"><ele>217.0</ele><time>2026-04-27T08:59:53.82Z</time></trkpt><trkpt lat="39.7067092286989" lon="9.002392644226042"><ele>214.0</ele><time>2026-04-27T08:59:54.82Z</time></trkpt><trkpt lat="39.70648887365086" lon="9.00228617233796"><ele>214.0</ele><time>2026-04-27T08:59:55.82Z</time></trkpt><trkpt lat="39.70628184728944" lon="9.002188458045126"><ele>214.0</ele><time>2026-04-27T08:59:56.82Z</time></trkpt><trkpt lat="39.70608166854268" lon="9.002094569081736"><ele>214.0</ele><time>2026-04-27T08:59:57.82Z</time></trkpt><trkpt lat="39.70588845644127" lon="9.002003239517252"><ele>212.33333333333331</ele><time>2026-04-27T08:59:58.82Z</time></trkpt><trkpt lat="39.70570032420617" lon="9.001917183771695"><ele>210.66666666666669</ele><time>2026-04-27T08:59:59.82Z</time></trkpt><trkpt lat="39.70552234452803" lon="9.001833897499115"><ele>209.0</ele><time>2026-04-27T09:00:00.82Z</time></trkpt><trkpt lat="39.705367269502894" lon="9.001757378961592"><ele>208.5</ele><time>2026-04-27T09:00:01.82Z</time></trkpt><trkpt lat="39.705232030337896" lon="9.001691358467376"><ele>208.0</ele><time>2026-04-27T09:00:02.82Z</time></trkpt><trkpt lat="39.70510349093085" lon="9.001641913263597"><ele>207.5</ele><time>2026-04-27T09:00:03.82Z</time></trkpt><trkpt lat="39.704984650889834" lon="9.001600050637858"><ele>207.0</ele><time>2026-04-27T09:00:04.82Z</time></trkpt><trkpt lat="39.704861782399476" lon="9.001572533236779"><ele>207.0</ele><time>2026-04-27T09:00:05.82Z</time></trkpt><trkpt lat="39.704737287412826" lon="9.001546833953366"><ele>207.0</ele><time>2026-04-27T09:00:06.82Z</time></trkpt><trkpt lat="39.70461719993325" lon="9.001517673608848"><ele>207.0</ele><time>2026-04-27T09:00:07.82Z</time></trkpt><trkpt lat="39.70450819313281" lon="9.001490692101132"><ele>207.0</ele><time>2026-04-27T09:00:08.82Z</time></trkpt><trkpt lat="39.7044046816181" lon="9.00146723951614"><ele>206.0</ele><time>2026-04-27T09:00:09.82Z</time></trkpt><trkpt lat="39.704306628458895" lon="9.001423723221444"><ele>205.0</ele><time>2026-04-27T09:00:10.819Z</time></trkpt><trkpt lat="39.704214031850775" lon="9.001399813195547"><ele>204.0</ele><time>2026-04-27T09:00:11.819Z</time></trkpt><trkpt lat="39.70412384538645" lon="9.001377817181542"><ele>203.0</ele><time>2026-04-27T09:00:12.819Z</time></trkpt><trkpt lat="39.70404335789378" lon="9.001356608646905"><ele>202.0</ele><time>2026-04-27T09:00:13.819Z</time></trkpt><trkpt lat="39.703969576849744" lon="9.00134257544442"><ele>201.0</ele><time>2026-04-27T09:00:14.819Z</time></trkpt><trkpt lat="39.70389800726113" lon="9.001327863523928"><ele>201.0</ele><time>2026-04-27T09:00:15.819Z</time></trkpt><trkpt lat="39.70383164774697" lon="9.001307437248483"><ele>201.0</ele><time>2026-04-27T09:00:16.819Z</time></trkpt><trkpt lat="39.70371717152648" lon="9.001281537668655"><ele>201.0</ele><time>2026-04-27T09:00:18.819Z</time></trkpt><trkpt lat="39.703628574003794" lon="9.001260703081515"><ele>201.0</ele><time>2026-04-27T09:00:20.819Z</time></trkpt><trkpt lat="39.703541345429464" lon="9.001245172367945"><ele>201.0</ele><time>2026-04-27T09:00:22.819Z</time></trkpt><trkpt lat="39.7034522983763" lon="9.001203373270572"><ele>201.75</ele><time>2026-04-27T09:00:24.819Z</time></trkpt><trkpt lat="39.70333926310574" lon="9.001176103148905"><ele>202.5</ele><time>2026-04-27T09:00:26.819Z</time></trkpt><trkpt lat="39.70323641521368" lon="9.001140316865328"><ele>203.25</ele><time>2026-04-27T09:00:28.819Z</time></trkpt><trkpt lat="39.70312724250867" lon="9.001113131707813"><ele>204.0</ele><time>2026-04-27T09:00:30.819Z</time></trkpt><trkpt lat="39.70300184272481" lon="9.001099999048984"><ele>204.0</ele><time>2026-04-27T09:00:32.819Z</time></trkpt><trkpt lat="39.702933474765786" lon="9.001099873720413"><ele>204.0</ele><time>2026-04-27T09:00:33.819Z</time></trkpt><trkpt lat="39.70286810499027" lon="9.0010823840617"><ele>204.0</ele><time>2026-04-27T09:00:34.819Z</time></trkpt><trkpt lat="39.70279819475321" lon="9.00106643254626"><ele>204.0</ele><time>2026-04-27T09:00:35.819Z</time></trkpt><trkpt lat="39.702712247566055" lon="9.001056110036448"><ele>204.0</ele><time>2026-04-27T09:00:36.818Z</time></trkpt><trkpt lat="39.70261985661649" lon="9.001055089897667"><ele>204.0</ele><time>2026-04-27T09:00:37.818Z</time></trkpt><trkpt lat="39.70253063074294" lon="9.001063807025979"><ele>204.2</ele><time>2026-04-27T09:00:38.818Z</time></trkpt><trkpt lat="39.70243615003541" lon="9.001056627342116"><ele>204.39999999999998</ele><time>2026-04-27T09:00:39.818Z</time></trkpt><trkpt lat="39.702346705130715" lon="9.001099807570203"><ele>204.6</ele><time>2026-04-27T09:00:40.818Z</time></trkpt><trkpt lat="39.7022538367439" lon="9.001119059314462"><ele>204.8</ele><time>2026-04-27T09:00:41.818Z</time></trkpt><trkpt lat="39.70216210069427" lon="9.001133627262746"><ele>205.0</ele><time>2026-04-27T09:00:42.818Z</time></trkpt><trkpt lat="39.70207462043223" lon="9.001163770048475"><ele>205.0</ele><time>2026-04-27T09:00:43.818Z</time></trkpt><trkpt lat="39.70198485076448" lon="9.001191434426175"><ele>205.0</ele><time>2026-04-27T09:00:44.818Z</time></trkpt><trkpt lat="39.70189668448854" lon="9.001215676669828"><ele>205.0</ele><time>2026-04-27T09:00:45.818Z</time></trkpt><trkpt lat="39.701809353192616" lon="9.001241914215807"><ele>205.0</ele><time>2026-04-27T09:00:46.818Z</time></trkpt><trkpt lat="39.70171390345312" lon="9.001264206370902"><ele>205.0</ele><time>2026-04-27T09:00:47.818Z</time></trkpt><trkpt lat="39.701612076113996" lon="9.001275757415678"><ele>204.2</ele><time>2026-04-27T09:00:48.819Z</time></trkpt><trkpt lat="39.70151060959397" lon="9.001274315536998"><ele>203.4</ele><time>2026-04-27T09:00:49.818Z</time></trkpt><trkpt lat="39.70140425516883" lon="9.001255811819458"><ele>202.60000000000002</ele><time>2026-04-27T09:00:50.818Z</time></trkpt><trkpt lat="39.701296175106705" lon="9.001222333918317"><ele>201.8</ele><time>2026-04-27T09:00:51.819Z</time></trkpt><trkpt lat="39.70119181709732" lon="9.001166023719"><ele>201.0</ele><time>2026-04-27T09:00:52.818Z</time></trkpt><trkpt lat="39.70107850543055" lon="9.00108833201986"><ele>200.33333333333331</ele><time>2026-04-27T09:00:53.818Z</time></trkpt><trkpt lat="39.70095688401389" lon="9.00098024957388"><ele>199.66666666666666</ele><time>2026-04-27T09:00:54.819Z</time></trkpt><trkpt lat="39.70083461964436" lon="9.000838134958489"><ele>199.0</ele><time>2026-04-27T09:00:55.819Z</time></trkpt><trkpt lat="39.700707686153045" lon="9.000679886152962"><ele>196.33333333333331</ele><time>2026-04-27T09:00:56.819Z</time></trkpt><trkpt lat="39.70056828498786" lon="9.000542913480365"><ele>193.66666666666666</ele><time>2026-04-27T09:00:57.819Z</time></trkpt><trkpt lat="39.70041401557126" lon="9.000432137622512"><ele>191.0</ele><time>2026-04-27T09:00:58.818Z</time></trkpt><trkpt lat="39.70023833874925" lon="9.00035467356172"><ele>191.0</ele><time>2026-04-27T09:00:59.818Z</time></trkpt><trkpt lat="39.70005658343832" lon="9.000309276316015"><ele>191.0</ele><time>2026-04-27T09:01:00.819Z</time></trkpt><trkpt lat="39.69987554200003" lon="9.000272998972704"><ele>191.0</ele><time>2026-04-27T09:01:01.818Z</time></trkpt><trkpt lat="39.69969421346542" lon="9.000225710849396"><ele>191.0</ele><time>2026-04-27T09:01:02.818Z</time></trkpt><trkpt lat="39.69950951175135" lon="9.00015917708085"><ele>191.0</ele><time>2026-04-27T09:01:03.818Z</time></trkpt><trkpt lat="39.6993217670602" lon="9.000071694059372"><ele>191.0</ele><time>2026-04-27T09:01:04.818Z</time></trkpt><trkpt lat="39.69912920794918" lon="8.999967670803349"><ele>189.66666666666666</ele><time>2026-04-27T09:01:05.818Z</time></trkpt><trkpt lat="39.698936218776716" lon="8.999846284898432"><ele>188.33333333333334</ele><time>2026-04-27T09:01:06.818Z</time></trkpt><trkpt lat="39.69873880976779" lon="8.999718704057054"><ele>187.0</ele><time>2026-04-27T09:01:07.818Z</time></trkpt><trkpt lat="39.69854474546941" lon="8.999562502631145"><ele>185.5</ele><time>2026-04-27T09:01:08.818Z</time></trkpt><trkpt lat="39.69834180911846" lon="8.99940897582401"><ele>184.0</ele><time>2026-04-27T09:01:09.818Z</time></trkpt><trkpt lat="39.69813616852874" lon="8.999250586605744"><ele>184.0</ele><time>2026-04-27T09:01:10.818Z</time></trkpt><trkpt lat="39.697922162852336" lon="8.999108704788592"><ele>184.0</ele><time>2026-04-27T09:01:11.818Z</time></trkpt><trkpt lat="39.69770951449147" lon="8.998944370452115"><ele>184.0</ele><time>2026-04-27T09:01:12.818Z</time></trkpt><trkpt lat="39.69749528069785" lon="8.998777441952603"><ele>184.0</ele><time>2026-04-27T09:01:13.817Z</time></trkpt><trkpt lat="39.69727394544124" lon="8.998615228100348"><ele>184.0</ele><time>2026-04-27T09:01:14.817Z</time></trkpt><trkpt lat="39.69706057015121" lon="8.998417924242169"><ele>184.0</ele><time>2026-04-27T09:01:15.817Z</time></trkpt><trkpt lat="39.69683228897371" lon="8.99824125470531"><ele>183.5</ele><time>2026-04-27T09:01:16.817Z</time></trkpt><trkpt lat="39.696601818135335" lon="8.998062391954655"><ele>183.0</ele><time>2026-04-27T09:01:17.817Z</time></trkpt><trkpt lat="39.69637043181131" lon="8.997882915019952"><ele>183.0</ele><time>2026-04-27T09:01:18.817Z</time></trkpt><trkpt lat="39.6961318576843" lon="8.997720953485517"><ele>183.0</ele><time>2026-04-27T09:01:19.817Z</time></trkpt><trkpt lat="39.6959025467984" lon="8.997542466968795"><ele>183.0</ele><time>2026-04-27T09:01:20.817Z</time></trkpt><trkpt lat="39.69567342804372" lon="8.997358733806976"><ele>183.0</ele><time>2026-04-27T09:01:21.817Z</time></trkpt><trkpt lat="39.695443131812674" lon="8.997175391162653"><ele>181.5</ele><time>2026-04-27T09:01:22.817Z</time></trkpt><trkpt lat="39.695215049402634" lon="8.996991980527115"><ele>180.0</ele><time>2026-04-27T09:01:23.817Z</time></trkpt><trkpt lat="39.6949860383566" lon="8.996810128154099"><ele>181.0</ele><time>2026-04-27T09:01:24.817Z</time></trkpt><trkpt lat="39.694756767395134" lon="8.996630695744086"><ele>182.0</ele><time>2026-04-27T09:01:25.817Z</time></trkpt><trkpt lat="39.694527922639686" lon="8.996452105674646"><ele>180.5</ele><time>2026-04-27T09:01:26.817Z</time></trkpt><trkpt lat="39.694298698144195" lon="8.996278699275024"><ele>179.0</ele><time>2026-04-27T09:01:27.817Z</time></trkpt><trkpt lat="39.69407078797928" lon="8.996100366276641"><ele>179.0</ele><time>2026-04-27T09:01:28.817Z</time></trkpt><trkpt lat="39.69384765832364" lon="8.995919983171945"><ele>179.0</ele><time>2026-04-27T09:01:29.817Z</time></trkpt><trkpt lat="39.693621428521084" lon="8.995738573088937"><ele>178.5</ele><time>2026-04-27T09:01:30.817Z</time></trkpt><trkpt lat="39.693392679803374" lon="8.99555471388565"><ele>178.0</ele><time>2026-04-27T09:01:31.817Z</time></trkpt><trkpt lat="39.69316532610587" lon="8.995377166281683"><ele>178.0</ele><time>2026-04-27T09:01:32.817Z</time></trkpt><trkpt lat="39.69293593206719" lon="8.995200735753068"><ele>178.0</ele><time>2026-04-27T09:01:33.817Z</time></trkpt><trkpt lat="39.69270617510673" lon="8.995022236819668"><ele>175.5</ele><time>2026-04-27T09:01:34.817Z</time></trkpt><trkpt lat="39.69247751908839" lon="8.99484319406226"><ele>173.0</ele><time>2026-04-27T09:01:35.817Z</time></trkpt><trkpt lat="39.69224967203651" lon="8.994662865870973"><ele>173.0</ele><time>2026-04-27T09:01:36.817Z</time></trkpt><trkpt lat="39.69202290990998" lon="8.994480735029638"><ele>173.0</ele><time>2026-04-27T09:01:37.817Z</time></trkpt><trkpt lat="39.69179928547695" lon="8.994300968664108"><ele>174.5</ele><time>2026-04-27T09:01:38.816Z</time></trkpt><trkpt lat="39.69157822063896" lon="8.994127696750805"><ele>176.0</ele><time>2026-04-27T09:01:39.816Z</time></trkpt><trkpt lat="39.69135738097532" lon="8.993954556382405"><ele>176.0</ele><time>2026-04-27T09:01:40.816Z</time></trkpt><trkpt lat="39.69113572346447" lon="8.993778992480038"><ele>176.0</ele><time>2026-04-27T09:01:41.816Z</time></trkpt><trkpt lat="39.69091251720477" lon="8.993604815573589"><ele>176.0</ele><time>2026-04-27T09:01:42.816Z</time></trkpt><trkpt lat="39.69068390816517" lon="8.993423758963637"><ele>176.0</ele><time>2026-04-27T09:01:43.816Z</time></trkpt><trkpt lat="39.69045195694027" lon="8.993237717945172"><ele>174.0</ele><time>2026-04-27T09:01:44.816Z</time></trkpt><trkpt lat="39.69021221813028" lon="8.993048309509383"><ele>172.0</ele><time>2026-04-27T09:01:45.816Z</time></trkpt><trkpt lat="39.689970526143455" lon="8.992860056490953"><ele>172.0</ele><time>2026-04-27T09:01:46.816Z</time></trkpt><trkpt lat="39.68972630395491" lon="8.992671186277374"><ele>172.0</ele><time>2026-04-27T09:01:47.816Z</time></trkpt><trkpt lat="39.68948229996552" lon="8.992483429924262"><ele>169.5</ele><time>2026-04-27T09:01:48.816Z</time></trkpt><trkpt lat="39.68923619124662" lon="8.992296243806468"><ele>167.0</ele><time>2026-04-27T09:01:49.816Z</time></trkpt><trkpt lat="39.68899598022649" lon="8.992107646089805"><ele>167.0</ele><time>2026-04-27T09:01:50.816Z</time></trkpt><trkpt lat="39.688752282635114" lon="8.99191551796941"><ele>167.0</ele><time>2026-04-27T09:01:51.816Z</time></trkpt><trkpt lat="39.68850858884223" lon="8.991723369303918"><ele>163.0</ele><time>2026-04-27T09:01:52.816Z</time></trkpt><trkpt lat="39.688266906274976" lon="8.99153351832948"><ele>159.0</ele><time>2026-04-27T09:01:53.816Z</time></trkpt><trkpt lat="39.68802717432918" lon="8.991336644277782"><ele>159.0</ele><time>2026-04-27T09:01:54.816Z</time></trkpt><trkpt lat="39.687789107338425" lon="8.991146379268438"><ele>159.0</ele><time>2026-04-27T09:01:55.816Z</time></trkpt><trkpt lat="39.68754903311566" lon="8.990954153292668"><ele>158.5</ele><time>2026-04-27T09:01:56.816Z</time></trkpt><trkpt lat="39.68730334305127" lon="8.990767885475181"><ele>158.0</ele><time>2026-04-27T09:01:57.816Z</time></trkpt><trkpt lat="39.687058084929255" lon="8.9905799362246"><ele>157.5</ele><time>2026-04-27T09:01:58.816Z</time></trkpt><trkpt lat="39.68681375344574" lon="8.990391726214526"><ele>157.0</ele><time>2026-04-27T09:01:59.816Z</time></trkpt><trkpt lat="39.686573017195684" lon="8.990198454991862"><ele>156.0</ele><time>2026-04-27T09:02:00.816Z</time></trkpt><trkpt lat="39.686334316704205" lon="8.990005487201238"><ele>155.0</ele><time>2026-04-27T09:02:01.816Z</time></trkpt><trkpt lat="39.68609576753352" lon="8.989809082843589"><ele>155.0</ele><time>2026-04-27T09:02:02.816Z</time></trkpt><trkpt lat="39.685858099220034" lon="8.989613319072177"><ele>155.0</ele><time>2026-04-27T09:02:03.816Z</time></trkpt><trkpt lat="39.68561844482387" lon="8.9894178966946"><ele>155.0</ele><time>2026-04-27T09:02:04.815Z</time></trkpt><trkpt lat="39.6853782971214" lon="8.989228954810448"><ele>155.0</ele><time>2026-04-27T09:02:05.815Z</time></trkpt><trkpt lat="39.685138091176185" lon="8.989039053592089"><ele>154.5</ele><time>2026-04-27T09:02:06.815Z</time></trkpt><trkpt lat="39.684900499957976" lon="8.988851026491485"><ele>154.0</ele><time>2026-04-27T09:02:07.815Z</time></trkpt><trkpt lat="39.68466404636003" lon="8.988669401698784"><ele>154.0</ele><time>2026-04-27T09:02:08.815Z</time></trkpt><trkpt lat="39.684429723546955" lon="8.98848225207487"><ele>154.0</ele><time>2026-04-27T09:02:09.815Z</time></trkpt><trkpt lat="39.68419632200708" lon="8.988293123427837"><ele>154.0</ele><time>2026-04-27T09:02:10.815Z</time></trkpt><trkpt lat="39.683962867388324" lon="8.988104306691543"><ele>154.0</ele><time>2026-04-27T09:02:11.815Z</time></trkpt><trkpt lat="39.68372907940885" lon="8.987911782712755"><ele>153.5</ele><time>2026-04-27T09:02:12.815Z</time></trkpt><trkpt lat="39.68349244355862" lon="8.987720312246351"><ele>153.0</ele><time>2026-04-27T09:02:13.815Z</time></trkpt><trkpt lat="39.68325577849374" lon="8.987533105584589"><ele>153.0</ele><time>2026-04-27T09:02:14.815Z</time></trkpt><trkpt lat="39.68302241009685" lon="8.987344181184328"><ele>153.0</ele><time>2026-04-27T09:02:15.815Z</time></trkpt><trkpt lat="39.682789409360105" lon="8.987157507584776"><ele>154.5</ele><time>2026-04-27T09:02:16.815Z</time></trkpt><trkpt lat="39.682559600774056" lon="8.986969036326718"><ele>156.0</ele><time>2026-04-27T09:02:17.815Z</time></trkpt><trkpt lat="39.68233106527338" lon="8.986784733852076"><ele>156.0</ele><time>2026-04-27T09:02:18.815Z</time></trkpt><trkpt lat="39.682104336876264" lon="8.986603302237532"><ele>156.0</ele><time>2026-04-27T09:02:19.815Z</time></trkpt><trkpt lat="39.68189149576424" lon="8.986441857219727"><ele>156.0</ele><time>2026-04-27T09:02:20.815Z</time></trkpt><trkpt lat="39.68169018161171" lon="8.986283383595824"><ele>156.0</ele><time>2026-04-27T09:02:21.815Z</time></trkpt><trkpt lat="39.681503144721994" lon="8.986138217841319"><ele>156.0</ele><time>2026-04-27T09:02:22.815Z</time></trkpt><trkpt lat="39.68132299476218" lon="8.985998776241908"><ele>156.0</ele><time>2026-04-27T09:02:23.815Z</time></trkpt><trkpt lat="39.68115038173277" lon="8.985871472407279"><ele>156.0</ele><time>2026-04-27T09:02:24.815Z</time></trkpt><trkpt lat="39.68098705356664" lon="8.985753872645082"><ele>154.33333333333334</ele><time>2026-04-27T09:02:25.815Z</time></trkpt><trkpt lat="39.68084227517631" lon="8.985641840641566"><ele>152.66666666666669</ele><time>2026-04-27T09:02:26.815Z</time></trkpt><trkpt lat="39.680706792008415" lon="8.98552527421541"><ele>151.0</ele><time>2026-04-27T09:02:27.815Z</time></trkpt><trkpt lat="39.680575356938306" lon="8.98541842649501"><ele>151.0</ele><time>2026-04-27T09:02:28.815Z</time></trkpt><trkpt lat="39.68044790746747" lon="8.985315337733315"><ele>151.0</ele><time>2026-04-27T09:02:29.815Z</time></trkpt><trkpt lat="39.680324873636216" lon="8.985226731524671"><ele>151.0</ele><time>2026-04-27T09:02:30.814Z</time></trkpt><trkpt lat="39.68021239717507" lon="8.985132630166397"><ele>151.0</ele><time>2026-04-27T09:02:31.814Z</time></trkpt><trkpt lat="39.680104712557515" lon="8.985035492727398"><ele>150.75</ele><time>2026-04-27T09:02:32.814Z</time></trkpt><trkpt lat="39.68000061152756" lon="8.984945732949383"><ele>150.5</ele><time>2026-04-27T09:02:33.814Z</time></trkpt><trkpt lat="39.6799012119938" lon="8.98485991416939"><ele>150.25</ele><time>2026-04-27T09:02:34.814Z</time></trkpt><trkpt lat="39.67980646764969" lon="8.984788388776657"><ele>150.0</ele><time>2026-04-27T09:02:35.814Z</time></trkpt><trkpt lat="39.67971331450154" lon="8.984717610920418"><ele>150.0</ele><time>2026-04-27T09:02:36.814Z</time></trkpt><trkpt lat="39.6796185887307" lon="8.984657391809767"><ele>150.0</ele><time>2026-04-27T09:02:37.814Z</time></trkpt><trkpt lat="39.67951984548799" lon="8.984587025027327"><ele>150.0</ele><time>2026-04-27T09:02:38.814Z</time></trkpt><trkpt lat="39.679420846755875" lon="8.984518457525231"><ele>150.0</ele><time>2026-04-27T09:02:39.814Z</time></trkpt><trkpt lat="39.67932112167437" lon="8.984440227605056"><ele>150.0</ele><time>2026-04-27T09:02:40.814Z</time></trkpt><trkpt lat="39.67922729296095" lon="8.984349478288486"><ele>149.75</ele><time>2026-04-27T09:02:41.814Z</time></trkpt><trkpt lat="39.67912594948223" lon="8.984271996320178"><ele>149.5</ele><time>2026-04-27T09:02:42.814Z</time></trkpt><trkpt lat="39.67902257117272" lon="8.984196632577856"><ele>149.25</ele><time>2026-04-27T09:02:43.814Z</time></trkpt><trkpt lat="39.678918579600115" lon="8.9841142874556"><ele>149.0</ele><time>2026-04-27T09:02:44.814Z</time></trkpt><trkpt lat="39.67881718984367" lon="8.984029750715706"><ele>149.0</ele><time>2026-04-27T09:02:45.814Z</time></trkpt><trkpt lat="39.67871353971233" lon="8.983949290770871"><ele>149.0</ele><time>2026-04-27T09:02:46.814Z</time></trkpt><trkpt lat="39.678613230106365" lon="8.98385316154821"><ele>149.0</ele><time>2026-04-27T09:02:47.814Z</time></trkpt><trkpt lat="39.67850904866228" lon="8.983758026684535"><ele>149.0</ele><time>2026-04-27T09:02:48.814Z</time></trkpt><trkpt lat="39.67839968438384" lon="8.9836655291168"><ele>148.5</ele><time>2026-04-27T09:02:49.814Z</time></trkpt><trkpt lat="39.67828486553951" lon="8.983573794983931"><ele>148.0</ele><time>2026-04-27T09:02:50.814Z</time></trkpt><trkpt lat="39.67817592569672" lon="8.983476426824032"><ele>147.5</ele><time>2026-04-27T09:02:51.814Z</time></trkpt><trkpt lat="39.67806358300861" lon="8.98337425082308"><ele>147.0</ele><time>2026-04-27T09:02:52.814Z</time></trkpt><trkpt lat="39.67794605478882" lon="8.983271179075805"><ele>147.0</ele><time>2026-04-27T09:02:53.814Z</time></trkpt><trkpt lat="39.677832122187134" lon="8.983171266900255"><ele>147.0</ele><time>2026-04-27T09:02:54.815Z</time></trkpt><trkpt lat="39.67773690046996" lon="8.983087917999985"><ele>147.0</ele><time>2026-04-27T09:02:55.815Z</time></trkpt><trkpt lat="39.67765345573633" lon="8.98301982537269"><ele>147.0</ele><time>2026-04-27T09:02:56.815Z</time></trkpt><trkpt lat="39.67758677374783" lon="8.982959720109971"><ele>147.0</ele><time>2026-04-27T09:02:57.815Z</time></trkpt><trkpt lat="39.677533121975436" lon="8.98291510941999"><ele>146.5</ele><time>2026-04-27T09:02:58.815Z</time></trkpt><trkpt lat="39.67748693566098" lon="8.98284439938853"><ele>146.0</ele><time>2026-04-27T09:03:00.816Z</time></trkpt><trkpt lat="39.67753556684186" lon="8.98274316664585"><ele>145.5</ele><time>2026-04-27T09:03:03.815Z</time></trkpt><trkpt lat="39.6776234698734" lon="8.982784843620749"><ele>145.0</ele><time>2026-04-27T09:03:06.816Z</time></trkpt><trkpt lat="39.67768593366543" lon="8.982849694174504"><ele>144.5</ele><time>2026-04-27T09:03:09.815Z</time></trkpt><trkpt lat="39.67772884572504" lon="8.982932666892887"><ele>144.0</ele><time>2026-04-27T09:03:13.815Z</time></trkpt><trkpt lat="39.67772889699759" lon="8.982844633537901"><ele>144.0</ele><time>2026-04-27T09:03:18.815Z</time></trkpt><trkpt lat="39.67768776584049" lon="8.982750579051432"><ele>144.0</ele><time>2026-04-27T09:16:29.753Z</time></trkpt><trkpt lat="39.6776182716457" lon="8.982737417309657"><ele>144.0</ele><time>2026-04-27T09:16:33.753Z</time></trkpt><trkpt lat="39.677508235894045" lon="8.982781536087364"><ele>144.0</ele><time>2026-04-27T09:16:35.753Z</time></trkpt><trkpt lat="39.677429696055775" lon="8.982797119350398"><ele>144.0</ele><time>2026-04-27T09:16:38.753Z</time></trkpt><trkpt lat="39.67735364661652" lon="8.982746673566506"><ele>144.0</ele><time>2026-04-27T09:16:40.753Z</time></trkpt><trkpt lat="39.677298415194684" lon="8.982700459118707"><ele>144.0</ele><time>2026-04-27T09:16:41.753Z</time></trkpt><trkpt lat="39.677228506854625" lon="8.98264013418415"><ele>144.0</ele><time>2026-04-27T09:16:42.753Z</time></trkpt><trkpt lat="39.677149799037004" lon="8.982575559116233"><ele>144.0</ele><time>2026-04-27T09:16:43.753Z</time></trkpt><trkpt lat="39.6770662798707" lon="8.982505176513625"><ele>144.0</ele><time>2026-04-27T09:16:44.752Z</time></trkpt><trkpt lat="39.6769786067261" lon="8.982429923396992"><ele>144.0</ele><time>2026-04-27T09:16:45.752Z</time></trkpt><trkpt lat="39.676895517560155" lon="8.98235461802708"><ele>144.0</ele><time>2026-04-27T09:16:46.752Z</time></trkpt><trkpt lat="39.67680280394498" lon="8.982281026150664"><ele>144.0</ele><time>2026-04-27T09:16:47.752Z</time></trkpt><trkpt lat="39.67671019836541" lon="8.982206316721992"><ele>144.0</ele><time>2026-04-27T09:16:48.752Z</time></trkpt><trkpt lat="39.67660821260311" lon="8.982119912630571"><ele>144.0</ele><time>2026-04-27T09:16:49.752Z</time></trkpt><trkpt lat="39.67650110123656" lon="8.982030404793923"><ele>144.0</ele><time>2026-04-27T09:16:50.752Z</time></trkpt><trkpt lat="39.67638429095382" lon="8.981935435696714"><ele>144.0</ele><time>2026-04-27T09:16:51.752Z</time></trkpt><trkpt lat="39.67626327373196" lon="8.981840631454178"><ele>144.0</ele><time>2026-04-27T09:16:52.752Z</time></trkpt><trkpt lat="39.676135707463914" lon="8.981737704511753"><ele>144.0</ele><time>2026-04-27T09:16:53.752Z</time></trkpt><trkpt lat="39.676002299567664" lon="8.981621201421992"><ele>143.66666666666666</ele><time>2026-04-27T09:16:54.752Z</time></trkpt><trkpt lat="39.6758707723111" lon="8.981515303435131"><ele>143.33333333333331</ele><time>2026-04-27T09:16:55.752Z</time></trkpt><trkpt lat="39.67574510667218" lon="8.981396809529908"><ele>143.0</ele><time>2026-04-27T09:16:56.752Z</time></trkpt><trkpt lat="39.67561154213334" lon="8.981289468278593"><ele>143.0</ele><time>2026-04-27T09:16:57.752Z</time></trkpt><trkpt lat="39.67548234921799" lon="8.981172247876303"><ele>143.0</ele><time>2026-04-27T09:16:58.752Z</time></trkpt><trkpt lat="39.67534113258619" lon="8.9810610609668"><ele>143.0</ele><time>2026-04-27T09:16:59.752Z</time></trkpt><trkpt lat="39.67519406495202" lon="8.98094552392972"><ele>142.66666666666666</ele><time>2026-04-27T09:17:00.752Z</time></trkpt><trkpt lat="39.67506519922315" lon="8.980836127455131"><ele>142.33333333333334</ele><time>2026-04-27T09:17:01.752Z</time></trkpt><trkpt lat="39.67494206495689" lon="8.980736404668166"><ele>142.0</ele><time>2026-04-27T09:17:02.752Z</time></trkpt><trkpt lat="39.67481033865115" lon="8.980621283270706"><ele>142.0</ele><time>2026-04-27T09:17:03.752Z</time></trkpt><trkpt lat="39.67466592231575" lon="8.98049580561116"><ele>142.0</ele><time>2026-04-27T09:17:04.752Z</time></trkpt><trkpt lat="39.67451190258653" lon="8.98037459547134"><ele>142.0</ele><time>2026-04-27T09:17:05.752Z</time></trkpt><trkpt lat="39.674346283168795" lon="8.980241240783364"><ele>142.33333333333334</ele><time>2026-04-27T09:17:06.752Z</time></trkpt><trkpt lat="39.674176779195086" lon="8.980098341764537"><ele>142.66666666666666</ele><time>2026-04-27T09:17:07.751Z</time></trkpt><trkpt lat="39.67400226595017" lon="8.979953805889263"><ele>143.0</ele><time>2026-04-27T09:17:08.751Z</time></trkpt><trkpt lat="39.67382841478844" lon="8.979805803049175"><ele>143.0</ele><time>2026-04-27T09:17:09.751Z</time></trkpt><trkpt lat="39.67365348278104" lon="8.9796579177308"><ele>143.0</ele><time>2026-04-27T09:17:10.751Z</time></trkpt><trkpt lat="39.67347457104866" lon="8.979511552900115"><ele>143.0</ele><time>2026-04-27T09:17:11.751Z</time></trkpt><trkpt lat="39.67329273246194" lon="8.979357395041857"><ele>143.0</ele><time>2026-04-27T09:17:12.751Z</time></trkpt><trkpt lat="39.67310953156714" lon="8.979200090593924"><ele>143.0</ele><time>2026-04-27T09:17:13.751Z</time></trkpt><trkpt lat="39.67292799831964" lon="8.979036680083041"><ele>143.0</ele><time>2026-04-27T09:17:14.751Z</time></trkpt><trkpt lat="39.67274143059257" lon="8.97887287749878"><ele>143.0</ele><time>2026-04-27T09:17:15.751Z</time></trkpt><trkpt lat="39.672553541668506" lon="8.978717621443762"><ele>143.0</ele><time>2026-04-27T09:17:16.751Z</time></trkpt><trkpt lat="39.672357837346446" lon="8.978578501941149"><ele>143.0</ele><time>2026-04-27T09:17:17.751Z</time></trkpt><trkpt lat="39.67214986581367" lon="8.978475708049462"><ele>143.0</ele><time>2026-04-27T09:17:18.751Z</time></trkpt><trkpt lat="39.67192443363859" lon="8.978397557393658"><ele>143.0</ele><time>2026-04-27T09:17:19.751Z</time></trkpt><trkpt lat="39.67169734024959" lon="8.978344975833917"><ele>144.0</ele><time>2026-04-27T09:17:20.751Z</time></trkpt><trkpt lat="39.67146701744466" lon="8.978322089037738"><ele>145.0</ele><time>2026-04-27T09:17:21.751Z</time></trkpt><trkpt lat="39.671237220624434" lon="8.978319527573845"><ele>143.5</ele><time>2026-04-27T09:17:22.751Z</time></trkpt><trkpt lat="39.67100454042354" lon="8.978347059292009"><ele>142.0</ele><time>2026-04-27T09:17:23.751Z</time></trkpt><trkpt lat="39.67077020339699" lon="8.978405513004374"><ele>141.5</ele><time>2026-04-27T09:17:24.751Z</time></trkpt><trkpt lat="39.67054060533428" lon="8.978491301644656"><ele>141.0</ele><time>2026-04-27T09:17:25.751Z</time></trkpt><trkpt lat="39.67031346227061" lon="8.978598443198564"><ele>144.0</ele><time>2026-04-27T09:17:26.751Z</time></trkpt><trkpt lat="39.670090673777494" lon="8.978715774210315"><ele>147.0</ele><time>2026-04-27T09:17:27.751Z</time></trkpt><trkpt lat="39.66987799818392" lon="8.978834682252868"><ele>147.0</ele><time>2026-04-27T09:17:28.751Z</time></trkpt><trkpt lat="39.66967339080586" lon="8.97894733643057"><ele>147.0</ele><time>2026-04-27T09:17:29.75Z</time></trkpt><trkpt lat="39.669461719020084" lon="8.979048069902522"><ele>147.0</ele><time>2026-04-27T09:17:30.75Z</time></trkpt><trkpt lat="39.669253621129045" lon="8.979152029840947"><ele>145.0</ele><time>2026-04-27T09:17:31.75Z</time></trkpt><trkpt lat="39.66904989601541" lon="8.979256078218816"><ele>143.0</ele><time>2026-04-27T09:17:32.75Z</time></trkpt><trkpt lat="39.66884044701774" lon="8.979361966224822"><ele>141.0</ele><time>2026-04-27T09:17:33.75Z</time></trkpt><trkpt lat="39.66861870187545" lon="8.979453876380113"><ele>142.0</ele><time>2026-04-27T09:17:34.751Z</time></trkpt><trkpt lat="39.668388256282135" lon="8.979539528081434"><ele>143.0</ele><time>2026-04-27T09:17:35.752Z</time></trkpt><trkpt lat="39.66815368095804" lon="8.979612582806892"><ele>143.0</ele><time>2026-04-27T09:17:36.752Z</time></trkpt><trkpt lat="39.66791520469461" lon="8.979678297279586"><ele>143.0</ele><time>2026-04-27T09:17:37.752Z</time></trkpt><trkpt lat="39.667679509825916" lon="8.97973855878023"><ele>143.0</ele><time>2026-04-27T09:17:38.751Z</time></trkpt><trkpt lat="39.66743232293845" lon="8.979798456679301"><ele>143.0</ele><time>2026-04-27T09:17:39.751Z</time></trkpt><trkpt lat="39.66718691495499" lon="8.979852131377086"><ele>143.0</ele><time>2026-04-27T09:17:40.751Z</time></trkpt><trkpt lat="39.666948000256454" lon="8.979892930243597"><ele>143.0</ele><time>2026-04-27T09:17:41.751Z</time></trkpt><trkpt lat="39.666695507030454" lon="8.979918019488817"><ele>142.5</ele><time>2026-04-27T09:17:42.751Z</time></trkpt><trkpt lat="39.66644083917107" lon="8.979923117776108"><ele>142.0</ele><time>2026-04-27T09:17:43.751Z</time></trkpt><trkpt lat="39.66618475783337" lon="8.979932505628136"><ele>144.0</ele><time>2026-04-27T09:17:44.751Z</time></trkpt><trkpt lat="39.66592911129313" lon="8.97993479803331"><ele>146.0</ele><time>2026-04-27T09:17:45.751Z</time></trkpt><trkpt lat="39.66566872573632" lon="8.979947485738546"><ele>146.0</ele><time>2026-04-27T09:17:46.752Z</time></trkpt><trkpt lat="39.665406307147464" lon="8.9799545843533"><ele>146.0</ele><time>2026-04-27T09:17:47.751Z</time></trkpt><trkpt lat="39.66514058366301" lon="8.979974644080439"><ele>146.0</ele><time>2026-04-27T09:17:48.751Z</time></trkpt><trkpt lat="39.66487196503001" lon="8.980005632057896"><ele>146.0</ele><time>2026-04-27T09:17:49.751Z</time></trkpt><trkpt lat="39.66460187754779" lon="8.980057797633325"><ele>143.5</ele><time>2026-04-27T09:17:50.751Z</time></trkpt><trkpt lat="39.664330133153115" lon="8.980080939402916"><ele>141.0</ele><time>2026-04-27T09:17:51.751Z</time></trkpt><trkpt lat="39.664060941180665" lon="8.980118405534315"><ele>141.0</ele><time>2026-04-27T09:17:52.751Z</time></trkpt><trkpt lat="39.66380584107465" lon="8.980334565818152"><ele>141.0</ele><time>2026-04-27T09:17:53.751Z</time></trkpt><trkpt lat="39.66354100986238" lon="8.980456239439963"><ele>143.0</ele><time>2026-04-27T09:17:54.751Z</time></trkpt><trkpt lat="39.66328567200788" lon="8.98057962022114"><ele>145.0</ele><time>2026-04-27T09:17:55.751Z</time></trkpt><trkpt lat="39.66303270380904" lon="8.980705259877556"><ele>145.0</ele><time>2026-04-27T09:17:56.751Z</time></trkpt><trkpt lat="39.66278838827186" lon="8.980826374441472"><ele>145.0</ele><time>2026-04-27T09:17:57.751Z</time></trkpt><trkpt lat="39.66254019835" lon="8.980929058109954"><ele>142.5</ele><time>2026-04-27T09:17:58.751Z</time></trkpt><trkpt lat="39.66229366178637" lon="8.98098271536803"><ele>140.0</ele><time>2026-04-27T09:17:59.751Z</time></trkpt><trkpt lat="39.662053114578825" lon="8.981006571687162"><ele>139.33333333333331</ele><time>2026-04-27T09:18:00.751Z</time></trkpt><trkpt lat="39.661829082882235" lon="8.980988496691957"><ele>138.66666666666666</ele><time>2026-04-27T09:18:01.751Z</time></trkpt><trkpt lat="39.6616222565315" lon="8.980914690407426"><ele>138.0</ele><time>2026-04-27T09:18:02.751Z</time></trkpt><trkpt lat="39.66143714349608" lon="8.980786114542495"><ele>140.33333333333334</ele><time>2026-04-27T09:18:03.751Z</time></trkpt><trkpt lat="39.66126686898397" lon="8.980616338831558"><ele>142.66666666666669</ele><time>2026-04-27T09:18:04.751Z</time></trkpt><trkpt lat="39.66113049746147" lon="8.980396427102546"><ele>145.0</ele><time>2026-04-27T09:18:05.751Z</time></trkpt><trkpt lat="39.66101207327982" lon="8.980149715078376"><ele>148.5</ele><time>2026-04-27T09:18:06.75Z</time></trkpt><trkpt lat="39.66091038109365" lon="8.979876762234325"><ele>152.0</ele><time>2026-04-27T09:18:07.75Z</time></trkpt><trkpt lat="39.66084466840905" lon="8.979585101080119"><ele>152.0</ele><time>2026-04-27T09:18:08.75Z</time></trkpt><trkpt lat="39.66078903138331" lon="8.979278049085272"><ele>152.0</ele><time>2026-04-27T09:18:09.75Z</time></trkpt><trkpt lat="39.660738896878556" lon="8.978957665178115"><ele>152.0</ele><time>2026-04-27T09:18:10.75Z</time></trkpt><trkpt lat="39.66068707868512" lon="8.9786244850226"><ele>152.0</ele><time>2026-04-27T09:18:11.75Z</time></trkpt><trkpt lat="39.66062370091954" lon="8.978288736772019"><ele>152.0</ele><time>2026-04-27T09:18:12.75Z</time></trkpt><trkpt lat="39.660559316435354" lon="8.97794628144655"><ele>152.0</ele><time>2026-04-27T09:18:13.75Z</time></trkpt><trkpt lat="39.66049097264583" lon="8.977596269959761"><ele>153.0</ele><time>2026-04-27T09:18:14.75Z</time></trkpt><trkpt lat="39.66042774540917" lon="8.977234396310491"><ele>154.0</ele><time>2026-04-27T09:18:15.75Z</time></trkpt><trkpt lat="39.660364314630165" lon="8.976859176519477"><ele>157.5</ele><time>2026-04-27T09:18:16.75Z</time></trkpt><trkpt lat="39.66030031909223" lon="8.976498209403678"><ele>161.0</ele><time>2026-04-27T09:18:17.75Z</time></trkpt><trkpt lat="39.66022782533155" lon="8.976135983126214"><ele>152.0</ele><time>2026-04-27T09:18:18.75Z</time></trkpt><trkpt lat="39.66016670612122" lon="8.975775290052495"><ele>143.0</ele><time>2026-04-27T09:18:19.75Z</time></trkpt><trkpt lat="39.6600968174236" lon="8.975415256566128"><ele>143.0</ele><time>2026-04-27T09:18:20.75Z</time></trkpt><trkpt lat="39.66002793138368" lon="8.975058773220143"><ele>143.0</ele><time>2026-04-27T09:18:21.75Z</time></trkpt><trkpt lat="39.65995203692304" lon="8.974703084990546"><ele>146.0</ele><time>2026-04-27T09:18:22.75Z</time></trkpt><trkpt lat="39.6598657326894" lon="8.974355490426438"><ele>149.0</ele><time>2026-04-27T09:18:23.75Z</time></trkpt><trkpt lat="39.65975944140878" lon="8.97401828919589"><ele>153.5</ele><time>2026-04-27T09:18:24.75Z</time></trkpt><trkpt lat="39.65961563166351" lon="8.97370294344853"><ele>158.0</ele><time>2026-04-27T09:18:25.75Z</time></trkpt><trkpt lat="39.65945368892356" lon="8.973398224337647"><ele>151.0</ele><time>2026-04-27T09:18:26.75Z</time></trkpt><trkpt lat="39.65927717929888" lon="8.973103307017782"><ele>144.0</ele><time>2026-04-27T09:18:27.75Z</time></trkpt><trkpt lat="39.6590842561536" lon="8.972826896296798"><ele>144.0</ele><time>2026-04-27T09:18:28.749Z</time></trkpt><trkpt lat="39.65888113328398" lon="8.972559954392375"><ele>144.0</ele><time>2026-04-27T09:18:29.749Z</time></trkpt><trkpt lat="39.65866770241416" lon="8.972308393286474"><ele>142.5</ele><time>2026-04-27T09:18:30.749Z</time></trkpt><trkpt lat="39.65844615842619" lon="8.972090735548662"><ele>141.0</ele><time>2026-04-27T09:18:31.749Z</time></trkpt><trkpt lat="39.65821051014178" lon="8.97191406186655"><ele>141.0</ele><time>2026-04-27T09:18:32.749Z</time></trkpt><trkpt lat="39.65795112986076" lon="8.971794130693043"><ele>141.0</ele><time>2026-04-27T09:18:33.749Z</time></trkpt><trkpt lat="39.657683546448894" lon="8.971715203993984"><ele>137.5</ele><time>2026-04-27T09:18:34.749Z</time></trkpt><trkpt lat="39.65739640960045" lon="8.97169563648758"><ele>134.0</ele><time>2026-04-27T09:18:35.749Z</time></trkpt><trkpt lat="39.65711086910449" lon="8.971708611237368"><ele>134.0</ele><time>2026-04-27T09:18:36.749Z</time></trkpt><trkpt lat="39.65682582263968" lon="8.971751567291342"><ele>134.0</ele><time>2026-04-27T09:18:37.749Z</time></trkpt><trkpt lat="39.65654485821986" lon="8.971823727427456"><ele>134.0</ele><time>2026-04-27T09:18:38.749Z</time></trkpt><trkpt lat="39.656260347639915" lon="8.97190210506339"><ele>134.0</ele><time>2026-04-27T09:18:39.749Z</time></trkpt><trkpt lat="39.65597541234651" lon="8.971981267418768"><ele>135.5</ele><time>2026-04-27T09:18:40.749Z</time></trkpt><trkpt lat="39.65569155260126" lon="8.972063711123816"><ele>137.0</ele><time>2026-04-27T09:18:41.749Z</time></trkpt><trkpt lat="39.65540941348342" lon="8.97214456357842"><ele>140.0</ele><time>2026-04-27T09:18:42.749Z</time></trkpt><trkpt lat="39.65512402408567" lon="8.972225042380112"><ele>143.0</ele><time>2026-04-27T09:18:43.749Z</time></trkpt><trkpt lat="39.65483499597231" lon="8.972305333419797"><ele>143.0</ele><time>2026-04-27T09:18:44.749Z</time></trkpt><trkpt lat="39.65454428325584" lon="8.972383056634047"><ele>143.0</ele><time>2026-04-27T09:18:45.749Z</time></trkpt><trkpt lat="39.654253551704855" lon="8.972459466329187"><ele>139.0</ele><time>2026-04-27T09:18:46.749Z</time></trkpt><trkpt lat="39.65396372094966" lon="8.972533106261439"><ele>135.0</ele><time>2026-04-27T09:18:47.749Z</time></trkpt><trkpt lat="39.65367703411483" lon="8.972611227912486"><ele>133.5</ele><time>2026-04-27T09:18:48.749Z</time></trkpt><trkpt lat="39.65338708642619" lon="8.972684095906562"><ele>132.0</ele><time>2026-04-27T09:18:49.749Z</time></trkpt><trkpt lat="39.65309601001085" lon="8.972757387597198"><ele>132.0</ele><time>2026-04-27T09:18:50.749Z</time></trkpt><trkpt lat="39.65280201347501" lon="8.972832866650629"><ele>132.0</ele><time>2026-04-27T09:18:51.748Z</time></trkpt><trkpt lat="39.652508455053336" lon="8.972909686527775"><ele>133.5</ele><time>2026-04-27T09:18:52.748Z</time></trkpt><trkpt lat="39.652213725927815" lon="8.972986838572721"><ele>135.0</ele><time>2026-04-27T09:18:53.748Z</time></trkpt><trkpt lat="39.65192530446362" lon="8.973071825745544"><ele>136.0</ele><time>2026-04-27T09:18:54.748Z</time></trkpt><trkpt lat="39.651638300328074" lon="8.973144967919156"><ele>137.0</ele><time>2026-04-27T09:18:55.748Z</time></trkpt><trkpt lat="39.6513513916674" lon="8.973221114462357"><ele>141.5</ele><time>2026-04-27T09:18:56.748Z</time></trkpt><trkpt lat="39.651073690278594" lon="8.973294662283566"><ele>146.0</ele><time>2026-04-27T09:18:57.748Z</time></trkpt><trkpt lat="39.65079783002914" lon="8.973369028881507"><ele>146.0</ele><time>2026-04-27T09:18:58.748Z</time></trkpt><trkpt lat="39.650524544603456" lon="8.973439360027497"><ele>146.0</ele><time>2026-04-27T09:18:59.748Z</time></trkpt><trkpt lat="39.650247743334454" lon="8.973496309569391"><ele>145.0</ele><time>2026-04-27T09:19:00.748Z</time></trkpt><trkpt lat="39.64997329419652" lon="8.973525286682657"><ele>144.0</ele><time>2026-04-27T09:19:01.748Z</time></trkpt><trkpt lat="39.64970508442312" lon="8.973511437146565"><ele>142.5</ele><time>2026-04-27T09:19:02.748Z</time></trkpt><trkpt lat="39.649431396370595" lon="8.973465881390089"><ele>141.0</ele><time>2026-04-27T09:19:03.748Z</time></trkpt><trkpt lat="39.649155099110146" lon="8.973404963609775"><ele>140.5</ele><time>2026-04-27T09:19:04.748Z</time></trkpt><trkpt lat="39.648876984454866" lon="8.973328167440936"><ele>140.0</ele><time>2026-04-27T09:19:05.748Z</time></trkpt><trkpt lat="39.648600513453005" lon="8.973229807982827"><ele>139.0</ele><time>2026-04-27T09:19:06.748Z</time></trkpt><trkpt lat="39.648331001218814" lon="8.973098311931363"><ele>138.0</ele><time>2026-04-27T09:19:07.748Z</time></trkpt><trkpt lat="39.648073470721414" lon="8.972924250101006"><ele>138.0</ele><time>2026-04-27T09:19:08.748Z</time></trkpt><trkpt lat="39.647820540862135" lon="8.972730942273781"><ele>138.0</ele><time>2026-04-27T09:19:09.748Z</time></trkpt><trkpt lat="39.64757258967339" lon="8.97251374044622"><ele>135.5</ele><time>2026-04-27T09:19:10.748Z</time></trkpt><trkpt lat="39.64734632259782" lon="8.972267844444678"><ele>133.0</ele><time>2026-04-27T09:19:11.748Z</time></trkpt><trkpt lat="39.64711323303482" lon="8.97202567731935"><ele>132.0</ele><time>2026-04-27T09:19:12.748Z</time></trkpt><trkpt lat="39.646871625045186" lon="8.971800214970763"><ele>131.0</ele><time>2026-04-27T09:19:13.747Z</time></trkpt><trkpt lat="39.64663892141049" lon="8.971551689154985"><ele>131.0</ele><time>2026-04-27T09:19:14.747Z</time></trkpt><trkpt lat="39.646406633852884" lon="8.971309063645672"><ele>131.0</ele><time>2026-04-27T09:19:15.747Z</time></trkpt><trkpt lat="39.64617321999747" lon="8.97106540156832"><ele>130.5</ele><time>2026-04-27T09:19:16.747Z</time></trkpt><trkpt lat="39.645938564782455" lon="8.970823397164347"><ele>130.0</ele><time>2026-04-27T09:19:17.747Z</time></trkpt><trkpt lat="39.645703619423806" lon="8.970588079081358"><ele>130.0</ele><time>2026-04-27T09:19:18.747Z</time></trkpt><trkpt lat="39.645465055408636" lon="8.970347116683886"><ele>130.0</ele><time>2026-04-27T09:19:19.747Z</time></trkpt><trkpt lat="39.64522826236828" lon="8.970105885183424"><ele>128.5</ele><time>2026-04-27T09:19:20.747Z</time></trkpt><trkpt lat="39.64499200468298" lon="8.969860954208915"><ele>127.0</ele><time>2026-04-27T09:19:21.747Z</time></trkpt><trkpt lat="39.64475571545444" lon="8.969618828810864"><ele>127.0</ele><time>2026-04-27T09:19:22.747Z</time></trkpt><trkpt lat="39.6445232941245" lon="8.969373279267243"><ele>127.0</ele><time>2026-04-27T09:19:23.747Z</time></trkpt><trkpt lat="39.644289191799075" lon="8.96912922816798"><ele>126.0</ele><time>2026-04-27T09:19:24.747Z</time></trkpt><trkpt lat="39.64405534017733" lon="8.96889442524041"><ele>125.0</ele><time>2026-04-27T09:19:25.747Z</time></trkpt><trkpt lat="39.64382232218915" lon="8.968654272325283"><ele>123.5</ele><time>2026-04-27T09:19:26.747Z</time></trkpt><trkpt lat="39.643586461278915" lon="8.968415541099146"><ele>122.0</ele><time>2026-04-27T09:19:27.747Z</time></trkpt><trkpt lat="39.64334811573195" lon="8.968179067013248"><ele>121.5</ele><time>2026-04-27T09:19:28.747Z</time></trkpt><trkpt lat="39.64311154347393" lon="8.967943754974067"><ele>121.0</ele><time>2026-04-27T09:19:29.747Z</time></trkpt><trkpt lat="39.64287780565141" lon="8.967706779970902"><ele>121.5</ele><time>2026-04-27T09:19:30.747Z</time></trkpt><trkpt lat="39.64265108478788" lon="8.967468592025321"><ele>122.0</ele><time>2026-04-27T09:19:31.747Z</time></trkpt><trkpt lat="39.64242448990863" lon="8.967223378132433"><ele>122.0</ele><time>2026-04-27T09:19:32.747Z</time></trkpt><trkpt lat="39.642198416666915" lon="8.966981569902877"><ele>122.0</ele><time>2026-04-27T09:19:33.747Z</time></trkpt><trkpt lat="39.641971181991735" lon="8.966733931948774"><ele>121.0</ele><time>2026-04-27T09:19:34.747Z</time></trkpt><trkpt lat="39.64173823990714" lon="8.966488518822807"><ele>120.0</ele><time>2026-04-27T09:19:35.747Z</time></trkpt><trkpt lat="39.64150161803315" lon="8.966253890985588"><ele>120.0</ele><time>2026-04-27T09:19:36.746Z</time></trkpt><trkpt lat="39.64126480766984" lon="8.96601808500862"><ele>120.0</ele><time>2026-04-27T09:19:37.746Z</time></trkpt><trkpt lat="39.64102721543437" lon="8.965780771176002"><ele>120.0</ele><time>2026-04-27T09:19:38.746Z</time></trkpt><trkpt lat="39.64079348432825" lon="8.965539846794378"><ele>120.0</ele><time>2026-04-27T09:19:39.747Z</time></trkpt><trkpt lat="39.64055914374057" lon="8.965302325442554"><ele>120.0</ele><time>2026-04-27T09:19:40.747Z</time></trkpt><trkpt lat="39.64032820558471" lon="8.965065219646904"><ele>120.0</ele><time>2026-04-27T09:19:41.747Z</time></trkpt><trkpt lat="39.64010013701154" lon="8.964825799725054"><ele>119.5</ele><time>2026-04-27T09:19:42.747Z</time></trkpt><trkpt lat="39.639870395804216" lon="8.964593595579966"><ele>119.0</ele><time>2026-04-27T09:19:43.746Z</time></trkpt><trkpt lat="39.63963914416225" lon="8.964359821296908"><ele>118.5</ele><time>2026-04-27T09:19:44.746Z</time></trkpt><trkpt lat="39.639403608645985" lon="8.964136829901147"><ele>118.0</ele><time>2026-04-27T09:19:45.747Z</time></trkpt><trkpt lat="39.63916039243827" lon="8.963920683623227"><ele>118.0</ele><time>2026-04-27T09:19:46.747Z</time></trkpt><trkpt lat="39.63891317766815" lon="8.963717196779376"><ele>118.0</ele><time>2026-04-27T09:19:47.747Z</time></trkpt><trkpt lat="39.63866464956624" lon="8.9635372746417"><ele>117.5</ele><time>2026-04-27T09:19:48.747Z</time></trkpt><trkpt lat="39.63840298875228" lon="8.96337907455385"><ele>117.0</ele><time>2026-04-27T09:19:49.747Z</time></trkpt><trkpt lat="39.63813457684238" lon="8.963241320171552"><ele>118.0</ele><time>2026-04-27T09:19:50.747Z</time></trkpt><trkpt lat="39.63786440661088" lon="8.963122871794353"><ele>119.0</ele><time>2026-04-27T09:19:51.746Z</time></trkpt><trkpt lat="39.637589751705384" lon="8.963027548566153"><ele>119.0</ele><time>2026-04-27T09:19:52.746Z</time></trkpt><trkpt lat="39.637314394090176" lon="8.962936324004904"><ele>119.0</ele><time>2026-04-27T09:19:53.746Z</time></trkpt><trkpt lat="39.63704107290732" lon="8.962850694335591"><ele>119.5</ele><time>2026-04-27T09:19:54.746Z</time></trkpt><trkpt lat="39.63676265254125" lon="8.962785288478557"><ele>120.0</ele><time>2026-04-27T09:19:55.746Z</time></trkpt><trkpt lat="39.63648188733743" lon="8.962731483858533"><ele>120.0</ele><time>2026-04-27T09:19:56.746Z</time></trkpt><trkpt lat="39.6361967337782" lon="8.962680375945531"><ele>120.0</ele><time>2026-04-27T09:19:57.746Z</time></trkpt><trkpt lat="39.63591232357697" lon="8.962630101532588"><ele>121.0</ele><time>2026-04-27T09:19:58.746Z</time></trkpt><trkpt lat="39.635627313821544" lon="8.962578411406422"><ele>122.0</ele><time>2026-04-27T09:19:59.746Z</time></trkpt><trkpt lat="39.63534336186432" lon="8.96252687251992"><ele>125.5</ele><time>2026-04-27T09:20:00.746Z</time></trkpt><trkpt lat="39.63505904733502" lon="8.962475590694858"><ele>129.0</ele><time>2026-04-27T09:20:01.746Z</time></trkpt><trkpt lat="39.63477177605584" lon="8.962425372250566"><ele>129.0</ele><time>2026-04-27T09:20:02.746Z</time></trkpt><trkpt lat="39.634487929370266" lon="8.96237333130021"><ele>129.0</ele><time>2026-04-27T09:20:03.746Z</time></trkpt><trkpt lat="39.63419464088542" lon="8.962321932164961"><ele>127.5</ele><time>2026-04-27T09:20:04.746Z</time></trkpt><trkpt lat="39.63390349396225" lon="8.962273271759438"><ele>126.0</ele><time>2026-04-27T09:20:05.746Z</time></trkpt><trkpt lat="39.63361027507107" lon="8.962223966168532"><ele>125.5</ele><time>2026-04-27T09:20:06.746Z</time></trkpt><trkpt lat="39.633319625849474" lon="8.962171702339251"><ele>125.0</ele><time>2026-04-27T09:20:07.746Z</time></trkpt><trkpt lat="39.63302939691131" lon="8.962124898859724"><ele>124.0</ele><time>2026-04-27T09:20:08.746Z</time></trkpt><trkpt lat="39.63274166152118" lon="8.962075410440937"><ele>123.0</ele><time>2026-04-27T09:20:09.745Z</time></trkpt><trkpt lat="39.63245799044478" lon="8.962024737734215"><ele>123.0</ele><time>2026-04-27T09:20:10.745Z</time></trkpt><trkpt lat="39.63217160368616" lon="8.961974484799654"><ele>123.0</ele><time>2026-04-27T09:20:11.745Z</time></trkpt><trkpt lat="39.63188737750284" lon="8.96192056120569"><ele>124.0</ele><time>2026-04-27T09:20:12.745Z</time></trkpt><trkpt lat="39.63160398765383" lon="8.961868784675733"><ele>125.0</ele><time>2026-04-27T09:20:13.745Z</time></trkpt><trkpt lat="39.63131976592817" lon="8.961818795000143"><ele>126.0</ele><time>2026-04-27T09:20:14.745Z</time></trkpt><trkpt lat="39.631037873680704" lon="8.961767793081926"><ele>127.0</ele><time>2026-04-27T09:20:15.745Z</time></trkpt><trkpt lat="39.63075146184875" lon="8.961718044179632"><ele>124.5</ele><time>2026-04-27T09:20:16.745Z</time></trkpt><trkpt lat="39.630469948853225" lon="8.961667089262509"><ele>122.0</ele><time>2026-04-27T09:20:17.745Z</time></trkpt><trkpt lat="39.63018687401673" lon="8.961621158543029"><ele>120.5</ele><time>2026-04-27T09:20:18.745Z</time></trkpt><trkpt lat="39.629904736584926" lon="8.961573805326365"><ele>119.0</ele><time>2026-04-27T09:20:19.745Z</time></trkpt><trkpt lat="39.629624651927934" lon="8.961523759778542"><ele>118.5</ele><time>2026-04-27T09:20:20.745Z</time></trkpt><trkpt lat="39.62934114492485" lon="8.96147503170384"><ele>118.0</ele><time>2026-04-27T09:20:21.745Z</time></trkpt><trkpt lat="39.62907435741731" lon="8.96141935394449"><ele>118.0</ele><time>2026-04-27T09:20:22.745Z</time></trkpt><trkpt lat="39.62881963203021" lon="8.96137575900285"><ele>118.0</ele><time>2026-04-27T09:20:23.745Z</time></trkpt><trkpt lat="39.628580458140625" lon="8.961337520636533"><ele>118.0</ele><time>2026-04-27T09:20:24.745Z</time></trkpt><trkpt lat="39.62835276193902" lon="8.961298945276521"><ele>118.0</ele><time>2026-04-27T09:20:25.745Z</time></trkpt><trkpt lat="39.628142871006226" lon="8.961263325670027"><ele>118.0</ele><time>2026-04-27T09:20:26.745Z</time></trkpt><trkpt lat="39.62793274769818" lon="8.961221798770845"><ele>118.66666666666667</ele><time>2026-04-27T09:20:27.745Z</time></trkpt><trkpt lat="39.62773967661961" lon="8.961182181521322"><ele>119.33333333333334</ele><time>2026-04-27T09:20:28.745Z</time></trkpt><trkpt lat="39.62755498662948" lon="8.961147090905566"><ele>120.0</ele><time>2026-04-27T09:20:29.745Z</time></trkpt><trkpt lat="39.62736988500768" lon="8.96112048381147"><ele>120.0</ele><time>2026-04-27T09:20:30.745Z</time></trkpt><trkpt lat="39.62718743905468" lon="8.961090962670466"><ele>120.0</ele><time>2026-04-27T09:20:31.745Z</time></trkpt><trkpt lat="39.62700982979085" lon="8.961053590321454"><ele>120.0</ele><time>2026-04-27T09:20:32.744Z</time></trkpt><trkpt lat="39.626830810490425" lon="8.961021055358827"><ele>119.33333333333334</ele><time>2026-04-27T09:20:33.744Z</time></trkpt><trkpt lat="39.62665165264163" lon="8.96098647494121"><ele>118.66666666666667</ele><time>2026-04-27T09:20:34.744Z</time></trkpt><trkpt lat="39.6264767407249" lon="8.96095526636494"><ele>118.0</ele><time>2026-04-27T09:20:35.744Z</time></trkpt><trkpt lat="39.62630318325145" lon="8.960928506699192"><ele>117.33333333333334</ele><time>2026-04-27T09:20:36.744Z</time></trkpt><trkpt lat="39.626128866543645" lon="8.960908061007046"><ele>116.66666666666666</ele><time>2026-04-27T09:20:37.744Z</time></trkpt><trkpt lat="39.62595693029461" lon="8.96089323311506"><ele>116.0</ele><time>2026-04-27T09:20:38.744Z</time></trkpt><trkpt lat="39.625784511066854" lon="8.960869788373014"><ele>116.33333333333333</ele><time>2026-04-27T09:20:39.744Z</time></trkpt><trkpt lat="39.62561613586805" lon="8.960844355365234"><ele>116.66666666666666</ele><time>2026-04-27T09:20:40.744Z</time></trkpt><trkpt lat="39.62544764904369" lon="8.960820880338096"><ele>117.0</ele><time>2026-04-27T09:20:41.744Z</time></trkpt><trkpt lat="39.62527655655889" lon="8.960800772903148"><ele>117.0</ele><time>2026-04-27T09:20:42.744Z</time></trkpt><trkpt lat="39.62510746099508" lon="8.960780295333683"><ele>117.0</ele><time>2026-04-27T09:20:43.744Z</time></trkpt><trkpt lat="39.624941160739354" lon="8.960756547066003"><ele>117.0</ele><time>2026-04-27T09:20:44.744Z</time></trkpt><trkpt lat="39.6247869050083" lon="8.960730889280297"><ele>117.0</ele><time>2026-04-27T09:20:45.744Z</time></trkpt><trkpt lat="39.62463490837544" lon="8.96071714630321"><ele>117.0</ele><time>2026-04-27T09:20:46.744Z</time></trkpt><trkpt lat="39.62448889672754" lon="8.960699080223497"><ele>117.0</ele><time>2026-04-27T09:20:47.744Z</time></trkpt><trkpt lat="39.6243397502402" lon="8.960680089892328"><ele>117.0</ele><time>2026-04-27T09:20:48.744Z</time></trkpt><trkpt lat="39.62419789655065" lon="8.960659424274114"><ele>116.5</ele><time>2026-04-27T09:20:49.744Z</time></trkpt><trkpt lat="39.62406420923825" lon="8.960649148936533"><ele>116.0</ele><time>2026-04-27T09:20:50.744Z</time></trkpt><trkpt lat="39.62393440597329" lon="8.960642802250124"><ele>115.5</ele><time>2026-04-27T09:20:51.744Z</time></trkpt><trkpt lat="39.623813003143425" lon="8.960621500742803"><ele>115.0</ele><time>2026-04-27T09:20:52.744Z</time></trkpt><trkpt lat="39.623698178804325" lon="8.96060744909255"><ele>114.5</ele><time>2026-04-27T09:20:53.744Z</time></trkpt><trkpt lat="39.62359078059949" lon="8.960600945942193"><ele>114.0</ele><time>2026-04-27T09:20:54.743Z</time></trkpt><trkpt lat="39.62347338334674" lon="8.960599631216553"><ele>113.5</ele><time>2026-04-27T09:20:55.743Z</time></trkpt><trkpt lat="39.62335884913799" lon="8.960584349847718"><ele>113.0</ele><time>2026-04-27T09:20:56.743Z</time></trkpt><trkpt lat="39.62324264584754" lon="8.960567235953972"><ele>113.0</ele><time>2026-04-27T09:20:57.743Z</time></trkpt><trkpt lat="39.623134028763" lon="8.960553492538615"><ele>113.0</ele><time>2026-04-27T09:20:58.743Z</time></trkpt><trkpt lat="39.62301925404154" lon="8.960543061804891"><ele>113.0</ele><time>2026-04-27T09:20:59.743Z</time></trkpt><trkpt lat="39.6229017143108" lon="8.960529441885244"><ele>113.0</ele><time>2026-04-27T09:21:00.743Z</time></trkpt><trkpt lat="39.622786540498055" lon="8.960521036992164"><ele>112.75</ele><time>2026-04-27T09:21:01.743Z</time></trkpt><trkpt lat="39.6226706227362" lon="8.960519076479638"><ele>112.5</ele><time>2026-04-27T09:21:02.743Z</time></trkpt><trkpt lat="39.622556316333274" lon="8.960511322893254"><ele>112.25</ele><time>2026-04-27T09:21:03.743Z</time></trkpt><trkpt lat="39.62244396289782" lon="8.960494799847023"><ele>112.0</ele><time>2026-04-27T09:21:04.743Z</time></trkpt><trkpt lat="39.62233099074454" lon="8.96047570765711"><ele>112.0</ele><time>2026-04-27T09:21:05.743Z</time></trkpt><trkpt lat="39.622219816271794" lon="8.960467156127516"><ele>111.99999999999999</ele><time>2026-04-27T09:21:06.743Z</time></trkpt><trkpt lat="39.622107264183484" lon="8.960447932318736"><ele>111.99999999999999</ele><time>2026-04-27T09:21:07.743Z</time></trkpt><trkpt lat="39.621996966104064" lon="8.960432393752676"><ele>112.0</ele><time>2026-04-27T09:21:08.743Z</time></trkpt><trkpt lat="39.621885406376556" lon="8.960416999483693"><ele>112.0</ele><time>2026-04-27T09:21:09.743Z</time></trkpt><trkpt lat="39.621776057381176" lon="8.96040159641631"><ele>112.0</ele><time>2026-04-27T09:21:10.743Z</time></trkpt><trkpt lat="39.621664788902045" lon="8.960385294938943"><ele>111.99999999999999</ele><time>2026-04-27T09:21:11.743Z</time></trkpt><trkpt lat="39.62156359442199" lon="8.960377079546753"><ele>111.99999999999999</ele><time>2026-04-27T09:21:12.743Z</time></trkpt><trkpt lat="39.62146786364546" lon="8.960348718888564"><ele>112.0</ele><time>2026-04-27T09:21:13.743Z</time></trkpt><trkpt lat="39.621377433756045" lon="8.960339976842256"><ele>112.0</ele><time>2026-04-27T09:21:14.743Z</time></trkpt><trkpt lat="39.621291993061504" lon="8.960335736946458"><ele>112.00000000000001</ele><time>2026-04-27T09:21:15.743Z</time></trkpt><trkpt lat="39.62121118687504" lon="8.96033566126139"><ele>112.0</ele><time>2026-04-27T09:21:16.742Z</time></trkpt><trkpt lat="39.62110784439407" lon="8.960314106369907"><ele>112.0</ele><time>2026-04-27T09:21:18.742Z</time></trkpt><trkpt lat="39.62104468161544" lon="8.960305479224871"><ele>112.0</ele><time>2026-04-27T09:21:22.742Z</time></trkpt><trkpt lat="39.620963215114735" lon="8.960292084426548"><ele>112.00000000000001</ele><time>2026-04-27T09:21:24.742Z</time></trkpt><trkpt lat="39.62084770193131" lon="8.960267788846199"><ele>112.0</ele><time>2026-04-27T09:21:26.742Z</time></trkpt><trkpt lat="39.62078374977474" lon="8.960239452495768"><ele>112.00000000000001</ele><time>2026-04-27T09:21:27.742Z</time></trkpt><trkpt lat="39.62071945162941" lon="8.960206545034325"><ele>112.0</ele><time>2026-04-27T09:21:28.742Z</time></trkpt><trkpt lat="39.62065916648769" lon="8.96016110009922"><ele>112.0</ele><time>2026-04-27T09:21:29.742Z</time></trkpt><trkpt lat="39.62059847195289" lon="8.960094863940876"><ele>112.0</ele><time>2026-04-27T09:21:30.742Z</time></trkpt><trkpt lat="39.62053606698985" lon="8.960020706261298"><ele>112.00000000000001</ele><time>2026-04-27T09:21:31.742Z</time></trkpt><trkpt lat="39.62047332348177" lon="8.959938124609863"><ele>112.0</ele><time>2026-04-27T09:21:32.742Z</time></trkpt><trkpt lat="39.62042010673528" lon="8.959845893741369"><ele>112.0</ele><time>2026-04-27T09:21:33.742Z</time></trkpt><trkpt lat="39.62037242344538" lon="8.959755124850904"><ele>111.99999999999999</ele><time>2026-04-27T09:21:34.742Z</time></trkpt><trkpt lat="39.620319637549045" lon="8.959658990568704"><ele>111.99999999999999</ele><time>2026-04-27T09:21:35.742Z</time></trkpt><trkpt lat="39.62026928529061" lon="8.959563222838575"><ele>112.0</ele><time>2026-04-27T09:21:36.742Z</time></trkpt><trkpt lat="39.620210578394634" lon="8.959459593262858"><ele>112.0</ele><time>2026-04-27T09:21:37.742Z</time></trkpt><trkpt lat="39.62015367835992" lon="8.95934506547742"><ele>112.0</ele><time>2026-04-27T09:21:38.742Z</time></trkpt><trkpt lat="39.62009186177145" lon="8.959235256398282"><ele>111.99999999999999</ele><time>2026-04-27T09:21:39.741Z</time></trkpt><trkpt lat="39.62002030778866" lon="8.959133717865196"><ele>111.99999999999999</ele><time>2026-04-27T09:21:40.741Z</time></trkpt><trkpt lat="39.61995038022149" lon="8.959024524621881"><ele>112.0</ele><time>2026-04-27T09:21:41.741Z</time></trkpt><trkpt lat="39.61987204315186" lon="8.958915034544573"><ele>112.0</ele><time>2026-04-27T09:21:42.741Z</time></trkpt><trkpt lat="39.61979265378003" lon="8.958810016523698"><ele>112.0</ele><time>2026-04-27T09:21:43.741Z</time></trkpt><trkpt lat="39.61970572093215" lon="8.958706253246193"><ele>112.0</ele><time>2026-04-27T09:21:44.741Z</time></trkpt><trkpt lat="39.61961614835773" lon="8.958602325316432"><ele>112.0</ele><time>2026-04-27T09:21:45.742Z</time></trkpt><trkpt lat="39.619527589465214" lon="8.958504870691932"><ele>112.0</ele><time>2026-04-27T09:21:46.742Z</time></trkpt><trkpt lat="39.61942804248209" lon="8.958416565783075"><ele>111.25</ele><time>2026-04-27T09:21:47.741Z</time></trkpt><trkpt lat="39.61932685631547" lon="8.958331546480295"><ele>110.5</ele><time>2026-04-27T09:21:48.741Z</time></trkpt><trkpt lat="39.6192232284765" lon="8.958253754349284"><ele>109.75</ele><time>2026-04-27T09:21:49.741Z</time></trkpt><trkpt lat="39.61912181566163" lon="8.958182883118692"><ele>109.0</ele><time>2026-04-27T09:21:50.74Z</time></trkpt><trkpt lat="39.619015226633756" lon="8.958121414714887"><ele>109.0</ele><time>2026-04-27T09:21:51.739Z</time></trkpt><trkpt lat="39.61891195715666" lon="8.958058582921792"><ele>109.0</ele><time>2026-04-27T09:21:52.739Z</time></trkpt><trkpt lat="39.61880823996947" lon="8.957994475235392"><ele>109.0</ele><time>2026-04-27T09:21:53.739Z</time></trkpt><trkpt lat="39.61870273027314" lon="8.957933685076256"><ele>109.0</ele><time>2026-04-27T09:21:54.738Z</time></trkpt><trkpt lat="39.61859728703174" lon="8.957876142383038"><ele>109.0</ele><time>2026-04-27T09:21:55.737Z</time></trkpt><trkpt lat="39.61849430488063" lon="8.957809412623991"><ele>109.0</ele><time>2026-04-27T09:21:56.737Z</time></trkpt><trkpt lat="39.61838931588564" lon="8.957745439603794"><ele>109.0</ele><time>2026-04-27T09:21:57.737Z</time></trkpt><trkpt lat="39.61828025647641" lon="8.957688245455635"><ele>109.0</ele><time>2026-04-27T09:21:58.737Z</time></trkpt><trkpt lat="39.618169931521734" lon="8.957627280845353"><ele>109.0</ele><time>2026-04-27T09:21:59.736Z</time></trkpt><trkpt lat="39.61806351662339" lon="8.957568212934884"><ele>109.0</ele><time>2026-04-27T09:22:00.736Z</time></trkpt><trkpt lat="39.61796452716735" lon="8.957488093381725"><ele>109.0</ele><time>2026-04-27T09:22:01.736Z</time></trkpt><trkpt lat="39.61786074914891" lon="8.95742411089231"><ele>109.0</ele><time>2026-04-27T09:22:02.736Z</time></trkpt><trkpt lat="39.617744637279756" lon="8.957373749178194"><ele>109.0</ele><time>2026-04-27T09:22:03.735Z</time></trkpt><trkpt lat="39.617637161009206" lon="8.95729853721744"><ele>109.0</ele><time>2026-04-27T09:22:04.735Z</time></trkpt><trkpt lat="39.61753169097258" lon="8.957232360180857"><ele>109.0</ele><time>2026-04-27T09:22:05.735Z</time></trkpt><trkpt lat="39.61742445565991" lon="8.957163773789352"><ele>109.0</ele><time>2026-04-27T09:22:06.735Z</time></trkpt><trkpt lat="39.61730925029151" lon="8.957102430969991"><ele>109.0</ele><time>2026-04-27T09:22:07.735Z</time></trkpt><trkpt lat="39.61719556700324" lon="8.957037623383577"><ele>109.0</ele><time>2026-04-27T09:22:08.734Z</time></trkpt><trkpt lat="39.61708411997321" lon="8.956972411741994"><ele>109.0</ele><time>2026-04-27T09:22:09.734Z</time></trkpt><trkpt lat="39.61697531431524" lon="8.95690217640607"><ele>109.0</ele><time>2026-04-27T09:22:10.734Z</time></trkpt><trkpt lat="39.616861442819655" lon="8.956829583375567"><ele>109.25</ele><time>2026-04-27T09:22:11.734Z</time></trkpt><trkpt lat="39.616748112623924" lon="8.95675719736396"><ele>109.5</ele><time>2026-04-27T09:22:12.734Z</time></trkpt><trkpt lat="39.616631656216626" lon="8.956689465150774"><ele>109.75</ele><time>2026-04-27T09:22:13.734Z</time></trkpt><trkpt lat="39.61651539550528" lon="8.95661798331349"><ele>110.0</ele><time>2026-04-27T09:22:14.734Z</time></trkpt><trkpt lat="39.616399839232706" lon="8.9565431648468"><ele>110.0</ele><time>2026-04-27T09:22:15.733Z</time></trkpt><trkpt lat="39.616281257841315" lon="8.956472033782571"><ele>110.0</ele><time>2026-04-27T09:22:16.733Z</time></trkpt><trkpt lat="39.616162248162915" lon="8.956403365587718"><ele>110.0</ele><time>2026-04-27T09:22:17.733Z</time></trkpt><trkpt lat="39.6160424075432" lon="8.956334737462507"><ele>110.0</ele><time>2026-04-27T09:22:18.733Z</time></trkpt><trkpt lat="39.61592633415484" lon="8.956266680777532"><ele>110.0</ele><time>2026-04-27T09:22:19.733Z</time></trkpt><trkpt lat="39.61580622487913" lon="8.956192977452526"><ele>110.0</ele><time>2026-04-27T09:22:20.733Z</time></trkpt><trkpt lat="39.615685279892226" lon="8.95612645938044"><ele>110.0</ele><time>2026-04-27T09:22:21.733Z</time></trkpt><trkpt lat="39.615567464262305" lon="8.95605721099913"><ele>110.0</ele><time>2026-04-27T09:22:22.733Z</time></trkpt><trkpt lat="39.61545000098555" lon="8.955981977925855"><ele>110.0</ele><time>2026-04-27T09:22:23.733Z</time></trkpt><trkpt lat="39.61532644733314" lon="8.9559092608912"><ele>110.0</ele><time>2026-04-27T09:22:24.732Z</time></trkpt><trkpt lat="39.61520230114651" lon="8.955837964637427"><ele>110.0</ele><time>2026-04-27T09:22:25.732Z</time></trkpt><trkpt lat="39.6150757943304" lon="8.955765264729916"><ele>110.0</ele><time>2026-04-27T09:22:26.732Z</time></trkpt><trkpt lat="39.61495093587194" lon="8.955691509796216"><ele>110.25</ele><time>2026-04-27T09:22:27.732Z</time></trkpt><trkpt lat="39.614823181740604" lon="8.955612522153267"><ele>110.5</ele><time>2026-04-27T09:22:28.732Z</time></trkpt><trkpt lat="39.614694532633095" lon="8.955535268377632"><ele>110.75</ele><time>2026-04-27T09:22:29.732Z</time></trkpt><trkpt lat="39.61456457138256" lon="8.955457571232017"><ele>111.0</ele><time>2026-04-27T09:22:30.732Z</time></trkpt><trkpt lat="39.61443592586396" lon="8.95537549630695"><ele>110.5</ele><time>2026-04-27T09:22:31.732Z</time></trkpt><trkpt lat="39.61430423995308" lon="8.955296263566826"><ele>110.0</ele><time>2026-04-27T09:22:32.732Z</time></trkpt><trkpt lat="39.61417550338002" lon="8.955213435499477"><ele>109.5</ele><time>2026-04-27T09:22:33.732Z</time></trkpt><trkpt lat="39.61404276935009" lon="8.955125088602946"><ele>109.0</ele><time>2026-04-27T09:22:34.732Z</time></trkpt><trkpt lat="39.613911036824625" lon="8.955040483187924"><ele>109.33333333333334</ele><time>2026-04-27T09:22:35.732Z</time></trkpt><trkpt lat="39.61377880922956" lon="8.954947311263899"><ele>109.66666666666666</ele><time>2026-04-27T09:22:36.731Z</time></trkpt><trkpt lat="39.61363800343891" lon="8.95486305527271"><ele>110.0</ele><time>2026-04-27T09:22:37.731Z</time></trkpt><trkpt lat="39.61349262277158" lon="8.954770506342141"><ele>110.0</ele><time>2026-04-27T09:22:38.731Z</time></trkpt><trkpt lat="39.61334347926452" lon="8.954679459916555"><ele>110.0</ele><time>2026-04-27T09:22:39.731Z</time></trkpt><trkpt lat="39.61319260121649" lon="8.954583021912743"><ele>110.0</ele><time>2026-04-27T09:22:40.731Z</time></trkpt><trkpt lat="39.61303556078545" lon="8.954493073052657"><ele>110.0</ele><time>2026-04-27T09:22:41.731Z</time></trkpt><trkpt lat="39.61287682526146" lon="8.954402681915695"><ele>110.0</ele><time>2026-04-27T09:22:42.731Z</time></trkpt><trkpt lat="39.612717481150845" lon="8.954300113376588"><ele>110.0</ele><time>2026-04-27T09:22:43.731Z</time></trkpt><trkpt lat="39.612552627798415" lon="8.954201162976739"><ele>109.66666666666666</ele><time>2026-04-27T09:22:44.731Z</time></trkpt><trkpt lat="39.61238566095994" lon="8.954104814083976"><ele>109.33333333333334</ele><time>2026-04-27T09:22:45.731Z</time></trkpt><trkpt lat="39.61221764505258" lon="8.954007814568188"><ele>109.0</ele><time>2026-04-27T09:22:46.731Z</time></trkpt><trkpt lat="39.61204634837163" lon="8.953913385639913"><ele>108.66666666666667</ele><time>2026-04-27T09:22:47.731Z</time></trkpt><trkpt lat="39.6118771688881" lon="8.953820299211735"><ele>108.33333333333334</ele><time>2026-04-27T09:22:48.731Z</time></trkpt><trkpt lat="39.611713283407305" lon="8.95372710448096"><ele>108.0</ele><time>2026-04-27T09:22:49.731Z</time></trkpt><trkpt lat="39.611552069484766" lon="8.953632164741178"><ele>108.0</ele><time>2026-04-27T09:22:50.731Z</time></trkpt><trkpt lat="39.611397816015966" lon="8.953541329062192"><ele>108.0</ele><time>2026-04-27T09:22:51.731Z</time></trkpt><trkpt lat="39.61125535863629" lon="8.953449730719267"><ele>108.0</ele><time>2026-04-27T09:22:52.731Z</time></trkpt><trkpt lat="39.611127619559895" lon="8.953365759359109"><ele>107.75</ele><time>2026-04-27T09:22:53.73Z</time></trkpt><trkpt lat="39.611022158994665" lon="8.953271424287205"><ele>107.5</ele><time>2026-04-27T09:22:54.73Z</time></trkpt><trkpt lat="39.610893973920284" lon="8.953176685475725"><ele>107.25</ele><time>2026-04-27T09:22:55.73Z</time></trkpt><trkpt lat="39.61075459927473" lon="8.953093113713377"><ele>107.0</ele><time>2026-04-27T09:22:56.73Z</time></trkpt><trkpt lat="39.61061022549974" lon="8.9530172306043"><ele>107.0</ele><time>2026-04-27T09:22:57.73Z</time></trkpt><trkpt lat="39.61046195658278" lon="8.952923790712646"><ele>107.0</ele><time>2026-04-27T09:22:58.73Z</time></trkpt><trkpt lat="39.6103060471006" lon="8.95282988743477"><ele>107.0</ele><time>2026-04-27T09:22:59.73Z</time></trkpt><trkpt lat="39.610145171502836" lon="8.952729212680566"><ele>107.0</ele><time>2026-04-27T09:23:00.73Z</time></trkpt><trkpt lat="39.60997980250048" lon="8.952628383580905"><ele>107.0</ele><time>2026-04-27T09:23:01.73Z</time></trkpt><trkpt lat="39.6098079355794" lon="8.952526728774782"><ele>107.0</ele><time>2026-04-27T09:23:02.73Z</time></trkpt><trkpt lat="39.60963274728551" lon="8.952420867748126"><ele>106.66666666666666</ele><time>2026-04-27T09:23:03.73Z</time></trkpt><trkpt lat="39.609450845183154" lon="8.952319062437525"><ele>106.33333333333334</ele><time>2026-04-27T09:23:04.73Z</time></trkpt><trkpt lat="39.60925770766375" lon="8.952220761827915"><ele>106.0</ele><time>2026-04-27T09:23:05.73Z</time></trkpt><trkpt lat="39.60905340421248" lon="8.952118957236578"><ele>106.0</ele><time>2026-04-27T09:23:06.73Z</time></trkpt><trkpt lat="39.60883768806243" lon="8.952006703880338"><ele>106.0</ele><time>2026-04-27T09:23:07.73Z</time></trkpt><trkpt lat="39.60861914898991" lon="8.95185689272882"><ele>105.5</ele><time>2026-04-27T09:23:08.73Z</time></trkpt><trkpt lat="39.60837322913351" lon="8.951732168805929"><ele>105.0</ele><time>2026-04-27T09:23:09.73Z</time></trkpt><trkpt lat="39.608122826803935" lon="8.951581046914082"><ele>104.5</ele><time>2026-04-27T09:23:10.73Z</time></trkpt><trkpt lat="39.607859866915796" lon="8.951425627570808"><ele>104.0</ele><time>2026-04-27T09:23:11.73Z</time></trkpt><trkpt lat="39.60759996177122" lon="8.951246456999769"><ele>103.0</ele><time>2026-04-27T09:23:12.729Z</time></trkpt><trkpt lat="39.60732657838525" lon="8.951082900569988"><ele>102.0</ele><time>2026-04-27T09:23:13.729Z</time></trkpt><trkpt lat="39.607058453157755" lon="8.9509224893057"><ele>102.0</ele><time>2026-04-27T09:23:14.729Z</time></trkpt><trkpt lat="39.606814054278615" lon="8.950776190876821"><ele>102.0</ele><time>2026-04-27T09:23:15.729Z</time></trkpt><trkpt lat="39.60656189658894" lon="8.950641495285225"><ele>102.0</ele><time>2026-04-27T09:23:16.729Z</time></trkpt><trkpt lat="39.60630394468787" lon="8.950482067187849"><ele>102.0</ele><time>2026-04-27T09:23:17.729Z</time></trkpt><trkpt lat="39.606038197652076" lon="8.950325227209486"><ele>101.5</ele><time>2026-04-27T09:23:18.729Z</time></trkpt><trkpt lat="39.6057632568153" lon="8.950167064508296"><ele>101.0</ele><time>2026-04-27T09:23:19.729Z</time></trkpt><trkpt lat="39.60549167644739" lon="8.949999568469865"><ele>102.0</ele><time>2026-04-27T09:23:20.729Z</time></trkpt><trkpt lat="39.60521627275002" lon="8.949820138326709"><ele>103.0</ele><time>2026-04-27T09:23:21.729Z</time></trkpt><trkpt lat="39.60494197620762" lon="8.949651776361291"><ele>103.0</ele><time>2026-04-27T09:23:22.729Z</time></trkpt><trkpt lat="39.60467236052286" lon="8.94948768547802"><ele>103.0</ele><time>2026-04-27T09:23:23.729Z</time></trkpt><trkpt lat="39.60440404290692" lon="8.94932968081198"><ele>103.0</ele><time>2026-04-27T09:23:24.729Z</time></trkpt><trkpt lat="39.60412936139759" lon="8.949179288342023"><ele>103.0</ele><time>2026-04-27T09:23:25.729Z</time></trkpt><trkpt lat="39.60384682998305" lon="8.949038811810059"><ele>102.0</ele><time>2026-04-27T09:23:26.729Z</time></trkpt><trkpt lat="39.60356529172811" lon="8.948908763537698"><ele>101.0</ele><time>2026-04-27T09:23:27.729Z</time></trkpt><trkpt lat="39.60327866673944" lon="8.948789768717852"><ele>101.0</ele><time>2026-04-27T09:23:28.729Z</time></trkpt><trkpt lat="39.60299007344856" lon="8.94868015037418"><ele>101.0</ele><time>2026-04-27T09:23:29.729Z</time></trkpt><trkpt lat="39.60269980307401" lon="8.948586585344438"><ele>100.5</ele><time>2026-04-27T09:23:30.729Z</time></trkpt><trkpt lat="39.60240818605805" lon="8.948505340044125"><ele>100.0</ele><time>2026-04-27T09:23:31.729Z</time></trkpt><trkpt lat="39.60211229571485" lon="8.948435445298033"><ele>100.0</ele><time>2026-04-27T09:23:32.729Z</time></trkpt><trkpt lat="39.60181428836952" lon="8.94837687689543"><ele>100.0</ele><time>2026-04-27T09:23:33.729Z</time></trkpt><trkpt lat="39.60151637992084" lon="8.94833050947445"><ele>99.5</ele><time>2026-04-27T09:23:34.728Z</time></trkpt><trkpt lat="39.601216747134295" lon="8.94829265773201"><ele>99.0</ele><time>2026-04-27T09:23:35.728Z</time></trkpt><trkpt lat="39.600917089975084" lon="8.948263208930722"><ele>99.0</ele><time>2026-04-27T09:23:36.728Z</time></trkpt><trkpt lat="39.6006179468712" lon="8.948237491575926"><ele>99.0</ele><time>2026-04-27T09:23:37.728Z</time></trkpt><trkpt lat="39.60031477607822" lon="8.948208989034555"><ele>99.0</ele><time>2026-04-27T09:23:38.728Z</time></trkpt><trkpt lat="39.60002227791611" lon="8.948185064242782"><ele>99.0</ele><time>2026-04-27T09:23:39.728Z</time></trkpt><trkpt lat="39.59972859707983" lon="8.94816143768494"><ele>99.5</ele><time>2026-04-27T09:23:40.728Z</time></trkpt><trkpt lat="39.5994359961896" lon="8.948137575182368"><ele>100.0</ele><time>2026-04-27T09:23:41.728Z</time></trkpt><trkpt lat="39.59914150085363" lon="8.948112932232215"><ele>100.0</ele><time>2026-04-27T09:23:42.728Z</time></trkpt><trkpt lat="39.5988479167068" lon="8.948086941763833"><ele>100.0</ele><time>2026-04-27T09:23:43.728Z</time></trkpt><trkpt lat="39.598555310957366" lon="8.948062308608147"><ele>100.5</ele><time>2026-04-27T09:23:44.728Z</time></trkpt><trkpt lat="39.598262454257046" lon="8.94803705929781"><ele>101.0</ele><time>2026-04-27T09:23:45.728Z</time></trkpt><trkpt lat="39.59796725276248" lon="8.948011858979138"><ele>100.5</ele><time>2026-04-27T09:23:46.728Z</time></trkpt><trkpt lat="39.59767509792654" lon="8.947983107878931"><ele>100.0</ele><time>2026-04-27T09:23:47.728Z</time></trkpt><trkpt lat="39.597391602660466" lon="8.947950792584548"><ele>100.0</ele><time>2026-04-27T09:23:48.728Z</time></trkpt><trkpt lat="39.59711354101384" lon="8.947922537802501"><ele>100.0</ele><time>2026-04-27T09:23:49.728Z</time></trkpt><trkpt lat="39.59683347150636" lon="8.947911557413667"><ele>100.5</ele><time>2026-04-27T09:23:50.728Z</time></trkpt><trkpt lat="39.596549683895496" lon="8.947881286591153"><ele>101.0</ele><time>2026-04-27T09:23:51.729Z</time></trkpt><trkpt lat="39.596257935544436" lon="8.947877532272607"><ele>101.5</ele><time>2026-04-27T09:23:52.729Z</time></trkpt><trkpt lat="39.59596896800456" lon="8.947845274359025"><ele>102.0</ele><time>2026-04-27T09:23:53.729Z</time></trkpt><trkpt lat="39.595679663609346" lon="8.94781129174639"><ele>102.0</ele><time>2026-04-27T09:23:54.729Z</time></trkpt><trkpt lat="39.59539388753322" lon="8.947782705324672"><ele>102.0</ele><time>2026-04-27T09:23:55.729Z</time></trkpt><trkpt lat="39.5951040500462" lon="8.947756423226783"><ele>102.5</ele><time>2026-04-27T09:23:56.729Z</time></trkpt><trkpt lat="39.594811059932134" lon="8.94773070821738"><ele>103.0</ele><time>2026-04-27T09:23:57.729Z</time></trkpt><trkpt lat="39.59451317926635" lon="8.947708099392392"><ele>103.0</ele><time>2026-04-27T09:23:58.729Z</time></trkpt><trkpt lat="39.59421457780491" lon="8.947684357398584"><ele>103.0</ele><time>2026-04-27T09:23:59.729Z</time></trkpt><trkpt lat="39.593913338435385" lon="8.94765838125744"><ele>102.0</ele><time>2026-04-27T09:24:00.728Z</time></trkpt><trkpt lat="39.59361364425283" lon="8.947631466417707"><ele>101.0</ele><time>2026-04-27T09:24:01.728Z</time></trkpt><trkpt lat="39.593316677354714" lon="8.94760374565083"><ele>101.0</ele><time>2026-04-27T09:24:02.728Z</time></trkpt><trkpt lat="39.59302397916706" lon="8.947573570027073"><ele>101.0</ele><time>2026-04-27T09:24:03.729Z</time></trkpt><trkpt lat="39.59273301616701" lon="8.947542649226996"><ele>98.0</ele><time>2026-04-27T09:24:04.728Z</time></trkpt><trkpt lat="39.59244413246133" lon="8.94751672792825"><ele>95.0</ele><time>2026-04-27T09:24:05.728Z</time></trkpt><trkpt lat="39.5921542951787" lon="8.947489489279905"><ele>95.5</ele><time>2026-04-27T09:24:06.728Z</time></trkpt><trkpt lat="39.59186387354656" lon="8.947462027662402"><ele>96.0</ele><time>2026-04-27T09:24:07.728Z</time></trkpt><trkpt lat="39.59157620989317" lon="8.947438712697771"><ele>96.0</ele><time>2026-04-27T09:24:08.728Z</time></trkpt><trkpt lat="39.591290114887315" lon="8.947413648270787"><ele>96.0</ele><time>2026-04-27T09:24:09.728Z</time></trkpt><trkpt lat="39.591004025320096" lon="8.947389398291064"><ele>96.5</ele><time>2026-04-27T09:24:10.728Z</time></trkpt><trkpt lat="39.590720236251734" lon="8.947367713393835"><ele>97.0</ele><time>2026-04-27T09:24:11.728Z</time></trkpt><trkpt lat="39.590434615716575" lon="8.947343489347288"><ele>97.0</ele><time>2026-04-27T09:24:12.728Z</time></trkpt><trkpt lat="39.59014496110305" lon="8.94731797817803"><ele>97.0</ele><time>2026-04-27T09:24:13.727Z</time></trkpt><trkpt lat="39.58985593599334" lon="8.94729340755756"><ele>97.0</ele><time>2026-04-27T09:24:14.727Z</time></trkpt><trkpt lat="39.58956410861269" lon="8.947266446003184"><ele>97.0</ele><time>2026-04-27T09:24:15.727Z</time></trkpt><trkpt lat="39.58927486023156" lon="8.947243667063175"><ele>97.5</ele><time>2026-04-27T09:24:16.727Z</time></trkpt><trkpt lat="39.58898437570223" lon="8.947223460050939"><ele>98.0</ele><time>2026-04-27T09:24:17.727Z</time></trkpt><trkpt lat="39.58868998430216" lon="8.947202345546584"><ele>97.5</ele><time>2026-04-27T09:24:18.727Z</time></trkpt><trkpt lat="39.58838665400713" lon="8.947176494720901"><ele>97.0</ele><time>2026-04-27T09:24:19.727Z</time></trkpt><trkpt lat="39.58808114500311" lon="8.947147963924083"><ele>97.0</ele><time>2026-04-27T09:24:20.727Z</time></trkpt><trkpt lat="39.587776170093875" lon="8.947117417425268"><ele>97.0</ele><time>2026-04-27T09:24:21.727Z</time></trkpt><trkpt lat="39.58747726142019" lon="8.94708510419414"><ele>97.0</ele><time>2026-04-27T09:24:22.727Z</time></trkpt><trkpt lat="39.58717942307896" lon="8.94705625420227"><ele>97.0</ele><time>2026-04-27T09:24:23.727Z</time></trkpt><trkpt lat="39.5868826487258" lon="8.947031162240187"><ele>96.5</ele><time>2026-04-27T09:24:24.727Z</time></trkpt><trkpt lat="39.586581000054096" lon="8.947008246184113"><ele>96.0</ele><time>2026-04-27T09:24:25.727Z</time></trkpt><trkpt lat="39.586277402455934" lon="8.946984584172775"><ele>96.0</ele><time>2026-04-27T09:24:26.727Z</time></trkpt><trkpt lat="39.58597338496504" lon="8.946959666348134"><ele>96.0</ele><time>2026-04-27T09:24:27.727Z</time></trkpt><trkpt lat="39.585670703729235" lon="8.946934291766096"><ele>96.0</ele><time>2026-04-27T09:24:28.727Z</time></trkpt><trkpt lat="39.585367435797494" lon="8.946911268886518"><ele>96.0</ele><time>2026-04-27T09:24:29.727Z</time></trkpt><trkpt lat="39.585063290419704" lon="8.946889830137684"><ele>96.0</ele><time>2026-04-27T09:24:30.727Z</time></trkpt><trkpt lat="39.5847554385598" lon="8.9468657356569"><ele>96.0</ele><time>2026-04-27T09:24:31.727Z</time></trkpt><trkpt lat="39.58444746904101" lon="8.946837732537862"><ele>95.0</ele><time>2026-04-27T09:24:32.727Z</time></trkpt><trkpt lat="39.58413966478179" lon="8.946812208753542"><ele>94.0</ele><time>2026-04-27T09:24:33.727Z</time></trkpt><trkpt lat="39.583828972375365" lon="8.946779871718972"><ele>93.5</ele><time>2026-04-27T09:24:34.727Z</time></trkpt><trkpt lat="39.58352094969657" lon="8.946745704930532"><ele>93.0</ele><time>2026-04-27T09:24:35.726Z</time></trkpt><trkpt lat="39.58321486462531" lon="8.946709933152029"><ele>93.0</ele><time>2026-04-27T09:24:36.726Z</time></trkpt><trkpt lat="39.582909371714024" lon="8.946680239345314"><ele>93.0</ele><time>2026-04-27T09:24:37.726Z</time></trkpt><trkpt lat="39.58260281535927" lon="8.946655582671607"><ele>94.0</ele><time>2026-04-27T09:24:38.726Z</time></trkpt><trkpt lat="39.58229588485543" lon="8.946631536645844"><ele>95.0</ele><time>2026-04-27T09:24:39.726Z</time></trkpt><trkpt lat="39.58199018171633" lon="8.946603426027513"><ele>95.0</ele><time>2026-04-27T09:24:40.726Z</time></trkpt><trkpt lat="39.58168739153735" lon="8.946573139036161"><ele>95.0</ele><time>2026-04-27T09:24:41.726Z</time></trkpt><trkpt lat="39.58138762879651" lon="8.94654366333444"><ele>94.5</ele><time>2026-04-27T09:24:42.726Z</time></trkpt><trkpt lat="39.581087954188284" lon="8.946515358941092"><ele>94.0</ele><time>2026-04-27T09:24:43.726Z</time></trkpt><trkpt lat="39.58078778210856" lon="8.946488491389148"><ele>94.0</ele><time>2026-04-27T09:24:44.726Z</time></trkpt><trkpt lat="39.580489368160286" lon="8.946463026645391"><ele>94.0</ele><time>2026-04-27T09:24:45.726Z</time></trkpt><trkpt lat="39.58019192541574" lon="8.946435990610416"><ele>93.5</ele><time>2026-04-27T09:24:46.726Z</time></trkpt><trkpt lat="39.57989201650224" lon="8.946407807906994"><ele>93.0</ele><time>2026-04-27T09:24:47.726Z</time></trkpt><trkpt lat="39.57959037173497" lon="8.94638396351431"><ele>93.5</ele><time>2026-04-27T09:24:48.726Z</time></trkpt><trkpt lat="39.5792937367262" lon="8.94636156753026"><ele>94.0</ele><time>2026-04-27T09:24:49.726Z</time></trkpt><trkpt lat="39.578994222002954" lon="8.94633577983399"><ele>94.0</ele><time>2026-04-27T09:24:50.726Z</time></trkpt><trkpt lat="39.57869554385259" lon="8.946312939133287"><ele>94.0</ele><time>2026-04-27T09:24:51.726Z</time></trkpt><trkpt lat="39.57839344155745" lon="8.946292906090836"><ele>93.5</ele><time>2026-04-27T09:24:52.726Z</time></trkpt><trkpt lat="39.578090164467376" lon="8.9462659083721"><ele>93.0</ele><time>2026-04-27T09:24:53.726Z</time></trkpt><trkpt lat="39.57779065768078" lon="8.946240275109263"><ele>93.0</ele><time>2026-04-27T09:24:54.726Z</time></trkpt><trkpt lat="39.57749005958672" lon="8.946214335315528"><ele>93.0</ele><time>2026-04-27T09:24:55.726Z</time></trkpt><trkpt lat="39.577191616741985" lon="8.94618876467513"><ele>93.5</ele><time>2026-04-27T09:24:56.725Z</time></trkpt><trkpt lat="39.57689112227887" lon="8.946158799286495"><ele>94.0</ele><time>2026-04-27T09:24:57.725Z</time></trkpt><trkpt lat="39.576587037749285" lon="8.946116039372857"><ele>94.0</ele><time>2026-04-27T09:24:58.725Z</time></trkpt><trkpt lat="39.57628988975683" lon="8.946062809320534"><ele>94.0</ele><time>2026-04-27T09:24:59.725Z</time></trkpt><trkpt lat="39.57600140323918" lon="8.94600327904669"><ele>94.5</ele><time>2026-04-27T09:25:00.725Z</time></trkpt><trkpt lat="39.57571805351131" lon="8.945939332804302"><ele>95.0</ele><time>2026-04-27T09:25:01.725Z</time></trkpt><trkpt lat="39.57544244788624" lon="8.94587656455901"><ele>97.0</ele><time>2026-04-27T09:25:02.725Z</time></trkpt><trkpt lat="39.57516451861504" lon="8.945813022112503"><ele>99.0</ele><time>2026-04-27T09:25:03.725Z</time></trkpt><trkpt lat="39.57488894531965" lon="8.945745522547337"><ele>99.0</ele><time>2026-04-27T09:25:04.725Z</time></trkpt><trkpt lat="39.574613898535354" lon="8.94567150793457"><ele>99.0</ele><time>2026-04-27T09:25:05.725Z</time></trkpt><trkpt lat="39.57433907765618" lon="8.94559307410207"><ele>99.0</ele><time>2026-04-27T09:25:06.725Z</time></trkpt><trkpt lat="39.57406543746433" lon="8.945481613552758"><ele>99.0</ele><time>2026-04-27T09:25:07.725Z</time></trkpt><trkpt lat="39.57378937398459" lon="8.945378992946818"><ele>98.0</ele><time>2026-04-27T09:25:08.725Z</time></trkpt><trkpt lat="39.57351707257647" lon="8.945276406105933"><ele>97.0</ele><time>2026-04-27T09:25:09.725Z</time></trkpt><trkpt lat="39.57324423421158" lon="8.945193886255444"><ele>97.0</ele><time>2026-04-27T09:25:10.725Z</time></trkpt><trkpt lat="39.572977384683746" lon="8.945085623925346"><ele>97.0</ele><time>2026-04-27T09:25:11.725Z</time></trkpt><trkpt lat="39.57271066316802" lon="8.944980064133686"><ele>98.5</ele><time>2026-04-27T09:25:12.725Z</time></trkpt><trkpt lat="39.57244280828701" lon="8.944877299943887"><ele>100.0</ele><time>2026-04-27T09:25:13.725Z</time></trkpt><trkpt lat="39.57217344781054" lon="8.944776880813986"><ele>99.5</ele><time>2026-04-27T09:25:14.725Z</time></trkpt><trkpt lat="39.57190286627188" lon="8.944676526379025"><ele>99.0</ele><time>2026-04-27T09:25:15.725Z</time></trkpt><trkpt lat="39.57162988773037" lon="8.944574513041102"><ele>99.0</ele><time>2026-04-27T09:25:16.725Z</time></trkpt><trkpt lat="39.57135509350986" lon="8.944470355939803"><ele>99.0</ele><time>2026-04-27T09:25:17.725Z</time></trkpt><trkpt lat="39.57108118943541" lon="8.944366614954891"><ele>98.5</ele><time>2026-04-27T09:25:18.724Z</time></trkpt><trkpt lat="39.57080745532094" lon="8.944263382325895"><ele>98.0</ele><time>2026-04-27T09:25:19.724Z</time></trkpt><trkpt lat="39.57053516461684" lon="8.944157626693105"><ele>98.0</ele><time>2026-04-27T09:25:20.724Z</time></trkpt><trkpt lat="39.57026225955132" lon="8.944055601053432"><ele>98.0</ele><time>2026-04-27T09:25:21.724Z</time></trkpt><trkpt lat="39.569992544326034" lon="8.94394960206443"><ele>98.0</ele><time>2026-04-27T09:25:22.724Z</time></trkpt><trkpt lat="39.569723443351975" lon="8.943845782862569"><ele>98.0</ele><time>2026-04-27T09:25:23.724Z</time></trkpt><trkpt lat="39.56945555740843" lon="8.943744265313253"><ele>96.0</ele><time>2026-04-27T09:25:24.724Z</time></trkpt><trkpt lat="39.56918693686504" lon="8.943643737299125"><ele>94.0</ele><time>2026-04-27T09:25:25.724Z</time></trkpt><trkpt lat="39.56891801508931" lon="8.943542232889746"><ele>93.5</ele><time>2026-04-27T09:25:26.724Z</time></trkpt><trkpt lat="39.56864732278727" lon="8.943439477768218"><ele>93.0</ele><time>2026-04-27T09:25:27.724Z</time></trkpt><trkpt lat="39.5683781020275" lon="8.943336552420705"><ele>93.0</ele><time>2026-04-27T09:25:28.724Z</time></trkpt><trkpt lat="39.56811015470829" lon="8.943234775781953"><ele>93.0</ele><time>2026-04-27T09:25:29.724Z</time></trkpt><trkpt lat="39.56784330795646" lon="8.943130130135264"><ele>92.0</ele><time>2026-04-27T09:25:30.724Z</time></trkpt><trkpt lat="39.56757928088433" lon="8.943025297524548"><ele>91.0</ele><time>2026-04-27T09:25:31.724Z</time></trkpt><trkpt lat="39.5673177933728" lon="8.942920374923656"><ele>91.0</ele><time>2026-04-27T09:25:32.724Z</time></trkpt><trkpt lat="39.56705988607043" lon="8.942814590803765"><ele>91.0</ele><time>2026-04-27T09:25:33.724Z</time></trkpt><trkpt lat="39.56680371838469" lon="8.942712746181542"><ele>91.0</ele><time>2026-04-27T09:25:34.724Z</time></trkpt><trkpt lat="39.56654919200505" lon="8.942612290164114"><ele>91.0</ele><time>2026-04-27T09:25:35.724Z</time></trkpt><trkpt lat="39.5663001478603" lon="8.942519502050438"><ele>89.5</ele><time>2026-04-27T09:25:36.724Z</time></trkpt><trkpt lat="39.56605100541271" lon="8.942423929682967"><ele>88.0</ele><time>2026-04-27T09:25:37.724Z</time></trkpt><trkpt lat="39.56580518901399" lon="8.94233156621357"><ele>88.0</ele><time>2026-04-27T09:25:38.724Z</time></trkpt><trkpt lat="39.565564936107435" lon="8.942233400857772"><ele>88.0</ele><time>2026-04-27T09:25:39.724Z</time></trkpt><trkpt lat="39.56532295621406" lon="8.942136830534944"><ele>87.0</ele><time>2026-04-27T09:25:40.723Z</time></trkpt><trkpt lat="39.56507868062052" lon="8.94204626867288"><ele>86.0</ele><time>2026-04-27T09:25:41.723Z</time></trkpt><trkpt lat="39.564831804574936" lon="8.941955110116387"><ele>86.0</ele><time>2026-04-27T09:25:42.723Z</time></trkpt><trkpt lat="39.56458379443802" lon="8.941863200544608"><ele>86.0</ele><time>2026-04-27T09:25:43.723Z</time></trkpt><trkpt lat="39.56434068228471" lon="8.941763553512429"><ele>86.5</ele><time>2026-04-27T09:25:44.723Z</time></trkpt><trkpt lat="39.564098483507145" lon="8.941664760925846"><ele>87.0</ele><time>2026-04-27T09:25:45.723Z</time></trkpt><trkpt lat="39.563856196615184" lon="8.941571426096239"><ele>87.5</ele><time>2026-04-27T09:25:46.723Z</time></trkpt><trkpt lat="39.56361399361691" lon="8.941484882685856"><ele>88.0</ele><time>2026-04-27T09:25:47.723Z</time></trkpt><trkpt lat="39.563373430028136" lon="8.941393292079693"><ele>88.0</ele><time>2026-04-27T09:25:48.723Z</time></trkpt><trkpt lat="39.563134761671755" lon="8.941293220343354"><ele>88.0</ele><time>2026-04-27T09:25:49.723Z</time></trkpt><trkpt lat="39.56289461250736" lon="8.941192341731492"><ele>87.5</ele><time>2026-04-27T09:25:50.723Z</time></trkpt><trkpt lat="39.562657320291564" lon="8.941087277257154"><ele>87.0</ele><time>2026-04-27T09:25:51.723Z</time></trkpt><trkpt lat="39.56242054007191" lon="8.940971279073135"><ele>89.5</ele><time>2026-04-27T09:25:52.723Z</time></trkpt><trkpt lat="39.562186864936145" lon="8.94084475042693"><ele>92.0</ele><time>2026-04-27T09:25:53.723Z</time></trkpt><trkpt lat="39.56196289684089" lon="8.94070304111875"><ele>92.0</ele><time>2026-04-27T09:25:54.723Z</time></trkpt><trkpt lat="39.56173851899642" lon="8.94055325195762"><ele>92.0</ele><time>2026-04-27T09:25:55.723Z</time></trkpt><trkpt lat="39.561518451684734" lon="8.940389245238448"><ele>92.0</ele><time>2026-04-27T09:25:56.723Z</time></trkpt><trkpt lat="39.56130212312229" lon="8.940211961380832"><ele>92.0</ele><time>2026-04-27T09:25:57.725Z</time></trkpt><trkpt lat="39.56108902515205" lon="8.940031757378273"><ele>92.0</ele><time>2026-04-27T09:25:58.724Z</time></trkpt><trkpt lat="39.56087811612803" lon="8.93985277771564"><ele>92.0</ele><time>2026-04-27T09:25:59.724Z</time></trkpt><trkpt lat="39.56066805568911" lon="8.939672482622944"><ele>92.0</ele><time>2026-04-27T09:26:00.724Z</time></trkpt><trkpt lat="39.56045974501349" lon="8.939491384901933"><ele>92.0</ele><time>2026-04-27T09:26:01.724Z</time></trkpt><trkpt lat="39.56025341720219" lon="8.939305732480191"><ele>93.5</ele><time>2026-04-27T09:26:02.724Z</time></trkpt><trkpt lat="39.56004092290389" lon="8.939126263254906"><ele>95.0</ele><time>2026-04-27T09:26:03.724Z</time></trkpt><trkpt lat="39.5598242312042" lon="8.938943885801123"><ele>95.0</ele><time>2026-04-27T09:26:04.724Z</time></trkpt><trkpt lat="39.55961144408759" lon="8.938750476791826"><ele>95.0</ele><time>2026-04-27T09:26:05.724Z</time></trkpt><trkpt lat="39.559400569299484" lon="8.938556844117919"><ele>93.0</ele><time>2026-04-27T09:26:06.723Z</time></trkpt><trkpt lat="39.55919540282337" lon="8.938359447144135"><ele>91.0</ele><time>2026-04-27T09:26:07.724Z</time></trkpt><trkpt lat="39.55899474409784" lon="8.938164390262495"><ele>91.0</ele><time>2026-04-27T09:26:08.724Z</time></trkpt><trkpt lat="39.558808095005915" lon="8.93797069848322"><ele>91.0</ele><time>2026-04-27T09:26:09.723Z</time></trkpt><trkpt lat="39.55862819767359" lon="8.937793333953906"><ele>91.0</ele><time>2026-04-27T09:26:10.723Z</time></trkpt><trkpt lat="39.55845550981987" lon="8.937626328877776"><ele>91.0</ele><time>2026-04-27T09:26:11.723Z</time></trkpt><trkpt lat="39.55828913854754" lon="8.937451527277585"><ele>91.0</ele><time>2026-04-27T09:26:12.723Z</time></trkpt><trkpt lat="39.558124174757054" lon="8.937285604591347"><ele>91.0</ele><time>2026-04-27T09:26:13.723Z</time></trkpt><trkpt lat="39.557957257418735" lon="8.937133669604428"><ele>91.0</ele><time>2026-04-27T09:26:14.723Z</time></trkpt><trkpt lat="39.55777755854598" lon="8.936999755345472"><ele>91.0</ele><time>2026-04-27T09:26:15.723Z</time></trkpt><trkpt lat="39.55759902568809" lon="8.936851026184318"><ele>90.66666666666666</ele><time>2026-04-27T09:26:16.723Z</time></trkpt><trkpt lat="39.557421635529025" lon="8.93668911806118"><ele>90.33333333333333</ele><time>2026-04-27T09:26:17.723Z</time></trkpt><trkpt lat="39.55725263788869" lon="8.936523520993472"><ele>90.0</ele><time>2026-04-27T09:26:18.723Z</time></trkpt><trkpt lat="39.55710013983999" lon="8.936358304409445"><ele>89.66666666666667</ele><time>2026-04-27T09:26:19.723Z</time></trkpt><trkpt lat="39.55696565057466" lon="8.936208128390735"><ele>89.33333333333334</ele><time>2026-04-27T09:26:20.723Z</time></trkpt><trkpt lat="39.556834999586975" lon="8.936072646914223"><ele>89.0</ele><time>2026-04-27T09:26:21.723Z</time></trkpt><trkpt lat="39.55670311766168" lon="8.9359510112648"><ele>89.0</ele><time>2026-04-27T09:26:22.723Z</time></trkpt><trkpt lat="39.55655560028208" lon="8.935827075338235"><ele>89.0</ele><time>2026-04-27T09:26:23.723Z</time></trkpt><trkpt lat="39.556403626478996" lon="8.935698691028309"><ele>89.0</ele><time>2026-04-27T09:26:24.723Z</time></trkpt><trkpt lat="39.556244421418455" lon="8.93555352695147"><ele>88.66666666666667</ele><time>2026-04-27T09:26:25.723Z</time></trkpt><trkpt lat="39.55608700313474" lon="8.935396422026844"><ele>88.33333333333333</ele><time>2026-04-27T09:26:26.722Z</time></trkpt><trkpt lat="39.55592930090758" lon="8.935242250476026"><ele>88.0</ele><time>2026-04-27T09:26:27.722Z</time></trkpt><trkpt lat="39.55577096317402" lon="8.935086945287772"><ele>88.33333333333333</ele><time>2026-04-27T09:26:28.722Z</time></trkpt><trkpt lat="39.555608398412815" lon="8.934932328791149"><ele>88.66666666666667</ele><time>2026-04-27T09:26:29.722Z</time></trkpt><trkpt lat="39.555443218720946" lon="8.934783885868498"><ele>89.0</ele><time>2026-04-27T09:26:30.722Z</time></trkpt><trkpt lat="39.555274644664394" lon="8.934641152956786"><ele>89.0</ele><time>2026-04-27T09:26:31.722Z</time></trkpt><trkpt lat="39.55510269434442" lon="8.934508945873679"><ele>89.0</ele><time>2026-04-27T09:26:32.722Z</time></trkpt><trkpt lat="39.55492600002435" lon="8.934379903467276"><ele>89.0</ele><time>2026-04-27T09:26:33.722Z</time></trkpt><trkpt lat="39.55474903300558" lon="8.93425433281418"><ele>88.66666666666667</ele><time>2026-04-27T09:26:34.722Z</time></trkpt><trkpt lat="39.55456852060378" lon="8.934130619510773"><ele>88.33333333333333</ele><time>2026-04-27T09:26:35.722Z</time></trkpt><trkpt lat="39.55438503199245" lon="8.934007261319069"><ele>88.0</ele><time>2026-04-27T09:26:36.722Z</time></trkpt><trkpt lat="39.55419895519069" lon="8.93388491084425"><ele>87.33333333333333</ele><time>2026-04-27T09:26:37.722Z</time></trkpt><trkpt lat="39.554011410738674" lon="8.933766680231447"><ele>86.66666666666667</ele><time>2026-04-27T09:26:38.722Z</time></trkpt><trkpt lat="39.55381832545386" lon="8.933652290176601"><ele>86.0</ele><time>2026-04-27T09:26:39.722Z</time></trkpt><trkpt lat="39.55362645766579" lon="8.933545085833115"><ele>85.66666666666667</ele><time>2026-04-27T09:26:40.722Z</time></trkpt><trkpt lat="39.553436161539494" lon="8.933447586073603"><ele>85.33333333333333</ele><time>2026-04-27T09:26:41.722Z</time></trkpt><trkpt lat="39.553245690458525" lon="8.933354219633246"><ele>85.0</ele><time>2026-04-27T09:26:42.722Z</time></trkpt><trkpt lat="39.55306221860993" lon="8.933266108250626"><ele>85.0</ele><time>2026-04-27T09:26:43.722Z</time></trkpt><trkpt lat="39.552883039013814" lon="8.933188659751282"><ele>85.0</ele><time>2026-04-27T09:26:44.722Z</time></trkpt><trkpt lat="39.55271652856706" lon="8.933112447247659"><ele>85.0</ele><time>2026-04-27T09:26:45.722Z</time></trkpt><trkpt lat="39.552583400859994" lon="8.933046044756706"><ele>84.8</ele><time>2026-04-27T09:26:46.722Z</time></trkpt><trkpt lat="39.552481112923445" lon="8.93299644671027"><ele>84.6</ele><time>2026-04-27T09:26:47.722Z</time></trkpt><trkpt lat="39.552407385750435" lon="8.932948291278993"><ele>84.4</ele><time>2026-04-27T09:26:48.721Z</time></trkpt><trkpt lat="39.55231365116098" lon="8.932895007816903"><ele>84.2</ele><time>2026-04-27T09:26:50.721Z</time></trkpt><trkpt lat="39.552245783992674" lon="8.932936022982098"><ele>84.0</ele><time>2026-04-27T09:26:59.721Z</time></trkpt><trkpt lat="39.55232000565576" lon="8.933011248859897"><ele>84.0</ele><time>2026-04-27T09:27:01.721Z</time></trkpt><trkpt lat="39.552391704931715" lon="8.93304227499074"><ele>84.0</ele><time>2026-04-27T09:27:02.721Z</time></trkpt><trkpt lat="39.552541155834554" lon="8.933093821235234"><ele>84.0</ele><time>2026-04-27T09:27:03.721Z</time></trkpt><trkpt lat="39.55263973477867" lon="8.933140126887224"><ele>84.0</ele><time>2026-04-27T09:27:04.721Z</time></trkpt><trkpt lat="39.5527528575389" lon="8.933189692972972"><ele>84.25</ele><time>2026-04-27T09:27:05.721Z</time></trkpt><trkpt lat="39.55288511433209" lon="8.933244997335237"><ele>84.5</ele><time>2026-04-27T09:27:06.721Z</time></trkpt><trkpt lat="39.553011740613016" lon="8.933298029809851"><ele>84.75</ele><time>2026-04-27T09:27:07.721Z</time></trkpt><trkpt lat="39.55313880200041" lon="8.933352696496078"><ele>85.0</ele><time>2026-04-27T09:27:08.721Z</time></trkpt><trkpt lat="39.553277126560204" lon="8.93341451679331"><ele>85.33333333333333</ele><time>2026-04-27T09:27:09.721Z</time></trkpt><trkpt lat="39.55342571709349" lon="8.933488514252797"><ele>85.66666666666667</ele><time>2026-04-27T09:27:10.72Z</time></trkpt><trkpt lat="39.55358012099226" lon="8.9335698751796"><ele>86.0</ele><time>2026-04-27T09:27:11.72Z</time></trkpt><trkpt lat="39.553726076267246" lon="8.933649764295954"><ele>86.0</ele><time>2026-04-27T09:27:12.72Z</time></trkpt><trkpt lat="39.5538718772996" lon="8.933734236617902"><ele>86.0</ele><time>2026-04-27T09:27:13.72Z</time></trkpt><trkpt lat="39.554028437391494" lon="8.9338271691263"><ele>86.0</ele><time>2026-04-27T09:27:14.72Z</time></trkpt><trkpt lat="39.55419031079651" lon="8.933925681654955"><ele>86.0</ele><time>2026-04-27T09:27:15.72Z</time></trkpt><trkpt lat="39.554357484158665" lon="8.934032356606302"><ele>86.0</ele><time>2026-04-27T09:27:16.72Z</time></trkpt><trkpt lat="39.554528228131204" lon="8.934145309466457"><ele>86.0</ele><time>2026-04-27T09:27:17.72Z</time></trkpt><trkpt lat="39.55470056673807" lon="8.934266300406865"><ele>87.0</ele><time>2026-04-27T09:27:18.72Z</time></trkpt><trkpt lat="39.554875900688195" lon="8.934394124379049"><ele>88.0</ele><time>2026-04-27T09:27:19.72Z</time></trkpt><trkpt lat="39.555054938214916" lon="8.934525777948181"><ele>89.0</ele><time>2026-04-27T09:27:20.72Z</time></trkpt><trkpt lat="39.55523404234489" lon="8.934666541273886"><ele>89.0</ele><time>2026-04-27T09:27:21.72Z</time></trkpt><trkpt lat="39.555414949314056" lon="8.934815738589576"><ele>89.0</ele><time>2026-04-27T09:27:22.72Z</time></trkpt><trkpt lat="39.555593234313115" lon="8.934974186831676"><ele>89.0</ele><time>2026-04-27T09:27:23.72Z</time></trkpt><trkpt lat="39.555769905237526" lon="8.935142473908112"><ele>89.0</ele><time>2026-04-27T09:27:24.72Z</time></trkpt><trkpt lat="39.55593711567815" lon="8.935301818071459"><ele>89.0</ele><time>2026-04-27T09:27:25.72Z</time></trkpt><trkpt lat="39.55610289968435" lon="8.935457031541146"><ele>89.0</ele><time>2026-04-27T09:27:26.72Z</time></trkpt><trkpt lat="39.556275856899504" lon="8.93561978652032"><ele>89.0</ele><time>2026-04-27T09:27:27.72Z</time></trkpt><trkpt lat="39.55645080588675" lon="8.935787202013081"><ele>89.0</ele><time>2026-04-27T09:27:28.72Z</time></trkpt><trkpt lat="39.55662359747664" lon="8.935951294581857"><ele>89.0</ele><time>2026-04-27T09:27:29.72Z</time></trkpt><trkpt lat="39.55679288713572" lon="8.936112763824747"><ele>89.0</ele><time>2026-04-27T09:27:30.72Z</time></trkpt><trkpt lat="39.55695472621406" lon="8.93626705306551"><ele>89.0</ele><time>2026-04-27T09:27:31.719Z</time></trkpt><trkpt lat="39.55710743611407" lon="8.93641181686876"><ele>89.0</ele><time>2026-04-27T09:27:32.719Z</time></trkpt><trkpt lat="39.5572488921308" lon="8.936548306842061"><ele>89.25</ele><time>2026-04-27T09:27:33.719Z</time></trkpt><trkpt lat="39.55737323215931" lon="8.93666944875578"><ele>89.5</ele><time>2026-04-27T09:27:34.719Z</time></trkpt><trkpt lat="39.5574626884216" lon="8.936751848515632"><ele>89.75</ele><time>2026-04-27T09:27:35.719Z</time></trkpt><trkpt lat="39.55751133448205" lon="8.936821028789483"><ele>90.0</ele><time>2026-04-27T09:27:36.719Z</time></trkpt><trkpt lat="39.55763271977308" lon="8.936725520525416"><ele>90.0</ele><time>2026-04-27T09:27:39.719Z</time></trkpt><trkpt lat="39.55766081710436" lon="8.936595980080135"><ele>90.0</ele><time>2026-04-27T09:27:41.719Z</time></trkpt><trkpt lat="39.557670086898106" lon="8.936510427574637"><ele>90.0</ele><time>2026-04-27T09:27:42.719Z</time></trkpt><trkpt lat="39.55768301497083" lon="8.93641245714789"><ele>90.0</ele><time>2026-04-27T09:27:43.719Z</time></trkpt><trkpt lat="39.55769586879448" lon="8.936307336094583"><ele>90.0</ele><time>2026-04-27T09:27:44.719Z</time></trkpt><trkpt lat="39.55771623127025" lon="8.936196970284989"><ele>90.0</ele><time>2026-04-27T09:27:45.719Z</time></trkpt><trkpt lat="39.55773703579339" lon="8.936078228667755"><ele>90.0</ele><time>2026-04-27T09:27:46.719Z</time></trkpt><trkpt lat="39.55775672626852" lon="8.935947565953171"><ele>90.0</ele><time>2026-04-27T09:27:47.719Z</time></trkpt><trkpt lat="39.55778350355293" lon="8.93580496873603"><ele>90.0</ele><time>2026-04-27T09:27:48.719Z</time></trkpt><trkpt lat="39.557814361920855" lon="8.93564754685452"><ele>90.0</ele><time>2026-04-27T09:27:49.719Z</time></trkpt><trkpt lat="39.55784227991742" lon="8.935476811875402"><ele>90.33333333333333</ele><time>2026-04-27T09:27:50.719Z</time></trkpt><trkpt lat="39.55787516408132" lon="8.935293702134206"><ele>90.66666666666666</ele><time>2026-04-27T09:27:51.719Z</time></trkpt><trkpt lat="39.557919021588134" lon="8.935096769464781"><ele>91.0</ele><time>2026-04-27T09:27:52.719Z</time></trkpt><trkpt lat="39.557960089284144" lon="8.93486871675366"><ele>91.66666666666666</ele><time>2026-04-27T09:27:53.718Z</time></trkpt><trkpt lat="39.55799582395619" lon="8.934624778987894"><ele>92.33333333333333</ele><time>2026-04-27T09:27:54.718Z</time></trkpt><trkpt lat="39.55803804577636" lon="8.93436893087042"><ele>93.0</ele><time>2026-04-27T09:27:55.718Z</time></trkpt><trkpt lat="39.55808762393955" lon="8.93410256249565"><ele>94.0</ele><time>2026-04-27T09:27:56.718Z</time></trkpt><trkpt lat="39.55813871283444" lon="8.933827156167311"><ele>95.0</ele><time>2026-04-27T09:27:57.718Z</time></trkpt><trkpt lat="39.55819058827962" lon="8.933542834139702"><ele>96.0</ele><time>2026-04-27T09:27:58.718Z</time></trkpt><trkpt lat="39.55824244332376" lon="8.933249248058935"><ele>97.0</ele><time>2026-04-27T09:27:59.718Z</time></trkpt><trkpt lat="39.55829820057372" lon="8.932948751625474"><ele>98.0</ele><time>2026-04-27T09:28:00.718Z</time></trkpt><trkpt lat="39.55835384814488" lon="8.932642480541693"><ele>99.5</ele><time>2026-04-27T09:28:01.718Z</time></trkpt><trkpt lat="39.55841081434455" lon="8.932335737622273"><ele>101.0</ele><time>2026-04-27T09:28:02.718Z</time></trkpt><trkpt lat="39.5584673028782" lon="8.932022098496772"><ele>102.5</ele><time>2026-04-27T09:28:03.719Z</time></trkpt><trkpt lat="39.55852569745722" lon="8.93170473918949"><ele>104.0</ele><time>2026-04-27T09:28:04.72Z</time></trkpt><trkpt lat="39.55858615474601" lon="8.931383827674354"><ele>104.0</ele><time>2026-04-27T09:28:05.72Z</time></trkpt><trkpt lat="39.55864456317219" lon="8.931058010783694"><ele>104.0</ele><time>2026-04-27T09:28:06.719Z</time></trkpt><trkpt lat="39.558707982360495" lon="8.930726205212316"><ele>106.0</ele><time>2026-04-27T09:28:07.719Z</time></trkpt><trkpt lat="39.55877201303568" lon="8.930384821840905"><ele>108.0</ele><time>2026-04-27T09:28:08.719Z</time></trkpt><trkpt lat="39.55883674444768" lon="8.930039066059814"><ele>108.0</ele><time>2026-04-27T09:28:09.719Z</time></trkpt><trkpt lat="39.55890286982936" lon="8.929681682423407"><ele>108.0</ele><time>2026-04-27T09:28:10.719Z</time></trkpt><trkpt lat="39.55896805397234" lon="8.929323512157024"><ele>106.0</ele><time>2026-04-27T09:28:11.719Z</time></trkpt><trkpt lat="39.559034025325104" lon="8.928962185269322"><ele>104.0</ele><time>2026-04-27T09:28:12.72Z</time></trkpt><trkpt lat="39.559099484173835" lon="8.928609532544295"><ele>103.0</ele><time>2026-04-27T09:28:13.719Z</time></trkpt><trkpt lat="39.559161626627855" lon="8.92825545995793"><ele>102.0</ele><time>2026-04-27T09:28:14.719Z</time></trkpt><trkpt lat="39.5592233714714" lon="8.927900087359951"><ele>102.5</ele><time>2026-04-27T09:28:15.72Z</time></trkpt><trkpt lat="39.55930242167486" lon="8.927560090788507"><ele>103.0</ele><time>2026-04-27T09:28:16.719Z</time></trkpt><trkpt lat="39.55935745027055" lon="8.927215614015974"><ele>103.0</ele><time>2026-04-27T09:28:17.719Z</time></trkpt><trkpt lat="39.559452562266614" lon="8.92688483631698"><ele>103.0</ele><time>2026-04-27T09:28:18.719Z</time></trkpt><trkpt lat="39.559571145081996" lon="8.926561809572268"><ele>104.5</ele><time>2026-04-27T09:28:19.719Z</time></trkpt><trkpt lat="39.55970324472761" lon="8.926250626598438"><ele>106.0</ele><time>2026-04-27T09:28:20.719Z</time></trkpt><trkpt lat="39.55983683251349" lon="8.925941883529715"><ele>108.5</ele><time>2026-04-27T09:28:21.719Z</time></trkpt><trkpt lat="39.55997141290828" lon="8.925633045645302"><ele>111.0</ele><time>2026-04-27T09:28:22.719Z</time></trkpt><trkpt lat="39.56010654714843" lon="8.925326562464376"><ele>113.0</ele><time>2026-04-27T09:28:23.719Z</time></trkpt><trkpt lat="39.560240134471485" lon="8.925018875419303"><ele>115.0</ele><time>2026-04-27T09:28:24.719Z</time></trkpt><trkpt lat="39.56037005360046" lon="8.924719126493716"><ele>117.5</ele><time>2026-04-27T09:28:25.719Z</time></trkpt><trkpt lat="39.560493456131404" lon="8.924433833298325"><ele>120.0</ele><time>2026-04-27T09:28:26.719Z</time></trkpt><trkpt lat="39.56059702934874" lon="8.924164467453949"><ele>120.0</ele><time>2026-04-27T09:28:27.719Z</time></trkpt><trkpt lat="39.56066832294193" lon="8.923875644556722"><ele>120.0</ele><time>2026-04-27T09:28:28.719Z</time></trkpt><trkpt lat="39.56070817626495" lon="8.923573301873995"><ele>121.0</ele><time>2026-04-27T09:28:29.719Z</time></trkpt><trkpt lat="39.56070653072069" lon="8.923269751221817"><ele>122.0</ele><time>2026-04-27T09:28:30.719Z</time></trkpt><trkpt lat="39.560686121096644" lon="8.922949113048892"><ele>122.0</ele><time>2026-04-27T09:28:31.719Z</time></trkpt><trkpt lat="39.56066704032425" lon="8.922631307252384"><ele>122.0</ele><time>2026-04-27T09:28:32.719Z</time></trkpt><trkpt lat="39.56064742969279" lon="8.922330173266083"><ele>123.66666666666666</ele><time>2026-04-27T09:28:33.718Z</time></trkpt><trkpt lat="39.56062387648584" lon="8.922048089802384"><ele>125.33333333333334</ele><time>2026-04-27T09:28:34.718Z</time></trkpt><trkpt lat="39.56049500302636" lon="8.921802453406338"><ele>127.0</ele><time>2026-04-27T09:28:35.718Z</time></trkpt><trkpt lat="39.560359049830666" lon="8.921572911356497"><ele>127.5</ele><time>2026-04-27T09:28:36.718Z</time></trkpt><trkpt lat="39.56019385477896" lon="8.92136780611569"><ele>128.0</ele><time>2026-04-27T09:28:37.718Z</time></trkpt><trkpt lat="39.56000757627632" lon="8.921196926762494"><ele>128.0</ele><time>2026-04-27T09:28:38.718Z</time></trkpt><trkpt lat="39.559824470460725" lon="8.921037586372213"><ele>128.0</ele><time>2026-04-27T09:28:39.718Z</time></trkpt><trkpt lat="39.55966544304958" lon="8.920855422375604"><ele>128.0</ele><time>2026-04-27T09:28:40.718Z</time></trkpt><trkpt lat="39.55952918337916" lon="8.920662506113867"><ele>130.0</ele><time>2026-04-27T09:28:41.718Z</time></trkpt><trkpt lat="39.55940802494909" lon="8.920445558133236"><ele>132.0</ele><time>2026-04-27T09:28:42.718Z</time></trkpt><trkpt lat="39.55929941573576" lon="8.920199029356281"><ele>134.0</ele><time>2026-04-27T09:28:43.718Z</time></trkpt><trkpt lat="39.55919217999501" lon="8.919937098710232"><ele>134.0</ele><time>2026-04-27T09:28:44.718Z</time></trkpt><trkpt lat="39.55908403548372" lon="8.919665922435737"><ele>134.0</ele><time>2026-04-27T09:28:45.718Z</time></trkpt><trkpt lat="39.55897901281767" lon="8.919400642599506"><ele>134.33333333333331</ele><time>2026-04-27T09:28:46.718Z</time></trkpt><trkpt lat="39.55888326933091" lon="8.919152557346719"><ele>134.66666666666666</ele><time>2026-04-27T09:28:47.718Z</time></trkpt><trkpt lat="39.55880107166339" lon="8.918906820363462"><ele>135.0</ele><time>2026-04-27T09:28:48.718Z</time></trkpt><trkpt lat="39.558744048175555" lon="8.918644426164722"><ele>135.5</ele><time>2026-04-27T09:28:49.718Z</time></trkpt><trkpt lat="39.558723288398554" lon="8.918357038403249"><ele>136.0</ele><time>2026-04-27T09:28:50.718Z</time></trkpt><trkpt lat="39.558734346274214" lon="8.918056117101836"><ele>136.0</ele><time>2026-04-27T09:28:51.718Z</time></trkpt><trkpt lat="39.558755098954805" lon="8.917740444621574"><ele>136.0</ele><time>2026-04-27T09:28:52.718Z</time></trkpt><trkpt lat="39.558774046062474" lon="8.917415272823645"><ele>134.5</ele><time>2026-04-27T09:28:53.718Z</time></trkpt><trkpt lat="39.55879205371004" lon="8.917077740941647"><ele>133.0</ele><time>2026-04-27T09:28:54.718Z</time></trkpt><trkpt lat="39.558810164990334" lon="8.916733914089685"><ele>131.5</ele><time>2026-04-27T09:28:55.717Z</time></trkpt><trkpt lat="39.558828854778135" lon="8.916383948744002"><ele>130.0</ele><time>2026-04-27T09:28:56.717Z</time></trkpt><trkpt lat="39.5588424293968" lon="8.916034147362865"><ele>129.5</ele><time>2026-04-27T09:28:57.717Z</time></trkpt><trkpt lat="39.55885804222956" lon="8.915681318469964"><ele>129.0</ele><time>2026-04-27T09:28:58.717Z</time></trkpt><trkpt lat="39.55887468178338" lon="8.915324831047263"><ele>128.5</ele><time>2026-04-27T09:28:59.717Z</time></trkpt><trkpt lat="39.55889011116851" lon="8.914968876359724"><ele>128.0</ele><time>2026-04-27T09:29:00.717Z</time></trkpt><trkpt lat="39.55891110163352" lon="8.914604873613198"><ele>128.0</ele><time>2026-04-27T09:29:01.717Z</time></trkpt><trkpt lat="39.558928760420265" lon="8.914250307680984"><ele>128.0</ele><time>2026-04-27T09:29:02.717Z</time></trkpt><trkpt lat="39.558943257656395" lon="8.913903310231534"><ele>128.0</ele><time>2026-04-27T09:29:03.717Z</time></trkpt><trkpt lat="39.55895717351344" lon="8.913570602793124"><ele>128.0</ele><time>2026-04-27T09:29:04.717Z</time></trkpt><trkpt lat="39.5589717135718" lon="8.913254170163876"><ele>129.0</ele><time>2026-04-27T09:29:05.717Z</time></trkpt><trkpt lat="39.55898465662078" lon="8.91294811152707"><ele>130.0</ele><time>2026-04-27T09:29:06.717Z</time></trkpt><trkpt lat="39.558996650632736" lon="8.91265890098338"><ele>130.0</ele><time>2026-04-27T09:29:07.717Z</time></trkpt><trkpt lat="39.55901237221627" lon="8.912386425687687"><ele>130.0</ele><time>2026-04-27T09:29:08.717Z</time></trkpt><trkpt lat="39.55906988016932" lon="8.912136404083343"><ele>130.0</ele><time>2026-04-27T09:29:09.717Z</time></trkpt><trkpt lat="39.55916095608725" lon="8.911917494563728"><ele>130.33333333333334</ele><time>2026-04-27T09:29:10.717Z</time></trkpt><trkpt lat="39.55928404018646" lon="8.911714524769934"><ele>130.66666666666666</ele><time>2026-04-27T09:29:11.717Z</time></trkpt><trkpt lat="39.55943624938422" lon="8.911527853605627"><ele>131.0</ele><time>2026-04-27T09:29:12.717Z</time></trkpt><trkpt lat="39.55959767805364" lon="8.911348981475296"><ele>131.0</ele><time>2026-04-27T09:29:13.717Z</time></trkpt><trkpt lat="39.55974609229557" lon="8.911171253221534"><ele>131.0</ele><time>2026-04-27T09:29:14.717Z</time></trkpt><trkpt lat="39.55986739382179" lon="8.911008886109821"><ele>131.0</ele><time>2026-04-27T09:29:15.717Z</time></trkpt><trkpt lat="39.559990682868936" lon="8.9108488752304"><ele>130.0</ele><time>2026-04-27T09:29:16.716Z</time></trkpt><trkpt lat="39.560099322114205" lon="8.910706550864152"><ele>129.0</ele><time>2026-04-27T09:29:17.716Z</time></trkpt><trkpt lat="39.56019705534285" lon="8.910576114544154"><ele>128.0</ele><time>2026-04-27T09:29:18.716Z</time></trkpt><trkpt lat="39.56028726554373" lon="8.910448282180653"><ele>127.0</ele><time>2026-04-27T09:29:19.716Z</time></trkpt><trkpt lat="39.560379968481364" lon="8.910317816885529"><ele>127.5</ele><time>2026-04-27T09:29:20.716Z</time></trkpt><trkpt lat="39.56047339467349" lon="8.910191412428501"><ele>128.0</ele><time>2026-04-27T09:29:21.716Z</time></trkpt><trkpt lat="39.56056718924605" lon="8.910059137579047"><ele>128.5</ele><time>2026-04-27T09:29:22.716Z</time></trkpt><trkpt lat="39.56065564503385" lon="8.909919843483816"><ele>129.0</ele><time>2026-04-27T09:29:23.716Z</time></trkpt><trkpt lat="39.560728855501836" lon="8.909768313043523"><ele>129.0</ele><time>2026-04-27T09:29:24.716Z</time></trkpt><trkpt lat="39.56078495214851" lon="8.909603476774608"><ele>129.0</ele><time>2026-04-27T09:29:25.716Z</time></trkpt><trkpt lat="39.560826034501055" lon="8.909433457443798"><ele>129.0</ele><time>2026-04-27T09:29:26.716Z</time></trkpt><trkpt lat="39.56085517054313" lon="8.909269686618392"><ele>129.0</ele><time>2026-04-27T09:29:27.716Z</time></trkpt><trkpt lat="39.56086932184212" lon="8.909108636897125"><ele>128.25</ele><time>2026-04-27T09:29:28.716Z</time></trkpt><trkpt lat="39.56089155367268" lon="8.90894473620277"><ele>127.5</ele><time>2026-04-27T09:29:29.716Z</time></trkpt><trkpt lat="39.560906279068384" lon="8.908783150649581"><ele>126.75</ele><time>2026-04-27T09:29:30.716Z</time></trkpt><trkpt lat="39.56092135960749" lon="8.908620832807305"><ele>126.0</ele><time>2026-04-27T09:29:31.716Z</time></trkpt><trkpt lat="39.560938552083826" lon="8.908471729402336"><ele>126.25</ele><time>2026-04-27T09:29:32.716Z</time></trkpt><trkpt lat="39.5609556552952" lon="8.908326738913606"><ele>126.5</ele><time>2026-04-27T09:29:33.716Z</time></trkpt><trkpt lat="39.56097026032343" lon="8.908172432626978"><ele>126.75</ele><time>2026-04-27T09:29:34.716Z</time></trkpt><trkpt lat="39.56099404736607" lon="8.908026331650873"><ele>127.0</ele><time>2026-04-27T09:29:35.716Z</time></trkpt><trkpt lat="39.56101613436739" lon="8.907892426788408"><ele>127.0</ele><time>2026-04-27T09:29:36.716Z</time></trkpt><trkpt lat="39.56103204222693" lon="8.907764775293373"><ele>126.99999999999999</ele><time>2026-04-27T09:29:37.716Z</time></trkpt><trkpt lat="39.56104686184199" lon="8.90763968550106"><ele>126.99999999999999</ele><time>2026-04-27T09:29:38.715Z</time></trkpt><trkpt lat="39.5610619801051" lon="8.907512106411412"><ele>127.0</ele><time>2026-04-27T09:29:39.715Z</time></trkpt><trkpt lat="39.56107071774622" lon="8.9073678855845"><ele>127.0</ele><time>2026-04-27T09:29:40.715Z</time></trkpt><trkpt lat="39.561080868605714" lon="8.907220358550097"><ele>127.25</ele><time>2026-04-27T09:29:41.715Z</time></trkpt><trkpt lat="39.56110060780106" lon="8.907061890910484"><ele>127.5</ele><time>2026-04-27T09:29:42.715Z</time></trkpt><trkpt lat="39.56111908294254" lon="8.906890328763195"><ele>127.75</ele><time>2026-04-27T09:29:43.715Z</time></trkpt><trkpt lat="39.56113549837015" lon="8.906709356430822"><ele>128.0</ele><time>2026-04-27T09:29:44.715Z</time></trkpt><trkpt lat="39.561155412512214" lon="8.90652191391424"><ele>128.75</ele><time>2026-04-27T09:29:45.715Z</time></trkpt><trkpt lat="39.5611751789177" lon="8.906337336673177"><ele>129.5</ele><time>2026-04-27T09:29:46.715Z</time></trkpt><trkpt lat="39.56119267849543" lon="8.906148662471844"><ele>130.25</ele><time>2026-04-27T09:29:47.715Z</time></trkpt><trkpt lat="39.56121082752148" lon="8.90595890689794"><ele>131.0</ele><time>2026-04-27T09:29:48.715Z</time></trkpt><trkpt lat="39.56123208030735" lon="8.905765142105201"><ele>131.66666666666666</ele><time>2026-04-27T09:29:49.715Z</time></trkpt><trkpt lat="39.5612528826552" lon="8.905569649222508"><ele>132.33333333333334</ele><time>2026-04-27T09:29:50.715Z</time></trkpt><trkpt lat="39.561279002896036" lon="8.905378779339529"><ele>133.0</ele><time>2026-04-27T09:29:51.715Z</time></trkpt><trkpt lat="39.56129871588024" lon="8.905187347610394"><ele>134.0</ele><time>2026-04-27T09:29:52.715Z</time></trkpt><trkpt lat="39.56132311136435" lon="8.905006269220653"><ele>135.0</ele><time>2026-04-27T09:29:53.715Z</time></trkpt><trkpt lat="39.56134498439025" lon="8.904825428320994"><ele>136.0</ele><time>2026-04-27T09:29:54.715Z</time></trkpt><trkpt lat="39.561360492440926" lon="8.90465247486795"><ele>137.0</ele><time>2026-04-27T09:29:55.715Z</time></trkpt><trkpt lat="39.56137736088163" lon="8.904489081551954"><ele>137.0</ele><time>2026-04-27T09:29:56.715Z</time></trkpt><trkpt lat="39.56139556845312" lon="8.904329729152684"><ele>137.0</ele><time>2026-04-27T09:29:57.715Z</time></trkpt><trkpt lat="39.561412391292365" lon="8.90417815503077"><ele>137.0</ele><time>2026-04-27T09:29:58.715Z</time></trkpt><trkpt lat="39.561432204838475" lon="8.904033304401846"><ele>137.0</ele><time>2026-04-27T09:29:59.715Z</time></trkpt><trkpt lat="39.561449515180925" lon="8.903882678644177"><ele>137.5</ele><time>2026-04-27T09:30:00.714Z</time></trkpt><trkpt lat="39.56147022039815" lon="8.90373349705574"><ele>138.0</ele><time>2026-04-27T09:30:01.714Z</time></trkpt><trkpt lat="39.561494589682034" lon="8.903583701855752"><ele>138.5</ele><time>2026-04-27T09:30:02.714Z</time></trkpt><trkpt lat="39.56151575343998" lon="8.903433641254978"><ele>139.0</ele><time>2026-04-27T09:30:03.714Z</time></trkpt><trkpt lat="39.56154141064276" lon="8.903281368583835"><ele>139.25</ele><time>2026-04-27T09:30:04.714Z</time></trkpt><trkpt lat="39.561572253829475" lon="8.90313012126622"><ele>139.5</ele><time>2026-04-27T09:30:05.714Z</time></trkpt><trkpt lat="39.56160918321248" lon="8.902981082385837"><ele>139.75</ele><time>2026-04-27T09:30:06.714Z</time></trkpt><trkpt lat="39.56165712804829" lon="8.902833100473194"><ele>140.0</ele><time>2026-04-27T09:30:07.714Z</time></trkpt><trkpt lat="39.56170050036371" lon="8.902686354611964"><ele>139.75</ele><time>2026-04-27T09:30:08.714Z</time></trkpt><trkpt lat="39.56174942548135" lon="8.902538756836542"><ele>139.5</ele><time>2026-04-27T09:30:09.716Z</time></trkpt><trkpt lat="39.56179685240116" lon="8.902391055718757"><ele>139.25</ele><time>2026-04-27T09:30:10.715Z</time></trkpt><trkpt lat="39.56184608799507" lon="8.902258223393275"><ele>139.0</ele><time>2026-04-27T09:30:11.715Z</time></trkpt><trkpt lat="39.561890109023" lon="8.902136229847626"><ele>139.0</ele><time>2026-04-27T09:30:12.715Z</time></trkpt><trkpt lat="39.56192711022123" lon="8.902017095819131"><ele>139.0</ele><time>2026-04-27T09:30:13.715Z</time></trkpt><trkpt lat="39.56196518183937" lon="8.901889649299848"><ele>139.0</ele><time>2026-04-27T09:30:14.715Z</time></trkpt><trkpt lat="39.56199879450677" lon="8.901765152986668"><ele>139.0</ele><time>2026-04-27T09:30:15.715Z</time></trkpt><trkpt lat="39.56204116651885" lon="8.901638973433759"><ele>139.0</ele><time>2026-04-27T09:30:16.714Z</time></trkpt><trkpt lat="39.562083026612406" lon="8.901516490053147"><ele>140.2</ele><time>2026-04-27T09:30:17.714Z</time></trkpt><trkpt lat="39.562122426016565" lon="8.901394140194899"><ele>141.4</ele><time>2026-04-27T09:30:18.715Z</time></trkpt><trkpt lat="39.56217241101893" lon="8.901273731997955"><ele>142.6</ele><time>2026-04-27T09:30:19.715Z</time></trkpt><trkpt lat="39.56221931069519" lon="8.901157520136705"><ele>143.8</ele><time>2026-04-27T09:30:20.715Z</time></trkpt><trkpt lat="39.56227255892086" lon="8.901048746250297"><ele>145.0</ele><time>2026-04-27T09:30:21.715Z</time></trkpt><trkpt lat="39.56231131527686" lon="8.900941326256342"><ele>144.4</ele><time>2026-04-27T09:30:22.714Z</time></trkpt><trkpt lat="39.56235929101609" lon="8.900844391361103"><ele>143.8</ele><time>2026-04-27T09:30:23.714Z</time></trkpt><trkpt lat="39.5624047809805" lon="8.900738149968172"><ele>143.2</ele><time>2026-04-27T09:30:24.714Z</time></trkpt><trkpt lat="39.56245697229362" lon="8.900640571455272"><ele>142.6</ele><time>2026-04-27T09:30:25.714Z</time></trkpt><trkpt lat="39.56252433395144" lon="8.900547392846782"><ele>142.0</ele><time>2026-04-27T09:30:26.714Z</time></trkpt><trkpt lat="39.56259723297665" lon="8.900460142493966"><ele>142.0</ele><time>2026-04-27T09:30:27.714Z</time></trkpt><trkpt lat="39.56267099932282" lon="8.900369214376115"><ele>142.0</ele><time>2026-04-27T09:30:28.714Z</time></trkpt><trkpt lat="39.56274189629011" lon="8.90029231752468"><ele>142.0</ele><time>2026-04-27T09:30:29.714Z</time></trkpt><trkpt lat="39.562804625903965" lon="8.900200088810779"><ele>142.0</ele><time>2026-04-27T09:30:30.714Z</time></trkpt><trkpt lat="39.562868339211015" lon="8.900111542783689"><ele>142.0</ele><time>2026-04-27T09:30:31.714Z</time></trkpt><trkpt lat="39.562906144203346" lon="8.900006972543077"><ele>142.16666666666669</ele><time>2026-04-27T09:30:32.714Z</time></trkpt><trkpt lat="39.56295458010828" lon="8.899922488704718"><ele>142.33333333333334</ele><time>2026-04-27T09:30:33.714Z</time></trkpt><trkpt lat="39.562983729503884" lon="8.899839879699158"><ele>142.5</ele><time>2026-04-27T09:30:35.714Z</time></trkpt><trkpt lat="39.5629985165955" lon="8.899722641019304"><ele>142.66666666666666</ele><time>2026-04-27T09:30:38.714Z</time></trkpt><trkpt lat="39.56299523182516" lon="8.899637281191824"><ele>142.83333333333331</ele><time>2026-04-27T09:30:40.713Z</time></trkpt><trkpt lat="39.562939092710884" lon="8.89957989848382"><ele>143.0</ele><time>2026-04-27T09:30:50.713Z</time></trkpt><trkpt lat="39.562815625154876" lon="8.89961026903089"><ele>142.33333333333331</ele><time>2026-04-27T09:30:52.713Z</time></trkpt><trkpt lat="39.562732342232295" lon="8.899611561990524"><ele>141.66666666666666</ele><time>2026-04-27T09:30:54.713Z</time></trkpt><trkpt lat="39.56266458111533" lon="8.899610220243629"><ele>141.0</ele><time>2026-04-27T09:31:15.712Z</time></trkpt><trkpt lat="39.56260324465437" lon="8.899582863973663"><ele>140.33333333333334</ele><time>2026-04-27T09:31:17.712Z</time></trkpt><trkpt lat="39.562559536438165" lon="8.89951885235883"><ele>139.66666666666669</ele><time>2026-04-27T09:31:19.712Z</time></trkpt><trkpt lat="39.56246376433339" lon="8.899495761395109"><ele>139.0</ele><time>2026-04-27T09:31:22.711Z</time></trkpt><trkpt lat="39.56237986879981" lon="8.899442482500968"><ele>139.0</ele><time>2026-04-27T09:31:24.711Z</time></trkpt><trkpt lat="39.562297947092645" lon="8.89940286095293"><ele>139.0</ele><time>2026-04-27T09:31:26.711Z</time></trkpt><trkpt lat="39.562194932200406" lon="8.899357619387693"><ele>139.0</ele><time>2026-04-27T09:31:28.711Z</time></trkpt><trkpt lat="39.56207989506363" lon="8.899311951442446"><ele>139.0</ele><time>2026-04-27T09:31:30.711Z</time></trkpt><trkpt lat="39.561977206209754" lon="8.899274300150797"><ele>139.0</ele><time>2026-04-27T09:31:32.711Z</time></trkpt><trkpt lat="39.56189642862787" lon="8.899245270854323"><ele>138.5</ele><time>2026-04-27T09:31:34.711Z</time></trkpt><trkpt lat="39.56182679536588" lon="8.89926992465344"><ele>138.0</ele><time>2026-04-27T09:31:36.711Z</time></trkpt><trkpt lat="39.561759074480825" lon="8.899199926702419"><ele>137.5</ele><time>2026-04-27T09:31:39.711Z</time></trkpt><trkpt lat="39.56166887305129" lon="8.899159524313973"><ele>137.0</ele><time>2026-04-27T09:31:42.711Z</time></trkpt><trkpt lat="39.56157931881829" lon="8.899125870249247"><ele>136.5</ele><time>2026-04-27T09:31:45.71Z</time></trkpt><trkpt lat="39.56149619045032" lon="8.89909463125439"><ele>136.0</ele><time>2026-04-27T09:31:48.71Z</time></trkpt><trkpt lat="39.56145423761769" lon="8.899012817095553"><ele>136.0</ele><time>2026-04-27T09:31:50.71Z</time></trkpt><trkpt lat="39.56137505654111" lon="8.89896572079264"><ele>136.0</ele><time>2026-04-27T09:31:52.71Z</time></trkpt><trkpt lat="39.56128001646675" lon="8.898910173076624"><ele>136.0</ele><time>2026-04-27T09:31:54.71Z</time></trkpt><trkpt lat="39.56118932462943" lon="8.898855635018592"><ele>136.0</ele><time>2026-04-27T09:31:56.71Z</time></trkpt><trkpt lat="39.56110501785702" lon="8.89879912560893"><ele>136.0</ele><time>2026-04-27T09:31:58.71Z</time></trkpt><trkpt lat="39.5610427426248" lon="8.898750509711595"><ele>135.16666666666669</ele><time>2026-04-27T09:32:00.71Z</time></trkpt><trkpt lat="39.56098472976084" lon="8.898714365773245"><ele>134.33333333333334</ele><time>2026-04-27T09:32:02.71Z</time></trkpt><trkpt lat="39.56093256261605" lon="8.898661415588583"><ele>133.5</ele><time>2026-04-27T09:32:04.71Z</time></trkpt><trkpt lat="39.56087750238103" lon="8.898588227695013"><ele>132.66666666666666</ele><time>2026-04-27T09:32:06.709Z</time></trkpt><trkpt lat="39.560793110781816" lon="8.898485431516434"><ele>131.83333333333331</ele><time>2026-04-27T09:32:08.709Z</time></trkpt><trkpt lat="39.56074745878239" lon="8.898429131312373"><ele>131.0</ele><time>2026-04-27T09:32:09.709Z</time></trkpt><trkpt lat="39.560668320662344" lon="8.898326464398155"><ele>130.8</ele><time>2026-04-27T09:32:11.709Z</time></trkpt><trkpt lat="39.560617169047795" lon="8.898242129923156"><ele>130.6</ele><time>2026-04-27T09:32:13.709Z</time></trkpt><trkpt lat="39.56055416285007" lon="8.89815624165885"><ele>130.4</ele><time>2026-04-27T09:32:18.711Z</time></trkpt><trkpt lat="39.560498091856914" lon="8.89804172371124"><ele>130.2</ele><time>2026-04-27T09:32:20.711Z</time></trkpt><trkpt lat="39.56046609215345" lon="8.897887076573527"><ele>130.0</ele><time>2026-04-27T09:32:22.71Z</time></trkpt><trkpt lat="39.560443525718426" lon="8.897808751008657"><ele>130.00000000000003</ele><time>2026-04-27T09:32:23.71Z</time></trkpt><trkpt lat="39.560403186135034" lon="8.897742370952871"><ele>130.0</ele><time>2026-04-27T09:32:24.71Z</time></trkpt><trkpt lat="39.56037410414021" lon="8.89766185697048"><ele>130.0</ele><time>2026-04-27T09:32:25.71Z</time></trkpt><trkpt lat="39.56034411213452" lon="8.897579064746182"><ele>130.0</ele><time>2026-04-27T09:32:26.71Z</time></trkpt><trkpt lat="39.56031661627141" lon="8.897497171544064"><ele>130.0</ele><time>2026-04-27T09:32:27.71Z</time></trkpt><trkpt lat="39.56028661962514" lon="8.897408213168966"><ele>130.00000000000003</ele><time>2026-04-27T09:32:28.71Z</time></trkpt><trkpt lat="39.56026036221682" lon="8.897310587794275"><ele>130.0</ele><time>2026-04-27T09:32:29.71Z</time></trkpt><trkpt lat="39.56025918590783" lon="8.897206368117889"><ele>129.5</ele><time>2026-04-27T09:32:30.71Z</time></trkpt><trkpt lat="39.560245539255995" lon="8.897117273609894"><ele>129.0</ele><time>2026-04-27T09:32:31.71Z</time></trkpt><trkpt lat="39.56022466162757" lon="8.897023389472317"><ele>128.5</ele><time>2026-04-27T09:32:32.71Z</time></trkpt><trkpt lat="39.56020467006198" lon="8.896926397667347"><ele>128.0</ele><time>2026-04-27T09:32:33.71Z</time></trkpt><trkpt lat="39.56017515755571" lon="8.896824905667183"><ele>127.50000000000001</ele><time>2026-04-27T09:32:34.71Z</time></trkpt><trkpt lat="39.56014212736296" lon="8.896727920879766"><ele>127.0</ele><time>2026-04-27T09:32:35.71Z</time></trkpt><trkpt lat="39.5601005610594" lon="8.8966382101647"><ele>127.0</ele><time>2026-04-27T09:32:36.71Z</time></trkpt><trkpt lat="39.56004798900895" lon="8.89656056784049"><ele>127.0</ele><time>2026-04-27T09:32:37.71Z</time></trkpt><trkpt lat="39.55999724035537" lon="8.896480387338945"><ele>127.0</ele><time>2026-04-27T09:32:38.71Z</time></trkpt><trkpt lat="39.55994790247271" lon="8.896399293181059"><ele>127.0</ele><time>2026-04-27T09:32:39.71Z</time></trkpt><trkpt lat="39.55990879629735" lon="8.896326952579487"><ele>127.0</ele><time>2026-04-27T09:32:40.71Z</time></trkpt><trkpt lat="39.559869606199555" lon="8.896250865343308"><ele>127.0</ele><time>2026-04-27T09:32:41.71Z</time></trkpt><trkpt lat="39.559828952789196" lon="8.896181693266126"><ele>127.0</ele><time>2026-04-27T09:32:42.71Z</time></trkpt><trkpt lat="39.55978783617337" lon="8.896112100729395"><ele>127.0</ele><time>2026-04-27T09:32:43.71Z</time></trkpt><trkpt lat="39.55974324106075" lon="8.896042914092611"><ele>127.0</ele><time>2026-04-27T09:32:44.71Z</time></trkpt><trkpt lat="39.55969720950222" lon="8.895973901367533"><ele>127.0</ele><time>2026-04-27T09:32:45.71Z</time></trkpt><trkpt lat="39.55965120836223" lon="8.895903980566436"><ele>127.0</ele><time>2026-04-27T09:32:46.71Z</time></trkpt><trkpt lat="39.559607909209944" lon="8.895825880413684"><ele>127.0</ele><time>2026-04-27T09:32:47.71Z</time></trkpt><trkpt lat="39.55957114508858" lon="8.89574906034971"><ele>127.0</ele><time>2026-04-27T09:32:48.709Z</time></trkpt><trkpt lat="39.55952558180138" lon="8.895679187018933"><ele>127.0</ele><time>2026-04-27T09:32:49.709Z</time></trkpt><trkpt lat="39.55948798836445" lon="8.895597851509233"><ele>126.85714285714286</ele><time>2026-04-27T09:32:50.709Z</time></trkpt><trkpt lat="39.55945426246884" lon="8.895514036520856"><ele>126.71428571428571</ele><time>2026-04-27T09:32:51.709Z</time></trkpt><trkpt lat="39.55943013373585" lon="8.895430170719427"><ele>126.57142857142857</ele><time>2026-04-27T09:32:52.709Z</time></trkpt><trkpt lat="39.55940875865835" lon="8.895349640695718"><ele>126.42857142857143</ele><time>2026-04-27T09:32:53.709Z</time></trkpt><trkpt lat="39.55939470604592" lon="8.895263663111098"><ele>126.28571428571428</ele><time>2026-04-27T09:32:54.709Z</time></trkpt><trkpt lat="39.55938528448803" lon="8.895176442590607"><ele>126.14285714285714</ele><time>2026-04-27T09:32:55.709Z</time></trkpt><trkpt lat="39.559373794803136" lon="8.895085215783775"><ele>126.0</ele><time>2026-04-27T09:32:56.709Z</time></trkpt><trkpt lat="39.55936017087271" lon="8.894992345914414"><ele>125.83333333333333</ele><time>2026-04-27T09:32:57.709Z</time></trkpt><trkpt lat="39.55934905381856" lon="8.894902288565245"><ele>125.66666666666666</ele><time>2026-04-27T09:32:58.709Z</time></trkpt><trkpt lat="39.55933976472692" lon="8.894815992071825"><ele>125.5</ele><time>2026-04-27T09:32:59.709Z</time></trkpt><trkpt lat="39.559323242914644" lon="8.894655936963764"><ele>125.33333333333333</ele><time>2026-04-27T09:33:01.709Z</time></trkpt><trkpt lat="39.55931681560574" lon="8.89457256913617"><ele>125.16666666666666</ele><time>2026-04-27T09:33:02.709Z</time></trkpt><trkpt lat="39.559311534464825" lon="8.894481755172402"><ele>125.0</ele><time>2026-04-27T09:33:03.709Z</time></trkpt><trkpt lat="39.55930607314543" lon="8.894383110664208"><ele>125.0</ele><time>2026-04-27T09:33:04.709Z</time></trkpt><trkpt lat="39.559297959646415" lon="8.894271026295167"><ele>125.0</ele><time>2026-04-27T09:33:05.709Z</time></trkpt><trkpt lat="39.55929021140576" lon="8.894152581107805"><ele>125.0</ele><time>2026-04-27T09:33:06.709Z</time></trkpt><trkpt lat="39.55927886284735" lon="8.894035361644956"><ele>125.0</ele><time>2026-04-27T09:33:07.709Z</time></trkpt><trkpt lat="39.559263454074824" lon="8.89391878926433"><ele>125.0</ele><time>2026-04-27T09:33:08.709Z</time></trkpt><trkpt lat="39.559249233057244" lon="8.893803945986456"><ele>124.99999999999999</ele><time>2026-04-27T09:33:09.708Z</time></trkpt><trkpt lat="39.55924126359944" lon="8.893687247858963"><ele>125.0</ele><time>2026-04-27T09:33:10.708Z</time></trkpt><trkpt lat="39.55923144451866" lon="8.89357630081036"><ele>125.0</ele><time>2026-04-27T09:33:11.708Z</time></trkpt><trkpt lat="39.55922607576335" lon="8.893460246995529"><ele>125.0</ele><time>2026-04-27T09:33:12.708Z</time></trkpt><trkpt lat="39.55921803848972" lon="8.893344374435252"><ele>124.99999999999999</ele><time>2026-04-27T09:33:13.708Z</time></trkpt><trkpt lat="39.559218323879996" lon="8.893223319823816"><ele>125.0</ele><time>2026-04-27T09:33:14.708Z</time></trkpt><trkpt lat="39.559223662030995" lon="8.893100086427042"><ele>124.8</ele><time>2026-04-27T09:33:15.708Z</time></trkpt><trkpt lat="39.559224977386194" lon="8.892982700777235"><ele>124.6</ele><time>2026-04-27T09:33:16.708Z</time></trkpt><trkpt lat="39.55922344570061" lon="8.892859684080673"><ele>124.4</ele><time>2026-04-27T09:33:17.708Z</time></trkpt><trkpt lat="39.55922371472977" lon="8.892737244916937"><ele>124.2</ele><time>2026-04-27T09:33:18.708Z</time></trkpt><trkpt lat="39.55921488704091" lon="8.892618637844388"><ele>124.0</ele><time>2026-04-27T09:33:19.708Z</time></trkpt><trkpt lat="39.55920679856049" lon="8.892505171735365"><ele>123.83333333333334</ele><time>2026-04-27T09:33:20.708Z</time></trkpt><trkpt lat="39.55920047710689" lon="8.892398490996104"><ele>123.66666666666667</ele><time>2026-04-27T09:33:21.708Z</time></trkpt><trkpt lat="39.55919693815727" lon="8.892303491217147"><ele>123.5</ele><time>2026-04-27T09:33:22.708Z</time></trkpt><trkpt lat="39.55919290997832" lon="8.892214307799463"><ele>123.33333333333334</ele><time>2026-04-27T09:33:23.708Z</time></trkpt><trkpt lat="39.5591915134851" lon="8.89212940189872"><ele>123.16666666666667</ele><time>2026-04-27T09:33:24.708Z</time></trkpt><trkpt lat="39.55919318053536" lon="8.89198746882255"><ele>123.0</ele><time>2026-04-27T09:33:26.708Z</time></trkpt><trkpt lat="39.559201221998194" lon="8.891871209685181"><ele>123.0</ele><time>2026-04-27T09:33:28.708Z</time></trkpt><trkpt lat="39.55920809697836" lon="8.891770211626817"><ele>123.00000000000001</ele><time>2026-04-27T09:33:30.708Z</time></trkpt><trkpt lat="39.55922667297918" lon="8.891671652877866"><ele>123.00000000000001</ele><time>2026-04-27T09:33:35.707Z</time></trkpt><trkpt lat="39.55924875758112" lon="8.89159019842769"><ele>123.0</ele><time>2026-04-27T09:33:38.707Z</time></trkpt><trkpt lat="39.55927738936411" lon="8.89144483131295"><ele>123.0</ele><time>2026-04-27T09:33:41.707Z</time></trkpt><trkpt lat="39.559259139252" lon="8.891285619353482"><ele>123.0</ele><time>2026-04-27T09:33:43.707Z</time></trkpt><trkpt lat="39.559233693611155" lon="8.891191608693799"><ele>123.00000000000001</ele><time>2026-04-27T09:33:44.707Z</time></trkpt><trkpt lat="39.55920383482593" lon="8.891081516844094"><ele>123.00000000000001</ele><time>2026-04-27T09:33:45.707Z</time></trkpt><trkpt lat="39.5591817617414" lon="8.890951013971522"><ele>123.0</ele><time>2026-04-27T09:33:46.707Z</time></trkpt><trkpt lat="39.55917079539747" lon="8.890812811485713"><ele>123.0</ele><time>2026-04-27T09:33:47.707Z</time></trkpt><trkpt lat="39.55915725794051" lon="8.890666887396424"><ele>123.0</ele><time>2026-04-27T09:33:48.707Z</time></trkpt><trkpt lat="39.55914436044905" lon="8.890507480018131"><ele>123.0</ele><time>2026-04-27T09:33:49.707Z</time></trkpt><trkpt lat="39.55913368981931" lon="8.890333424341325"><ele>123.0</ele><time>2026-04-27T09:33:50.707Z</time></trkpt><trkpt lat="39.55911931548689" lon="8.89013169590595"><ele>123.0</ele><time>2026-04-27T09:33:51.707Z</time></trkpt><trkpt lat="39.55910739063166" lon="8.889913840891094"><ele>122.66666666666666</ele><time>2026-04-27T09:33:52.706Z</time></trkpt><trkpt lat="39.559098588770816" lon="8.889685734872748"><ele>122.33333333333333</ele><time>2026-04-27T09:33:53.706Z</time></trkpt><trkpt lat="39.55909159719841" lon="8.889435850046157"><ele>122.0</ele><time>2026-04-27T09:33:54.706Z</time></trkpt><trkpt lat="39.55909939429884" lon="8.8891764331672"><ele>121.66666666666666</ele><time>2026-04-27T09:33:55.706Z</time></trkpt><trkpt lat="39.559077430535936" lon="8.888902768175706"><ele>121.33333333333334</ele><time>2026-04-27T09:33:56.706Z</time></trkpt><trkpt lat="39.55907174924753" lon="8.888622498729305"><ele>121.0</ele><time>2026-04-27T09:33:57.706Z</time></trkpt><trkpt lat="39.55906830163304" lon="8.888333479203594"><ele>121.0</ele><time>2026-04-27T09:33:58.706Z</time></trkpt><trkpt lat="39.559062592035005" lon="8.888039104378983"><ele>121.0</ele><time>2026-04-27T09:33:59.706Z</time></trkpt><trkpt lat="39.55905431014931" lon="8.887736311480614"><ele>120.5</ele><time>2026-04-27T09:34:00.706Z</time></trkpt><trkpt lat="39.55904589019947" lon="8.887421580890987"><ele>120.0</ele><time>2026-04-27T09:34:01.706Z</time></trkpt><trkpt lat="39.55903170697004" lon="8.887116515039564"><ele>120.0</ele><time>2026-04-27T09:34:02.706Z</time></trkpt><trkpt lat="39.55902111253131" lon="8.886805633887974"><ele>120.0</ele><time>2026-04-27T09:34:03.706Z</time></trkpt><trkpt lat="39.55901600649059" lon="8.886485513350204"><ele>118.5</ele><time>2026-04-27T09:34:04.706Z</time></trkpt><trkpt lat="39.55900775933794" lon="8.886154374857917"><ele>117.0</ele><time>2026-04-27T09:34:05.706Z</time></trkpt><trkpt lat="39.558998801678705" lon="8.885821847652362"><ele>117.0</ele><time>2026-04-27T09:34:06.706Z</time></trkpt><trkpt lat="39.55898864611817" lon="8.885495075096149"><ele>117.0</ele><time>2026-04-27T09:34:07.706Z</time></trkpt><trkpt lat="39.55897740476921" lon="8.88517172349665"><ele>118.0</ele><time>2026-04-27T09:34:08.706Z</time></trkpt><trkpt lat="39.55896435921238" lon="8.884851965658756"><ele>119.0</ele><time>2026-04-27T09:34:09.706Z</time></trkpt><trkpt lat="39.55895169563615" lon="8.884529606080998"><ele>120.0</ele><time>2026-04-27T09:34:10.706Z</time></trkpt><trkpt lat="39.55893350811848" lon="8.884206306546417"><ele>121.0</ele><time>2026-04-27T09:34:11.706Z</time></trkpt><trkpt lat="39.5589042198976" lon="8.883882302747928"><ele>121.0</ele><time>2026-04-27T09:34:12.706Z</time></trkpt><trkpt lat="39.55885943889511" lon="8.883554336003332"><ele>121.0</ele><time>2026-04-27T09:34:13.706Z</time></trkpt><trkpt lat="39.558799457154" lon="8.883230904484952"><ele>121.5</ele><time>2026-04-27T09:34:14.705Z</time></trkpt><trkpt lat="39.55872932106077" lon="8.882905708727101"><ele>122.0</ele><time>2026-04-27T09:34:15.705Z</time></trkpt><trkpt lat="39.55865556521334" lon="8.882580094088286"><ele>120.5</ele><time>2026-04-27T09:34:16.705Z</time></trkpt><trkpt lat="39.55858467299383" lon="8.882250022248574"><ele>119.0</ele><time>2026-04-27T09:34:17.705Z</time></trkpt><trkpt lat="39.55851289411399" lon="8.88192026893642"><ele>119.5</ele><time>2026-04-27T09:34:18.705Z</time></trkpt><trkpt lat="39.558438753267225" lon="8.88159527987359"><ele>120.0</ele><time>2026-04-27T09:34:19.705Z</time></trkpt><trkpt lat="39.558364040694386" lon="8.881270229770138"><ele>120.0</ele><time>2026-04-27T09:34:20.705Z</time></trkpt><trkpt lat="39.55829117511575" lon="8.880944649439646"><ele>120.0</ele><time>2026-04-27T09:34:21.706Z</time></trkpt><trkpt lat="39.55821745935605" lon="8.880617137872711"><ele>119.0</ele><time>2026-04-27T09:34:22.706Z</time></trkpt><trkpt lat="39.55814842859243" lon="8.880286048164574"><ele>118.0</ele><time>2026-04-27T09:34:23.706Z</time></trkpt><trkpt lat="39.55807956235617" lon="8.879945384526373"><ele>117.5</ele><time>2026-04-27T09:34:24.706Z</time></trkpt><trkpt lat="39.55801082223194" lon="8.879610950510598"><ele>117.0</ele><time>2026-04-27T09:34:25.706Z</time></trkpt><trkpt lat="39.55793934627972" lon="8.87928119399031"><ele>118.0</ele><time>2026-04-27T09:34:26.706Z</time></trkpt><trkpt lat="39.55786290086834" lon="8.87894363357271"><ele>119.0</ele><time>2026-04-27T09:34:27.705Z</time></trkpt><trkpt lat="39.55778754656315" lon="8.8786056376305"><ele>118.5</ele><time>2026-04-27T09:34:28.705Z</time></trkpt><trkpt lat="39.55771275703087" lon="8.878262371743316"><ele>118.0</ele><time>2026-04-27T09:34:29.705Z</time></trkpt><trkpt lat="39.55763592755138" lon="8.877919506134267"><ele>117.5</ele><time>2026-04-27T09:34:30.705Z</time></trkpt><trkpt lat="39.55755692207675" lon="8.877575203071606"><ele>117.0</ele><time>2026-04-27T09:34:31.705Z</time></trkpt><trkpt lat="39.55748036359674" lon="8.87723100861627"><ele>117.0</ele><time>2026-04-27T09:34:32.705Z</time></trkpt><trkpt lat="39.55740263205981" lon="8.87688188103184"><ele>117.0</ele><time>2026-04-27T09:34:33.705Z</time></trkpt><trkpt lat="39.55732944285471" lon="8.876536953587118"><ele>116.0</ele><time>2026-04-27T09:34:34.706Z</time></trkpt><trkpt lat="39.55725723847106" lon="8.876194339302545"><ele>115.0</ele><time>2026-04-27T09:34:35.706Z</time></trkpt><trkpt lat="39.557181894366" lon="8.875852167341078"><ele>115.0</ele><time>2026-04-27T09:34:36.706Z</time></trkpt><trkpt lat="39.557108029782846" lon="8.875510323548834"><ele>115.0</ele><time>2026-04-27T09:34:37.706Z</time></trkpt><trkpt lat="39.557035888788626" lon="8.875168777341615"><ele>113.5</ele><time>2026-04-27T09:34:38.705Z</time></trkpt><trkpt lat="39.55696453648081" lon="8.874828230170351"><ele>112.0</ele><time>2026-04-27T09:34:39.705Z</time></trkpt><trkpt lat="39.55689148493559" lon="8.874487773492268"><ele>111.0</ele><time>2026-04-27T09:34:40.705Z</time></trkpt><trkpt lat="39.55681514040122" lon="8.874147333884988"><ele>110.0</ele><time>2026-04-27T09:34:41.705Z</time></trkpt><trkpt lat="39.55673983588419" lon="8.873808431770954"><ele>110.0</ele><time>2026-04-27T09:34:42.705Z</time></trkpt><trkpt lat="39.556665179937355" lon="8.87346911708756"><ele>110.0</ele><time>2026-04-27T09:34:43.705Z</time></trkpt><trkpt lat="39.55659279712273" lon="8.87313102420218"><ele>110.0</ele><time>2026-04-27T09:34:44.705Z</time></trkpt><trkpt lat="39.55652159570381" lon="8.872793042357934"><ele>110.0</ele><time>2026-04-27T09:34:45.705Z</time></trkpt><trkpt lat="39.55644939881243" lon="8.872457130317834"><ele>109.5</ele><time>2026-04-27T09:34:46.705Z</time></trkpt><trkpt lat="39.5563746053555" lon="8.872119481315703"><ele>109.0</ele><time>2026-04-27T09:34:47.705Z</time></trkpt><trkpt lat="39.556300934427206" lon="8.871779070852934"><ele>107.5</ele><time>2026-04-27T09:34:48.705Z</time></trkpt><trkpt lat="39.556227518712646" lon="8.871435131629818"><ele>106.0</ele><time>2026-04-27T09:34:49.705Z</time></trkpt><trkpt lat="39.55615047723028" lon="8.87109074861381"><ele>104.5</ele><time>2026-04-27T09:34:50.705Z</time></trkpt><trkpt lat="39.556077992342814" lon="8.870747527117"><ele>103.0</ele><time>2026-04-27T09:34:51.705Z</time></trkpt><trkpt lat="39.55599992831801" lon="8.870404865228684"><ele>103.0</ele><time>2026-04-27T09:34:52.705Z</time></trkpt><trkpt lat="39.555925088008664" lon="8.870055699829239"><ele>103.0</ele><time>2026-04-27T09:34:53.705Z</time></trkpt><trkpt lat="39.55585017588409" lon="8.869709660238444"><ele>103.0</ele><time>2026-04-27T09:34:54.705Z</time></trkpt><trkpt lat="39.5557748634244" lon="8.86936317477324"><ele>103.0</ele><time>2026-04-27T09:34:55.705Z</time></trkpt><trkpt lat="39.5557000689784" lon="8.869018769548635"><ele>102.5</ele><time>2026-04-27T09:34:56.705Z</time></trkpt><trkpt lat="39.555625609644935" lon="8.868674464719208"><ele>102.0</ele><time>2026-04-27T09:34:57.705Z</time></trkpt><trkpt lat="39.55554893698131" lon="8.868328419731188"><ele>101.5</ele><time>2026-04-27T09:34:58.705Z</time></trkpt><trkpt lat="39.55547396201488" lon="8.867984863890854"><ele>101.0</ele><time>2026-04-27T09:34:59.705Z</time></trkpt><trkpt lat="39.55540028608789" lon="8.867640309707344"><ele>100.5</ele><time>2026-04-27T09:35:00.704Z</time></trkpt><trkpt lat="39.55532465055917" lon="8.867292185680402"><ele>100.0</ele><time>2026-04-27T09:35:01.704Z</time></trkpt><trkpt lat="39.55524940615304" lon="8.866945209400908"><ele>100.0</ele><time>2026-04-27T09:35:02.704Z</time></trkpt><trkpt lat="39.555174396832875" lon="8.866596540648489"><ele>100.0</ele><time>2026-04-27T09:35:03.704Z</time></trkpt><trkpt lat="39.5551009160966" lon="8.866247900926947"><ele>100.0</ele><time>2026-04-27T09:35:04.704Z</time></trkpt><trkpt lat="39.555027081604536" lon="8.865898921112565"><ele>100.0</ele><time>2026-04-27T09:35:05.704Z</time></trkpt><trkpt lat="39.55495597227052" lon="8.86555001714113"><ele>100.0</ele><time>2026-04-27T09:35:06.704Z</time></trkpt><trkpt lat="39.55488420558106" lon="8.865200404027695"><ele>100.0</ele><time>2026-04-27T09:35:07.704Z</time></trkpt><trkpt lat="39.55480951862304" lon="8.864852718041467"><ele>100.0</ele><time>2026-04-27T09:35:08.704Z</time></trkpt><trkpt lat="39.55473177995642" lon="8.864500866341892"><ele>100.0</ele><time>2026-04-27T09:35:09.704Z</time></trkpt><trkpt lat="39.554659103509024" lon="8.864148308757553"><ele>100.0</ele><time>2026-04-27T09:35:10.704Z</time></trkpt><trkpt lat="39.55458053292728" lon="8.863795682873123"><ele>100.0</ele><time>2026-04-27T09:35:11.704Z</time></trkpt><trkpt lat="39.55450296335021" lon="8.863441051113872"><ele>99.0</ele><time>2026-04-27T09:35:12.704Z</time></trkpt><trkpt lat="39.55442708064436" lon="8.863090027032019"><ele>98.0</ele><time>2026-04-27T09:35:13.704Z</time></trkpt><trkpt lat="39.554349541360175" lon="8.862740845922094"><ele>98.0</ele><time>2026-04-27T09:35:14.704Z</time></trkpt><trkpt lat="39.55427276028968" lon="8.862390011091476"><ele>98.0</ele><time>2026-04-27T09:35:15.704Z</time></trkpt><trkpt lat="39.5541938270156" lon="8.862041276727956"><ele>99.0</ele><time>2026-04-27T09:35:16.704Z</time></trkpt><trkpt lat="39.55411555713862" lon="8.861692403821221"><ele>100.0</ele><time>2026-04-27T09:35:17.704Z</time></trkpt><trkpt lat="39.55403988135531" lon="8.861340179422816"><ele>100.0</ele><time>2026-04-27T09:35:18.704Z</time></trkpt><trkpt lat="39.5539692340546" lon="8.860984258707393"><ele>100.0</ele><time>2026-04-27T09:35:19.704Z</time></trkpt><trkpt lat="39.55389974658338" lon="8.86061693739336"><ele>100.0</ele><time>2026-04-27T09:35:20.704Z</time></trkpt><trkpt lat="39.553843624229195" lon="8.860247432897939"><ele>100.0</ele><time>2026-04-27T09:35:21.704Z</time></trkpt><trkpt lat="39.553797710506515" lon="8.859877340589426"><ele>100.0</ele><time>2026-04-27T09:35:22.703Z</time></trkpt><trkpt lat="39.55376065442239" lon="8.859504570354419"><ele>100.0</ele><time>2026-04-27T09:35:23.703Z</time></trkpt><trkpt lat="39.553748213028214" lon="8.859160415511377"><ele>99.0</ele><time>2026-04-27T09:35:24.703Z</time></trkpt><trkpt lat="39.553737322303725" lon="8.858819766131234"><ele>98.0</ele><time>2026-04-27T09:35:25.703Z</time></trkpt><trkpt lat="39.553717787731244" lon="8.858466951965273"><ele>96.5</ele><time>2026-04-27T09:35:26.703Z</time></trkpt><trkpt lat="39.55369112595453" lon="8.858108778231859"><ele>95.0</ele><time>2026-04-27T09:35:27.703Z</time></trkpt><trkpt lat="39.55366141194051" lon="8.857746660899739"><ele>94.5</ele><time>2026-04-27T09:35:28.703Z</time></trkpt><trkpt lat="39.55363039947051" lon="8.857380518197191"><ele>94.0</ele><time>2026-04-27T09:35:29.703Z</time></trkpt><trkpt lat="39.55359834021268" lon="8.857014361495471"><ele>93.5</ele><time>2026-04-27T09:35:30.703Z</time></trkpt><trkpt lat="39.55356855862258" lon="8.8566466770838"><ele>93.0</ele><time>2026-04-27T09:35:31.703Z</time></trkpt><trkpt lat="39.553539656051996" lon="8.856278994404505"><ele>91.5</ele><time>2026-04-27T09:35:32.703Z</time></trkpt><trkpt lat="39.553510873816066" lon="8.855914289127096"><ele>90.0</ele><time>2026-04-27T09:35:33.703Z</time></trkpt><trkpt lat="39.55348141005931" lon="8.855551608299866"><ele>90.0</ele><time>2026-04-27T09:35:34.703Z</time></trkpt><trkpt lat="39.55345009951431" lon="8.855188834179424"><ele>90.0</ele><time>2026-04-27T09:35:35.703Z</time></trkpt><trkpt lat="39.55341948847948" lon="8.854823328769257"><ele>89.5</ele><time>2026-04-27T09:35:36.703Z</time></trkpt><trkpt lat="39.553385890322225" lon="8.854465467431789"><ele>89.0</ele><time>2026-04-27T09:35:37.703Z</time></trkpt><trkpt lat="39.55335419377622" lon="8.854106262052882"><ele>89.0</ele><time>2026-04-27T09:35:38.703Z</time></trkpt><trkpt lat="39.55332260021634" lon="8.853747779656231"><ele>89.0</ele><time>2026-04-27T09:35:39.703Z</time></trkpt><trkpt lat="39.55329278811953" lon="8.853390077638338"><ele>89.5</ele><time>2026-04-27T09:35:40.703Z</time></trkpt><trkpt lat="39.55326358633891" lon="8.853030913744321"><ele>90.0</ele><time>2026-04-27T09:35:41.703Z</time></trkpt><trkpt lat="39.55323403568851" lon="8.852669518155002"><ele>90.0</ele><time>2026-04-27T09:35:42.703Z</time></trkpt><trkpt lat="39.55320584713662" lon="8.852311193985997"><ele>90.0</ele><time>2026-04-27T09:35:43.702Z</time></trkpt><trkpt lat="39.55317637978165" lon="8.85195177684084"><ele>89.5</ele><time>2026-04-27T09:35:44.702Z</time></trkpt><trkpt lat="39.553143991519526" lon="8.851587098608059"><ele>89.0</ele><time>2026-04-27T09:35:45.702Z</time></trkpt><trkpt lat="39.55311155839498" lon="8.851220063238198"><ele>89.5</ele><time>2026-04-27T09:35:46.702Z</time></trkpt><trkpt lat="39.55307944324398" lon="8.850850871556744"><ele>90.0</ele><time>2026-04-27T09:35:47.702Z</time></trkpt><trkpt lat="39.55304688561947" lon="8.850482527308776"><ele>90.5</ele><time>2026-04-27T09:35:48.702Z</time></trkpt><trkpt lat="39.55301400260398" lon="8.850111201497068"><ele>91.0</ele><time>2026-04-27T09:35:49.702Z</time></trkpt><trkpt lat="39.55298295380798" lon="8.849738478844337"><ele>91.0</ele><time>2026-04-27T09:35:50.702Z</time></trkpt><trkpt lat="39.55295389720642" lon="8.84936688337376"><ele>91.0</ele><time>2026-04-27T09:35:51.702Z</time></trkpt><trkpt lat="39.55292512206641" lon="8.848996114377924"><ele>90.5</ele><time>2026-04-27T09:35:52.702Z</time></trkpt><trkpt lat="39.55289442018992" lon="8.848624953914783"><ele>90.0</ele><time>2026-04-27T09:35:53.702Z</time></trkpt><trkpt lat="39.55286381895419" lon="8.848252305832983"><ele>88.0</ele><time>2026-04-27T09:35:54.702Z</time></trkpt><trkpt lat="39.55283347035428" lon="8.84787958108671"><ele>86.0</ele><time>2026-04-27T09:35:55.702Z</time></trkpt><trkpt lat="39.55280058279088" lon="8.847505993744123"><ele>86.0</ele><time>2026-04-27T09:35:56.702Z</time></trkpt><trkpt lat="39.5527667241564" lon="8.847135165234711"><ele>86.0</ele><time>2026-04-27T09:35:57.702Z</time></trkpt><trkpt lat="39.55273626818616" lon="8.846764121035157"><ele>86.0</ele><time>2026-04-27T09:35:58.702Z</time></trkpt><trkpt lat="39.552703964627575" lon="8.84639281418236"><ele>86.0</ele><time>2026-04-27T09:35:59.702Z</time></trkpt><trkpt lat="39.55267228322294" lon="8.84602650374782"><ele>85.5</ele><time>2026-04-27T09:36:00.702Z</time></trkpt><trkpt lat="39.55263846119455" lon="8.845661682661403"><ele>85.0</ele><time>2026-04-27T09:36:01.702Z</time></trkpt><trkpt lat="39.55260522515257" lon="8.845299859626186"><ele>85.0</ele><time>2026-04-27T09:36:02.702Z</time></trkpt><trkpt lat="39.55257241555954" lon="8.844940234469274"><ele>85.0</ele><time>2026-04-27T09:36:03.702Z</time></trkpt><trkpt lat="39.55253775083062" lon="8.844581857344727"><ele>85.5</ele><time>2026-04-27T09:36:04.702Z</time></trkpt><trkpt lat="39.55252357446331" lon="8.844218752874854"><ele>86.0</ele><time>2026-04-27T09:36:05.701Z</time></trkpt><trkpt lat="39.552491718295144" lon="8.843855892533117"><ele>86.0</ele><time>2026-04-27T09:36:06.701Z</time></trkpt><trkpt lat="39.552460159172384" lon="8.84349082924718"><ele>86.0</ele><time>2026-04-27T09:36:07.701Z</time></trkpt><trkpt lat="39.552413646319465" lon="8.84313111504383"><ele>85.0</ele><time>2026-04-27T09:36:08.701Z</time></trkpt><trkpt lat="39.55238648830411" lon="8.842770558692564"><ele>84.0</ele><time>2026-04-27T09:36:09.701Z</time></trkpt><trkpt lat="39.55235817504495" lon="8.842410705161146"><ele>84.5</ele><time>2026-04-27T09:36:10.701Z</time></trkpt><trkpt lat="39.5523292275865" lon="8.842049206242898"><ele>85.0</ele><time>2026-04-27T09:36:11.701Z</time></trkpt><trkpt lat="39.552299914467525" lon="8.841685767332388"><ele>85.0</ele><time>2026-04-27T09:36:12.701Z</time></trkpt><trkpt lat="39.55226945800989" lon="8.841322771241988"><ele>85.0</ele><time>2026-04-27T09:36:13.701Z</time></trkpt><trkpt lat="39.55223857284564" lon="8.840961360444574"><ele>85.0</ele><time>2026-04-27T09:36:14.701Z</time></trkpt><trkpt lat="39.55221067079773" lon="8.840600115877514"><ele>85.0</ele><time>2026-04-27T09:36:15.701Z</time></trkpt><trkpt lat="39.552186297123264" lon="8.840243043940921"><ele>84.0</ele><time>2026-04-27T09:36:16.701Z</time></trkpt><trkpt lat="39.55216501245445" lon="8.839897749204598"><ele>83.0</ele><time>2026-04-27T09:36:17.701Z</time></trkpt><trkpt lat="39.552136912718474" lon="8.839577529650258"><ele>83.0</ele><time>2026-04-27T09:36:18.701Z</time></trkpt><trkpt lat="39.55210583215392" lon="8.839264752200519"><ele>83.0</ele><time>2026-04-27T09:36:19.701Z</time></trkpt><trkpt lat="39.55207542591377" lon="8.838954460378742"><ele>83.0</ele><time>2026-04-27T09:36:20.701Z</time></trkpt><trkpt lat="39.55204647703354" lon="8.838654197805655"><ele>83.0</ele><time>2026-04-27T09:36:21.701Z</time></trkpt><trkpt lat="39.55200967110741" lon="8.838343734286466"><ele>82.5</ele><time>2026-04-27T09:36:22.701Z</time></trkpt><trkpt lat="39.551979034718315" lon="8.838032181518871"><ele>82.0</ele><time>2026-04-27T09:36:23.701Z</time></trkpt><trkpt lat="39.55195192420103" lon="8.837722260756394"><ele>81.5</ele><time>2026-04-27T09:36:24.701Z</time></trkpt><trkpt lat="39.55192699338332" lon="8.837421603868929"><ele>81.0</ele><time>2026-04-27T09:36:25.701Z</time></trkpt><trkpt lat="39.55190145852174" lon="8.837124718392632"><ele>81.0</ele><time>2026-04-27T09:36:26.7Z</time></trkpt><trkpt lat="39.55189248187966" lon="8.836820243142219"><ele>81.0</ele><time>2026-04-27T09:36:27.701Z</time></trkpt><trkpt lat="39.55186656642436" lon="8.836510305849513"><ele>81.0</ele><time>2026-04-27T09:36:28.701Z</time></trkpt><trkpt lat="39.551839934265814" lon="8.836193552405492"><ele>81.0</ele><time>2026-04-27T09:36:29.701Z</time></trkpt><trkpt lat="39.551811960711184" lon="8.835860844769018"><ele>80.5</ele><time>2026-04-27T09:36:30.702Z</time></trkpt><trkpt lat="39.55178105260279" lon="8.835504799334185"><ele>80.0</ele><time>2026-04-27T09:36:31.701Z</time></trkpt><trkpt lat="39.55174869137033" lon="8.835134077485781"><ele>79.5</ele><time>2026-04-27T09:36:32.701Z</time></trkpt><trkpt lat="39.55171650486949" lon="8.834757618858863"><ele>79.0</ele><time>2026-04-27T09:36:33.701Z</time></trkpt><trkpt lat="39.55168431663312" lon="8.834380562904546"><ele>78.5</ele><time>2026-04-27T09:36:34.701Z</time></trkpt><trkpt lat="39.55163495902507" lon="8.834013457400381"><ele>78.0</ele><time>2026-04-27T09:36:35.701Z</time></trkpt><trkpt lat="39.55160994092986" lon="8.833642082133165"><ele>77.0</ele><time>2026-04-27T09:36:36.7Z</time></trkpt><trkpt lat="39.551584612878564" lon="8.833280389075405"><ele>76.0</ele><time>2026-04-27T09:36:37.701Z</time></trkpt><trkpt lat="39.55155718094611" lon="8.83292597435993"><ele>76.0</ele><time>2026-04-27T09:36:38.701Z</time></trkpt><trkpt lat="39.55152736865673" lon="8.832574349162172"><ele>76.0</ele><time>2026-04-27T09:36:39.7Z</time></trkpt><trkpt lat="39.55149712983929" lon="8.832229190942039"><ele>76.0</ele><time>2026-04-27T09:36:40.701Z</time></trkpt><trkpt lat="39.55147052840452" lon="8.83188870753587"><ele>76.0</ele><time>2026-04-27T09:36:41.701Z</time></trkpt><trkpt lat="39.55143858787977" lon="8.831548611324923"><ele>76.0</ele><time>2026-04-27T09:36:42.701Z</time></trkpt><trkpt lat="39.55140686583633" lon="8.831205978094381"><ele>76.0</ele><time>2026-04-27T09:36:43.701Z</time></trkpt><trkpt lat="39.551378522593865" lon="8.83085849067149"><ele>74.5</ele><time>2026-04-27T09:36:44.701Z</time></trkpt><trkpt lat="39.55134897930421" lon="8.830519013716406"><ele>73.0</ele><time>2026-04-27T09:36:45.701Z</time></trkpt><trkpt lat="39.551325876415284" lon="8.830201479099452"><ele>73.0</ele><time>2026-04-27T09:36:46.701Z</time></trkpt><trkpt lat="39.551296137752416" lon="8.829890410601099"><ele>73.0</ele><time>2026-04-27T09:36:47.701Z</time></trkpt><trkpt lat="39.551264545003264" lon="8.829571565342821"><ele>73.5</ele><time>2026-04-27T09:36:48.7Z</time></trkpt><trkpt lat="39.55123873468131" lon="8.82926202729013"><ele>74.0</ele><time>2026-04-27T09:36:49.7Z</time></trkpt><trkpt lat="39.55120679095039" lon="8.828941975345781"><ele>74.0</ele><time>2026-04-27T09:36:50.7Z</time></trkpt><trkpt lat="39.55116413351118" lon="8.828601609647535"><ele>74.0</ele><time>2026-04-27T09:36:51.7Z</time></trkpt><trkpt lat="39.551126205397736" lon="8.828240470014501"><ele>73.5</ele><time>2026-04-27T09:36:52.7Z</time></trkpt><trkpt lat="39.551095755183304" lon="8.827868497049687"><ele>73.0</ele><time>2026-04-27T09:36:53.7Z</time></trkpt><trkpt lat="39.55107438134872" lon="8.827489341782833"><ele>72.0</ele><time>2026-04-27T09:36:54.7Z</time></trkpt><trkpt lat="39.55105918304274" lon="8.827111932193962"><ele>71.0</ele><time>2026-04-27T09:36:55.7Z</time></trkpt><trkpt lat="39.551037955164844" lon="8.826734174846115"><ele>70.5</ele><time>2026-04-27T09:36:56.7Z</time></trkpt><trkpt lat="39.55101023878568" lon="8.826363907571734"><ele>70.0</ele><time>2026-04-27T09:36:57.7Z</time></trkpt><trkpt lat="39.55097427473717" lon="8.825997003320992"><ele>70.0</ele><time>2026-04-27T09:36:58.7Z</time></trkpt><trkpt lat="39.55093920591422" lon="8.82562694608086"><ele>70.0</ele><time>2026-04-27T09:36:59.7Z</time></trkpt><trkpt lat="39.55090654807873" lon="8.825251281272726"><ele>70.5</ele><time>2026-04-27T09:37:00.7Z</time></trkpt><trkpt lat="39.55087496170404" lon="8.824880787261746"><ele>71.0</ele><time>2026-04-27T09:37:01.7Z</time></trkpt><trkpt lat="39.55084341855385" lon="8.824505468199858"><ele>70.0</ele><time>2026-04-27T09:37:02.7Z</time></trkpt><trkpt lat="39.55081168212088" lon="8.824131590010866"><ele>69.0</ele><time>2026-04-27T09:37:03.7Z</time></trkpt><trkpt lat="39.55078241156324" lon="8.823755471432575"><ele>69.0</ele><time>2026-04-27T09:37:04.7Z</time></trkpt><trkpt lat="39.55075360421263" lon="8.823382272369557"><ele>69.0</ele><time>2026-04-27T09:37:05.7Z</time></trkpt><trkpt lat="39.55072297966541" lon="8.823010831552642"><ele>69.0</ele><time>2026-04-27T09:37:06.7Z</time></trkpt><trkpt lat="39.55068945343127" lon="8.822642063809788"><ele>69.0</ele><time>2026-04-27T09:37:07.7Z</time></trkpt><trkpt lat="39.550656927505806" lon="8.82226796806671"><ele>69.0</ele><time>2026-04-27T09:37:08.7Z</time></trkpt><trkpt lat="39.55062443097006" lon="8.821898544753791"><ele>69.0</ele><time>2026-04-27T09:37:09.7Z</time></trkpt><trkpt lat="39.5505919879894" lon="8.821533893746794"><ele>69.0</ele><time>2026-04-27T09:37:10.699Z</time></trkpt><trkpt lat="39.55056088331224" lon="8.821169700356291"><ele>69.0</ele><time>2026-04-27T09:37:11.699Z</time></trkpt><trkpt lat="39.55053070877179" lon="8.820806572984123"><ele>69.0</ele><time>2026-04-27T09:37:12.699Z</time></trkpt><trkpt lat="39.550499330180976" lon="8.820440942541511"><ele>69.0</ele><time>2026-04-27T09:37:13.699Z</time></trkpt><trkpt lat="39.55046880878241" lon="8.820071988333979"><ele>68.5</ele><time>2026-04-27T09:37:14.699Z</time></trkpt><trkpt lat="39.55043729531014" lon="8.819706372584733"><ele>68.0</ele><time>2026-04-27T09:37:15.699Z</time></trkpt><trkpt lat="39.550404128804914" lon="8.819338235531728"><ele>67.0</ele><time>2026-04-27T09:37:16.699Z</time></trkpt><trkpt lat="39.55037100408771" lon="8.818980088726793"><ele>66.0</ele><time>2026-04-27T09:37:17.699Z</time></trkpt><trkpt lat="39.550334570718384" lon="8.818617388429521"><ele>66.5</ele><time>2026-04-27T09:37:18.699Z</time></trkpt><trkpt lat="39.5503042723305" lon="8.818247429979914"><ele>67.0</ele><time>2026-04-27T09:37:19.699Z</time></trkpt><trkpt lat="39.55026782140903" lon="8.81788812201969"><ele>67.0</ele><time>2026-04-27T09:37:20.699Z</time></trkpt><trkpt lat="39.550233476954745" lon="8.817523623365096"><ele>67.0</ele><time>2026-04-27T09:37:21.699Z</time></trkpt><trkpt lat="39.550201795905494" lon="8.817162598598163"><ele>66.5</ele><time>2026-04-27T09:37:22.699Z</time></trkpt><trkpt lat="39.550170000819534" lon="8.816801074683791"><ele>66.0</ele><time>2026-04-27T09:37:23.699Z</time></trkpt><trkpt lat="39.55014533672215" lon="8.81644327423687"><ele>66.0</ele><time>2026-04-27T09:37:24.699Z</time></trkpt><trkpt lat="39.55011746549824" lon="8.816086519459073"><ele>66.0</ele><time>2026-04-27T09:37:25.699Z</time></trkpt><trkpt lat="39.550091614932114" lon="8.815735006712613"><ele>66.0</ele><time>2026-04-27T09:37:26.699Z</time></trkpt><trkpt lat="39.55006368663262" lon="8.815390072951953"><ele>66.0</ele><time>2026-04-27T09:37:27.699Z</time></trkpt><trkpt lat="39.55003507435363" lon="8.815059742002042"><ele>66.5</ele><time>2026-04-27T09:37:28.699Z</time></trkpt><trkpt lat="39.55001053089257" lon="8.814742458346414"><ele>67.0</ele><time>2026-04-27T09:37:29.699Z</time></trkpt><trkpt lat="39.549987001899865" lon="8.814442932335488"><ele>66.33333333333333</ele><time>2026-04-27T09:37:30.699Z</time></trkpt><trkpt lat="39.549965420262424" lon="8.814149835263608"><ele>65.66666666666667</ele><time>2026-04-27T09:37:31.698Z</time></trkpt><trkpt lat="39.54994305846613" lon="8.813872338300564"><ele>65.0</ele><time>2026-04-27T09:37:32.698Z</time></trkpt><trkpt lat="39.54991842986443" lon="8.813607251663742"><ele>65.0</ele><time>2026-04-27T09:37:33.698Z</time></trkpt><trkpt lat="39.5498893976441" lon="8.813351886379872"><ele>65.0</ele><time>2026-04-27T09:37:34.698Z</time></trkpt><trkpt lat="39.5498615936279" lon="8.813101685388448"><ele>65.0</ele><time>2026-04-27T09:37:35.698Z</time></trkpt><trkpt lat="39.54983893317226" lon="8.81285546375331"><ele>65.33333333333334</ele><time>2026-04-27T09:37:36.698Z</time></trkpt><trkpt lat="39.549817234676986" lon="8.812609472236701"><ele>65.66666666666667</ele><time>2026-04-27T09:37:37.698Z</time></trkpt><trkpt lat="39.54979383028104" lon="8.812358453321798"><ele>66.0</ele><time>2026-04-27T09:37:38.698Z</time></trkpt><trkpt lat="39.54976632061058" lon="8.812105049572333"><ele>66.0</ele><time>2026-04-27T09:37:39.698Z</time></trkpt><trkpt lat="39.54974371381347" lon="8.811856650956777"><ele>66.0</ele><time>2026-04-27T09:37:40.698Z</time></trkpt><trkpt lat="39.54972267754013" lon="8.811605574633312"><ele>66.0</ele><time>2026-04-27T09:37:41.698Z</time></trkpt><trkpt lat="39.54969902699471" lon="8.811352928053415"><ele>65.33333333333333</ele><time>2026-04-27T09:37:42.698Z</time></trkpt><trkpt lat="39.54967420159429" lon="8.811098782610534"><ele>64.66666666666666</ele><time>2026-04-27T09:37:43.698Z</time></trkpt><trkpt lat="39.54964989408347" lon="8.810847126498276"><ele>64.0</ele><time>2026-04-27T09:37:44.815Z</time></trkpt><trkpt lat="39.549627621020015" lon="8.810601252030175"><ele>64.0</ele><time>2026-04-27T09:37:45.815Z</time></trkpt><trkpt lat="39.54960602383789" lon="8.810350354185724"><ele>64.0</ele><time>2026-04-27T09:37:46.814Z</time></trkpt><trkpt lat="39.54958472475794" lon="8.810106493028616"><ele>64.0</ele><time>2026-04-27T09:37:47.814Z</time></trkpt><trkpt lat="39.549565744734615" lon="8.80987420776309"><ele>64.0</ele><time>2026-04-27T09:37:48.814Z</time></trkpt><trkpt lat="39.54954548287845" lon="8.80964231931288"><ele>64.0</ele><time>2026-04-27T09:37:49.814Z</time></trkpt><trkpt lat="39.54952428545368" lon="8.80940788624952"><ele>64.0</ele><time>2026-04-27T09:37:50.814Z</time></trkpt><trkpt lat="39.54950267036262" lon="8.809169929627252"><ele>63.666666666666664</ele><time>2026-04-27T09:37:51.814Z</time></trkpt><trkpt lat="39.54948296950633" lon="8.80892977008183"><ele>63.33333333333333</ele><time>2026-04-27T09:37:52.814Z</time></trkpt><trkpt lat="39.549462980528176" lon="8.808683504185444"><ele>63.0</ele><time>2026-04-27T09:37:53.814Z</time></trkpt><trkpt lat="39.54943990286329" lon="8.808431829984277"><ele>63.0</ele><time>2026-04-27T09:37:54.814Z</time></trkpt><trkpt lat="39.549418940918265" lon="8.808177663706978"><ele>63.0</ele><time>2026-04-27T09:37:55.814Z</time></trkpt><trkpt lat="39.549396667168025" lon="8.807930486273111"><ele>63.0</ele><time>2026-04-27T09:37:56.814Z</time></trkpt><trkpt lat="39.54937664595075" lon="8.807693562072664"><ele>62.66666666666667</ele><time>2026-04-27T09:37:57.814Z</time></trkpt><trkpt lat="39.549355932739694" lon="8.807459251565557"><ele>62.333333333333336</ele><time>2026-04-27T09:37:58.814Z</time></trkpt><trkpt lat="39.549335623337875" lon="8.807228659217794"><ele>62.0</ele><time>2026-04-27T09:37:59.814Z</time></trkpt><trkpt lat="39.549315628252884" lon="8.807007668107401"><ele>61.75</ele><time>2026-04-27T09:38:00.814Z</time></trkpt><trkpt lat="39.54929614298446" lon="8.80679223277271"><ele>61.5</ele><time>2026-04-27T09:38:01.814Z</time></trkpt><trkpt lat="39.549283418562766" lon="8.80660736463158"><ele>61.25</ele><time>2026-04-27T09:38:02.814Z</time></trkpt><trkpt lat="39.54926452155532" lon="8.806431997300667"><ele>61.0</ele><time>2026-04-27T09:38:03.814Z</time></trkpt><trkpt lat="39.549254040687956" lon="8.806259613094385"><ele>61.0</ele><time>2026-04-27T09:38:04.814Z</time></trkpt><trkpt lat="39.54923832291787" lon="8.806090166339581"><ele>61.0</ele><time>2026-04-27T09:38:05.814Z</time></trkpt><trkpt lat="39.549214487723034" lon="8.805924000279104"><ele>61.0</ele><time>2026-04-27T09:38:06.814Z</time></trkpt><trkpt lat="39.54921022600618" lon="8.805762423974139"><ele>61.0</ele><time>2026-04-27T09:38:07.814Z</time></trkpt><trkpt lat="39.549215396489004" lon="8.805608005566608"><ele>60.99999999999999</ele><time>2026-04-27T09:38:08.814Z</time></trkpt><trkpt lat="39.54922308086643" lon="8.805512047017643"><ele>61.0</ele><time>2026-04-27T09:38:09.814Z</time></trkpt><trkpt lat="39.54923225963275" lon="8.805362921964912"><ele>61.0</ele><time>2026-04-27T09:38:11.814Z</time></trkpt><trkpt lat="39.54926416937148" lon="8.805266498770257"><ele>61.0</ele><time>2026-04-27T09:38:12.814Z</time></trkpt><trkpt lat="39.549293252702924" lon="8.805155687021363"><ele>60.99999999999999</ele><time>2026-04-27T09:38:13.814Z</time></trkpt><trkpt lat="39.5492952147987" lon="8.805048147944222"><ele>61.0</ele><time>2026-04-27T09:38:14.814Z</time></trkpt><trkpt lat="39.54926670009083" lon="8.804937994917594"><ele>60.99999999999999</ele><time>2026-04-27T09:38:15.814Z</time></trkpt><trkpt lat="39.54922499562261" lon="8.80483327614763"><ele>61.0</ele><time>2026-04-27T09:38:16.814Z</time></trkpt><trkpt lat="39.54915941434041" lon="8.804764854877478"><ele>61.0</ele><time>2026-04-27T09:38:17.814Z</time></trkpt><trkpt lat="39.54908121683319" lon="8.80472897512577"><ele>61.0</ele><time>2026-04-27T09:38:18.814Z</time></trkpt><trkpt lat="39.54899924938856" lon="8.804712055781504"><ele>60.99999999999999</ele><time>2026-04-27T09:38:19.814Z</time></trkpt><trkpt lat="39.54891355222894" lon="8.804712762795535"><ele>61.0</ele><time>2026-04-27T09:38:20.814Z</time></trkpt><trkpt lat="39.54882690976771" lon="8.804708136107756"><ele>61.0</ele><time>2026-04-27T09:38:21.814Z</time></trkpt><trkpt lat="39.54875746482368" lon="8.804743650740406"><ele>60.99999999999999</ele><time>2026-04-27T09:38:22.814Z</time></trkpt><trkpt lat="39.548659500435136" lon="8.804607120776959"><ele>60.99999999999999</ele><time>2026-04-27T09:38:23.814Z</time></trkpt><trkpt lat="39.54859887203408" lon="8.804507300582726"><ele>61.0</ele><time>2026-04-27T09:38:24.813Z</time></trkpt><trkpt lat="39.548535953472665" lon="8.804364137968145"><ele>61.0</ele><time>2026-04-27T09:38:25.813Z</time></trkpt><trkpt lat="39.548476203405016" lon="8.804208220874873"><ele>60.75</ele><time>2026-04-27T09:38:26.813Z</time></trkpt><trkpt lat="39.548411841689784" lon="8.804047956770784"><ele>60.5</ele><time>2026-04-27T09:38:27.813Z</time></trkpt><trkpt lat="39.54833540870388" lon="8.803881413045218"><ele>60.25</ele><time>2026-04-27T09:38:28.813Z</time></trkpt><trkpt lat="39.54825159557155" lon="8.803719038997206"><ele>60.0</ele><time>2026-04-27T09:38:29.813Z</time></trkpt><trkpt lat="39.54815681286158" lon="8.80355902452433"><ele>59.66666666666667</ele><time>2026-04-27T09:38:30.813Z</time></trkpt><trkpt lat="39.548038868658594" lon="8.803374716449579"><ele>59.333333333333336</ele><time>2026-04-27T09:38:31.813Z</time></trkpt><trkpt lat="39.547907322358185" lon="8.803154649142927"><ele>59.0</ele><time>2026-04-27T09:38:32.813Z</time></trkpt><trkpt lat="39.54776878053989" lon="8.802917988957443"><ele>59.0</ele><time>2026-04-27T09:38:33.815Z</time></trkpt><trkpt lat="39.547614266853635" lon="8.802676268014025"><ele>59.0</ele><time>2026-04-27T09:38:34.814Z</time></trkpt><trkpt lat="39.54744581251824" lon="8.802436028409574"><ele>59.0</ele><time>2026-04-27T09:38:35.814Z</time></trkpt><trkpt lat="39.547266482229865" lon="8.802193869645384"><ele>59.0</ele><time>2026-04-27T09:38:36.815Z</time></trkpt><trkpt lat="39.54708447057242" lon="8.801949742273933"><ele>59.5</ele><time>2026-04-27T09:38:37.814Z</time></trkpt><trkpt lat="39.54690082136471" lon="8.801692912997643"><ele>60.0</ele><time>2026-04-27T09:38:38.814Z</time></trkpt><trkpt lat="39.54670920070509" lon="8.801432339015008"><ele>60.0</ele><time>2026-04-27T09:38:39.815Z</time></trkpt><trkpt lat="39.54652255625908" lon="8.801178444865636"><ele>60.0</ele><time>2026-04-27T09:38:40.814Z</time></trkpt><trkpt lat="39.546333434238875" lon="8.800919191158888"><ele>59.0</ele><time>2026-04-27T09:38:41.814Z</time></trkpt><trkpt lat="39.54614799926529" lon="8.800672511628505"><ele>58.0</ele><time>2026-04-27T09:38:42.814Z</time></trkpt><trkpt lat="39.5459633978146" lon="8.800420850077"><ele>58.0</ele><time>2026-04-27T09:38:43.814Z</time></trkpt><trkpt lat="39.54577756902973" lon="8.800166501735763"><ele>58.0</ele><time>2026-04-27T09:38:44.814Z</time></trkpt><trkpt lat="39.545594046726805" lon="8.799913087766555"><ele>58.0</ele><time>2026-04-27T09:38:45.814Z</time></trkpt><trkpt lat="39.54540752655113" lon="8.799662922081941"><ele>58.0</ele><time>2026-04-27T09:38:46.813Z</time></trkpt><trkpt lat="39.545224555887316" lon="8.799406112105551"><ele>58.5</ele><time>2026-04-27T09:38:47.813Z</time></trkpt><trkpt lat="39.54504009871461" lon="8.799148447365802"><ele>59.0</ele><time>2026-04-27T09:38:48.813Z</time></trkpt><trkpt lat="39.54485478355893" lon="8.798893648805914"><ele>59.0</ele><time>2026-04-27T09:38:49.813Z</time></trkpt><trkpt lat="39.54466834941724" lon="8.798638427841311"><ele>59.0</ele><time>2026-04-27T09:38:50.813Z</time></trkpt><trkpt lat="39.54448286388451" lon="8.798387535230518"><ele>59.0</ele><time>2026-04-27T09:38:51.813Z</time></trkpt><trkpt lat="39.544295793080394" lon="8.798134856605184"><ele>59.0</ele><time>2026-04-27T09:38:52.813Z</time></trkpt><trkpt lat="39.54411073604629" lon="8.797879175632312"><ele>59.0</ele><time>2026-04-27T09:38:53.813Z</time></trkpt><trkpt lat="39.54392670010179" lon="8.797620351467787"><ele>59.0</ele><time>2026-04-27T09:38:54.813Z</time></trkpt><trkpt lat="39.54374182154347" lon="8.797367951042796"><ele>59.0</ele><time>2026-04-27T09:38:55.813Z</time></trkpt><trkpt lat="39.54355554350735" lon="8.797114663303955"><ele>59.0</ele><time>2026-04-27T09:38:56.813Z</time></trkpt><trkpt lat="39.54336928795299" lon="8.796858967345912"><ele>59.0</ele><time>2026-04-27T09:38:57.813Z</time></trkpt><trkpt lat="39.54318356625412" lon="8.79660252484301"><ele>59.0</ele><time>2026-04-27T09:38:58.813Z</time></trkpt><trkpt lat="39.54300143969643" lon="8.796352345623907"><ele>59.5</ele><time>2026-04-27T09:38:59.813Z</time></trkpt><trkpt lat="39.54281762105291" lon="8.796094271684002"><ele>60.0</ele><time>2026-04-27T09:39:00.813Z</time></trkpt><trkpt lat="39.542635737930745" lon="8.795838667690742"><ele>58.5</ele><time>2026-04-27T09:39:01.813Z</time></trkpt><trkpt lat="39.5424514298858" lon="8.795588706319304"><ele>57.0</ele><time>2026-04-27T09:39:02.813Z</time></trkpt><trkpt lat="39.542266359241914" lon="8.795337357896026"><ele>56.0</ele><time>2026-04-27T09:39:03.813Z</time></trkpt><trkpt lat="39.54208057939911" lon="8.795083405087812"><ele>55.0</ele><time>2026-04-27T09:39:04.813Z</time></trkpt><trkpt lat="39.541895563958875" lon="8.794831578174488"><ele>55.0</ele><time>2026-04-27T09:39:05.813Z</time></trkpt><trkpt lat="39.54170758707287" lon="8.794575901122718"><ele>55.0</ele><time>2026-04-27T09:39:06.813Z</time></trkpt><trkpt lat="39.54152708888991" lon="8.794324094404976"><ele>55.0</ele><time>2026-04-27T09:39:07.813Z</time></trkpt><trkpt lat="39.54133531140143" lon="8.794065856868276"><ele>55.0</ele><time>2026-04-27T09:39:08.813Z</time></trkpt><trkpt lat="39.54114506879054" lon="8.793808046091662"><ele>55.5</ele><time>2026-04-27T09:39:09.813Z</time></trkpt><trkpt lat="39.540955577213886" lon="8.793550964749054"><ele>56.0</ele><time>2026-04-27T09:39:10.813Z</time></trkpt><trkpt lat="39.5407696807039" lon="8.793293958151159"><ele>54.5</ele><time>2026-04-27T09:39:11.813Z</time></trkpt><trkpt lat="39.54058459422072" lon="8.793038618467035"><ele>53.0</ele><time>2026-04-27T09:39:12.813Z</time></trkpt><trkpt lat="39.54040134087646" lon="8.792785722051043"><ele>53.5</ele><time>2026-04-27T09:39:13.813Z</time></trkpt><trkpt lat="39.54021652518577" lon="8.792526845494967"><ele>54.0</ele><time>2026-04-27T09:39:14.813Z</time></trkpt><trkpt lat="39.540037165709165" lon="8.792259760739375"><ele>54.0</ele><time>2026-04-27T09:39:15.813Z</time></trkpt><trkpt lat="39.53987023834372" lon="8.791984031859757"><ele>54.0</ele><time>2026-04-27T09:39:16.813Z</time></trkpt><trkpt lat="39.53971575289471" lon="8.79170120372723"><ele>54.0</ele><time>2026-04-27T09:39:17.813Z</time></trkpt><trkpt lat="39.539572674205914" lon="8.791410397908903"><ele>54.0</ele><time>2026-04-27T09:39:18.813Z</time></trkpt><trkpt lat="39.539435874698654" lon="8.791114834391184"><ele>52.5</ele><time>2026-04-27T09:39:19.813Z</time></trkpt><trkpt lat="39.53930653296336" lon="8.790822587994754"><ele>51.0</ele><time>2026-04-27T09:39:20.813Z</time></trkpt><trkpt lat="39.53918558036463" lon="8.790507933298072"><ele>51.0</ele><time>2026-04-27T09:39:21.813Z</time></trkpt><trkpt lat="39.539085799210575" lon="8.790195765543096"><ele>51.0</ele><time>2026-04-27T09:39:22.812Z</time></trkpt><trkpt lat="39.53899820473255" lon="8.789873975950567"><ele>50.0</ele><time>2026-04-27T09:39:23.812Z</time></trkpt><trkpt lat="39.53889691165655" lon="8.789552407738746"><ele>49.0</ele><time>2026-04-27T09:39:24.812Z</time></trkpt><trkpt lat="39.538826998162314" lon="8.789217401319153"><ele>48.5</ele><time>2026-04-27T09:39:25.812Z</time></trkpt><trkpt lat="39.53875974552608" lon="8.78887729149445"><ele>48.0</ele><time>2026-04-27T09:39:26.812Z</time></trkpt><trkpt lat="39.53870530661491" lon="8.788534020392902"><ele>48.5</ele><time>2026-04-27T09:39:27.812Z</time></trkpt><trkpt lat="39.5386582073505" lon="8.788189455552654"><ele>49.0</ele><time>2026-04-27T09:39:28.812Z</time></trkpt><trkpt lat="39.53862045049054" lon="8.78784023639757"><ele>50.0</ele><time>2026-04-27T09:39:29.812Z</time></trkpt><trkpt lat="39.53859202512289" lon="8.787488093108925"><ele>51.0</ele><time>2026-04-27T09:39:30.812Z</time></trkpt><trkpt lat="39.53856102201628" lon="8.787140672923167"><ele>51.5</ele><time>2026-04-27T09:39:31.812Z</time></trkpt><trkpt lat="39.5385243510707" lon="8.786791661292208"><ele>52.0</ele><time>2026-04-27T09:39:32.812Z</time></trkpt><trkpt lat="39.5384881244337" lon="8.786447597932598"><ele>52.0</ele><time>2026-04-27T09:39:33.812Z</time></trkpt><trkpt lat="39.5384482357778" lon="8.786099105860936"><ele>52.0</ele><time>2026-04-27T09:39:34.812Z</time></trkpt><trkpt lat="39.538415373925346" lon="8.785759226185501"><ele>52.0</ele><time>2026-04-27T09:39:35.812Z</time></trkpt><trkpt lat="39.538385042438904" lon="8.785417360894424"><ele>52.0</ele><time>2026-04-27T09:39:36.812Z</time></trkpt><trkpt lat="39.53836519729322" lon="8.78508232510489"><ele>52.0</ele><time>2026-04-27T09:39:37.812Z</time></trkpt><trkpt lat="39.53834890405752" lon="8.78476654457819"><ele>52.0</ele><time>2026-04-27T09:39:38.812Z</time></trkpt><trkpt lat="39.538350835046224" lon="8.784465028528913"><ele>51.33333333333333</ele><time>2026-04-27T09:39:39.812Z</time></trkpt><trkpt lat="39.53835894741895" lon="8.784170770840278"><ele>50.66666666666667</ele><time>2026-04-27T09:39:40.812Z</time></trkpt><trkpt lat="39.53837503794809" lon="8.783899504996498"><ele>50.0</ele><time>2026-04-27T09:39:41.812Z</time></trkpt><trkpt lat="39.538393980494135" lon="8.783654196760825"><ele>50.0</ele><time>2026-04-27T09:39:42.812Z</time></trkpt><trkpt lat="39.5384124534606" lon="8.783448135270984"><ele>50.0</ele><time>2026-04-27T09:39:43.812Z</time></trkpt><trkpt lat="39.53843407149349" lon="8.783262712834174"><ele>50.0</ele><time>2026-04-27T09:39:44.812Z</time></trkpt><trkpt lat="39.538464317141596" lon="8.78309548253316"><ele>50.0</ele><time>2026-04-27T09:39:45.812Z</time></trkpt><trkpt lat="39.538501749133935" lon="8.782951813115702"><ele>50.0</ele><time>2026-04-27T09:39:46.812Z</time></trkpt><trkpt lat="39.53856239862218" lon="8.782832464366008"><ele>50.0</ele><time>2026-04-27T09:39:47.812Z</time></trkpt><trkpt lat="39.538649440481414" lon="8.782755354510208"><ele>50.0</ele><time>2026-04-27T09:39:48.812Z</time></trkpt><trkpt lat="39.53875139019467" lon="8.782696077912913"><ele>50.0</ele><time>2026-04-27T09:39:49.812Z</time></trkpt><trkpt lat="39.538821806091235" lon="8.782589813375004"><ele>50.0</ele><time>2026-04-27T09:39:50.812Z</time></trkpt><trkpt lat="39.53884174123099" lon="8.78246032320043"><ele>50.0</ele><time>2026-04-27T09:39:51.812Z</time></trkpt><trkpt lat="39.5388037031077" lon="8.78232005795251"><ele>50.0</ele><time>2026-04-27T09:39:52.812Z</time></trkpt><trkpt lat="39.53874176107219" lon="8.78218372485463"><ele>50.0</ele><time>2026-04-27T09:39:53.812Z</time></trkpt><trkpt lat="39.538700912144655" lon="8.782038809363074"><ele>50.0</ele><time>2026-04-27T09:39:54.812Z</time></trkpt><trkpt lat="39.53871028790891" lon="8.78186717573653"><ele>50.333333333333336</ele><time>2026-04-27T09:39:55.812Z</time></trkpt><trkpt lat="39.538768929669345" lon="8.781691049805259"><ele>50.66666666666667</ele><time>2026-04-27T09:39:56.812Z</time></trkpt><trkpt lat="39.538836113023564" lon="8.781499422542332"><ele>51.0</ele><time>2026-04-27T09:39:57.812Z</time></trkpt><trkpt lat="39.53889407407876" lon="8.781296665409151"><ele>51.0</ele><time>2026-04-27T09:39:58.812Z</time></trkpt><trkpt lat="39.53896350739522" lon="8.781101558775608"><ele>51.0</ele><time>2026-04-27T09:39:59.811Z</time></trkpt><trkpt lat="39.53904218053941" lon="8.780885474340524"><ele>51.0</ele><time>2026-04-27T09:40:00.811Z</time></trkpt><trkpt lat="39.53912473691558" lon="8.780660540569343"><ele>51.0</ele><time>2026-04-27T09:40:01.811Z</time></trkpt><trkpt lat="39.5392075370933" lon="8.780429448645334"><ele>51.0</ele><time>2026-04-27T09:40:02.811Z</time></trkpt><trkpt lat="39.539295710150576" lon="8.780182825840203"><ele>51.0</ele><time>2026-04-27T09:40:03.811Z</time></trkpt><trkpt lat="39.53938409424331" lon="8.779929175361962"><ele>51.5</ele><time>2026-04-27T09:40:04.811Z</time></trkpt><trkpt lat="39.5394803082963" lon="8.779658726567455"><ele>52.0</ele><time>2026-04-27T09:40:05.811Z</time></trkpt><trkpt lat="39.53957979709127" lon="8.779387368867223"><ele>51.5</ele><time>2026-04-27T09:40:06.811Z</time></trkpt><trkpt lat="39.53968029866887" lon="8.77910930726041"><ele>51.0</ele><time>2026-04-27T09:40:07.811Z</time></trkpt><trkpt lat="39.53978292451297" lon="8.778822662244501"><ele>51.0</ele><time>2026-04-27T09:40:08.811Z</time></trkpt><trkpt lat="39.539891024253656" lon="8.778533679397187"><ele>51.0</ele><time>2026-04-27T09:40:09.811Z</time></trkpt><trkpt lat="39.53999667321707" lon="8.77823928108014"><ele>51.5</ele><time>2026-04-27T09:40:10.811Z</time></trkpt><trkpt lat="39.54010529922875" lon="8.777946622812344"><ele>52.0</ele><time>2026-04-27T09:40:11.811Z</time></trkpt><trkpt lat="39.54021917149277" lon="8.777648175897722"><ele>52.0</ele><time>2026-04-27T09:40:12.811Z</time></trkpt><trkpt lat="39.540332253884095" lon="8.77734943217522"><ele>52.0</ele><time>2026-04-27T09:40:13.811Z</time></trkpt><trkpt lat="39.54044390928807" lon="8.777040900589034"><ele>51.0</ele><time>2026-04-27T09:40:14.811Z</time></trkpt><trkpt lat="39.54055726956431" lon="8.776732675172058"><ele>50.0</ele><time>2026-04-27T09:40:15.811Z</time></trkpt><trkpt lat="39.54067181672914" lon="8.776424418699115"><ele>50.0</ele><time>2026-04-27T09:40:16.811Z</time></trkpt><trkpt lat="39.54078757057809" lon="8.776115630774374"><ele>50.0</ele><time>2026-04-27T09:40:17.811Z</time></trkpt><trkpt lat="39.540902164280865" lon="8.775803477536567"><ele>50.0</ele><time>2026-04-27T09:40:18.811Z</time></trkpt><trkpt lat="39.54101779342017" lon="8.775487857319456"><ele>50.0</ele><time>2026-04-27T09:40:19.811Z</time></trkpt><trkpt lat="39.54113196342731" lon="8.775162895522746"><ele>50.5</ele><time>2026-04-27T09:40:20.811Z</time></trkpt><trkpt lat="39.541248363563135" lon="8.774839405903466"><ele>51.0</ele><time>2026-04-27T09:40:21.811Z</time></trkpt><trkpt lat="39.54136606498777" lon="8.7745170687482"><ele>51.0</ele><time>2026-04-27T09:40:22.811Z</time></trkpt><trkpt lat="39.54148452954723" lon="8.77419658646369"><ele>51.0</ele><time>2026-04-27T09:40:23.811Z</time></trkpt><trkpt lat="39.541597066022824" lon="8.773883954927031"><ele>51.0</ele><time>2026-04-27T09:40:24.811Z</time></trkpt><trkpt lat="39.54169991352343" lon="8.773565358711805"><ele>51.0</ele><time>2026-04-27T09:40:25.811Z</time></trkpt><trkpt lat="39.541789016956066" lon="8.773243506612738"><ele>51.0</ele><time>2026-04-27T09:40:26.811Z</time></trkpt><trkpt lat="39.541872970696225" lon="8.772910088426384"><ele>51.0</ele><time>2026-04-27T09:40:27.811Z</time></trkpt><trkpt lat="39.54194972737637" lon="8.77257333488059"><ele>51.0</ele><time>2026-04-27T09:40:28.811Z</time></trkpt><trkpt lat="39.54201666809874" lon="8.772230499830531"><ele>51.0</ele><time>2026-04-27T09:40:29.811Z</time></trkpt><trkpt lat="39.54207309492189" lon="8.771882330283097"><ele>51.0</ele><time>2026-04-27T09:40:30.811Z</time></trkpt><trkpt lat="39.542121435502665" lon="8.771532729740676"><ele>51.0</ele><time>2026-04-27T09:40:31.811Z</time></trkpt><trkpt lat="39.5421572626262" lon="8.771183702513428"><ele>50.5</ele><time>2026-04-27T09:40:32.811Z</time></trkpt><trkpt lat="39.542184365188284" lon="8.770828917433377"><ele>50.0</ele><time>2026-04-27T09:40:33.811Z</time></trkpt><trkpt lat="39.54219909261241" lon="8.770475753692981"><ele>50.5</ele><time>2026-04-27T09:40:34.811Z</time></trkpt><trkpt lat="39.542205475792954" lon="8.770121979068564"><ele>51.0</ele><time>2026-04-27T09:40:35.811Z</time></trkpt><trkpt lat="39.54220015703391" lon="8.769771428070072"><ele>51.0</ele><time>2026-04-27T09:40:36.81Z</time></trkpt><trkpt lat="39.54218560369873" lon="8.769420100591942"><ele>51.0</ele><time>2026-04-27T09:40:37.81Z</time></trkpt><trkpt lat="39.542159825398585" lon="8.769071571909834"><ele>51.5</ele><time>2026-04-27T09:40:38.81Z</time></trkpt><trkpt lat="39.542125791328246" lon="8.768725353810154"><ele>52.0</ele><time>2026-04-27T09:40:39.812Z</time></trkpt><trkpt lat="39.54208309486995" lon="8.768383881318215"><ele>52.5</ele><time>2026-04-27T09:40:40.812Z</time></trkpt><trkpt lat="39.54203686322355" lon="8.768040217208421"><ele>53.0</ele><time>2026-04-27T09:40:41.812Z</time></trkpt><trkpt lat="39.54198755357073" lon="8.76769496256111"><ele>53.0</ele><time>2026-04-27T09:40:42.812Z</time></trkpt><trkpt lat="39.54193454850898" lon="8.767350232625443"><ele>53.0</ele><time>2026-04-27T09:40:43.812Z</time></trkpt><trkpt lat="39.541882683241134" lon="8.767003729397134"><ele>51.5</ele><time>2026-04-27T09:40:44.812Z</time></trkpt><trkpt lat="39.54183066102807" lon="8.766659103762214"><ele>50.0</ele><time>2026-04-27T09:40:45.812Z</time></trkpt><trkpt lat="39.54177510509355" lon="8.76631061783029"><ele>50.5</ele><time>2026-04-27T09:40:46.812Z</time></trkpt><trkpt lat="39.54172557756715" lon="8.76596082627342"><ele>51.0</ele><time>2026-04-27T09:40:47.812Z</time></trkpt><trkpt lat="39.54167712814295" lon="8.765611759711692"><ele>51.0</ele><time>2026-04-27T09:40:48.812Z</time></trkpt><trkpt lat="39.541627938708324" lon="8.765263419157801"><ele>51.0</ele><time>2026-04-27T09:40:49.811Z</time></trkpt><trkpt lat="39.541578051344935" lon="8.76491970341749"><ele>52.0</ele><time>2026-04-27T09:40:50.811Z</time></trkpt><trkpt lat="39.54152864292663" lon="8.764572849753092"><ele>53.0</ele><time>2026-04-27T09:40:51.812Z</time></trkpt><trkpt lat="39.54147831412051" lon="8.76422546942402"><ele>53.0</ele><time>2026-04-27T09:40:52.811Z</time></trkpt><trkpt lat="39.54142781406759" lon="8.763880330149519"><ele>53.0</ele><time>2026-04-27T09:40:53.811Z</time></trkpt><trkpt lat="39.54137635053703" lon="8.763540708106936"><ele>54.0</ele><time>2026-04-27T09:40:54.811Z</time></trkpt><trkpt lat="39.54132492842401" lon="8.763199512832509"><ele>55.0</ele><time>2026-04-27T09:40:55.811Z</time></trkpt><trkpt lat="39.54127384256739" lon="8.762861565150226"><ele>54.5</ele><time>2026-04-27T09:40:56.811Z</time></trkpt><trkpt lat="39.5412247716618" lon="8.762523587649019"><ele>54.0</ele><time>2026-04-27T09:40:57.811Z</time></trkpt><trkpt lat="39.5411745949457" lon="8.762177669089303"><ele>54.0</ele><time>2026-04-27T09:40:58.811Z</time></trkpt><trkpt lat="39.54112333106976" lon="8.761827478332755"><ele>54.0</ele><time>2026-04-27T09:40:59.811Z</time></trkpt><trkpt lat="39.54107530459726" lon="8.761483153126854"><ele>54.0</ele><time>2026-04-27T09:41:00.811Z</time></trkpt><trkpt lat="39.54102273375154" lon="8.761130363535504"><ele>54.0</ele><time>2026-04-27T09:41:01.811Z</time></trkpt><trkpt lat="39.54096960874735" lon="8.76078028626936"><ele>54.0</ele><time>2026-04-27T09:41:02.811Z</time></trkpt><trkpt lat="39.540918823924194" lon="8.760428224636016"><ele>54.0</ele><time>2026-04-27T09:41:03.811Z</time></trkpt><trkpt lat="39.54086984812842" lon="8.760076519702917"><ele>54.5</ele><time>2026-04-27T09:41:04.811Z</time></trkpt><trkpt lat="39.54081959474809" lon="8.759721380720753"><ele>55.0</ele><time>2026-04-27T09:41:05.811Z</time></trkpt><trkpt lat="39.54076691959883" lon="8.759372508036478"><ele>55.0</ele><time>2026-04-27T09:41:06.811Z</time></trkpt><trkpt lat="39.540713710247296" lon="8.759027927944192"><ele>55.0</ele><time>2026-04-27T09:41:07.811Z</time></trkpt><trkpt lat="39.5406558536601" lon="8.758682440415424"><ele>55.5</ele><time>2026-04-27T09:41:08.811Z</time></trkpt><trkpt lat="39.540617327386926" lon="8.758331133583354"><ele>56.0</ele><time>2026-04-27T09:41:09.811Z</time></trkpt><trkpt lat="39.54056705825445" lon="8.757983248712016"><ele>55.5</ele><time>2026-04-27T09:41:10.811Z</time></trkpt><trkpt lat="39.54051674573128" lon="8.757636654515835"><ele>55.0</ele><time>2026-04-27T09:41:11.811Z</time></trkpt><trkpt lat="39.54046672014441" lon="8.757292037063642"><ele>55.0</ele><time>2026-04-27T09:41:12.811Z</time></trkpt><trkpt lat="39.54040674637929" lon="8.756956734282415"><ele>55.0</ele><time>2026-04-27T09:41:13.811Z</time></trkpt><trkpt lat="39.54037627515315" lon="8.756614813625944"><ele>56.0</ele><time>2026-04-27T09:41:14.811Z</time></trkpt><trkpt lat="39.54033312102145" lon="8.756280907417278"><ele>57.0</ele><time>2026-04-27T09:41:15.811Z</time></trkpt><trkpt lat="39.54028509904106" lon="8.755945476264703"><ele>57.0</ele><time>2026-04-27T09:41:16.811Z</time></trkpt><trkpt lat="39.54023421085065" lon="8.755606837980269"><ele>57.0</ele><time>2026-04-27T09:41:17.811Z</time></trkpt><trkpt lat="39.54017853010199" lon="8.755264441343868"><ele>58.0</ele><time>2026-04-27T09:41:18.811Z</time></trkpt><trkpt lat="39.54012594058283" lon="8.754920848155594"><ele>59.0</ele><time>2026-04-27T09:41:19.811Z</time></trkpt><trkpt lat="39.54007367181985" lon="8.754575603214265"><ele>60.5</ele><time>2026-04-27T09:41:20.811Z</time></trkpt><trkpt lat="39.54002233699369" lon="8.754230298962906"><ele>62.0</ele><time>2026-04-27T09:41:21.811Z</time></trkpt><trkpt lat="39.53997089104349" lon="8.75388950147098"><ele>62.0</ele><time>2026-04-27T09:41:22.811Z</time></trkpt><trkpt lat="39.53991991097514" lon="8.753543687031511"><ele>62.0</ele><time>2026-04-27T09:41:23.81Z</time></trkpt><trkpt lat="39.53986997987793" lon="8.753198623467421"><ele>62.0</ele><time>2026-04-27T09:41:24.81Z</time></trkpt><trkpt lat="39.53982005291441" lon="8.752860696644271"><ele>62.0</ele><time>2026-04-27T09:41:25.81Z</time></trkpt><trkpt lat="39.53977140637769" lon="8.75252116540453"><ele>62.5</ele><time>2026-04-27T09:41:26.81Z</time></trkpt><trkpt lat="39.539722434529814" lon="8.752180669135486"><ele>63.0</ele><time>2026-04-27T09:41:27.81Z</time></trkpt><trkpt lat="39.53967631585244" lon="8.751839071898049"><ele>63.0</ele><time>2026-04-27T09:41:28.81Z</time></trkpt><trkpt lat="39.53963020981718" lon="8.751499221404162"><ele>63.0</ele><time>2026-04-27T09:41:29.81Z</time></trkpt><trkpt lat="39.539579229255324" lon="8.751160106676727"><ele>63.0</ele><time>2026-04-27T09:41:30.81Z</time></trkpt><trkpt lat="39.53952652799704" lon="8.750811953481602"><ele>63.0</ele><time>2026-04-27T09:41:31.81Z</time></trkpt><trkpt lat="39.539475143170115" lon="8.750463808031713"><ele>64.0</ele><time>2026-04-27T09:41:32.81Z</time></trkpt><trkpt lat="39.53942620334413" lon="8.750115489172801"><ele>65.0</ele><time>2026-04-27T09:41:33.81Z</time></trkpt><trkpt lat="39.5393781036534" lon="8.749770624354904"><ele>65.0</ele><time>2026-04-27T09:41:34.81Z</time></trkpt><trkpt lat="39.53932474411532" lon="8.749424150229391"><ele>65.0</ele><time>2026-04-27T09:41:35.81Z</time></trkpt><trkpt lat="39.539273266969126" lon="8.749080685234626"><ele>64.5</ele><time>2026-04-27T09:41:36.81Z</time></trkpt><trkpt lat="39.53922119855258" lon="8.748732859382205"><ele>64.0</ele><time>2026-04-27T09:41:37.81Z</time></trkpt><trkpt lat="39.53917080073162" lon="8.748390976353758"><ele>65.5</ele><time>2026-04-27T09:41:38.81Z</time></trkpt><trkpt lat="39.53911993383549" lon="8.748047695643216"><ele>67.0</ele><time>2026-04-27T09:41:39.81Z</time></trkpt><trkpt lat="39.539070158534244" lon="8.747702624806434"><ele>68.0</ele><time>2026-04-27T09:41:40.81Z</time></trkpt><trkpt lat="39.53902033308305" lon="8.747357151140612"><ele>69.0</ele><time>2026-04-27T09:41:41.81Z</time></trkpt><trkpt lat="39.53896912092583" lon="8.747009517226482"><ele>69.0</ele><time>2026-04-27T09:41:42.81Z</time></trkpt><trkpt lat="39.53891876958931" lon="8.74666339886529"><ele>69.0</ele><time>2026-04-27T09:41:43.81Z</time></trkpt><trkpt lat="39.53887203178501" lon="8.746315785558858"><ele>69.5</ele><time>2026-04-27T09:41:44.81Z</time></trkpt><trkpt lat="39.53882190634321" lon="8.745973897065682"><ele>70.0</ele><time>2026-04-27T09:41:45.81Z</time></trkpt><trkpt lat="39.538772368596476" lon="8.745634515902621"><ele>70.0</ele><time>2026-04-27T09:41:46.81Z</time></trkpt><trkpt lat="39.53872342916946" lon="8.74529447931219"><ele>70.0</ele><time>2026-04-27T09:41:47.81Z</time></trkpt><trkpt lat="39.5386754935973" lon="8.744956110876428"><ele>70.0</ele><time>2026-04-27T09:41:48.81Z</time></trkpt><trkpt lat="39.53862470889756" lon="8.744615658354727"><ele>70.0</ele><time>2026-04-27T09:41:49.81Z</time></trkpt><trkpt lat="39.538572744669366" lon="8.74427413211895"><ele>70.0</ele><time>2026-04-27T09:41:50.81Z</time></trkpt><trkpt lat="39.538522682289845" lon="8.74393282718881"><ele>70.0</ele><time>2026-04-27T09:41:51.81Z</time></trkpt><trkpt lat="39.538471473418" lon="8.743589701610267"><ele>71.0</ele><time>2026-04-27T09:41:52.81Z</time></trkpt><trkpt lat="39.53842124243836" lon="8.743246471432133"><ele>72.0</ele><time>2026-04-27T09:41:53.81Z</time></trkpt><trkpt lat="39.538372726718734" lon="8.742902940921551"><ele>72.0</ele><time>2026-04-27T09:41:54.81Z</time></trkpt><trkpt lat="39.53832376856708" lon="8.742558117531338"><ele>72.0</ele><time>2026-04-27T09:41:55.81Z</time></trkpt><trkpt lat="39.53827370700442" lon="8.742213352942125"><ele>72.0</ele><time>2026-04-27T09:41:56.81Z</time></trkpt><trkpt lat="39.53822507889726" lon="8.74187078960918"><ele>72.0</ele><time>2026-04-27T09:41:57.81Z</time></trkpt><trkpt lat="39.53817435465459" lon="8.741524123809851"><ele>72.0</ele><time>2026-04-27T09:41:58.81Z</time></trkpt><trkpt lat="39.538125404040734" lon="8.741180439523658"><ele>72.0</ele><time>2026-04-27T09:41:59.81Z</time></trkpt><trkpt lat="39.53807299123804" lon="8.740836999408318"><ele>71.0</ele><time>2026-04-27T09:42:00.809Z</time></trkpt><trkpt lat="39.53802014948225" lon="8.740498550603771"><ele>70.0</ele><time>2026-04-27T09:42:01.809Z</time></trkpt><trkpt lat="39.537969388705314" lon="8.740156325749869"><ele>69.5</ele><time>2026-04-27T09:42:02.809Z</time></trkpt><trkpt lat="39.537921328661724" lon="8.739817540756176"><ele>69.0</ele><time>2026-04-27T09:42:03.809Z</time></trkpt><trkpt lat="39.53787327619692" lon="8.73948151962654"><ele>70.0</ele><time>2026-04-27T09:42:04.809Z</time></trkpt><trkpt lat="39.53782393298114" lon="8.739143532427146"><ele>71.0</ele><time>2026-04-27T09:42:05.809Z</time></trkpt><trkpt lat="39.537774106959134" lon="8.73880808147503"><ele>70.5</ele><time>2026-04-27T09:42:06.809Z</time></trkpt><trkpt lat="39.53772475538232" lon="8.73846985093629"><ele>70.0</ele><time>2026-04-27T09:42:07.809Z</time></trkpt><trkpt lat="39.53767634045505" lon="8.738136087469536"><ele>70.0</ele><time>2026-04-27T09:42:08.809Z</time></trkpt><trkpt lat="39.53762694609236" lon="8.737800768030867"><ele>70.0</ele><time>2026-04-27T09:42:09.809Z</time></trkpt><trkpt lat="39.53757847256257" lon="8.737465521986305"><ele>71.5</ele><time>2026-04-27T09:42:10.809Z</time></trkpt><trkpt lat="39.53753111633097" lon="8.737131417892734"><ele>73.0</ele><time>2026-04-27T09:42:11.809Z</time></trkpt><trkpt lat="39.53748322187052" lon="8.736795784565642"><ele>75.0</ele><time>2026-04-27T09:42:12.809Z</time></trkpt><trkpt lat="39.53743573417355" lon="8.736457669613364"><ele>77.0</ele><time>2026-04-27T09:42:13.809Z</time></trkpt><trkpt lat="39.53738483910606" lon="8.736121479565302"><ele>76.5</ele><time>2026-04-27T09:42:14.809Z</time></trkpt><trkpt lat="39.53733788236272" lon="8.735785299931514"><ele>76.0</ele><time>2026-04-27T09:42:15.809Z</time></trkpt><trkpt lat="39.53728697502185" lon="8.735445680667311"><ele>76.5</ele><time>2026-04-27T09:42:16.809Z</time></trkpt><trkpt lat="39.53723506507085" lon="8.735101170138808"><ele>77.0</ele><time>2026-04-27T09:42:17.809Z</time></trkpt><trkpt lat="39.5371854264846" lon="8.734757364036977"><ele>77.0</ele><time>2026-04-27T09:42:18.809Z</time></trkpt><trkpt lat="39.53713445957371" lon="8.734417604388172"><ele>77.0</ele><time>2026-04-27T09:42:19.809Z</time></trkpt><trkpt lat="39.53708209616771" lon="8.734076213173779"><ele>78.0</ele><time>2026-04-27T09:42:20.809Z</time></trkpt><trkpt lat="39.53702949276127" lon="8.73373689394288"><ele>79.0</ele><time>2026-04-27T09:42:21.809Z</time></trkpt><trkpt lat="39.53697631741716" lon="8.733401329425583"><ele>79.0</ele><time>2026-04-27T09:42:22.809Z</time></trkpt><trkpt lat="39.536927478806234" lon="8.733063584789035"><ele>79.0</ele><time>2026-04-27T09:42:23.809Z</time></trkpt><trkpt lat="39.53687808330135" lon="8.732730772187075"><ele>80.0</ele><time>2026-04-27T09:42:24.809Z</time></trkpt><trkpt lat="39.53683624930765" lon="8.732387013650486"><ele>81.0</ele><time>2026-04-27T09:42:25.809Z</time></trkpt><trkpt lat="39.53681356865372" lon="8.73204051416272"><ele>81.0</ele><time>2026-04-27T09:42:26.809Z</time></trkpt><trkpt lat="39.53681165639654" lon="8.731696087736934"><ele>81.0</ele><time>2026-04-27T09:42:27.809Z</time></trkpt><trkpt lat="39.536821582241664" lon="8.73135116002595"><ele>82.0</ele><time>2026-04-27T09:42:28.809Z</time></trkpt><trkpt lat="39.53683200957882" lon="8.731000849997155"><ele>83.0</ele><time>2026-04-27T09:42:29.809Z</time></trkpt><trkpt lat="39.53683995661341" lon="8.730642738766658"><ele>83.0</ele><time>2026-04-27T09:42:30.809Z</time></trkpt><trkpt lat="39.53684757658847" lon="8.730283131326804"><ele>83.0</ele><time>2026-04-27T09:42:31.809Z</time></trkpt><trkpt lat="39.536850902409626" lon="8.729926204979"><ele>84.0</ele><time>2026-04-27T09:42:32.809Z</time></trkpt><trkpt lat="39.53685396403045" lon="8.729569686132812"><ele>85.0</ele><time>2026-04-27T09:42:33.809Z</time></trkpt><trkpt lat="39.53685966437389" lon="8.729212481104344"><ele>85.5</ele><time>2026-04-27T09:42:34.809Z</time></trkpt><trkpt lat="39.53686358622823" lon="8.728858141104809"><ele>86.0</ele><time>2026-04-27T09:42:35.809Z</time></trkpt><trkpt lat="39.536869537562985" lon="8.728501752610143"><ele>86.5</ele><time>2026-04-27T09:42:36.808Z</time></trkpt><trkpt lat="39.53687875023827" lon="8.72814826203835"><ele>87.0</ele><time>2026-04-27T09:42:37.808Z</time></trkpt><trkpt lat="39.5368842072383" lon="8.72779734292329"><ele>87.0</ele><time>2026-04-27T09:42:38.808Z</time></trkpt><trkpt lat="39.536892718560935" lon="8.727446882622043"><ele>87.0</ele><time>2026-04-27T09:42:39.808Z</time></trkpt><trkpt lat="39.536900059607476" lon="8.727097777243696"><ele>88.0</ele><time>2026-04-27T09:42:40.808Z</time></trkpt><trkpt lat="39.53690518552982" lon="8.726749696831758"><ele>89.0</ele><time>2026-04-27T09:42:41.808Z</time></trkpt><trkpt lat="39.536912842810764" lon="8.726405201349802"><ele>89.0</ele><time>2026-04-27T09:42:42.808Z</time></trkpt><trkpt lat="39.5369210125557" lon="8.726061479082801"><ele>89.0</ele><time>2026-04-27T09:42:43.808Z</time></trkpt><trkpt lat="39.53692310799288" lon="8.725719136660839"><ele>89.0</ele><time>2026-04-27T09:42:44.808Z</time></trkpt><trkpt lat="39.53692590254506" lon="8.725376027667304"><ele>89.0</ele><time>2026-04-27T09:42:45.81Z</time></trkpt><trkpt lat="39.53693372140663" lon="8.725022244161323"><ele>89.0</ele><time>2026-04-27T09:42:46.81Z</time></trkpt><trkpt lat="39.53694091491868" lon="8.724671479698932"><ele>89.0</ele><time>2026-04-27T09:42:47.81Z</time></trkpt><trkpt lat="39.536947970048715" lon="8.724319363214217"><ele>88.5</ele><time>2026-04-27T09:42:48.809Z</time></trkpt><trkpt lat="39.53696023783705" lon="8.723966724159325"><ele>88.0</ele><time>2026-04-27T09:42:49.81Z</time></trkpt><trkpt lat="39.53696901576811" lon="8.723609710099293"><ele>88.0</ele><time>2026-04-27T09:42:50.81Z</time></trkpt><trkpt lat="39.53697636304869" lon="8.723254749787786"><ele>88.0</ele><time>2026-04-27T09:42:51.81Z</time></trkpt><trkpt lat="39.536984345312575" lon="8.722901488114973"><ele>88.0</ele><time>2026-04-27T09:42:52.81Z</time></trkpt><trkpt lat="39.5369912372487" lon="8.722545898175591"><ele>88.0</ele><time>2026-04-27T09:42:53.81Z</time></trkpt><trkpt lat="39.53699845341082" lon="8.722188920871528"><ele>88.5</ele><time>2026-04-27T09:42:54.809Z</time></trkpt><trkpt lat="39.53700632943597" lon="8.721824577307045"><ele>89.0</ele><time>2026-04-27T09:42:55.81Z</time></trkpt><trkpt lat="39.53701136210717" lon="8.721460577388493"><ele>89.0</ele><time>2026-04-27T09:42:56.81Z</time></trkpt><trkpt lat="39.5370159161371" lon="8.721100226124944"><ele>89.0</ele><time>2026-04-27T09:42:57.81Z</time></trkpt><trkpt lat="39.53702352745" lon="8.72073779212506"><ele>89.0</ele><time>2026-04-27T09:42:58.809Z</time></trkpt><trkpt lat="39.53702937112847" lon="8.720378773676126"><ele>89.0</ele><time>2026-04-27T09:42:59.809Z</time></trkpt><trkpt lat="39.53703596076934" lon="8.720018004812937"><ele>89.5</ele><time>2026-04-27T09:43:00.809Z</time></trkpt><trkpt lat="39.5370410380535" lon="8.719656838231876"><ele>90.0</ele><time>2026-04-27T09:43:01.809Z</time></trkpt><trkpt lat="39.53704677781914" lon="8.719297318004617"><ele>89.5</ele><time>2026-04-27T09:43:02.809Z</time></trkpt><trkpt lat="39.53705384958057" lon="8.71893611679919"><ele>89.0</ele><time>2026-04-27T09:43:03.809Z</time></trkpt><trkpt lat="39.537060135756235" lon="8.7185791534501"><ele>89.5</ele><time>2026-04-27T09:43:04.809Z</time></trkpt><trkpt lat="39.5370649274989" lon="8.718220963563075"><ele>90.0</ele><time>2026-04-27T09:43:05.809Z</time></trkpt><trkpt lat="39.537069842250794" lon="8.717863907122542"><ele>89.5</ele><time>2026-04-27T09:43:06.809Z</time></trkpt><trkpt lat="39.53707616437195" lon="8.717503392715745"><ele>89.0</ele><time>2026-04-27T09:43:07.809Z</time></trkpt><trkpt lat="39.53708341091599" lon="8.717143670952613"><ele>89.0</ele><time>2026-04-27T09:43:08.809Z</time></trkpt><trkpt lat="39.537088918213314" lon="8.716783791974857"><ele>89.0</ele><time>2026-04-27T09:43:09.809Z</time></trkpt><trkpt lat="39.53709502645326" lon="8.716425747518871"><ele>89.5</ele><time>2026-04-27T09:43:10.809Z</time></trkpt><trkpt lat="39.537098913805764" lon="8.71606949993416"><ele>90.0</ele><time>2026-04-27T09:43:11.809Z</time></trkpt><trkpt lat="39.53710484094082" lon="8.715708085805938"><ele>90.0</ele><time>2026-04-27T09:43:12.809Z</time></trkpt><trkpt lat="39.53710933103545" lon="8.715348790471348"><ele>90.0</ele><time>2026-04-27T09:43:13.809Z</time></trkpt><trkpt lat="39.53711384086743" lon="8.71498600704123"><ele>90.5</ele><time>2026-04-27T09:43:14.809Z</time></trkpt><trkpt lat="39.537119375512354" lon="8.714622857864134"><ele>91.0</ele><time>2026-04-27T09:43:15.809Z</time></trkpt><trkpt lat="39.537126448024146" lon="8.714257825839356"><ele>91.0</ele><time>2026-04-27T09:43:16.809Z</time></trkpt><trkpt lat="39.53713487205718" lon="8.713894172341483"><ele>91.0</ele><time>2026-04-27T09:43:17.808Z</time></trkpt><trkpt lat="39.53714326135375" lon="8.713533073616103"><ele>91.5</ele><time>2026-04-27T09:43:18.808Z</time></trkpt><trkpt lat="39.53715300485188" lon="8.713167035056323"><ele>92.0</ele><time>2026-04-27T09:43:19.808Z</time></trkpt><trkpt lat="39.53715826752939" lon="8.712805539013639"><ele>93.0</ele><time>2026-04-27T09:43:20.808Z</time></trkpt><trkpt lat="39.53716406563656" lon="8.712446221489877"><ele>94.0</ele><time>2026-04-27T09:43:21.808Z</time></trkpt><trkpt lat="39.53717080010611" lon="8.712094539502267"><ele>92.5</ele><time>2026-04-27T09:43:22.808Z</time></trkpt><trkpt lat="39.537177387951985" lon="8.711736469605023"><ele>91.0</ele><time>2026-04-27T09:43:23.808Z</time></trkpt><trkpt lat="39.537181675988876" lon="8.711378234914422"><ele>92.0</ele><time>2026-04-27T09:43:24.808Z</time></trkpt><trkpt lat="39.53718588189374" lon="8.711021458676543"><ele>93.0</ele><time>2026-04-27T09:43:25.808Z</time></trkpt><trkpt lat="39.53719083292456" lon="8.710662159541942"><ele>93.0</ele><time>2026-04-27T09:43:26.808Z</time></trkpt><trkpt lat="39.53719650078881" lon="8.710304017612575"><ele>93.0</ele><time>2026-04-27T09:43:27.808Z</time></trkpt><trkpt lat="39.53720198347471" lon="8.709942473479503"><ele>93.5</ele><time>2026-04-27T09:43:28.808Z</time></trkpt><trkpt lat="39.53720766826184" lon="8.709579139752714"><ele>94.0</ele><time>2026-04-27T09:43:29.808Z</time></trkpt><trkpt lat="39.53721383625757" lon="8.709217813447307"><ele>94.0</ele><time>2026-04-27T09:43:30.808Z</time></trkpt><trkpt lat="39.53722126650923" lon="8.708860733703986"><ele>94.0</ele><time>2026-04-27T09:43:31.808Z</time></trkpt><trkpt lat="39.53722673913284" lon="8.708501239845402"><ele>93.5</ele><time>2026-04-27T09:43:32.808Z</time></trkpt><trkpt lat="39.53723340202463" lon="8.708145434303736"><ele>93.0</ele><time>2026-04-27T09:43:33.808Z</time></trkpt><trkpt lat="39.537239306148955" lon="8.707786255275508"><ele>94.0</ele><time>2026-04-27T09:43:34.808Z</time></trkpt><trkpt lat="39.537245399443655" lon="8.707427154014553"><ele>95.0</ele><time>2026-04-27T09:43:35.808Z</time></trkpt><trkpt lat="39.53725272840927" lon="8.707067724864917"><ele>94.5</ele><time>2026-04-27T09:43:36.808Z</time></trkpt><trkpt lat="39.53725883768235" lon="8.706708747308964"><ele>94.0</ele><time>2026-04-27T09:43:37.808Z</time></trkpt><trkpt lat="39.53726361256569" lon="8.706349868004086"><ele>94.5</ele><time>2026-04-27T09:43:38.808Z</time></trkpt><trkpt lat="39.537270278403334" lon="8.705988716149662"><ele>95.0</ele><time>2026-04-27T09:43:39.808Z</time></trkpt><trkpt lat="39.53727666979014" lon="8.705627241593387"><ele>95.0</ele><time>2026-04-27T09:43:40.808Z</time></trkpt><trkpt lat="39.537284568557936" lon="8.705262706855141"><ele>95.0</ele><time>2026-04-27T09:43:41.808Z</time></trkpt><trkpt lat="39.53729391110168" lon="8.70490415769182"><ele>95.0</ele><time>2026-04-27T09:43:42.808Z</time></trkpt><trkpt lat="39.53730128637665" lon="8.70455207374314"><ele>95.0</ele><time>2026-04-27T09:43:43.808Z</time></trkpt><trkpt lat="39.53730913394585" lon="8.704194032906845"><ele>95.5</ele><time>2026-04-27T09:43:44.808Z</time></trkpt><trkpt lat="39.5373157489656" lon="8.703837415123859"><ele>96.0</ele><time>2026-04-27T09:43:45.808Z</time></trkpt><trkpt lat="39.537318673336785" lon="8.703485334150082"><ele>96.0</ele><time>2026-04-27T09:43:46.808Z</time></trkpt><trkpt lat="39.53732401235947" lon="8.703140142950499"><ele>96.0</ele><time>2026-04-27T09:43:47.808Z</time></trkpt><trkpt lat="39.53733119355509" lon="8.702794090440815"><ele>96.5</ele><time>2026-04-27T09:43:48.808Z</time></trkpt><trkpt lat="39.53734200485144" lon="8.702439736717837"><ele>97.0</ele><time>2026-04-27T09:43:49.808Z</time></trkpt><trkpt lat="39.53734886396857" lon="8.702090391747031"><ele>96.5</ele><time>2026-04-27T09:43:50.808Z</time></trkpt><trkpt lat="39.537355215534035" lon="8.701738298132836"><ele>96.0</ele><time>2026-04-27T09:43:51.808Z</time></trkpt><trkpt lat="39.537362580174886" lon="8.701385021225466"><ele>95.5</ele><time>2026-04-27T09:43:52.808Z</time></trkpt><trkpt lat="39.537369659556674" lon="8.70103424863874"><ele>95.0</ele><time>2026-04-27T09:43:53.808Z</time></trkpt><trkpt lat="39.53737639419198" lon="8.700683022138282"><ele>95.0</ele><time>2026-04-27T09:43:54.807Z</time></trkpt><trkpt lat="39.53738165071821" lon="8.700332357394549"><ele>95.0</ele><time>2026-04-27T09:43:55.807Z</time></trkpt><trkpt lat="39.53738781861787" lon="8.699980400206378"><ele>95.5</ele><time>2026-04-27T09:43:56.807Z</time></trkpt><trkpt lat="39.53739237061086" lon="8.699626616198223"><ele>96.0</ele><time>2026-04-27T09:43:57.807Z</time></trkpt><trkpt lat="39.53739705270525" lon="8.699271761832957"><ele>96.5</ele><time>2026-04-27T09:43:58.807Z</time></trkpt><trkpt lat="39.53740268800278" lon="8.69891977529136"><ele>97.0</ele><time>2026-04-27T09:43:59.807Z</time></trkpt><trkpt lat="39.53740925297344" lon="8.69856748863231"><ele>97.5</ele><time>2026-04-27T09:44:00.807Z</time></trkpt><trkpt lat="39.537416754390016" lon="8.698214960313416"><ele>98.0</ele><time>2026-04-27T09:44:01.807Z</time></trkpt><trkpt lat="39.53742450537999" lon="8.697861568627802"><ele>98.0</ele><time>2026-04-27T09:44:02.807Z</time></trkpt><trkpt lat="39.53743223221359" lon="8.697511725958655"><ele>98.0</ele><time>2026-04-27T09:44:03.807Z</time></trkpt><trkpt lat="39.53743978914008" lon="8.697155734463767"><ele>98.0</ele><time>2026-04-27T09:44:04.807Z</time></trkpt><trkpt lat="39.53744607754074" lon="8.696804552036415"><ele>98.0</ele><time>2026-04-27T09:44:05.807Z</time></trkpt><trkpt lat="39.53745333249218" lon="8.696455416511771"><ele>98.0</ele><time>2026-04-27T09:44:06.807Z</time></trkpt><trkpt lat="39.53746168701001" lon="8.696106306182607"><ele>98.0</ele><time>2026-04-27T09:44:07.807Z</time></trkpt><trkpt lat="39.537470340501706" lon="8.69575449450549"><ele>98.0</ele><time>2026-04-27T09:44:08.807Z</time></trkpt><trkpt lat="39.53747787686738" lon="8.69540645334701"><ele>98.0</ele><time>2026-04-27T09:44:09.807Z</time></trkpt><trkpt lat="39.537485028557015" lon="8.69505834968278"><ele>98.5</ele><time>2026-04-27T09:44:10.807Z</time></trkpt><trkpt lat="39.53749025378388" lon="8.694713384889699"><ele>99.0</ele><time>2026-04-27T09:44:11.807Z</time></trkpt><trkpt lat="39.53749642845408" lon="8.69436100343427"><ele>99.0</ele><time>2026-04-27T09:44:12.807Z</time></trkpt><trkpt lat="39.537500954947745" lon="8.694010543532581"><ele>99.0</ele><time>2026-04-27T09:44:13.807Z</time></trkpt><trkpt lat="39.537503890696044" lon="8.693659625137837"><ele>98.5</ele><time>2026-04-27T09:44:14.807Z</time></trkpt><trkpt lat="39.53750701137611" lon="8.693308366508392"><ele>98.0</ele><time>2026-04-27T09:44:15.807Z</time></trkpt><trkpt lat="39.53751077729112" lon="8.692956155301998"><ele>97.5</ele><time>2026-04-27T09:44:16.807Z</time></trkpt><trkpt lat="39.537516446941744" lon="8.692602581136354"><ele>97.0</ele><time>2026-04-27T09:44:17.807Z</time></trkpt><trkpt lat="39.53752379640225" lon="8.69224879475108"><ele>98.0</ele><time>2026-04-27T09:44:18.807Z</time></trkpt><trkpt lat="39.537532935480776" lon="8.691891356195292"><ele>99.0</ele><time>2026-04-27T09:44:19.807Z</time></trkpt><trkpt lat="39.53754054609678" lon="8.691536563350589"><ele>99.0</ele><time>2026-04-27T09:44:20.807Z</time></trkpt><trkpt lat="39.53754496173093" lon="8.69118841864184"><ele>99.0</ele><time>2026-04-27T09:44:21.807Z</time></trkpt><trkpt lat="39.53754902021994" lon="8.690837945838206"><ele>99.5</ele><time>2026-04-27T09:44:22.807Z</time></trkpt><trkpt lat="39.53754877140839" lon="8.690490636839321"><ele>100.0</ele><time>2026-04-27T09:44:23.807Z</time></trkpt><trkpt lat="39.53755153193139" lon="8.690141661588951"><ele>100.0</ele><time>2026-04-27T09:44:24.807Z</time></trkpt><trkpt lat="39.53755802154789" lon="8.689795251380492"><ele>100.0</ele><time>2026-04-27T09:44:25.807Z</time></trkpt><trkpt lat="39.537571257464215" lon="8.689449044141595"><ele>100.0</ele><time>2026-04-27T09:44:26.807Z</time></trkpt><trkpt lat="39.537583776629" lon="8.689102533427263"><ele>100.0</ele><time>2026-04-27T09:44:27.807Z</time></trkpt><trkpt lat="39.53759112158248" lon="8.688751771611722"><ele>99.5</ele><time>2026-04-27T09:44:28.807Z</time></trkpt><trkpt lat="39.5375980076045" lon="8.68839488327003"><ele>99.0</ele><time>2026-04-27T09:44:29.807Z</time></trkpt><trkpt lat="39.537606979318554" lon="8.688032984498088"><ele>99.0</ele><time>2026-04-27T09:44:30.806Z</time></trkpt><trkpt lat="39.53761129901699" lon="8.687675460987954"><ele>99.0</ele><time>2026-04-27T09:44:31.806Z</time></trkpt><trkpt lat="39.537619706523905" lon="8.687317858291083"><ele>99.0</ele><time>2026-04-27T09:44:32.806Z</time></trkpt><trkpt lat="39.537628657513324" lon="8.686964375459944"><ele>99.0</ele><time>2026-04-27T09:44:33.806Z</time></trkpt><trkpt lat="39.53763832286835" lon="8.68660605941206"><ele>99.0</ele><time>2026-04-27T09:44:34.806Z</time></trkpt><trkpt lat="39.53764639915812" lon="8.686244801838122"><ele>99.0</ele><time>2026-04-27T09:44:35.806Z</time></trkpt><trkpt lat="39.53765494583064" lon="8.68588325667578"><ele>98.5</ele><time>2026-04-27T09:44:36.806Z</time></trkpt><trkpt lat="39.53766028098165" lon="8.685525860924564"><ele>98.0</ele><time>2026-04-27T09:44:37.806Z</time></trkpt><trkpt lat="39.537665281952265" lon="8.685171508715507"><ele>97.0</ele><time>2026-04-27T09:44:38.806Z</time></trkpt><trkpt lat="39.53767067040169" lon="8.684811561305095"><ele>96.0</ele><time>2026-04-27T09:44:39.806Z</time></trkpt><trkpt lat="39.53767655875973" lon="8.684449878869447"><ele>97.0</ele><time>2026-04-27T09:44:40.806Z</time></trkpt><trkpt lat="39.537683452061984" lon="8.684085438233463"><ele>98.0</ele><time>2026-04-27T09:44:41.806Z</time></trkpt><trkpt lat="39.53769100558771" lon="8.683720918716595"><ele>98.0</ele><time>2026-04-27T09:44:42.806Z</time></trkpt><trkpt lat="39.537699434559705" lon="8.683360626531528"><ele>98.0</ele><time>2026-04-27T09:44:43.806Z</time></trkpt><trkpt lat="39.537703578377176" lon="8.68300010462799"><ele>98.5</ele><time>2026-04-27T09:44:44.806Z</time></trkpt><trkpt lat="39.53771304900104" lon="8.682645982132941"><ele>99.0</ele><time>2026-04-27T09:44:45.806Z</time></trkpt><trkpt lat="39.53772014101467" lon="8.682294679771054"><ele>99.0</ele><time>2026-04-27T09:44:46.806Z</time></trkpt><trkpt lat="39.53772634786816" lon="8.68194262770109"><ele>99.0</ele><time>2026-04-27T09:44:47.806Z</time></trkpt><trkpt lat="39.537732911724085" lon="8.681592294621028"><ele>99.0</ele><time>2026-04-27T09:44:48.806Z</time></trkpt><trkpt lat="39.53773985338229" lon="8.681238487485206"><ele>99.0</ele><time>2026-04-27T09:44:49.806Z</time></trkpt><trkpt lat="39.53774688073616" lon="8.680885566892028"><ele>99.0</ele><time>2026-04-27T09:44:50.806Z</time></trkpt><trkpt lat="39.53775506840031" lon="8.680526193232238"><ele>99.0</ele><time>2026-04-27T09:44:51.808Z</time></trkpt><trkpt lat="39.53776183002705" lon="8.680171877833136"><ele>100.5</ele><time>2026-04-27T09:44:52.808Z</time></trkpt><trkpt lat="39.53776941961749" lon="8.679817159518352"><ele>102.0</ele><time>2026-04-27T09:44:53.808Z</time></trkpt><trkpt lat="39.53777511163712" lon="8.679465226792873"><ele>101.5</ele><time>2026-04-27T09:44:54.808Z</time></trkpt><trkpt lat="39.537781444562754" lon="8.67911318567759"><ele>101.0</ele><time>2026-04-27T09:44:55.807Z</time></trkpt><trkpt lat="39.537788894344324" lon="8.678761007813698"><ele>101.0</ele><time>2026-04-27T09:44:56.807Z</time></trkpt><trkpt lat="39.537795988224424" lon="8.678411436353745"><ele>101.0</ele><time>2026-04-27T09:44:57.807Z</time></trkpt><trkpt lat="39.53780431672121" lon="8.678060849683549"><ele>101.5</ele><time>2026-04-27T09:44:58.808Z</time></trkpt><trkpt lat="39.537811161552746" lon="8.67770671342869"><ele>102.0</ele><time>2026-04-27T09:44:59.808Z</time></trkpt><trkpt lat="39.53781944106304" lon="8.677357660510834"><ele>102.0</ele><time>2026-04-27T09:45:00.808Z</time></trkpt><trkpt lat="39.53782548589202" lon="8.677005692515335"><ele>102.0</ele><time>2026-04-27T09:45:01.807Z</time></trkpt><trkpt lat="39.53783192432369" lon="8.676647038089158"><ele>102.0</ele><time>2026-04-27T09:45:02.807Z</time></trkpt><trkpt lat="39.537838053945606" lon="8.67628962453698"><ele>102.0</ele><time>2026-04-27T09:45:03.807Z</time></trkpt><trkpt lat="39.537843116164005" lon="8.675936625927468"><ele>102.0</ele><time>2026-04-27T09:45:04.808Z</time></trkpt><trkpt lat="39.53784784489163" lon="8.67558553454899"><ele>102.0</ele><time>2026-04-27T09:45:05.808Z</time></trkpt><trkpt lat="39.53785367736109" lon="8.675234822940322"><ele>102.0</ele><time>2026-04-27T09:45:06.808Z</time></trkpt><trkpt lat="39.537858934341706" lon="8.674888105213663"><ele>102.0</ele><time>2026-04-27T09:45:07.808Z</time></trkpt><trkpt lat="39.5378641450979" lon="8.674543554397392"><ele>102.5</ele><time>2026-04-27T09:45:08.808Z</time></trkpt><trkpt lat="39.53787006563183" lon="8.674199362847727"><ele>103.0</ele><time>2026-04-27T09:45:09.808Z</time></trkpt><trkpt lat="39.53787629274224" lon="8.673854264136482"><ele>102.5</ele><time>2026-04-27T09:45:10.808Z</time></trkpt><trkpt lat="39.5378844436375" lon="8.673507487786999"><ele>102.0</ele><time>2026-04-27T09:45:11.808Z</time></trkpt><trkpt lat="39.537892845905795" lon="8.673157987541119"><ele>101.5</ele><time>2026-04-27T09:45:12.807Z</time></trkpt><trkpt lat="39.53789876467137" lon="8.67281207713644"><ele>101.0</ele><time>2026-04-27T09:45:13.807Z</time></trkpt><trkpt lat="39.53790448906554" lon="8.67246423047459"><ele>101.0</ele><time>2026-04-27T09:45:14.807Z</time></trkpt><trkpt lat="39.537911458957076" lon="8.67211557704858"><ele>101.0</ele><time>2026-04-27T09:45:15.807Z</time></trkpt><trkpt lat="39.537917108404315" lon="8.67176032176247"><ele>101.0</ele><time>2026-04-27T09:45:16.807Z</time></trkpt><trkpt lat="39.537921877613066" lon="8.671409688122102"><ele>101.0</ele><time>2026-04-27T09:45:17.807Z</time></trkpt><trkpt lat="39.53792739915427" lon="8.671062740156636"><ele>101.0</ele><time>2026-04-27T09:45:18.807Z</time></trkpt><trkpt lat="39.53793354534715" lon="8.670721122122613"><ele>101.0</ele><time>2026-04-27T09:45:19.807Z</time></trkpt><trkpt lat="39.53794311776066" lon="8.670372457437368"><ele>101.0</ele><time>2026-04-27T09:45:20.807Z</time></trkpt><trkpt lat="39.53794912676077" lon="8.670025779552729"><ele>101.0</ele><time>2026-04-27T09:45:21.807Z</time></trkpt><trkpt lat="39.53795781411058" lon="8.669675505512384"><ele>102.0</ele><time>2026-04-27T09:45:22.807Z</time></trkpt><trkpt lat="39.53796452331845" lon="8.66933541953247"><ele>103.0</ele><time>2026-04-27T09:45:23.807Z</time></trkpt><trkpt lat="39.53796767208724" lon="8.66897977778883"><ele>103.0</ele><time>2026-04-27T09:45:24.807Z</time></trkpt><trkpt lat="39.53797203740681" lon="8.668636676592595"><ele>103.0</ele><time>2026-04-27T09:45:25.807Z</time></trkpt><trkpt lat="39.53797853485661" lon="8.668280837345852"><ele>103.5</ele><time>2026-04-27T09:45:26.807Z</time></trkpt><trkpt lat="39.537986966077064" lon="8.6679252490096"><ele>104.0</ele><time>2026-04-27T09:45:27.807Z</time></trkpt><trkpt lat="39.537998144928316" lon="8.667564825644664"><ele>103.0</ele><time>2026-04-27T09:45:28.807Z</time></trkpt><trkpt lat="39.53799975369228" lon="8.667221567759174"><ele>102.0</ele><time>2026-04-27T09:45:29.807Z</time></trkpt><trkpt lat="39.538008046056206" lon="8.666864135652155"><ele>100.0</ele><time>2026-04-27T09:45:30.807Z</time></trkpt><trkpt lat="39.53801725133576" lon="8.666511086492903"><ele>98.0</ele><time>2026-04-27T09:45:31.807Z</time></trkpt><trkpt lat="39.53802481719265" lon="8.666160093326688"><ele>98.5</ele><time>2026-04-27T09:45:32.807Z</time></trkpt><trkpt lat="39.53803027089074" lon="8.665814033725848"><ele>99.0</ele><time>2026-04-27T09:45:33.807Z</time></trkpt><trkpt lat="39.5380375319399" lon="8.665464316001623"><ele>99.0</ele><time>2026-04-27T09:45:34.807Z</time></trkpt><trkpt lat="39.538041819151054" lon="8.665129573023862"><ele>99.0</ele><time>2026-04-27T09:45:35.807Z</time></trkpt><trkpt lat="39.538045487506224" lon="8.664789115293436"><ele>99.0</ele><time>2026-04-27T09:45:36.807Z</time></trkpt><trkpt lat="39.538052200461856" lon="8.664447449058105"><ele>99.0</ele><time>2026-04-27T09:45:37.807Z</time></trkpt><trkpt lat="39.53805920033515" lon="8.66410216951773"><ele>99.0</ele><time>2026-04-27T09:45:38.807Z</time></trkpt><trkpt lat="39.53807029213174" lon="8.66375271809319"><ele>99.0</ele><time>2026-04-27T09:45:39.807Z</time></trkpt><trkpt lat="39.53807665614897" lon="8.663402025693516"><ele>99.0</ele><time>2026-04-27T09:45:40.807Z</time></trkpt><trkpt lat="39.53808440502878" lon="8.66304771247146"><ele>99.0</ele><time>2026-04-27T09:45:41.807Z</time></trkpt><trkpt lat="39.53809112352381" lon="8.662692171101448"><ele>98.0</ele><time>2026-04-27T09:45:42.807Z</time></trkpt><trkpt lat="39.53810163793336" lon="8.66234274969806"><ele>97.0</ele><time>2026-04-27T09:45:43.807Z</time></trkpt><trkpt lat="39.53810913780841" lon="8.661992748028519"><ele>97.5</ele><time>2026-04-27T09:45:44.807Z</time></trkpt><trkpt lat="39.53811970457526" lon="8.661644807813262"><ele>98.0</ele><time>2026-04-27T09:45:45.807Z</time></trkpt><trkpt lat="39.53812960595946" lon="8.661291160379342"><ele>98.0</ele><time>2026-04-27T09:45:46.807Z</time></trkpt><trkpt lat="39.53814524637843" lon="8.660943454013218"><ele>98.0</ele><time>2026-04-27T09:45:47.807Z</time></trkpt><trkpt lat="39.53816859093566" lon="8.660601615668549"><ele>98.0</ele><time>2026-04-27T09:45:48.806Z</time></trkpt><trkpt lat="39.538212941753315" lon="8.660269225477277"><ele>98.0</ele><time>2026-04-27T09:45:49.806Z</time></trkpt><trkpt lat="39.53828431757756" lon="8.659950634810889"><ele>98.0</ele><time>2026-04-27T09:45:50.806Z</time></trkpt><trkpt lat="39.538363739073944" lon="8.659636079667402"><ele>98.0</ele><time>2026-04-27T09:45:51.806Z</time></trkpt><trkpt lat="39.53844430744066" lon="8.65933328435465"><ele>98.5</ele><time>2026-04-27T09:45:52.806Z</time></trkpt><trkpt lat="39.538528743480896" lon="8.659027345485773"><ele>99.0</ele><time>2026-04-27T09:45:53.806Z</time></trkpt><trkpt lat="39.538607304290245" lon="8.658709150598106"><ele>100.5</ele><time>2026-04-27T09:45:54.806Z</time></trkpt><trkpt lat="39.5386610709074" lon="8.65838779612439"><ele>102.0</ele><time>2026-04-27T09:45:55.806Z</time></trkpt><trkpt lat="39.53870045028813" lon="8.658048719006201"><ele>102.5</ele><time>2026-04-27T09:45:56.806Z</time></trkpt><trkpt lat="39.538715170881694" lon="8.657717135388157"><ele>103.0</ele><time>2026-04-27T09:45:57.806Z</time></trkpt><trkpt lat="39.5387054418365" lon="8.657386705409817"><ele>103.0</ele><time>2026-04-27T09:45:58.806Z</time></trkpt><trkpt lat="39.53869437567074" lon="8.657055975551913"><ele>103.0</ele><time>2026-04-27T09:45:59.806Z</time></trkpt><trkpt lat="39.53868392271261" lon="8.656727276633337"><ele>102.5</ele><time>2026-04-27T09:46:00.806Z</time></trkpt><trkpt lat="39.538671776174134" lon="8.656411351038754"><ele>102.0</ele><time>2026-04-27T09:46:01.806Z</time></trkpt><trkpt lat="39.53866530654382" lon="8.656094125465751"><ele>102.0</ele><time>2026-04-27T09:46:02.806Z</time></trkpt><trkpt lat="39.538655490499515" lon="8.655791449278448"><ele>102.0</ele><time>2026-04-27T09:46:03.806Z</time></trkpt><trkpt lat="39.53864455772472" lon="8.655502716301708"><ele>102.0</ele><time>2026-04-27T09:46:04.806Z</time></trkpt><trkpt lat="39.53863352674646" lon="8.655218980618836"><ele>102.0</ele><time>2026-04-27T09:46:05.806Z</time></trkpt><trkpt lat="39.538626501975315" lon="8.654940466371542"><ele>102.0</ele><time>2026-04-27T09:46:06.806Z</time></trkpt><trkpt lat="39.538618110141726" lon="8.654666021025054"><ele>102.33333333333334</ele><time>2026-04-27T09:46:07.806Z</time></trkpt><trkpt lat="39.538609706339535" lon="8.654382486866126"><ele>102.66666666666667</ele><time>2026-04-27T09:46:08.806Z</time></trkpt><trkpt lat="39.53859337255125" lon="8.654115423400897"><ele>103.0</ele><time>2026-04-27T09:46:09.806Z</time></trkpt><trkpt lat="39.53855223879695" lon="8.65386541145574"><ele>103.0</ele><time>2026-04-27T09:46:10.806Z</time></trkpt><trkpt lat="39.53848186729455" lon="8.653633593884635"><ele>103.0</ele><time>2026-04-27T09:46:11.806Z</time></trkpt><trkpt lat="39.5383884648038" lon="8.65340842330651"><ele>103.0</ele><time>2026-04-27T09:46:12.806Z</time></trkpt><trkpt lat="39.53828190128668" lon="8.653177382947803"><ele>102.66666666666667</ele><time>2026-04-27T09:46:13.806Z</time></trkpt><trkpt lat="39.53817157520584" lon="8.652943971447968"><ele>102.33333333333334</ele><time>2026-04-27T09:46:14.806Z</time></trkpt><trkpt lat="39.53806041681903" lon="8.652706933024309"><ele>102.0</ele><time>2026-04-27T09:46:15.806Z</time></trkpt><trkpt lat="39.537950073933544" lon="8.652471794845361"><ele>102.0</ele><time>2026-04-27T09:46:16.806Z</time></trkpt><trkpt lat="39.53784086467778" lon="8.652227340344758"><ele>102.0</ele><time>2026-04-27T09:46:17.806Z</time></trkpt><trkpt lat="39.53773108908956" lon="8.651985465072078"><ele>102.0</ele><time>2026-04-27T09:46:18.806Z</time></trkpt><trkpt lat="39.537611915690334" lon="8.651740585486356"><ele>102.0</ele><time>2026-04-27T09:46:19.806Z</time></trkpt><trkpt lat="39.53748170575085" lon="8.651501224856476"><ele>102.0</ele><time>2026-04-27T09:46:20.806Z</time></trkpt><trkpt lat="39.53734259281062" lon="8.651271054967834"><ele>102.33333333333334</ele><time>2026-04-27T09:46:21.806Z</time></trkpt><trkpt lat="39.53719918053377" lon="8.65104868630338"><ele>102.66666666666667</ele><time>2026-04-27T09:46:22.806Z</time></trkpt><trkpt lat="39.537056367612784" lon="8.650823358367559"><ele>103.0</ele><time>2026-04-27T09:46:23.806Z</time></trkpt><trkpt lat="39.536912906289636" lon="8.650596616845606"><ele>103.0</ele><time>2026-04-27T09:46:24.806Z</time></trkpt><trkpt lat="39.53677311642334" lon="8.650374180588047"><ele>103.0</ele><time>2026-04-27T09:46:25.805Z</time></trkpt><trkpt lat="39.53663444196553" lon="8.650166035086285"><ele>103.0</ele><time>2026-04-27T09:46:26.805Z</time></trkpt><trkpt lat="39.536494237913125" lon="8.649962037717314"><ele>102.66666666666667</ele><time>2026-04-27T09:46:27.805Z</time></trkpt><trkpt lat="39.53635845931609" lon="8.649769614558183"><ele>102.33333333333334</ele><time>2026-04-27T09:46:28.805Z</time></trkpt><trkpt lat="39.536229215627266" lon="8.649586339679617"><ele>102.0</ele><time>2026-04-27T09:46:29.805Z</time></trkpt><trkpt lat="39.53611423918996" lon="8.649400825850003"><ele>103.0</ele><time>2026-04-27T09:46:30.805Z</time></trkpt><trkpt lat="39.536008634814486" lon="8.649198633241433"><ele>104.0</ele><time>2026-04-27T09:46:31.805Z</time></trkpt><trkpt lat="39.53591119229958" lon="8.648982366599316"><ele>105.0</ele><time>2026-04-27T09:46:32.805Z</time></trkpt><trkpt lat="39.53582220051392" lon="8.648753909042643"><ele>104.33333333333334</ele><time>2026-04-27T09:46:33.805Z</time></trkpt><trkpt lat="39.53573563932441" lon="8.648522470707242"><ele>103.66666666666667</ele><time>2026-04-27T09:46:34.805Z</time></trkpt><trkpt lat="39.53565243861332" lon="8.648292208073666"><ele>103.0</ele><time>2026-04-27T09:46:35.805Z</time></trkpt><trkpt lat="39.535575591425605" lon="8.648061898475405"><ele>103.0</ele><time>2026-04-27T09:46:36.805Z</time></trkpt><trkpt lat="39.53550757584286" lon="8.64783612664583"><ele>103.0</ele><time>2026-04-27T09:46:37.805Z</time></trkpt><trkpt lat="39.53544108213298" lon="8.647607992012201"><ele>103.0</ele><time>2026-04-27T09:46:38.805Z</time></trkpt><trkpt lat="39.53538035742396" lon="8.64738200972715"><ele>103.66666666666667</ele><time>2026-04-27T09:46:39.805Z</time></trkpt><trkpt lat="39.5353284746553" lon="8.647156603405143"><ele>104.33333333333334</ele><time>2026-04-27T09:46:40.805Z</time></trkpt><trkpt lat="39.53528063928848" lon="8.646927507814896"><ele>105.0</ele><time>2026-04-27T09:46:41.805Z</time></trkpt><trkpt lat="39.535231837106316" lon="8.646701676949263"><ele>105.0</ele><time>2026-04-27T09:46:42.805Z</time></trkpt><trkpt lat="39.535181242835" lon="8.646480669489508"><ele>105.0</ele><time>2026-04-27T09:46:43.805Z</time></trkpt><trkpt lat="39.53513202698399" lon="8.646259699893514"><ele>105.0</ele><time>2026-04-27T09:46:44.805Z</time></trkpt><trkpt lat="39.53508932236287" lon="8.646037726952482"><ele>105.33333333333334</ele><time>2026-04-27T09:46:45.805Z</time></trkpt><trkpt lat="39.53506284699514" lon="8.645814841176213"><ele>105.66666666666667</ele><time>2026-04-27T09:46:46.805Z</time></trkpt><trkpt lat="39.53505682035266" lon="8.645590126471735"><ele>106.0</ele><time>2026-04-27T09:46:47.805Z</time></trkpt><trkpt lat="39.535066402102814" lon="8.64536751080795"><ele>107.0</ele><time>2026-04-27T09:46:48.805Z</time></trkpt><trkpt lat="39.53508141951918" lon="8.645154021938978"><ele>108.0</ele><time>2026-04-27T09:46:49.805Z</time></trkpt><trkpt lat="39.53508085765214" lon="8.644927089737656"><ele>109.0</ele><time>2026-04-27T09:46:50.805Z</time></trkpt><trkpt lat="39.53508897261743" lon="8.644681812620796"><ele>109.33333333333334</ele><time>2026-04-27T09:46:51.805Z</time></trkpt><trkpt lat="39.535089130932306" lon="8.644438321797015"><ele>109.66666666666666</ele><time>2026-04-27T09:46:52.805Z</time></trkpt><trkpt lat="39.535102017022325" lon="8.64421072595685"><ele>110.0</ele><time>2026-04-27T09:46:53.805Z</time></trkpt><trkpt lat="39.535113546697126" lon="8.644002610613775"><ele>110.0</ele><time>2026-04-27T09:46:54.805Z</time></trkpt><trkpt lat="39.53512800101901" lon="8.64379997754907"><ele>110.0</ele><time>2026-04-27T09:46:55.805Z</time></trkpt><trkpt lat="39.53514240842805" lon="8.643599165874125"><ele>110.0</ele><time>2026-04-27T09:46:56.805Z</time></trkpt><trkpt lat="39.53515809202156" lon="8.643390888293593"><ele>110.0</ele><time>2026-04-27T09:46:57.806Z</time></trkpt><trkpt lat="39.53517425024062" lon="8.643179515475707"><ele>110.0</ele><time>2026-04-27T09:46:58.806Z</time></trkpt><trkpt lat="39.53520123152791" lon="8.642971838984467"><ele>110.0</ele><time>2026-04-27T09:46:59.806Z</time></trkpt><trkpt lat="39.53524827784613" lon="8.642787479123113"><ele>110.0</ele><time>2026-04-27T09:47:00.806Z</time></trkpt><trkpt lat="39.535305934000974" lon="8.642607255937765"><ele>110.0</ele><time>2026-04-27T09:47:01.806Z</time></trkpt><trkpt lat="39.53535719411065" lon="8.642415496855712"><ele>110.0</ele><time>2026-04-27T09:47:02.806Z</time></trkpt><trkpt lat="39.535410848334244" lon="8.642240143248507"><ele>110.0</ele><time>2026-04-27T09:47:03.806Z</time></trkpt><trkpt lat="39.53546230141897" lon="8.642073327014227"><ele>110.0</ele><time>2026-04-27T09:47:04.806Z</time></trkpt><trkpt lat="39.53550578204373" lon="8.641926687696325"><ele>110.0</ele><time>2026-04-27T09:47:05.805Z</time></trkpt><trkpt lat="39.53554313248523" lon="8.641804804512354"><ele>110.0</ele><time>2026-04-27T09:47:06.806Z</time></trkpt><trkpt lat="39.53557226538224" lon="8.641708971938062"><ele>110.0</ele><time>2026-04-27T09:47:07.805Z</time></trkpt><trkpt lat="39.535600209340224" lon="8.641626459647803"><ele>109.99999999999999</ele><time>2026-04-27T09:47:08.805Z</time></trkpt><trkpt lat="39.53562644455893" lon="8.641551885810577"><ele>110.0</ele><time>2026-04-27T09:47:09.806Z</time></trkpt><trkpt lat="39.53565660609037" lon="8.641471539575184"><ele>110.0</ele><time>2026-04-27T09:47:10.806Z</time></trkpt><trkpt lat="39.53569187557729" lon="8.641381243574397"><ele>110.0</ele><time>2026-04-27T09:47:11.806Z</time></trkpt><trkpt lat="39.53572955860596" lon="8.641284460618241"><ele>109.99999999999999</ele><time>2026-04-27T09:47:12.806Z</time></trkpt><trkpt lat="39.53576650057058" lon="8.641175942639824"><ele>110.0</ele><time>2026-04-27T09:47:13.806Z</time></trkpt><trkpt lat="39.535802380175994" lon="8.641060976905088"><ele>110.4</ele><time>2026-04-27T09:47:14.806Z</time></trkpt><trkpt lat="39.53583985190409" lon="8.640939592036272"><ele>110.8</ele><time>2026-04-27T09:47:15.806Z</time></trkpt><trkpt lat="39.53588015670561" lon="8.640810824053666"><ele>111.19999999999999</ele><time>2026-04-27T09:47:16.806Z</time></trkpt><trkpt lat="39.53592278890793" lon="8.6406757520275"><ele>111.6</ele><time>2026-04-27T09:47:17.806Z</time></trkpt><trkpt lat="39.535960669794726" lon="8.640537400780154"><ele>112.0</ele><time>2026-04-27T09:47:18.806Z</time></trkpt><trkpt lat="39.536000083406535" lon="8.640407341751995"><ele>113.0</ele><time>2026-04-27T09:47:19.806Z</time></trkpt><trkpt lat="39.53603301763331" lon="8.640276327824187"><ele>113.99999999999999</ele><time>2026-04-27T09:47:20.806Z</time></trkpt><trkpt lat="39.53608260030159" lon="8.640155397369814"><ele>114.99999999999999</ele><time>2026-04-27T09:47:21.806Z</time></trkpt><trkpt lat="39.53611520691532" lon="8.64002618926665"><ele>116.0</ele><time>2026-04-27T09:47:22.806Z</time></trkpt><trkpt lat="39.53615280064442" lon="8.639896727835422"><ele>117.0</ele><time>2026-04-27T09:47:23.806Z</time></trkpt><trkpt lat="39.53619314772876" lon="8.639775065321114"><ele>115.6</ele><time>2026-04-27T09:47:24.806Z</time></trkpt><trkpt lat="39.53624199085846" lon="8.639661045800736"><ele>114.19999999999999</ele><time>2026-04-27T09:47:25.806Z</time></trkpt><trkpt lat="39.53630049832976" lon="8.639559279940022"><ele>112.8</ele><time>2026-04-27T09:47:26.806Z</time></trkpt><trkpt lat="39.536369168432834" lon="8.639479775395356"><ele>111.4</ele><time>2026-04-27T09:47:27.806Z</time></trkpt><trkpt lat="39.53644409697922" lon="8.639422733881238"><ele>110.0</ele><time>2026-04-27T09:47:28.805Z</time></trkpt><trkpt lat="39.536513823615245" lon="8.639373901822953"><ele>109.85714285714285</ele><time>2026-04-27T09:47:29.805Z</time></trkpt><trkpt lat="39.536580219317116" lon="8.63932616609429"><ele>109.71428571428571</ele><time>2026-04-27T09:47:30.805Z</time></trkpt><trkpt lat="39.536627669466405" lon="8.639262382528457"><ele>109.57142857142857</ele><time>2026-04-27T09:47:31.805Z</time></trkpt><trkpt lat="39.53665145377891" lon="8.639184012152068"><ele>109.42857142857142</ele><time>2026-04-27T09:47:32.805Z</time></trkpt><trkpt lat="39.53663768174108" lon="8.639081376783388"><ele>109.28571428571429</ele><time>2026-04-27T09:47:33.805Z</time></trkpt><trkpt lat="39.53659770512058" lon="8.639003399579067"><ele>109.14285714285714</ele><time>2026-04-27T09:47:34.805Z</time></trkpt><trkpt lat="39.53655005203997" lon="8.638910486004498"><ele>109.0</ele><time>2026-04-27T09:47:35.805Z</time></trkpt><trkpt lat="39.536520936748374" lon="8.638807715276531"><ele>109.0</ele><time>2026-04-27T09:47:36.805Z</time></trkpt><trkpt lat="39.53651133989777" lon="8.638696522707868"><ele>109.0</ele><time>2026-04-27T09:47:37.805Z</time></trkpt><trkpt lat="39.53652227502251" lon="8.638580355118116"><ele>109.0</ele><time>2026-04-27T09:47:38.805Z</time></trkpt><trkpt lat="39.5365464680714" lon="8.638457689491094"><ele>109.0</ele><time>2026-04-27T09:47:39.805Z</time></trkpt><trkpt lat="39.536577308636836" lon="8.638330529781102"><ele>109.0</ele><time>2026-04-27T09:47:40.805Z</time></trkpt><trkpt lat="39.536610908763514" lon="8.638203189175119"><ele>109.80000000000001</ele><time>2026-04-27T09:47:41.805Z</time></trkpt><trkpt lat="39.53664686338426" lon="8.638070604524165"><ele>110.60000000000001</ele><time>2026-04-27T09:47:42.805Z</time></trkpt><trkpt lat="39.53668352041763" lon="8.637940899543725"><ele>111.4</ele><time>2026-04-27T09:47:43.805Z</time></trkpt><trkpt lat="39.536725155197324" lon="8.637823890346246"><ele>112.2</ele><time>2026-04-27T09:47:44.805Z</time></trkpt><trkpt lat="39.53676132512575" lon="8.637712649522074"><ele>113.0</ele><time>2026-04-27T09:47:45.805Z</time></trkpt><trkpt lat="39.5367869870018" lon="8.637600822519644"><ele>113.16666666666666</ele><time>2026-04-27T09:47:46.805Z</time></trkpt><trkpt lat="39.53681213282437" lon="8.637488715356225"><ele>113.33333333333333</ele><time>2026-04-27T09:47:47.805Z</time></trkpt><trkpt lat="39.53684151269179" lon="8.63738113579024"><ele>113.5</ele><time>2026-04-27T09:47:48.805Z</time></trkpt><trkpt lat="39.53687234225823" lon="8.637277925717678"><ele>113.66666666666666</ele><time>2026-04-27T09:47:49.805Z</time></trkpt><trkpt lat="39.53689726210685" lon="8.63718574734911"><ele>113.83333333333333</ele><time>2026-04-27T09:47:50.805Z</time></trkpt><trkpt lat="39.53692106673436" lon="8.637090843511496"><ele>114.0</ele><time>2026-04-27T09:47:51.805Z</time></trkpt><trkpt lat="39.53694231387624" lon="8.636994772398594"><ele>114.33333333333333</ele><time>2026-04-27T09:47:52.805Z</time></trkpt><trkpt lat="39.536964405771634" lon="8.636909251293412"><ele>114.66666666666666</ele><time>2026-04-27T09:47:53.805Z</time></trkpt><trkpt lat="39.536991893122455" lon="8.636795352099572"><ele>115.0</ele><time>2026-04-27T09:47:55.805Z</time></trkpt><trkpt lat="39.53700633857195" lon="8.636711006174332"><ele>115.33333333333333</ele><time>2026-04-27T09:48:00.805Z</time></trkpt><trkpt lat="39.5369843852073" lon="8.636626884497886"><ele>115.66666666666666</ele><time>2026-04-27T09:48:03.805Z</time></trkpt><trkpt lat="39.53687624320306" lon="8.636556496956112"><ele>116.0</ele><time>2026-04-27T09:48:06.804Z</time></trkpt><trkpt lat="39.53681038003524" lon="8.636542541326847"><ele>116.0</ele><time>2026-04-27T09:48:08.804Z</time></trkpt><trkpt lat="39.53679040986559" lon="8.636752827091206"><ele>116.0</ele><time>2026-04-27T09:48:11.804Z</time></trkpt><trkpt lat="39.536784082390305" lon="8.63655030407177"><ele>116.0</ele><time>2026-04-27T09:50:36.801Z</time></trkpt><trkpt lat="39.53678366339198" lon="8.636648468833439"><ele>116.0</ele><time>2026-04-27T09:56:32.789Z</time></trkpt><trkpt lat="39.53673910845176" lon="8.636707082011004"><ele>116.0</ele><time>2026-04-27T09:56:42.789Z</time></trkpt><trkpt lat="39.53675673840336" lon="8.636821781152305"><ele>116.0</ele><time>2026-04-27T09:56:46.789Z</time></trkpt><trkpt lat="39.53681859653723" lon="8.63688869361002"><ele>116.0</ele><time>2026-04-27T09:56:49.788Z</time></trkpt><trkpt lat="39.53685063966649" lon="8.636960508014225"><ele>116.0</ele><time>2026-04-27T09:56:53.788Z</time></trkpt><trkpt lat="39.53693269266922" lon="8.636930008704942"><ele>116.0</ele><time>2026-04-27T09:57:11.788Z</time></trkpt><trkpt lat="39.5369832327499" lon="8.636774371323218"><ele>115.99999999999999</ele><time>2026-04-27T09:57:13.788Z</time></trkpt><trkpt lat="39.53700534325643" lon="8.636687487576241"><ele>116.0</ele><time>2026-04-27T09:57:14.788Z</time></trkpt><trkpt lat="39.53702849031252" lon="8.63660983573724"><ele>116.0</ele><time>2026-04-27T09:57:15.788Z</time></trkpt><trkpt lat="39.53705542474832" lon="8.636535101759007"><ele>116.0</ele><time>2026-04-27T09:57:16.788Z</time></trkpt><trkpt lat="39.53707674963733" lon="8.6364571300436"><ele>115.99999999999999</ele><time>2026-04-27T09:57:17.788Z</time></trkpt><trkpt lat="39.537114855942484" lon="8.636308017322637"><ele>116.0</ele><time>2026-04-27T09:57:19.788Z</time></trkpt><trkpt lat="39.537142141274714" lon="8.636193175748604"><ele>117.0</ele><time>2026-04-27T09:57:21.788Z</time></trkpt><trkpt lat="39.53716131518672" lon="8.636109524913527"><ele>118.0</ele><time>2026-04-27T09:57:55.788Z</time></trkpt><trkpt lat="39.5372105867818" lon="8.63597274856764"><ele>119.0</ele><time>2026-04-27T09:57:57.788Z</time></trkpt><trkpt lat="39.537238007608195" lon="8.635810620200326"><ele>120.0</ele><time>2026-04-27T09:57:59.788Z</time></trkpt><trkpt lat="39.53726006334257" lon="8.635727931441341"><ele>121.0</ele><time>2026-04-27T09:58:00.788Z</time></trkpt><trkpt lat="39.537284976724884" lon="8.635633699951509"><ele>121.00000000000001</ele><time>2026-04-27T09:58:01.788Z</time></trkpt><trkpt lat="39.53732718370115" lon="8.635541533834802"><ele>121.0</ele><time>2026-04-27T09:58:02.788Z</time></trkpt><trkpt lat="39.537355755529" lon="8.635439498954986"><ele>121.0</ele><time>2026-04-27T09:58:03.788Z</time></trkpt><trkpt lat="39.53738138383497" lon="8.635346847052963"><ele>121.0</ele><time>2026-04-27T09:58:04.788Z</time></trkpt><trkpt lat="39.53739674426913" lon="8.635235161556558"><ele>121.00000000000001</ele><time>2026-04-27T09:58:05.788Z</time></trkpt><trkpt lat="39.537436514732256" lon="8.6351339269554"><ele>121.0</ele><time>2026-04-27T09:58:06.788Z</time></trkpt><trkpt lat="39.537461814410996" lon="8.635028476405353"><ele>121.0</ele><time>2026-04-27T09:58:07.788Z</time></trkpt><trkpt lat="39.53749149766715" lon="8.634915179739542"><ele>121.0</ele><time>2026-04-27T09:58:08.788Z</time></trkpt><trkpt lat="39.53752636959738" lon="8.634800597390935"><ele>121.0</ele><time>2026-04-27T09:58:09.788Z</time></trkpt><trkpt lat="39.53755526674839" lon="8.634687853293528"><ele>121.0</ele><time>2026-04-27T09:58:10.788Z</time></trkpt><trkpt lat="39.537583219888205" lon="8.634578238171857"><ele>121.0</ele><time>2026-04-27T09:58:11.788Z</time></trkpt><trkpt lat="39.537617618989024" lon="8.634465996197674"><ele>120.8</ele><time>2026-04-27T09:58:12.788Z</time></trkpt><trkpt lat="39.5376527252498" lon="8.634344533405283"><ele>120.6</ele><time>2026-04-27T09:58:13.788Z</time></trkpt><trkpt lat="39.5376880767044" lon="8.63422684847332"><ele>120.4</ele><time>2026-04-27T09:58:14.788Z</time></trkpt><trkpt lat="39.53772335587546" lon="8.634104977553827"><ele>120.2</ele><time>2026-04-27T09:58:15.788Z</time></trkpt><trkpt lat="39.5377518181472" lon="8.633981466415076"><ele>120.0</ele><time>2026-04-27T09:58:16.788Z</time></trkpt><trkpt lat="39.5377781539967" lon="8.633857380179936"><ele>120.0</ele><time>2026-04-27T09:58:17.788Z</time></trkpt><trkpt lat="39.537822692471465" lon="8.633728048185715"><ele>120.0</ele><time>2026-04-27T09:58:18.788Z</time></trkpt><trkpt lat="39.537859738366876" lon="8.633603481095886"><ele>120.0</ele><time>2026-04-27T09:58:19.787Z</time></trkpt><trkpt lat="39.537893797847" lon="8.63347990829642"><ele>120.0</ele><time>2026-04-27T09:58:20.787Z</time></trkpt><trkpt lat="39.53792035162075" lon="8.633362471043968"><ele>120.0</ele><time>2026-04-27T09:58:21.787Z</time></trkpt><trkpt lat="39.53794755658812" lon="8.633247500095248"><ele>120.4</ele><time>2026-04-27T09:58:22.787Z</time></trkpt><trkpt lat="39.537971799292535" lon="8.633119923688735"><ele>120.8</ele><time>2026-04-27T09:58:23.787Z</time></trkpt><trkpt lat="39.538002683596" lon="8.63299341552694"><ele>121.19999999999999</ele><time>2026-04-27T09:58:24.787Z</time></trkpt><trkpt lat="39.53803492850709" lon="8.632862371009692"><ele>121.6</ele><time>2026-04-27T09:58:25.787Z</time></trkpt><trkpt lat="39.53807030392367" lon="8.632738082461326"><ele>122.0</ele><time>2026-04-27T09:58:26.787Z</time></trkpt><trkpt lat="39.53810805378676" lon="8.632616386544248"><ele>122.19999999999999</ele><time>2026-04-27T09:58:27.787Z</time></trkpt><trkpt lat="39.53814687262345" lon="8.632492016373266"><ele>122.39999999999999</ele><time>2026-04-27T09:58:28.787Z</time></trkpt><trkpt lat="39.538186956553574" lon="8.632368631477007"><ele>122.60000000000001</ele><time>2026-04-27T09:58:29.787Z</time></trkpt><trkpt lat="39.53821995009423" lon="8.632243432274421"><ele>122.80000000000001</ele><time>2026-04-27T09:58:30.787Z</time></trkpt><trkpt lat="39.53824821164394" lon="8.632120321869042"><ele>123.0</ele><time>2026-04-27T09:58:31.787Z</time></trkpt><trkpt lat="39.538274561691146" lon="8.631999236874835"><ele>123.0</ele><time>2026-04-27T09:58:32.787Z</time></trkpt><trkpt lat="39.53830528936584" lon="8.63187355961574"><ele>123.00000000000001</ele><time>2026-04-27T09:58:33.787Z</time></trkpt><trkpt lat="39.538326278212395" lon="8.631742580719536"><ele>123.00000000000001</ele><time>2026-04-27T09:58:34.787Z</time></trkpt><trkpt lat="39.53835639226469" lon="8.631621221390908"><ele>123.0</ele><time>2026-04-27T09:58:35.787Z</time></trkpt><trkpt lat="39.53838792072713" lon="8.63150856856858"><ele>123.0</ele><time>2026-04-27T09:58:36.787Z</time></trkpt><trkpt lat="39.538417038339944" lon="8.63141455822588"><ele>123.0</ele><time>2026-04-27T09:58:37.787Z</time></trkpt><trkpt lat="39.538438451251125" lon="8.6313292260852"><ele>123.0</ele><time>2026-04-27T09:58:38.787Z</time></trkpt><trkpt lat="39.53847164871943" lon="8.631194031894026"><ele>123.0</ele><time>2026-04-27T09:58:40.787Z</time></trkpt><trkpt lat="39.53848545780776" lon="8.631107023959816"><ele>123.0</ele><time>2026-04-27T09:58:42.787Z</time></trkpt><trkpt lat="39.5384729461742" lon="8.631016892296907"><ele>123.0</ele><time>2026-04-27T09:59:35.786Z</time></trkpt><trkpt lat="39.5385113663886" lon="8.630863866977293"><ele>123.0</ele><time>2026-04-27T09:59:37.786Z</time></trkpt><trkpt lat="39.538544960300854" lon="8.630746090483697"><ele>123.0</ele><time>2026-04-27T09:59:38.786Z</time></trkpt><trkpt lat="39.53857679416954" lon="8.63062306502036"><ele>123.00000000000001</ele><time>2026-04-27T09:59:39.786Z</time></trkpt><trkpt lat="39.53860537181635" lon="8.630501720447313"><ele>123.00000000000001</ele><time>2026-04-27T09:59:40.786Z</time></trkpt><trkpt lat="39.538634585238654" lon="8.630373147257382"><ele>123.0</ele><time>2026-04-27T09:59:41.786Z</time></trkpt><trkpt lat="39.53866760682602" lon="8.630242605243415"><ele>123.0</ele><time>2026-04-27T09:59:42.786Z</time></trkpt><trkpt lat="39.53870453472834" lon="8.630110651198237"><ele>123.25</ele><time>2026-04-27T09:59:43.786Z</time></trkpt><trkpt lat="39.53874172688663" lon="8.629976669558022"><ele>123.5</ele><time>2026-04-27T09:59:44.786Z</time></trkpt><trkpt lat="39.538775423900994" lon="8.629836120608433"><ele>123.75</ele><time>2026-04-27T09:59:45.786Z</time></trkpt><trkpt lat="39.53880507216996" lon="8.62968906578753"><ele>124.0</ele><time>2026-04-27T09:59:46.786Z</time></trkpt><trkpt lat="39.538848203566396" lon="8.629542868156243"><ele>124.5</ele><time>2026-04-27T09:59:47.786Z</time></trkpt><trkpt lat="39.538883764282254" lon="8.629402494734826"><ele>125.0</ele><time>2026-04-27T09:59:48.786Z</time></trkpt><trkpt lat="39.53891573090239" lon="8.62925860151316"><ele>125.5</ele><time>2026-04-27T09:59:49.786Z</time></trkpt><trkpt lat="39.53894933130693" lon="8.629112252634929"><ele>126.0</ele><time>2026-04-27T09:59:50.786Z</time></trkpt><trkpt lat="39.53897643546196" lon="8.628965284295464"><ele>126.0</ele><time>2026-04-27T09:59:51.786Z</time></trkpt><trkpt lat="39.53900269472069" lon="8.628824133826049"><ele>126.0</ele><time>2026-04-27T09:59:52.786Z</time></trkpt><trkpt lat="39.53902479282864" lon="8.628685947521353"><ele>126.0</ele><time>2026-04-27T09:59:53.786Z</time></trkpt><trkpt lat="39.53905411285341" lon="8.628549905104387"><ele>126.0</ele><time>2026-04-27T09:59:54.786Z</time></trkpt><trkpt lat="39.539072447279594" lon="8.62840779700499"><ele>126.0</ele><time>2026-04-27T09:59:55.785Z</time></trkpt><trkpt lat="39.53909538089892" lon="8.628268705916172"><ele>126.8</ele><time>2026-04-27T09:59:56.785Z</time></trkpt><trkpt lat="39.5391043484238" lon="8.628128343747866"><ele>127.6</ele><time>2026-04-27T09:59:57.785Z</time></trkpt><trkpt lat="39.53910382876467" lon="8.627997915333463"><ele>128.4</ele><time>2026-04-27T09:59:58.785Z</time></trkpt><trkpt lat="39.53911942298135" lon="8.62786769267409"><ele>129.2</ele><time>2026-04-27T09:59:59.785Z</time></trkpt><trkpt lat="39.53913979144546" lon="8.627761444948048"><ele>130.0</ele><time>2026-04-27T10:00:00.785Z</time></trkpt><trkpt lat="39.53915378234641" lon="8.627649168018479"><ele>130.8</ele><time>2026-04-27T10:00:01.785Z</time></trkpt><trkpt lat="39.53917771019603" lon="8.627546762055031"><ele>131.6</ele><time>2026-04-27T10:00:02.785Z</time></trkpt><trkpt lat="39.53921440268546" lon="8.627411031788883"><ele>132.4</ele><time>2026-04-27T10:00:04.785Z</time></trkpt><trkpt lat="39.53924697698537" lon="8.6273112173197"><ele>133.2</ele><time>2026-04-27T10:00:06.785Z</time></trkpt><trkpt lat="39.53928611275367" lon="8.627197219079804"><ele>134.0</ele><time>2026-04-27T10:00:08.785Z</time></trkpt><trkpt lat="39.53937960597822" lon="8.627069789193825"><ele>134.0</ele><time>2026-04-27T10:00:10.785Z</time></trkpt><trkpt lat="39.53940689648816" lon="8.626975279166283"><ele>134.0</ele><time>2026-04-27T10:00:11.785Z</time></trkpt><trkpt lat="39.53943338800055" lon="8.626859538832418"><ele>134.0</ele><time>2026-04-27T10:00:13.785Z</time></trkpt><trkpt lat="39.53945384182919" lon="8.626769327896145"><ele>134.0</ele><time>2026-04-27T10:00:15.785Z</time></trkpt><trkpt lat="39.53947763949295" lon="8.626656620739341"><ele>134.0</ele><time>2026-04-27T10:00:17.785Z</time></trkpt><trkpt lat="39.53951624019028" lon="8.626494494858814"><ele>134.0</ele><time>2026-04-27T10:00:19.785Z</time></trkpt><trkpt lat="39.53953716874737" lon="8.626408097475874"><ele>134.0</ele><time>2026-04-27T10:00:20.785Z</time></trkpt><trkpt lat="39.53955905270464" lon="8.626319385238093"><ele>134.0</ele><time>2026-04-27T10:00:21.785Z</time></trkpt><trkpt lat="39.53957979261632" lon="8.626236075505595"><ele>134.0</ele><time>2026-04-27T10:00:22.785Z</time></trkpt><trkpt lat="39.539613589844215" lon="8.626107177873212"><ele>134.0</ele><time>2026-04-27T10:00:24.785Z</time></trkpt><trkpt lat="39.53966412825918" lon="8.62597602982885"><ele>134.0</ele><time>2026-04-27T10:01:00.784Z</time></trkpt><trkpt lat="39.539707296256154" lon="8.625871625028037"><ele>134.33333333333331</ele><time>2026-04-27T10:01:02.784Z</time></trkpt><trkpt lat="39.53973710727448" lon="8.62579952501708"><ele>134.66666666666666</ele><time>2026-04-27T10:01:03.784Z</time></trkpt><trkpt lat="39.53977364734546" lon="8.625711150281209"><ele>135.0</ele><time>2026-04-27T10:01:04.784Z</time></trkpt><trkpt lat="39.53981064158725" lon="8.625617334558658"><ele>135.33333333333334</ele><time>2026-04-27T10:01:05.783Z</time></trkpt><trkpt lat="39.5398425487869" lon="8.625522340154179"><ele>135.66666666666669</ele><time>2026-04-27T10:01:06.783Z</time></trkpt><trkpt lat="39.53987098916625" lon="8.625423847008426"><ele>136.0</ele><time>2026-04-27T10:01:07.783Z</time></trkpt><trkpt lat="39.539891479383954" lon="8.625310566498852"><ele>136.0</ele><time>2026-04-27T10:01:08.783Z</time></trkpt><trkpt lat="39.53990245733166" lon="8.625195331312668"><ele>136.0</ele><time>2026-04-27T10:01:09.783Z</time></trkpt><trkpt lat="39.5399123054706" lon="8.625076405980662"><ele>136.0</ele><time>2026-04-27T10:01:10.783Z</time></trkpt><trkpt lat="39.53992590531807" lon="8.624952833260263"><ele>136.0</ele><time>2026-04-27T10:01:11.783Z</time></trkpt><trkpt lat="39.53994128190378" lon="8.62483625283129"><ele>136.0</ele><time>2026-04-27T10:01:12.783Z</time></trkpt><trkpt lat="39.53997814853186" lon="8.624715290067517"><ele>136.0</ele><time>2026-04-27T10:01:13.783Z</time></trkpt><trkpt lat="39.540033920996436" lon="8.62463442267667"><ele>136.0</ele><time>2026-04-27T10:01:14.783Z</time></trkpt><trkpt lat="39.54009451495802" lon="8.624552198743244"><ele>136.0</ele><time>2026-04-27T10:01:15.783Z</time></trkpt><trkpt lat="39.5401532409786" lon="8.624472509541107"><ele>136.0</ele><time>2026-04-27T10:01:16.783Z</time></trkpt><trkpt lat="39.54021759668097" lon="8.624385284885353"><ele>136.0</ele><time>2026-04-27T10:01:17.783Z</time></trkpt><trkpt lat="39.54028329369569" lon="8.624297213589033"><ele>136.0</ele><time>2026-04-27T10:01:18.783Z</time></trkpt><trkpt lat="39.540350488647526" lon="8.624202605124049"><ele>137.0</ele><time>2026-04-27T10:01:19.783Z</time></trkpt><trkpt lat="39.540408266950855" lon="8.624102197790263"><ele>138.0</ele><time>2026-04-27T10:01:20.783Z</time></trkpt><trkpt lat="39.54046241665188" lon="8.623987423586529"><ele>139.0</ele><time>2026-04-27T10:01:21.783Z</time></trkpt><trkpt lat="39.54050477215081" lon="8.623870553888398"><ele>140.0</ele><time>2026-04-27T10:01:22.783Z</time></trkpt><trkpt lat="39.54053035946808" lon="8.623749037578099"><ele>141.0</ele><time>2026-04-27T10:01:23.783Z</time></trkpt><trkpt lat="39.5405361624461" lon="8.623629163249594"><ele>142.0</ele><time>2026-04-27T10:01:24.783Z</time></trkpt><trkpt lat="39.54053437562646" lon="8.623486601169434"><ele>143.0</ele><time>2026-04-27T10:01:25.783Z</time></trkpt><trkpt lat="39.54053406244404" lon="8.623352495608342"><ele>144.0</ele><time>2026-04-27T10:01:26.783Z</time></trkpt><trkpt lat="39.54053406244173" lon="8.623233384493762"><ele>145.0</ele><time>2026-04-27T10:01:27.783Z</time></trkpt><trkpt lat="39.540535675691366" lon="8.623110125811499"><ele>146.0</ele><time>2026-04-27T10:01:28.783Z</time></trkpt><trkpt lat="39.54052489966879" lon="8.622981630044594"><ele>146.0</ele><time>2026-04-27T10:01:29.783Z</time></trkpt><trkpt lat="39.5405671066563" lon="8.62286676117558"><ele>146.0</ele><time>2026-04-27T10:01:30.783Z</time></trkpt><trkpt lat="39.540608430383074" lon="8.6227662043191"><ele>146.0</ele><time>2026-04-27T10:01:31.783Z</time></trkpt><trkpt lat="39.540668911176056" lon="8.622676704698986"><ele>146.0</ele><time>2026-04-27T10:01:32.783Z</time></trkpt><trkpt lat="39.54074634225276" lon="8.622611406022193"><ele>146.0</ele><time>2026-04-27T10:01:33.783Z</time></trkpt><trkpt lat="39.54083780073523" lon="8.622557126021984"><ele>146.8</ele><time>2026-04-27T10:01:34.783Z</time></trkpt><trkpt lat="39.54090528980089" lon="8.622476494701443"><ele>147.6</ele><time>2026-04-27T10:01:35.783Z</time></trkpt><trkpt lat="39.540942314161725" lon="8.62235619689153"><ele>148.4</ele><time>2026-04-27T10:01:36.783Z</time></trkpt><trkpt lat="39.54097784395083" lon="8.622253609389196"><ele>149.2</ele><time>2026-04-27T10:01:37.783Z</time></trkpt><trkpt lat="39.540974552744416" lon="8.622115710256553"><ele>150.0</ele><time>2026-04-27T10:01:38.783Z</time></trkpt><trkpt lat="39.54096410518443" lon="8.621986628715355"><ele>151.2</ele><time>2026-04-27T10:01:39.783Z</time></trkpt><trkpt lat="39.54095904469394" lon="8.621847524890622"><ele>152.4</ele><time>2026-04-27T10:01:40.783Z</time></trkpt><trkpt lat="39.54095848787999" lon="8.621729298822217"><ele>153.6</ele><time>2026-04-27T10:01:41.783Z</time></trkpt><trkpt lat="39.54098574941566" lon="8.621603867125312"><ele>154.8</ele><time>2026-04-27T10:01:42.784Z</time></trkpt><trkpt lat="39.541029803640285" lon="8.621496495997267"><ele>156.0</ele><time>2026-04-27T10:01:43.783Z</time></trkpt><trkpt lat="39.54111144315228" lon="8.621433764146765"><ele>156.0</ele><time>2026-04-27T10:01:44.783Z</time></trkpt><trkpt lat="39.541189568767095" lon="8.621354187105512"><ele>156.0</ele><time>2026-04-27T10:01:45.784Z</time></trkpt><trkpt lat="39.54125526111338" lon="8.621254811164853"><ele>156.0</ele><time>2026-04-27T10:01:46.783Z</time></trkpt><trkpt lat="39.54134236470912" lon="8.621169738697482"><ele>156.0</ele><time>2026-04-27T10:01:47.783Z</time></trkpt><trkpt lat="39.541431645939625" lon="8.621077304188757"><ele>156.0</ele><time>2026-04-27T10:01:48.783Z</time></trkpt><trkpt lat="39.54151319731333" lon="8.620978504654028"><ele>156.8</ele><time>2026-04-27T10:01:49.783Z</time></trkpt><trkpt lat="39.54157018649994" lon="8.620874458513082"><ele>157.6</ele><time>2026-04-27T10:01:50.783Z</time></trkpt><trkpt lat="39.54162932521988" lon="8.620784557455776"><ele>158.4</ele><time>2026-04-27T10:01:51.783Z</time></trkpt><trkpt lat="39.541654378872835" lon="8.620679037265578"><ele>159.2</ele><time>2026-04-27T10:01:52.783Z</time></trkpt><trkpt lat="39.54161811741288" lon="8.62056299552498"><ele>160.0</ele><time>2026-04-27T10:01:53.783Z</time></trkpt><trkpt lat="39.54156233856887" lon="8.62046946291565"><ele>160.0</ele><time>2026-04-27T10:01:54.783Z</time></trkpt><trkpt lat="39.54146716575572" lon="8.620402175515355"><ele>160.0</ele><time>2026-04-27T10:01:55.783Z</time></trkpt><trkpt lat="39.54136134531319" lon="8.620323631479746"><ele>160.0</ele><time>2026-04-27T10:01:56.783Z</time></trkpt><trkpt lat="39.541270434032754" lon="8.62022994131908"><ele>160.0</ele><time>2026-04-27T10:01:57.783Z</time></trkpt><trkpt lat="39.54117433032691" lon="8.620141736748142"><ele>161.25</ele><time>2026-04-27T10:01:58.783Z</time></trkpt><trkpt lat="39.541102055597975" lon="8.620038604412606"><ele>162.5</ele><time>2026-04-27T10:01:59.783Z</time></trkpt><trkpt lat="39.54105424575046" lon="8.619905787381217"><ele>163.75</ele><time>2026-04-27T10:02:00.783Z</time></trkpt><trkpt lat="39.54104970656417" lon="8.619749717467716"><ele>165.0</ele><time>2026-04-27T10:02:01.783Z</time></trkpt><trkpt lat="39.541065707541655" lon="8.619582392212992"><ele>166.0</ele><time>2026-04-27T10:02:02.783Z</time></trkpt><trkpt lat="39.541087496048654" lon="8.619412071535969"><ele>167.0</ele><time>2026-04-27T10:02:03.783Z</time></trkpt><trkpt lat="39.541090886919335" lon="8.619241765125704"><ele>168.0</ele><time>2026-04-27T10:02:04.783Z</time></trkpt><trkpt lat="39.54109215395719" lon="8.6190637002369"><ele>169.0</ele><time>2026-04-27T10:02:05.783Z</time></trkpt><trkpt lat="39.54109810747285" lon="8.618881999521724"><ele>169.0</ele><time>2026-04-27T10:02:06.783Z</time></trkpt><trkpt lat="39.541092068590835" lon="8.618687956820159"><ele>169.0</ele><time>2026-04-27T10:02:07.783Z</time></trkpt><trkpt lat="39.541056559813555" lon="8.618497313018159"><ele>169.0</ele><time>2026-04-27T10:02:08.783Z</time></trkpt><trkpt lat="39.54098765638163" lon="8.618312329190069"><ele>169.5</ele><time>2026-04-27T10:02:09.783Z</time></trkpt><trkpt lat="39.540926518853915" lon="8.618143818588274"><ele>170.0</ele><time>2026-04-27T10:02:10.783Z</time></trkpt><trkpt lat="39.540860804379314" lon="8.617975213139063"><ele>170.5</ele><time>2026-04-27T10:02:11.783Z</time></trkpt><trkpt lat="39.54079605790662" lon="8.617814473223655"><ele>171.0</ele><time>2026-04-27T10:02:12.782Z</time></trkpt><trkpt lat="39.54073911029047" lon="8.61765468782047"><ele>172.5</ele><time>2026-04-27T10:02:13.782Z</time></trkpt><trkpt lat="39.540699313890286" lon="8.617478705259215"><ele>174.0</ele><time>2026-04-27T10:02:14.782Z</time></trkpt><trkpt lat="39.54069249534782" lon="8.61727993656538"><ele>175.5</ele><time>2026-04-27T10:02:15.782Z</time></trkpt><trkpt lat="39.54070925762075" lon="8.617081725940901"><ele>177.0</ele><time>2026-04-27T10:02:16.782Z</time></trkpt><trkpt lat="39.54073100829717" lon="8.616899343384722"><ele>178.75</ele><time>2026-04-27T10:02:17.782Z</time></trkpt><trkpt lat="39.5407562485998" lon="8.616733471435564"><ele>180.5</ele><time>2026-04-27T10:02:18.782Z</time></trkpt><trkpt lat="39.54079822338873" lon="8.616592553834042"><ele>182.25</ele><time>2026-04-27T10:02:19.782Z</time></trkpt><trkpt lat="39.54086867462303" lon="8.6164952745766"><ele>184.0</ele><time>2026-04-27T10:02:20.782Z</time></trkpt><trkpt lat="39.54097655691663" lon="8.616441607806694"><ele>184.0</ele><time>2026-04-27T10:02:21.782Z</time></trkpt><trkpt lat="39.54110852719428" lon="8.616417140266744"><ele>184.0</ele><time>2026-04-27T10:02:22.782Z</time></trkpt><trkpt lat="39.54123607396658" lon="8.616410313203547"><ele>184.0</ele><time>2026-04-27T10:02:23.782Z</time></trkpt><trkpt lat="39.541357882873186" lon="8.616403109732275"><ele>184.0</ele><time>2026-04-27T10:02:24.782Z</time></trkpt><trkpt lat="39.54147094987397" lon="8.616404663133956"><ele>185.0</ele><time>2026-04-27T10:02:25.782Z</time></trkpt><trkpt lat="39.541579585431826" lon="8.616402990111153"><ele>186.0</ele><time>2026-04-27T10:02:26.782Z</time></trkpt><trkpt lat="39.541671945417484" lon="8.616452486788418"><ele>187.0</ele><time>2026-04-27T10:02:27.782Z</time></trkpt><trkpt lat="39.5417348887383" lon="8.61657306789336"><ele>188.0</ele><time>2026-04-27T10:02:28.782Z</time></trkpt><trkpt lat="39.541773192593986" lon="8.616711687467513"><ele>189.0</ele><time>2026-04-27T10:02:29.782Z</time></trkpt><trkpt lat="39.54180376259621" lon="8.616871941383007"><ele>187.75</ele><time>2026-04-27T10:02:30.782Z</time></trkpt><trkpt lat="39.54183655006566" lon="8.617033250251174"><ele>186.5</ele><time>2026-04-27T10:02:31.782Z</time></trkpt><trkpt lat="39.54187680915938" lon="8.617187412893522"><ele>185.25</ele><time>2026-04-27T10:02:32.782Z</time></trkpt><trkpt lat="39.54191315681431" lon="8.617326135201475"><ele>184.0</ele><time>2026-04-27T10:02:33.782Z</time></trkpt><trkpt lat="39.541960006295895" lon="8.617449422838803"><ele>184.0</ele><time>2026-04-27T10:02:34.782Z</time></trkpt><trkpt lat="39.54203134673261" lon="8.617526961957848"><ele>184.0</ele><time>2026-04-27T10:02:35.782Z</time></trkpt><trkpt lat="39.54212033066233" lon="8.617548353546637"><ele>184.0</ele><time>2026-04-27T10:02:36.782Z</time></trkpt><trkpt lat="39.54220883136116" lon="8.617501310097863"><ele>184.0</ele><time>2026-04-27T10:02:37.782Z</time></trkpt><trkpt lat="39.54226428792102" lon="8.61738459696492"><ele>184.0</ele><time>2026-04-27T10:02:38.782Z</time></trkpt><trkpt lat="39.542285938337216" lon="8.617217709055438"><ele>186.33333333333334</ele><time>2026-04-27T10:02:39.782Z</time></trkpt><trkpt lat="39.54231534263547" lon="8.617025460152202"><ele>188.66666666666666</ele><time>2026-04-27T10:02:40.782Z</time></trkpt><trkpt lat="39.54237986231946" lon="8.616809368762187"><ele>191.0</ele><time>2026-04-27T10:02:41.782Z</time></trkpt><trkpt lat="39.54244046770057" lon="8.61658057221567"><ele>192.66666666666666</ele><time>2026-04-27T10:02:42.782Z</time></trkpt><trkpt lat="39.54249476029276" lon="8.616349338680577"><ele>194.33333333333331</ele><time>2026-04-27T10:02:43.782Z</time></trkpt><trkpt lat="39.542530162924834" lon="8.616128208765018"><ele>196.0</ele><time>2026-04-27T10:02:44.782Z</time></trkpt><trkpt lat="39.542514613454856" lon="8.615920080708676"><ele>197.5</ele><time>2026-04-27T10:02:45.782Z</time></trkpt><trkpt lat="39.542458608071364" lon="8.615737754575342"><ele>199.0</ele><time>2026-04-27T10:02:46.782Z</time></trkpt><trkpt lat="39.54239080693207" lon="8.615596159185166"><ele>200.5</ele><time>2026-04-27T10:02:47.781Z</time></trkpt><trkpt lat="39.54233898926384" lon="8.615471818824549"><ele>202.0</ele><time>2026-04-27T10:02:48.781Z</time></trkpt><trkpt lat="39.54231154049045" lon="8.61535528724789"><ele>204.0</ele><time>2026-04-27T10:02:49.781Z</time></trkpt><trkpt lat="39.54231695573998" lon="8.6152521383155"><ele>206.0</ele><time>2026-04-27T10:02:50.781Z</time></trkpt><trkpt lat="39.54236696378408" lon="8.615158755305423"><ele>208.0</ele><time>2026-04-27T10:02:51.781Z</time></trkpt><trkpt lat="39.54243444148111" lon="8.61508133193963"><ele>210.0</ele><time>2026-04-27T10:02:52.781Z</time></trkpt><trkpt lat="39.542522808240015" lon="8.614971815450607"><ele>212.0</ele><time>2026-04-27T10:02:53.781Z</time></trkpt><trkpt lat="39.542625008981624" lon="8.614818995199398"><ele>212.0</ele><time>2026-04-27T10:02:54.781Z</time></trkpt><trkpt lat="39.54272811968333" lon="8.61462510183865"><ele>212.0</ele><time>2026-04-27T10:02:55.781Z</time></trkpt><trkpt lat="39.54282965657684" lon="8.614400241470928"><ele>212.0</ele><time>2026-04-27T10:02:56.781Z</time></trkpt><trkpt lat="39.54293476647825" lon="8.614155981031553"><ele>211.5</ele><time>2026-04-27T10:02:57.781Z</time></trkpt><trkpt lat="39.54304785300111" lon="8.613897214249763"><ele>211.0</ele><time>2026-04-27T10:02:58.781Z</time></trkpt><trkpt lat="39.54315924457871" lon="8.613635079215344"><ele>215.0</ele><time>2026-04-27T10:02:59.781Z</time></trkpt><trkpt lat="39.543260250046025" lon="8.613406189624015"><ele>219.0</ele><time>2026-04-27T10:03:00.781Z</time></trkpt><trkpt lat="39.54334912690582" lon="8.613207990471698"><ele>223.0</ele><time>2026-04-27T10:03:01.781Z</time></trkpt><trkpt lat="39.54343652913545" lon="8.613063630431274"><ele>223.0</ele><time>2026-04-27T10:03:02.781Z</time></trkpt><trkpt lat="39.54355156312497" lon="8.613003786964567"><ele>223.0</ele><time>2026-04-27T10:03:03.781Z</time></trkpt><trkpt lat="39.543690561324354" lon="8.613033177015877"><ele>223.0</ele><time>2026-04-27T10:03:04.781Z</time></trkpt><trkpt lat="39.54382128934055" lon="8.613105009641803"><ele>223.0</ele><time>2026-04-27T10:03:05.781Z</time></trkpt><trkpt lat="39.54390362694108" lon="8.61323992862407"><ele>224.25</ele><time>2026-04-27T10:03:06.781Z</time></trkpt><trkpt lat="39.54397875729054" lon="8.613343501171505"><ele>225.5</ele><time>2026-04-27T10:03:07.781Z</time></trkpt><trkpt lat="39.544092955354294" lon="8.613360709046372"><ele>226.75</ele><time>2026-04-27T10:03:08.781Z</time></trkpt><trkpt lat="39.544207608411504" lon="8.613290538567446"><ele>228.0</ele><time>2026-04-27T10:03:09.781Z</time></trkpt><trkpt lat="39.54426800659553" lon="8.613159260835879"><ele>228.0</ele><time>2026-04-27T10:03:10.781Z</time></trkpt><trkpt lat="39.5442626098656" lon="8.612993781828251"><ele>228.0</ele><time>2026-04-27T10:03:11.781Z</time></trkpt><trkpt lat="39.5441978966499" lon="8.612865844964492"><ele>228.0</ele><time>2026-04-27T10:03:12.781Z</time></trkpt><trkpt lat="39.54409652229788" lon="8.612794684211197"><ele>228.0</ele><time>2026-04-27T10:03:13.781Z</time></trkpt><trkpt lat="39.54397353431611" lon="8.612722942315942"><ele>232.33333333333331</ele><time>2026-04-27T10:03:14.781Z</time></trkpt><trkpt lat="39.54382335266497" lon="8.612644491506742"><ele>236.66666666666666</ele><time>2026-04-27T10:03:15.781Z</time></trkpt><trkpt lat="39.54364849544763" lon="8.612573568923828"><ele>241.0</ele><time>2026-04-27T10:03:16.781Z</time></trkpt><trkpt lat="39.54345474993938" lon="8.612527705459508"><ele>241.0</ele><time>2026-04-27T10:03:17.781Z</time></trkpt><trkpt lat="39.54326887065785" lon="8.612426578888911"><ele>241.0</ele><time>2026-04-27T10:03:18.781Z</time></trkpt><trkpt lat="39.54311002248721" lon="8.612273555087379"><ele>241.0</ele><time>2026-04-27T10:03:19.781Z</time></trkpt><trkpt lat="39.542976212940225" lon="8.612121226368272"><ele>240.0</ele><time>2026-04-27T10:03:20.781Z</time></trkpt><trkpt lat="39.54283998248231" lon="8.612047585209721"><ele>239.0</ele><time>2026-04-27T10:03:21.781Z</time></trkpt><trkpt lat="39.54267607669949" lon="8.612080106453265"><ele>238.0</ele><time>2026-04-27T10:03:22.78Z</time></trkpt><trkpt lat="39.54251939398053" lon="8.612160853997562"><ele>238.0</ele><time>2026-04-27T10:03:23.78Z</time></trkpt><trkpt lat="39.54236196635771" lon="8.612203124571751"><ele>238.0</ele><time>2026-04-27T10:03:24.78Z</time></trkpt><trkpt lat="39.54222053190395" lon="8.61213118801705"><ele>238.0</ele><time>2026-04-27T10:03:25.78Z</time></trkpt><trkpt lat="39.54211717352691" lon="8.611992031955243"><ele>243.33333333333331</ele><time>2026-04-27T10:03:26.78Z</time></trkpt><trkpt lat="39.54208778422525" lon="8.61178718859396"><ele>248.66666666666669</ele><time>2026-04-27T10:03:27.78Z</time></trkpt><trkpt lat="39.54213199519853" lon="8.611566656565731"><ele>254.0</ele><time>2026-04-27T10:03:28.78Z</time></trkpt><trkpt lat="39.5421672939041" lon="8.611355211471086"><ele>254.0</ele><time>2026-04-27T10:03:29.78Z</time></trkpt><trkpt lat="39.54211355428745" lon="8.611182817703869"><ele>254.0</ele><time>2026-04-27T10:03:30.78Z</time></trkpt><trkpt lat="39.54198873144789" lon="8.611075443416137"><ele>254.0</ele><time>2026-04-27T10:03:31.78Z</time></trkpt><trkpt lat="39.541817516994215" lon="8.611021995446043"><ele>257.0</ele><time>2026-04-27T10:03:32.78Z</time></trkpt><trkpt lat="39.541648917618886" lon="8.61092148463285"><ele>260.0</ele><time>2026-04-27T10:03:33.78Z</time></trkpt><trkpt lat="39.54152698183109" lon="8.610755465339663"><ele>263.0</ele><time>2026-04-27T10:03:34.78Z</time></trkpt><trkpt lat="39.541400117029376" lon="8.610566858712344"><ele>263.0</ele><time>2026-04-27T10:03:35.78Z</time></trkpt><trkpt lat="39.54121739206691" lon="8.610432603031231"><ele>263.0</ele><time>2026-04-27T10:03:36.78Z</time></trkpt><trkpt lat="39.54100321009753" lon="8.610364676384759"><ele>263.0</ele><time>2026-04-27T10:03:37.78Z</time></trkpt><trkpt lat="39.54082175196831" lon="8.610327239637325"><ele>267.6666666666667</ele><time>2026-04-27T10:03:38.78Z</time></trkpt><trkpt lat="39.54067603513203" lon="8.610280866019982"><ele>272.3333333333333</ele><time>2026-04-27T10:03:39.78Z</time></trkpt><trkpt lat="39.5405679871937" lon="8.610109239180252"><ele>277.0</ele><time>2026-04-27T10:03:40.78Z</time></trkpt><trkpt lat="39.54044762645941" lon="8.609911294980595"><ele>279.0</ele><time>2026-04-27T10:03:41.78Z</time></trkpt><trkpt lat="39.54027909146565" lon="8.609736820757231"><ele>281.0</ele><time>2026-04-27T10:03:42.78Z</time></trkpt><trkpt lat="39.54008659572658" lon="8.609588584673745"><ele>283.0</ele><time>2026-04-27T10:03:43.78Z</time></trkpt><trkpt lat="39.539912373178154" lon="8.609455781437244"><ele>283.0</ele><time>2026-04-27T10:03:44.78Z</time></trkpt><trkpt lat="39.5397621136842" lon="8.609346312330628"><ele>283.0</ele><time>2026-04-27T10:03:45.78Z</time></trkpt><trkpt lat="39.5396120322234" lon="8.60933235010047"><ele>283.0</ele><time>2026-04-27T10:03:46.78Z</time></trkpt><trkpt lat="39.539457468376746" lon="8.609389046996252"><ele>283.0</ele><time>2026-04-27T10:03:47.78Z</time></trkpt><trkpt lat="39.539326394287855" lon="8.609471934827072"><ele>283.0</ele><time>2026-04-27T10:03:48.78Z</time></trkpt><trkpt lat="39.53921704165912" lon="8.609441184347467"><ele>283.0</ele><time>2026-04-27T10:03:49.779Z</time></trkpt><trkpt lat="39.53918093032503" lon="8.609316499213705"><ele>283.0</ele><time>2026-04-27T10:03:50.779Z</time></trkpt><trkpt lat="39.539225312387096" lon="8.609197014769096"><ele>283.0</ele><time>2026-04-27T10:03:51.78Z</time></trkpt><trkpt lat="39.53932101098613" lon="8.60916904422612"><ele>283.0</ele><time>2026-04-27T10:03:52.78Z</time></trkpt><trkpt lat="39.539412429595714" lon="8.609102954260246"><ele>283.0</ele><time>2026-04-27T10:03:53.78Z</time></trkpt><trkpt lat="39.53952584808599" lon="8.609027052773339"><ele>283.0</ele><time>2026-04-27T10:03:54.78Z</time></trkpt><trkpt lat="39.53964801256802" lon="8.608970540041726"><ele>283.0</ele><time>2026-04-27T10:03:55.78Z</time></trkpt><trkpt lat="39.539767557486826" lon="8.608956291462789"><ele>283.0</ele><time>2026-04-27T10:03:56.78Z</time></trkpt><trkpt lat="39.539932359557476" lon="8.608984721965319"><ele>283.0</ele><time>2026-04-27T10:03:57.779Z</time></trkpt><trkpt lat="39.54012251727356" lon="8.609033989424441"><ele>283.0</ele><time>2026-04-27T10:03:58.779Z</time></trkpt><trkpt lat="39.540322030361686" lon="8.609086625914493"><ele>283.0</ele><time>2026-04-27T10:03:59.779Z</time></trkpt><trkpt lat="39.54048496486476" lon="8.609164319225151"><ele>283.0</ele><time>2026-04-27T10:04:00.779Z</time></trkpt><trkpt lat="39.54062568326317" lon="8.609309676748293"><ele>281.0</ele><time>2026-04-27T10:04:01.779Z</time></trkpt><trkpt lat="39.54076016795064" lon="8.609478181545722"><ele>279.0</ele><time>2026-04-27T10:04:02.779Z</time></trkpt><trkpt lat="39.540881345199814" lon="8.609613870243006"><ele>277.0</ele><time>2026-04-27T10:04:03.779Z</time></trkpt><trkpt lat="39.54100983745015" lon="8.609709373094942"><ele>277.0</ele><time>2026-04-27T10:04:04.779Z</time></trkpt><trkpt lat="39.54118694648728" lon="8.609671037153829"><ele>277.0</ele><time>2026-04-27T10:04:05.779Z</time></trkpt><trkpt lat="39.541370788367594" lon="8.60963115256365"><ele>277.0</ele><time>2026-04-27T10:04:06.779Z</time></trkpt><trkpt lat="39.54154175795321" lon="8.609578369686911"><ele>279.25</ele><time>2026-04-27T10:04:07.779Z</time></trkpt><trkpt lat="39.541682241037044" lon="8.609571245385823"><ele>281.5</ele><time>2026-04-27T10:04:08.779Z</time></trkpt><trkpt lat="39.541809642597855" lon="8.609640013650973"><ele>283.75</ele><time>2026-04-27T10:04:09.779Z</time></trkpt><trkpt lat="39.541919255744965" lon="8.60970189305614"><ele>286.0</ele><time>2026-04-27T10:04:10.779Z</time></trkpt><trkpt lat="39.54201688769617" lon="8.609688748042801"><ele>286.0</ele><time>2026-04-27T10:04:11.779Z</time></trkpt><trkpt lat="39.54204367173136" lon="8.60955482255934"><ele>286.0</ele><time>2026-04-27T10:04:12.779Z</time></trkpt><trkpt lat="39.54200864102398" lon="8.609442066039891"><ele>286.0</ele><time>2026-04-27T10:04:13.779Z</time></trkpt><trkpt lat="39.541910271791934" lon="8.609368326695572"><ele>286.0</ele><time>2026-04-27T10:04:14.779Z</time></trkpt><trkpt lat="39.54176612982182" lon="8.609335505387932"><ele>295.66666666666663</ele><time>2026-04-27T10:04:15.779Z</time></trkpt><trkpt lat="39.54160175831365" lon="8.609315371570585"><ele>305.3333333333333</ele><time>2026-04-27T10:04:16.779Z</time></trkpt><trkpt lat="39.54142143420011" lon="8.60931905083405"><ele>315.0</ele><time>2026-04-27T10:04:17.779Z</time></trkpt><trkpt lat="39.54124534940506" lon="8.609308637791516"><ele>309.6666666666667</ele><time>2026-04-27T10:04:18.779Z</time></trkpt><trkpt lat="39.54109218213262" lon="8.60922985369986"><ele>304.33333333333337</ele><time>2026-04-27T10:04:19.779Z</time></trkpt><trkpt lat="39.54097361051187" lon="8.60907493117568"><ele>299.0</ele><time>2026-04-27T10:04:20.779Z</time></trkpt><trkpt lat="39.540873267073145" lon="8.60887017848635"><ele>306.6666666666667</ele><time>2026-04-27T10:04:21.779Z</time></trkpt><trkpt lat="39.54077631823782" lon="8.60864970550209"><ele>314.3333333333333</ele><time>2026-04-27T10:04:22.779Z</time></trkpt><trkpt lat="39.54068891475872" lon="8.608421572788766"><ele>322.0</ele><time>2026-04-27T10:04:23.779Z</time></trkpt><trkpt lat="39.54061365980078" lon="8.608190346393114"><ele>322.0</ele><time>2026-04-27T10:04:24.779Z</time></trkpt><trkpt lat="39.54055593136049" lon="8.607983835805072"><ele>322.0</ele><time>2026-04-27T10:04:25.778Z</time></trkpt><trkpt lat="39.54050933057789" lon="8.60781482879516"><ele>322.0</ele><time>2026-04-27T10:04:26.778Z</time></trkpt><trkpt lat="39.540425878811114" lon="8.607708500901966"><ele>322.0</ele><time>2026-04-27T10:04:27.778Z</time></trkpt><trkpt lat="39.54029551492283" lon="8.607670356655907"><ele>325.66666666666663</ele><time>2026-04-27T10:04:28.778Z</time></trkpt><trkpt lat="39.540145852874986" lon="8.60774071586935"><ele>329.3333333333333</ele><time>2026-04-27T10:04:29.778Z</time></trkpt><trkpt lat="39.539998888500826" lon="8.607805347281301"><ele>333.0</ele><time>2026-04-27T10:04:30.778Z</time></trkpt><trkpt lat="39.53984465592838" lon="8.607761516400501"><ele>333.0</ele><time>2026-04-27T10:04:31.778Z</time></trkpt><trkpt lat="39.539665828178" lon="8.607673742757035"><ele>333.0</ele><time>2026-04-27T10:04:32.778Z</time></trkpt><trkpt lat="39.539474389502494" lon="8.607622704701996"><ele>333.0</ele><time>2026-04-27T10:04:33.778Z</time></trkpt><trkpt lat="39.539269990187954" lon="8.607684036080473"><ele>334.3333333333333</ele><time>2026-04-27T10:04:34.778Z</time></trkpt><trkpt lat="39.53909192889916" lon="8.60774074834161"><ele>335.66666666666663</ele><time>2026-04-27T10:04:35.778Z</time></trkpt><trkpt lat="39.53890873775802" lon="8.607701529037103"><ele>337.0</ele><time>2026-04-27T10:04:36.778Z</time></trkpt><trkpt lat="39.53872749112201" lon="8.607627792915988"><ele>337.3333333333333</ele><time>2026-04-27T10:04:37.778Z</time></trkpt><trkpt lat="39.538544136326344" lon="8.607689225099156"><ele>337.6666666666667</ele><time>2026-04-27T10:04:38.778Z</time></trkpt><trkpt lat="39.538367527034055" lon="8.607770443877465"><ele>338.0</ele><time>2026-04-27T10:04:39.778Z</time></trkpt><trkpt lat="39.53819006662007" lon="8.607776344698786"><ele>338.0</ele><time>2026-04-27T10:04:40.778Z</time></trkpt><trkpt lat="39.538025696401604" lon="8.607737907509353"><ele>338.0</ele><time>2026-04-27T10:04:41.778Z</time></trkpt><trkpt lat="39.53792593771013" lon="8.607561504839179"><ele>338.0</ele><time>2026-04-27T10:04:42.778Z</time></trkpt><trkpt lat="39.537823777004704" lon="8.607437129790128"><ele>339.33333333333337</ele><time>2026-04-27T10:04:43.778Z</time></trkpt><trkpt lat="39.53766161900708" lon="8.607428256703631"><ele>340.6666666666667</ele><time>2026-04-27T10:04:44.778Z</time></trkpt><trkpt lat="39.53748170224433" lon="8.607504236359468"><ele>342.0</ele><time>2026-04-27T10:04:45.778Z</time></trkpt><trkpt lat="39.537298809689176" lon="8.607547557648857"><ele>342.0</ele><time>2026-04-27T10:04:46.778Z</time></trkpt><trkpt lat="39.53711913424662" lon="8.607609730167814"><ele>342.0</ele><time>2026-04-27T10:04:47.778Z</time></trkpt><trkpt lat="39.536953222542365" lon="8.607743566647262"><ele>342.0</ele><time>2026-04-27T10:04:48.778Z</time></trkpt><trkpt lat="39.536792168144736" lon="8.607873482703578"><ele>338.6666666666667</ele><time>2026-04-27T10:04:49.778Z</time></trkpt><trkpt lat="39.53662095874085" lon="8.60801159047691"><ele>335.33333333333337</ele><time>2026-04-27T10:04:50.778Z</time></trkpt><trkpt lat="39.53644845035479" lon="8.608152848805878"><ele>332.0</ele><time>2026-04-27T10:04:51.778Z</time></trkpt><trkpt lat="39.536283644646836" lon="8.608307939281659"><ele>333.0</ele><time>2026-04-27T10:04:52.778Z</time></trkpt><trkpt lat="39.536118393380555" lon="8.608447008556885"><ele>334.0</ele><time>2026-04-27T10:04:53.778Z</time></trkpt><trkpt lat="39.53596502941122" lon="8.608592310791778"><ele>335.0</ele><time>2026-04-27T10:04:54.778Z</time></trkpt><trkpt lat="39.53582443909156" lon="8.60875099364355"><ele>335.0</ele><time>2026-04-27T10:04:55.778Z</time></trkpt><trkpt lat="39.535693925643365" lon="8.608911873287765"><ele>335.0</ele><time>2026-04-27T10:04:56.778Z</time></trkpt><trkpt lat="39.535557354883494" lon="8.60905908534289"><ele>335.0</ele><time>2026-04-27T10:04:57.778Z</time></trkpt><trkpt lat="39.535399420241646" lon="8.609139928375498"><ele>341.33333333333337</ele><time>2026-04-27T10:04:58.778Z</time></trkpt><trkpt lat="39.53523894953037" lon="8.60919385826516"><ele>347.6666666666667</ele><time>2026-04-27T10:04:59.778Z</time></trkpt><trkpt lat="39.53506620079445" lon="8.609240959875216"><ele>354.0</ele><time>2026-04-27T10:05:00.778Z</time></trkpt><trkpt lat="39.53489389117505" lon="8.609256579165036"><ele>354.0</ele><time>2026-04-27T10:05:01.777Z</time></trkpt><trkpt lat="39.534720960804925" lon="8.609219844388063"><ele>354.0</ele><time>2026-04-27T10:05:02.777Z</time></trkpt><trkpt lat="39.534552116675926" lon="8.609222786487242"><ele>354.0</ele><time>2026-04-27T10:05:03.777Z</time></trkpt><trkpt lat="39.534398700368826" lon="8.60925289971359"><ele>352.6666666666667</ele><time>2026-04-27T10:05:04.777Z</time></trkpt><trkpt lat="39.53424904165186" lon="8.60943176091325"><ele>351.33333333333337</ele><time>2026-04-27T10:05:05.777Z</time></trkpt><trkpt lat="39.53410692713843" lon="8.609636396685396"><ele>350.0</ele><time>2026-04-27T10:05:06.777Z</time></trkpt><trkpt lat="39.53397010072773" lon="8.60982386368479"><ele>350.0</ele><time>2026-04-27T10:05:07.777Z</time></trkpt><trkpt lat="39.53382386205811" lon="8.610004339103863"><ele>350.0</ele><time>2026-04-27T10:05:08.777Z</time></trkpt><trkpt lat="39.533684133201184" lon="8.610181869502604"><ele>350.0</ele><time>2026-04-27T10:05:09.777Z</time></trkpt><trkpt lat="39.53355485170794" lon="8.610362347776904"><ele>355.33333333333337</ele><time>2026-04-27T10:05:10.777Z</time></trkpt><trkpt lat="39.53346566200173" lon="8.610569327876766"><ele>360.6666666666667</ele><time>2026-04-27T10:05:11.777Z</time></trkpt><trkpt lat="39.53334338183368" lon="8.610726380647424"><ele>366.0</ele><time>2026-04-27T10:05:12.777Z</time></trkpt><trkpt lat="39.53320409161323" lon="8.610809271193567"><ele>366.0</ele><time>2026-04-27T10:05:13.777Z</time></trkpt><trkpt lat="39.533033711577005" lon="8.610823526375652"><ele>366.0</ele><time>2026-04-27T10:05:14.777Z</time></trkpt><trkpt lat="39.53284869229403" lon="8.610869869968345"><ele>366.0</ele><time>2026-04-27T10:05:15.777Z</time></trkpt><trkpt lat="39.532681771994696" lon="8.610966052034088"><ele>366.3333333333333</ele><time>2026-04-27T10:05:16.777Z</time></trkpt><trkpt lat="39.532518071302064" lon="8.61114234297299"><ele>366.66666666666663</ele><time>2026-04-27T10:05:17.777Z</time></trkpt><trkpt lat="39.53239537765717" lon="8.611350145588567"><ele>367.0</ele><time>2026-04-27T10:05:18.777Z</time></trkpt><trkpt lat="39.53227604824904" lon="8.611521960368135"><ele>367.0</ele><time>2026-04-27T10:05:19.777Z</time></trkpt><trkpt lat="39.532167882945565" lon="8.611655071835605"><ele>367.0</ele><time>2026-04-27T10:05:20.777Z</time></trkpt><trkpt lat="39.53202808114652" lon="8.611713403881694"><ele>367.0</ele><time>2026-04-27T10:05:21.777Z</time></trkpt><trkpt lat="39.531874391945884" lon="8.611688599309138"><ele>369.75</ele><time>2026-04-27T10:05:22.777Z</time></trkpt><trkpt lat="39.53171446976492" lon="8.611641641930792"><ele>372.5</ele><time>2026-04-27T10:05:23.777Z</time></trkpt><trkpt lat="39.53157640510448" lon="8.6115913832859"><ele>375.25</ele><time>2026-04-27T10:05:24.777Z</time></trkpt><trkpt lat="39.53145477002745" lon="8.61153480522132"><ele>378.0</ele><time>2026-04-27T10:05:25.777Z</time></trkpt><trkpt lat="39.531342337153326" lon="8.611473361692994"><ele>378.0</ele><time>2026-04-27T10:05:26.777Z</time></trkpt><trkpt lat="39.53125288707219" lon="8.61138458220242"><ele>378.0</ele><time>2026-04-27T10:05:27.777Z</time></trkpt><trkpt lat="39.53120623569968" lon="8.611253809715544"><ele>378.0</ele><time>2026-04-27T10:05:28.777Z</time></trkpt><trkpt lat="39.53116406159797" lon="8.611116055022984"><ele>378.0</ele><time>2026-04-27T10:05:29.777Z</time></trkpt><trkpt lat="39.531119907208286" lon="8.610979948542711"><ele>376.5</ele><time>2026-04-27T10:05:30.777Z</time></trkpt><trkpt lat="39.531075864144455" lon="8.610848877444745"><ele>375.0</ele><time>2026-04-27T10:05:31.777Z</time></trkpt><trkpt lat="39.5310167418948" lon="8.61072371581778"><ele>373.5</ele><time>2026-04-27T10:05:32.777Z</time></trkpt><trkpt lat="39.53092871667014" lon="8.610626880163295"><ele>372.0</ele><time>2026-04-27T10:05:33.777Z</time></trkpt><trkpt lat="39.5308435716587" lon="8.610533125865476"><ele>372.0</ele><time>2026-04-27T10:05:34.777Z</time></trkpt><trkpt lat="39.53076648484106" lon="8.6104219930377"><ele>372.0</ele><time>2026-04-27T10:05:35.777Z</time></trkpt><trkpt lat="39.53067252460784" lon="8.610346944882021"><ele>372.0</ele><time>2026-04-27T10:05:36.776Z</time></trkpt><trkpt lat="39.53058853569981" lon="8.610256701771043"><ele>372.0</ele><time>2026-04-27T10:05:37.776Z</time></trkpt><trkpt lat="39.53050512198928" lon="8.610164440647333"><ele>372.0</ele><time>2026-04-27T10:05:38.776Z</time></trkpt><trkpt lat="39.53042729327991" lon="8.6100741100655"><ele>369.5</ele><time>2026-04-27T10:05:39.776Z</time></trkpt><trkpt lat="39.53033906950287" lon="8.609980102714154"><ele>367.0</ele><time>2026-04-27T10:05:40.776Z</time></trkpt><trkpt lat="39.53025142945743" lon="8.60988664712057"><ele>364.5</ele><time>2026-04-27T10:05:41.776Z</time></trkpt><trkpt lat="39.53015820684039" lon="8.609785417899785"><ele>362.0</ele><time>2026-04-27T10:05:42.776Z</time></trkpt><trkpt lat="39.530075699961486" lon="8.609686396214297"><ele>362.0</ele><time>2026-04-27T10:05:43.776Z</time></trkpt><trkpt lat="39.53000174688871" lon="8.609599271776409"><ele>362.0</ele><time>2026-04-27T10:05:44.776Z</time></trkpt><trkpt lat="39.52992325011919" lon="8.609509212667053"><ele>362.0</ele><time>2026-04-27T10:05:45.776Z</time></trkpt><trkpt lat="39.52984351472378" lon="8.609418806865436"><ele>362.0</ele><time>2026-04-27T10:05:46.776Z</time></trkpt><trkpt lat="39.529761411800486" lon="8.60933364971879"><ele>362.0</ele><time>2026-04-27T10:05:47.776Z</time></trkpt><trkpt lat="39.52967884122098" lon="8.60924586828601"><ele>362.40000000000003</ele><time>2026-04-27T10:05:48.776Z</time></trkpt><trkpt lat="39.52960140631148" lon="8.609161073199477"><ele>362.8</ele><time>2026-04-27T10:05:49.776Z</time></trkpt><trkpt lat="39.52952161166942" lon="8.609077132132306"><ele>363.2</ele><time>2026-04-27T10:05:50.776Z</time></trkpt><trkpt lat="39.52944065987761" lon="8.608992456249213"><ele>363.6</ele><time>2026-04-27T10:05:51.777Z</time></trkpt><trkpt lat="39.52936417619648" lon="8.608912618995324"><ele>364.0</ele><time>2026-04-27T10:05:52.776Z</time></trkpt><trkpt lat="39.52929133364452" lon="8.608825041617106"><ele>362.79999999999995</ele><time>2026-04-27T10:05:53.776Z</time></trkpt><trkpt lat="39.529218031719175" lon="8.608743168708472"><ele>361.59999999999997</ele><time>2026-04-27T10:05:54.777Z</time></trkpt><trkpt lat="39.52914202547054" lon="8.608656007267125"><ele>360.4</ele><time>2026-04-27T10:05:55.776Z</time></trkpt><trkpt lat="39.52906946575924" lon="8.608572226214974"><ele>359.2</ele><time>2026-04-27T10:05:56.776Z</time></trkpt><trkpt lat="39.52899933095608" lon="8.608491540580161"><ele>358.0</ele><time>2026-04-27T10:05:57.777Z</time></trkpt><trkpt lat="39.52893233405841" lon="8.608418112455752"><ele>358.0</ele><time>2026-04-27T10:05:58.777Z</time></trkpt><trkpt lat="39.528857614059895" lon="8.60833974626026"><ele>358.0</ele><time>2026-04-27T10:05:59.777Z</time></trkpt><trkpt lat="39.52878498989092" lon="8.608258211534496"><ele>358.0</ele><time>2026-04-27T10:06:00.776Z</time></trkpt><trkpt lat="39.52871315056792" lon="8.608182159182702"><ele>358.0</ele><time>2026-04-27T10:06:01.776Z</time></trkpt><trkpt lat="39.528644762383585" lon="8.608091552773017"><ele>358.0</ele><time>2026-04-27T10:06:02.776Z</time></trkpt><trkpt lat="39.528577853436325" lon="8.60800731121312"><ele>356.4</ele><time>2026-04-27T10:06:03.777Z</time></trkpt><trkpt lat="39.52851624657347" lon="8.607913416223175"><ele>354.79999999999995</ele><time>2026-04-27T10:06:04.777Z</time></trkpt><trkpt lat="39.52846396472148" lon="8.607814455984363"><ele>353.2</ele><time>2026-04-27T10:06:05.777Z</time></trkpt><trkpt lat="39.52841780000417" lon="8.607714955374657"><ele>351.6</ele><time>2026-04-27T10:06:06.777Z</time></trkpt><trkpt lat="39.52836880974414" lon="8.607615013793367"><ele>350.0</ele><time>2026-04-27T10:06:07.776Z</time></trkpt><trkpt lat="39.5283154428408" lon="8.60750837210314"><ele>349.8</ele><time>2026-04-27T10:06:08.776Z</time></trkpt><trkpt lat="39.528256380718084" lon="8.607393709746503"><ele>349.6</ele><time>2026-04-27T10:06:09.776Z</time></trkpt><trkpt lat="39.528198411649626" lon="8.607272927483091"><ele>349.4</ele><time>2026-04-27T10:06:10.776Z</time></trkpt><trkpt lat="39.52813922176831" lon="8.60715622992261"><ele>349.2</ele><time>2026-04-27T10:06:11.776Z</time></trkpt><trkpt lat="39.528079854681614" lon="8.607035763654116"><ele>349.0</ele><time>2026-04-27T10:06:12.776Z</time></trkpt><trkpt lat="39.52801525507833" lon="8.606919545068925"><ele>348.6</ele><time>2026-04-27T10:06:13.776Z</time></trkpt><trkpt lat="39.527954860217534" lon="8.606801771903507"><ele>348.2</ele><time>2026-04-27T10:06:14.776Z</time></trkpt><trkpt lat="39.52789742352788" lon="8.60668159615809"><ele>347.8</ele><time>2026-04-27T10:06:15.776Z</time></trkpt><trkpt lat="39.52783692621" lon="8.606562359100547"><ele>347.40000000000003</ele><time>2026-04-27T10:06:16.776Z</time></trkpt><trkpt lat="39.52777730338351" lon="8.60644639205553"><ele>347.0</ele><time>2026-04-27T10:06:17.776Z</time></trkpt><trkpt lat="39.527719257079355" lon="8.606322973024493"><ele>346.0</ele><time>2026-04-27T10:06:18.776Z</time></trkpt><trkpt lat="39.52767944529265" lon="8.606204778072506"><ele>345.0</ele><time>2026-04-27T10:06:19.776Z</time></trkpt><trkpt lat="39.5276543737157" lon="8.606067228406996"><ele>344.0</ele><time>2026-04-27T10:06:20.776Z</time></trkpt><trkpt lat="39.527632799180324" lon="8.605932442704711"><ele>343.0</ele><time>2026-04-27T10:06:21.776Z</time></trkpt><trkpt lat="39.52761114714475" lon="8.605800400775932"><ele>342.0</ele><time>2026-04-27T10:06:22.776Z</time></trkpt><trkpt lat="39.52758250270553" lon="8.60566768471501"><ele>341.20000000000005</ele><time>2026-04-27T10:06:23.776Z</time></trkpt><trkpt lat="39.52756192340902" lon="8.605539529998042"><ele>340.4</ele><time>2026-04-27T10:06:24.776Z</time></trkpt><trkpt lat="39.52755214356247" lon="8.605413530316326"><ele>339.6</ele><time>2026-04-27T10:06:25.776Z</time></trkpt><trkpt lat="39.52756860157036" lon="8.605289355526672"><ele>338.79999999999995</ele><time>2026-04-27T10:06:26.776Z</time></trkpt><trkpt lat="39.52759091865467" lon="8.605189629652287"><ele>338.0</ele><time>2026-04-27T10:06:27.776Z</time></trkpt><trkpt lat="39.527631071797025" lon="8.605059186398258"><ele>338.2</ele><time>2026-04-27T10:06:29.776Z</time></trkpt><trkpt lat="39.5277115991858" lon="8.604952008767293"><ele>338.4</ele><time>2026-04-27T10:06:31.776Z</time></trkpt><trkpt lat="39.52778765581817" lon="8.60484656578704"><ele>338.59999999999997</ele><time>2026-04-27T10:06:33.776Z</time></trkpt><trkpt lat="39.52787609631158" lon="8.604740489074281"><ele>338.79999999999995</ele><time>2026-04-27T10:06:35.776Z</time></trkpt><trkpt lat="39.52792209088102" lon="8.604675749003825"><ele>339.0</ele><time>2026-04-27T10:06:36.776Z</time></trkpt><trkpt lat="39.528006752212264" lon="8.604566815942448"><ele>339.0</ele><time>2026-04-27T10:06:38.776Z</time></trkpt><trkpt lat="39.52809674479327" lon="8.604490378157964"><ele>339.0</ele><time>2026-04-27T10:06:40.776Z</time></trkpt><trkpt lat="39.52820091914432" lon="8.604434193873134"><ele>339.0</ele><time>2026-04-27T10:06:42.775Z</time></trkpt><trkpt lat="39.52826553777073" lon="8.604479852537075"><ele>339.0</ele><time>2026-04-27T10:06:43.775Z</time></trkpt><trkpt lat="39.52815327655475" lon="8.604408863701558"><ele>339.0</ele><time>2026-04-27T10:06:55.775Z</time></trkpt><trkpt lat="39.52806546563833" lon="8.604506713494587"><ele>339.0</ele><time>2026-04-27T10:06:57.775Z</time></trkpt><trkpt lat="39.52798587210969" lon="8.60461064638683"><ele>339.0</ele><time>2026-04-27T10:06:59.775Z</time></trkpt><trkpt lat="39.52790204538062" lon="8.60470571899425"><ele>339.0</ele><time>2026-04-27T10:07:01.775Z</time></trkpt><trkpt lat="39.527852028129146" lon="8.604765678071844"><ele>339.0</ele><time>2026-04-27T10:07:02.775Z</time></trkpt><trkpt lat="39.52780570540753" lon="8.604821487263836"><ele>339.0</ele><time>2026-04-27T10:07:03.775Z</time></trkpt><trkpt lat="39.52769929888381" lon="8.604912612482767"><ele>337.5</ele><time>2026-04-27T10:07:05.775Z</time></trkpt><trkpt lat="39.52766467752416" lon="8.604985947385162"><ele>336.0</ele><time>2026-04-27T10:07:06.775Z</time></trkpt><trkpt lat="39.52762642798787" lon="8.605052078070877"><ele>334.5</ele><time>2026-04-27T10:07:07.775Z</time></trkpt><trkpt lat="39.52735071333776" lon="8.604860381282354"><ele>333.0</ele><time>2026-04-27T10:07:10.775Z</time></trkpt><trkpt lat="39.52727952843047" lon="8.60481382942046"><ele>333.0</ele><time>2026-04-27T10:07:11.775Z</time></trkpt><trkpt lat="39.527208494627196" lon="8.604765651026256"><ele>333.0</ele><time>2026-04-27T10:07:12.775Z</time></trkpt><trkpt lat="39.52711829943193" lon="8.604739984360217"><ele>333.0</ele><time>2026-04-27T10:07:13.775Z</time></trkpt><trkpt lat="39.527035549427" lon="8.604763898363817"><ele>333.0</ele><time>2026-04-27T10:07:14.775Z</time></trkpt><trkpt lat="39.526964363293416" lon="8.604840188127293"><ele>333.0</ele><time>2026-04-27T10:07:15.775Z</time></trkpt><trkpt lat="39.52691145109795" lon="8.604920865033348"><ele>333.0</ele><time>2026-04-27T10:07:16.775Z</time></trkpt><trkpt lat="39.526867377957856" lon="8.60499323010404"><ele>332.3333333333333</ele><time>2026-04-27T10:07:17.774Z</time></trkpt><trkpt lat="39.526822863345174" lon="8.605063855946803"><ele>331.6666666666667</ele><time>2026-04-27T10:07:18.774Z</time></trkpt><trkpt lat="39.526781465218534" lon="8.605128733570446"><ele>331.0</ele><time>2026-04-27T10:07:19.774Z</time></trkpt><trkpt lat="39.52670316287791" lon="8.605251446259444"><ele>330.33333333333337</ele><time>2026-04-27T10:07:21.774Z</time></trkpt><trkpt lat="39.52665919986602" lon="8.605319889165296"><ele>329.6666666666667</ele><time>2026-04-27T10:07:22.774Z</time></trkpt><trkpt lat="39.52661009733499" lon="8.605396317951088"><ele>329.0</ele><time>2026-04-27T10:07:23.774Z</time></trkpt><trkpt lat="39.52655972400132" lon="8.605474724776439"><ele>329.0</ele><time>2026-04-27T10:07:24.774Z</time></trkpt><trkpt lat="39.52650754046669" lon="8.605555949178854"><ele>329.0</ele><time>2026-04-27T10:07:25.774Z</time></trkpt><trkpt lat="39.52645289543383" lon="8.605642919648535"><ele>329.0</ele><time>2026-04-27T10:07:26.774Z</time></trkpt><trkpt lat="39.526400752014176" lon="8.605725537924872"><ele>329.0</ele><time>2026-04-27T10:07:27.774Z</time></trkpt><trkpt lat="39.5263426416929" lon="8.605806118478142"><ele>329.0</ele><time>2026-04-27T10:07:28.774Z</time></trkpt><trkpt lat="39.52627600702315" lon="8.605838702714104"><ele>329.0</ele><time>2026-04-27T10:07:29.774Z</time></trkpt><trkpt lat="39.52619494536996" lon="8.60586289182148"><ele>329.2</ele><time>2026-04-27T10:07:30.774Z</time></trkpt><trkpt lat="39.52610548463483" lon="8.605863315762646"><ele>329.4</ele><time>2026-04-27T10:07:31.774Z</time></trkpt><trkpt lat="39.52600764101223" lon="8.605851216154646"><ele>329.6</ele><time>2026-04-27T10:07:32.774Z</time></trkpt><trkpt lat="39.52591681700422" lon="8.605847954082579"><ele>329.8</ele><time>2026-04-27T10:07:33.774Z</time></trkpt><trkpt lat="39.52582421071597" lon="8.605815801172112"><ele>330.0</ele><time>2026-04-27T10:07:34.774Z</time></trkpt><trkpt lat="39.52574053310851" lon="8.605764283123433"><ele>330.0</ele><time>2026-04-27T10:07:35.774Z</time></trkpt><trkpt lat="39.52566423736294" lon="8.605694314418907"><ele>330.0</ele><time>2026-04-27T10:07:36.774Z</time></trkpt><trkpt lat="39.525589860683525" lon="8.6056030212751"><ele>330.0</ele><time>2026-04-27T10:07:37.774Z</time></trkpt><trkpt lat="39.525519250914655" lon="8.60550610307807"><ele>330.0</ele><time>2026-04-27T10:07:38.774Z</time></trkpt><trkpt lat="39.52546776675716" lon="8.605411403866546"><ele>330.0</ele><time>2026-04-27T10:07:39.774Z</time></trkpt><trkpt lat="39.52544627095167" lon="8.60531935931279"><ele>328.6</ele><time>2026-04-27T10:07:40.774Z</time></trkpt><trkpt lat="39.52545862417466" lon="8.60522954695671"><ele>327.2</ele><time>2026-04-27T10:07:41.774Z</time></trkpt><trkpt lat="39.525490506594906" lon="8.605131916094363"><ele>325.79999999999995</ele><time>2026-04-27T10:07:42.774Z</time></trkpt><trkpt lat="39.525535704145014" lon="8.605019252909422"><ele>324.4</ele><time>2026-04-27T10:07:43.774Z</time></trkpt><trkpt lat="39.52558488290404" lon="8.604892062830363"><ele>323.0</ele><time>2026-04-27T10:07:44.774Z</time></trkpt><trkpt lat="39.52563054510884" lon="8.604752254845877"><ele>323.0</ele><time>2026-04-27T10:07:45.774Z</time></trkpt><trkpt lat="39.525678102329465" lon="8.604609537481"><ele>323.0</ele><time>2026-04-27T10:07:46.774Z</time></trkpt><trkpt lat="39.52572973207189" lon="8.604456143614907"><ele>323.0</ele><time>2026-04-27T10:07:47.774Z</time></trkpt><trkpt lat="39.525788348762525" lon="8.604302185452255"><ele>323.0</ele><time>2026-04-27T10:07:48.774Z</time></trkpt><trkpt lat="39.525851257860175" lon="8.604144686325244"><ele>322.75</ele><time>2026-04-27T10:07:49.774Z</time></trkpt><trkpt lat="39.52590970434813" lon="8.603982191569058"><ele>322.5</ele><time>2026-04-27T10:07:50.774Z</time></trkpt><trkpt lat="39.52596504982551" lon="8.603816894313935"><ele>322.25</ele><time>2026-04-27T10:07:51.774Z</time></trkpt><trkpt lat="39.52602517596119" lon="8.603658058612542"><ele>322.0</ele><time>2026-04-27T10:07:52.774Z</time></trkpt><trkpt lat="39.526089671856056" lon="8.603497974688102"><ele>322.0</ele><time>2026-04-27T10:07:53.773Z</time></trkpt><trkpt lat="39.52615416849372" lon="8.603336554374135"><ele>322.0</ele><time>2026-04-27T10:07:54.773Z</time></trkpt><trkpt lat="39.52621258847296" lon="8.60318232228617"><ele>322.0</ele><time>2026-04-27T10:07:55.773Z</time></trkpt><trkpt lat="39.526273366868274" lon="8.60303230770774"><ele>322.0</ele><time>2026-04-27T10:07:56.773Z</time></trkpt><trkpt lat="39.52633113868857" lon="8.602893015296702"><ele>319.40000000000003</ele><time>2026-04-27T10:07:57.774Z</time></trkpt><trkpt lat="39.52637448232021" lon="8.60275204967209"><ele>316.8</ele><time>2026-04-27T10:07:58.773Z</time></trkpt><trkpt lat="39.52638412995618" lon="8.602609162269877"><ele>314.2</ele><time>2026-04-27T10:07:59.773Z</time></trkpt><trkpt lat="39.52636953578169" lon="8.60248039547294"><ele>311.6</ele><time>2026-04-27T10:08:00.773Z</time></trkpt><trkpt lat="39.52634100326476" lon="8.602354206811814"><ele>309.0</ele><time>2026-04-27T10:08:01.773Z</time></trkpt><trkpt lat="39.52630001169023" lon="8.602232037212412"><ele>309.0</ele><time>2026-04-27T10:08:02.773Z</time></trkpt><trkpt lat="39.52625081732337" lon="8.6021034262391"><ele>309.0</ele><time>2026-04-27T10:08:03.774Z</time></trkpt><trkpt lat="39.52620999933108" lon="8.601969681335113"><ele>309.0</ele><time>2026-04-27T10:08:04.773Z</time></trkpt><trkpt lat="39.526176354541505" lon="8.60184263132958"><ele>309.0</ele><time>2026-04-27T10:08:05.773Z</time></trkpt><trkpt lat="39.5261624972248" lon="8.601718236295465"><ele>309.0</ele><time>2026-04-27T10:08:06.774Z</time></trkpt><trkpt lat="39.52615676760809" lon="8.601599842605852"><ele>309.0</ele><time>2026-04-27T10:08:07.773Z</time></trkpt><trkpt lat="39.52613063600583" lon="8.601493286675062"><ele>309.0</ele><time>2026-04-27T10:08:08.773Z</time></trkpt><trkpt lat="39.52606950365426" lon="8.601403073711692"><ele>309.0</ele><time>2026-04-27T10:08:09.773Z</time></trkpt><trkpt lat="39.525994113868016" lon="8.601329405199069"><ele>309.0</ele><time>2026-04-27T10:08:10.773Z</time></trkpt><trkpt lat="39.525922144795615" lon="8.601246593848073"><ele>309.0</ele><time>2026-04-27T10:08:11.773Z</time></trkpt><trkpt lat="39.525841278447984" lon="8.601150030458928"><ele>307.0</ele><time>2026-04-27T10:08:12.773Z</time></trkpt><trkpt lat="39.525748982259294" lon="8.601063474748292"><ele>305.0</ele><time>2026-04-27T10:08:13.773Z</time></trkpt><trkpt lat="39.52563980572737" lon="8.600996509230304"><ele>303.0</ele><time>2026-04-27T10:08:14.773Z</time></trkpt><trkpt lat="39.52552378533848" lon="8.600928704172658"><ele>301.0</ele><time>2026-04-27T10:08:15.773Z</time></trkpt><trkpt lat="39.52542433028925" lon="8.60086437387983"><ele>300.66666666666663</ele><time>2026-04-27T10:08:16.773Z</time></trkpt><trkpt lat="39.52535763252549" lon="8.600767144079944"><ele>300.3333333333333</ele><time>2026-04-27T10:08:17.773Z</time></trkpt><trkpt lat="39.525310694467855" lon="8.600661412740711"><ele>300.0</ele><time>2026-04-27T10:08:18.773Z</time></trkpt><trkpt lat="39.52527960954959" lon="8.600558713759256"><ele>299.6666666666667</ele><time>2026-04-27T10:08:19.773Z</time></trkpt><trkpt lat="39.5252751238352" lon="8.600453538164187"><ele>299.33333333333337</ele><time>2026-04-27T10:08:20.773Z</time></trkpt><trkpt lat="39.525277197496706" lon="8.600354435883029"><ele>299.0</ele><time>2026-04-27T10:08:21.773Z</time></trkpt><trkpt lat="39.52524594449534" lon="8.600277037446357"><ele>296.2</ele><time>2026-04-27T10:08:22.773Z</time></trkpt><trkpt lat="39.525196394438915" lon="8.600202473640055"><ele>293.4</ele><time>2026-04-27T10:08:23.773Z</time></trkpt><trkpt lat="39.525135490146106" lon="8.600134815019093"><ele>290.6</ele><time>2026-04-27T10:08:24.773Z</time></trkpt><trkpt lat="39.525073034265866" lon="8.600030710907172"><ele>287.8</ele><time>2026-04-27T10:08:25.773Z</time></trkpt><trkpt lat="39.52498813579906" lon="8.599951248174742"><ele>285.0</ele><time>2026-04-27T10:08:26.773Z</time></trkpt><trkpt lat="39.52491382478446" lon="8.5998461259163"><ele>285.0</ele><time>2026-04-27T10:08:27.773Z</time></trkpt><trkpt lat="39.524843803483066" lon="8.599744126594027"><ele>285.0</ele><time>2026-04-27T10:08:28.773Z</time></trkpt><trkpt lat="39.524774597406235" lon="8.599632750931509"><ele>285.0</ele><time>2026-04-27T10:08:29.773Z</time></trkpt><trkpt lat="39.52470263072633" lon="8.599531871245858"><ele>285.0</ele><time>2026-04-27T10:08:30.773Z</time></trkpt><trkpt lat="39.52462977970815" lon="8.599441748827457"><ele>285.0</ele><time>2026-04-27T10:08:31.773Z</time></trkpt><trkpt lat="39.52451462185546" lon="8.599405873583196"><ele>283.0</ele><time>2026-04-27T10:08:32.773Z</time></trkpt><trkpt lat="39.524390757935485" lon="8.599400497965073"><ele>281.0</ele><time>2026-04-27T10:08:33.773Z</time></trkpt><trkpt lat="39.524265971339624" lon="8.599387665678366"><ele>279.0</ele><time>2026-04-27T10:08:34.773Z</time></trkpt><trkpt lat="39.524146064666894" lon="8.599377721392496"><ele>277.0</ele><time>2026-04-27T10:08:35.773Z</time></trkpt><trkpt lat="39.52402662431811" lon="8.599368238358975"><ele>277.0</ele><time>2026-04-27T10:08:36.773Z</time></trkpt><trkpt lat="39.52390562819094" lon="8.59935870197194"><ele>277.0</ele><time>2026-04-27T10:08:37.773Z</time></trkpt><trkpt lat="39.523784239001685" lon="8.599349134606985"><ele>277.0</ele><time>2026-04-27T10:08:38.773Z</time></trkpt><trkpt lat="39.52366164108352" lon="8.599339208427553"><ele>277.0</ele><time>2026-04-27T10:08:39.773Z</time></trkpt><trkpt lat="39.52354184964427" lon="8.599337266712716"><ele>275.25</ele><time>2026-04-27T10:08:40.773Z</time></trkpt><trkpt lat="39.52343097026074" lon="8.59931322449078"><ele>273.5</ele><time>2026-04-27T10:08:41.773Z</time></trkpt><trkpt lat="39.523314643362156" lon="8.599260266565167"><ele>271.75</ele><time>2026-04-27T10:08:42.773Z</time></trkpt><trkpt lat="39.52320816667884" lon="8.599200204261168"><ele>270.0</ele><time>2026-04-27T10:08:43.773Z</time></trkpt><trkpt lat="39.52310651604661" lon="8.599121579989061"><ele>270.0</ele><time>2026-04-27T10:08:44.772Z</time></trkpt><trkpt lat="39.52301314292558" lon="8.599035377198817"><ele>270.0</ele><time>2026-04-27T10:08:45.772Z</time></trkpt><trkpt lat="39.52293391443076" lon="8.598937184716222"><ele>270.0</ele><time>2026-04-27T10:08:46.772Z</time></trkpt><trkpt lat="39.522871425912676" lon="8.598841205549473"><ele>270.0</ele><time>2026-04-27T10:08:47.772Z</time></trkpt><trkpt lat="39.5228181548217" lon="8.598759208484859"><ele>270.0</ele><time>2026-04-27T10:08:48.772Z</time></trkpt><trkpt lat="39.52277135051258" lon="8.59867967195478"><ele>267.8333333333333</ele><time>2026-04-27T10:08:49.772Z</time></trkpt><trkpt lat="39.52272939167245" lon="8.598587430978558"><ele>265.6666666666667</ele><time>2026-04-27T10:08:50.772Z</time></trkpt><trkpt lat="39.522679278938035" lon="8.598485744887855"><ele>263.5</ele><time>2026-04-27T10:08:51.772Z</time></trkpt><trkpt lat="39.5226408672004" lon="8.598378453538212"><ele>261.33333333333337</ele><time>2026-04-27T10:08:52.772Z</time></trkpt><trkpt lat="39.522581762185766" lon="8.598300785297068"><ele>259.1666666666667</ele><time>2026-04-27T10:08:53.772Z</time></trkpt><trkpt lat="39.522516075473305" lon="8.59824436357786"><ele>257.0</ele><time>2026-04-27T10:08:54.772Z</time></trkpt><trkpt lat="39.52248131225226" lon="8.598151327099744"><ele>257.0</ele><time>2026-04-27T10:08:55.772Z</time></trkpt><trkpt lat="39.522437941793804" lon="8.59806505939798"><ele>257.0</ele><time>2026-04-27T10:08:56.772Z</time></trkpt><trkpt lat="39.52245043476303" lon="8.59796106663215"><ele>257.0</ele><time>2026-04-27T10:08:57.772Z</time></trkpt><trkpt lat="39.52243567401303" lon="8.597848936712264"><ele>257.0</ele><time>2026-04-27T10:08:58.772Z</time></trkpt><trkpt lat="39.52244228119443" lon="8.597746659179373"><ele>257.0</ele><time>2026-04-27T10:08:59.772Z</time></trkpt><trkpt lat="39.52244640299215" lon="8.597650658216383"><ele>257.0</ele><time>2026-04-27T10:09:00.772Z</time></trkpt><trkpt lat="39.522447898944" lon="8.597550901607642"><ele>257.7142857142857</ele><time>2026-04-27T10:09:01.772Z</time></trkpt><trkpt lat="39.52245801236096" lon="8.597449548473374"><ele>258.42857142857144</ele><time>2026-04-27T10:09:02.772Z</time></trkpt><trkpt lat="39.52246081376711" lon="8.597350545053741"><ele>259.14285714285717</ele><time>2026-04-27T10:09:03.772Z</time></trkpt><trkpt lat="39.522441962372866" lon="8.597261312957293"><ele>259.8571428571429</ele><time>2026-04-27T10:09:04.772Z</time></trkpt><trkpt lat="39.52242302822143" lon="8.597179057247027"><ele>260.5714285714286</ele><time>2026-04-27T10:09:05.772Z</time></trkpt><trkpt lat="39.52237856786348" lon="8.597116417222427"><ele>261.2857142857143</ele><time>2026-04-27T10:09:06.772Z</time></trkpt><trkpt lat="39.52232457546345" lon="8.597043334468582"><ele>262.0</ele><time>2026-04-27T10:09:07.772Z</time></trkpt><trkpt lat="39.52226876071905" lon="8.596980863187675"><ele>263.0</ele><time>2026-04-27T10:09:08.772Z</time></trkpt><trkpt lat="39.52221595531033" lon="8.596919168930892"><ele>264.0</ele><time>2026-04-27T10:09:09.772Z</time></trkpt><trkpt lat="39.52216814095856" lon="8.596843375458938"><ele>265.0</ele><time>2026-04-27T10:09:10.772Z</time></trkpt><trkpt lat="39.52213646826235" lon="8.596758759365253"><ele>266.0</ele><time>2026-04-27T10:09:11.772Z</time></trkpt><trkpt lat="39.52211676908327" lon="8.596656296491037"><ele>267.0</ele><time>2026-04-27T10:09:12.772Z</time></trkpt><trkpt lat="39.522102136675755" lon="8.59654013303206"><ele>268.0</ele><time>2026-04-27T10:09:13.772Z</time></trkpt><trkpt lat="39.52207673286639" lon="8.596436323397631"><ele>268.0</ele><time>2026-04-27T10:09:14.772Z</time></trkpt><trkpt lat="39.52208448423114" lon="8.596334305553706"><ele>268.0</ele><time>2026-04-27T10:09:15.772Z</time></trkpt><trkpt lat="39.52212166355084" lon="8.596239016256563"><ele>268.0</ele><time>2026-04-27T10:09:16.772Z</time></trkpt><trkpt lat="39.52217001714642" lon="8.596163116135623"><ele>268.0</ele><time>2026-04-27T10:09:17.772Z</time></trkpt><trkpt lat="39.52223113435141" lon="8.596110198115252"><ele>268.0</ele><time>2026-04-27T10:09:18.772Z</time></trkpt><trkpt lat="39.522311392228815" lon="8.596081668338922"><ele>268.0</ele><time>2026-04-27T10:09:19.771Z</time></trkpt><trkpt lat="39.522391758773644" lon="8.596054444317224"><ele>267.8333333333333</ele><time>2026-04-27T10:09:20.771Z</time></trkpt><trkpt lat="39.52247562299761" lon="8.596021293035681"><ele>267.66666666666663</ele><time>2026-04-27T10:09:21.771Z</time></trkpt><trkpt lat="39.52255686106446" lon="8.595994518302941"><ele>267.5</ele><time>2026-04-27T10:09:22.771Z</time></trkpt><trkpt lat="39.522631828239" lon="8.595977967507027"><ele>267.3333333333333</ele><time>2026-04-27T10:09:23.771Z</time></trkpt><trkpt lat="39.52269761557546" lon="8.595948799351392"><ele>267.1666666666667</ele><time>2026-04-27T10:09:24.771Z</time></trkpt><trkpt lat="39.522801523825876" lon="8.595904586496301"><ele>267.0</ele><time>2026-04-27T10:09:26.771Z</time></trkpt><trkpt lat="39.52284861381945" lon="8.595849174466455"><ele>268.3333333333333</ele><time>2026-04-27T10:09:27.771Z</time></trkpt><trkpt lat="39.522903217268784" lon="8.595770675801212"><ele>269.6666666666667</ele><time>2026-04-27T10:09:28.771Z</time></trkpt><trkpt lat="39.52295665292531" lon="8.595686480023437"><ele>271.0</ele><time>2026-04-27T10:09:29.771Z</time></trkpt><trkpt lat="39.523015967473235" lon="8.595597443900484"><ele>272.33333333333337</ele><time>2026-04-27T10:09:30.771Z</time></trkpt><trkpt lat="39.52307671935293" lon="8.595514589131428"><ele>273.6666666666667</ele><time>2026-04-27T10:09:31.771Z</time></trkpt><trkpt lat="39.523149469567585" lon="8.595430274620034"><ele>275.0</ele><time>2026-04-27T10:09:32.771Z</time></trkpt><trkpt lat="39.52322510419042" lon="8.595388094250191"><ele>275.0</ele><time>2026-04-27T10:09:33.771Z</time></trkpt><trkpt lat="39.52332792110625" lon="8.595340907835443"><ele>275.0</ele><time>2026-04-27T10:09:35.771Z</time></trkpt><trkpt lat="39.523415756049346" lon="8.595345583037243"><ele>275.0</ele><time>2026-04-27T10:09:37.771Z</time></trkpt><trkpt lat="39.52347941413623" lon="8.595340805492805"><ele>275.0</ele><time>2026-04-27T10:09:40.771Z</time></trkpt><trkpt lat="39.52354407860588" lon="8.595150356257731"><ele>275.0</ele><time>2026-04-27T10:09:42.771Z</time></trkpt><trkpt lat="39.52356644040579" lon="8.595053913561705"><ele>274.0</ele><time>2026-04-27T10:09:43.771Z</time></trkpt><trkpt lat="39.52359189811009" lon="8.594949511069018"><ele>273.0</ele><time>2026-04-27T10:09:44.834Z</time></trkpt><trkpt lat="39.523615754828015" lon="8.5948456043407"><ele>272.0</ele><time>2026-04-27T10:09:45.834Z</time></trkpt><trkpt lat="39.52362681857249" lon="8.594746026681422"><ele>271.0</ele><time>2026-04-27T10:09:46.834Z</time></trkpt><trkpt lat="39.52366891341621" lon="8.59464122712874"><ele>270.0</ele><time>2026-04-27T10:09:47.834Z</time></trkpt><trkpt lat="39.523732543383375" lon="8.594552872000786"><ele>269.0</ele><time>2026-04-27T10:09:48.834Z</time></trkpt><trkpt lat="39.523813563682715" lon="8.59448260460183"><ele>266.8</ele><time>2026-04-27T10:09:49.834Z</time></trkpt><trkpt lat="39.52388523092601" lon="8.594414627192243"><ele>264.59999999999997</ele><time>2026-04-27T10:09:50.834Z</time></trkpt><trkpt lat="39.52397347482237" lon="8.594358601181364"><ele>262.4</ele><time>2026-04-27T10:09:51.834Z</time></trkpt><trkpt lat="39.52406154459994" lon="8.59432034180159"><ele>260.2</ele><time>2026-04-27T10:09:52.834Z</time></trkpt><trkpt lat="39.52415013885399" lon="8.594284584917721"><ele>258.0</ele><time>2026-04-27T10:09:53.834Z</time></trkpt><trkpt lat="39.52424361060777" lon="8.594243181026096"><ele>258.0</ele><time>2026-04-27T10:09:54.834Z</time></trkpt><trkpt lat="39.52433118568344" lon="8.594209557841165"><ele>258.0</ele><time>2026-04-27T10:09:55.834Z</time></trkpt><trkpt lat="39.52442168220108" lon="8.594176600265312"><ele>258.0</ele><time>2026-04-27T10:09:56.834Z</time></trkpt><trkpt lat="39.52450870354192" lon="8.594131496030913"><ele>258.0</ele><time>2026-04-27T10:09:57.834Z</time></trkpt><trkpt lat="39.52459876864707" lon="8.594097348740714"><ele>258.0</ele><time>2026-04-27T10:09:58.834Z</time></trkpt><trkpt lat="39.52469818307214" lon="8.594085941589272"><ele>258.0</ele><time>2026-04-27T10:09:59.834Z</time></trkpt><trkpt lat="39.524791814125265" lon="8.594077133576546"><ele>258.0</ele><time>2026-04-27T10:10:00.834Z</time></trkpt><trkpt lat="39.524885133587595" lon="8.594097562541291"><ele>258.0</ele><time>2026-04-27T10:10:01.834Z</time></trkpt><trkpt lat="39.524986994849456" lon="8.594110968059782"><ele>258.0</ele><time>2026-04-27T10:10:02.834Z</time></trkpt><trkpt lat="39.52508787541816" lon="8.594121736409287"><ele>258.0</ele><time>2026-04-27T10:10:03.835Z</time></trkpt><trkpt lat="39.52518381319017" lon="8.594119737702938"><ele>258.0</ele><time>2026-04-27T10:10:04.834Z</time></trkpt><trkpt lat="39.52526990247978" lon="8.594083412023709"><ele>258.0</ele><time>2026-04-27T10:10:05.834Z</time></trkpt><trkpt lat="39.52535505691101" lon="8.594055992650128"><ele>258.0</ele><time>2026-04-27T10:10:06.834Z</time></trkpt><trkpt lat="39.52539996639026" lon="8.593944041124415"><ele>258.0</ele><time>2026-04-27T10:10:07.835Z</time></trkpt><trkpt lat="39.52539433222591" lon="8.593814735961521"><ele>258.0</ele><time>2026-04-27T10:10:08.834Z</time></trkpt><trkpt lat="39.52539991852124" lon="8.593676011722073"><ele>257.2</ele><time>2026-04-27T10:10:09.835Z</time></trkpt><trkpt lat="39.52542338373267" lon="8.59353468639708"><ele>256.4</ele><time>2026-04-27T10:10:10.834Z</time></trkpt><trkpt lat="39.52545528057259" lon="8.593396899313523"><ele>255.59999999999997</ele><time>2026-04-27T10:10:11.834Z</time></trkpt><trkpt lat="39.52548912548961" lon="8.593261929539173"><ele>254.79999999999998</ele><time>2026-04-27T10:10:12.835Z</time></trkpt><trkpt lat="39.52553355705265" lon="8.593135288435455"><ele>254.0</ele><time>2026-04-27T10:10:13.834Z</time></trkpt><trkpt lat="39.52558136400252" lon="8.593007867437281"><ele>254.0</ele><time>2026-04-27T10:10:14.834Z</time></trkpt><trkpt lat="39.525631649088645" lon="8.592876185551338"><ele>253.99999999999997</ele><time>2026-04-27T10:10:15.835Z</time></trkpt><trkpt lat="39.525679286764266" lon="8.592748385152351"><ele>253.99999999999997</ele><time>2026-04-27T10:10:16.834Z</time></trkpt><trkpt lat="39.525727884090195" lon="8.592625709482466"><ele>254.0</ele><time>2026-04-27T10:10:17.834Z</time></trkpt><trkpt lat="39.525778654933276" lon="8.592502037056828"><ele>254.0</ele><time>2026-04-27T10:10:18.834Z</time></trkpt><trkpt lat="39.525825698603896" lon="8.592380288874448"><ele>255.39999999999998</ele><time>2026-04-27T10:10:19.834Z</time></trkpt><trkpt lat="39.52586369761562" lon="8.592260173860833"><ele>256.79999999999995</ele><time>2026-04-27T10:10:20.834Z</time></trkpt><trkpt lat="39.52587199614446" lon="8.592150578626475"><ele>258.20000000000005</ele><time>2026-04-27T10:10:21.834Z</time></trkpt><trkpt lat="39.52584439967828" lon="8.592035235668478"><ele>259.6</ele><time>2026-04-27T10:10:22.834Z</time></trkpt><trkpt lat="39.525804611563316" lon="8.591924857547783"><ele>261.0</ele><time>2026-04-27T10:10:23.834Z</time></trkpt><trkpt lat="39.52574531518573" lon="8.591808758103681"><ele>261.5</ele><time>2026-04-27T10:10:24.834Z</time></trkpt><trkpt lat="39.525674024700976" lon="8.59168995713153"><ele>262.0</ele><time>2026-04-27T10:10:25.834Z</time></trkpt><trkpt lat="39.525590384133295" lon="8.59156915243288"><ele>262.5</ele><time>2026-04-27T10:10:26.834Z</time></trkpt><trkpt lat="39.52549805453936" lon="8.591444817869943"><ele>263.0</ele><time>2026-04-27T10:10:27.834Z</time></trkpt><trkpt lat="39.52540851525354" lon="8.591319360094198"><ele>261.75</ele><time>2026-04-27T10:10:28.834Z</time></trkpt><trkpt lat="39.52532077605864" lon="8.591196063528509"><ele>260.5</ele><time>2026-04-27T10:10:29.834Z</time></trkpt><trkpt lat="39.525236770547814" lon="8.59106653832573"><ele>259.25</ele><time>2026-04-27T10:10:30.834Z</time></trkpt><trkpt lat="39.525154895958806" lon="8.590942575007128"><ele>258.0</ele><time>2026-04-27T10:10:31.834Z</time></trkpt><trkpt lat="39.52510149483611" lon="8.590804934791578"><ele>257.0</ele><time>2026-04-27T10:10:32.834Z</time></trkpt><trkpt lat="39.52508754938588" lon="8.590644486467744"><ele>256.0</ele><time>2026-04-27T10:10:33.833Z</time></trkpt><trkpt lat="39.52510464915638" lon="8.590474303038153"><ele>255.0</ele><time>2026-04-27T10:10:34.833Z</time></trkpt><trkpt lat="39.52513416597332" lon="8.590304966646135"><ele>254.0</ele><time>2026-04-27T10:10:35.833Z</time></trkpt><trkpt lat="39.52515914751268" lon="8.590137622407164"><ele>253.25</ele><time>2026-04-27T10:10:36.833Z</time></trkpt><trkpt lat="39.52518360377372" lon="8.589978696848767"><ele>252.5</ele><time>2026-04-27T10:10:37.833Z</time></trkpt><trkpt lat="39.525196939185754" lon="8.589822737916814"><ele>251.75</ele><time>2026-04-27T10:10:38.833Z</time></trkpt><trkpt lat="39.525163375417776" lon="8.589684116028494"><ele>251.0</ele><time>2026-04-27T10:10:39.833Z</time></trkpt><trkpt lat="39.52508359523684" lon="8.589569586967968"><ele>251.0</ele><time>2026-04-27T10:10:40.833Z</time></trkpt><trkpt lat="39.52497022073927" lon="8.589481087509343"><ele>251.0</ele><time>2026-04-27T10:10:41.833Z</time></trkpt><trkpt lat="39.524848892085636" lon="8.589410071471702"><ele>251.0</ele><time>2026-04-27T10:10:42.833Z</time></trkpt><trkpt lat="39.524746027955025" lon="8.589308750412858"><ele>251.0</ele><time>2026-04-27T10:10:43.833Z</time></trkpt><trkpt lat="39.52467810226219" lon="8.58916347274997"><ele>251.0</ele><time>2026-04-27T10:10:44.833Z</time></trkpt><trkpt lat="39.52464803525505" lon="8.588994619653235"><ele>251.0</ele><time>2026-04-27T10:10:45.833Z</time></trkpt><trkpt lat="39.52465394422223" lon="8.588818154605155"><ele>251.0</ele><time>2026-04-27T10:10:46.833Z</time></trkpt><trkpt lat="39.52468551607236" lon="8.588640218138762"><ele>251.0</ele><time>2026-04-27T10:10:47.833Z</time></trkpt><trkpt lat="39.52472184102135" lon="8.588459901622139"><ele>251.0</ele><time>2026-04-27T10:10:48.833Z</time></trkpt><trkpt lat="39.5247525872837" lon="8.588291769626318"><ele>251.0</ele><time>2026-04-27T10:10:49.833Z</time></trkpt><trkpt lat="39.52474647740637" lon="8.588141404267029"><ele>251.0</ele><time>2026-04-27T10:10:50.833Z</time></trkpt><trkpt lat="39.52470216343401" lon="8.588007709946254"><ele>251.0</ele><time>2026-04-27T10:10:51.833Z</time></trkpt><trkpt lat="39.52462186495036" lon="8.587899847364438"><ele>250.0</ele><time>2026-04-27T10:10:52.833Z</time></trkpt><trkpt lat="39.52450705596056" lon="8.587845202760617"><ele>249.0</ele><time>2026-04-27T10:10:53.833Z</time></trkpt><trkpt lat="39.52438711578215" lon="8.587829921012773"><ele>248.0</ele><time>2026-04-27T10:10:54.833Z</time></trkpt><trkpt lat="39.524260813255154" lon="8.587910016261327"><ele>247.0</ele><time>2026-04-27T10:10:55.833Z</time></trkpt><trkpt lat="39.52415724092693" lon="8.588042034859019"><ele>246.75</ele><time>2026-04-27T10:10:56.833Z</time></trkpt><trkpt lat="39.52404773324762" lon="8.588146951747742"><ele>246.5</ele><time>2026-04-27T10:10:57.833Z</time></trkpt><trkpt lat="39.52392303003471" lon="8.588176610851853"><ele>246.25</ele><time>2026-04-27T10:10:58.833Z</time></trkpt><trkpt lat="39.52378475493992" lon="8.58815530535735"><ele>246.0</ele><time>2026-04-27T10:10:59.833Z</time></trkpt><trkpt lat="39.52363394568521" lon="8.588128086657676"><ele>246.0</ele><time>2026-04-27T10:11:00.833Z</time></trkpt><trkpt lat="39.52348063842822" lon="8.588097135402384"><ele>246.0</ele><time>2026-04-27T10:11:01.833Z</time></trkpt><trkpt lat="39.523329315907105" lon="8.588061976909858"><ele>246.0</ele><time>2026-04-27T10:11:02.833Z</time></trkpt><trkpt lat="39.52318905090913" lon="8.588016142238358"><ele>246.0</ele><time>2026-04-27T10:11:03.833Z</time></trkpt><trkpt lat="39.52306685271896" lon="8.587936809650886"><ele>246.0</ele><time>2026-04-27T10:11:04.833Z</time></trkpt><trkpt lat="39.52300719304454" lon="8.587767712504121"><ele>246.0</ele><time>2026-04-27T10:11:05.833Z</time></trkpt><trkpt lat="39.522962979139635" lon="8.587606641587838"><ele>246.0</ele><time>2026-04-27T10:11:06.833Z</time></trkpt><trkpt lat="39.52292185372674" lon="8.587456792198008"><ele>246.0</ele><time>2026-04-27T10:11:07.833Z</time></trkpt><trkpt lat="39.52287617329042" lon="8.587330958050755"><ele>246.00000000000003</ele><time>2026-04-27T10:11:08.833Z</time></trkpt><trkpt lat="39.52286267815086" lon="8.587205521587052"><ele>246.00000000000003</ele><time>2026-04-27T10:11:09.833Z</time></trkpt><trkpt lat="39.52285888675366" lon="8.587086015644745"><ele>246.0</ele><time>2026-04-27T10:11:10.833Z</time></trkpt><trkpt lat="39.52286921497438" lon="8.586969457805687"><ele>246.0</ele><time>2026-04-27T10:11:11.833Z</time></trkpt><trkpt lat="39.5228810852133" lon="8.586853927508804"><ele>247.83333333333334</ele><time>2026-04-27T10:11:12.833Z</time></trkpt><trkpt lat="39.52289298324648" lon="8.586742965490634"><ele>249.66666666666669</ele><time>2026-04-27T10:11:13.833Z</time></trkpt><trkpt lat="39.522899278164424" lon="8.586641385165498"><ele>251.5</ele><time>2026-04-27T10:11:14.833Z</time></trkpt><trkpt lat="39.5228925116529" lon="8.5865396119034"><ele>253.33333333333334</ele><time>2026-04-27T10:11:15.833Z</time></trkpt><trkpt lat="39.522823199190555" lon="8.586458350136354"><ele>255.16666666666669</ele><time>2026-04-27T10:11:16.833Z</time></trkpt><trkpt lat="39.52276485500429" lon="8.58638099474883"><ele>257.0</ele><time>2026-04-27T10:11:17.833Z</time></trkpt><trkpt lat="39.522680014392506" lon="8.586349514116149"><ele>257.0</ele><time>2026-04-27T10:11:18.833Z</time></trkpt><trkpt lat="39.52257788013557" lon="8.586361593749462"><ele>257.0</ele><time>2026-04-27T10:11:19.833Z</time></trkpt><trkpt lat="39.5224957113938" lon="8.58639310760679"><ele>257.0</ele><time>2026-04-27T10:11:20.833Z</time></trkpt><trkpt lat="39.52241315110325" lon="8.586425846034514"><ele>257.0</ele><time>2026-04-27T10:11:21.833Z</time></trkpt><trkpt lat="39.52233021047717" lon="8.586449196390962"><ele>257.0</ele><time>2026-04-27T10:11:22.833Z</time></trkpt><trkpt lat="39.52224390730619" lon="8.586461967700796"><ele>257.0</ele><time>2026-04-27T10:11:23.833Z</time></trkpt><trkpt lat="39.52215680942716" lon="8.586443329334218"><ele>257.0</ele><time>2026-04-27T10:11:24.833Z</time></trkpt><trkpt lat="39.52207510338627" lon="8.586397568456931"><ele>257.0</ele><time>2026-04-27T10:11:25.833Z</time></trkpt><trkpt lat="39.52199810915077" lon="8.5863320924717"><ele>257.0</ele><time>2026-04-27T10:11:26.833Z</time></trkpt><trkpt lat="39.52192909717582" lon="8.58625775017341"><ele>257.0</ele><time>2026-04-27T10:11:27.833Z</time></trkpt><trkpt lat="39.52186465776391" lon="8.586174738605836"><ele>257.0</ele><time>2026-04-27T10:11:28.833Z</time></trkpt><trkpt lat="39.52180770731046" lon="8.586085826369189"><ele>258.75</ele><time>2026-04-27T10:11:29.833Z</time></trkpt><trkpt lat="39.521805862000804" lon="8.585965511241875"><ele>260.5</ele><time>2026-04-27T10:11:30.833Z</time></trkpt><trkpt lat="39.52182992034522" lon="8.585824136079532"><ele>262.25</ele><time>2026-04-27T10:11:31.832Z</time></trkpt><trkpt lat="39.52188363122429" lon="8.58564603186452"><ele>264.0</ele><time>2026-04-27T10:11:32.832Z</time></trkpt><trkpt lat="39.521974119036315" lon="8.58545806344426"><ele>266.3333333333333</ele><time>2026-04-27T10:11:33.832Z</time></trkpt><trkpt lat="39.52205421673849" lon="8.585237368483387"><ele>268.66666666666663</ele><time>2026-04-27T10:11:34.832Z</time></trkpt><trkpt lat="39.52212681950013" lon="8.585009959771861"><ele>271.0</ele><time>2026-04-27T10:11:35.832Z</time></trkpt><trkpt lat="39.522191139121894" lon="8.584802697060223"><ele>273.3333333333333</ele><time>2026-04-27T10:11:36.832Z</time></trkpt><trkpt lat="39.52223523076678" lon="8.584617889990461"><ele>275.6666666666667</ele><time>2026-04-27T10:11:37.832Z</time></trkpt><trkpt lat="39.522220022592364" lon="8.584427173343267"><ele>278.0</ele><time>2026-04-27T10:11:38.832Z</time></trkpt><trkpt lat="39.52212808349757" lon="8.584241809738376"><ele>277.33333333333337</ele><time>2026-04-27T10:11:39.832Z</time></trkpt><trkpt lat="39.52199613098382" lon="8.58406573768916"><ele>276.6666666666667</ele><time>2026-04-27T10:11:40.832Z</time></trkpt><trkpt lat="39.52183494566396" lon="8.583882669445785"><ele>276.0</ele><time>2026-04-27T10:11:41.832Z</time></trkpt><trkpt lat="39.52167758364135" lon="8.583666962208978"><ele>280.5</ele><time>2026-04-27T10:11:42.832Z</time></trkpt><trkpt lat="39.521496986821816" lon="8.583467528355024"><ele>285.0</ele><time>2026-04-27T10:11:43.832Z</time></trkpt><trkpt lat="39.52132293274979" lon="8.583248759150074"><ele>285.5</ele><time>2026-04-27T10:11:44.832Z</time></trkpt><trkpt lat="39.521146322930235" lon="8.583025453410029"><ele>286.0</ele><time>2026-04-27T10:11:45.832Z</time></trkpt><trkpt lat="39.52096877152526" lon="8.582800620300738"><ele>286.0</ele><time>2026-04-27T10:11:46.832Z</time></trkpt><trkpt lat="39.520793300990775" lon="8.582576757397897"><ele>286.0</ele><time>2026-04-27T10:11:47.832Z</time></trkpt><trkpt lat="39.520626674351924" lon="8.582372648482659"><ele>286.0</ele><time>2026-04-27T10:11:48.832Z</time></trkpt><trkpt lat="39.52047661678303" lon="8.582184236276088"><ele>286.0</ele><time>2026-04-27T10:11:49.832Z</time></trkpt><trkpt lat="39.52035784462228" lon="8.582002840283643"><ele>286.0</ele><time>2026-04-27T10:11:50.832Z</time></trkpt><trkpt lat="39.52028005398995" lon="8.58183751985682"><ele>287.66666666666663</ele><time>2026-04-27T10:11:51.832Z</time></trkpt><trkpt lat="39.52027996801035" lon="8.581639460565045"><ele>289.3333333333333</ele><time>2026-04-27T10:11:52.832Z</time></trkpt><trkpt lat="39.52032419469661" lon="8.581402040007777"><ele>291.0</ele><time>2026-04-27T10:11:53.832Z</time></trkpt><trkpt lat="39.520360537785876" lon="8.5811518611646"><ele>294.0</ele><time>2026-04-27T10:11:54.832Z</time></trkpt><trkpt lat="39.5203577298742" lon="8.58090137137095"><ele>297.0</ele><time>2026-04-27T10:11:55.832Z</time></trkpt><trkpt lat="39.52029105747898" lon="8.580660646779613"><ele>300.0</ele><time>2026-04-27T10:11:56.832Z</time></trkpt><trkpt lat="39.520201885273586" lon="8.580421075709285"><ele>302.6666666666667</ele><time>2026-04-27T10:11:57.832Z</time></trkpt><trkpt lat="39.5201236740272" lon="8.580177638968578"><ele>305.33333333333337</ele><time>2026-04-27T10:11:58.832Z</time></trkpt><trkpt lat="39.520088020922884" lon="8.579950366140027"><ele>308.0</ele><time>2026-04-27T10:11:59.832Z</time></trkpt><trkpt lat="39.52008438608044" lon="8.579713964569626"><ele>307.6666666666667</ele><time>2026-04-27T10:12:00.832Z</time></trkpt><trkpt lat="39.520084532896234" lon="8.579458204783805"><ele>307.3333333333333</ele><time>2026-04-27T10:12:01.832Z</time></trkpt><trkpt lat="39.520067680483876" lon="8.579175975262686"><ele>307.0</ele><time>2026-04-27T10:12:02.832Z</time></trkpt><trkpt lat="39.52002238371119" lon="8.578891738910004"><ele>307.0</ele><time>2026-04-27T10:12:03.832Z</time></trkpt><trkpt lat="39.51996724561773" lon="8.578639776342014"><ele>307.0</ele><time>2026-04-27T10:12:04.832Z</time></trkpt><trkpt lat="39.51992459024556" lon="8.57843165044579"><ele>307.0</ele><time>2026-04-27T10:12:05.832Z</time></trkpt><trkpt lat="39.51990087285237" lon="8.578249974627358"><ele>307.0</ele><time>2026-04-27T10:12:06.832Z</time></trkpt><trkpt lat="39.519955315968765" lon="8.578075489139746"><ele>307.0</ele><time>2026-04-27T10:12:07.832Z</time></trkpt><trkpt lat="39.5200666558633" lon="8.577900421036363"><ele>307.0</ele><time>2026-04-27T10:12:08.832Z</time></trkpt><trkpt lat="39.520189014548954" lon="8.57769656109689"><ele>303.0</ele><time>2026-04-27T10:12:09.833Z</time></trkpt><trkpt lat="39.520268860527494" lon="8.577437823388431"><ele>299.0</ele><time>2026-04-27T10:12:10.833Z</time></trkpt><trkpt lat="39.52031099527292" lon="8.577143563261885"><ele>295.0</ele><time>2026-04-27T10:12:11.833Z</time></trkpt><trkpt lat="39.520332637385465" lon="8.576829469722073"><ele>293.66666666666663</ele><time>2026-04-27T10:12:12.833Z</time></trkpt><trkpt lat="39.520369976067556" lon="8.576541630076838"><ele>292.3333333333333</ele><time>2026-04-27T10:12:13.833Z</time></trkpt><trkpt lat="39.52040169142586" lon="8.576295254851711"><ele>291.0</ele><time>2026-04-27T10:12:14.833Z</time></trkpt><trkpt lat="39.520398213399694" lon="8.576074940703462"><ele>291.0</ele><time>2026-04-27T10:12:15.833Z</time></trkpt><trkpt lat="39.52032090593411" lon="8.575860204325245"><ele>291.0</ele><time>2026-04-27T10:12:16.833Z</time></trkpt><trkpt lat="39.52019025972776" lon="8.575651431323626"><ele>291.0</ele><time>2026-04-27T10:12:17.833Z</time></trkpt><trkpt lat="39.52004424001183" lon="8.575438062553774"><ele>294.6666666666667</ele><time>2026-04-27T10:12:18.833Z</time></trkpt><trkpt lat="39.51990660585299" lon="8.575233215580024"><ele>298.33333333333337</ele><time>2026-04-27T10:12:19.833Z</time></trkpt><trkpt lat="39.51979504099183" lon="8.575041372666373"><ele>302.0</ele><time>2026-04-27T10:12:20.833Z</time></trkpt><trkpt lat="39.51972052087583" lon="8.574839025037992"><ele>302.0</ele><time>2026-04-27T10:12:21.833Z</time></trkpt><trkpt lat="39.51970233854072" lon="8.574633868503398"><ele>302.0</ele><time>2026-04-27T10:12:22.833Z</time></trkpt><trkpt lat="39.519755240670726" lon="8.574453612790169"><ele>302.0</ele><time>2026-04-27T10:12:23.833Z</time></trkpt><trkpt lat="39.519871598673824" lon="8.574298731646774"><ele>300.33333333333337</ele><time>2026-04-27T10:12:24.833Z</time></trkpt><trkpt lat="39.51999374653211" lon="8.574179540897092"><ele>298.6666666666667</ele><time>2026-04-27T10:12:25.833Z</time></trkpt><trkpt lat="39.520024081094405" lon="8.574005532939687"><ele>297.0</ele><time>2026-04-27T10:12:26.833Z</time></trkpt><trkpt lat="39.52000843456297" lon="8.573774978806162"><ele>294.0</ele><time>2026-04-27T10:12:27.833Z</time></trkpt><trkpt lat="39.52000984679681" lon="8.573528541309482"><ele>291.0</ele><time>2026-04-27T10:12:28.833Z</time></trkpt><trkpt lat="39.52007187718319" lon="8.573268707575414"><ele>288.0</ele><time>2026-04-27T10:12:29.833Z</time></trkpt><trkpt lat="39.5201670466995" lon="8.57302434911901"><ele>287.3333333333333</ele><time>2026-04-27T10:12:30.833Z</time></trkpt><trkpt lat="39.52030256008832" lon="8.572795416143418"><ele>286.66666666666663</ele><time>2026-04-27T10:12:31.833Z</time></trkpt><trkpt lat="39.52043038276591" lon="8.572596366867256"><ele>286.0</ele><time>2026-04-27T10:12:32.832Z</time></trkpt><trkpt lat="39.520543386646054" lon="8.572394745837308"><ele>290.0</ele><time>2026-04-27T10:12:33.832Z</time></trkpt><trkpt lat="39.52065489884551" lon="8.572217997602932"><ele>294.0</ele><time>2026-04-27T10:12:34.832Z</time></trkpt><trkpt lat="39.52075707401388" lon="8.572056698326088"><ele>298.0</ele><time>2026-04-27T10:12:35.832Z</time></trkpt><trkpt lat="39.52083069885645" lon="8.571933594549785"><ele>298.0</ele><time>2026-04-27T10:12:36.832Z</time></trkpt><trkpt lat="39.52085665568884" lon="8.571807353375219"><ele>298.0</ele><time>2026-04-27T10:12:37.832Z</time></trkpt><trkpt lat="39.52082397905686" lon="8.571690296148196"><ele>298.0</ele><time>2026-04-27T10:12:38.832Z</time></trkpt><trkpt lat="39.520731458767884" lon="8.571609851297147"><ele>298.0</ele><time>2026-04-27T10:12:39.832Z</time></trkpt><trkpt lat="39.52061198513657" lon="8.571608475774276"><ele>298.0</ele><time>2026-04-27T10:12:40.832Z</time></trkpt><trkpt lat="39.520472467378156" lon="8.571683837643022"><ele>299.66666666666663</ele><time>2026-04-27T10:12:41.832Z</time></trkpt><trkpt lat="39.52030644435849" lon="8.57178362642156"><ele>301.3333333333333</ele><time>2026-04-27T10:12:42.832Z</time></trkpt><trkpt lat="39.52013946307067" lon="8.571885160782374"><ele>303.0</ele><time>2026-04-27T10:12:43.832Z</time></trkpt><trkpt lat="39.51999813522075" lon="8.57195295559322"><ele>303.0</ele><time>2026-04-27T10:12:44.832Z</time></trkpt><trkpt lat="39.51983644822852" lon="8.571996958695951"><ele>303.0</ele><time>2026-04-27T10:12:45.832Z</time></trkpt><trkpt lat="39.51963969399133" lon="8.572003307129478"><ele>303.0</ele><time>2026-04-27T10:12:46.832Z</time></trkpt><trkpt lat="39.519457928101374" lon="8.571949123389846"><ele>304.6666666666667</ele><time>2026-04-27T10:12:47.832Z</time></trkpt><trkpt lat="39.51928092185804" lon="8.571890993782084"><ele>306.33333333333337</ele><time>2026-04-27T10:12:48.832Z</time></trkpt><trkpt lat="39.519109511395754" lon="8.571891440127498"><ele>308.0</ele><time>2026-04-27T10:12:49.832Z</time></trkpt><trkpt lat="39.51896998751947" lon="8.571891678508909"><ele>308.0</ele><time>2026-04-27T10:12:50.832Z</time></trkpt><trkpt lat="39.51889211792552" lon="8.571882114053716"><ele>308.0</ele><time>2026-04-27T10:12:51.832Z</time></trkpt><trkpt lat="39.51885211740236" lon="8.571765727268659"><ele>308.0</ele><time>2026-04-27T10:12:52.832Z</time></trkpt><trkpt lat="39.51884069860239" lon="8.571600144396731"><ele>308.0</ele><time>2026-04-27T10:12:53.832Z</time></trkpt><trkpt lat="39.51884135780719" lon="8.571430634141548"><ele>308.0</ele><time>2026-04-27T10:12:54.832Z</time></trkpt><trkpt lat="39.51877916386777" lon="8.571288942796517"><ele>307.5</ele><time>2026-04-27T10:12:55.832Z</time></trkpt><trkpt lat="39.51865151899908" lon="8.571200368144424"><ele>307.0</ele><time>2026-04-27T10:12:56.832Z</time></trkpt><trkpt lat="39.51849605576215" lon="8.571172797102012"><ele>306.5</ele><time>2026-04-27T10:12:57.832Z</time></trkpt><trkpt lat="39.51837363233285" lon="8.571113179943556"><ele>306.0</ele><time>2026-04-27T10:12:58.832Z</time></trkpt><trkpt lat="39.51831874977667" lon="8.570963320139201"><ele>307.6666666666667</ele><time>2026-04-27T10:12:59.832Z</time></trkpt><trkpt lat="39.51829880460243" lon="8.570760602031134"><ele>309.33333333333337</ele><time>2026-04-27T10:13:00.832Z</time></trkpt><trkpt lat="39.5182747324497" lon="8.57052629350629"><ele>311.0</ele><time>2026-04-27T10:13:01.832Z</time></trkpt><trkpt lat="39.518238944609884" lon="8.570261150188733"><ele>311.0</ele><time>2026-04-27T10:13:02.832Z</time></trkpt><trkpt lat="39.51819247129087" lon="8.570019317455127"><ele>311.0</ele><time>2026-04-27T10:13:03.832Z</time></trkpt><trkpt lat="39.518152246934136" lon="8.569729632818637"><ele>311.0</ele><time>2026-04-27T10:13:04.832Z</time></trkpt><trkpt lat="39.51811324194661" lon="8.569425068975283"><ele>310.33333333333337</ele><time>2026-04-27T10:13:05.832Z</time></trkpt><trkpt lat="39.518078001702854" lon="8.569135899846856"><ele>309.6666666666667</ele><time>2026-04-27T10:13:06.832Z</time></trkpt><trkpt lat="39.51804801593597" lon="8.568860710279585"><ele>309.0</ele><time>2026-04-27T10:13:07.832Z</time></trkpt><trkpt lat="39.518043547533594" lon="8.568597657671903"><ele>309.0</ele><time>2026-04-27T10:13:08.832Z</time></trkpt><trkpt lat="39.51807030748232" lon="8.56834297489614"><ele>309.0</ele><time>2026-04-27T10:13:09.832Z</time></trkpt><trkpt lat="39.51811400118459" lon="8.568109094214632"><ele>309.0</ele><time>2026-04-27T10:13:10.832Z</time></trkpt><trkpt lat="39.518185552903866" lon="8.567907470705634"><ele>308.0</ele><time>2026-04-27T10:13:11.832Z</time></trkpt><trkpt lat="39.51828129328109" lon="8.56771393622945"><ele>307.0</ele><time>2026-04-27T10:13:12.832Z</time></trkpt><trkpt lat="39.51839026479055" lon="8.56750769037375"><ele>306.0</ele><time>2026-04-27T10:13:13.832Z</time></trkpt><trkpt lat="39.51848767664821" lon="8.567284251825354"><ele>306.0</ele><time>2026-04-27T10:13:14.832Z</time></trkpt><trkpt lat="39.51853429958347" lon="8.567042432813944"><ele>306.0</ele><time>2026-04-27T10:13:15.832Z</time></trkpt><trkpt lat="39.51855246324271" lon="8.566784591627192"><ele>306.0</ele><time>2026-04-27T10:13:16.832Z</time></trkpt><trkpt lat="39.51855274563129" lon="8.56648939967416"><ele>304.5</ele><time>2026-04-27T10:13:17.832Z</time></trkpt><trkpt lat="39.51852858517369" lon="8.566183920269967"><ele>303.0</ele><time>2026-04-27T10:13:18.832Z</time></trkpt><trkpt lat="39.51849292965142" lon="8.56589515279272"><ele>303.0</ele><time>2026-04-27T10:13:19.832Z</time></trkpt><trkpt lat="39.518488030108614" lon="8.565615409175399"><ele>303.0</ele><time>2026-04-27T10:13:20.832Z</time></trkpt><trkpt lat="39.51850189720132" lon="8.565369790424654"><ele>303.0</ele><time>2026-04-27T10:13:21.832Z</time></trkpt><trkpt lat="39.51853423820147" lon="8.565175797372865"><ele>303.75</ele><time>2026-04-27T10:13:22.832Z</time></trkpt><trkpt lat="39.51855790558694" lon="8.56503244521021"><ele>304.5</ele><time>2026-04-27T10:13:23.832Z</time></trkpt><trkpt lat="39.51851319408046" lon="8.56491593384505"><ele>305.25</ele><time>2026-04-27T10:13:24.832Z</time></trkpt><trkpt lat="39.51840014831353" lon="8.56479537609719"><ele>306.0</ele><time>2026-04-27T10:13:25.832Z</time></trkpt><trkpt lat="39.51822412950027" lon="8.564706319429296"><ele>306.0</ele><time>2026-04-27T10:13:26.832Z</time></trkpt><trkpt lat="39.518027007384596" lon="8.564610587368284"><ele>306.0</ele><time>2026-04-27T10:13:27.832Z</time></trkpt><trkpt lat="39.51784149033424" lon="8.564535876351524"><ele>306.0</ele><time>2026-04-27T10:13:28.832Z</time></trkpt><trkpt lat="39.51763157090153" lon="8.564431970015189"><ele>308.0</ele><time>2026-04-27T10:13:29.832Z</time></trkpt><trkpt lat="39.517435477856935" lon="8.564334754898631"><ele>310.0</ele><time>2026-04-27T10:13:30.831Z</time></trkpt><trkpt lat="39.51726638581844" lon="8.56424074450292"><ele>312.0</ele><time>2026-04-27T10:13:31.831Z</time></trkpt><trkpt lat="39.517145676544" lon="8.564102319048907"><ele>311.3333333333333</ele><time>2026-04-27T10:13:32.831Z</time></trkpt><trkpt lat="39.51704567328244" lon="8.563896719375089"><ele>310.66666666666663</ele><time>2026-04-27T10:13:33.831Z</time></trkpt><trkpt lat="39.516953055421915" lon="8.563658744244004"><ele>310.0</ele><time>2026-04-27T10:13:34.831Z</time></trkpt><trkpt lat="39.51686405356052" lon="8.563388344001824"><ele>310.0</ele><time>2026-04-27T10:13:35.831Z</time></trkpt><trkpt lat="39.51680315181983" lon="8.563095033129798"><ele>310.0</ele><time>2026-04-27T10:13:36.831Z</time></trkpt><trkpt lat="39.51673297340681" lon="8.562811597205341"><ele>311.66666666666663</ele><time>2026-04-27T10:13:37.831Z</time></trkpt><trkpt lat="39.51667752255642" lon="8.562560670703254"><ele>313.3333333333333</ele><time>2026-04-27T10:13:38.831Z</time></trkpt><trkpt lat="39.516576995252755" lon="8.562337109093397"><ele>315.0</ele><time>2026-04-27T10:13:39.831Z</time></trkpt><trkpt lat="39.51641772673493" lon="8.562133996052241"><ele>314.6666666666667</ele><time>2026-04-27T10:13:40.831Z</time></trkpt><trkpt lat="39.5162523986596" lon="8.561949428274435"><ele>314.33333333333337</ele><time>2026-04-27T10:13:41.831Z</time></trkpt><trkpt lat="39.516101054102194" lon="8.56176131543003"><ele>314.0</ele><time>2026-04-27T10:13:42.831Z</time></trkpt><trkpt lat="39.515969523659116" lon="8.561600381526373"><ele>314.0</ele><time>2026-04-27T10:13:43.831Z</time></trkpt><trkpt lat="39.515867833085544" lon="8.561437493317062"><ele>314.0</ele><time>2026-04-27T10:13:44.831Z</time></trkpt><trkpt lat="39.51582040285807" lon="8.56121415789938"><ele>314.0</ele><time>2026-04-27T10:13:45.831Z</time></trkpt><trkpt lat="39.51579188668913" lon="8.560985990067474"><ele>314.33333333333337</ele><time>2026-04-27T10:13:46.831Z</time></trkpt><trkpt lat="39.515799195173095" lon="8.560770829716546"><ele>314.6666666666667</ele><time>2026-04-27T10:13:47.831Z</time></trkpt><trkpt lat="39.51589723270809" lon="8.560580498738465"><ele>315.0</ele><time>2026-04-27T10:13:48.831Z</time></trkpt><trkpt lat="39.51601898417738" lon="8.560372231827643"><ele>312.5</ele><time>2026-04-27T10:13:49.831Z</time></trkpt><trkpt lat="39.51614520083755" lon="8.560121776987899"><ele>310.0</ele><time>2026-04-27T10:13:50.831Z</time></trkpt><trkpt lat="39.51628823671492" lon="8.559881352208423"><ele>313.0</ele><time>2026-04-27T10:13:51.831Z</time></trkpt><trkpt lat="39.51643537868929" lon="8.559627221067236"><ele>316.0</ele><time>2026-04-27T10:13:52.831Z</time></trkpt><trkpt lat="39.516612483870546" lon="8.559387462431323"><ele>316.0</ele><time>2026-04-27T10:13:53.831Z</time></trkpt><trkpt lat="39.51680570775483" lon="8.559176271215572"><ele>316.0</ele><time>2026-04-27T10:13:54.831Z</time></trkpt><trkpt lat="39.51697096224594" lon="8.558949658375932"><ele>318.0</ele><time>2026-04-27T10:13:55.831Z</time></trkpt><trkpt lat="39.517158685423304" lon="8.55876496744644"><ele>320.0</ele><time>2026-04-27T10:13:56.831Z</time></trkpt><trkpt lat="39.51737777181874" lon="8.55862412749204"><ele>320.0</ele><time>2026-04-27T10:13:57.831Z</time></trkpt><trkpt lat="39.517569097062086" lon="8.558465155760373"><ele>320.0</ele><time>2026-04-27T10:13:58.831Z</time></trkpt><trkpt lat="39.51775293043223" lon="8.558335815897607"><ele>320.0</ele><time>2026-04-27T10:13:59.831Z</time></trkpt><trkpt lat="39.51790848930255" lon="8.558230780946065"><ele>320.5</ele><time>2026-04-27T10:14:00.831Z</time></trkpt><trkpt lat="39.51802728714775" lon="8.558136799570628"><ele>321.0</ele><time>2026-04-27T10:14:01.831Z</time></trkpt><trkpt lat="39.518102061216524" lon="8.558002062918685"><ele>321.5</ele><time>2026-04-27T10:14:02.831Z</time></trkpt><trkpt lat="39.51811883005164" lon="8.557832227081938"><ele>322.0</ele><time>2026-04-27T10:14:03.831Z</time></trkpt><trkpt lat="39.51807331862793" lon="8.557660360007242"><ele>322.0</ele><time>2026-04-27T10:14:04.831Z</time></trkpt><trkpt lat="39.517985089125645" lon="8.557482474183846"><ele>322.0</ele><time>2026-04-27T10:14:05.831Z</time></trkpt><trkpt lat="39.51785901996795" lon="8.557391743795272"><ele>322.0</ele><time>2026-04-27T10:14:06.831Z</time></trkpt><trkpt lat="39.51769137127544" lon="8.55737574846585"><ele>322.0</ele><time>2026-04-27T10:14:07.831Z</time></trkpt><trkpt lat="39.517489741262764" lon="8.557421263091186"><ele>322.0</ele><time>2026-04-27T10:14:08.831Z</time></trkpt><trkpt lat="39.51728352389268" lon="8.557497390438728"><ele>322.0</ele><time>2026-04-27T10:14:09.831Z</time></trkpt><trkpt lat="39.51706793620267" lon="8.557570231397818"><ele>329.5</ele><time>2026-04-27T10:14:10.831Z</time></trkpt><trkpt lat="39.51684967709008" lon="8.557692977948603"><ele>337.0</ele><time>2026-04-27T10:14:11.831Z</time></trkpt><trkpt lat="39.51663070021295" lon="8.557821029745483"><ele>337.0</ele><time>2026-04-27T10:14:12.831Z</time></trkpt><trkpt lat="39.5163968358488" lon="8.557838214242256"><ele>337.0</ele><time>2026-04-27T10:14:13.831Z</time></trkpt><trkpt lat="39.51616514498964" lon="8.557903482914108"><ele>333.66666666666663</ele><time>2026-04-27T10:14:14.831Z</time></trkpt><trkpt lat="39.51597631168318" lon="8.557983432644393"><ele>330.3333333333333</ele><time>2026-04-27T10:14:15.831Z</time></trkpt><trkpt lat="39.51582719487164" lon="8.558038109517295"><ele>327.0</ele><time>2026-04-27T10:14:16.831Z</time></trkpt><trkpt lat="39.51569208605202" lon="8.55804128220909"><ele>327.0</ele><time>2026-04-27T10:14:17.831Z</time></trkpt><trkpt lat="39.515553457345035" lon="8.557889002702257"><ele>327.0</ele><time>2026-04-27T10:14:18.832Z</time></trkpt><trkpt lat="39.51540844189391" lon="8.55770524764455"><ele>327.0</ele><time>2026-04-27T10:14:19.831Z</time></trkpt><trkpt lat="39.5152783899319" lon="8.557542578295754"><ele>331.25</ele><time>2026-04-27T10:14:20.831Z</time></trkpt><trkpt lat="39.51517148631331" lon="8.55744372244624"><ele>335.5</ele><time>2026-04-27T10:14:21.832Z</time></trkpt><trkpt lat="39.515066010756605" lon="8.55742693120278"><ele>339.75</ele><time>2026-04-27T10:14:22.832Z</time></trkpt><trkpt lat="39.51494468159024" lon="8.55749202161748"><ele>344.0</ele><time>2026-04-27T10:14:23.832Z</time></trkpt><trkpt lat="39.514883087673645" lon="8.557698978261865"><ele>341.33333333333337</ele><time>2026-04-27T10:14:24.831Z</time></trkpt><trkpt lat="39.51483020040226" lon="8.557923081311733"><ele>338.6666666666667</ele><time>2026-04-27T10:14:25.832Z</time></trkpt><trkpt lat="39.51477588923969" lon="8.558113552261466"><ele>336.0</ele><time>2026-04-27T10:14:26.832Z</time></trkpt><trkpt lat="39.514678427902595" lon="8.558224786544463"><ele>339.3333333333333</ele><time>2026-04-27T10:14:27.831Z</time></trkpt><trkpt lat="39.51450542071523" lon="8.558300653534724"><ele>342.66666666666663</ele><time>2026-04-27T10:14:28.831Z</time></trkpt><trkpt lat="39.51428322887658" lon="8.558359920874015"><ele>346.0</ele><time>2026-04-27T10:14:29.831Z</time></trkpt><trkpt lat="39.51406089407045" lon="8.558332235379263"><ele>346.0</ele><time>2026-04-27T10:14:30.831Z</time></trkpt><trkpt lat="39.51383514993865" lon="8.558303438429931"><ele>346.0</ele><time>2026-04-27T10:14:31.831Z</time></trkpt><trkpt lat="39.51363869164939" lon="8.558338039931684"><ele>346.0</ele><time>2026-04-27T10:14:32.831Z</time></trkpt><trkpt lat="39.51346130521844" lon="8.55846810346742"><ele>350.0</ele><time>2026-04-27T10:14:33.831Z</time></trkpt><trkpt lat="39.51329775132475" lon="8.558561662454968"><ele>354.0</ele><time>2026-04-27T10:14:34.831Z</time></trkpt><trkpt lat="39.513116354205835" lon="8.558522991393437"><ele>358.0</ele><time>2026-04-27T10:14:35.831Z</time></trkpt><trkpt lat="39.51294788974825" lon="8.55848617242966"><ele>359.0</ele><time>2026-04-27T10:14:36.831Z</time></trkpt><trkpt lat="39.51280056055395" lon="8.55851812056042"><ele>360.0</ele><time>2026-04-27T10:14:37.831Z</time></trkpt><trkpt lat="39.51267678693552" lon="8.55869673598778"><ele>361.0</ele><time>2026-04-27T10:14:38.831Z</time></trkpt><trkpt lat="39.51255222799091" lon="8.558912724807863"><ele>361.0</ele><time>2026-04-27T10:14:39.831Z</time></trkpt><trkpt lat="39.51241955120279" lon="8.559133998915723"><ele>361.0</ele><time>2026-04-27T10:14:40.831Z</time></trkpt><trkpt lat="39.51227830425606" lon="8.559310094070629"><ele>361.0</ele><time>2026-04-27T10:14:41.831Z</time></trkpt><trkpt lat="39.51213900554731" lon="8.55944404249972"><ele>364.0</ele><time>2026-04-27T10:14:42.831Z</time></trkpt><trkpt lat="39.511994410476966" lon="8.55950434648128"><ele>367.0</ele><time>2026-04-27T10:14:43.831Z</time></trkpt><trkpt lat="39.51182079478964" lon="8.559472836205044"><ele>370.0</ele><time>2026-04-27T10:14:44.831Z</time></trkpt><trkpt lat="39.51163394638238" lon="8.559392265975532"><ele>370.0</ele><time>2026-04-27T10:14:45.831Z</time></trkpt><trkpt lat="39.51149141680165" lon="8.559264095791095"><ele>370.0</ele><time>2026-04-27T10:14:46.831Z</time></trkpt><trkpt lat="39.51139497475106" lon="8.559037726675236"><ele>370.0</ele><time>2026-04-27T10:14:47.831Z</time></trkpt><trkpt lat="39.5113167835866" lon="8.55876712617992"><ele>373.3333333333333</ele><time>2026-04-27T10:14:48.831Z</time></trkpt><trkpt lat="39.511245668955674" lon="8.558540582760674"><ele>376.6666666666667</ele><time>2026-04-27T10:14:49.831Z</time></trkpt><trkpt lat="39.51114471159598" lon="8.55837874632714"><ele>380.0</ele><time>2026-04-27T10:14:50.831Z</time></trkpt><trkpt lat="39.511013119286645" lon="8.55832165644665"><ele>380.0</ele><time>2026-04-27T10:14:51.831Z</time></trkpt><trkpt lat="39.51088417997555" lon="8.558272344256933"><ele>380.0</ele><time>2026-04-27T10:14:52.831Z</time></trkpt><trkpt lat="39.51075562897206" lon="8.558223461017839"><ele>380.0</ele><time>2026-04-27T10:14:53.831Z</time></trkpt><trkpt lat="39.51063736466056" lon="8.558167076911564"><ele>380.0</ele><time>2026-04-27T10:14:54.831Z</time></trkpt><trkpt lat="39.51052180882582" lon="8.558079461020936"><ele>381.0</ele><time>2026-04-27T10:14:55.831Z</time></trkpt><trkpt lat="39.51039823336873" lon="8.557923863757113"><ele>382.0</ele><time>2026-04-27T10:14:56.831Z</time></trkpt><trkpt lat="39.51024578567139" lon="8.557736467092159"><ele>383.0</ele><time>2026-04-27T10:14:57.831Z</time></trkpt><trkpt lat="39.51007820853227" lon="8.557530472518883"><ele>386.0</ele><time>2026-04-27T10:14:58.831Z</time></trkpt><trkpt lat="39.509893132151724" lon="8.557302622255191"><ele>389.0</ele><time>2026-04-27T10:14:59.831Z</time></trkpt><trkpt lat="39.50970755119844" lon="8.557073712424636"><ele>390.66666666666663</ele><time>2026-04-27T10:15:00.831Z</time></trkpt><trkpt lat="39.50953899136654" lon="8.556865797709472"><ele>392.33333333333337</ele><time>2026-04-27T10:15:01.831Z</time></trkpt><trkpt lat="39.50938862366562" lon="8.55667916498019"><ele>394.0</ele><time>2026-04-27T10:15:02.831Z</time></trkpt><trkpt lat="39.509262281406265" lon="8.556513635883485"><ele>394.0</ele><time>2026-04-27T10:15:03.831Z</time></trkpt><trkpt lat="39.5091867040746" lon="8.556326320878977"><ele>394.0</ele><time>2026-04-27T10:15:04.831Z</time></trkpt><trkpt lat="39.509172272824436" lon="8.556080124142582"><ele>394.0</ele><time>2026-04-27T10:15:05.831Z</time></trkpt><trkpt lat="39.50918118382707" lon="8.555781557731713"><ele>393.5</ele><time>2026-04-27T10:15:06.831Z</time></trkpt><trkpt lat="39.509174474385254" lon="8.555453513571303"><ele>393.0</ele><time>2026-04-27T10:15:07.831Z</time></trkpt><trkpt lat="39.50916049890686" lon="8.555106747905372"><ele>392.0</ele><time>2026-04-27T10:15:08.831Z</time></trkpt><trkpt lat="39.50914132510727" lon="8.55474253906314"><ele>391.0</ele><time>2026-04-27T10:15:09.831Z</time></trkpt><trkpt lat="39.50912958029383" lon="8.554385116265237"><ele>388.5</ele><time>2026-04-27T10:15:10.831Z</time></trkpt><trkpt lat="39.50912149233354" lon="8.554066971213581"><ele>386.0</ele><time>2026-04-27T10:15:11.831Z</time></trkpt><trkpt lat="39.50911273919144" lon="8.553798804292052"><ele>385.0</ele><time>2026-04-27T10:15:12.831Z</time></trkpt><trkpt lat="39.50912018190005" lon="8.553561211928677"><ele>384.0</ele><time>2026-04-27T10:15:13.831Z</time></trkpt><trkpt lat="39.50921508946237" lon="8.553345986909328"><ele>383.0</ele><time>2026-04-27T10:15:14.83Z</time></trkpt><trkpt lat="39.50936458687821" lon="8.553109362961651"><ele>384.0</ele><time>2026-04-27T10:15:15.83Z</time></trkpt><trkpt lat="39.50949933751653" lon="8.552833976629772"><ele>385.0</ele><time>2026-04-27T10:15:16.83Z</time></trkpt><trkpt lat="39.50961029168258" lon="8.552514421329453"><ele>385.0</ele><time>2026-04-27T10:15:17.83Z</time></trkpt><trkpt lat="39.509701879248986" lon="8.552163911861818"><ele>385.0</ele><time>2026-04-27T10:15:18.83Z</time></trkpt><trkpt lat="39.50979597878637" lon="8.551816323054664"><ele>381.5</ele><time>2026-04-27T10:15:19.83Z</time></trkpt><trkpt lat="39.50988172551575" lon="8.551506249672324"><ele>378.0</ele><time>2026-04-27T10:15:20.83Z</time></trkpt><trkpt lat="39.5099607447288" lon="8.551239697933916"><ele>376.3333333333333</ele><time>2026-04-27T10:15:21.83Z</time></trkpt><trkpt lat="39.51002635479264" lon="8.551005822533742"><ele>374.66666666666663</ele><time>2026-04-27T10:15:22.83Z</time></trkpt><trkpt lat="39.51004421106541" lon="8.550765072051213"><ele>373.0</ele><time>2026-04-27T10:15:23.83Z</time></trkpt><trkpt lat="39.5099964537076" lon="8.550470722278362"><ele>373.3333333333333</ele><time>2026-04-27T10:15:24.83Z</time></trkpt><trkpt lat="39.50992077922195" lon="8.550158079702598"><ele>373.6666666666667</ele><time>2026-04-27T10:15:25.83Z</time></trkpt><trkpt lat="39.50988611346731" lon="8.549919778755733"><ele>374.0</ele><time>2026-04-27T10:15:26.83Z</time></trkpt><trkpt lat="39.50982907298203" lon="8.549744677803663"><ele>374.0</ele><time>2026-04-27T10:15:27.83Z</time></trkpt><trkpt lat="39.509719804339845" lon="8.549632805418803"><ele>374.0</ele><time>2026-04-27T10:15:28.83Z</time></trkpt><trkpt lat="39.50954575146811" lon="8.549601521625341"><ele>374.0</ele><time>2026-04-27T10:15:29.83Z</time></trkpt><trkpt lat="39.50933203969678" lon="8.54963681253082"><ele>374.5</ele><time>2026-04-27T10:15:30.83Z</time></trkpt><trkpt lat="39.50906580303955" lon="8.549674165999447"><ele>375.0</ele><time>2026-04-27T10:15:31.83Z</time></trkpt><trkpt lat="39.508829535565354" lon="8.549703264175902"><ele>375.3333333333333</ele><time>2026-04-27T10:15:32.83Z</time></trkpt><trkpt lat="39.50863930632936" lon="8.549708175404916"><ele>375.66666666666663</ele><time>2026-04-27T10:15:33.83Z</time></trkpt><trkpt lat="39.50851263048177" lon="8.549650895900436"><ele>376.0</ele><time>2026-04-27T10:15:34.83Z</time></trkpt><trkpt lat="39.50843499811613" lon="8.549496162957842"><ele>379.5</ele><time>2026-04-27T10:15:35.83Z</time></trkpt><trkpt lat="39.50834655917918" lon="8.549249237518808"><ele>383.0</ele><time>2026-04-27T10:15:36.83Z</time></trkpt><trkpt lat="39.50822545448132" lon="8.548960489361962"><ele>384.33333333333337</ele><time>2026-04-27T10:15:37.83Z</time></trkpt><trkpt lat="39.50812814235313" lon="8.548673248794213"><ele>385.6666666666667</ele><time>2026-04-27T10:15:38.83Z</time></trkpt><trkpt lat="39.50802504024374" lon="8.54844321451287"><ele>387.0</ele><time>2026-04-27T10:15:39.83Z</time></trkpt><trkpt lat="39.50788479270857" lon="8.54829860871619"><ele>387.0</ele><time>2026-04-27T10:15:40.83Z</time></trkpt><trkpt lat="39.50767819814141" lon="8.54822810471005"><ele>387.0</ele><time>2026-04-27T10:15:41.83Z</time></trkpt><trkpt lat="39.50741642463" lon="8.548214765849021"><ele>387.0</ele><time>2026-04-27T10:15:42.83Z</time></trkpt><trkpt lat="39.50721647471807" lon="8.54815892084088"><ele>387.0</ele><time>2026-04-27T10:15:43.83Z</time></trkpt><trkpt lat="39.50709516220177" lon="8.548095246079333"><ele>387.0</ele><time>2026-04-27T10:15:44.83Z</time></trkpt><trkpt lat="39.5070327106884" lon="8.5479127143542"><ele>387.0</ele><time>2026-04-27T10:15:45.83Z</time></trkpt><trkpt lat="39.50702809894105" lon="8.547617190378078"><ele>387.0</ele><time>2026-04-27T10:15:46.83Z</time></trkpt><trkpt lat="39.507007640485995" lon="8.54726661760902"><ele>389.5</ele><time>2026-04-27T10:15:47.83Z</time></trkpt><trkpt lat="39.50695647559077" lon="8.546903629427158"><ele>392.0</ele><time>2026-04-27T10:15:48.83Z</time></trkpt><trkpt lat="39.506908272891735" lon="8.546582264060566"><ele>392.0</ele><time>2026-04-27T10:15:49.83Z</time></trkpt><trkpt lat="39.506822378199445" lon="8.546304173903295"><ele>392.0</ele><time>2026-04-27T10:15:50.83Z</time></trkpt><trkpt lat="39.506677807276915" lon="8.546039315377913"><ele>394.5</ele><time>2026-04-27T10:15:51.83Z</time></trkpt><trkpt lat="39.506487843279565" lon="8.545755366644107"><ele>397.0</ele><time>2026-04-27T10:15:52.83Z</time></trkpt><trkpt lat="39.50633110060065" lon="8.545463047974572"><ele>396.0</ele><time>2026-04-27T10:15:53.83Z</time></trkpt><trkpt lat="39.50620804340592" lon="8.5451427780343"><ele>395.0</ele><time>2026-04-27T10:15:54.83Z</time></trkpt><trkpt lat="39.506123233411266" lon="8.544789002839895"><ele>395.0</ele><time>2026-04-27T10:15:55.83Z</time></trkpt><trkpt lat="39.50605207637083" lon="8.54441206346946"><ele>395.0</ele><time>2026-04-27T10:15:56.83Z</time></trkpt><trkpt lat="39.50597553999431" lon="8.544064834989298"><ele>395.0</ele><time>2026-04-27T10:15:57.83Z</time></trkpt><trkpt lat="39.50591280693815" lon="8.54377660504076"><ele>395.0</ele><time>2026-04-27T10:15:58.83Z</time></trkpt><trkpt lat="39.505894067428564" lon="8.543536795115976"><ele>395.0</ele><time>2026-04-27T10:15:59.83Z</time></trkpt><trkpt lat="39.50593698192624" lon="8.543260220347998"><ele>395.5</ele><time>2026-04-27T10:16:00.83Z</time></trkpt><trkpt lat="39.50601040426398" lon="8.542946853274739"><ele>396.0</ele><time>2026-04-27T10:16:01.83Z</time></trkpt><trkpt lat="39.50606383514791" lon="8.542655543167394"><ele>396.33333333333337</ele><time>2026-04-27T10:16:02.83Z</time></trkpt><trkpt lat="39.5060736195119" lon="8.54238872931284"><ele>396.6666666666667</ele><time>2026-04-27T10:16:03.83Z</time></trkpt><trkpt lat="39.50601963535024" lon="8.542117169477018"><ele>397.0</ele><time>2026-04-27T10:16:04.83Z</time></trkpt><trkpt lat="39.50591563872889" lon="8.54182574682757"><ele>397.5</ele><time>2026-04-27T10:16:05.83Z</time></trkpt><trkpt lat="39.50578512991888" lon="8.541518957508107"><ele>398.0</ele><time>2026-04-27T10:16:06.83Z</time></trkpt><trkpt lat="39.50567394546813" lon="8.541209438700196"><ele>399.0</ele><time>2026-04-27T10:16:07.83Z</time></trkpt><trkpt lat="39.505566334364104" lon="8.540893057637499"><ele>400.0</ele><time>2026-04-27T10:16:08.83Z</time></trkpt><trkpt lat="39.50546220384207" lon="8.540596155382884"><ele>401.0</ele><time>2026-04-27T10:16:09.83Z</time></trkpt><trkpt lat="39.505361936463515" lon="8.540301482430213"><ele>402.0</ele><time>2026-04-27T10:16:10.83Z</time></trkpt><trkpt lat="39.505257955933175" lon="8.540011743870734"><ele>402.0</ele><time>2026-04-27T10:16:11.83Z</time></trkpt><trkpt lat="39.505161816353656" lon="8.539749907513471"><ele>402.0</ele><time>2026-04-27T10:16:12.829Z</time></trkpt><trkpt lat="39.50507522447085" lon="8.53951784546234"><ele>402.0</ele><time>2026-04-27T10:16:13.829Z</time></trkpt><trkpt lat="39.50500379834091" lon="8.539309562741703"><ele>403.0</ele><time>2026-04-27T10:16:14.829Z</time></trkpt><trkpt lat="39.5049364803236" lon="8.53914481499542"><ele>404.0</ele><time>2026-04-27T10:16:15.829Z</time></trkpt><trkpt lat="39.50484083006968" lon="8.539015653270258"><ele>405.0</ele><time>2026-04-27T10:16:16.829Z</time></trkpt><trkpt lat="39.50471465202035" lon="8.53891140523735"><ele>406.0</ele><time>2026-04-27T10:16:17.829Z</time></trkpt><trkpt lat="39.50458569420416" lon="8.538845565304388"><ele>406.0</ele><time>2026-04-27T10:16:18.829Z</time></trkpt><trkpt lat="39.50444546489513" lon="8.53878030903795"><ele>406.0</ele><time>2026-04-27T10:16:19.829Z</time></trkpt><trkpt lat="39.50431157576075" lon="8.538715713266336"><ele>406.0</ele><time>2026-04-27T10:16:20.829Z</time></trkpt><trkpt lat="39.50416598253467" lon="8.538639756517039"><ele>406.0</ele><time>2026-04-27T10:16:21.831Z</time></trkpt><trkpt lat="39.504020000324786" lon="8.538571241134756"><ele>406.0</ele><time>2026-04-27T10:16:22.831Z</time></trkpt><trkpt lat="39.503878474030174" lon="8.538501159966499"><ele>406.0</ele><time>2026-04-27T10:16:23.831Z</time></trkpt><trkpt lat="39.50374147057237" lon="8.538396111886344"><ele>406.0</ele><time>2026-04-27T10:16:24.83Z</time></trkpt><trkpt lat="39.50362889693975" lon="8.53822145731897"><ele>406.0</ele><time>2026-04-27T10:16:25.83Z</time></trkpt><trkpt lat="39.50352658521647" lon="8.53800141286012"><ele>406.0</ele><time>2026-04-27T10:16:26.83Z</time></trkpt><trkpt lat="39.50341280191826" lon="8.537737602535698"><ele>406.0</ele><time>2026-04-27T10:16:27.831Z</time></trkpt><trkpt lat="39.50331143850509" lon="8.537474374133497"><ele>407.6666666666667</ele><time>2026-04-27T10:16:28.831Z</time></trkpt><trkpt lat="39.50327421932021" lon="8.537227256703146"><ele>409.33333333333337</ele><time>2026-04-27T10:16:29.831Z</time></trkpt><trkpt lat="39.50328489567026" lon="8.536908728747587"><ele>411.0</ele><time>2026-04-27T10:16:30.83Z</time></trkpt><trkpt lat="39.50332124146147" lon="8.536559403459483"><ele>413.0</ele><time>2026-04-27T10:16:31.83Z</time></trkpt><trkpt lat="39.503343702198976" lon="8.536227875259637"><ele>415.0</ele><time>2026-04-27T10:16:32.83Z</time></trkpt><trkpt lat="39.503363605937025" lon="8.535919521564406"><ele>415.0</ele><time>2026-04-27T10:16:33.83Z</time></trkpt><trkpt lat="39.50339060952268" lon="8.535639762715745"><ele>415.0</ele><time>2026-04-27T10:16:34.83Z</time></trkpt><trkpt lat="39.503460600874554" lon="8.535377561514148"><ele>415.0</ele><time>2026-04-27T10:16:35.83Z</time></trkpt><trkpt lat="39.503561723473474" lon="8.535150289293567"><ele>414.33333333333337</ele><time>2026-04-27T10:16:36.83Z</time></trkpt><trkpt lat="39.50361763881031" lon="8.534933134819182"><ele>413.66666666666663</ele><time>2026-04-27T10:16:37.83Z</time></trkpt><trkpt lat="39.50359973323784" lon="8.534683595008042"><ele>413.0</ele><time>2026-04-27T10:16:38.83Z</time></trkpt><trkpt lat="39.50353841541129" lon="8.534429908291266"><ele>411.66666666666663</ele><time>2026-04-27T10:16:39.83Z</time></trkpt><trkpt lat="39.50350391695422" lon="8.534189463652286"><ele>410.33333333333337</ele><time>2026-04-27T10:16:40.83Z</time></trkpt><trkpt lat="39.503520238129056" lon="8.53397137661351"><ele>409.0</ele><time>2026-04-27T10:16:41.83Z</time></trkpt><trkpt lat="39.50360748060277" lon="8.53379476598512"><ele>408.0</ele><time>2026-04-27T10:16:42.83Z</time></trkpt><trkpt lat="39.50374548157105" lon="8.533631141029716"><ele>407.0</ele><time>2026-04-27T10:16:43.83Z</time></trkpt><trkpt lat="39.503887177317935" lon="8.533475542814397"><ele>406.0</ele><time>2026-04-27T10:16:44.83Z</time></trkpt><trkpt lat="39.50399813916289" lon="8.533332806014748"><ele>406.5</ele><time>2026-04-27T10:16:45.83Z</time></trkpt><trkpt lat="39.50408704667438" lon="8.53318908959561"><ele>407.0</ele><time>2026-04-27T10:16:46.83Z</time></trkpt><trkpt lat="39.50410811635329" lon="8.533015522535928"><ele>407.5</ele><time>2026-04-27T10:16:47.83Z</time></trkpt><trkpt lat="39.50405747010718" lon="8.532804017125262"><ele>408.0</ele><time>2026-04-27T10:16:48.83Z</time></trkpt><trkpt lat="39.50396118138487" lon="8.5325751816457"><ele>408.0</ele><time>2026-04-27T10:16:49.83Z</time></trkpt><trkpt lat="39.50383754406387" lon="8.532376240884904"><ele>408.0</ele><time>2026-04-27T10:16:50.83Z</time></trkpt><trkpt lat="39.50367291551383" lon="8.532211341676332"><ele>408.0</ele><time>2026-04-27T10:16:51.83Z</time></trkpt><trkpt lat="39.50347762282424" lon="8.53205547583147"><ele>409.5</ele><time>2026-04-27T10:16:52.83Z</time></trkpt><trkpt lat="39.50326154748244" lon="8.531890571169935"><ele>411.0</ele><time>2026-04-27T10:16:53.83Z</time></trkpt><trkpt lat="39.50305717856894" lon="8.53172792284113"><ele>412.5</ele><time>2026-04-27T10:16:54.83Z</time></trkpt><trkpt lat="39.502842201105196" lon="8.53160266149556"><ele>414.0</ele><time>2026-04-27T10:16:55.83Z</time></trkpt><trkpt lat="39.502603414529915" lon="8.531537106097232"><ele>414.0</ele><time>2026-04-27T10:16:56.829Z</time></trkpt><trkpt lat="39.50236088198864" lon="8.5314744481029"><ele>414.0</ele><time>2026-04-27T10:16:57.829Z</time></trkpt><trkpt lat="39.502114810039565" lon="8.531408962046989"><ele>413.33333333333337</ele><time>2026-04-27T10:16:58.829Z</time></trkpt><trkpt lat="39.50189134725208" lon="8.53131589805564"><ele>412.6666666666667</ele><time>2026-04-27T10:16:59.829Z</time></trkpt><trkpt lat="39.50169060549717" lon="8.531250799573753"><ele>412.0</ele><time>2026-04-27T10:17:00.829Z</time></trkpt><trkpt lat="39.50152778356246" lon="8.531182461838723"><ele>414.0</ele><time>2026-04-27T10:17:01.829Z</time></trkpt><trkpt lat="39.50142000532811" lon="8.53107881221829"><ele>416.0</ele><time>2026-04-27T10:17:02.829Z</time></trkpt><trkpt lat="39.5013549993415" lon="8.530916485465339"><ele>418.0</ele><time>2026-04-27T10:17:03.829Z</time></trkpt><trkpt lat="39.50130550163012" lon="8.530657288510499"><ele>415.0</ele><time>2026-04-27T10:17:04.829Z</time></trkpt><trkpt lat="39.501166491834795" lon="8.530378493622882"><ele>412.0</ele><time>2026-04-27T10:17:05.829Z</time></trkpt><trkpt lat="39.501023917691406" lon="8.530131369887483"><ele>412.0</ele><time>2026-04-27T10:17:06.829Z</time></trkpt><trkpt lat="39.5008603843009" lon="8.529883516730623"><ele>412.0</ele><time>2026-04-27T10:17:07.829Z</time></trkpt><trkpt lat="39.50070836415423" lon="8.529626301565306"><ele>412.6666666666667</ele><time>2026-04-27T10:17:08.829Z</time></trkpt><trkpt lat="39.50058103216618" lon="8.529414716337786"><ele>413.33333333333337</ele><time>2026-04-27T10:17:09.829Z</time></trkpt><trkpt lat="39.50044611306409" lon="8.52927303219138"><ele>414.0</ele><time>2026-04-27T10:17:10.829Z</time></trkpt><trkpt lat="39.5002795898782" lon="8.529175213895416"><ele>414.0</ele><time>2026-04-27T10:17:11.829Z</time></trkpt><trkpt lat="39.500144394746386" lon="8.529049693567252"><ele>414.0</ele><time>2026-04-27T10:17:12.829Z</time></trkpt><trkpt lat="39.500082824444206" lon="8.5288364820092"><ele>414.0</ele><time>2026-04-27T10:17:13.829Z</time></trkpt><trkpt lat="39.49999193670437" lon="8.528602774682442"><ele>416.5</ele><time>2026-04-27T10:17:14.829Z</time></trkpt><trkpt lat="39.49987996317444" lon="8.528338545819794"><ele>419.0</ele><time>2026-04-27T10:17:15.829Z</time></trkpt><trkpt lat="39.49977783612398" lon="8.528053659191784"><ele>418.66666666666663</ele><time>2026-04-27T10:17:16.829Z</time></trkpt><trkpt lat="39.499678894959935" lon="8.527782835641462"><ele>418.33333333333337</ele><time>2026-04-27T10:17:17.829Z</time></trkpt><trkpt lat="39.499592317718154" lon="8.527557267136274"><ele>418.0</ele><time>2026-04-27T10:17:18.829Z</time></trkpt><trkpt lat="39.4995218189089" lon="8.527363843003505"><ele>418.0</ele><time>2026-04-27T10:17:19.829Z</time></trkpt><trkpt lat="39.499449534793165" lon="8.527222640362943"><ele>418.0</ele><time>2026-04-27T10:17:20.829Z</time></trkpt><trkpt lat="39.49935765898842" lon="8.527132903194278"><ele>418.0</ele><time>2026-04-27T10:17:21.829Z</time></trkpt><trkpt lat="39.49921536961744" lon="8.527151200636489"><ele>418.0</ele><time>2026-04-27T10:17:22.829Z</time></trkpt><trkpt lat="39.49904740911342" lon="8.527286048684605"><ele>418.0</ele><time>2026-04-27T10:17:23.829Z</time></trkpt><trkpt lat="39.49885027112558" lon="8.527434331733227"><ele>418.0</ele><time>2026-04-27T10:17:24.829Z</time></trkpt><trkpt lat="39.498645364169896" lon="8.527553504293113"><ele>419.0</ele><time>2026-04-27T10:17:25.829Z</time></trkpt><trkpt lat="39.49849759219048" lon="8.527559409470893"><ele>420.0</ele><time>2026-04-27T10:17:26.829Z</time></trkpt><trkpt lat="39.49835612485462" lon="8.52749814455161"><ele>421.0</ele><time>2026-04-27T10:17:27.829Z</time></trkpt><trkpt lat="39.498165084254744" lon="8.527408955289426"><ele>421.0</ele><time>2026-04-27T10:17:28.829Z</time></trkpt><trkpt lat="39.49796352563267" lon="8.52731179408976"><ele>421.0</ele><time>2026-04-27T10:17:29.829Z</time></trkpt><trkpt lat="39.49780321524649" lon="8.527219865405304"><ele>421.0</ele><time>2026-04-27T10:17:30.829Z</time></trkpt><trkpt lat="39.497707316341625" lon="8.527106379444987"><ele>420.0</ele><time>2026-04-27T10:17:31.829Z</time></trkpt><trkpt lat="39.49764875295324" lon="8.52694135649978"><ele>419.0</ele><time>2026-04-27T10:17:32.829Z</time></trkpt><trkpt lat="39.497621386269046" lon="8.526726095182521"><ele>418.0</ele><time>2026-04-27T10:17:33.829Z</time></trkpt><trkpt lat="39.49760620156591" lon="8.52646621054145"><ele>417.6666666666667</ele><time>2026-04-27T10:17:34.829Z</time></trkpt><trkpt lat="39.497623162835914" lon="8.526194985264324"><ele>417.33333333333337</ele><time>2026-04-27T10:17:35.829Z</time></trkpt><trkpt lat="39.49768486158989" lon="8.525909416067979"><ele>417.0</ele><time>2026-04-27T10:17:36.829Z</time></trkpt><trkpt lat="39.49776000550043" lon="8.525613711893527"><ele>417.5</ele><time>2026-04-27T10:17:37.829Z</time></trkpt><trkpt lat="39.497861023343205" lon="8.525313640703354"><ele>418.0</ele><time>2026-04-27T10:17:38.829Z</time></trkpt><trkpt lat="39.497954630110456" lon="8.525001302921503"><ele>420.0</ele><time>2026-04-27T10:17:39.829Z</time></trkpt><trkpt lat="39.498042295661556" lon="8.524706428531351"><ele>422.0</ele><time>2026-04-27T10:17:40.829Z</time></trkpt><trkpt lat="39.49812685913324" lon="8.52444274110901"><ele>422.0</ele><time>2026-04-27T10:17:41.829Z</time></trkpt><trkpt lat="39.49819588936195" lon="8.524210991477416"><ele>422.0</ele><time>2026-04-27T10:17:42.829Z</time></trkpt><trkpt lat="39.49823298894518" lon="8.523988541034877"><ele>422.0</ele><time>2026-04-27T10:17:43.829Z</time></trkpt><trkpt lat="39.49819911964998" lon="8.523743311826077"><ele>424.0</ele><time>2026-04-27T10:17:44.829Z</time></trkpt><trkpt lat="39.49811534010854" lon="8.523486623870454"><ele>426.0</ele><time>2026-04-27T10:17:45.829Z</time></trkpt><trkpt lat="39.49801815805215" lon="8.523267102664523"><ele>428.0</ele><time>2026-04-27T10:17:46.829Z</time></trkpt><trkpt lat="39.497891865685965" lon="8.5231246350552"><ele>428.0</ele><time>2026-04-27T10:17:47.829Z</time></trkpt><trkpt lat="39.49769376646484" lon="8.523053343677567"><ele>428.0</ele><time>2026-04-27T10:17:48.829Z</time></trkpt><trkpt lat="39.49747402600555" lon="8.523006875679888"><ele>428.0</ele><time>2026-04-27T10:17:49.829Z</time></trkpt><trkpt lat="39.4972540446828" lon="8.522936905938243"><ele>429.5</ele><time>2026-04-27T10:17:50.829Z</time></trkpt><trkpt lat="39.497022722519674" lon="8.522872487827653"><ele>431.0</ele><time>2026-04-27T10:17:51.829Z</time></trkpt><trkpt lat="39.49680191833016" lon="8.522810998735288"><ele>431.0</ele><time>2026-04-27T10:17:52.829Z</time></trkpt><trkpt lat="39.496589971537745" lon="8.522751976237858"><ele>431.0</ele><time>2026-04-27T10:17:53.829Z</time></trkpt><trkpt lat="39.49637917503219" lon="8.52269327406914"><ele>431.0</ele><time>2026-04-27T10:17:54.828Z</time></trkpt><trkpt lat="39.49616817397216" lon="8.522634514937682"><ele>432.3333333333333</ele><time>2026-04-27T10:17:55.828Z</time></trkpt><trkpt lat="39.49595585099045" lon="8.52257538767735"><ele>433.66666666666663</ele><time>2026-04-27T10:17:56.828Z</time></trkpt><trkpt lat="39.49574101675689" lon="8.522515561088095"><ele>435.0</ele><time>2026-04-27T10:17:57.828Z</time></trkpt><trkpt lat="39.49552272343439" lon="8.522454772657323"><ele>436.5</ele><time>2026-04-27T10:17:58.828Z</time></trkpt><trkpt lat="39.49530129154705" lon="8.522393115962743"><ele>438.0</ele><time>2026-04-27T10:17:59.828Z</time></trkpt><trkpt lat="39.495081001973865" lon="8.522331777330965"><ele>438.0</ele><time>2026-04-27T10:18:00.828Z</time></trkpt><trkpt lat="39.49486917350229" lon="8.522271280102656"><ele>438.0</ele><time>2026-04-27T10:18:01.828Z</time></trkpt><trkpt lat="39.49467411112005" lon="8.522197326307976"><ele>438.0</ele><time>2026-04-27T10:18:02.828Z</time></trkpt><trkpt lat="39.4944852003244" lon="8.522095398968302"><ele>439.0</ele><time>2026-04-27T10:18:03.828Z</time></trkpt><trkpt lat="39.49431768576555" lon="8.52192255864394"><ele>440.0</ele><time>2026-04-27T10:18:04.828Z</time></trkpt><trkpt lat="39.494141348762504" lon="8.521777301515678"><ele>441.0</ele><time>2026-04-27T10:18:05.828Z</time></trkpt><trkpt lat="39.49400837342624" lon="8.5216078183854"><ele>441.0</ele><time>2026-04-27T10:18:06.828Z</time></trkpt><trkpt lat="39.49390076375545" lon="8.521411988031991"><ele>441.0</ele><time>2026-04-27T10:18:07.828Z</time></trkpt><trkpt lat="39.493808218991504" lon="8.521191700208508"><ele>441.0</ele><time>2026-04-27T10:18:08.828Z</time></trkpt><trkpt lat="39.49371868194253" lon="8.520965257172369"><ele>440.0</ele><time>2026-04-27T10:18:09.828Z</time></trkpt><trkpt lat="39.493625520848596" lon="8.520736827148783"><ele>439.0</ele><time>2026-04-27T10:18:10.828Z</time></trkpt><trkpt lat="39.493533271380805" lon="8.520504129031467"><ele>438.0</ele><time>2026-04-27T10:18:11.828Z</time></trkpt><trkpt lat="39.49343688864072" lon="8.520274443032298"><ele>438.0</ele><time>2026-04-27T10:18:12.828Z</time></trkpt><trkpt lat="39.493342352152034" lon="8.52004770570749"><ele>438.0</ele><time>2026-04-27T10:18:13.828Z</time></trkpt><trkpt lat="39.49325111245944" lon="8.519824054965307"><ele>438.0</ele><time>2026-04-27T10:18:14.828Z</time></trkpt><trkpt lat="39.49315932078271" lon="8.519608695464793"><ele>437.66666666666663</ele><time>2026-04-27T10:18:15.828Z</time></trkpt><trkpt lat="39.49306353654854" lon="8.519388940254483"><ele>437.3333333333333</ele><time>2026-04-27T10:18:16.828Z</time></trkpt><trkpt lat="39.492966574128324" lon="8.519169171920723"><ele>437.0</ele><time>2026-04-27T10:18:17.828Z</time></trkpt><trkpt lat="39.49287133139493" lon="8.518953631456773"><ele>438.0</ele><time>2026-04-27T10:18:18.828Z</time></trkpt><trkpt lat="39.49278840502265" lon="8.518724301858438"><ele>439.0</ele><time>2026-04-27T10:18:19.828Z</time></trkpt><trkpt lat="39.49269772433382" lon="8.518508498881076"><ele>440.0</ele><time>2026-04-27T10:18:20.828Z</time></trkpt><trkpt lat="39.49261044183734" lon="8.518296451803575"><ele>440.0</ele><time>2026-04-27T10:18:21.828Z</time></trkpt><trkpt lat="39.4925153720991" lon="8.518081414356491"><ele>440.0</ele><time>2026-04-27T10:18:22.828Z</time></trkpt><trkpt lat="39.49239457063244" lon="8.517882345062269"><ele>440.0</ele><time>2026-04-27T10:18:23.828Z</time></trkpt><trkpt lat="39.49225358944793" lon="8.517707804641727"><ele>440.66666666666663</ele><time>2026-04-27T10:18:24.828Z</time></trkpt><trkpt lat="39.49209778045365" lon="8.517564594156905"><ele>441.33333333333337</ele><time>2026-04-27T10:18:25.828Z</time></trkpt><trkpt lat="39.49195466803333" lon="8.517461261468892"><ele>442.0</ele><time>2026-04-27T10:18:26.828Z</time></trkpt><trkpt lat="39.49179851905605" lon="8.517328229388218"><ele>442.0</ele><time>2026-04-27T10:18:27.829Z</time></trkpt><trkpt lat="39.49164342461593" lon="8.517198965281207"><ele>442.0</ele><time>2026-04-27T10:18:28.829Z</time></trkpt><trkpt lat="39.491489787569336" lon="8.517059600944343"><ele>442.0</ele><time>2026-04-27T10:18:29.829Z</time></trkpt><trkpt lat="39.49133440999877" lon="8.516925723432696"><ele>443.6666666666667</ele><time>2026-04-27T10:18:30.829Z</time></trkpt><trkpt lat="39.491166299982176" lon="8.516830857567484"><ele>445.33333333333337</ele><time>2026-04-27T10:18:31.829Z</time></trkpt><trkpt lat="39.49101255816326" lon="8.516709398342698"><ele>447.0</ele><time>2026-04-27T10:18:32.829Z</time></trkpt><trkpt lat="39.49080646184121" lon="8.516735497785064"><ele>447.0</ele><time>2026-04-27T10:18:33.83Z</time></trkpt><trkpt lat="39.490620377157214" lon="8.516746903843002"><ele>447.0</ele><time>2026-04-27T10:18:34.829Z</time></trkpt><trkpt lat="39.490437190262206" lon="8.51679567537933"><ele>447.0</ele><time>2026-04-27T10:18:35.829Z</time></trkpt><trkpt lat="39.49025769575074" lon="8.516867073606571"><ele>448.33333333333337</ele><time>2026-04-27T10:18:36.829Z</time></trkpt><trkpt lat="39.49008513569996" lon="8.51694968407"><ele>449.6666666666667</ele><time>2026-04-27T10:18:37.829Z</time></trkpt><trkpt lat="39.48991244553956" lon="8.517042829546511"><ele>451.0</ele><time>2026-04-27T10:18:38.829Z</time></trkpt><trkpt lat="39.4897324511466" lon="8.517122396829176"><ele>451.6666666666667</ele><time>2026-04-27T10:18:39.829Z</time></trkpt><trkpt lat="39.489543095000805" lon="8.517203342935256"><ele>452.33333333333337</ele><time>2026-04-27T10:18:40.829Z</time></trkpt><trkpt lat="39.489356601683205" lon="8.517293443897154"><ele>453.0</ele><time>2026-04-27T10:18:41.829Z</time></trkpt><trkpt lat="39.489177689993895" lon="8.517397278192721"><ele>453.0</ele><time>2026-04-27T10:18:42.829Z</time></trkpt><trkpt lat="39.48900317173265" lon="8.517513386291512"><ele>453.0</ele><time>2026-04-27T10:18:43.829Z</time></trkpt><trkpt lat="39.48882068197635" lon="8.517618584692512"><ele>453.0</ele><time>2026-04-27T10:18:44.829Z</time></trkpt><trkpt lat="39.48863532826299" lon="8.517721095283722"><ele>455.33333333333337</ele><time>2026-04-27T10:18:45.829Z</time></trkpt><trkpt lat="39.488459332983446" lon="8.517813066736855"><ele>457.6666666666667</ele><time>2026-04-27T10:18:46.829Z</time></trkpt><trkpt lat="39.488285280823696" lon="8.517863764212859"><ele>460.0</ele><time>2026-04-27T10:18:47.829Z</time></trkpt><trkpt lat="39.488104821700226" lon="8.517865152840898"><ele>460.33333333333337</ele><time>2026-04-27T10:18:48.829Z</time></trkpt><trkpt lat="39.48791420294747" lon="8.517816057516239"><ele>460.66666666666663</ele><time>2026-04-27T10:18:49.829Z</time></trkpt><trkpt lat="39.487727223306294" lon="8.517722152161722"><ele>461.0</ele><time>2026-04-27T10:18:50.829Z</time></trkpt><trkpt lat="39.48755091362968" lon="8.517607884317375"><ele>461.0</ele><time>2026-04-27T10:18:51.829Z</time></trkpt><trkpt lat="39.48737751685696" lon="8.517477970086043"><ele>461.0</ele><time>2026-04-27T10:18:52.829Z</time></trkpt><trkpt lat="39.48720758677659" lon="8.517337165659228"><ele>461.0</ele><time>2026-04-27T10:18:53.829Z</time></trkpt><trkpt lat="39.48703667021473" lon="8.517208053495592"><ele>461.66666666666663</ele><time>2026-04-27T10:18:54.829Z</time></trkpt><trkpt lat="39.486869583108465" lon="8.517081759072239"><ele>462.33333333333337</ele><time>2026-04-27T10:18:55.829Z</time></trkpt><trkpt lat="39.48670556765059" lon="8.516945348371404"><ele>463.0</ele><time>2026-04-27T10:18:56.829Z</time></trkpt><trkpt lat="39.486560333692196" lon="8.516779663420333"><ele>463.0</ele><time>2026-04-27T10:18:57.829Z</time></trkpt><trkpt lat="39.48645499056592" lon="8.516575452975164"><ele>463.0</ele><time>2026-04-27T10:18:58.829Z</time></trkpt><trkpt lat="39.48636054650053" lon="8.516351752539384"><ele>463.0</ele><time>2026-04-27T10:18:59.829Z</time></trkpt><trkpt lat="39.486268137951086" lon="8.516121559695076"><ele>459.6666666666667</ele><time>2026-04-27T10:19:00.829Z</time></trkpt><trkpt lat="39.48618530918511" lon="8.515875675090564"><ele>456.33333333333337</ele><time>2026-04-27T10:19:01.829Z</time></trkpt><trkpt lat="39.486110377673384" lon="8.515625316517541"><ele>453.0</ele><time>2026-04-27T10:19:02.829Z</time></trkpt><trkpt lat="39.48603649317779" lon="8.515376176432346"><ele>452.0</ele><time>2026-04-27T10:19:03.829Z</time></trkpt><trkpt lat="39.4859600323666" lon="8.515129708433223"><ele>451.0</ele><time>2026-04-27T10:19:04.829Z</time></trkpt><trkpt lat="39.485888434736104" lon="8.51488208953888"><ele>450.0</ele><time>2026-04-27T10:19:05.829Z</time></trkpt><trkpt lat="39.48584115412273" lon="8.514641179082318"><ele>449.0</ele><time>2026-04-27T10:19:06.829Z</time></trkpt><trkpt lat="39.48582624298292" lon="8.514407076605552"><ele>448.0</ele><time>2026-04-27T10:19:07.829Z</time></trkpt><trkpt lat="39.48580004700582" lon="8.514181295484258"><ele>447.0</ele><time>2026-04-27T10:19:08.829Z</time></trkpt><trkpt lat="39.485744965098256" lon="8.513986699108937"><ele>447.0</ele><time>2026-04-27T10:19:09.829Z</time></trkpt><trkpt lat="39.48569043254661" lon="8.513811651032167"><ele>447.0</ele><time>2026-04-27T10:19:10.829Z</time></trkpt><trkpt lat="39.48571698004649" lon="8.51362419118004"><ele>447.0</ele><time>2026-04-27T10:19:11.829Z</time></trkpt><trkpt lat="39.485781189159475" lon="8.513416854981802"><ele>447.0</ele><time>2026-04-27T10:19:12.829Z</time></trkpt><trkpt lat="39.48582908633312" lon="8.513217360453167"><ele>447.0</ele><time>2026-04-27T10:19:13.829Z</time></trkpt><trkpt lat="39.48586124618264" lon="8.513034906737271"><ele>447.0</ele><time>2026-04-27T10:19:14.829Z</time></trkpt><trkpt lat="39.48582641332207" lon="8.512865904113546"><ele>447.0</ele><time>2026-04-27T10:19:15.829Z</time></trkpt><trkpt lat="39.485703043603245" lon="8.512735355879022"><ele>447.0</ele><time>2026-04-27T10:19:16.829Z</time></trkpt><trkpt lat="39.485548092841654" lon="8.51266498614441"><ele>447.0</ele><time>2026-04-27T10:19:17.829Z</time></trkpt><trkpt lat="39.48539976548048" lon="8.512577944166994"><ele>447.0</ele><time>2026-04-27T10:19:18.829Z</time></trkpt><trkpt lat="39.485331099404696" lon="8.51242352924758"><ele>443.66666666666663</ele><time>2026-04-27T10:19:19.828Z</time></trkpt><trkpt lat="39.48519051763539" lon="8.51228690269322"><ele>440.3333333333333</ele><time>2026-04-27T10:19:20.828Z</time></trkpt><trkpt lat="39.4850241025561" lon="8.512173029643126"><ele>437.0</ele><time>2026-04-27T10:19:21.828Z</time></trkpt><trkpt lat="39.48485543590542" lon="8.512066417972644"><ele>437.0</ele><time>2026-04-27T10:19:22.828Z</time></trkpt><trkpt lat="39.48466737331642" lon="8.511960238113552"><ele>437.0</ele><time>2026-04-27T10:19:23.828Z</time></trkpt><trkpt lat="39.48449230500849" lon="8.511829133989911"><ele>437.0</ele><time>2026-04-27T10:19:24.828Z</time></trkpt><trkpt lat="39.48430711827365" lon="8.511700673009395"><ele>429.0</ele><time>2026-04-27T10:19:25.828Z</time></trkpt><trkpt lat="39.484145730905716" lon="8.511575329918939"><ele>421.0</ele><time>2026-04-27T10:19:26.828Z</time></trkpt><trkpt lat="39.4840118524977" lon="8.5114332157541"><ele>413.0</ele><time>2026-04-27T10:19:27.828Z</time></trkpt><trkpt lat="39.483908363277" lon="8.511255332295661"><ele>418.5</ele><time>2026-04-27T10:19:28.828Z</time></trkpt><trkpt lat="39.483875605367274" lon="8.511005531931263"><ele>424.0</ele><time>2026-04-27T10:19:29.828Z</time></trkpt><trkpt lat="39.483883746528605" lon="8.510658298796393"><ele>423.0</ele><time>2026-04-27T10:19:30.828Z</time></trkpt><trkpt lat="39.48387594843924" lon="8.510404235422099"><ele>422.0</ele><time>2026-04-27T10:19:31.828Z</time></trkpt><trkpt lat="39.48389714449664" lon="8.510144730877448"><ele>421.0</ele><time>2026-04-27T10:19:32.828Z</time></trkpt><trkpt lat="39.48393225827637" lon="8.509882734930413"><ele>421.0</ele><time>2026-04-27T10:19:33.828Z</time></trkpt><trkpt lat="39.48398216560147" lon="8.509634936102895"><ele>421.0</ele><time>2026-04-27T10:19:34.828Z</time></trkpt><trkpt lat="39.4840931830198" lon="8.509419542059257"><ele>421.0</ele><time>2026-04-27T10:19:35.828Z</time></trkpt><trkpt lat="39.48422553387351" lon="8.509229983193089"><ele>416.6666666666667</ele><time>2026-04-27T10:19:36.828Z</time></trkpt><trkpt lat="39.48432837412405" lon="8.509040161578817"><ele>412.33333333333337</ele><time>2026-04-27T10:19:37.828Z</time></trkpt><trkpt lat="39.48436987203227" lon="8.508791277262064"><ele>408.0</ele><time>2026-04-27T10:19:38.828Z</time></trkpt><trkpt lat="39.48438731293579" lon="8.508525288854973"><ele>405.0</ele><time>2026-04-27T10:19:39.828Z</time></trkpt><trkpt lat="39.484401536259604" lon="8.508269799151103"><ele>402.0</ele><time>2026-04-27T10:19:40.828Z</time></trkpt><trkpt lat="39.48441393688513" lon="8.50802890731283"><ele>399.0</ele><time>2026-04-27T10:19:41.828Z</time></trkpt><trkpt lat="39.48443136538385" lon="8.507778072124719"><ele>397.66666666666663</ele><time>2026-04-27T10:19:42.828Z</time></trkpt><trkpt lat="39.48445540508415" lon="8.507516826647237"><ele>396.3333333333333</ele><time>2026-04-27T10:19:43.828Z</time></trkpt><trkpt lat="39.484477766395045" lon="8.507245810098437"><ele>395.0</ele><time>2026-04-27T10:19:44.828Z</time></trkpt><trkpt lat="39.484496794443345" lon="8.506974501385828"><ele>392.66666666666663</ele><time>2026-04-27T10:19:45.828Z</time></trkpt><trkpt lat="39.48451548786172" lon="8.506712316877872"><ele>390.33333333333337</ele><time>2026-04-27T10:19:46.828Z</time></trkpt><trkpt lat="39.48453113510395" lon="8.506457853917503"><ele>388.0</ele><time>2026-04-27T10:19:47.828Z</time></trkpt><trkpt lat="39.48452001634314" lon="8.50621810240736"><ele>387.0</ele><time>2026-04-27T10:19:48.828Z</time></trkpt><trkpt lat="39.4844971416998" lon="8.505992781363464"><ele>386.0</ele><time>2026-04-27T10:19:49.828Z</time></trkpt><trkpt lat="39.484523611413636" lon="8.505773490993622"><ele>385.0</ele><time>2026-04-27T10:19:50.828Z</time></trkpt><trkpt lat="39.48459724860834" lon="8.505572866768146"><ele>385.25</ele><time>2026-04-27T10:19:51.828Z</time></trkpt><trkpt lat="39.48467132829903" lon="8.505408723420283"><ele>385.5</ele><time>2026-04-27T10:19:52.828Z</time></trkpt><trkpt lat="39.48469909499781" lon="8.50525012416662"><ele>385.75</ele><time>2026-04-27T10:19:53.828Z</time></trkpt><trkpt lat="39.48468287627047" lon="8.505114137040893"><ele>386.0</ele><time>2026-04-27T10:19:54.828Z</time></trkpt><trkpt lat="39.48458827375893" lon="8.504986302744854"><ele>386.0</ele><time>2026-04-27T10:19:55.828Z</time></trkpt><trkpt lat="39.48447194870705" lon="8.504937272619944"><ele>386.0</ele><time>2026-04-27T10:19:56.828Z</time></trkpt><trkpt lat="39.48435089021864" lon="8.504951842637402"><ele>386.0</ele><time>2026-04-27T10:19:57.828Z</time></trkpt><trkpt lat="39.48423202245667" lon="8.5050748811567"><ele>386.0</ele><time>2026-04-27T10:19:58.828Z</time></trkpt><trkpt lat="39.484132488751534" lon="8.505217804762461"><ele>386.0</ele><time>2026-04-27T10:19:59.828Z</time></trkpt><trkpt lat="39.484035780092675" lon="8.505368660840432"><ele>386.0</ele><time>2026-04-27T10:20:00.828Z</time></trkpt><trkpt lat="39.48393441018274" lon="8.505524411480332"><ele>386.0</ele><time>2026-04-27T10:20:01.828Z</time></trkpt><trkpt lat="39.48383040103514" lon="8.505683444266614"><ele>384.3333333333333</ele><time>2026-04-27T10:20:02.828Z</time></trkpt><trkpt lat="39.4837255115817" lon="8.50583795863503"><ele>382.66666666666663</ele><time>2026-04-27T10:20:03.828Z</time></trkpt><trkpt lat="39.48360422616816" lon="8.50597014526072"><ele>381.0</ele><time>2026-04-27T10:20:04.828Z</time></trkpt><trkpt lat="39.48345456122637" lon="8.50605726126213"><ele>381.0</ele><time>2026-04-27T10:20:05.828Z</time></trkpt><trkpt lat="39.48328687196884" lon="8.50612885241756"><ele>381.0</ele><time>2026-04-27T10:20:06.828Z</time></trkpt><trkpt lat="39.483108394863926" lon="8.506187900542567"><ele>381.0</ele><time>2026-04-27T10:20:07.828Z</time></trkpt><trkpt lat="39.48292471715862" lon="8.50622883817342"><ele>377.3333333333333</ele><time>2026-04-27T10:20:08.828Z</time></trkpt><trkpt lat="39.48275102706258" lon="8.506255283534285"><ele>373.66666666666663</ele><time>2026-04-27T10:20:09.828Z</time></trkpt><trkpt lat="39.48259589904275" lon="8.506274092862455"><ele>370.0</ele><time>2026-04-27T10:20:10.828Z</time></trkpt><trkpt lat="39.48246937198442" lon="8.506300180482212"><ele>369.5</ele><time>2026-04-27T10:20:11.828Z</time></trkpt><trkpt lat="39.482368707207364" lon="8.506239063077343"><ele>369.0</ele><time>2026-04-27T10:20:12.828Z</time></trkpt><trkpt lat="39.482323767774794" lon="8.50612025473116"><ele>368.5</ele><time>2026-04-27T10:20:13.828Z</time></trkpt><trkpt lat="39.48235422791051" lon="8.505961502274204"><ele>368.0</ele><time>2026-04-27T10:20:14.828Z</time></trkpt><trkpt lat="39.48242996223405" lon="8.505784675056034"><ele>368.0</ele><time>2026-04-27T10:20:15.828Z</time></trkpt><trkpt lat="39.48251026519741" lon="8.505611812403613"><ele>368.0</ele><time>2026-04-27T10:20:16.828Z</time></trkpt><trkpt lat="39.48259913360716" lon="8.505450839536627"><ele>368.0</ele><time>2026-04-27T10:20:17.827Z</time></trkpt><trkpt lat="39.48270187728117" lon="8.505315538981867"><ele>371.25</ele><time>2026-04-27T10:20:18.827Z</time></trkpt><trkpt lat="39.48281078005226" lon="8.505207672112334"><ele>374.5</ele><time>2026-04-27T10:20:19.827Z</time></trkpt><trkpt lat="39.48292030734006" lon="8.505104304114077"><ele>377.75</ele><time>2026-04-27T10:20:20.827Z</time></trkpt><trkpt lat="39.483008706447805" lon="8.505011867650273"><ele>381.0</ele><time>2026-04-27T10:20:21.827Z</time></trkpt><trkpt lat="39.483031319388594" lon="8.504871006324867"><ele>381.0</ele><time>2026-04-27T10:20:22.827Z</time></trkpt><trkpt lat="39.482985112321806" lon="8.5047280467861"><ele>381.0</ele><time>2026-04-27T10:20:23.827Z</time></trkpt><trkpt lat="39.48291624032956" lon="8.50458209318388"><ele>381.0</ele><time>2026-04-27T10:20:24.827Z</time></trkpt><trkpt lat="39.48285512522334" lon="8.504412681098223"><ele>381.0</ele><time>2026-04-27T10:20:25.827Z</time></trkpt><trkpt lat="39.482797234534665" lon="8.504228089093116"><ele>368.5</ele><time>2026-04-27T10:20:26.827Z</time></trkpt><trkpt lat="39.48275514423589" lon="8.50403947096384"><ele>356.0</ele><time>2026-04-27T10:20:27.827Z</time></trkpt><trkpt lat="39.4827282385282" lon="8.503861821530638"><ele>343.5</ele><time>2026-04-27T10:20:28.827Z</time></trkpt><trkpt lat="39.482735167675806" lon="8.503700044348562"><ele>331.0</ele><time>2026-04-27T10:20:29.827Z</time></trkpt><trkpt lat="39.482810968591004" lon="8.50354583961819"><ele>329.0</ele><time>2026-04-27T10:20:30.827Z</time></trkpt><trkpt lat="39.48291829920567" lon="8.503418528654938"><ele>327.0</ele><time>2026-04-27T10:20:31.827Z</time></trkpt><trkpt lat="39.48300396024135" lon="8.503302505290874"><ele>325.0</ele><time>2026-04-27T10:20:32.827Z</time></trkpt><trkpt lat="39.48309006152382" lon="8.503167891396902"><ele>323.0</ele><time>2026-04-27T10:20:33.829Z</time></trkpt><trkpt lat="39.483179826270344" lon="8.503047373137443"><ele>331.0</ele><time>2026-04-27T10:20:34.828Z</time></trkpt><trkpt lat="39.48329639364619" lon="8.502982963532256"><ele>339.0</ele><time>2026-04-27T10:20:35.828Z</time></trkpt><trkpt lat="39.48343272145869" lon="8.502974199449861"><ele>347.0</ele><time>2026-04-27T10:20:36.829Z</time></trkpt><trkpt lat="39.48357238495267" lon="8.502965134772566"><ele>355.0</ele><time>2026-04-27T10:20:37.828Z</time></trkpt><trkpt lat="39.48371904042063" lon="8.502958509427767"><ele>355.75</ele><time>2026-04-27T10:20:38.828Z</time></trkpt><trkpt lat="39.48386127065436" lon="8.502942437600588"><ele>356.5</ele><time>2026-04-27T10:20:39.829Z</time></trkpt><trkpt lat="39.48398507350751" lon="8.502924482805124"><ele>357.25</ele><time>2026-04-27T10:20:40.829Z</time></trkpt><trkpt lat="39.484080521926465" lon="8.502861778648834"><ele>358.0</ele><time>2026-04-27T10:20:41.829Z</time></trkpt><trkpt lat="39.48412514633481" lon="8.502741475454894"><ele>358.0</ele><time>2026-04-27T10:20:42.829Z</time></trkpt><trkpt lat="39.484118102214644" lon="8.502586958217178"><ele>358.0</ele><time>2026-04-27T10:20:43.828Z</time></trkpt><trkpt lat="39.484041359468804" lon="8.502425949553643"><ele>358.0</ele><time>2026-04-27T10:20:44.828Z</time></trkpt><trkpt lat="39.48392389440395" lon="8.502256079727342"><ele>358.0</ele><time>2026-04-27T10:20:45.828Z</time></trkpt><trkpt lat="39.48381038491136" lon="8.502088012774243"><ele>348.25</ele><time>2026-04-27T10:20:46.828Z</time></trkpt><trkpt lat="39.48372072590212" lon="8.501942035221715"><ele>338.5</ele><time>2026-04-27T10:20:47.828Z</time></trkpt><trkpt lat="39.48362670020733" lon="8.501850246625985"><ele>328.75</ele><time>2026-04-27T10:20:48.828Z</time></trkpt><trkpt lat="39.48354599627258" lon="8.50178058127193"><ele>319.0</ele><time>2026-04-27T10:20:49.828Z</time></trkpt><trkpt lat="39.48354411591365" lon="8.501639167327223"><ele>319.0</ele><time>2026-04-27T10:20:50.828Z</time></trkpt><trkpt lat="39.48360811780721" lon="8.501514239639897"><ele>319.0</ele><time>2026-04-27T10:20:51.828Z</time></trkpt><trkpt lat="39.48372686001009" lon="8.501414651305897"><ele>319.0</ele><time>2026-04-27T10:20:52.828Z</time></trkpt><trkpt lat="39.483858028761134" lon="8.501300936073592"><ele>319.0</ele><time>2026-04-27T10:20:53.828Z</time></trkpt><trkpt lat="39.48397425909277" lon="8.50118486770686"><ele>325.0</ele><time>2026-04-27T10:20:54.828Z</time></trkpt><trkpt lat="39.48402800298651" lon="8.501057932247596"><ele>331.0</ele><time>2026-04-27T10:20:55.828Z</time></trkpt><trkpt lat="39.48400894879409" lon="8.500907805417409"><ele>337.0</ele><time>2026-04-27T10:20:56.828Z</time></trkpt><trkpt lat="39.48393514260452" lon="8.50077531795764"><ele>343.0</ele><time>2026-04-27T10:20:57.828Z</time></trkpt><trkpt lat="39.48381634709389" lon="8.500651559762382"><ele>342.25</ele><time>2026-04-27T10:20:58.828Z</time></trkpt><trkpt lat="39.48374347870381" lon="8.500497712091788"><ele>341.5</ele><time>2026-04-27T10:20:59.828Z</time></trkpt><trkpt lat="39.48372363740416" lon="8.50033808586896"><ele>340.75</ele><time>2026-04-27T10:21:00.828Z</time></trkpt><trkpt lat="39.48374264801729" lon="8.500186427038752"><ele>340.0</ele><time>2026-04-27T10:21:01.828Z</time></trkpt><trkpt lat="39.48383196053425" lon="8.500018195151586"><ele>340.0</ele><time>2026-04-27T10:21:02.828Z</time></trkpt><trkpt lat="39.48389386819277" lon="8.499785175304481"><ele>340.0</ele><time>2026-04-27T10:21:03.828Z</time></trkpt><trkpt lat="39.483889462104386" lon="8.499521166272281"><ele>340.0</ele><time>2026-04-27T10:21:04.828Z</time></trkpt><trkpt lat="39.483889462107356" lon="8.499274335514333"><ele>339.25</ele><time>2026-04-27T10:21:05.828Z</time></trkpt><trkpt lat="39.483872911189486" lon="8.499113572512886"><ele>338.5</ele><time>2026-04-27T10:21:06.828Z</time></trkpt><trkpt lat="39.483839848513625" lon="8.498978101804793"><ele>337.75</ele><time>2026-04-27T10:21:07.828Z</time></trkpt><trkpt lat="39.483763791669276" lon="8.498867435370876"><ele>337.0</ele><time>2026-04-27T10:21:08.828Z</time></trkpt><trkpt lat="39.48360790639375" lon="8.498845609053955"><ele>330.3333333333333</ele><time>2026-04-27T10:21:09.828Z</time></trkpt><trkpt lat="39.48342571620307" lon="8.498884570379866"><ele>323.6666666666667</ele><time>2026-04-27T10:21:10.828Z</time></trkpt><trkpt lat="39.483235276960556" lon="8.498951933716869"><ele>317.0</ele><time>2026-04-27T10:21:11.828Z</time></trkpt><trkpt lat="39.48306438575819" lon="8.499000826909922"><ele>310.6666666666667</ele><time>2026-04-27T10:21:12.828Z</time></trkpt><trkpt lat="39.48290924065355" lon="8.498998411903791"><ele>304.3333333333333</ele><time>2026-04-27T10:21:13.828Z</time></trkpt><trkpt lat="39.48274840416171" lon="8.49892603186354"><ele>298.0</ele><time>2026-04-27T10:21:14.828Z</time></trkpt><trkpt lat="39.48257662211108" lon="8.498823842776883"><ele>310.0</ele><time>2026-04-27T10:21:15.828Z</time></trkpt><trkpt lat="39.48240376774872" lon="8.498723994970966"><ele>322.0</ele><time>2026-04-27T10:21:16.828Z</time></trkpt><trkpt lat="39.482246866567785" lon="8.498635148300714"><ele>334.0</ele><time>2026-04-27T10:21:17.827Z</time></trkpt><trkpt lat="39.48212042983309" lon="8.498561693753715"><ele>326.8</ele><time>2026-04-27T10:21:18.827Z</time></trkpt><trkpt lat="39.48201955563468" lon="8.498493062143456"><ele>319.59999999999997</ele><time>2026-04-27T10:21:19.827Z</time></trkpt><trkpt lat="39.48195305845368" lon="8.498412082835602"><ele>312.4</ele><time>2026-04-27T10:21:20.827Z</time></trkpt><trkpt lat="39.481886781786116" lon="8.498323443475648"><ele>305.2</ele><time>2026-04-27T10:21:21.827Z</time></trkpt><trkpt lat="39.48185535540054" lon="8.498199930556426"><ele>298.0</ele><time>2026-04-27T10:21:22.827Z</time></trkpt><trkpt lat="39.481834714465236" lon="8.498054028369587"><ele>303.75</ele><time>2026-04-27T10:21:23.827Z</time></trkpt><trkpt lat="39.48177929970024" lon="8.49791115312313"><ele>309.5</ele><time>2026-04-27T10:21:24.827Z</time></trkpt><trkpt lat="39.481694928956905" lon="8.497785026417501"><ele>315.25</ele><time>2026-04-27T10:21:25.827Z</time></trkpt><trkpt lat="39.48160486469919" lon="8.497658463757505"><ele>321.0</ele><time>2026-04-27T10:21:26.827Z</time></trkpt><trkpt lat="39.48149534226724" lon="8.49758059648352"><ele>321.0</ele><time>2026-04-27T10:21:27.827Z</time></trkpt><trkpt lat="39.481350199359035" lon="8.497562108151882"><ele>321.0</ele><time>2026-04-27T10:21:28.827Z</time></trkpt><trkpt lat="39.4811820608758" lon="8.49758894430188"><ele>321.0</ele><time>2026-04-27T10:21:29.827Z</time></trkpt><trkpt lat="39.48100886340687" lon="8.497587426756507"><ele>317.0</ele><time>2026-04-27T10:21:30.827Z</time></trkpt><trkpt lat="39.48083075038806" lon="8.497600276680817"><ele>313.0</ele><time>2026-04-27T10:21:31.827Z</time></trkpt><trkpt lat="39.48066198191644" lon="8.497632461334382"><ele>309.0</ele><time>2026-04-27T10:21:32.827Z</time></trkpt><trkpt lat="39.480496134165385" lon="8.49764209971267"><ele>305.3333333333333</ele><time>2026-04-27T10:21:33.827Z</time></trkpt><trkpt lat="39.48033522892897" lon="8.497634637564627"><ele>301.66666666666663</ele><time>2026-04-27T10:21:34.827Z</time></trkpt><trkpt lat="39.48017858232168" lon="8.497636775670427"><ele>298.0</ele><time>2026-04-27T10:21:35.827Z</time></trkpt><trkpt lat="39.480042633319144" lon="8.497579396471744"><ele>298.0</ele><time>2026-04-27T10:21:36.827Z</time></trkpt><trkpt lat="39.479928965818914" lon="8.497461267775368"><ele>298.0</ele><time>2026-04-27T10:21:37.827Z</time></trkpt><trkpt lat="39.47985112931004" lon="8.49729827531052"><ele>298.0</ele><time>2026-04-27T10:21:38.827Z</time></trkpt><trkpt lat="39.47981847740596" lon="8.497103692081287"><ele>298.0</ele><time>2026-04-27T10:21:39.827Z</time></trkpt><trkpt lat="39.479847277570016" lon="8.496895832495808"><ele>298.3333333333333</ele><time>2026-04-27T10:21:40.827Z</time></trkpt><trkpt lat="39.47990282958537" lon="8.496687827194116"><ele>298.6666666666667</ele><time>2026-04-27T10:21:41.827Z</time></trkpt><trkpt lat="39.47997382146971" lon="8.496507518144735"><ele>299.0</ele><time>2026-04-27T10:21:42.827Z</time></trkpt><trkpt lat="39.48000676461155" lon="8.496329757406311"><ele>302.75</ele><time>2026-04-27T10:21:43.827Z</time></trkpt><trkpt lat="39.479987420736094" lon="8.496153855940987"><ele>306.5</ele><time>2026-04-27T10:21:44.827Z</time></trkpt><trkpt lat="39.479913948033925" lon="8.495994278358166"><ele>310.25</ele><time>2026-04-27T10:21:45.827Z</time></trkpt><trkpt lat="39.47980012438047" lon="8.49586563764017"><ele>314.0</ele><time>2026-04-27T10:21:46.827Z</time></trkpt><trkpt lat="39.479671499028136" lon="8.495807120817004"><ele>312.0</ele><time>2026-04-27T10:21:47.827Z</time></trkpt><trkpt lat="39.47953551364777" lon="8.495836437580156"><ele>310.0</ele><time>2026-04-27T10:21:48.827Z</time></trkpt><trkpt lat="39.47938635806864" lon="8.49594617686515"><ele>308.0</ele><time>2026-04-27T10:21:49.827Z</time></trkpt><trkpt lat="39.47922189440145" lon="8.496059525919627"><ele>308.0</ele><time>2026-04-27T10:21:50.827Z</time></trkpt><trkpt lat="39.479056688147175" lon="8.496196880634882"><ele>308.0</ele><time>2026-04-27T10:21:51.827Z</time></trkpt><trkpt lat="39.4789228064841" lon="8.496378522169246"><ele>308.0</ele><time>2026-04-27T10:21:52.827Z</time></trkpt><trkpt lat="39.47876663540289" lon="8.49651695836469"><ele>301.6666666666667</ele><time>2026-04-27T10:21:53.827Z</time></trkpt><trkpt lat="39.47862080744293" lon="8.496675885953032"><ele>295.3333333333333</ele><time>2026-04-27T10:21:54.827Z</time></trkpt><trkpt lat="39.47846361474021" lon="8.496797297870135"><ele>289.0</ele><time>2026-04-27T10:21:55.827Z</time></trkpt><trkpt lat="39.47831500689699" lon="8.496932557466101"><ele>282.66666666666663</ele><time>2026-04-27T10:21:56.827Z</time></trkpt><trkpt lat="39.478187045382015" lon="8.4970935328638"><ele>276.3333333333333</ele><time>2026-04-27T10:21:57.827Z</time></trkpt><trkpt lat="39.47804833183816" lon="8.497207643199848"><ele>270.0</ele><time>2026-04-27T10:21:58.827Z</time></trkpt><trkpt lat="39.47790644844768" lon="8.497296027143724"><ele>270.0</ele><time>2026-04-27T10:21:59.827Z</time></trkpt><trkpt lat="39.47775975016355" lon="8.497383604450695"><ele>270.0</ele><time>2026-04-27T10:22:00.827Z</time></trkpt><trkpt lat="39.4776069182602" lon="8.497422900753115"><ele>270.0</ele><time>2026-04-27T10:22:01.827Z</time></trkpt><trkpt lat="39.477449996085646" lon="8.497392375542978"><ele>270.0</ele><time>2026-04-27T10:22:02.827Z</time></trkpt><trkpt lat="39.47731176252481" lon="8.497322788415845"><ele>270.0</ele><time>2026-04-27T10:22:03.827Z</time></trkpt><trkpt lat="39.47722973846394" lon="8.497205238255109"><ele>270.0</ele><time>2026-04-27T10:22:04.827Z</time></trkpt><trkpt lat="39.47719176155084" lon="8.497048614646399"><ele>270.0</ele><time>2026-04-27T10:22:05.827Z</time></trkpt><trkpt lat="39.47720557087166" lon="8.49685459794059"><ele>271.0</ele><time>2026-04-27T10:22:06.827Z</time></trkpt><trkpt lat="39.47725641542352" lon="8.496643639272857"><ele>272.0</ele><time>2026-04-27T10:22:07.827Z</time></trkpt><trkpt lat="39.47731492783132" lon="8.49645539448"><ele>273.0</ele><time>2026-04-27T10:22:08.827Z</time></trkpt><trkpt lat="39.477345921539154" lon="8.496304602116814"><ele>274.0</ele><time>2026-04-27T10:22:09.827Z</time></trkpt><trkpt lat="39.47729633737337" lon="8.496173384239205"><ele>274.0</ele><time>2026-04-27T10:22:10.827Z</time></trkpt><trkpt lat="39.47721634853866" lon="8.4960278923086"><ele>274.0</ele><time>2026-04-27T10:22:11.827Z</time></trkpt><trkpt lat="39.477202348925495" lon="8.495875398820207"><ele>274.0</ele><time>2026-04-27T10:22:12.827Z</time></trkpt><trkpt lat="39.477249285622044" lon="8.495732115970005"><ele>274.0</ele><time>2026-04-27T10:22:13.827Z</time></trkpt><trkpt lat="39.477351692206156" lon="8.495657741066317"><ele>274.0</ele><time>2026-04-27T10:22:14.826Z</time></trkpt><trkpt lat="39.477462473428815" lon="8.495604807084396"><ele>274.0</ele><time>2026-04-27T10:22:15.826Z</time></trkpt><trkpt lat="39.47752242724638" lon="8.495487761285885"><ele>274.0</ele><time>2026-04-27T10:22:16.826Z</time></trkpt><trkpt lat="39.47751881810693" lon="8.49533093144072"><ele>274.0</ele><time>2026-04-27T10:22:17.826Z</time></trkpt><trkpt lat="39.477485703809414" lon="8.495167762457534"><ele>274.0</ele><time>2026-04-27T10:22:18.826Z</time></trkpt><trkpt lat="39.47739856615691" lon="8.495021751545936"><ele>274.0</ele><time>2026-04-27T10:22:19.826Z</time></trkpt><trkpt lat="39.47726710510514" lon="8.494939885511789"><ele>274.0</ele><time>2026-04-27T10:22:20.826Z</time></trkpt><trkpt lat="39.477130652901785" lon="8.494851098178748"><ele>274.0</ele><time>2026-04-27T10:22:21.826Z</time></trkpt><trkpt lat="39.47703447448418" lon="8.494699794970185"><ele>265.0</ele><time>2026-04-27T10:22:22.826Z</time></trkpt><trkpt lat="39.47699229237647" lon="8.494505004232707"><ele>256.0</ele><time>2026-04-27T10:22:23.826Z</time></trkpt><trkpt lat="39.47700358928323" lon="8.494293039291788"><ele>247.0</ele><time>2026-04-27T10:22:24.826Z</time></trkpt><trkpt lat="39.477039891028305" lon="8.494092278721038"><ele>247.0</ele><time>2026-04-27T10:22:25.826Z</time></trkpt><trkpt lat="39.4770491387826" lon="8.4939071281556"><ele>247.0</ele><time>2026-04-27T10:22:26.826Z</time></trkpt><trkpt lat="39.477050948493996" lon="8.493737796686508"><ele>247.0</ele><time>2026-04-27T10:22:27.826Z</time></trkpt><trkpt lat="39.47698386246123" lon="8.493580826627765"><ele>247.0</ele><time>2026-04-27T10:22:28.826Z</time></trkpt><trkpt lat="39.47684220894104" lon="8.493506192190196"><ele>253.25</ele><time>2026-04-27T10:22:29.826Z</time></trkpt><trkpt lat="39.4766865137568" lon="8.493623049059469"><ele>259.5</ele><time>2026-04-27T10:22:30.826Z</time></trkpt><trkpt lat="39.47657458429316" lon="8.493708563483986"><ele>265.75</ele><time>2026-04-27T10:22:31.826Z</time></trkpt><trkpt lat="39.4764506971949" lon="8.493741987343254"><ele>272.0</ele><time>2026-04-27T10:22:32.826Z</time></trkpt><trkpt lat="39.47635197466549" lon="8.493714597196044"><ele>271.5</ele><time>2026-04-27T10:22:33.826Z</time></trkpt><trkpt lat="39.4762581093312" lon="8.49362142754026"><ele>271.0</ele><time>2026-04-27T10:22:34.826Z</time></trkpt><trkpt lat="39.47614771452431" lon="8.49355839022365"><ele>270.5</ele><time>2026-04-27T10:22:35.826Z</time></trkpt><trkpt lat="39.476002849376044" lon="8.493550199077932"><ele>270.0</ele><time>2026-04-27T10:22:36.826Z</time></trkpt><trkpt lat="39.475882540404946" lon="8.493651157603587"><ele>263.25</ele><time>2026-04-27T10:22:37.826Z</time></trkpt><trkpt lat="39.47579799737909" lon="8.493797166358911"><ele>256.5</ele><time>2026-04-27T10:22:38.826Z</time></trkpt><trkpt lat="39.475737239418095" lon="8.493975399039083"><ele>249.75</ele><time>2026-04-27T10:22:39.828Z</time></trkpt><trkpt lat="39.47566625617406" lon="8.494149653661097"><ele>243.0</ele><time>2026-04-27T10:22:40.827Z</time></trkpt><trkpt lat="39.475580300653476" lon="8.494304360749508"><ele>243.0</ele><time>2026-04-27T10:22:41.827Z</time></trkpt><trkpt lat="39.47545433441262" lon="8.494384101440176"><ele>243.0</ele><time>2026-04-27T10:22:42.828Z</time></trkpt><trkpt lat="39.475307845769365" lon="8.494377996427215"><ele>243.0</ele><time>2026-04-27T10:22:43.828Z</time></trkpt><trkpt lat="39.475152670891845" lon="8.494321817123087"><ele>243.0</ele><time>2026-04-27T10:22:44.828Z</time></trkpt><trkpt lat="39.47499887443341" lon="8.49426948336619"><ele>243.75</ele><time>2026-04-27T10:22:45.827Z</time></trkpt><trkpt lat="39.47485035236936" lon="8.49421894434068"><ele>244.5</ele><time>2026-04-27T10:22:46.827Z</time></trkpt><trkpt lat="39.474709684184845" lon="8.49417107784868"><ele>245.25</ele><time>2026-04-27T10:22:47.827Z</time></trkpt><trkpt lat="39.474575154903945" lon="8.49412530031563"><ele>246.0</ele><time>2026-04-27T10:22:48.827Z</time></trkpt><trkpt lat="39.47443087368" lon="8.49407611916827"><ele>240.33333333333331</ele><time>2026-04-27T10:22:49.828Z</time></trkpt><trkpt lat="39.474285232085336" lon="8.49403965220463"><ele>234.66666666666666</ele><time>2026-04-27T10:22:50.828Z</time></trkpt><trkpt lat="39.474147372441585" lon="8.493951117951239"><ele>229.0</ele><time>2026-04-27T10:22:51.828Z</time></trkpt><trkpt lat="39.47401894882387" lon="8.49382766061927"><ele>228.0</ele><time>2026-04-27T10:22:52.827Z</time></trkpt><trkpt lat="39.47389092970955" lon="8.493703514256962"><ele>227.0</ele><time>2026-04-27T10:22:53.827Z</time></trkpt><trkpt lat="39.473717889226286" lon="8.493687495818516"><ele>226.0</ele><time>2026-04-27T10:22:54.827Z</time></trkpt><trkpt lat="39.47357131839581" lon="8.493674472032989"><ele>226.0</ele><time>2026-04-27T10:22:55.827Z</time></trkpt><trkpt lat="39.47343035094858" lon="8.493612645635954"><ele>226.0</ele><time>2026-04-27T10:22:56.827Z</time></trkpt><trkpt lat="39.473315328318535" lon="8.493501513966761"><ele>226.0</ele><time>2026-04-27T10:22:57.827Z</time></trkpt><trkpt lat="39.47324244512147" lon="8.493351621985738"><ele>226.0</ele><time>2026-04-27T10:22:58.827Z</time></trkpt><trkpt lat="39.47325768555525" lon="8.493138676232148"><ele>226.0</ele><time>2026-04-27T10:22:59.827Z</time></trkpt><trkpt lat="39.47328856531028" lon="8.49292924765674"><ele>226.0</ele><time>2026-04-27T10:23:00.827Z</time></trkpt><trkpt lat="39.47327719478194" lon="8.49273663875825"><ele>226.0</ele><time>2026-04-27T10:23:01.827Z</time></trkpt><trkpt lat="39.473193321953" lon="8.492592277967333"><ele>230.66666666666666</ele><time>2026-04-27T10:23:02.827Z</time></trkpt><trkpt lat="39.47306711203249" lon="8.492465122046475"><ele>235.33333333333331</ele><time>2026-04-27T10:23:03.827Z</time></trkpt><trkpt lat="39.47294878871554" lon="8.492328864345165"><ele>240.0</ele><time>2026-04-27T10:23:04.827Z</time></trkpt><trkpt lat="39.472876863294196" lon="8.492160316500005"><ele>231.66666666666669</ele><time>2026-04-27T10:23:05.827Z</time></trkpt><trkpt lat="39.472828899295195" lon="8.491961699431519"><ele>223.33333333333334</ele><time>2026-04-27T10:23:06.827Z</time></trkpt><trkpt lat="39.4728100015028" lon="8.491766937238031"><ele>215.0</ele><time>2026-04-27T10:23:07.827Z</time></trkpt><trkpt lat="39.472819131452624" lon="8.491581961027046"><ele>215.0</ele><time>2026-04-27T10:23:08.827Z</time></trkpt><trkpt lat="39.472811487328805" lon="8.491406190760028"><ele>215.0</ele><time>2026-04-27T10:23:09.827Z</time></trkpt><trkpt lat="39.472768346681214" lon="8.491261401134727"><ele>215.0</ele><time>2026-04-27T10:23:10.827Z</time></trkpt><trkpt lat="39.472661079769914" lon="8.491179681407763"><ele>215.0</ele><time>2026-04-27T10:23:11.827Z</time></trkpt><trkpt lat="39.472516165491584" lon="8.491156790139069"><ele>218.33333333333334</ele><time>2026-04-27T10:23:12.827Z</time></trkpt><trkpt lat="39.472362102965505" lon="8.491149783453546"><ele>221.66666666666669</ele><time>2026-04-27T10:23:13.827Z</time></trkpt><trkpt lat="39.47219567185772" lon="8.491117990300618"><ele>225.0</ele><time>2026-04-27T10:23:14.827Z</time></trkpt><trkpt lat="39.47201813324037" lon="8.491081352309855"><ele>225.0</ele><time>2026-04-27T10:23:15.827Z</time></trkpt><trkpt lat="39.4718336762022" lon="8.491051980605603"><ele>225.0</ele><time>2026-04-27T10:23:16.827Z</time></trkpt><trkpt lat="39.471643146035284" lon="8.491025716023948"><ele>225.0</ele><time>2026-04-27T10:23:17.827Z</time></trkpt><trkpt lat="39.47144611959737" lon="8.491013307261122"><ele>224.33333333333331</ele><time>2026-04-27T10:23:18.827Z</time></trkpt><trkpt lat="39.471245236843544" lon="8.49102936738021"><ele>223.66666666666666</ele><time>2026-04-27T10:23:19.826Z</time></trkpt><trkpt lat="39.47104998175686" lon="8.491067231971206"><ele>223.0</ele><time>2026-04-27T10:23:20.826Z</time></trkpt><trkpt lat="39.470866223831905" lon="8.491101150485441"><ele>223.0</ele><time>2026-04-27T10:23:21.826Z</time></trkpt><trkpt lat="39.470688791035215" lon="8.491076908099844"><ele>223.0</ele><time>2026-04-27T10:23:22.826Z</time></trkpt><trkpt lat="39.47050964380068" lon="8.491009821857437"><ele>223.0</ele><time>2026-04-27T10:23:23.826Z</time></trkpt><trkpt lat="39.47032382601085" lon="8.490932002173443"><ele>217.33333333333331</ele><time>2026-04-27T10:23:24.826Z</time></trkpt><trkpt lat="39.4701579656075" lon="8.49083807270805"><ele>211.66666666666669</ele><time>2026-04-27T10:23:25.826Z</time></trkpt><trkpt lat="39.47002938135243" lon="8.490694398279864"><ele>206.0</ele><time>2026-04-27T10:23:26.826Z</time></trkpt><trkpt lat="39.46993901996161" lon="8.49049328775956"><ele>201.0</ele><time>2026-04-27T10:23:27.826Z</time></trkpt><trkpt lat="39.469842647612225" lon="8.490287243592391"><ele>196.0</ele><time>2026-04-27T10:23:28.826Z</time></trkpt><trkpt lat="39.46970875736392" lon="8.490102538611149"><ele>191.0</ele><time>2026-04-27T10:23:29.826Z</time></trkpt><trkpt lat="39.46954010230246" lon="8.489955534196902"><ele>191.0</ele><time>2026-04-27T10:23:30.826Z</time></trkpt><trkpt lat="39.46935722040158" lon="8.489826539698297"><ele>191.0</ele><time>2026-04-27T10:23:31.826Z</time></trkpt><trkpt lat="39.46919086548595" lon="8.489711690758124"><ele>191.0</ele><time>2026-04-27T10:23:32.826Z</time></trkpt><trkpt lat="39.469048649170745" lon="8.489604164235903"><ele>190.25</ele><time>2026-04-27T10:23:33.826Z</time></trkpt><trkpt lat="39.46891952602121" lon="8.489510438728162"><ele>189.5</ele><time>2026-04-27T10:23:34.826Z</time></trkpt><trkpt lat="39.46880476848438" lon="8.489425488114653"><ele>188.75</ele><time>2026-04-27T10:23:35.826Z</time></trkpt><trkpt lat="39.46870623910402" lon="8.48934769148111"><ele>188.0</ele><time>2026-04-27T10:23:36.826Z</time></trkpt><trkpt lat="39.468623599059356" lon="8.489280762372358"><ele>188.0</ele><time>2026-04-27T10:23:37.826Z</time></trkpt><trkpt lat="39.46855960017348" lon="8.489200775597567"><ele>188.0</ele><time>2026-04-27T10:23:38.826Z</time></trkpt><trkpt lat="39.46850994847752" lon="8.489105074674532"><ele>188.0</ele><time>2026-04-27T10:23:39.826Z</time></trkpt><trkpt lat="39.46848422058086" lon="8.488986716998493"><ele>188.0</ele><time>2026-04-27T10:23:40.826Z</time></trkpt><trkpt lat="39.4684908547271" lon="8.48886149038231"><ele>188.0</ele><time>2026-04-27T10:23:41.826Z</time></trkpt><trkpt lat="39.468505942484" lon="8.488744910179232"><ele>188.33333333333331</ele><time>2026-04-27T10:23:42.826Z</time></trkpt><trkpt lat="39.46852713820007" lon="8.488641225270289"><ele>188.66666666666666</ele><time>2026-04-27T10:23:43.826Z</time></trkpt><trkpt lat="39.46854082858708" lon="8.488542171950762"><ele>189.0</ele><time>2026-04-27T10:23:44.826Z</time></trkpt><trkpt lat="39.46855879351114" lon="8.488446759428395"><ele>189.33333333333334</ele><time>2026-04-27T10:23:45.826Z</time></trkpt><trkpt lat="39.46857367639017" lon="8.488354854712318"><ele>189.66666666666669</ele><time>2026-04-27T10:23:46.826Z</time></trkpt><trkpt lat="39.46858508832845" lon="8.488261436253621"><ele>190.0</ele><time>2026-04-27T10:23:47.826Z</time></trkpt><trkpt lat="39.46858592120007" lon="8.4881647475411"><ele>190.0</ele><time>2026-04-27T10:23:48.826Z</time></trkpt><trkpt lat="39.46857207659931" lon="8.488071163023877"><ele>190.0</ele><time>2026-04-27T10:23:49.826Z</time></trkpt><trkpt lat="39.46852430057999" lon="8.487985663327292"><ele>190.0</ele><time>2026-04-27T10:23:50.826Z</time></trkpt><trkpt lat="39.46845508241275" lon="8.487915977233461"><ele>190.0</ele><time>2026-04-27T10:23:51.826Z</time></trkpt><trkpt lat="39.46837099616099" lon="8.487879657417608"><ele>190.0</ele><time>2026-04-27T10:23:52.826Z</time></trkpt><trkpt lat="39.468274906157234" lon="8.487871702749954"><ele>190.0</ele><time>2026-04-27T10:23:53.826Z</time></trkpt><trkpt lat="39.468181488837054" lon="8.487888912737269"><ele>190.0</ele><time>2026-04-27T10:23:54.826Z</time></trkpt><trkpt lat="39.468075608624844" lon="8.48791685960363"><ele>190.0</ele><time>2026-04-27T10:23:55.826Z</time></trkpt><trkpt lat="39.467959937071406" lon="8.487962029182668"><ele>190.0</ele><time>2026-04-27T10:23:56.826Z</time></trkpt><trkpt lat="39.46783472164049" lon="8.48798044126579"><ele>190.0</ele><time>2026-04-27T10:23:57.826Z</time></trkpt><trkpt lat="39.46771707243987" lon="8.488028234130415"><ele>187.2</ele><time>2026-04-27T10:23:58.826Z</time></trkpt><trkpt lat="39.467614761033545" lon="8.488052828431943"><ele>184.4</ele><time>2026-04-27T10:23:59.826Z</time></trkpt><trkpt lat="39.46751447851325" lon="8.488066912172592"><ele>181.60000000000002</ele><time>2026-04-27T10:24:00.826Z</time></trkpt><trkpt lat="39.46742492343999" lon="8.488112772578486"><ele>178.8</ele><time>2026-04-27T10:24:01.826Z</time></trkpt><trkpt lat="39.4673365663114" lon="8.488178331328035"><ele>176.0</ele><time>2026-04-27T10:24:02.826Z</time></trkpt><trkpt lat="39.46725713669092" lon="8.488243486593413"><ele>176.0</ele><time>2026-04-27T10:24:03.826Z</time></trkpt><trkpt lat="39.467189803625686" lon="8.488289910390396"><ele>176.0</ele><time>2026-04-27T10:24:04.826Z</time></trkpt><trkpt lat="39.467102860375995" lon="8.48829958193623"><ele>176.0</ele><time>2026-04-27T10:24:06.826Z</time></trkpt><trkpt lat="39.46702511747272" lon="8.488288470951215"><ele>176.0</ele><time>2026-04-27T10:24:07.826Z</time></trkpt><trkpt lat="39.466953283702345" lon="8.488251631617356"><ele>176.0</ele><time>2026-04-27T10:24:08.826Z</time></trkpt><trkpt lat="39.466878301123245" lon="8.488192208337862"><ele>176.0</ele><time>2026-04-27T10:24:09.826Z</time></trkpt><trkpt lat="39.46678159546869" lon="8.488094808274298"><ele>174.5</ele><time>2026-04-27T10:24:10.826Z</time></trkpt><trkpt lat="39.46674355800551" lon="8.48799240762187"><ele>173.0</ele><time>2026-04-27T10:24:11.826Z</time></trkpt><trkpt lat="39.46673714127196" lon="8.487894076608567"><ele>171.5</ele><time>2026-04-27T10:24:12.826Z</time></trkpt><trkpt lat="39.46676355982856" lon="8.487795547886206"><ele>170.0</ele><time>2026-04-27T10:24:13.826Z</time></trkpt><trkpt lat="39.46679997921141" lon="8.487701944677559"><ele>168.5</ele><time>2026-04-27T10:24:14.826Z</time></trkpt><trkpt lat="39.46683595025343" lon="8.48761581734396"><ele>167.0</ele><time>2026-04-27T10:24:15.826Z</time></trkpt><trkpt lat="39.46685071697452" lon="8.487524502306053"><ele>167.0</ele><time>2026-04-27T10:24:16.826Z</time></trkpt><trkpt lat="39.46683048386748" lon="8.487434813932666"><ele>167.0</ele><time>2026-04-27T10:24:17.825Z</time></trkpt><trkpt lat="39.46679334458236" lon="8.487345510424948"><ele>167.0</ele><time>2026-04-27T10:24:18.825Z</time></trkpt><trkpt lat="39.46674762416426" lon="8.487254761790062"><ele>167.0</ele><time>2026-04-27T10:24:19.825Z</time></trkpt><trkpt lat="39.466707317234366" lon="8.48715957968336"><ele>167.0</ele><time>2026-04-27T10:24:20.825Z</time></trkpt><trkpt lat="39.46668004804944" lon="8.48705725650849"><ele>167.0</ele><time>2026-04-27T10:24:21.825Z</time></trkpt><trkpt lat="39.46667851144526" lon="8.486948886076435"><ele>166.5</ele><time>2026-04-27T10:24:22.825Z</time></trkpt><trkpt lat="39.46671111563439" lon="8.486849757566931"><ele>166.0</ele><time>2026-04-27T10:24:23.825Z</time></trkpt><trkpt lat="39.466755180687244" lon="8.486752799314953"><ele>165.5</ele><time>2026-04-27T10:24:24.825Z</time></trkpt><trkpt lat="39.46679660104026" lon="8.486657531168708"><ele>165.0</ele><time>2026-04-27T10:24:25.825Z</time></trkpt><trkpt lat="39.466827304898395" lon="8.486557351314179"><ele>164.5</ele><time>2026-04-27T10:24:26.825Z</time></trkpt><trkpt lat="39.466840075848054" lon="8.486453492726683"><ele>164.0</ele><time>2026-04-27T10:24:27.825Z</time></trkpt><trkpt lat="39.46682469073408" lon="8.48635525425422"><ele>164.0</ele><time>2026-04-27T10:24:28.825Z</time></trkpt><trkpt lat="39.46677961703195" lon="8.486269562844825"><ele>164.0</ele><time>2026-04-27T10:24:29.825Z</time></trkpt><trkpt lat="39.466716028470344" lon="8.4862088089513"><ele>164.0</ele><time>2026-04-27T10:24:30.825Z</time></trkpt><trkpt lat="39.46664440546435" lon="8.486169722468201"><ele>164.0</ele><time>2026-04-27T10:24:31.825Z</time></trkpt><trkpt lat="39.4665710248795" lon="8.486162199298278"><ele>164.0</ele><time>2026-04-27T10:24:32.825Z</time></trkpt><trkpt lat="39.46649868889207" lon="8.486137106157754"><ele>164.0</ele><time>2026-04-27T10:24:33.825Z</time></trkpt><trkpt lat="39.46643050498759" lon="8.486112881671552"><ele>165.16666666666666</ele><time>2026-04-27T10:24:34.825Z</time></trkpt><trkpt lat="39.4663859496719" lon="8.48603638891966"><ele>166.33333333333331</ele><time>2026-04-27T10:24:35.825Z</time></trkpt><trkpt lat="39.46636266917283" lon="8.485952175554884"><ele>167.5</ele><time>2026-04-27T10:24:36.825Z</time></trkpt><trkpt lat="39.466364133246266" lon="8.485863418717917"><ele>168.66666666666666</ele><time>2026-04-27T10:24:37.825Z</time></trkpt><trkpt lat="39.466364303974665" lon="8.485766092898018"><ele>169.83333333333334</ele><time>2026-04-27T10:24:38.825Z</time></trkpt><trkpt lat="39.466352588447535" lon="8.485676504864607"><ele>171.0</ele><time>2026-04-27T10:24:39.825Z</time></trkpt><trkpt lat="39.466292465248095" lon="8.485577637837007"><ele>165.33333333333334</ele><time>2026-04-27T10:24:40.825Z</time></trkpt><trkpt lat="39.466168203235604" lon="8.485459185083258"><ele>159.66666666666669</ele><time>2026-04-27T10:24:41.825Z</time></trkpt><trkpt lat="39.466062241477125" lon="8.485330370348162"><ele>154.0</ele><time>2026-04-27T10:24:42.825Z</time></trkpt><trkpt lat="39.46598751890898" lon="8.485155981164805"><ele>154.0</ele><time>2026-04-27T10:24:43.825Z</time></trkpt><trkpt lat="39.46593671204325" lon="8.484971006634886"><ele>154.0</ele><time>2026-04-27T10:24:44.825Z</time></trkpt><trkpt lat="39.46587618461318" lon="8.48481657766872"><ele>154.0</ele><time>2026-04-27T10:24:45.827Z</time></trkpt><trkpt lat="39.46580464727208" lon="8.48469683596365"><ele>154.0</ele><time>2026-04-27T10:24:46.826Z</time></trkpt><trkpt lat="39.46572264677208" lon="8.4845908384424"><ele>152.2</ele><time>2026-04-27T10:24:47.826Z</time></trkpt><trkpt lat="39.46562606385853" lon="8.484522205165643"><ele>150.4</ele><time>2026-04-27T10:24:48.827Z</time></trkpt><trkpt lat="39.465528575985566" lon="8.484463914571409"><ele>148.6</ele><time>2026-04-27T10:24:49.826Z</time></trkpt><trkpt lat="39.465430449157644" lon="8.484407400374554"><ele>146.8</ele><time>2026-04-27T10:24:50.826Z</time></trkpt><trkpt lat="39.46532391561443" lon="8.484347443660809"><ele>145.0</ele><time>2026-04-27T10:24:51.827Z</time></trkpt><trkpt lat="39.46521010261958" lon="8.484275003840578"><ele>145.0</ele><time>2026-04-27T10:24:52.826Z</time></trkpt><trkpt lat="39.46508535184315" lon="8.484199179172249"><ele>145.0</ele><time>2026-04-27T10:24:53.826Z</time></trkpt><trkpt lat="39.46497418111959" lon="8.484125948667833"><ele>145.0</ele><time>2026-04-27T10:24:54.827Z</time></trkpt><trkpt lat="39.464895281614304" lon="8.484013954994019"><ele>145.0</ele><time>2026-04-27T10:24:55.826Z</time></trkpt><trkpt lat="39.46486722531073" lon="8.483849102022338"><ele>143.25</ele><time>2026-04-27T10:24:56.826Z</time></trkpt><trkpt lat="39.46490596662714" lon="8.483678260552763"><ele>141.5</ele><time>2026-04-27T10:24:57.826Z</time></trkpt><trkpt lat="39.4649890772796" lon="8.48351359060496"><ele>139.75</ele><time>2026-04-27T10:24:58.826Z</time></trkpt><trkpt lat="39.46509491740912" lon="8.483364072690966"><ele>138.0</ele><time>2026-04-27T10:24:59.826Z</time></trkpt><trkpt lat="39.46522560402065" lon="8.483258657944633"><ele>138.0</ele><time>2026-04-27T10:25:00.826Z</time></trkpt><trkpt lat="39.46532813585987" lon="8.483151207845156"><ele>138.0</ele><time>2026-04-27T10:25:01.826Z</time></trkpt><trkpt lat="39.46536104049658" lon="8.48300769975013"><ele>138.0</ele><time>2026-04-27T10:25:02.826Z</time></trkpt><trkpt lat="39.4653103263412" lon="8.482854695337464"><ele>138.0</ele><time>2026-04-27T10:25:03.826Z</time></trkpt><trkpt lat="39.46521968501058" lon="8.482714020926345"><ele>134.5</ele><time>2026-04-27T10:25:04.826Z</time></trkpt><trkpt lat="39.465187447283824" lon="8.482535393712"><ele>131.0</ele><time>2026-04-27T10:25:05.826Z</time></trkpt><trkpt lat="39.46522944108105" lon="8.482352171433474"><ele>127.5</ele><time>2026-04-27T10:25:06.826Z</time></trkpt><trkpt lat="39.465332363970944" lon="8.482205229302437"><ele>124.0</ele><time>2026-04-27T10:25:07.826Z</time></trkpt><trkpt lat="39.465472792639034" lon="8.482107880296683"><ele>129.0</ele><time>2026-04-27T10:25:08.826Z</time></trkpt><trkpt lat="39.465618048957786" lon="8.482021424972501"><ele>134.0</ele><time>2026-04-27T10:25:09.826Z</time></trkpt><trkpt lat="39.46573334135808" lon="8.48191715828671"><ele>139.0</ele><time>2026-04-27T10:25:10.826Z</time></trkpt><trkpt lat="39.46579662677876" lon="8.481790400304627"><ele>144.0</ele><time>2026-04-27T10:25:11.826Z</time></trkpt><trkpt lat="39.46578408810042" lon="8.481643764390808"><ele>144.0</ele><time>2026-04-27T10:25:12.826Z</time></trkpt><trkpt lat="39.46569124140396" lon="8.481506614762003"><ele>144.0</ele><time>2026-04-27T10:25:13.826Z</time></trkpt><trkpt lat="39.46555198428221" lon="8.481451366277248"><ele>144.0</ele><time>2026-04-27T10:25:14.826Z</time></trkpt><trkpt lat="39.465401168630116" lon="8.481386332821158"><ele>144.0</ele><time>2026-04-27T10:25:15.826Z</time></trkpt><trkpt lat="39.46524078021293" lon="8.481369327141447"><ele>136.66666666666666</ele><time>2026-04-27T10:25:16.826Z</time></trkpt><trkpt lat="39.46506191760728" lon="8.481388821536017"><ele>129.33333333333331</ele><time>2026-04-27T10:25:17.826Z</time></trkpt><trkpt lat="39.46487781216037" lon="8.481440203724388"><ele>122.0</ele><time>2026-04-27T10:25:18.826Z</time></trkpt><trkpt lat="39.46470799659977" lon="8.481487584725885"><ele>119.0</ele><time>2026-04-27T10:25:19.826Z</time></trkpt><trkpt lat="39.46456353236666" lon="8.481502602875729"><ele>116.0</ele><time>2026-04-27T10:25:20.826Z</time></trkpt><trkpt lat="39.46444770787648" lon="8.481478598260102"><ele>113.0</ele><time>2026-04-27T10:25:21.826Z</time></trkpt><trkpt lat="39.46438118775034" lon="8.481368364336094"><ele>110.0</ele><time>2026-04-27T10:25:22.826Z</time></trkpt><trkpt lat="39.46436527296676" lon="8.481207266921318"><ele>110.0</ele><time>2026-04-27T10:25:23.826Z</time></trkpt><trkpt lat="39.46440502362223" lon="8.480985022135163"><ele>110.0</ele><time>2026-04-27T10:25:24.826Z</time></trkpt><trkpt lat="39.46441937342147" lon="8.48079257134262"><ele>110.0</ele><time>2026-04-27T10:25:25.826Z</time></trkpt><trkpt lat="39.46434482331434" lon="8.480634916105448"><ele>110.0</ele><time>2026-04-27T10:25:26.826Z</time></trkpt><trkpt lat="39.46418034727525" lon="8.480599001085197"><ele>110.0</ele><time>2026-04-27T10:25:27.826Z</time></trkpt><trkpt lat="39.46400145845734" lon="8.480591594677543"><ele>110.0</ele><time>2026-04-27T10:25:28.826Z</time></trkpt><trkpt lat="39.4638390603461" lon="8.480604125895741"><ele>105.5</ele><time>2026-04-27T10:25:29.826Z</time></trkpt><trkpt lat="39.4636831121612" lon="8.480597089285014"><ele>101.0</ele><time>2026-04-27T10:25:30.826Z</time></trkpt><trkpt lat="39.46354016399881" lon="8.48059185862673"><ele>96.5</ele><time>2026-04-27T10:25:31.826Z</time></trkpt><trkpt lat="39.463429896389606" lon="8.480536454973134"><ele>92.0</ele><time>2026-04-27T10:25:32.826Z</time></trkpt><trkpt lat="39.46334655498845" lon="8.48044738806326"><ele>97.66666666666667</ele><time>2026-04-27T10:25:33.826Z</time></trkpt><trkpt lat="39.46328424280521" lon="8.480292837285504"><ele>103.33333333333334</ele><time>2026-04-27T10:25:34.826Z</time></trkpt><trkpt lat="39.46320297149938" lon="8.480126834572163"><ele>109.0</ele><time>2026-04-27T10:25:35.826Z</time></trkpt><trkpt lat="39.46311374742443" lon="8.47994263101197"><ele>109.0</ele><time>2026-04-27T10:25:36.826Z</time></trkpt><trkpt lat="39.46302035578354" lon="8.479749823493062"><ele>109.0</ele><time>2026-04-27T10:25:37.826Z</time></trkpt><trkpt lat="39.46292447715582" lon="8.479551861225982"><ele>109.0</ele><time>2026-04-27T10:25:38.826Z</time></trkpt><trkpt lat="39.46282675400797" lon="8.479349932843766"><ele>104.0</ele><time>2026-04-27T10:25:39.826Z</time></trkpt><trkpt lat="39.46273742907663" lon="8.479165357977083"><ele>99.0</ele><time>2026-04-27T10:25:40.826Z</time></trkpt><trkpt lat="39.46266628768459" lon="8.479008532656444"><ele>94.0</ele><time>2026-04-27T10:25:41.826Z</time></trkpt><trkpt lat="39.462647598670245" lon="8.478860100080666"><ele>89.0</ele><time>2026-04-27T10:25:42.826Z</time></trkpt><trkpt lat="39.46274971779135" lon="8.47873715806597"><ele>87.33333333333334</ele><time>2026-04-27T10:25:43.826Z</time></trkpt><trkpt lat="39.46286269332183" lon="8.47857665658491"><ele>85.66666666666667</ele><time>2026-04-27T10:25:44.826Z</time></trkpt><trkpt lat="39.46297394291214" lon="8.478406680707984"><ele>84.0</ele><time>2026-04-27T10:25:45.826Z</time></trkpt><trkpt lat="39.46308953098938" lon="8.47824020423006"><ele>89.33333333333334</ele><time>2026-04-27T10:25:46.826Z</time></trkpt><trkpt lat="39.46321639608483" lon="8.478066517516458"><ele>94.66666666666667</ele><time>2026-04-27T10:25:47.826Z</time></trkpt><trkpt lat="39.463335709045644" lon="8.477896218319003"><ele>100.0</ele><time>2026-04-27T10:25:48.826Z</time></trkpt><trkpt lat="39.46343427660915" lon="8.477745341631445"><ele>100.0</ele><time>2026-04-27T10:25:49.825Z</time></trkpt><trkpt lat="39.46347760140053" lon="8.47758889915497"><ele>100.0</ele><time>2026-04-27T10:25:50.825Z</time></trkpt><trkpt lat="39.46345000562983" lon="8.47744120190043"><ele>100.0</ele><time>2026-04-27T10:25:51.825Z</time></trkpt><trkpt lat="39.463364162279746" lon="8.47736324095745"><ele>100.0</ele><time>2026-04-27T10:25:52.825Z</time></trkpt><trkpt lat="39.463255551525066" lon="8.477375183630226"><ele>100.0</ele><time>2026-04-27T10:25:53.825Z</time></trkpt><trkpt lat="39.46312690042093" lon="8.477495014685259"><ele>100.0</ele><time>2026-04-27T10:25:54.825Z</time></trkpt><trkpt lat="39.462988113459886" lon="8.47766551469631"><ele>100.0</ele><time>2026-04-27T10:25:55.825Z</time></trkpt><trkpt lat="39.462814881028606" lon="8.477780357650488"><ele>100.0</ele><time>2026-04-27T10:25:56.825Z</time></trkpt><trkpt lat="39.46262984803329" lon="8.47790185709376"><ele>100.0</ele><time>2026-04-27T10:25:57.825Z</time></trkpt><trkpt lat="39.46245121930367" lon="8.477983835602796"><ele>100.0</ele><time>2026-04-27T10:25:58.825Z</time></trkpt><trkpt lat="39.46227850601082" lon="8.478022012277421"><ele>95.66666666666667</ele><time>2026-04-27T10:25:59.825Z</time></trkpt><trkpt lat="39.462123879362814" lon="8.47805775652578"><ele>91.33333333333334</ele><time>2026-04-27T10:26:00.825Z</time></trkpt><trkpt lat="39.46199335344932" lon="8.478167006040632"><ele>87.0</ele><time>2026-04-27T10:26:01.825Z</time></trkpt><trkpt lat="39.461877568093264" lon="8.478319894966637"><ele>87.0</ele><time>2026-04-27T10:26:02.825Z</time></trkpt><trkpt lat="39.461777850636985" lon="8.478497442467459"><ele>87.0</ele><time>2026-04-27T10:26:03.825Z</time></trkpt><trkpt lat="39.46168259010798" lon="8.478688862276336"><ele>87.0</ele><time>2026-04-27T10:26:04.825Z</time></trkpt><trkpt lat="39.461575451679934" lon="8.478895841225901"><ele>83.33333333333333</ele><time>2026-04-27T10:26:05.825Z</time></trkpt><trkpt lat="39.4614600102216" lon="8.479087289656979"><ele>79.66666666666666</ele><time>2026-04-27T10:26:06.825Z</time></trkpt><trkpt lat="39.46133626529777" lon="8.479279894180474"><ele>76.0</ele><time>2026-04-27T10:26:07.825Z</time></trkpt><trkpt lat="39.46122017326047" lon="8.47946005772506"><ele>72.25</ele><time>2026-04-27T10:26:08.825Z</time></trkpt><trkpt lat="39.46111858599763" lon="8.479604802273265"><ele>68.5</ele><time>2026-04-27T10:26:09.825Z</time></trkpt><trkpt lat="39.461010242242615" lon="8.479695375345017"><ele>64.75</ele><time>2026-04-27T10:26:10.825Z</time></trkpt><trkpt lat="39.46087806107547" lon="8.479720402929763"><ele>61.0</ele><time>2026-04-27T10:26:11.825Z</time></trkpt><trkpt lat="39.46072784030651" lon="8.479664812885312"><ele>61.33333333333333</ele><time>2026-04-27T10:26:12.825Z</time></trkpt><trkpt lat="39.46058184194542" lon="8.479529084372373"><ele>61.66666666666667</ele><time>2026-04-27T10:26:13.825Z</time></trkpt><trkpt lat="39.46043664328038" lon="8.479386522691039"><ele>62.0</ele><time>2026-04-27T10:26:14.825Z</time></trkpt><trkpt lat="39.46029600914916" lon="8.479268636926617"><ele>62.0</ele><time>2026-04-27T10:26:15.825Z</time></trkpt><trkpt lat="39.460161181261206" lon="8.479153441949865"><ele>62.0</ele><time>2026-04-27T10:26:16.825Z</time></trkpt><trkpt lat="39.460065794419094" lon="8.479001806356312"><ele>62.0</ele><time>2026-04-27T10:26:17.824Z</time></trkpt><trkpt lat="39.4600066418056" lon="8.478840037070531"><ele>63.0</ele><time>2026-04-27T10:26:18.824Z</time></trkpt><trkpt lat="39.45991155819462" lon="8.47873082082303"><ele>64.0</ele><time>2026-04-27T10:26:19.823Z</time></trkpt><trkpt lat="39.45977323769675" lon="8.478708560700696"><ele>65.0</ele><time>2026-04-27T10:26:20.823Z</time></trkpt><trkpt lat="39.45960190221616" lon="8.478727617141722"><ele>66.0</ele><time>2026-04-27T10:26:21.822Z</time></trkpt><trkpt lat="39.45941745587056" lon="8.478741823907953"><ele>66.0</ele><time>2026-04-27T10:26:22.822Z</time></trkpt><trkpt lat="39.459242385171834" lon="8.478735317062815"><ele>66.0</ele><time>2026-04-27T10:26:23.821Z</time></trkpt><trkpt lat="39.459058448330595" lon="8.47871985433546"><ele>66.0</ele><time>2026-04-27T10:26:24.821Z</time></trkpt><trkpt lat="39.45886984138212" lon="8.47868617247433"><ele>63.0</ele><time>2026-04-27T10:26:25.821Z</time></trkpt><trkpt lat="39.45867654278967" lon="8.478651164033312"><ele>60.0</ele><time>2026-04-27T10:26:26.82Z</time></trkpt><trkpt lat="39.45848329856361" lon="8.478597675968151"><ele>57.0</ele><time>2026-04-27T10:26:27.82Z</time></trkpt><trkpt lat="39.45828526149887" lon="8.478535693496834"><ele>57.0</ele><time>2026-04-27T10:26:28.82Z</time></trkpt><trkpt lat="39.45808865259908" lon="8.478465254271029"><ele>57.0</ele><time>2026-04-27T10:26:29.819Z</time></trkpt><trkpt lat="39.4578900845448" lon="8.478405438495656"><ele>57.0</ele><time>2026-04-27T10:26:30.819Z</time></trkpt><trkpt lat="39.45769624969757" lon="8.478340844923117"><ele>54.33333333333333</ele><time>2026-04-27T10:26:31.819Z</time></trkpt><trkpt lat="39.457516667557236" lon="8.478287704574893"><ele>51.666666666666664</ele><time>2026-04-27T10:26:32.818Z</time></trkpt><trkpt lat="39.45733135300624" lon="8.478272108494577"><ele>49.0</ele><time>2026-04-27T10:26:33.818Z</time></trkpt><trkpt lat="39.45714606313263" lon="8.478319259954747"><ele>48.0</ele><time>2026-04-27T10:26:34.818Z</time></trkpt><trkpt lat="39.45696568463181" lon="8.478400341926989"><ele>47.0</ele><time>2026-04-27T10:26:35.818Z</time></trkpt><trkpt lat="39.456781113917806" lon="8.478475909884187"><ele>46.0</ele><time>2026-04-27T10:26:36.818Z</time></trkpt><trkpt lat="39.45659744552162" lon="8.478514885359292"><ele>46.0</ele><time>2026-04-27T10:26:37.817Z</time></trkpt><trkpt lat="39.45640171052956" lon="8.478503277761968"><ele>46.0</ele><time>2026-04-27T10:26:38.817Z</time></trkpt><trkpt lat="39.4562038819932" lon="8.478476399695873"><ele>46.0</ele><time>2026-04-27T10:26:39.817Z</time></trkpt><trkpt lat="39.45600295206267" lon="8.478461265706875"><ele>44.66666666666667</ele><time>2026-04-27T10:26:40.817Z</time></trkpt><trkpt lat="39.45579845826788" lon="8.478428108683739"><ele>43.333333333333336</ele><time>2026-04-27T10:26:41.817Z</time></trkpt><trkpt lat="39.45559198897565" lon="8.478437482447163"><ele>42.0</ele><time>2026-04-27T10:26:42.817Z</time></trkpt><trkpt lat="39.455384591709524" lon="8.478433122443247"><ele>41.0</ele><time>2026-04-27T10:26:43.817Z</time></trkpt><trkpt lat="39.4551773319086" lon="8.47843815345319"><ele>40.0</ele><time>2026-04-27T10:26:44.816Z</time></trkpt><trkpt lat="39.45497113779884" lon="8.478442386534397"><ele>39.0</ele><time>2026-04-27T10:26:45.816Z</time></trkpt><trkpt lat="39.454761741109806" lon="8.478443061241597"><ele>39.0</ele><time>2026-04-27T10:26:46.816Z</time></trkpt><trkpt lat="39.45455400867569" lon="8.478442821305402"><ele>39.0</ele><time>2026-04-27T10:26:47.816Z</time></trkpt><trkpt lat="39.45434965220243" lon="8.47844781963259"><ele>39.0</ele><time>2026-04-27T10:26:48.816Z</time></trkpt><trkpt lat="39.45415505929797" lon="8.478451912461958"><ele>39.0</ele><time>2026-04-27T10:26:49.816Z</time></trkpt><trkpt lat="39.45398320902345" lon="8.478457543205376"><ele>39.0</ele><time>2026-04-27T10:26:50.816Z</time></trkpt><trkpt lat="39.45382818010548" lon="8.478477694143116"><ele>39.0</ele><time>2026-04-27T10:26:51.816Z</time></trkpt><trkpt lat="39.453691188551254" lon="8.478540908422522"><ele>39.0</ele><time>2026-04-27T10:26:52.816Z</time></trkpt><trkpt lat="39.453587167254604" lon="8.478653925852047"><ele>39.0</ele><time>2026-04-27T10:26:53.816Z</time></trkpt><trkpt lat="39.453498243200706" lon="8.478787666359695"><ele>39.0</ele><time>2026-04-27T10:26:54.816Z</time></trkpt><trkpt lat="39.45342586898381" lon="8.478916663633408"><ele>39.0</ele><time>2026-04-27T10:26:55.816Z</time></trkpt><trkpt lat="39.453365418524" lon="8.479000548777883"><ele>39.0</ele><time>2026-04-27T10:26:56.816Z</time></trkpt><trkpt lat="39.453296611745465" lon="8.479086480701948"><ele>39.0</ele><time>2026-04-27T10:26:58.815Z</time></trkpt><trkpt lat="39.45328254897217" lon="8.479165208709588"><ele>39.0</ele><time>2026-04-27T10:35:55.811Z</time></trkpt><trkpt lat="39.45324299244891" lon="8.479240982493964"><ele>39.0</ele><time>2026-04-27T10:35:57.811Z</time></trkpt><trkpt lat="39.45318670675003" lon="8.479341820592067"><ele>39.0</ele><time>2026-04-27T10:35:59.811Z</time></trkpt><trkpt lat="39.4531192135757" lon="8.479465500672747"><ele>39.0</ele><time>2026-04-27T10:36:01.811Z</time></trkpt><trkpt lat="39.45308283320723" lon="8.479535107355813"><ele>38.166666666666664</ele><time>2026-04-27T10:36:02.811Z</time></trkpt><trkpt lat="39.45304951283771" lon="8.479615975562526"><ele>37.333333333333336</ele><time>2026-04-27T10:36:03.811Z</time></trkpt><trkpt lat="39.45301507145994" lon="8.47970808414637"><ele>36.5</ele><time>2026-04-27T10:36:04.811Z</time></trkpt><trkpt lat="39.45297326032422" lon="8.479806734903104"><ele>35.66666666666667</ele><time>2026-04-27T10:36:05.811Z</time></trkpt><trkpt lat="39.45291319916382" lon="8.479901371065106"><ele>34.833333333333336</ele><time>2026-04-27T10:36:06.811Z</time></trkpt><trkpt lat="39.45287420668375" lon="8.480020023837115"><ele>34.0</ele><time>2026-04-27T10:36:07.81Z</time></trkpt><trkpt lat="39.452837439221184" lon="8.48013898943058"><ele>34.0</ele><time>2026-04-27T10:36:08.81Z</time></trkpt><trkpt lat="39.45279994025593" lon="8.48026540296797"><ele>34.0</ele><time>2026-04-27T10:36:09.81Z</time></trkpt><trkpt lat="39.452761078455474" lon="8.480397327428317"><ele>34.0</ele><time>2026-04-27T10:36:10.81Z</time></trkpt><trkpt lat="39.45272230366456" lon="8.480532551745586"><ele>34.0</ele><time>2026-04-27T10:36:11.81Z</time></trkpt><trkpt lat="39.45268275625014" lon="8.480670470527386"><ele>34.0</ele><time>2026-04-27T10:36:12.81Z</time></trkpt><trkpt lat="39.45265366696955" lon="8.480813308431996"><ele>35.75</ele><time>2026-04-27T10:36:13.81Z</time></trkpt><trkpt lat="39.45261187107312" lon="8.480955025069472"><ele>37.5</ele><time>2026-04-27T10:36:14.81Z</time></trkpt><trkpt lat="39.45256855329179" lon="8.481103471676157"><ele>39.25</ele><time>2026-04-27T10:36:15.81Z</time></trkpt><trkpt lat="39.452506208088494" lon="8.481241871716975"><ele>41.0</ele><time>2026-04-27T10:36:16.81Z</time></trkpt><trkpt lat="39.452457843016475" lon="8.481391211193868"><ele>44.0</ele><time>2026-04-27T10:36:17.81Z</time></trkpt><trkpt lat="39.452397102383905" lon="8.481529572596637"><ele>47.0</ele><time>2026-04-27T10:36:18.81Z</time></trkpt><trkpt lat="39.45232456893646" lon="8.48167186299637"><ele>50.0</ele><time>2026-04-27T10:36:19.81Z</time></trkpt><trkpt lat="39.452264723100775" lon="8.481821086049882"><ele>53.0</ele><time>2026-04-27T10:36:20.81Z</time></trkpt><trkpt lat="39.45219770562291" lon="8.481976840783382"><ele>50.25</ele><time>2026-04-27T10:36:21.81Z</time></trkpt><trkpt lat="39.452127793721246" lon="8.482135678841324"><ele>47.5</ele><time>2026-04-27T10:36:22.81Z</time></trkpt><trkpt lat="39.452050621916555" lon="8.482286005811659"><ele>44.75</ele><time>2026-04-27T10:36:23.81Z</time></trkpt><trkpt lat="39.451952587776844" lon="8.482415935970705"><ele>42.0</ele><time>2026-04-27T10:36:24.81Z</time></trkpt><trkpt lat="39.45185052072012" lon="8.482553797250553"><ele>42.0</ele><time>2026-04-27T10:36:25.81Z</time></trkpt><trkpt lat="39.451747140975755" lon="8.4826777006398"><ele>42.0</ele><time>2026-04-27T10:36:26.81Z</time></trkpt><trkpt lat="39.45164253713617" lon="8.482807588039293"><ele>42.0</ele><time>2026-04-27T10:36:27.81Z</time></trkpt><trkpt lat="39.451540491812096" lon="8.482942860073518"><ele>42.0</ele><time>2026-04-27T10:36:28.81Z</time></trkpt><trkpt lat="39.45141406112712" lon="8.483055099941172"><ele>42.75</ele><time>2026-04-27T10:36:29.81Z</time></trkpt><trkpt lat="39.45130146467276" lon="8.48315875789406"><ele>43.5</ele><time>2026-04-27T10:36:30.81Z</time></trkpt><trkpt lat="39.45116925280125" lon="8.483210790019127"><ele>44.25</ele><time>2026-04-27T10:36:31.81Z</time></trkpt><trkpt lat="39.45103022286621" lon="8.483206188728209"><ele>45.0</ele><time>2026-04-27T10:36:32.81Z</time></trkpt><trkpt lat="39.4508857065567" lon="8.483218839258997"><ele>45.0</ele><time>2026-04-27T10:36:33.81Z</time></trkpt><trkpt lat="39.45073672026961" lon="8.483193197957524"><ele>45.0</ele><time>2026-04-27T10:36:34.81Z</time></trkpt><trkpt lat="39.45057807747212" lon="8.48318486120728"><ele>45.0</ele><time>2026-04-27T10:36:35.81Z</time></trkpt><trkpt lat="39.45046615995278" lon="8.483178981376403"><ele>45.0</ele><time>2026-04-27T10:36:36.81Z</time></trkpt><trkpt lat="39.45030826446831" lon="8.483170683879234"><ele>44.333333333333336</ele><time>2026-04-27T10:36:37.81Z</time></trkpt><trkpt lat="39.45014783199866" lon="8.483162253113536"><ele>43.66666666666667</ele><time>2026-04-27T10:36:38.81Z</time></trkpt><trkpt lat="39.44998644807264" lon="8.483153772251905"><ele>43.0</ele><time>2026-04-27T10:36:39.81Z</time></trkpt><trkpt lat="39.44981910520917" lon="8.483145108022162"><ele>43.0</ele><time>2026-04-27T10:36:40.81Z</time></trkpt><trkpt lat="39.449649705439974" lon="8.483136087078373"><ele>43.0</ele><time>2026-04-27T10:36:41.81Z</time></trkpt><trkpt lat="39.44949324379851" lon="8.483118655642391"><ele>43.0</ele><time>2026-04-27T10:36:42.81Z</time></trkpt><trkpt lat="39.44933002296578" lon="8.483093846142859"><ele>43.333333333333336</ele><time>2026-04-27T10:36:43.81Z</time></trkpt><trkpt lat="39.44915812738465" lon="8.483071355986496"><ele>43.666666666666664</ele><time>2026-04-27T10:36:44.81Z</time></trkpt><trkpt lat="39.44897954971705" lon="8.483047435885824"><ele>44.0</ele><time>2026-04-27T10:36:45.81Z</time></trkpt><trkpt lat="39.44879952190783" lon="8.483021994169516"><ele>45.33333333333333</ele><time>2026-04-27T10:36:46.81Z</time></trkpt><trkpt lat="39.448616002385734" lon="8.483017011362579"><ele>46.666666666666664</ele><time>2026-04-27T10:36:47.81Z</time></trkpt><trkpt lat="39.44843402510212" lon="8.482996788361868"><ele>48.0</ele><time>2026-04-27T10:36:48.81Z</time></trkpt><trkpt lat="39.44825444541633" lon="8.4829681190008"><ele>48.0</ele><time>2026-04-27T10:36:49.81Z</time></trkpt><trkpt lat="39.4480738252201" lon="8.482985582680133"><ele>48.0</ele><time>2026-04-27T10:36:50.81Z</time></trkpt><trkpt lat="39.447894218959355" lon="8.483001939825716"><ele>48.0</ele><time>2026-04-27T10:36:51.81Z</time></trkpt><trkpt lat="39.44771266637241" lon="8.48302555529108"><ele>48.66666666666667</ele><time>2026-04-27T10:36:52.81Z</time></trkpt><trkpt lat="39.44753131832355" lon="8.483054010672747"><ele>49.333333333333336</ele><time>2026-04-27T10:36:53.81Z</time></trkpt><trkpt lat="39.447350820595915" lon="8.483058953567328"><ele>50.0</ele><time>2026-04-27T10:36:54.81Z</time></trkpt><trkpt lat="39.447174306832" lon="8.483090682945534"><ele>48.333333333333336</ele><time>2026-04-27T10:36:55.81Z</time></trkpt><trkpt lat="39.4470014295597" lon="8.483137433004417"><ele>46.66666666666667</ele><time>2026-04-27T10:36:56.81Z</time></trkpt><trkpt lat="39.446841784169294" lon="8.48322061907266"><ele>45.0</ele><time>2026-04-27T10:36:57.81Z</time></trkpt><trkpt lat="39.44668879523932" lon="8.48333571427168"><ele>45.0</ele><time>2026-04-27T10:36:58.81Z</time></trkpt><trkpt lat="39.44655261072748" lon="8.48348823940681"><ele>45.0</ele><time>2026-04-27T10:36:59.809Z</time></trkpt><trkpt lat="39.4464567357053" lon="8.483666077804845"><ele>45.0</ele><time>2026-04-27T10:37:00.809Z</time></trkpt><trkpt lat="39.44638568595574" lon="8.483866542027844"><ele>44.666666666666664</ele><time>2026-04-27T10:37:01.809Z</time></trkpt><trkpt lat="39.44628188172338" lon="8.484037408337104"><ele>44.33333333333333</ele><time>2026-04-27T10:37:02.809Z</time></trkpt><trkpt lat="39.44615347169545" lon="8.484207207742026"><ele>44.0</ele><time>2026-04-27T10:37:03.809Z</time></trkpt><trkpt lat="39.446009304809394" lon="8.484351697174942"><ele>44.0</ele><time>2026-04-27T10:37:04.809Z</time></trkpt><trkpt lat="39.445864695372805" lon="8.484502727115128"><ele>44.0</ele><time>2026-04-27T10:37:05.809Z</time></trkpt><trkpt lat="39.4457239354065" lon="8.484649736632436"><ele>44.0</ele><time>2026-04-27T10:37:06.809Z</time></trkpt><trkpt lat="39.445597265294175" lon="8.484807510340481"><ele>44.666666666666664</ele><time>2026-04-27T10:37:07.809Z</time></trkpt><trkpt lat="39.445444204598246" lon="8.48494077594382"><ele>45.333333333333336</ele><time>2026-04-27T10:37:08.809Z</time></trkpt><trkpt lat="39.44530425834501" lon="8.48508698964829"><ele>46.0</ele><time>2026-04-27T10:37:09.809Z</time></trkpt><trkpt lat="39.44516422455421" lon="8.485233920520258"><ele>46.0</ele><time>2026-04-27T10:37:10.809Z</time></trkpt><trkpt lat="39.44502167786431" lon="8.485384792950754"><ele>46.0</ele><time>2026-04-27T10:37:11.809Z</time></trkpt><trkpt lat="39.4448868525042" lon="8.485541848009754"><ele>46.0</ele><time>2026-04-27T10:37:12.809Z</time></trkpt><trkpt lat="39.44477074098621" lon="8.485737750650872"><ele>45.66666666666667</ele><time>2026-04-27T10:37:13.809Z</time></trkpt><trkpt lat="39.444657232303456" lon="8.485931062739589"><ele>45.333333333333336</ele><time>2026-04-27T10:37:14.809Z</time></trkpt><trkpt lat="39.44453633542538" lon="8.486124820911137"><ele>45.0</ele><time>2026-04-27T10:37:15.809Z</time></trkpt><trkpt lat="39.444425552731495" lon="8.486323358869372"><ele>45.666666666666664</ele><time>2026-04-27T10:37:16.809Z</time></trkpt><trkpt lat="39.44431395703812" lon="8.48651559507046"><ele>46.33333333333333</ele><time>2026-04-27T10:37:17.809Z</time></trkpt><trkpt lat="39.444203633920274" lon="8.486706139183827"><ele>47.0</ele><time>2026-04-27T10:37:18.809Z</time></trkpt><trkpt lat="39.44408810938189" lon="8.486903434288134"><ele>47.33333333333333</ele><time>2026-04-27T10:37:19.809Z</time></trkpt><trkpt lat="39.443972968308344" lon="8.487101288318703"><ele>47.666666666666664</ele><time>2026-04-27T10:37:20.809Z</time></trkpt><trkpt lat="39.44386012065946" lon="8.487299213206665"><ele>48.0</ele><time>2026-04-27T10:37:21.81Z</time></trkpt><trkpt lat="39.443746833037935" lon="8.487495612443627"><ele>48.0</ele><time>2026-04-27T10:37:22.81Z</time></trkpt><trkpt lat="39.44363435557805" lon="8.48768355778444"><ele>48.0</ele><time>2026-04-27T10:37:23.81Z</time></trkpt><trkpt lat="39.443496024852784" lon="8.487833920800412"><ele>48.0</ele><time>2026-04-27T10:37:24.81Z</time></trkpt><trkpt lat="39.44338278704514" lon="8.488000840286453"><ele>49.33333333333333</ele><time>2026-04-27T10:37:25.809Z</time></trkpt><trkpt lat="39.44325558974916" lon="8.48814703703917"><ele>50.666666666666664</ele><time>2026-04-27T10:37:26.809Z</time></trkpt><trkpt lat="39.443130055722534" lon="8.488278339775178"><ele>52.0</ele><time>2026-04-27T10:37:27.81Z</time></trkpt><trkpt lat="39.44300933340231" lon="8.4884268943892"><ele>52.0</ele><time>2026-04-27T10:37:28.81Z</time></trkpt><trkpt lat="39.44289784034542" lon="8.48857024758158"><ele>52.0</ele><time>2026-04-27T10:37:29.81Z</time></trkpt><trkpt lat="39.44279247369569" lon="8.488725260815333"><ele>52.0</ele><time>2026-04-27T10:37:30.81Z</time></trkpt><trkpt lat="39.44270765209754" lon="8.488892935124982"><ele>52.0</ele><time>2026-04-27T10:37:31.81Z</time></trkpt><trkpt lat="39.44261965877831" lon="8.489053780672972"><ele>52.0</ele><time>2026-04-27T10:37:32.81Z</time></trkpt><trkpt lat="39.44253466130904" lon="8.489213037390913"><ele>52.0</ele><time>2026-04-27T10:37:33.81Z</time></trkpt><trkpt lat="39.44244930287028" lon="8.489369366583631"><ele>52.0</ele><time>2026-04-27T10:37:34.809Z</time></trkpt><trkpt lat="39.44236498650696" lon="8.489535674945994"><ele>52.0</ele><time>2026-04-27T10:37:35.809Z</time></trkpt><trkpt lat="39.44226211051666" lon="8.48968677816556"><ele>52.0</ele><time>2026-04-27T10:37:36.809Z</time></trkpt><trkpt lat="39.44217634747993" lon="8.48984080310315"><ele>52.25</ele><time>2026-04-27T10:37:37.809Z</time></trkpt><trkpt lat="39.442087003906714" lon="8.48999052937917"><ele>52.5</ele><time>2026-04-27T10:37:38.809Z</time></trkpt><trkpt lat="39.44199878042109" lon="8.490141343120989"><ele>52.75</ele><time>2026-04-27T10:37:39.809Z</time></trkpt><trkpt lat="39.44190983105578" lon="8.490288347481973"><ele>53.0</ele><time>2026-04-27T10:37:40.809Z</time></trkpt><trkpt lat="39.44182364558473" lon="8.490436578315938"><ele>54.0</ele><time>2026-04-27T10:37:41.809Z</time></trkpt><trkpt lat="39.44173006451513" lon="8.490577704913665"><ele>55.0</ele><time>2026-04-27T10:37:42.809Z</time></trkpt><trkpt lat="39.44162224376931" lon="8.490682347436385"><ele>56.0</ele><time>2026-04-27T10:37:43.809Z</time></trkpt><trkpt lat="39.4415207900038" lon="8.490788308464207"><ele>57.0</ele><time>2026-04-27T10:37:44.809Z</time></trkpt><trkpt lat="39.44141894951203" lon="8.49090435084208"><ele>56.5</ele><time>2026-04-27T10:37:45.809Z</time></trkpt><trkpt lat="39.44129563110598" lon="8.490992674298719"><ele>56.0</ele><time>2026-04-27T10:37:46.809Z</time></trkpt><trkpt lat="39.4411849545802" lon="8.491097446383165"><ele>55.5</ele><time>2026-04-27T10:37:47.809Z</time></trkpt><trkpt lat="39.44106902939002" lon="8.49120356368058"><ele>55.0</ele><time>2026-04-27T10:37:48.809Z</time></trkpt><trkpt lat="39.440956543209715" lon="8.491311339796543"><ele>55.0</ele><time>2026-04-27T10:37:49.809Z</time></trkpt><trkpt lat="39.44084106075473" lon="8.491426641953707"><ele>55.0</ele><time>2026-04-27T10:37:50.809Z</time></trkpt><trkpt lat="39.44073316551128" lon="8.49154635784441"><ele>55.0</ele><time>2026-04-27T10:37:51.809Z</time></trkpt><trkpt lat="39.44063493968479" lon="8.491673429563273"><ele>55.0</ele><time>2026-04-27T10:37:52.809Z</time></trkpt><trkpt lat="39.44054556004209" lon="8.491816543566255"><ele>55.0</ele><time>2026-04-27T10:37:53.809Z</time></trkpt><trkpt lat="39.44045538640298" lon="8.491952599540962"><ele>55.0</ele><time>2026-04-27T10:37:54.809Z</time></trkpt><trkpt lat="39.44036827317333" lon="8.492087276732732"><ele>55.0</ele><time>2026-04-27T10:37:55.809Z</time></trkpt><trkpt lat="39.440284187104446" lon="8.492225483407584"><ele>55.0</ele><time>2026-04-27T10:37:56.809Z</time></trkpt><trkpt lat="39.44018746949428" lon="8.492346421246431"><ele>55.0</ele><time>2026-04-27T10:37:57.809Z</time></trkpt><trkpt lat="39.44010220086307" lon="8.492480606422086"><ele>55.0</ele><time>2026-04-27T10:37:58.809Z</time></trkpt><trkpt lat="39.44001080054713" lon="8.492611084836547"><ele>55.0</ele><time>2026-04-27T10:37:59.809Z</time></trkpt><trkpt lat="39.439933982703494" lon="8.49274870900187"><ele>55.0</ele><time>2026-04-27T10:38:00.809Z</time></trkpt><trkpt lat="39.43985013439162" lon="8.492877434267294"><ele>55.5</ele><time>2026-04-27T10:38:01.809Z</time></trkpt><trkpt lat="39.439743505324195" lon="8.492992118811877"><ele>56.0</ele><time>2026-04-27T10:38:02.809Z</time></trkpt><trkpt lat="39.43966221031719" lon="8.493129737279489"><ele>56.5</ele><time>2026-04-27T10:38:03.809Z</time></trkpt><trkpt lat="39.43958382906196" lon="8.493268404110514"><ele>57.0</ele><time>2026-04-27T10:38:04.809Z</time></trkpt><trkpt lat="39.43951085898021" lon="8.493395758215069"><ele>57.0</ele><time>2026-04-27T10:38:05.809Z</time></trkpt><trkpt lat="39.43943114639741" lon="8.493529586897893"><ele>57.0</ele><time>2026-04-27T10:38:06.809Z</time></trkpt><trkpt lat="39.439358466982185" lon="8.493658437545244"><ele>57.0</ele><time>2026-04-27T10:38:07.809Z</time></trkpt><trkpt lat="39.43928419547128" lon="8.493787192483724"><ele>57.0</ele><time>2026-04-27T10:38:08.809Z</time></trkpt><trkpt lat="39.43921417798828" lon="8.493901179917325"><ele>57.0</ele><time>2026-04-27T10:38:09.809Z</time></trkpt><trkpt lat="39.4391445107128" lon="8.494001119634392"><ele>57.0</ele><time>2026-04-27T10:38:10.809Z</time></trkpt><trkpt lat="39.43908327933845" lon="8.494090053740022"><ele>57.0</ele><time>2026-04-27T10:38:11.809Z</time></trkpt><trkpt lat="39.43903674022723" lon="8.494166724215352"><ele>57.0</ele><time>2026-04-27T10:38:12.808Z</time></trkpt><trkpt lat="39.4389868138819" lon="8.494222901612034"><ele>57.0</ele><time>2026-04-27T10:38:13.808Z</time></trkpt><trkpt lat="39.438916268942094" lon="8.494179986812588"><ele>57.0</ele><time>2026-04-27T10:38:15.808Z</time></trkpt><trkpt lat="39.43883055046692" lon="8.494038862634788"><ele>56.833333333333336</ele><time>2026-04-27T10:38:16.808Z</time></trkpt><trkpt lat="39.43878288243721" lon="8.493951274603818"><ele>56.66666666666667</ele><time>2026-04-27T10:38:17.808Z</time></trkpt><trkpt lat="39.438727586875444" lon="8.493872799452632"><ele>56.5</ele><time>2026-04-27T10:38:18.808Z</time></trkpt><trkpt lat="39.4386635941133" lon="8.493798867928692"><ele>56.333333333333336</ele><time>2026-04-27T10:38:19.808Z</time></trkpt><trkpt lat="39.43861916600003" lon="8.493712349168913"><ele>56.16666666666667</ele><time>2026-04-27T10:38:20.808Z</time></trkpt><trkpt lat="39.43857411362107" lon="8.493637647601181"><ele>56.0</ele><time>2026-04-27T10:38:21.808Z</time></trkpt><trkpt lat="39.43852604358561" lon="8.49357426719174"><ele>56.00000000000001</ele><time>2026-04-27T10:38:22.808Z</time></trkpt><trkpt lat="39.43846758406827" lon="8.493521322466718"><ele>56.0</ele><time>2026-04-27T10:38:23.808Z</time></trkpt><trkpt lat="39.43839395476735" lon="8.493495028957799"><ele>56.0</ele><time>2026-04-27T10:38:24.808Z</time></trkpt><trkpt lat="39.43830085820384" lon="8.493549760953918"><ele>56.0</ele><time>2026-04-27T10:38:25.808Z</time></trkpt><trkpt lat="39.43822115448199" lon="8.493611373753602"><ele>56.00000000000001</ele><time>2026-04-27T10:38:26.808Z</time></trkpt><trkpt lat="39.43814251492432" lon="8.493672602569609"><ele>56.0</ele><time>2026-04-27T10:38:27.808Z</time></trkpt><trkpt lat="39.438075054676986" lon="8.49373945635531"><ele>55.8</ele><time>2026-04-27T10:38:28.808Z</time></trkpt><trkpt lat="39.438013414221736" lon="8.493821657459304"><ele>55.599999999999994</ele><time>2026-04-27T10:38:29.808Z</time></trkpt><trkpt lat="39.43796286478015" lon="8.493916515204189"><ele>55.4</ele><time>2026-04-27T10:38:30.808Z</time></trkpt><trkpt lat="39.437907942288035" lon="8.494016633073004"><ele>55.2</ele><time>2026-04-27T10:38:31.808Z</time></trkpt><trkpt lat="39.43785467847262" lon="8.494119187818093"><ele>55.0</ele><time>2026-04-27T10:38:32.808Z</time></trkpt><trkpt lat="39.43779820132479" lon="8.494216368427622"><ele>55.6</ele><time>2026-04-27T10:38:33.808Z</time></trkpt><trkpt lat="39.43773535291942" lon="8.494315169231527"><ele>56.2</ele><time>2026-04-27T10:38:34.808Z</time></trkpt><trkpt lat="39.43767185503309" lon="8.49441238852191"><ele>56.8</ele><time>2026-04-27T10:38:35.808Z</time></trkpt><trkpt lat="39.437612892042864" lon="8.494507601545141"><ele>57.4</ele><time>2026-04-27T10:38:36.808Z</time></trkpt><trkpt lat="39.43754620118245" lon="8.494597176625648"><ele>58.0</ele><time>2026-04-27T10:38:37.808Z</time></trkpt><trkpt lat="39.43747292519549" lon="8.49468917453535"><ele>58.0</ele><time>2026-04-27T10:38:38.808Z</time></trkpt><trkpt lat="39.437405942989315" lon="8.494787295121505"><ele>58.0</ele><time>2026-04-27T10:38:39.808Z</time></trkpt><trkpt lat="39.437357753633854" lon="8.494903609922627"><ele>58.0</ele><time>2026-04-27T10:38:40.808Z</time></trkpt><trkpt lat="39.43733446449468" lon="8.495029683293115"><ele>58.0</ele><time>2026-04-27T10:38:41.808Z</time></trkpt><trkpt lat="39.43733815381793" lon="8.495154985499783"><ele>58.0</ele><time>2026-04-27T10:38:42.808Z</time></trkpt><trkpt lat="39.43735488543719" lon="8.495278733112576"><ele>58.0</ele><time>2026-04-27T10:38:43.808Z</time></trkpt><trkpt lat="39.43737287038518" lon="8.495399210938476"><ele>58.0</ele><time>2026-04-27T10:38:44.808Z</time></trkpt><trkpt lat="39.43737477722629" lon="8.495518268924556"><ele>58.0</ele><time>2026-04-27T10:38:45.808Z</time></trkpt><trkpt lat="39.43736387379652" lon="8.495637645264415"><ele>58.0</ele><time>2026-04-27T10:38:46.808Z</time></trkpt><trkpt lat="39.43733353111016" lon="8.495761191422298"><ele>58.0</ele><time>2026-04-27T10:38:47.808Z</time></trkpt><trkpt lat="39.43730119072865" lon="8.495887374671439"><ele>58.4</ele><time>2026-04-27T10:38:48.808Z</time></trkpt><trkpt lat="39.43727167379307" lon="8.496002366233652"><ele>58.8</ele><time>2026-04-27T10:38:49.808Z</time></trkpt><trkpt lat="39.43723520532569" lon="8.496129188031224"><ele>59.2</ele><time>2026-04-27T10:38:50.808Z</time></trkpt><trkpt lat="39.43718663291586" lon="8.49624509821129"><ele>59.6</ele><time>2026-04-27T10:38:51.808Z</time></trkpt><trkpt lat="39.43712650291412" lon="8.496349831626862"><ele>60.0</ele><time>2026-04-27T10:38:52.808Z</time></trkpt><trkpt lat="39.4370592069115" lon="8.496449639347272"><ele>60.0</ele><time>2026-04-27T10:38:53.808Z</time></trkpt><trkpt lat="39.436977872754696" lon="8.496526740137124"><ele>60.0</ele><time>2026-04-27T10:38:54.808Z</time></trkpt><trkpt lat="39.43689100718733" lon="8.496595837677031"><ele>60.0</ele><time>2026-04-27T10:38:55.808Z</time></trkpt><trkpt lat="39.43680476511293" lon="8.496660935423312"><ele>60.0</ele><time>2026-04-27T10:38:56.808Z</time></trkpt><trkpt lat="39.43671034327289" lon="8.496714361445814"><ele>60.0</ele><time>2026-04-27T10:38:57.808Z</time></trkpt><trkpt lat="39.43662320032019" lon="8.496778172318251"><ele>60.0</ele><time>2026-04-27T10:38:58.808Z</time></trkpt><trkpt lat="39.43653876637152" lon="8.496850411942475"><ele>60.0</ele><time>2026-04-27T10:38:59.808Z</time></trkpt><trkpt lat="39.43645577762819" lon="8.496913705119988"><ele>60.0</ele><time>2026-04-27T10:39:00.808Z</time></trkpt><trkpt lat="39.436381234488145" lon="8.496997642610928"><ele>60.0</ele><time>2026-04-27T10:39:01.808Z</time></trkpt><trkpt lat="39.43631934101676" lon="8.497094096389688"><ele>60.0</ele><time>2026-04-27T10:39:02.808Z</time></trkpt><trkpt lat="39.43625796388259" lon="8.49719158354097"><ele>60.6</ele><time>2026-04-27T10:39:03.808Z</time></trkpt><trkpt lat="39.436200941227085" lon="8.49729196969509"><ele>61.2</ele><time>2026-04-27T10:39:04.808Z</time></trkpt><trkpt lat="39.436155457783684" lon="8.497394255352477"><ele>61.8</ele><time>2026-04-27T10:39:05.807Z</time></trkpt><trkpt lat="39.436106821270286" lon="8.49749544021043"><ele>62.4</ele><time>2026-04-27T10:39:06.807Z</time></trkpt><trkpt lat="39.43605538683844" lon="8.497592377674279"><ele>63.0</ele><time>2026-04-27T10:39:07.807Z</time></trkpt><trkpt lat="39.43599621809914" lon="8.49769448014707"><ele>63.0</ele><time>2026-04-27T10:39:08.807Z</time></trkpt><trkpt lat="39.435931345666866" lon="8.497793443394437"><ele>63.0</ele><time>2026-04-27T10:39:09.807Z</time></trkpt><trkpt lat="39.43585975407211" lon="8.49789444942115"><ele>63.0</ele><time>2026-04-27T10:39:10.807Z</time></trkpt><trkpt lat="39.435793226097765" lon="8.497995467195823"><ele>63.0</ele><time>2026-04-27T10:39:11.807Z</time></trkpt><trkpt lat="39.43572218084039" lon="8.498097894500736"><ele>63.0</ele><time>2026-04-27T10:39:12.807Z</time></trkpt><trkpt lat="39.43565690789938" lon="8.498195522504949"><ele>62.666666666666664</ele><time>2026-04-27T10:39:13.807Z</time></trkpt><trkpt lat="39.43558727710256" lon="8.498290725527646"><ele>62.33333333333333</ele><time>2026-04-27T10:39:14.807Z</time></trkpt><trkpt lat="39.4355042308639" lon="8.498375829480798"><ele>62.0</ele><time>2026-04-27T10:39:15.807Z</time></trkpt><trkpt lat="39.43543359382303" lon="8.498458651762741"><ele>61.666666666666664</ele><time>2026-04-27T10:39:16.807Z</time></trkpt><trkpt lat="39.43537566958448" lon="8.498526223631124"><ele>61.33333333333333</ele><time>2026-04-27T10:39:17.807Z</time></trkpt><trkpt lat="39.43532964621351" lon="8.498583586340487"><ele>61.0</ele><time>2026-04-27T10:39:18.807Z</time></trkpt><trkpt lat="39.43538054708448" lon="8.498736892955979"><ele>61.4</ele><time>2026-04-27T10:39:20.807Z</time></trkpt><trkpt lat="39.435440852559275" lon="8.498779085062035"><ele>61.8</ele><time>2026-04-27T10:39:21.807Z</time></trkpt><trkpt lat="39.43552943987815" lon="8.498885362535527"><ele>62.199999999999996</ele><time>2026-04-27T10:39:23.807Z</time></trkpt><trkpt lat="39.4355914106958" lon="8.499009229390689"><ele>62.599999999999994</ele><time>2026-04-27T10:39:25.807Z</time></trkpt><trkpt lat="39.43563864829094" lon="8.499124943565878"><ele>63.0</ele><time>2026-04-27T10:39:27.808Z</time></trkpt><trkpt lat="39.43561084065708" lon="8.499255950604512"><ele>63.0</ele><time>2026-04-27T10:39:30.809Z</time></trkpt><trkpt lat="39.4355631290304" lon="8.49932491205673"><ele>63.0</ele><time>2026-04-27T10:39:31.808Z</time></trkpt><trkpt lat="39.43551707700956" lon="8.499398959702882"><ele>63.0</ele><time>2026-04-27T10:39:32.808Z</time></trkpt><trkpt lat="39.43545207998002" lon="8.499476314147731"><ele>63.0</ele><time>2026-04-27T10:39:33.809Z</time></trkpt><trkpt lat="39.435385651239656" lon="8.49954759942369"><ele>63.0</ele><time>2026-04-27T10:39:34.808Z</time></trkpt><trkpt lat="39.43531002207236" lon="8.499615077268757"><ele>63.0</ele><time>2026-04-27T10:39:35.808Z</time></trkpt><trkpt lat="39.4352457737985" lon="8.499702092718705"><ele>63.0</ele><time>2026-04-27T10:39:36.808Z</time></trkpt><trkpt lat="39.435176420143534" lon="8.499789005993472"><ele>63.0</ele><time>2026-04-27T10:39:37.808Z</time></trkpt><trkpt lat="39.435092914653154" lon="8.499858307524873"><ele>63.0</ele><time>2026-04-27T10:39:38.808Z</time></trkpt><trkpt lat="39.43501950250431" lon="8.499946050196314"><ele>63.0</ele><time>2026-04-27T10:39:39.808Z</time></trkpt><trkpt lat="39.43495669758559" lon="8.500044968313636"><ele>63.0</ele><time>2026-04-27T10:39:40.808Z</time></trkpt><trkpt lat="39.43487696014901" lon="8.500113948827996"><ele>63.0</ele><time>2026-04-27T10:39:41.808Z</time></trkpt><trkpt lat="39.43478702352325" lon="8.500144650823284"><ele>63.0</ele><time>2026-04-27T10:39:42.808Z</time></trkpt><trkpt lat="39.43469330220145" lon="8.500134427858526"><ele>63.0</ele><time>2026-04-27T10:39:43.808Z</time></trkpt><trkpt lat="39.43459593851478" lon="8.500125619024471"><ele>63.0</ele><time>2026-04-27T10:39:44.808Z</time></trkpt><trkpt lat="39.434499640978935" lon="8.500081934479583"><ele>63.0</ele><time>2026-04-27T10:39:45.808Z</time></trkpt><trkpt lat="39.434401226946214" lon="8.500055913976107"><ele>63.4</ele><time>2026-04-27T10:39:46.808Z</time></trkpt><trkpt lat="39.43430449850703" lon="8.500031397247403"><ele>63.8</ele><time>2026-04-27T10:39:47.808Z</time></trkpt><trkpt lat="39.43420230515365" lon="8.500007701897799"><ele>64.2</ele><time>2026-04-27T10:39:48.808Z</time></trkpt><trkpt lat="39.43410680413002" lon="8.499992034873138"><ele>64.6</ele><time>2026-04-27T10:39:49.808Z</time></trkpt><trkpt lat="39.43400218786573" lon="8.500017434171298"><ele>65.0</ele><time>2026-04-27T10:39:50.808Z</time></trkpt><trkpt lat="39.43391279533599" lon="8.500064646212092"><ele>65.0</ele><time>2026-04-27T10:39:51.808Z</time></trkpt><trkpt lat="39.433832410313336" lon="8.500135914442382"><ele>65.0</ele><time>2026-04-27T10:39:52.808Z</time></trkpt><trkpt lat="39.43375515529544" lon="8.500216238995009"><ele>65.0</ele><time>2026-04-27T10:39:53.808Z</time></trkpt><trkpt lat="39.433672880416665" lon="8.500290899087194"><ele>65.0</ele><time>2026-04-27T10:39:54.808Z</time></trkpt><trkpt lat="39.433586171107926" lon="8.500360925435396"><ele>65.0</ele><time>2026-04-27T10:39:55.808Z</time></trkpt><trkpt lat="39.433526625267774" lon="8.500450408974949"><ele>65.4</ele><time>2026-04-27T10:39:56.808Z</time></trkpt><trkpt lat="39.433474621898036" lon="8.500564558453117"><ele>65.8</ele><time>2026-04-27T10:39:57.808Z</time></trkpt><trkpt lat="39.433437064911246" lon="8.500673718837456"><ele>66.2</ele><time>2026-04-27T10:39:58.808Z</time></trkpt><trkpt lat="39.433392213770055" lon="8.500790501327907"><ele>66.6</ele><time>2026-04-27T10:39:59.808Z</time></trkpt><trkpt lat="39.433341711666" lon="8.50090962285017"><ele>67.0</ele><time>2026-04-27T10:40:00.808Z</time></trkpt><trkpt lat="39.43329153167705" lon="8.50102176712854"><ele>67.0</ele><time>2026-04-27T10:40:01.808Z</time></trkpt><trkpt lat="39.43322300708589" lon="8.501105657796089"><ele>67.0</ele><time>2026-04-27T10:40:02.808Z</time></trkpt><trkpt lat="39.43314484053274" lon="8.50115584514427"><ele>67.0</ele><time>2026-04-27T10:40:03.808Z</time></trkpt><trkpt lat="39.433054256344505" lon="8.501179648400925"><ele>67.0</ele><time>2026-04-27T10:40:04.808Z</time></trkpt><trkpt lat="39.4329614522319" lon="8.50117067964629"><ele>67.0</ele><time>2026-04-27T10:40:05.808Z</time></trkpt><trkpt lat="39.43288800906355" lon="8.501082542335949"><ele>67.8</ele><time>2026-04-27T10:40:06.808Z</time></trkpt><trkpt lat="39.43279647114264" lon="8.501029559648979"><ele>68.6</ele><time>2026-04-27T10:40:07.808Z</time></trkpt><trkpt lat="39.432709270943164" lon="8.500967360806138"><ele>69.39999999999999</ele><time>2026-04-27T10:40:08.808Z</time></trkpt><trkpt lat="39.432623489334574" lon="8.500886596304476"><ele>70.2</ele><time>2026-04-27T10:40:09.808Z</time></trkpt><trkpt lat="39.43252984011776" lon="8.500812534005291"><ele>71.0</ele><time>2026-04-27T10:40:10.808Z</time></trkpt><trkpt lat="39.43243851697405" lon="8.50075435756318"><ele>71.0</ele><time>2026-04-27T10:40:11.808Z</time></trkpt><trkpt lat="39.432343070226764" lon="8.50071130890051"><ele>71.0</ele><time>2026-04-27T10:40:12.808Z</time></trkpt><trkpt lat="39.43224666175482" lon="8.500667354099434"><ele>71.0</ele><time>2026-04-27T10:40:13.807Z</time></trkpt><trkpt lat="39.43214130188522" lon="8.500616857567598"><ele>71.0</ele><time>2026-04-27T10:40:14.807Z</time></trkpt><trkpt lat="39.43203408287938" lon="8.500563254651992"><ele>71.0</ele><time>2026-04-27T10:40:15.807Z</time></trkpt><trkpt lat="39.431927610645005" lon="8.500493616006795"><ele>70.75</ele><time>2026-04-27T10:40:16.807Z</time></trkpt><trkpt lat="39.43180581603823" lon="8.500454043222557"><ele>70.5</ele><time>2026-04-27T10:40:17.807Z</time></trkpt><trkpt lat="39.43168304296895" lon="8.50041681649873"><ele>70.25</ele><time>2026-04-27T10:40:18.807Z</time></trkpt><trkpt lat="39.43155430525632" lon="8.500378302456953"><ele>70.0</ele><time>2026-04-27T10:40:19.807Z</time></trkpt><trkpt lat="39.43142024634427" lon="8.500337360270642"><ele>74.0</ele><time>2026-04-27T10:40:20.807Z</time></trkpt><trkpt lat="39.4312859109381" lon="8.500297396156785"><ele>78.0</ele><time>2026-04-27T10:40:21.807Z</time></trkpt><trkpt lat="39.431155540029444" lon="8.500254721596066"><ele>82.0</ele><time>2026-04-27T10:40:22.807Z</time></trkpt><trkpt lat="39.43101959934278" lon="8.500223465369455"><ele>86.0</ele><time>2026-04-27T10:40:23.807Z</time></trkpt><trkpt lat="39.4308887203233" lon="8.500233612089568"><ele>86.0</ele><time>2026-04-27T10:40:24.807Z</time></trkpt><trkpt lat="39.4307631833909" lon="8.50030611611227"><ele>86.0</ele><time>2026-04-27T10:40:25.807Z</time></trkpt><trkpt lat="39.430647698349745" lon="8.500413351042422"><ele>86.0</ele><time>2026-04-27T10:40:26.807Z</time></trkpt><trkpt lat="39.43054092492289" lon="8.500512950004747"><ele>86.0</ele><time>2026-04-27T10:40:27.807Z</time></trkpt><trkpt lat="39.43040942165456" lon="8.500608438525976"><ele>83.25</ele><time>2026-04-27T10:40:28.807Z</time></trkpt><trkpt lat="39.430276834043255" lon="8.50071956391683"><ele>80.5</ele><time>2026-04-27T10:40:29.807Z</time></trkpt><trkpt lat="39.43015881902311" lon="8.50082690979623"><ele>77.75</ele><time>2026-04-27T10:40:30.807Z</time></trkpt><trkpt lat="39.430088908755984" lon="8.500968689860112"><ele>75.0</ele><time>2026-04-27T10:40:31.807Z</time></trkpt><trkpt lat="39.43006755390243" lon="8.50113071773533"><ele>74.0</ele><time>2026-04-27T10:40:32.807Z</time></trkpt><trkpt lat="39.430098272124276" lon="8.501306607737053"><ele>73.0</ele><time>2026-04-27T10:40:33.807Z</time></trkpt><trkpt lat="39.43011278121688" lon="8.50148105680635"><ele>72.0</ele><time>2026-04-27T10:40:34.807Z</time></trkpt><trkpt lat="39.4300512803779" lon="8.50164115832028"><ele>71.0</ele><time>2026-04-27T10:40:35.807Z</time></trkpt><trkpt lat="39.4299402087851" lon="8.501744616383768"><ele>71.0</ele><time>2026-04-27T10:40:36.807Z</time></trkpt><trkpt lat="39.429794096150154" lon="8.501781549960437"><ele>71.0</ele><time>2026-04-27T10:40:37.807Z</time></trkpt><trkpt lat="39.42964661158949" lon="8.501754269555084"><ele>71.0</ele><time>2026-04-27T10:40:38.807Z</time></trkpt><trkpt lat="39.42948168314903" lon="8.501741593495593"><ele>75.33333333333334</ele><time>2026-04-27T10:40:39.807Z</time></trkpt><trkpt lat="39.42931064703742" lon="8.501803911046284"><ele>79.66666666666667</ele><time>2026-04-27T10:40:40.807Z</time></trkpt><trkpt lat="39.42913806768338" lon="8.501867282717857"><ele>84.0</ele><time>2026-04-27T10:40:41.807Z</time></trkpt><trkpt lat="39.42899517122383" lon="8.501947365649412"><ele>84.0</ele><time>2026-04-27T10:40:42.807Z</time></trkpt><trkpt lat="39.42886298924273" lon="8.502013421700266"><ele>84.0</ele><time>2026-04-27T10:40:43.807Z</time></trkpt><trkpt lat="39.4287228511693" lon="8.50209865467473"><ele>84.0</ele><time>2026-04-27T10:40:44.807Z</time></trkpt><trkpt lat="39.428575348937905" lon="8.502209169596535"><ele>84.33333333333333</ele><time>2026-04-27T10:40:45.807Z</time></trkpt><trkpt lat="39.428419663979234" lon="8.502321101027254"><ele>84.66666666666666</ele><time>2026-04-27T10:40:46.807Z</time></trkpt><trkpt lat="39.42826910956064" lon="8.502426548878061"><ele>85.0</ele><time>2026-04-27T10:40:47.807Z</time></trkpt><trkpt lat="39.42811310198682" lon="8.502525500740534"><ele>93.0</ele><time>2026-04-27T10:40:48.807Z</time></trkpt><trkpt lat="39.42794129368683" lon="8.50261435406281"><ele>101.0</ele><time>2026-04-27T10:40:49.807Z</time></trkpt><trkpt lat="39.42776148878929" lon="8.502665607339301"><ele>109.0</ele><time>2026-04-27T10:40:50.807Z</time></trkpt><trkpt lat="39.42757781073158" lon="8.502687414599722"><ele>109.0</ele><time>2026-04-27T10:40:51.807Z</time></trkpt><trkpt lat="39.427423920137045" lon="8.502729505394885"><ele>109.0</ele><time>2026-04-27T10:40:52.807Z</time></trkpt><trkpt lat="39.42728007157526" lon="8.502821400290298"><ele>109.0</ele><time>2026-04-27T10:40:53.807Z</time></trkpt><trkpt lat="39.42717667095437" lon="8.502957939560803"><ele>105.66666666666667</ele><time>2026-04-27T10:40:54.807Z</time></trkpt><trkpt lat="39.42706345379967" lon="8.5030820742342"><ele>102.33333333333334</ele><time>2026-04-27T10:40:55.807Z</time></trkpt><trkpt lat="39.426962231511574" lon="8.50323834118327"><ele>99.0</ele><time>2026-04-27T10:40:56.807Z</time></trkpt><trkpt lat="39.426831281892326" lon="8.503402776544469"><ele>99.0</ele><time>2026-04-27T10:40:57.807Z</time></trkpt><trkpt lat="39.4266697482387" lon="8.503553905132947"><ele>99.0</ele><time>2026-04-27T10:40:58.807Z</time></trkpt><trkpt lat="39.42651828767977" lon="8.503673341668781"><ele>99.0</ele><time>2026-04-27T10:40:59.807Z</time></trkpt><trkpt lat="39.4263744318918" lon="8.503802499689208"><ele>97.25</ele><time>2026-04-27T10:41:00.807Z</time></trkpt><trkpt lat="39.4262173740028" lon="8.503850886255208"><ele>95.5</ele><time>2026-04-27T10:41:01.807Z</time></trkpt><trkpt lat="39.4261076446812" lon="8.503760775958849"><ele>93.75</ele><time>2026-04-27T10:41:02.807Z</time></trkpt><trkpt lat="39.42606423637743" lon="8.503625979316876"><ele>92.0</ele><time>2026-04-27T10:41:03.807Z</time></trkpt><trkpt lat="39.42602008324086" lon="8.503473876919047"><ele>91.5</ele><time>2026-04-27T10:41:04.807Z</time></trkpt><trkpt lat="39.42596667689117" lon="8.503291381023388"><ele>91.0</ele><time>2026-04-27T10:41:05.807Z</time></trkpt><trkpt lat="39.42591372568801" lon="8.50312821896705"><ele>90.5</ele><time>2026-04-27T10:41:06.806Z</time></trkpt><trkpt lat="39.425884792425904" lon="8.502950997473953"><ele>90.0</ele><time>2026-04-27T10:41:07.806Z</time></trkpt><trkpt lat="39.425889686872104" lon="8.502763130897002"><ele>91.5</ele><time>2026-04-27T10:41:08.806Z</time></trkpt><trkpt lat="39.425918612449905" lon="8.502578883879199"><ele>93.0</ele><time>2026-04-27T10:41:09.806Z</time></trkpt><trkpt lat="39.42595097323052" lon="8.50239117565043"><ele>94.5</ele><time>2026-04-27T10:41:10.806Z</time></trkpt><trkpt lat="39.42598218286501" lon="8.502201177633513"><ele>96.0</ele><time>2026-04-27T10:41:11.806Z</time></trkpt><trkpt lat="39.426013553925856" lon="8.502005773714755"><ele>98.33333333333334</ele><time>2026-04-27T10:41:12.806Z</time></trkpt><trkpt lat="39.426031065343494" lon="8.501807164281798"><ele>100.66666666666667</ele><time>2026-04-27T10:41:13.806Z</time></trkpt><trkpt lat="39.42599696832381" lon="8.501612243309099"><ele>103.0</ele><time>2026-04-27T10:41:14.806Z</time></trkpt><trkpt lat="39.42592633525575" lon="8.501436673333027"><ele>103.0</ele><time>2026-04-27T10:41:15.806Z</time></trkpt><trkpt lat="39.425848834026816" lon="8.501281425795229"><ele>103.0</ele><time>2026-04-27T10:41:16.806Z</time></trkpt><trkpt lat="39.42574277241531" lon="8.501176436951965"><ele>103.0</ele><time>2026-04-27T10:41:17.806Z</time></trkpt><trkpt lat="39.42560564345858" lon="8.501147740064237"><ele>103.0</ele><time>2026-04-27T10:41:18.806Z</time></trkpt><trkpt lat="39.42545448321343" lon="8.501152048104968"><ele>104.0</ele><time>2026-04-27T10:41:19.806Z</time></trkpt><trkpt lat="39.42529930630602" lon="8.501140764092197"><ele>105.0</ele><time>2026-04-27T10:41:20.806Z</time></trkpt><trkpt lat="39.425147377554175" lon="8.50107900868489"><ele>106.0</ele><time>2026-04-27T10:41:21.806Z</time></trkpt><trkpt lat="39.42500720393863" lon="8.500981374357373"><ele>106.0</ele><time>2026-04-27T10:41:22.806Z</time></trkpt><trkpt lat="39.42487664689443" lon="8.500858702826939"><ele>106.0</ele><time>2026-04-27T10:41:23.806Z</time></trkpt><trkpt lat="39.42476282204003" lon="8.50071286223512"><ele>106.0</ele><time>2026-04-27T10:41:24.806Z</time></trkpt><trkpt lat="39.424671634542314" lon="8.500540886275628"><ele>107.33333333333334</ele><time>2026-04-27T10:41:25.806Z</time></trkpt><trkpt lat="39.42458561365282" lon="8.500354405441605"><ele>108.66666666666666</ele><time>2026-04-27T10:41:26.806Z</time></trkpt><trkpt lat="39.42450128069085" lon="8.500179909995582"><ele>110.0</ele><time>2026-04-27T10:41:27.806Z</time></trkpt><trkpt lat="39.42443152675808" lon="8.500024396249527"><ele>110.0</ele><time>2026-04-27T10:41:28.806Z</time></trkpt><trkpt lat="39.424355421391546" lon="8.499918795776562"><ele>110.0</ele><time>2026-04-27T10:41:29.806Z</time></trkpt><trkpt lat="39.42423619856056" lon="8.49990792859557"><ele>110.0</ele><time>2026-04-27T10:41:30.806Z</time></trkpt><trkpt lat="39.42410203977376" lon="8.49999612735889"><ele>110.0</ele><time>2026-04-27T10:41:31.806Z</time></trkpt><trkpt lat="39.42396198175586" lon="8.500122282009194"><ele>110.0</ele><time>2026-04-27T10:41:32.806Z</time></trkpt><trkpt lat="39.42381614972188" lon="8.500220522155606"><ele>110.0</ele><time>2026-04-27T10:41:33.807Z</time></trkpt><trkpt lat="39.42368095868336" lon="8.500323476946555"><ele>110.0</ele><time>2026-04-27T10:41:34.807Z</time></trkpt><trkpt lat="39.42354444834686" lon="8.500415070390758"><ele>108.66666666666666</ele><time>2026-04-27T10:41:35.807Z</time></trkpt><trkpt lat="39.42340329004207" lon="8.500451185016487"><ele>107.33333333333334</ele><time>2026-04-27T10:41:36.807Z</time></trkpt><trkpt lat="39.42324800458864" lon="8.50048481400093"><ele>106.0</ele><time>2026-04-27T10:41:37.806Z</time></trkpt><trkpt lat="39.423090461989204" lon="8.500540386957539"><ele>105.5</ele><time>2026-04-27T10:41:38.806Z</time></trkpt><trkpt lat="39.42294379474024" lon="8.500620006713993"><ele>105.0</ele><time>2026-04-27T10:41:39.806Z</time></trkpt><trkpt lat="39.42280486573151" lon="8.500701281118888"><ele>104.5</ele><time>2026-04-27T10:41:40.806Z</time></trkpt><trkpt lat="39.42268319682331" lon="8.500750288246119"><ele>104.0</ele><time>2026-04-27T10:41:41.806Z</time></trkpt><trkpt lat="39.42257268715801" lon="8.500733206929686"><ele>104.0</ele><time>2026-04-27T10:41:42.807Z</time></trkpt><trkpt lat="39.42249420392825" lon="8.500597903234512"><ele>104.0</ele><time>2026-04-27T10:41:43.807Z</time></trkpt><trkpt lat="39.42249033811074" lon="8.500441011581387"><ele>104.0</ele><time>2026-04-27T10:41:44.807Z</time></trkpt><trkpt lat="39.422551185238284" lon="8.500271852773244"><ele>104.0</ele><time>2026-04-27T10:41:45.806Z</time></trkpt><trkpt lat="39.422626772695395" lon="8.500114485066174"><ele>106.0</ele><time>2026-04-27T10:41:46.806Z</time></trkpt><trkpt lat="39.42263652880524" lon="8.499971800328494"><ele>108.0</ele><time>2026-04-27T10:41:47.806Z</time></trkpt><trkpt lat="39.42258356567058" lon="8.499806042485575"><ele>110.0</ele><time>2026-04-27T10:41:48.806Z</time></trkpt><trkpt lat="39.42248517338374" lon="8.499627351553038"><ele>112.0</ele><time>2026-04-27T10:41:49.806Z</time></trkpt><trkpt lat="39.42239337425249" lon="8.499453425089106"><ele>115.33333333333334</ele><time>2026-04-27T10:41:50.806Z</time></trkpt><trkpt lat="39.42234346616539" lon="8.499251933225572"><ele>118.66666666666666</ele><time>2026-04-27T10:41:51.806Z</time></trkpt><trkpt lat="39.42230376627396" lon="8.499038553716584"><ele>122.0</ele><time>2026-04-27T10:41:52.806Z</time></trkpt><trkpt lat="39.4222794562008" lon="8.498831601175636"><ele>125.33333333333333</ele><time>2026-04-27T10:41:53.806Z</time></trkpt><trkpt lat="39.42225568964266" lon="8.498619718297233"><ele>128.66666666666666</ele><time>2026-04-27T10:41:54.806Z</time></trkpt><trkpt lat="39.422230768010415" lon="8.498405565400498"><ele>132.0</ele><time>2026-04-27T10:41:55.806Z</time></trkpt><trkpt lat="39.422173576606134" lon="8.498224023585706"><ele>125.0</ele><time>2026-04-27T10:41:56.806Z</time></trkpt><trkpt lat="39.422109042096" lon="8.498041629630237"><ele>118.0</ele><time>2026-04-27T10:41:57.806Z</time></trkpt><trkpt lat="39.422006167710094" lon="8.497887202078381"><ele>111.0</ele><time>2026-04-27T10:41:58.806Z</time></trkpt><trkpt lat="39.421874071464735" lon="8.497759126408777"><ele>111.0</ele><time>2026-04-27T10:41:59.806Z</time></trkpt><trkpt lat="39.421741393090535" lon="8.497614585246486"><ele>111.0</ele><time>2026-04-27T10:42:00.806Z</time></trkpt><trkpt lat="39.421648090292216" lon="8.497427652006138"><ele>111.0</ele><time>2026-04-27T10:42:01.806Z</time></trkpt><trkpt lat="39.421598256848256" lon="8.497225399147009"><ele>113.33333333333334</ele><time>2026-04-27T10:42:02.806Z</time></trkpt><trkpt lat="39.42159209299676" lon="8.49700667422095"><ele>115.66666666666667</ele><time>2026-04-27T10:42:03.806Z</time></trkpt><trkpt lat="39.42161693428953" lon="8.496784733030745"><ele>118.0</ele><time>2026-04-27T10:42:04.805Z</time></trkpt><trkpt lat="39.421649709707935" lon="8.496569704029877"><ele>118.0</ele><time>2026-04-27T10:42:05.805Z</time></trkpt><trkpt lat="39.42166031134258" lon="8.496355591225424"><ele>118.0</ele><time>2026-04-27T10:42:06.805Z</time></trkpt><trkpt lat="39.42165126853653" lon="8.496148974470726"><ele>118.0</ele><time>2026-04-27T10:42:07.805Z</time></trkpt><trkpt lat="39.421608449819566" lon="8.495988902977139"><ele>116.5</ele><time>2026-04-27T10:42:08.805Z</time></trkpt><trkpt lat="39.42151900679324" lon="8.49588774179107"><ele>115.0</ele><time>2026-04-27T10:42:09.805Z</time></trkpt><trkpt lat="39.42138075192453" lon="8.49584316110019"><ele>113.5</ele><time>2026-04-27T10:42:10.805Z</time></trkpt><trkpt lat="39.42122185235358" lon="8.495861423170272"><ele>112.0</ele><time>2026-04-27T10:42:11.805Z</time></trkpt><trkpt lat="39.42108611174291" lon="8.495863441289474"><ele>112.0</ele><time>2026-04-27T10:42:12.805Z</time></trkpt><trkpt lat="39.420994995721394" lon="8.495752964643291"><ele>112.0</ele><time>2026-04-27T10:42:13.805Z</time></trkpt><trkpt lat="39.42093394942169" lon="8.495579987993684"><ele>112.0</ele><time>2026-04-27T10:42:14.805Z</time></trkpt><trkpt lat="39.42085175314454" lon="8.495390932146504"><ele>112.0</ele><time>2026-04-27T10:42:15.805Z</time></trkpt><trkpt lat="39.42075255824181" lon="8.49522173090132"><ele>112.0</ele><time>2026-04-27T10:42:16.805Z</time></trkpt><trkpt lat="39.42062473884252" lon="8.495079018079462"><ele>112.0</ele><time>2026-04-27T10:42:17.805Z</time></trkpt><trkpt lat="39.420473553465214" lon="8.494954927004088"><ele>112.0</ele><time>2026-04-27T10:42:18.805Z</time></trkpt><trkpt lat="39.42031473169258" lon="8.494835997531212"><ele>112.0</ele><time>2026-04-27T10:42:19.805Z</time></trkpt><trkpt lat="39.42015367993132" lon="8.494725416493809"><ele>112.0</ele><time>2026-04-27T10:42:20.805Z</time></trkpt><trkpt lat="39.41999404595474" lon="8.494604667188732"><ele>112.0</ele><time>2026-04-27T10:42:21.805Z</time></trkpt><trkpt lat="39.41984722716905" lon="8.494491977332947"><ele>116.33333333333334</ele><time>2026-04-27T10:42:22.805Z</time></trkpt><trkpt lat="39.41973310603611" lon="8.494375294350796"><ele>120.66666666666666</ele><time>2026-04-27T10:42:23.805Z</time></trkpt><trkpt lat="39.419676926022625" lon="8.494201588545067"><ele>125.0</ele><time>2026-04-27T10:42:24.805Z</time></trkpt><trkpt lat="39.41969048398646" lon="8.493989326437829"><ele>125.0</ele><time>2026-04-27T10:42:25.805Z</time></trkpt><trkpt lat="39.41970195357925" lon="8.493788727095307"><ele>125.0</ele><time>2026-04-27T10:42:26.805Z</time></trkpt><trkpt lat="39.41965730285698" lon="8.493602143951053"><ele>125.0</ele><time>2026-04-27T10:42:27.805Z</time></trkpt><trkpt lat="39.41956674660425" lon="8.493437247035342"><ele>123.25</ele><time>2026-04-27T10:42:28.805Z</time></trkpt><trkpt lat="39.419435955747254" lon="8.49331633824538"><ele>121.5</ele><time>2026-04-27T10:42:29.805Z</time></trkpt><trkpt lat="39.41933002559696" lon="8.493212922176065"><ele>119.75</ele><time>2026-04-27T10:42:30.805Z</time></trkpt><trkpt lat="39.41927240046961" lon="8.493082945195349"><ele>118.0</ele><time>2026-04-27T10:42:31.805Z</time></trkpt><trkpt lat="39.41929551815199" lon="8.492932785657635"><ele>118.75</ele><time>2026-04-27T10:42:32.805Z</time></trkpt><trkpt lat="39.41939275046948" lon="8.49278245576736"><ele>119.5</ele><time>2026-04-27T10:42:33.805Z</time></trkpt><trkpt lat="39.41948126731023" lon="8.492634041594782"><ele>120.25</ele><time>2026-04-27T10:42:34.805Z</time></trkpt><trkpt lat="39.41952391113126" lon="8.492487736443955"><ele>121.0</ele><time>2026-04-27T10:42:35.805Z</time></trkpt><trkpt lat="39.41950993352807" lon="8.492319766466428"><ele>121.0</ele><time>2026-04-27T10:42:36.805Z</time></trkpt><trkpt lat="39.41950025241114" lon="8.492137560652804"><ele>121.0</ele><time>2026-04-27T10:42:37.805Z</time></trkpt><trkpt lat="39.419504468687606" lon="8.491957416759954"><ele>121.0</ele><time>2026-04-27T10:42:38.805Z</time></trkpt><trkpt lat="39.419500815180974" lon="8.491807484266758"><ele>121.0</ele><time>2026-04-27T10:42:39.805Z</time></trkpt><trkpt lat="39.41907385324753" lon="8.491684133315296"><ele>122.0</ele><time>2026-04-27T10:42:40.805Z</time></trkpt><trkpt lat="39.41890550319512" lon="8.491615009813641"><ele>123.0</ele><time>2026-04-27T10:42:41.805Z</time></trkpt><trkpt lat="39.41873963705977" lon="8.491568034574335"><ele>124.0</ele><time>2026-04-27T10:42:42.805Z</time></trkpt><trkpt lat="39.41860121947157" lon="8.491517128610662"><ele>124.0</ele><time>2026-04-27T10:42:43.805Z</time></trkpt><trkpt lat="39.4184972230156" lon="8.491424376429425"><ele>124.0</ele><time>2026-04-27T10:42:44.805Z</time></trkpt><trkpt lat="39.418446979432716" lon="8.491268167380198"><ele>124.0</ele><time>2026-04-27T10:42:45.805Z</time></trkpt><trkpt lat="39.41846658947845" lon="8.491079517315562"><ele>124.0</ele><time>2026-04-27T10:42:46.805Z</time></trkpt><trkpt lat="39.418522541666704" lon="8.490894874409193"><ele>125.0</ele><time>2026-04-27T10:42:47.805Z</time></trkpt><trkpt lat="39.418579064667625" lon="8.490689054009053"><ele>126.0</ele><time>2026-04-27T10:42:48.805Z</time></trkpt><trkpt lat="39.41863090211657" lon="8.49048750899759"><ele>127.0</ele><time>2026-04-27T10:42:49.805Z</time></trkpt><trkpt lat="39.41866527022694" lon="8.490305465720402"><ele>127.66666666666667</ele><time>2026-04-27T10:42:50.805Z</time></trkpt><trkpt lat="39.41862810272965" lon="8.490135456352592"><ele>128.33333333333334</ele><time>2026-04-27T10:42:51.805Z</time></trkpt><trkpt lat="39.418532128276155" lon="8.489951629079004"><ele>129.0</ele><time>2026-04-27T10:42:52.805Z</time></trkpt><trkpt lat="39.4184358683962" lon="8.489779040448262"><ele>129.0</ele><time>2026-04-27T10:42:53.805Z</time></trkpt><trkpt lat="39.41836346509966" lon="8.489656313426487"><ele>129.0</ele><time>2026-04-27T10:42:54.805Z</time></trkpt><trkpt lat="39.418209317877476" lon="8.48961079650961"><ele>129.0</ele><time>2026-04-27T10:42:55.805Z</time></trkpt><trkpt lat="39.41801610634023" lon="8.48963665844188"><ele>129.33333333333334</ele><time>2026-04-27T10:42:56.805Z</time></trkpt><trkpt lat="39.4178379023279" lon="8.489704710405931"><ele>129.66666666666669</ele><time>2026-04-27T10:42:57.804Z</time></trkpt><trkpt lat="39.417914541068" lon="8.48962554291249"><ele>130.0</ele><time>2026-04-27T10:42:58.804Z</time></trkpt><trkpt lat="39.41776327070402" lon="8.489761189249736"><ele>130.0</ele><time>2026-04-27T10:42:59.804Z</time></trkpt><trkpt lat="39.41762722338885" lon="8.48986890367979"><ele>130.0</ele><time>2026-04-27T10:43:00.804Z</time></trkpt><trkpt lat="39.417492634534334" lon="8.489884196053403"><ele>130.0</ele><time>2026-04-27T10:43:01.804Z</time></trkpt><trkpt lat="39.417396623535666" lon="8.489793111319786"><ele>130.0</ele><time>2026-04-27T10:43:02.804Z</time></trkpt><trkpt lat="39.417329272591545" lon="8.489625462524707"><ele>130.66666666666669</ele><time>2026-04-27T10:43:03.804Z</time></trkpt><trkpt lat="39.41728540895561" lon="8.489423777718049"><ele>131.33333333333334</ele><time>2026-04-27T10:43:04.804Z</time></trkpt><trkpt lat="39.41722220615677" lon="8.489245871805636"><ele>132.0</ele><time>2026-04-27T10:43:05.804Z</time></trkpt><trkpt lat="39.41711512856779" lon="8.489117896814282"><ele>132.0</ele><time>2026-04-27T10:43:06.804Z</time></trkpt><trkpt lat="39.41701024614387" lon="8.489023509816498"><ele>132.0</ele><time>2026-04-27T10:43:07.804Z</time></trkpt><trkpt lat="39.416918753873134" lon="8.488950332178154"><ele>132.0</ele><time>2026-04-27T10:43:08.804Z</time></trkpt><trkpt lat="39.41685356776999" lon="8.488858444340183"><ele>132.0</ele><time>2026-04-27T10:43:09.804Z</time></trkpt><trkpt lat="39.416834064157335" lon="8.488761934614987"><ele>132.0</ele><time>2026-04-27T10:43:10.804Z</time></trkpt><trkpt lat="39.41686360313242" lon="8.48866593204693"><ele>132.4</ele><time>2026-04-27T10:43:11.804Z</time></trkpt><trkpt lat="39.416924474354495" lon="8.488584202629692"><ele>132.79999999999998</ele><time>2026-04-27T10:43:12.804Z</time></trkpt><trkpt lat="39.41698736888631" lon="8.488509780999731"><ele>133.2</ele><time>2026-04-27T10:43:13.804Z</time></trkpt><trkpt lat="39.417041927034134" lon="8.488398662396836"><ele>133.6</ele><time>2026-04-27T10:43:14.804Z</time></trkpt><trkpt lat="39.41709639681694" lon="8.488252985899063"><ele>134.0</ele><time>2026-04-27T10:43:15.804Z</time></trkpt><trkpt lat="39.41710493258438" lon="8.488090214134113"><ele>134.0</ele><time>2026-04-27T10:43:16.804Z</time></trkpt><trkpt lat="39.41706757055939" lon="8.487936954958975"><ele>134.0</ele><time>2026-04-27T10:43:17.804Z</time></trkpt><trkpt lat="39.41699400252315" lon="8.487784471897523"><ele>134.0</ele><time>2026-04-27T10:43:18.804Z</time></trkpt><trkpt lat="39.416893030289465" lon="8.487638048451608"><ele>134.0</ele><time>2026-04-27T10:43:19.804Z</time></trkpt><trkpt lat="39.416767247149565" lon="8.487505332941423"><ele>135.0</ele><time>2026-04-27T10:43:20.804Z</time></trkpt><trkpt lat="39.41660564375034" lon="8.487371670346349"><ele>136.0</ele><time>2026-04-27T10:43:21.804Z</time></trkpt><trkpt lat="39.41648704607006" lon="8.487225781681909"><ele>137.0</ele><time>2026-04-27T10:43:22.804Z</time></trkpt><trkpt lat="39.41638068199058" lon="8.487045579848214"><ele>141.0</ele><time>2026-04-27T10:43:23.804Z</time></trkpt><trkpt lat="39.41628657127995" lon="8.486855900072575"><ele>145.0</ele><time>2026-04-27T10:43:24.804Z</time></trkpt><trkpt lat="39.4161874443159" lon="8.486665088212899"><ele>149.0</ele><time>2026-04-27T10:43:25.804Z</time></trkpt><trkpt lat="39.41607308441305" lon="8.486480183305343"><ele>149.0</ele><time>2026-04-27T10:43:26.804Z</time></trkpt><trkpt lat="39.41592788240351" lon="8.486338180557201"><ele>149.0</ele><time>2026-04-27T10:43:27.804Z</time></trkpt><trkpt lat="39.415745679161375" lon="8.486236415744239"><ele>149.0</ele><time>2026-04-27T10:43:28.804Z</time></trkpt><trkpt lat="39.41558128065302" lon="8.486103444446055"><ele>149.66666666666666</ele><time>2026-04-27T10:43:29.804Z</time></trkpt><trkpt lat="39.41541466852692" lon="8.485966904509537"><ele>150.33333333333334</ele><time>2026-04-27T10:43:30.804Z</time></trkpt><trkpt lat="39.41524648799291" lon="8.485828222173923"><ele>151.0</ele><time>2026-04-27T10:43:31.804Z</time></trkpt><trkpt lat="39.41508029242357" lon="8.48568611325608"><ele>151.0</ele><time>2026-04-27T10:43:32.804Z</time></trkpt><trkpt lat="39.414926513973526" lon="8.485524358748096"><ele>151.0</ele><time>2026-04-27T10:43:33.804Z</time></trkpt><trkpt lat="39.414789766781176" lon="8.485340735028583"><ele>151.0</ele><time>2026-04-27T10:43:34.804Z</time></trkpt><trkpt lat="39.414673742286816" lon="8.485137766407847"><ele>151.66666666666669</ele><time>2026-04-27T10:43:35.804Z</time></trkpt><trkpt lat="39.41458668764063" lon="8.484921735462077"><ele>152.33333333333334</ele><time>2026-04-27T10:43:36.804Z</time></trkpt><trkpt lat="39.41454710073985" lon="8.484701309731708"><ele>153.0</ele><time>2026-04-27T10:43:37.804Z</time></trkpt><trkpt lat="39.41454453307566" lon="8.484461009365825"><ele>153.0</ele><time>2026-04-27T10:43:38.804Z</time></trkpt><trkpt lat="39.414536262993295" lon="8.484213813975478"><ele>153.0</ele><time>2026-04-27T10:43:39.805Z</time></trkpt><trkpt lat="39.4145180276961" lon="8.483962516930365"><ele>153.0</ele><time>2026-04-27T10:43:40.805Z</time></trkpt><trkpt lat="39.4145058706964" lon="8.483707154567684"><ele>153.66666666666666</ele><time>2026-04-27T10:43:41.805Z</time></trkpt><trkpt lat="39.414505337844645" lon="8.483447216503624"><ele>154.33333333333331</ele><time>2026-04-27T10:43:42.805Z</time></trkpt><trkpt lat="39.414540373260266" lon="8.483216113843703"><ele>155.0</ele><time>2026-04-27T10:43:43.804Z</time></trkpt><trkpt lat="39.41459282129033" lon="8.483016929248995"><ele>155.33333333333331</ele><time>2026-04-27T10:43:44.804Z</time></trkpt><trkpt lat="39.41459145976168" lon="8.482821440693218"><ele>155.66666666666666</ele><time>2026-04-27T10:43:45.805Z</time></trkpt><trkpt lat="39.41452186161093" lon="8.482630786637346"><ele>156.0</ele><time>2026-04-27T10:43:46.805Z</time></trkpt><trkpt lat="39.41441581047952" lon="8.48245078625806"><ele>156.0</ele><time>2026-04-27T10:43:47.805Z</time></trkpt><trkpt lat="39.414279669497446" lon="8.482304380311788"><ele>156.0</ele><time>2026-04-27T10:43:48.805Z</time></trkpt><trkpt lat="39.414152291562594" lon="8.48215542900339"><ele>156.0</ele><time>2026-04-27T10:43:49.804Z</time></trkpt><trkpt lat="39.4140750400618" lon="8.481944811055282"><ele>161.33333333333334</ele><time>2026-04-27T10:43:50.804Z</time></trkpt><trkpt lat="39.414013985782404" lon="8.481706692132624"><ele>166.66666666666669</ele><time>2026-04-27T10:43:51.805Z</time></trkpt><trkpt lat="39.41395960012386" lon="8.48147035360043"><ele>172.0</ele><time>2026-04-27T10:43:52.804Z</time></trkpt><trkpt lat="39.41388967749525" lon="8.481230429650445"><ele>175.66666666666669</ele><time>2026-04-27T10:43:53.804Z</time></trkpt><trkpt lat="39.41382373978854" lon="8.480989003363039"><ele>179.33333333333334</ele><time>2026-04-27T10:43:54.804Z</time></trkpt><trkpt lat="39.4137649842341" lon="8.480751604280663"><ele>183.0</ele><time>2026-04-27T10:43:55.804Z</time></trkpt><trkpt lat="39.41373676957473" lon="8.480516956866808"><ele>176.66666666666666</ele><time>2026-04-27T10:43:56.804Z</time></trkpt><trkpt lat="39.41373795062821" lon="8.480285963827354"><ele>170.33333333333331</ele><time>2026-04-27T10:43:57.804Z</time></trkpt><trkpt lat="39.41368695043769" lon="8.480084051182569"><ele>164.0</ele><time>2026-04-27T10:43:58.804Z</time></trkpt><trkpt lat="39.413573680168604" lon="8.479888979174444"><ele>164.0</ele><time>2026-04-27T10:43:59.804Z</time></trkpt><trkpt lat="39.413451341428726" lon="8.479714375675087"><ele>164.0</ele><time>2026-04-27T10:44:00.804Z</time></trkpt><trkpt lat="39.413317072845324" lon="8.479601095031965"><ele>164.0</ele><time>2026-04-27T10:44:01.804Z</time></trkpt><trkpt lat="39.413140177754684" lon="8.479561772552453"><ele>164.66666666666666</ele><time>2026-04-27T10:44:02.804Z</time></trkpt><trkpt lat="39.41295935954014" lon="8.479515903883744"><ele>165.33333333333334</ele><time>2026-04-27T10:44:03.804Z</time></trkpt><trkpt lat="39.41282212760362" lon="8.479446063860681"><ele>166.0</ele><time>2026-04-27T10:44:04.804Z</time></trkpt><trkpt lat="39.41272698835367" lon="8.479349846010809"><ele>166.0</ele><time>2026-04-27T10:44:05.804Z</time></trkpt><trkpt lat="39.41269855679892" lon="8.479195804657666"><ele>166.0</ele><time>2026-04-27T10:44:06.804Z</time></trkpt><trkpt lat="39.41271071199819" lon="8.47904073182565"><ele>166.0</ele><time>2026-04-27T10:44:07.804Z</time></trkpt><trkpt lat="39.41273366364977" lon="8.47892786597926"><ele>166.0</ele><time>2026-04-27T10:44:08.804Z</time></trkpt><trkpt lat="39.412750462524514" lon="8.478819633647873"><ele>166.0</ele><time>2026-04-27T10:44:09.804Z</time></trkpt><trkpt lat="39.412773293673716" lon="8.478713778948123"><ele>166.5</ele><time>2026-04-27T10:44:10.804Z</time></trkpt><trkpt lat="39.4127812885411" lon="8.478616540830693"><ele>167.0</ele><time>2026-04-27T10:44:11.804Z</time></trkpt><trkpt lat="39.4127663923338" lon="8.478527527829419"><ele>167.5</ele><time>2026-04-27T10:44:12.804Z</time></trkpt><trkpt lat="39.412701968803255" lon="8.478402103289655"><ele>168.0</ele><time>2026-04-27T10:44:14.804Z</time></trkpt><trkpt lat="39.41266304128314" lon="8.478335439749284"><ele>168.5</ele><time>2026-04-27T10:44:15.804Z</time></trkpt><trkpt lat="39.41261529718535" lon="8.478272087472446"><ele>169.0</ele><time>2026-04-27T10:44:16.804Z</time></trkpt><trkpt lat="39.412570794608484" lon="8.478212850939585"><ele>169.0</ele><time>2026-04-27T10:44:17.804Z</time></trkpt><trkpt lat="39.412542609238024" lon="8.47806697058362"><ele>169.0</ele><time>2026-04-27T10:44:19.804Z</time></trkpt><trkpt lat="39.412560075845704" lon="8.477974433940776"><ele>169.0</ele><time>2026-04-27T10:44:20.804Z</time></trkpt><trkpt lat="39.41258120306541" lon="8.477897464157634"><ele>169.0</ele><time>2026-04-27T10:44:21.804Z</time></trkpt><trkpt lat="39.41262342967145" lon="8.477746577133468"><ele>169.0</ele><time>2026-04-27T10:44:23.804Z</time></trkpt><trkpt lat="39.41263847525614" lon="8.477664563010904"><ele>169.0</ele><time>2026-04-27T10:44:24.804Z</time></trkpt><trkpt lat="39.412609579646265" lon="8.47750575903789"><ele>169.5</ele><time>2026-04-27T10:44:26.804Z</time></trkpt><trkpt lat="39.412530706871685" lon="8.47743697760208"><ele>170.0</ele><time>2026-04-27T10:44:27.804Z</time></trkpt><trkpt lat="39.412413381529106" lon="8.477375636186002"><ele>170.5</ele><time>2026-04-27T10:44:28.804Z</time></trkpt><trkpt lat="39.41226446783482" lon="8.477268144866665"><ele>171.0</ele><time>2026-04-27T10:44:29.804Z</time></trkpt><trkpt lat="39.41210392446333" lon="8.477149195021585"><ele>174.66666666666666</ele><time>2026-04-27T10:44:30.804Z</time></trkpt><trkpt lat="39.411945042339205" lon="8.477038600518666"><ele>178.33333333333331</ele><time>2026-04-27T10:44:31.804Z</time></trkpt><trkpt lat="39.41176787157027" lon="8.476984458250476"><ele>182.0</ele><time>2026-04-27T10:44:32.804Z</time></trkpt><trkpt lat="39.411603204453094" lon="8.476925236575122"><ele>182.0</ele><time>2026-04-27T10:44:33.804Z</time></trkpt><trkpt lat="39.41145249935357" lon="8.47685896023739"><ele>182.0</ele><time>2026-04-27T10:44:34.804Z</time></trkpt><trkpt lat="39.4113220966801" lon="8.476776488940752"><ele>182.0</ele><time>2026-04-27T10:44:35.804Z</time></trkpt><trkpt lat="39.41119946430423" lon="8.476685726656754"><ele>182.0</ele><time>2026-04-27T10:44:36.804Z</time></trkpt><trkpt lat="39.411093755139035" lon="8.476558401625367"><ele>181.0</ele><time>2026-04-27T10:44:37.804Z</time></trkpt><trkpt lat="39.411008219851254" lon="8.476390115401912"><ele>180.0</ele><time>2026-04-27T10:44:38.804Z</time></trkpt><trkpt lat="39.41092176030639" lon="8.47621287004658"><ele>179.0</ele><time>2026-04-27T10:44:39.804Z</time></trkpt><trkpt lat="39.41079738858634" lon="8.476057458047789"><ele>183.33333333333331</ele><time>2026-04-27T10:44:40.804Z</time></trkpt><trkpt lat="39.410651835501554" lon="8.475957659091021"><ele>187.66666666666666</ele><time>2026-04-27T10:44:41.803Z</time></trkpt><trkpt lat="39.4104779852309" lon="8.475908601363004"><ele>192.0</ele><time>2026-04-27T10:44:42.803Z</time></trkpt><trkpt lat="39.410279146439166" lon="8.47590296578001"><ele>192.0</ele><time>2026-04-27T10:44:43.803Z</time></trkpt><trkpt lat="39.410077919716485" lon="8.475896612050244"><ele>192.0</ele><time>2026-04-27T10:44:44.803Z</time></trkpt><trkpt lat="39.40988631244889" lon="8.475863570267308"><ele>192.0</ele><time>2026-04-27T10:44:45.803Z</time></trkpt><trkpt lat="39.40971566045484" lon="8.475833075253497"><ele>193.0</ele><time>2026-04-27T10:44:46.803Z</time></trkpt><trkpt lat="39.40958586401612" lon="8.475808396371665"><ele>194.0</ele><time>2026-04-27T10:44:47.803Z</time></trkpt><trkpt lat="39.40948696449242" lon="8.475713068465454"><ele>195.0</ele><time>2026-04-27T10:44:48.803Z</time></trkpt><trkpt lat="39.409466345483466" lon="8.475561962006012"><ele>196.0</ele><time>2026-04-27T10:44:49.803Z</time></trkpt><trkpt lat="39.409536320419306" lon="8.475378760819087"><ele>196.5</ele><time>2026-04-27T10:44:50.803Z</time></trkpt><trkpt lat="39.40961637036514" lon="8.475216216769338"><ele>197.0</ele><time>2026-04-27T10:44:51.803Z</time></trkpt><trkpt lat="39.40962665094364" lon="8.475052041936236"><ele>197.5</ele><time>2026-04-27T10:44:52.803Z</time></trkpt><trkpt lat="39.40958015466776" lon="8.474888481139601"><ele>198.0</ele><time>2026-04-27T10:44:53.803Z</time></trkpt><trkpt lat="39.40948975719441" lon="8.474734731518282"><ele>198.0</ele><time>2026-04-27T10:44:54.803Z</time></trkpt><trkpt lat="39.40938701241593" lon="8.47461775083084"><ele>198.0</ele><time>2026-04-27T10:44:55.803Z</time></trkpt><trkpt lat="39.40924435259518" lon="8.474536817611481"><ele>198.0</ele><time>2026-04-27T10:44:56.803Z</time></trkpt><trkpt lat="39.40905204743152" lon="8.474447968458268"><ele>200.0</ele><time>2026-04-27T10:44:57.803Z</time></trkpt><trkpt lat="39.408887737829936" lon="8.474350249326687"><ele>202.0</ele><time>2026-04-27T10:44:58.803Z</time></trkpt><trkpt lat="39.40872045498262" lon="8.47425820861027"><ele>204.0</ele><time>2026-04-27T10:44:59.803Z</time></trkpt><trkpt lat="39.408529192202586" lon="8.47420486936814"><ele>204.0</ele><time>2026-04-27T10:45:00.803Z</time></trkpt><trkpt lat="39.408337661793105" lon="8.474138100256889"><ele>204.0</ele><time>2026-04-27T10:45:01.803Z</time></trkpt><trkpt lat="39.408140038520905" lon="8.474079919778783"><ele>204.0</ele><time>2026-04-27T10:45:02.803Z</time></trkpt><trkpt lat="39.4079456677045" lon="8.47400477209402"><ele>203.5</ele><time>2026-04-27T10:45:03.803Z</time></trkpt><trkpt lat="39.40778055342166" lon="8.473929686292914"><ele>203.0</ele><time>2026-04-27T10:45:04.803Z</time></trkpt><trkpt lat="39.4076528009286" lon="8.473855399777714"><ele>202.5</ele><time>2026-04-27T10:45:05.803Z</time></trkpt><trkpt lat="39.4075705892932" lon="8.473732322357739"><ele>202.0</ele><time>2026-04-27T10:45:06.803Z</time></trkpt><trkpt lat="39.40756616558456" lon="8.473510343343913"><ele>205.66666666666666</ele><time>2026-04-27T10:45:07.803Z</time></trkpt><trkpt lat="39.4076028419911" lon="8.473286684992615"><ele>209.33333333333331</ele><time>2026-04-27T10:45:08.803Z</time></trkpt><trkpt lat="39.40764671722559" lon="8.473069539071108"><ele>213.0</ele><time>2026-04-27T10:45:09.803Z</time></trkpt><trkpt lat="39.407677683133365" lon="8.472869776765181"><ele>218.0</ele><time>2026-04-27T10:45:10.803Z</time></trkpt><trkpt lat="39.40765768315204" lon="8.472682077261311"><ele>223.0</ele><time>2026-04-27T10:45:11.803Z</time></trkpt><trkpt lat="39.407552956508766" lon="8.472514700945778"><ele>228.0</ele><time>2026-04-27T10:45:12.803Z</time></trkpt><trkpt lat="39.407410272797044" lon="8.472369985657982"><ele>228.0</ele><time>2026-04-27T10:45:13.803Z</time></trkpt><trkpt lat="39.40728777175593" lon="8.472214453310698"><ele>228.0</ele><time>2026-04-27T10:45:14.803Z</time></trkpt><trkpt lat="39.4072141255416" lon="8.472049899840028"><ele>228.0</ele><time>2026-04-27T10:45:15.803Z</time></trkpt><trkpt lat="39.40719731872677" lon="8.4719053828563"><ele>228.0</ele><time>2026-04-27T10:45:16.803Z</time></trkpt><trkpt lat="39.40723458593718" lon="8.47174046722063"><ele>229.75</ele><time>2026-04-27T10:45:17.803Z</time></trkpt><trkpt lat="39.40723595025765" lon="8.471566157940982"><ele>231.5</ele><time>2026-04-27T10:45:18.803Z</time></trkpt><trkpt lat="39.40720076565698" lon="8.471372077916476"><ele>233.25</ele><time>2026-04-27T10:45:19.803Z</time></trkpt><trkpt lat="39.407116067034835" lon="8.471211256994561"><ele>235.0</ele><time>2026-04-27T10:45:20.803Z</time></trkpt><trkpt lat="39.40698315486518" lon="8.471082831128681"><ele>235.0</ele><time>2026-04-27T10:45:21.803Z</time></trkpt><trkpt lat="39.40684164344288" lon="8.471028964728795"><ele>235.0</ele><time>2026-04-27T10:45:22.803Z</time></trkpt><trkpt lat="39.4066635107475" lon="8.471051488727008"><ele>235.0</ele><time>2026-04-27T10:45:23.803Z</time></trkpt><trkpt lat="39.4064909920471" lon="8.47104811536858"><ele>237.0</ele><time>2026-04-27T10:45:24.803Z</time></trkpt><trkpt lat="39.406307856793504" lon="8.470983968761058"><ele>239.0</ele><time>2026-04-27T10:45:25.803Z</time></trkpt><trkpt lat="39.406154322515334" lon="8.470880217773836"><ele>241.0</ele><time>2026-04-27T10:45:26.803Z</time></trkpt><trkpt lat="39.40601761417819" lon="8.470821771671481"><ele>241.0</ele><time>2026-04-27T10:45:27.803Z</time></trkpt><trkpt lat="39.405849488228704" lon="8.470869889163831"><ele>241.0</ele><time>2026-04-27T10:45:28.803Z</time></trkpt><trkpt lat="39.405647425740675" lon="8.47096838020693"><ele>241.0</ele><time>2026-04-27T10:45:29.803Z</time></trkpt><trkpt lat="39.40549034137943" lon="8.471080776248636"><ele>243.0</ele><time>2026-04-27T10:45:30.803Z</time></trkpt><trkpt lat="39.405344915010275" lon="8.471180222327352"><ele>245.0</ele><time>2026-04-27T10:45:31.803Z</time></trkpt><trkpt lat="39.40522401116069" lon="8.47123484443641"><ele>247.0</ele><time>2026-04-27T10:45:32.803Z</time></trkpt><trkpt lat="39.40509392283363" lon="8.471211717555999"><ele>249.0</ele><time>2026-04-27T10:45:33.803Z</time></trkpt><trkpt lat="39.404959616129084" lon="8.471173396315297"><ele>249.0</ele><time>2026-04-27T10:45:34.802Z</time></trkpt><trkpt lat="39.404840003265974" lon="8.471177294653632"><ele>249.0</ele><time>2026-04-27T10:45:35.802Z</time></trkpt><trkpt lat="39.40471518406658" lon="8.471209221061862"><ele>249.0</ele><time>2026-04-27T10:45:36.802Z</time></trkpt><trkpt lat="39.404607431605875" lon="8.471325063914124"><ele>249.0</ele><time>2026-04-27T10:45:37.802Z</time></trkpt><trkpt lat="39.404522940165045" lon="8.471521450597189"><ele>250.0</ele><time>2026-04-27T10:45:38.802Z</time></trkpt><trkpt lat="39.404494782919805" lon="8.471743626918482"><ele>251.0</ele><time>2026-04-27T10:45:39.802Z</time></trkpt><trkpt lat="39.4044931179494" lon="8.47197810850261"><ele>252.0</ele><time>2026-04-27T10:45:40.802Z</time></trkpt><trkpt lat="39.404472426999" lon="8.472177890409347"><ele>248.75</ele><time>2026-04-27T10:45:41.802Z</time></trkpt><trkpt lat="39.40441579404188" lon="8.472315856137103"><ele>245.5</ele><time>2026-04-27T10:45:42.802Z</time></trkpt><trkpt lat="39.40429434302061" lon="8.472363716561796"><ele>242.25</ele><time>2026-04-27T10:45:43.802Z</time></trkpt><trkpt lat="39.404133752975746" lon="8.472343834521352"><ele>239.0</ele><time>2026-04-27T10:45:44.802Z</time></trkpt><trkpt lat="39.4039428974649" lon="8.472337946235987"><ele>245.0</ele><time>2026-04-27T10:45:45.803Z</time></trkpt><trkpt lat="39.40375949105928" lon="8.472371879229884"><ele>251.0</ele><time>2026-04-27T10:45:46.803Z</time></trkpt><trkpt lat="39.40362218959071" lon="8.472465857951356"><ele>257.0</ele><time>2026-04-27T10:45:47.803Z</time></trkpt><trkpt lat="39.40350960051046" lon="8.472632856277947"><ele>257.0</ele><time>2026-04-27T10:45:48.804Z</time></trkpt><trkpt lat="39.403416983786016" lon="8.472825918721378"><ele>257.0</ele><time>2026-04-27T10:45:49.803Z</time></trkpt><trkpt lat="39.403335946426665" lon="8.47302629259165"><ele>257.0</ele><time>2026-04-27T10:45:50.803Z</time></trkpt><trkpt lat="39.40323948699664" lon="8.47320984169307"><ele>255.5</ele><time>2026-04-27T10:45:51.804Z</time></trkpt><trkpt lat="39.40316389831629" lon="8.4733557072045"><ele>254.0</ele><time>2026-04-27T10:45:52.803Z</time></trkpt><trkpt lat="39.40307446019163" lon="8.473497588310995"><ele>252.5</ele><time>2026-04-27T10:45:53.803Z</time></trkpt><trkpt lat="39.402981146824274" lon="8.47356608725694"><ele>251.0</ele><time>2026-04-27T10:45:54.804Z</time></trkpt><trkpt lat="39.402882818667635" lon="8.47352491475216"><ele>251.0</ele><time>2026-04-27T10:45:55.803Z</time></trkpt><trkpt lat="39.4028259467175" lon="8.47340471309105"><ele>251.0</ele><time>2026-04-27T10:45:56.803Z</time></trkpt><trkpt lat="39.402821172477076" lon="8.4732394758011"><ele>251.0</ele><time>2026-04-27T10:45:57.803Z</time></trkpt><trkpt lat="39.40279300289759" lon="8.473079568876662"><ele>251.0</ele><time>2026-04-27T10:45:58.803Z</time></trkpt><trkpt lat="39.40270997464485" lon="8.472955416976026"><ele>251.0</ele><time>2026-04-27T10:45:59.803Z</time></trkpt><trkpt lat="39.40258415202207" lon="8.472888318078466"><ele>251.0</ele><time>2026-04-27T10:46:00.803Z</time></trkpt><trkpt lat="39.40245104970102" lon="8.472912076238053"><ele>251.0</ele><time>2026-04-27T10:46:01.803Z</time></trkpt><trkpt lat="39.402336426303656" lon="8.473027467804284"><ele>251.0</ele><time>2026-04-27T10:46:02.803Z</time></trkpt><trkpt lat="39.40223576854436" lon="8.47313685310459"><ele>252.25</ele><time>2026-04-27T10:46:03.803Z</time></trkpt><trkpt lat="39.40212103697277" lon="8.47313369428831"><ele>253.5</ele><time>2026-04-27T10:46:04.803Z</time></trkpt><trkpt lat="39.40202928752099" lon="8.473034447596158"><ele>254.75</ele><time>2026-04-27T10:46:05.803Z</time></trkpt><trkpt lat="39.40192642634949" lon="8.472896988520665"><ele>256.0</ele><time>2026-04-27T10:46:06.803Z</time></trkpt><trkpt lat="39.401785326903" lon="8.47283928000776"><ele>256.0</ele><time>2026-04-27T10:46:07.803Z</time></trkpt><trkpt lat="39.40163367563684" lon="8.472897379202482"><ele>256.0</ele><time>2026-04-27T10:46:08.803Z</time></trkpt><trkpt lat="39.40149350238887" lon="8.473049818411422"><ele>256.0</ele><time>2026-04-27T10:46:09.803Z</time></trkpt><trkpt lat="39.40136588370099" lon="8.473147390315347"><ele>256.25</ele><time>2026-04-27T10:46:10.803Z</time></trkpt><trkpt lat="39.401246409839914" lon="8.473125236161975"><ele>256.5</ele><time>2026-04-27T10:46:11.803Z</time></trkpt><trkpt lat="39.40112638921427" lon="8.473010436088149"><ele>256.75</ele><time>2026-04-27T10:46:12.803Z</time></trkpt><trkpt lat="39.40097939398319" lon="8.472928182745925"><ele>257.0</ele><time>2026-04-27T10:46:13.803Z</time></trkpt><trkpt lat="39.40082378024911" lon="8.472902781483407"><ele>257.0</ele><time>2026-04-27T10:46:14.803Z</time></trkpt><trkpt lat="39.40066447806456" lon="8.472934997644353"><ele>257.0</ele><time>2026-04-27T10:46:15.803Z</time></trkpt><trkpt lat="39.40051954792703" lon="8.473017966506742"><ele>257.0</ele><time>2026-04-27T10:46:16.803Z</time></trkpt><trkpt lat="39.40037950260737" lon="8.473108560234124"><ele>257.25</ele><time>2026-04-27T10:46:17.803Z</time></trkpt><trkpt lat="39.4002445867528" lon="8.473167572081623"><ele>257.5</ele><time>2026-04-27T10:46:18.803Z</time></trkpt><trkpt lat="39.4001188577239" lon="8.473165004786775"><ele>257.75</ele><time>2026-04-27T10:46:19.803Z</time></trkpt><trkpt lat="39.39999799046961" lon="8.473092354126779"><ele>258.0</ele><time>2026-04-27T10:46:20.803Z</time></trkpt><trkpt lat="39.39988348336757" lon="8.47296172562121"><ele>261.25</ele><time>2026-04-27T10:46:21.803Z</time></trkpt><trkpt lat="39.399795041003244" lon="8.472799402217898"><ele>264.5</ele><time>2026-04-27T10:46:22.803Z</time></trkpt><trkpt lat="39.39969505865154" lon="8.472671244197938"><ele>267.75</ele><time>2026-04-27T10:46:23.803Z</time></trkpt><trkpt lat="39.399542845455926" lon="8.472634698002029"><ele>271.0</ele><time>2026-04-27T10:46:24.803Z</time></trkpt><trkpt lat="39.39937234178577" lon="8.47268620051065"><ele>271.0</ele><time>2026-04-27T10:46:25.803Z</time></trkpt><trkpt lat="39.399148859224965" lon="8.472810428473753"><ele>271.0</ele><time>2026-04-27T10:46:26.803Z</time></trkpt><trkpt lat="39.39888920322492" lon="8.472939593614198"><ele>268.0</ele><time>2026-04-27T10:46:27.803Z</time></trkpt><trkpt lat="39.39871218681972" lon="8.473032133278913"><ele>265.0</ele><time>2026-04-27T10:46:28.803Z</time></trkpt><trkpt lat="39.39856027365551" lon="8.473144079972226"><ele>262.0</ele><time>2026-04-27T10:46:29.803Z</time></trkpt><trkpt lat="39.3984200533034" lon="8.473190698291441"><ele>262.0</ele><time>2026-04-27T10:46:30.803Z</time></trkpt><trkpt lat="39.39826960256001" lon="8.473096667493273"><ele>262.0</ele><time>2026-04-27T10:46:31.803Z</time></trkpt><trkpt lat="39.39815387918881" lon="8.472897140413613"><ele>262.0</ele><time>2026-04-27T10:46:32.803Z</time></trkpt><trkpt lat="39.39807758772338" lon="8.472693908288882"><ele>262.0</ele><time>2026-04-27T10:46:33.803Z</time></trkpt><trkpt lat="39.39794261223666" lon="8.472632815870758"><ele>262.0</ele><time>2026-04-27T10:46:34.803Z</time></trkpt><trkpt lat="39.397771783189114" lon="8.472697081731186"><ele>262.0</ele><time>2026-04-27T10:46:35.803Z</time></trkpt><trkpt lat="39.397625396533506" lon="8.472947240080034"><ele>262.0</ele><time>2026-04-27T10:46:36.803Z</time></trkpt><trkpt lat="39.39753370552703" lon="8.473176243964094"><ele>262.0</ele><time>2026-04-27T10:46:37.802Z</time></trkpt><trkpt lat="39.397374934047846" lon="8.473255861336584"><ele>262.0</ele><time>2026-04-27T10:46:38.802Z</time></trkpt><trkpt lat="39.39726415569294" lon="8.473196248525946"><ele>266.5</ele><time>2026-04-27T10:46:39.802Z</time></trkpt><trkpt lat="39.397017802572954" lon="8.473051932515313"><ele>271.0</ele><time>2026-04-27T10:46:40.802Z</time></trkpt><trkpt lat="39.39673335086849" lon="8.473132227273082"><ele>271.0</ele><time>2026-04-27T10:46:41.802Z</time></trkpt><trkpt lat="39.39646051303619" lon="8.473225087904503"><ele>271.0</ele><time>2026-04-27T10:46:42.802Z</time></trkpt><trkpt lat="39.39606659280654" lon="8.47332031835413"><ele>273.5</ele><time>2026-04-27T10:46:43.802Z</time></trkpt><trkpt lat="39.39563984713243" lon="8.4734504819145"><ele>276.0</ele><time>2026-04-27T10:46:44.802Z</time></trkpt><trkpt lat="39.395192332465506" lon="8.473574114124743"><ele>276.5</ele><time>2026-04-27T10:46:45.802Z</time></trkpt><trkpt lat="39.394818472433975" lon="8.473703141676939"><ele>277.0</ele><time>2026-04-27T10:46:46.802Z</time></trkpt><trkpt lat="39.39453367587156" lon="8.473809832020658"><ele>277.0</ele><time>2026-04-27T10:46:47.802Z</time></trkpt><trkpt lat="39.39427523443833" lon="8.473913610668298"><ele>277.0</ele><time>2026-04-27T10:46:48.802Z</time></trkpt><trkpt lat="39.3940112311878" lon="8.474072642923186"><ele>290.0</ele><time>2026-04-27T10:46:49.802Z</time></trkpt><trkpt lat="39.393791885370256" lon="8.474188791916022"><ele>303.0</ele><time>2026-04-27T10:46:50.802Z</time></trkpt><trkpt lat="39.393566930100796" lon="8.47434977576883"><ele>303.0</ele><time>2026-04-27T10:46:51.802Z</time></trkpt><trkpt lat="39.39338824737506" lon="8.474502784624747"><ele>303.0</ele><time>2026-04-27T10:46:52.802Z</time></trkpt><trkpt lat="39.39326322724844" lon="8.474716488609182"><ele>303.0</ele><time>2026-04-27T10:46:53.802Z</time></trkpt><trkpt lat="39.393156123204946" lon="8.474941598065804"><ele>293.0</ele><time>2026-04-27T10:46:54.802Z</time></trkpt><trkpt lat="39.39311040500663" lon="8.475199706790393"><ele>283.0</ele><time>2026-04-27T10:46:55.802Z</time></trkpt><trkpt lat="39.3931181374373" lon="8.47555756149135"><ele>283.0</ele><time>2026-04-27T10:46:56.802Z</time></trkpt><trkpt lat="39.39316904362164" lon="8.475814877279536"><ele>283.0</ele><time>2026-04-27T10:46:57.802Z</time></trkpt><trkpt lat="39.393131163481456" lon="8.476030875988801"><ele>283.0</ele><time>2026-04-27T10:46:58.802Z</time></trkpt><trkpt lat="39.39323516460837" lon="8.476221492430946"><ele>282.6</ele><time>2026-04-27T10:46:59.802Z</time></trkpt><trkpt lat="39.39329149018686" lon="8.47635735858603"><ele>282.20000000000005</ele><time>2026-04-27T10:47:00.802Z</time></trkpt><trkpt lat="39.39326564191061" lon="8.476471505120804"><ele>281.8</ele><time>2026-04-27T10:47:01.802Z</time></trkpt><trkpt lat="39.39318625349178" lon="8.47653404082445"><ele>281.40000000000003</ele><time>2026-04-27T10:47:02.802Z</time></trkpt><trkpt lat="39.39312623242504" lon="8.476566767651335"><ele>281.0</ele><time>2026-04-27T10:47:03.802Z</time></trkpt><trkpt lat="39.39300555254566" lon="8.476600716927178"><ele>284.40000000000003</ele><time>2026-04-27T10:47:05.802Z</time></trkpt><trkpt lat="39.39294394001888" lon="8.476621624257959"><ele>287.8</ele><time>2026-04-27T10:47:06.802Z</time></trkpt><trkpt lat="39.39283513911254" lon="8.476637230308853"><ele>291.20000000000005</ele><time>2026-04-27T10:47:08.802Z</time></trkpt><trkpt lat="39.39277351262717" lon="8.476659203127852"><ele>294.6</ele><time>2026-04-27T10:47:09.802Z</time></trkpt><trkpt lat="39.39266753655797" lon="8.476715687404068"><ele>298.0</ele><time>2026-04-27T10:47:11.802Z</time></trkpt><trkpt lat="39.39259655147417" lon="8.476819674886544"><ele>298.0</ele><time>2026-04-27T10:47:13.802Z</time></trkpt><trkpt lat="39.39260696890203" lon="8.47697374813943"><ele>298.0</ele><time>2026-04-27T10:47:15.802Z</time></trkpt><trkpt lat="39.3926706950496" lon="8.477102625654055"><ele>298.0</ele><time>2026-04-27T10:47:16.802Z</time></trkpt><trkpt lat="39.39274797415312" lon="8.477264176527896"><ele>298.0</ele><time>2026-04-27T10:47:17.802Z</time></trkpt><trkpt lat="39.392792064778" lon="8.477456621330049"><ele>298.75</ele><time>2026-04-27T10:47:18.802Z</time></trkpt><trkpt lat="39.39277144600709" lon="8.477658984615758"><ele>299.5</ele><time>2026-04-27T10:47:19.802Z</time></trkpt><trkpt lat="39.39272323100541" lon="8.477823422286136"><ele>300.25</ele><time>2026-04-27T10:47:20.802Z</time></trkpt><trkpt lat="39.392640115718294" lon="8.47792377550846"><ele>301.0</ele><time>2026-04-27T10:47:21.802Z</time></trkpt><trkpt lat="39.392551460005365" lon="8.477973819830298"><ele>299.25</ele><time>2026-04-27T10:47:22.802Z</time></trkpt><trkpt lat="39.39242401581337" lon="8.478026053869831"><ele>297.5</ele><time>2026-04-27T10:47:23.802Z</time></trkpt><trkpt lat="39.392333924837615" lon="8.478098419689388"><ele>295.75</ele><time>2026-04-27T10:47:24.802Z</time></trkpt><trkpt lat="39.392280137180805" lon="8.47821750425357"><ele>294.0</ele><time>2026-04-27T10:47:25.802Z</time></trkpt><trkpt lat="39.39222736228201" lon="8.478350929562383"><ele>294.0</ele><time>2026-04-27T10:47:26.802Z</time></trkpt><trkpt lat="39.392182550538905" lon="8.4785085590115"><ele>294.0</ele><time>2026-04-27T10:47:27.802Z</time></trkpt><trkpt lat="39.39216194239626" lon="8.478665060545119"><ele>294.0</ele><time>2026-04-27T10:47:28.802Z</time></trkpt><trkpt lat="39.39218217371674" lon="8.478822904325577"><ele>294.0</ele><time>2026-04-27T10:47:29.801Z</time></trkpt><trkpt lat="39.392194480676274" lon="8.478958536330154"><ele>294.0</ele><time>2026-04-27T10:47:30.801Z</time></trkpt><trkpt lat="39.39221157500819" lon="8.479083296955537"><ele>294.0</ele><time>2026-04-27T10:47:31.801Z</time></trkpt><trkpt lat="39.392224050186435" lon="8.479204335434208"><ele>294.0</ele><time>2026-04-27T10:47:32.801Z</time></trkpt><trkpt lat="39.3922226104033" lon="8.479323077741137"><ele>294.0</ele><time>2026-04-27T10:47:33.801Z</time></trkpt><trkpt lat="39.392218614853356" lon="8.479441775067638"><ele>294.0</ele><time>2026-04-27T10:47:34.801Z</time></trkpt><trkpt lat="39.39221912821884" lon="8.479565134761911"><ele>294.25</ele><time>2026-04-27T10:47:35.801Z</time></trkpt><trkpt lat="39.39219514396322" lon="8.47970387852795"><ele>294.5</ele><time>2026-04-27T10:47:36.801Z</time></trkpt><trkpt lat="39.392152904306556" lon="8.479855773848946"><ele>294.75</ele><time>2026-04-27T10:47:37.801Z</time></trkpt><trkpt lat="39.39209314867417" lon="8.480008692195996"><ele>295.0</ele><time>2026-04-27T10:47:38.801Z</time></trkpt><trkpt lat="39.39200949133915" lon="8.480168755412036"><ele>297.66666666666663</ele><time>2026-04-27T10:47:39.801Z</time></trkpt><trkpt lat="39.39191656974058" lon="8.48032846432248"><ele>300.3333333333333</ele><time>2026-04-27T10:47:40.801Z</time></trkpt><trkpt lat="39.3918280946589" lon="8.480499633363216"><ele>303.0</ele><time>2026-04-27T10:47:41.801Z</time></trkpt><trkpt lat="39.39172673568849" lon="8.480687475321762"><ele>303.0</ele><time>2026-04-27T10:47:42.801Z</time></trkpt><trkpt lat="39.391627728097674" lon="8.480865102404112"><ele>303.0</ele><time>2026-04-27T10:47:43.801Z</time></trkpt><trkpt lat="39.391503897759264" lon="8.480971316956197"><ele>303.0</ele><time>2026-04-27T10:47:44.801Z</time></trkpt><trkpt lat="39.3913438864747" lon="8.481023976128752"><ele>310.0</ele><time>2026-04-27T10:47:45.801Z</time></trkpt><trkpt lat="39.39116468334622" lon="8.481051739695241"><ele>317.0</ele><time>2026-04-27T10:47:46.801Z</time></trkpt><trkpt lat="39.390982026805204" lon="8.48107937798374"><ele>324.0</ele><time>2026-04-27T10:47:47.801Z</time></trkpt><trkpt lat="39.390797867594586" lon="8.481109768050919"><ele>324.0</ele><time>2026-04-27T10:47:48.801Z</time></trkpt><trkpt lat="39.390605874237664" lon="8.481148492187497"><ele>324.0</ele><time>2026-04-27T10:47:49.801Z</time></trkpt><trkpt lat="39.390397410322464" lon="8.48120549801655"><ele>324.0</ele><time>2026-04-27T10:47:50.801Z</time></trkpt><trkpt lat="39.39019279985012" lon="8.48122225278154"><ele>325.3333333333333</ele><time>2026-04-27T10:47:51.802Z</time></trkpt><trkpt lat="39.38996662036251" lon="8.481206546550585"><ele>326.66666666666663</ele><time>2026-04-27T10:47:52.802Z</time></trkpt><trkpt lat="39.38976635955069" lon="8.481179173477997"><ele>328.0</ele><time>2026-04-27T10:47:53.802Z</time></trkpt><trkpt lat="39.38960519597809" lon="8.481119931794378"><ele>323.66666666666663</ele><time>2026-04-27T10:47:54.802Z</time></trkpt><trkpt lat="39.38947139207312" lon="8.480964754421068"><ele>319.3333333333333</ele><time>2026-04-27T10:47:55.802Z</time></trkpt><trkpt lat="39.389356792029126" lon="8.480771676367732"><ele>315.0</ele><time>2026-04-27T10:47:56.802Z</time></trkpt><trkpt lat="39.38924527378838" lon="8.48058474437035"><ele>315.0</ele><time>2026-04-27T10:47:57.802Z</time></trkpt><trkpt lat="39.389135491876246" lon="8.480446430501159"><ele>315.0</ele><time>2026-04-27T10:47:58.802Z</time></trkpt><trkpt lat="39.389002062036695" lon="8.48040236245934"><ele>315.0</ele><time>2026-04-27T10:47:59.802Z</time></trkpt><trkpt lat="39.38884136683623" lon="8.48049756443854"><ele>319.6666666666667</ele><time>2026-04-27T10:48:00.802Z</time></trkpt><trkpt lat="39.388659724692744" lon="8.480683760428501"><ele>324.33333333333337</ele><time>2026-04-27T10:48:01.801Z</time></trkpt><trkpt lat="39.38850950181233" lon="8.480833853262013"><ele>329.0</ele><time>2026-04-27T10:48:02.801Z</time></trkpt><trkpt lat="39.388449522955746" lon="8.480959666688717"><ele>329.0</ele><time>2026-04-27T10:48:03.802Z</time></trkpt><trkpt lat="39.38848565266578" lon="8.481113578768857"><ele>329.0</ele><time>2026-04-27T10:48:04.801Z</time></trkpt><trkpt lat="39.388599981272485" lon="8.48126960395241"><ele>329.0</ele><time>2026-04-27T10:48:05.801Z</time></trkpt><trkpt lat="39.38875908704243" lon="8.481395482315499"><ele>325.0</ele><time>2026-04-27T10:48:06.801Z</time></trkpt><trkpt lat="39.38887345165473" lon="8.481592263518637"><ele>321.0</ele><time>2026-04-27T10:48:07.801Z</time></trkpt><trkpt lat="39.388963183242346" lon="8.481837674898316"><ele>317.0</ele><time>2026-04-27T10:48:08.801Z</time></trkpt><trkpt lat="39.38902029530539" lon="8.482010955552079"><ele>321.75</ele><time>2026-04-27T10:48:09.801Z</time></trkpt><trkpt lat="39.38908696046414" lon="8.482149613525898"><ele>326.5</ele><time>2026-04-27T10:48:10.801Z</time></trkpt><trkpt lat="39.38916786038766" lon="8.482228888775246"><ele>331.25</ele><time>2026-04-27T10:48:11.801Z</time></trkpt><trkpt lat="39.389293988943784" lon="8.482257286918776"><ele>336.0</ele><time>2026-04-27T10:48:12.801Z</time></trkpt><trkpt lat="39.38945237600577" lon="8.482249979005815"><ele>336.0</ele><time>2026-04-27T10:48:13.801Z</time></trkpt><trkpt lat="39.389613351471255" lon="8.482281036321538"><ele>336.0</ele><time>2026-04-27T10:48:14.801Z</time></trkpt><trkpt lat="39.389759079613505" lon="8.482364873553982"><ele>336.0</ele><time>2026-04-27T10:48:15.801Z</time></trkpt><trkpt lat="39.3898968300266" lon="8.482448862368829"><ele>332.0</ele><time>2026-04-27T10:48:16.801Z</time></trkpt><trkpt lat="39.3900408445079" lon="8.482530415798985"><ele>328.0</ele><time>2026-04-27T10:48:17.801Z</time></trkpt><trkpt lat="39.39019146977296" lon="8.48259223403174"><ele>324.0</ele><time>2026-04-27T10:48:18.801Z</time></trkpt><trkpt lat="39.390344537849906" lon="8.482630349691725"><ele>324.0</ele><time>2026-04-27T10:48:19.801Z</time></trkpt><trkpt lat="39.390493761699666" lon="8.482618540865706"><ele>324.0</ele><time>2026-04-27T10:48:20.801Z</time></trkpt><trkpt lat="39.390625065552626" lon="8.482580839769364"><ele>324.0</ele><time>2026-04-27T10:48:21.801Z</time></trkpt><trkpt lat="39.39072285666452" lon="8.482617672868495"><ele>324.0</ele><time>2026-04-27T10:48:22.801Z</time></trkpt><trkpt lat="39.390760462062104" lon="8.482762267019075"><ele>320.6666666666667</ele><time>2026-04-27T10:48:23.801Z</time></trkpt><trkpt lat="39.39071975043649" lon="8.482938034105795"><ele>317.33333333333337</ele><time>2026-04-27T10:48:24.801Z</time></trkpt><trkpt lat="39.39059682501473" lon="8.483073688349913"><ele>314.0</ele><time>2026-04-27T10:48:25.801Z</time></trkpt><trkpt lat="39.39047189463099" lon="8.483190382889818"><ele>319.0</ele><time>2026-04-27T10:48:26.801Z</time></trkpt><trkpt lat="39.39033918423909" lon="8.483279766250762"><ele>324.0</ele><time>2026-04-27T10:48:27.801Z</time></trkpt><trkpt lat="39.39020042163727" lon="8.4833113075392"><ele>329.0</ele><time>2026-04-27T10:48:28.801Z</time></trkpt><trkpt lat="39.390048836139414" lon="8.483345688150889"><ele>334.0</ele><time>2026-04-27T10:48:29.801Z</time></trkpt><trkpt lat="39.38992401669522" lon="8.483454650081852"><ele>334.0</ele><time>2026-04-27T10:48:30.801Z</time></trkpt><trkpt lat="39.38978550478482" lon="8.48360674104091"><ele>334.0</ele><time>2026-04-27T10:48:31.801Z</time></trkpt><trkpt lat="39.38964357307904" lon="8.483764307402568"><ele>334.0</ele><time>2026-04-27T10:48:32.801Z</time></trkpt><trkpt lat="39.38947938496241" lon="8.483888365371284"><ele>337.0</ele><time>2026-04-27T10:48:33.801Z</time></trkpt><trkpt lat="39.389299050499936" lon="8.483971578538481"><ele>340.0</ele><time>2026-04-27T10:48:34.801Z</time></trkpt><trkpt lat="39.38912308285142" lon="8.48404198777273"><ele>343.0</ele><time>2026-04-27T10:48:35.801Z</time></trkpt><trkpt lat="39.38896870105342" lon="8.484141046202216"><ele>343.0</ele><time>2026-04-27T10:48:36.801Z</time></trkpt><trkpt lat="39.388849054314925" lon="8.484294233356792"><ele>343.0</ele><time>2026-04-27T10:48:37.801Z</time></trkpt><trkpt lat="39.38872864651082" lon="8.484479761987094"><ele>343.0</ele><time>2026-04-27T10:48:38.801Z</time></trkpt><trkpt lat="39.388580602059655" lon="8.484665901650297"><ele>346.0</ele><time>2026-04-27T10:48:39.801Z</time></trkpt><trkpt lat="39.388413766779216" lon="8.484787990755281"><ele>349.0</ele><time>2026-04-27T10:48:40.801Z</time></trkpt><trkpt lat="39.38824276075243" lon="8.484912423147204"><ele>352.0</ele><time>2026-04-27T10:48:41.801Z</time></trkpt><trkpt lat="39.388078170084285" lon="8.485018492183945"><ele>358.5</ele><time>2026-04-27T10:48:42.801Z</time></trkpt><trkpt lat="39.38793541667291" lon="8.485104242302553"><ele>365.0</ele><time>2026-04-27T10:48:43.801Z</time></trkpt><trkpt lat="39.38785780402437" lon="8.485197254558772"><ele>371.5</ele><time>2026-04-27T10:48:44.801Z</time></trkpt><trkpt lat="39.38783295368901" lon="8.485311669545105"><ele>378.0</ele><time>2026-04-27T10:48:45.801Z</time></trkpt><trkpt lat="39.38791324648925" lon="8.485462407521684"><ele>370.3333333333333</ele><time>2026-04-27T10:48:46.801Z</time></trkpt><trkpt lat="39.38805780029365" lon="8.485615357330472"><ele>362.66666666666663</ele><time>2026-04-27T10:48:47.801Z</time></trkpt><trkpt lat="39.38822707871675" lon="8.485730502092563"><ele>355.0</ele><time>2026-04-27T10:48:48.8Z</time></trkpt><trkpt lat="39.38836255664874" lon="8.485876838670265"><ele>355.0</ele><time>2026-04-27T10:48:49.8Z</time></trkpt><trkpt lat="39.38843833934178" lon="8.48606046319981"><ele>355.0</ele><time>2026-04-27T10:48:50.8Z</time></trkpt><trkpt lat="39.38846344262158" lon="8.486262187414795"><ele>355.0</ele><time>2026-04-27T10:48:51.8Z</time></trkpt><trkpt lat="39.38844683344402" lon="8.486470045613892"><ele>358.3333333333333</ele><time>2026-04-27T10:48:52.8Z</time></trkpt><trkpt lat="39.38840752591294" lon="8.486670110794526"><ele>361.6666666666667</ele><time>2026-04-27T10:48:53.8Z</time></trkpt><trkpt lat="39.38830148331062" lon="8.486850866180811"><ele>365.0</ele><time>2026-04-27T10:48:54.8Z</time></trkpt><trkpt lat="39.38819496216544" lon="8.487010438302883"><ele>364.5</ele><time>2026-04-27T10:48:55.8Z</time></trkpt><trkpt lat="39.388106073059994" lon="8.48713262863909"><ele>364.0</ele><time>2026-04-27T10:48:56.8Z</time></trkpt><trkpt lat="39.38809666773941" lon="8.487312519713607"><ele>363.5</ele><time>2026-04-27T10:48:57.8Z</time></trkpt><trkpt lat="39.388154065934145" lon="8.48751903224772"><ele>363.0</ele><time>2026-04-27T10:48:58.8Z</time></trkpt><trkpt lat="39.38821734794782" lon="8.487725239683416"><ele>363.0</ele><time>2026-04-27T10:48:59.8Z</time></trkpt><trkpt lat="39.38823626799182" lon="8.487877356204068"><ele>363.0</ele><time>2026-04-27T10:49:00.8Z</time></trkpt><trkpt lat="39.38817849559927" lon="8.487968318863594"><ele>363.0</ele><time>2026-04-27T10:49:01.8Z</time></trkpt><trkpt lat="39.38806712397102" lon="8.488011642417762"><ele>363.0</ele><time>2026-04-27T10:49:02.8Z</time></trkpt><trkpt lat="39.387951591282956" lon="8.487961955273981"><ele>363.0</ele><time>2026-04-27T10:49:03.8Z</time></trkpt><trkpt lat="39.3878522641406" lon="8.487810548263917"><ele>368.3333333333333</ele><time>2026-04-27T10:49:04.8Z</time></trkpt><trkpt lat="39.387799884510066" lon="8.487625034094282"><ele>373.66666666666663</ele><time>2026-04-27T10:49:05.8Z</time></trkpt><trkpt lat="39.38774031547289" lon="8.487432881536316"><ele>379.0</ele><time>2026-04-27T10:49:06.8Z</time></trkpt><trkpt lat="39.387689926586035" lon="8.487261604847296"><ele>379.0</ele><time>2026-04-27T10:49:07.8Z</time></trkpt><trkpt lat="39.387615685598" lon="8.48714695399619"><ele>379.0</ele><time>2026-04-27T10:49:08.8Z</time></trkpt><trkpt lat="39.38750216029405" lon="8.487106772982532"><ele>379.0</ele><time>2026-04-27T10:49:09.8Z</time></trkpt><trkpt lat="39.387364394835906" lon="8.48717323196462"><ele>379.0</ele><time>2026-04-27T10:49:10.8Z</time></trkpt><trkpt lat="39.387254215042944" lon="8.487339593480872"><ele>379.0</ele><time>2026-04-27T10:49:11.8Z</time></trkpt><trkpt lat="39.387236457039464" lon="8.487598919335193"><ele>379.0</ele><time>2026-04-27T10:49:12.8Z</time></trkpt><trkpt lat="39.387229777405665" lon="8.487861076976495"><ele>379.0</ele><time>2026-04-27T10:49:13.8Z</time></trkpt><trkpt lat="39.38722811169975" lon="8.488078063388256"><ele>376.25</ele><time>2026-04-27T10:49:14.8Z</time></trkpt><trkpt lat="39.387193933012426" lon="8.488261169008043"><ele>373.5</ele><time>2026-04-27T10:49:15.8Z</time></trkpt><trkpt lat="39.387137120698185" lon="8.48837734544803"><ele>370.75</ele><time>2026-04-27T10:49:16.8Z</time></trkpt><trkpt lat="39.38702112918647" lon="8.48844695538899"><ele>368.0</ele><time>2026-04-27T10:49:17.8Z</time></trkpt><trkpt lat="39.38685680788974" lon="8.488459539966325"><ele>376.6666666666667</ele><time>2026-04-27T10:49:18.8Z</time></trkpt><trkpt lat="39.386689342074824" lon="8.488517684131105"><ele>385.33333333333337</ele><time>2026-04-27T10:49:19.8Z</time></trkpt><trkpt lat="39.38654499359893" lon="8.488619159972023"><ele>394.0</ele><time>2026-04-27T10:49:20.8Z</time></trkpt><trkpt lat="39.38643543329295" lon="8.488748960374028"><ele>394.33333333333337</ele><time>2026-04-27T10:49:21.8Z</time></trkpt><trkpt lat="39.38631060957523" lon="8.48887507042386"><ele>394.66666666666663</ele><time>2026-04-27T10:49:22.8Z</time></trkpt><trkpt lat="39.38616302750549" lon="8.488962332968441"><ele>395.0</ele><time>2026-04-27T10:49:23.8Z</time></trkpt><trkpt lat="39.38600717705837" lon="8.489013741516732"><ele>395.0</ele><time>2026-04-27T10:49:24.8Z</time></trkpt><trkpt lat="39.38584903404747" lon="8.488960990479981"><ele>395.0</ele><time>2026-04-27T10:49:25.8Z</time></trkpt><trkpt lat="39.385678713609444" lon="8.488872895637579"><ele>395.0</ele><time>2026-04-27T10:49:26.8Z</time></trkpt><trkpt lat="39.385535635747296" lon="8.488794008496578"><ele>400.75</ele><time>2026-04-27T10:49:27.8Z</time></trkpt><trkpt lat="39.385428515219424" lon="8.488777915067104"><ele>406.5</ele><time>2026-04-27T10:49:28.8Z</time></trkpt><trkpt lat="39.38533029668916" lon="8.488880950432861"><ele>412.25</ele><time>2026-04-27T10:49:29.8Z</time></trkpt><trkpt lat="39.38528665143961" lon="8.489082869529998"><ele>418.0</ele><time>2026-04-27T10:49:30.8Z</time></trkpt><trkpt lat="39.385296168371795" lon="8.489329575583481"><ele>418.0</ele><time>2026-04-27T10:49:31.8Z</time></trkpt><trkpt lat="39.385304772846084" lon="8.489589794312671"><ele>418.0</ele><time>2026-04-27T10:49:32.8Z</time></trkpt><trkpt lat="39.38533555352645" lon="8.489734957163165"><ele>418.0</ele><time>2026-04-27T10:49:33.8Z</time></trkpt><trkpt lat="39.38542224957571" lon="8.48984975229666"><ele>418.0</ele><time>2026-04-27T10:49:34.8Z</time></trkpt><trkpt lat="39.38558596731122" lon="8.489904437871644"><ele>413.6666666666667</ele><time>2026-04-27T10:49:35.8Z</time></trkpt><trkpt lat="39.385803202254145" lon="8.489935269413476"><ele>409.33333333333337</ele><time>2026-04-27T10:49:36.8Z</time></trkpt><trkpt lat="39.386008444541226" lon="8.489968570601471"><ele>405.0</ele><time>2026-04-27T10:49:37.8Z</time></trkpt><trkpt lat="39.38616964620584" lon="8.490008419379455"><ele>405.0</ele><time>2026-04-27T10:49:38.8Z</time></trkpt><trkpt lat="39.38631807333324" lon="8.490053517139316"><ele>405.0</ele><time>2026-04-27T10:49:39.8Z</time></trkpt><trkpt lat="39.38646691807279" lon="8.490125997904622"><ele>405.0</ele><time>2026-04-27T10:49:40.8Z</time></trkpt><trkpt lat="39.38659015353701" lon="8.49024446918543"><ele>406.0</ele><time>2026-04-27T10:49:41.799Z</time></trkpt><trkpt lat="39.38667691888623" lon="8.490404038902325"><ele>407.0</ele><time>2026-04-27T10:49:42.799Z</time></trkpt><trkpt lat="39.386705755695694" lon="8.490587155546743"><ele>408.0</ele><time>2026-04-27T10:49:43.799Z</time></trkpt><trkpt lat="39.38666005633709" lon="8.4907536555146"><ele>409.0</ele><time>2026-04-27T10:49:44.799Z</time></trkpt><trkpt lat="39.38655805147859" lon="8.490886349197046"><ele>409.0</ele><time>2026-04-27T10:49:45.799Z</time></trkpt><trkpt lat="39.38646242845378" lon="8.49103121068475"><ele>409.0</ele><time>2026-04-27T10:49:46.799Z</time></trkpt><trkpt lat="39.38640538944161" lon="8.4911983877514"><ele>409.0</ele><time>2026-04-27T10:49:47.799Z</time></trkpt><trkpt lat="39.386359605649986" lon="8.491367329915846"><ele>409.0</ele><time>2026-04-27T10:49:48.799Z</time></trkpt><trkpt lat="39.38631362221426" lon="8.49151557959783"><ele>412.25</ele><time>2026-04-27T10:49:49.799Z</time></trkpt><trkpt lat="39.38620758892135" lon="8.491568498469283"><ele>415.5</ele><time>2026-04-27T10:49:50.799Z</time></trkpt><trkpt lat="39.38607658950528" lon="8.491532014858906"><ele>418.75</ele><time>2026-04-27T10:49:51.799Z</time></trkpt><trkpt lat="39.38593670028035" lon="8.49149796861133"><ele>422.0</ele><time>2026-04-27T10:49:52.799Z</time></trkpt><trkpt lat="39.38579853431078" lon="8.49152080224616"><ele>422.0</ele><time>2026-04-27T10:49:53.799Z</time></trkpt><trkpt lat="39.385691180100814" lon="8.491627804977163"><ele>422.0</ele><time>2026-04-27T10:49:54.799Z</time></trkpt><trkpt lat="39.38561483014209" lon="8.491811426506379"><ele>422.0</ele><time>2026-04-27T10:49:55.799Z</time></trkpt><trkpt lat="39.38556843832918" lon="8.49203095637712"><ele>427.66666666666663</ele><time>2026-04-27T10:49:56.799Z</time></trkpt><trkpt lat="39.38551097084254" lon="8.492243488531393"><ele>433.33333333333337</ele><time>2026-04-27T10:49:57.8Z</time></trkpt><trkpt lat="39.3854063289924" lon="8.492405236434779"><ele>439.0</ele><time>2026-04-27T10:49:58.8Z</time></trkpt><trkpt lat="39.38526786301637" lon="8.49252064922078"><ele>439.0</ele><time>2026-04-27T10:49:59.799Z</time></trkpt><trkpt lat="39.3851700291943" lon="8.49267966124026"><ele>439.0</ele><time>2026-04-27T10:50:00.801Z</time></trkpt><trkpt lat="39.38509358051911" lon="8.492853206225778"><ele>439.0</ele><time>2026-04-27T10:50:01.8Z</time></trkpt><trkpt lat="39.385001623860575" lon="8.492984942326505"><ele>439.0</ele><time>2026-04-27T10:50:02.8Z</time></trkpt><trkpt lat="39.38485192225584" lon="8.493036866267452"><ele>436.0</ele><time>2026-04-27T10:50:03.8Z</time></trkpt><trkpt lat="39.38470435367893" lon="8.493058712652001"><ele>433.0</ele><time>2026-04-27T10:50:04.8Z</time></trkpt><trkpt lat="39.38460150943422" lon="8.49315337362641"><ele>430.0</ele><time>2026-04-27T10:50:05.8Z</time></trkpt><trkpt lat="39.3845395038977" lon="8.493339576031108"><ele>427.0</ele><time>2026-04-27T10:50:06.8Z</time></trkpt><trkpt lat="39.38449057027743" lon="8.493548257808706"><ele>433.6666666666667</ele><time>2026-04-27T10:50:07.8Z</time></trkpt><trkpt lat="39.38443505782454" lon="8.493760706325803"><ele>440.33333333333337</ele><time>2026-04-27T10:50:08.8Z</time></trkpt><trkpt lat="39.384383203983454" lon="8.49395631751006"><ele>447.0</ele><time>2026-04-27T10:50:09.801Z</time></trkpt><trkpt lat="39.384339997651594" lon="8.494148384777384"><ele>447.0</ele><time>2026-04-27T10:50:10.8Z</time></trkpt><trkpt lat="39.38434363795859" lon="8.494345873610676"><ele>447.0</ele><time>2026-04-27T10:50:11.8Z</time></trkpt><trkpt lat="39.384388141022" lon="8.494538065922972"><ele>447.0</ele><time>2026-04-27T10:50:12.8Z</time></trkpt><trkpt lat="39.38443346991708" lon="8.494740743460222"><ele>446.66666666666663</ele><time>2026-04-27T10:50:13.8Z</time></trkpt><trkpt lat="39.38442153806314" lon="8.494939374247386"><ele>446.3333333333333</ele><time>2026-04-27T10:50:14.8Z</time></trkpt><trkpt lat="39.38435852286869" lon="8.495127378853141"><ele>446.0</ele><time>2026-04-27T10:50:15.8Z</time></trkpt><trkpt lat="39.38429332051607" lon="8.49531558433132"><ele>445.5</ele><time>2026-04-27T10:50:16.8Z</time></trkpt><trkpt lat="39.38421371947368" lon="8.495473889615154"><ele>445.0</ele><time>2026-04-27T10:50:17.8Z</time></trkpt><trkpt lat="39.38410408301957" lon="8.495551965960317"><ele>444.5</ele><time>2026-04-27T10:50:18.8Z</time></trkpt><trkpt lat="39.38396426972927" lon="8.495569268590593"><ele>444.0</ele><time>2026-04-27T10:50:19.8Z</time></trkpt><trkpt lat="39.383823091321275" lon="8.495505760861521"><ele>443.66666666666663</ele><time>2026-04-27T10:50:20.8Z</time></trkpt><trkpt lat="39.38371534440268" lon="8.49537108757497"><ele>443.3333333333333</ele><time>2026-04-27T10:50:21.8Z</time></trkpt><trkpt lat="39.38361415708434" lon="8.495197134649759"><ele>443.0</ele><time>2026-04-27T10:50:22.8Z</time></trkpt><trkpt lat="39.38352734539779" lon="8.49500695097282"><ele>443.0</ele><time>2026-04-27T10:50:23.8Z</time></trkpt><trkpt lat="39.38345611239334" lon="8.49481175595508"><ele>443.0</ele><time>2026-04-27T10:50:24.8Z</time></trkpt><trkpt lat="39.383399750477345" lon="8.494603268393952"><ele>443.0</ele><time>2026-04-27T10:50:25.8Z</time></trkpt><trkpt lat="39.38335233340393" lon="8.494376541720115"><ele>445.66666666666663</ele><time>2026-04-27T10:50:26.8Z</time></trkpt><trkpt lat="39.38329348566579" lon="8.494140977188415"><ele>448.33333333333337</ele><time>2026-04-27T10:50:27.8Z</time></trkpt><trkpt lat="39.38323235661213" lon="8.4939064876579"><ele>451.0</ele><time>2026-04-27T10:50:28.799Z</time></trkpt><trkpt lat="39.38315840566962" lon="8.49369335063005"><ele>451.33333333333337</ele><time>2026-04-27T10:50:29.799Z</time></trkpt><trkpt lat="39.38309457425821" lon="8.493463259286592"><ele>451.66666666666663</ele><time>2026-04-27T10:50:30.799Z</time></trkpt><trkpt lat="39.38302937940254" lon="8.493239703183631"><ele>452.0</ele><time>2026-04-27T10:50:31.799Z</time></trkpt><trkpt lat="39.38296029581059" lon="8.493010042851646"><ele>454.66666666666663</ele><time>2026-04-27T10:50:32.799Z</time></trkpt><trkpt lat="39.38291137643424" lon="8.492757848808504"><ele>457.33333333333337</ele><time>2026-04-27T10:50:33.799Z</time></trkpt><trkpt lat="39.382858181830485" lon="8.492502367521404"><ele>460.0</ele><time>2026-04-27T10:50:34.799Z</time></trkpt><trkpt lat="39.38279667032875" lon="8.492246522138615"><ele>463.33333333333337</ele><time>2026-04-27T10:50:35.799Z</time></trkpt><trkpt lat="39.382728161510215" lon="8.491991865736692"><ele>466.66666666666663</ele><time>2026-04-27T10:50:36.799Z</time></trkpt><trkpt lat="39.382676017640875" lon="8.491750242514291"><ele>470.0</ele><time>2026-04-27T10:50:37.799Z</time></trkpt><trkpt lat="39.382613508172554" lon="8.491557983659291"><ele>470.0</ele><time>2026-04-27T10:50:38.799Z</time></trkpt><trkpt lat="39.38251259417363" lon="8.491445280726875"><ele>470.0</ele><time>2026-04-27T10:50:39.799Z</time></trkpt><trkpt lat="39.38236655274479" lon="8.491408125235308"><ele>470.0</ele><time>2026-04-27T10:50:40.799Z</time></trkpt><trkpt lat="39.38219129404203" lon="8.491463795820344"><ele>473.25</ele><time>2026-04-27T10:50:41.799Z</time></trkpt><trkpt lat="39.38200964962582" lon="8.491577786965388"><ele>476.5</ele><time>2026-04-27T10:50:42.799Z</time></trkpt><trkpt lat="39.38188598758666" lon="8.491626194137504"><ele>479.75</ele><time>2026-04-27T10:50:43.799Z</time></trkpt><trkpt lat="39.38181526882376" lon="8.49172095673846"><ele>483.0</ele><time>2026-04-27T10:50:44.799Z</time></trkpt><trkpt lat="39.381810702727684" lon="8.491896747015199"><ele>483.33333333333337</ele><time>2026-04-27T10:50:45.799Z</time></trkpt><trkpt lat="39.38185986605344" lon="8.492114498763591"><ele>483.6666666666667</ele><time>2026-04-27T10:50:46.799Z</time></trkpt><trkpt lat="39.381862519158354" lon="8.492356198017642"><ele>484.0</ele><time>2026-04-27T10:50:47.799Z</time></trkpt><trkpt lat="39.381856817271235" lon="8.492599754678876"><ele>484.0</ele><time>2026-04-27T10:50:48.799Z</time></trkpt><trkpt lat="39.381843268804325" lon="8.492826111538813"><ele>484.0</ele><time>2026-04-27T10:50:49.799Z</time></trkpt><trkpt lat="39.381819235425716" lon="8.4930481150845"><ele>484.0</ele><time>2026-04-27T10:50:50.799Z</time></trkpt><trkpt lat="39.38180618052477" lon="8.49326925765682"><ele>484.0</ele><time>2026-04-27T10:50:51.799Z</time></trkpt><trkpt lat="39.38178937019197" lon="8.49348150810363"><ele>484.0</ele><time>2026-04-27T10:50:52.799Z</time></trkpt><trkpt lat="39.381745667956324" lon="8.493643136929798"><ele>484.0</ele><time>2026-04-27T10:50:53.799Z</time></trkpt><trkpt lat="39.3816669104609" lon="8.493777598713777"><ele>484.0</ele><time>2026-04-27T10:50:54.799Z</time></trkpt><trkpt lat="39.3815221662207" lon="8.49391535964881"><ele>482.0</ele><time>2026-04-27T10:50:55.799Z</time></trkpt><trkpt lat="39.381396190052364" lon="8.493988495752452"><ele>480.0</ele><time>2026-04-27T10:50:56.799Z</time></trkpt><trkpt lat="39.381249454794634" lon="8.493988270953492"><ele>478.0</ele><time>2026-04-27T10:50:57.799Z</time></trkpt><trkpt lat="39.38107938092252" lon="8.493938777932883"><ele>478.0</ele><time>2026-04-27T10:50:58.799Z</time></trkpt><trkpt lat="39.38092932569698" lon="8.493840027799505"><ele>478.0</ele><time>2026-04-27T10:50:59.799Z</time></trkpt><trkpt lat="39.38081539778359" lon="8.493681946957466"><ele>478.0</ele><time>2026-04-27T10:51:00.799Z</time></trkpt><trkpt lat="39.38068586919628" lon="8.493525904711774"><ele>485.33333333333337</ele><time>2026-04-27T10:51:01.799Z</time></trkpt><trkpt lat="39.380509407771" lon="8.493431802403475"><ele>492.66666666666663</ele><time>2026-04-27T10:51:02.799Z</time></trkpt><trkpt lat="39.38035936319458" lon="8.493452187676715"><ele>500.0</ele><time>2026-04-27T10:51:03.799Z</time></trkpt><trkpt lat="39.38020213102467" lon="8.493543826225432"><ele>500.0</ele><time>2026-04-27T10:51:04.799Z</time></trkpt><trkpt lat="39.38005766401456" lon="8.493696738863793"><ele>500.0</ele><time>2026-04-27T10:51:05.799Z</time></trkpt><trkpt lat="39.37995094413279" lon="8.493879663179696"><ele>500.0</ele><time>2026-04-27T10:51:06.799Z</time></trkpt><trkpt lat="39.379883957673364" lon="8.494057709392512"><ele>497.0</ele><time>2026-04-27T10:51:07.799Z</time></trkpt><trkpt lat="39.379792129055595" lon="8.494152228322742"><ele>494.0</ele><time>2026-04-27T10:51:08.799Z</time></trkpt><trkpt lat="39.37966482109285" lon="8.49418781331814"><ele>491.0</ele><time>2026-04-27T10:51:09.799Z</time></trkpt><trkpt lat="39.37955993727364" lon="8.494130831436996"><ele>488.0</ele><time>2026-04-27T10:51:10.799Z</time></trkpt><trkpt lat="39.379434408580174" lon="8.494018161676214"><ele>488.0</ele><time>2026-04-27T10:51:11.799Z</time></trkpt><trkpt lat="39.37932418626673" lon="8.49391924961218"><ele>488.0</ele><time>2026-04-27T10:51:12.799Z</time></trkpt><trkpt lat="39.37921798543468" lon="8.493819700267574"><ele>488.0</ele><time>2026-04-27T10:51:13.799Z</time></trkpt><trkpt lat="39.37910781941499" lon="8.493731003758802"><ele>488.0</ele><time>2026-04-27T10:51:14.799Z</time></trkpt><trkpt lat="39.3790208992494" lon="8.493625690672841"><ele>487.75</ele><time>2026-04-27T10:51:15.799Z</time></trkpt><trkpt lat="39.37894659963532" lon="8.493494589542227"><ele>487.5</ele><time>2026-04-27T10:51:16.799Z</time></trkpt><trkpt lat="39.37886762464231" lon="8.493362658004829"><ele>487.25</ele><time>2026-04-27T10:51:17.799Z</time></trkpt><trkpt lat="39.37879762361738" lon="8.49321250449928"><ele>487.0</ele><time>2026-04-27T10:51:18.799Z</time></trkpt><trkpt lat="39.378723435249476" lon="8.49306632211884"><ele>493.0</ele><time>2026-04-27T10:51:19.799Z</time></trkpt><trkpt lat="39.378644764444665" lon="8.492908161654116"><ele>499.0</ele><time>2026-04-27T10:51:20.798Z</time></trkpt><trkpt lat="39.37855484368672" lon="8.492754863655987"><ele>505.0</ele><time>2026-04-27T10:51:21.798Z</time></trkpt><trkpt lat="39.37847930504186" lon="8.492599934689876"><ele>511.0</ele><time>2026-04-27T10:51:22.798Z</time></trkpt><trkpt lat="39.37839712997333" lon="8.492448214500678"><ele>511.0</ele><time>2026-04-27T10:51:23.798Z</time></trkpt><trkpt lat="39.37831815566732" lon="8.49229559374086"><ele>511.0</ele><time>2026-04-27T10:51:24.798Z</time></trkpt><trkpt lat="39.37822847644138" lon="8.492151980964728"><ele>511.0</ele><time>2026-04-27T10:51:25.798Z</time></trkpt><trkpt lat="39.37810556455945" lon="8.492059704529241"><ele>511.0</ele><time>2026-04-27T10:51:26.798Z</time></trkpt><trkpt lat="39.37795286812195" lon="8.492062677241739"><ele>511.75</ele><time>2026-04-27T10:51:27.798Z</time></trkpt><trkpt lat="39.37780458896973" lon="8.492093005459664"><ele>512.5</ele><time>2026-04-27T10:51:28.798Z</time></trkpt><trkpt lat="39.37765028378186" lon="8.49210613620283"><ele>513.25</ele><time>2026-04-27T10:51:29.798Z</time></trkpt><trkpt lat="39.377507960930124" lon="8.492103526577404"><ele>514.0</ele><time>2026-04-27T10:51:30.798Z</time></trkpt><trkpt lat="39.37738316961048" lon="8.492148080568905"><ele>514.0</ele><time>2026-04-27T10:51:31.798Z</time></trkpt><trkpt lat="39.37731592002818" lon="8.492265975292351"><ele>514.0</ele><time>2026-04-27T10:51:32.798Z</time></trkpt><trkpt lat="39.37732820284355" lon="8.492413457874159"><ele>514.0</ele><time>2026-04-27T10:51:33.798Z</time></trkpt><trkpt lat="39.37737000953068" lon="8.492579977780657"><ele>514.0</ele><time>2026-04-27T10:51:34.798Z</time></trkpt><trkpt lat="39.37735473680902" lon="8.492728621939706"><ele>514.0</ele><time>2026-04-27T10:51:35.798Z</time></trkpt><trkpt lat="39.37726509095613" lon="8.492845217798118"><ele>514.0</ele><time>2026-04-27T10:51:36.798Z</time></trkpt><trkpt lat="39.37714342048554" lon="8.492939398525175"><ele>514.0</ele><time>2026-04-27T10:51:37.798Z</time></trkpt><trkpt lat="39.37701394086916" lon="8.493015269838793"><ele>514.0</ele><time>2026-04-27T10:51:38.798Z</time></trkpt><trkpt lat="39.37689662562169" lon="8.493080592627017"><ele>513.75</ele><time>2026-04-27T10:51:39.798Z</time></trkpt><trkpt lat="39.37677774184258" lon="8.493132441968951"><ele>513.5</ele><time>2026-04-27T10:51:40.798Z</time></trkpt><trkpt lat="39.37666034667611" lon="8.493172404954533"><ele>513.25</ele><time>2026-04-27T10:51:41.798Z</time></trkpt><trkpt lat="39.37654726349403" lon="8.493126721627807"><ele>513.0</ele><time>2026-04-27T10:51:42.798Z</time></trkpt><trkpt lat="39.37644997716553" lon="8.493005941450653"><ele>518.0</ele><time>2026-04-27T10:51:43.798Z</time></trkpt><trkpt lat="39.376353983356644" lon="8.49287078115491"><ele>523.0</ele><time>2026-04-27T10:51:44.798Z</time></trkpt><trkpt lat="39.37623645394124" lon="8.492791750796266"><ele>528.0</ele><time>2026-04-27T10:51:45.798Z</time></trkpt><trkpt lat="39.376095499157366" lon="8.492786690801736"><ele>533.0</ele><time>2026-04-27T10:51:46.798Z</time></trkpt><trkpt lat="39.37596144828782" lon="8.49285432833403"><ele>530.3333333333333</ele><time>2026-04-27T10:51:47.798Z</time></trkpt><trkpt lat="39.375838969644434" lon="8.493004050736435"><ele>527.6666666666666</ele><time>2026-04-27T10:51:48.798Z</time></trkpt><trkpt lat="39.3757242048414" lon="8.493149355891084"><ele>525.0</ele><time>2026-04-27T10:51:49.798Z</time></trkpt><trkpt lat="39.375596868890845" lon="8.493272887329436"><ele>534.0</ele><time>2026-04-27T10:51:50.798Z</time></trkpt><trkpt lat="39.375452439344976" lon="8.493366900041439"><ele>543.0</ele><time>2026-04-27T10:51:51.798Z</time></trkpt><trkpt lat="39.37531366984151" lon="8.493483715026263"><ele>552.0</ele><time>2026-04-27T10:51:52.798Z</time></trkpt><trkpt lat="39.37518987613942" lon="8.493628115340169"><ele>548.6666666666666</ele><time>2026-04-27T10:51:53.798Z</time></trkpt><trkpt lat="39.37511006708959" lon="8.493805801505724"><ele>545.3333333333333</ele><time>2026-04-27T10:51:54.798Z</time></trkpt><trkpt lat="39.37509511492973" lon="8.494000859212374"><ele>542.0</ele><time>2026-04-27T10:51:55.798Z</time></trkpt><trkpt lat="39.37516091404306" lon="8.494169512931098"><ele>542.0</ele><time>2026-04-27T10:51:56.798Z</time></trkpt><trkpt lat="39.375216195114376" lon="8.494315799558029"><ele>542.0</ele><time>2026-04-27T10:51:57.798Z</time></trkpt><trkpt lat="39.375178503410375" lon="8.494492828353781"><ele>542.0</ele><time>2026-04-27T10:51:58.798Z</time></trkpt><trkpt lat="39.3751063768055" lon="8.494660595167357"><ele>542.0</ele><time>2026-04-27T10:51:59.798Z</time></trkpt><trkpt lat="39.3750093271076" lon="8.494824258332635"><ele>539.3333333333333</ele><time>2026-04-27T10:52:00.798Z</time></trkpt><trkpt lat="39.37488780665506" lon="8.494960507314591"><ele>536.6666666666666</ele><time>2026-04-27T10:52:01.798Z</time></trkpt><trkpt lat="39.37475377862687" lon="8.495050107287497"><ele>534.0</ele><time>2026-04-27T10:52:02.798Z</time></trkpt><trkpt lat="39.37463117433816" lon="8.495143439099147"><ele>539.6666666666666</ele><time>2026-04-27T10:52:03.798Z</time></trkpt><trkpt lat="39.374546550400964" lon="8.495285261369098"><ele>545.3333333333333</ele><time>2026-04-27T10:52:04.798Z</time></trkpt><trkpt lat="39.37455313813936" lon="8.495487311005615"><ele>551.0</ele><time>2026-04-27T10:52:05.798Z</time></trkpt><trkpt lat="39.37457773116015" lon="8.495690762882145"><ele>551.0</ele><time>2026-04-27T10:52:06.799Z</time></trkpt><trkpt lat="39.37457013175761" lon="8.495874443534762"><ele>551.0</ele><time>2026-04-27T10:52:07.799Z</time></trkpt><trkpt lat="39.374499672566536" lon="8.496053478384573"><ele>551.0</ele><time>2026-04-27T10:52:08.799Z</time></trkpt><trkpt lat="39.37441646713153" lon="8.496208245681807"><ele>551.0</ele><time>2026-04-27T10:52:09.799Z</time></trkpt><trkpt lat="39.37433958338146" lon="8.49632501518113"><ele>550.0</ele><time>2026-04-27T10:52:10.798Z</time></trkpt><trkpt lat="39.37426456086333" lon="8.496441593957496"><ele>549.0</ele><time>2026-04-27T10:52:11.798Z</time></trkpt><trkpt lat="39.374186436874616" lon="8.49654540061297"><ele>548.0</ele><time>2026-04-27T10:52:12.798Z</time></trkpt><trkpt lat="39.37411265174465" lon="8.496650551917385"><ele>547.0</ele><time>2026-04-27T10:52:13.799Z</time></trkpt><trkpt lat="39.37403909079643" lon="8.49674928957294"><ele>546.0</ele><time>2026-04-27T10:52:14.799Z</time></trkpt><trkpt lat="39.37396248702166" lon="8.496851741695757"><ele>546.0</ele><time>2026-04-27T10:52:15.798Z</time></trkpt><trkpt lat="39.373888185553334" lon="8.496953610593346"><ele>546.0</ele><time>2026-04-27T10:52:16.798Z</time></trkpt><trkpt lat="39.3738180868347" lon="8.497054590218664"><ele>546.0</ele><time>2026-04-27T10:52:17.798Z</time></trkpt><trkpt lat="39.3737464471364" lon="8.497154429033065"><ele>546.0</ele><time>2026-04-27T10:52:18.798Z</time></trkpt><trkpt lat="39.37367652521975" lon="8.497277345099395"><ele>546.0</ele><time>2026-04-27T10:52:19.798Z</time></trkpt><trkpt lat="39.37359415854987" lon="8.497405509466626"><ele>545.75</ele><time>2026-04-27T10:52:20.798Z</time></trkpt><trkpt lat="39.37349864550963" lon="8.497521847056419"><ele>545.5</ele><time>2026-04-27T10:52:21.798Z</time></trkpt><trkpt lat="39.373400974976846" lon="8.497656092650647"><ele>545.25</ele><time>2026-04-27T10:52:22.798Z</time></trkpt><trkpt lat="39.37330644441673" lon="8.497803080114139"><ele>545.0</ele><time>2026-04-27T10:52:23.798Z</time></trkpt><trkpt lat="39.37320812763227" lon="8.497960671105453"><ele>542.6666666666666</ele><time>2026-04-27T10:52:24.798Z</time></trkpt><trkpt lat="39.373107588967784" lon="8.498119889329228"><ele>540.3333333333334</ele><time>2026-04-27T10:52:25.798Z</time></trkpt><trkpt lat="39.37300076154731" lon="8.498259644824865"><ele>538.0</ele><time>2026-04-27T10:52:26.798Z</time></trkpt><trkpt lat="39.37287428391258" lon="8.498374737457423"><ele>538.0</ele><time>2026-04-27T10:52:27.798Z</time></trkpt><trkpt lat="39.37272880329235" lon="8.498451865319037"><ele>538.0</ele><time>2026-04-27T10:52:28.798Z</time></trkpt><trkpt lat="39.37256820345845" lon="8.498476250398614"><ele>538.0</ele><time>2026-04-27T10:52:29.798Z</time></trkpt><trkpt lat="39.37240283820575" lon="8.498467426238323"><ele>538.0</ele><time>2026-04-27T10:52:30.798Z</time></trkpt><trkpt lat="39.37223693051309" lon="8.498470196232022"><ele>538.0</ele><time>2026-04-27T10:52:31.798Z</time></trkpt><trkpt lat="39.372073206359616" lon="8.498541167397862"><ele>538.0</ele><time>2026-04-27T10:52:32.798Z</time></trkpt><trkpt lat="39.37191177624992" lon="8.498640527833674"><ele>540.6666666666667</ele><time>2026-04-27T10:52:33.798Z</time></trkpt><trkpt lat="39.37176899986747" lon="8.498790146722756"><ele>543.3333333333334</ele><time>2026-04-27T10:52:34.798Z</time></trkpt><trkpt lat="39.371641560519066" lon="8.49897215743975"><ele>546.0</ele><time>2026-04-27T10:52:35.798Z</time></trkpt><trkpt lat="39.371492952328204" lon="8.499127399888572"><ele>541.6666666666666</ele><time>2026-04-27T10:52:36.798Z</time></trkpt><trkpt lat="39.37133004639234" lon="8.499237156401401"><ele>537.3333333333333</ele><time>2026-04-27T10:52:37.798Z</time></trkpt><trkpt lat="39.37117542673012" lon="8.499302979378959"><ele>533.0</ele><time>2026-04-27T10:52:38.798Z</time></trkpt><trkpt lat="39.37104727381082" lon="8.499281395421066"><ele>533.0</ele><time>2026-04-27T10:52:39.798Z</time></trkpt><trkpt lat="39.37094648217202" lon="8.499157276379364"><ele>533.0</ele><time>2026-04-27T10:52:40.798Z</time></trkpt><trkpt lat="39.37088551779355" lon="8.498959266936328"><ele>533.0</ele><time>2026-04-27T10:52:41.798Z</time></trkpt><trkpt lat="39.37084101981915" lon="8.498771387769969"><ele>527.5</ele><time>2026-04-27T10:52:42.798Z</time></trkpt><trkpt lat="39.37074855876944" lon="8.49867589818553"><ele>522.0</ele><time>2026-04-27T10:52:43.798Z</time></trkpt><trkpt lat="39.37060041063597" lon="8.49865186423622"><ele>516.5</ele><time>2026-04-27T10:52:44.798Z</time></trkpt><trkpt lat="39.37046094474238" lon="8.498717876724328"><ele>511.0</ele><time>2026-04-27T10:52:45.798Z</time></trkpt><trkpt lat="39.370364335123334" lon="8.498862134478346"><ele>509.6666666666667</ele><time>2026-04-27T10:52:46.798Z</time></trkpt><trkpt lat="39.37032193429663" lon="8.499070584733222"><ele>508.33333333333337</ele><time>2026-04-27T10:52:47.798Z</time></trkpt><trkpt lat="39.37034095498687" lon="8.499303940949643"><ele>507.0</ele><time>2026-04-27T10:52:48.798Z</time></trkpt><trkpt lat="39.37037539778258" lon="8.499525971105896"><ele>512.0</ele><time>2026-04-27T10:52:49.798Z</time></trkpt><trkpt lat="39.37034026095434" lon="8.499727074487975"><ele>517.0</ele><time>2026-04-27T10:52:50.798Z</time></trkpt><trkpt lat="39.37023430287392" lon="8.499924088347784"><ele>522.0</ele><time>2026-04-27T10:52:51.798Z</time></trkpt><trkpt lat="39.370098166296685" lon="8.500082347079658"><ele>522.0</ele><time>2026-04-27T10:52:52.798Z</time></trkpt><trkpt lat="39.36994129402191" lon="8.500184054693024"><ele>522.0</ele><time>2026-04-27T10:52:53.798Z</time></trkpt><trkpt lat="39.36979491660705" lon="8.500272864898953"><ele>522.0</ele><time>2026-04-27T10:52:54.798Z</time></trkpt><trkpt lat="39.36966725483542" lon="8.500343712833223"><ele>520.75</ele><time>2026-04-27T10:52:55.798Z</time></trkpt><trkpt lat="39.369579049946175" lon="8.500458069006672"><ele>519.5</ele><time>2026-04-27T10:52:56.798Z</time></trkpt><trkpt lat="39.369534018138836" lon="8.500600649213519"><ele>518.25</ele><time>2026-04-27T10:52:57.798Z</time></trkpt><trkpt lat="39.369508817970484" lon="8.50075331792269"><ele>517.0</ele><time>2026-04-27T10:52:58.797Z</time></trkpt><trkpt lat="39.36947310488373" lon="8.500911103495852"><ele>517.0</ele><time>2026-04-27T10:52:59.797Z</time></trkpt><trkpt lat="39.36941185218362" lon="8.501020708386617"><ele>517.0</ele><time>2026-04-27T10:53:00.797Z</time></trkpt><trkpt lat="39.36929956239568" lon="8.501059846285928"><ele>517.0</ele><time>2026-04-27T10:53:01.797Z</time></trkpt><trkpt lat="39.36916086096723" lon="8.501006841833718"><ele>517.0</ele><time>2026-04-27T10:53:02.797Z</time></trkpt><trkpt lat="39.36901321756403" lon="8.500930278503558"><ele>517.0</ele><time>2026-04-27T10:53:03.797Z</time></trkpt><trkpt lat="39.36886150383343" lon="8.500870428787554"><ele>517.0</ele><time>2026-04-27T10:53:04.797Z</time></trkpt><trkpt lat="39.368709619153414" lon="8.500841167019846"><ele>517.0</ele><time>2026-04-27T10:53:05.797Z</time></trkpt><trkpt lat="39.36855349416843" lon="8.500828475989682"><ele>514.25</ele><time>2026-04-27T10:53:06.797Z</time></trkpt><trkpt lat="39.368406092638644" lon="8.50082119389591"><ele>511.5</ele><time>2026-04-27T10:53:07.797Z</time></trkpt><trkpt lat="39.36826765224824" lon="8.500846239628284"><ele>508.75</ele><time>2026-04-27T10:53:08.797Z</time></trkpt><trkpt lat="39.368132861888185" lon="8.500921218565953"><ele>506.0</ele><time>2026-04-27T10:53:09.797Z</time></trkpt><trkpt lat="39.36802722175873" lon="8.501048170720413"><ele>506.5</ele><time>2026-04-27T10:53:10.797Z</time></trkpt><trkpt lat="39.36798587652262" lon="8.501202961792304"><ele>507.0</ele><time>2026-04-27T10:53:11.797Z</time></trkpt><trkpt lat="39.36801026220701" lon="8.501384965524716"><ele>507.5</ele><time>2026-04-27T10:53:12.797Z</time></trkpt><trkpt lat="39.36810795509164" lon="8.501540491373591"><ele>508.0</ele><time>2026-04-27T10:53:13.797Z</time></trkpt><trkpt lat="39.368253729325765" lon="8.501701088885747"><ele>508.0</ele><time>2026-04-27T10:53:14.797Z</time></trkpt><trkpt lat="39.36839979448506" lon="8.501843478913132"><ele>508.0</ele><time>2026-04-27T10:53:15.797Z</time></trkpt><trkpt lat="39.368511659121594" lon="8.501966204840055"><ele>508.0</ele><time>2026-04-27T10:53:16.797Z</time></trkpt><trkpt lat="39.36856688342054" lon="8.502076097651917"><ele>508.0</ele><time>2026-04-27T10:53:17.797Z</time></trkpt><trkpt lat="39.36854465133146" lon="8.502184433840414"><ele>509.25</ele><time>2026-04-27T10:53:18.797Z</time></trkpt><trkpt lat="39.36844624170116" lon="8.502244506630515"><ele>510.5</ele><time>2026-04-27T10:53:19.797Z</time></trkpt><trkpt lat="39.368295373029696" lon="8.502252233831944"><ele>511.75</ele><time>2026-04-27T10:53:20.797Z</time></trkpt><trkpt lat="39.36812305115155" lon="8.50229329594063"><ele>513.0</ele><time>2026-04-27T10:53:21.797Z</time></trkpt><trkpt lat="39.36792718085774" lon="8.502338021245539"><ele>509.33333333333337</ele><time>2026-04-27T10:53:22.797Z</time></trkpt><trkpt lat="39.36772273667418" lon="8.502383076763401"><ele>505.6666666666667</ele><time>2026-04-27T10:53:23.797Z</time></trkpt><trkpt lat="39.36752790323301" lon="8.502434777264192"><ele>502.0</ele><time>2026-04-27T10:53:24.797Z</time></trkpt><trkpt lat="39.367350765481454" lon="8.502465889295905"><ele>501.6666666666667</ele><time>2026-04-27T10:53:25.797Z</time></trkpt><trkpt lat="39.36717708353495" lon="8.502467374694692"><ele>501.33333333333337</ele><time>2026-04-27T10:53:26.797Z</time></trkpt><trkpt lat="39.36700400066832" lon="8.502413324102239"><ele>501.0</ele><time>2026-04-27T10:53:27.797Z</time></trkpt><trkpt lat="39.36684488624367" lon="8.502313676706363"><ele>501.0</ele><time>2026-04-27T10:53:28.797Z</time></trkpt><trkpt lat="39.366686948133385" lon="8.502204406481239"><ele>501.0</ele><time>2026-04-27T10:53:29.797Z</time></trkpt><trkpt lat="39.36650886449673" lon="8.502137330243862"><ele>501.0</ele><time>2026-04-27T10:53:30.797Z</time></trkpt><trkpt lat="39.36632340748811" lon="8.502115673945369"><ele>498.0</ele><time>2026-04-27T10:53:31.797Z</time></trkpt><trkpt lat="39.36616399748664" lon="8.502123377089397"><ele>495.0</ele><time>2026-04-27T10:53:32.797Z</time></trkpt><trkpt lat="39.366022374794845" lon="8.502191203549788"><ele>492.0</ele><time>2026-04-27T10:53:33.797Z</time></trkpt><trkpt lat="39.36590382335471" lon="8.502312963052733"><ele>492.0</ele><time>2026-04-27T10:53:34.797Z</time></trkpt><trkpt lat="39.36576823734544" lon="8.502419801551007"><ele>492.0</ele><time>2026-04-27T10:53:35.797Z</time></trkpt><trkpt lat="39.36558285041968" lon="8.502464612208518"><ele>492.0</ele><time>2026-04-27T10:53:36.797Z</time></trkpt><trkpt lat="39.36539685510165" lon="8.502494650541555"><ele>488.33333333333337</ele><time>2026-04-27T10:53:37.797Z</time></trkpt><trkpt lat="39.36520049466925" lon="8.502531101989476"><ele>484.6666666666667</ele><time>2026-04-27T10:53:38.797Z</time></trkpt><trkpt lat="39.36501870399643" lon="8.502563435114917"><ele>481.0</ele><time>2026-04-27T10:53:39.797Z</time></trkpt><trkpt lat="39.36486036076342" lon="8.502591595950927"><ele>481.0</ele><time>2026-04-27T10:53:40.797Z</time></trkpt><trkpt lat="39.364729779567135" lon="8.502576808451431"><ele>481.0</ele><time>2026-04-27T10:53:41.797Z</time></trkpt><trkpt lat="39.36463124963958" lon="8.502467457188162"><ele>481.0</ele><time>2026-04-27T10:53:42.797Z</time></trkpt><trkpt lat="39.3645925514805" lon="8.502302812038176"><ele>481.0</ele><time>2026-04-27T10:53:43.797Z</time></trkpt><trkpt lat="39.36460592917788" lon="8.502101946474866"><ele>482.33333333333337</ele><time>2026-04-27T10:53:44.797Z</time></trkpt><trkpt lat="39.36467039975948" lon="8.501899787105053"><ele>483.66666666666663</ele><time>2026-04-27T10:53:45.797Z</time></trkpt><trkpt lat="39.364731757893246" lon="8.501696442807374"><ele>485.0</ele><time>2026-04-27T10:53:46.797Z</time></trkpt><trkpt lat="39.36475381390344" lon="8.501486988531083"><ele>478.66666666666663</ele><time>2026-04-27T10:53:47.797Z</time></trkpt><trkpt lat="39.36473203791367" lon="8.50129686992709"><ele>472.33333333333337</ele><time>2026-04-27T10:53:48.797Z</time></trkpt><trkpt lat="39.36465143474673" lon="8.501118900016836"><ele>466.0</ele><time>2026-04-27T10:53:49.797Z</time></trkpt><trkpt lat="39.364537968426916" lon="8.500955943182293"><ele>466.0</ele><time>2026-04-27T10:53:50.796Z</time></trkpt><trkpt lat="39.36440199810829" lon="8.500857096653982"><ele>466.0</ele><time>2026-04-27T10:53:51.796Z</time></trkpt><trkpt lat="39.364230417254745" lon="8.500813681711685"><ele>466.0</ele><time>2026-04-27T10:53:52.796Z</time></trkpt><trkpt lat="39.364054503225056" lon="8.500783980707217"><ele>466.0</ele><time>2026-04-27T10:53:53.796Z</time></trkpt><trkpt lat="39.36387295696226" lon="8.500756396358375"><ele>466.0</ele><time>2026-04-27T10:53:54.796Z</time></trkpt><trkpt lat="39.36370589859293" lon="8.500761443038487"><ele>466.0</ele><time>2026-04-27T10:53:55.796Z</time></trkpt><trkpt lat="39.36353240008203" lon="8.50080654298898"><ele>465.33333333333337</ele><time>2026-04-27T10:53:56.796Z</time></trkpt><trkpt lat="39.36335169607553" lon="8.500872309703043"><ele>464.66666666666663</ele><time>2026-04-27T10:53:57.796Z</time></trkpt><trkpt lat="39.36316255491103" lon="8.500925945208499"><ele>464.0</ele><time>2026-04-27T10:53:58.796Z</time></trkpt><trkpt lat="39.36298248169575" lon="8.501016453066521"><ele>461.66666666666663</ele><time>2026-04-27T10:53:59.796Z</time></trkpt><trkpt lat="39.36283323683572" lon="8.501137696356247"><ele>459.33333333333337</ele><time>2026-04-27T10:54:00.796Z</time></trkpt><trkpt lat="39.36272052130522" lon="8.5012979739712"><ele>457.0</ele><time>2026-04-27T10:54:01.796Z</time></trkpt><trkpt lat="39.36265769842973" lon="8.501510600039946"><ele>457.0</ele><time>2026-04-27T10:54:02.796Z</time></trkpt><trkpt lat="39.36255258911646" lon="8.50169846298714"><ele>457.0</ele><time>2026-04-27T10:54:03.796Z</time></trkpt><trkpt lat="39.362385764662875" lon="8.501816504721706"><ele>457.0</ele><time>2026-04-27T10:54:04.796Z</time></trkpt><trkpt lat="39.36219121537134" lon="8.501863712795487"><ele>452.25</ele><time>2026-04-27T10:54:05.796Z</time></trkpt><trkpt lat="39.36203186380485" lon="8.501873055944849"><ele>447.5</ele><time>2026-04-27T10:54:06.796Z</time></trkpt><trkpt lat="39.36191767776158" lon="8.501934207755088"><ele>442.75</ele><time>2026-04-27T10:54:07.796Z</time></trkpt><trkpt lat="39.361879956448405" lon="8.502072927060954"><ele>438.0</ele><time>2026-04-27T10:54:08.796Z</time></trkpt><trkpt lat="39.361919209048864" lon="8.502220069481178"><ele>438.0</ele><time>2026-04-27T10:54:09.798Z</time></trkpt><trkpt lat="39.36203442210288" lon="8.502317768144406"><ele>438.0</ele><time>2026-04-27T10:54:10.798Z</time></trkpt><trkpt lat="39.36219889971905" lon="8.502360715278098"><ele>438.0</ele><time>2026-04-27T10:54:11.798Z</time></trkpt><trkpt lat="39.362366242152966" lon="8.502415092248963"><ele>443.0</ele><time>2026-04-27T10:54:12.798Z</time></trkpt><trkpt lat="39.36253739111769" lon="8.502473087845575"><ele>448.0</ele><time>2026-04-27T10:54:13.797Z</time></trkpt><trkpt lat="39.36268256770085" lon="8.502528853190855"><ele>453.0</ele><time>2026-04-27T10:54:14.797Z</time></trkpt><trkpt lat="39.36279514597634" lon="8.502596605917706"><ele>453.0</ele><time>2026-04-27T10:54:15.798Z</time></trkpt><trkpt lat="39.3628498680692" lon="8.502742845042807"><ele>453.0</ele><time>2026-04-27T10:54:16.798Z</time></trkpt><trkpt lat="39.36284660373557" lon="8.502915503422706"><ele>453.0</ele><time>2026-04-27T10:54:17.798Z</time></trkpt><trkpt lat="39.362761482408175" lon="8.503091503423345"><ele>453.0</ele><time>2026-04-27T10:54:18.798Z</time></trkpt><trkpt lat="39.36262012022874" lon="8.50324716090351"><ele>452.33333333333337</ele><time>2026-04-27T10:54:19.797Z</time></trkpt><trkpt lat="39.36246121467474" lon="8.503379010476554"><ele>451.6666666666667</ele><time>2026-04-27T10:54:20.797Z</time></trkpt><trkpt lat="39.36230905253375" lon="8.50350741961376"><ele>451.0</ele><time>2026-04-27T10:54:21.798Z</time></trkpt><trkpt lat="39.36216239273646" lon="8.503651410116138"><ele>446.0</ele><time>2026-04-27T10:54:22.797Z</time></trkpt><trkpt lat="39.36201310459317" lon="8.503800857208082"><ele>441.0</ele><time>2026-04-27T10:54:23.797Z</time></trkpt><trkpt lat="39.36186431943058" lon="8.503954750916023"><ele>436.0</ele><time>2026-04-27T10:54:24.797Z</time></trkpt><trkpt lat="39.36172320606399" lon="8.504118014617568"><ele>436.0</ele><time>2026-04-27T10:54:25.797Z</time></trkpt><trkpt lat="39.36158351220825" lon="8.504287627262094"><ele>436.0</ele><time>2026-04-27T10:54:26.797Z</time></trkpt><trkpt lat="39.361459168107665" lon="8.504452025929597"><ele>436.0</ele><time>2026-04-27T10:54:27.797Z</time></trkpt><trkpt lat="39.361335994500166" lon="8.50459615202188"><ele>430.0</ele><time>2026-04-27T10:54:28.797Z</time></trkpt><trkpt lat="39.36123735447399" lon="8.504719681731817"><ele>424.0</ele><time>2026-04-27T10:54:29.797Z</time></trkpt><trkpt lat="39.36118245754997" lon="8.504845653671945"><ele>418.0</ele><time>2026-04-27T10:54:30.796Z</time></trkpt><trkpt lat="39.36119402040668" lon="8.504997230972794"><ele>412.0</ele><time>2026-04-27T10:54:31.796Z</time></trkpt><trkpt lat="39.36126488733196" lon="8.505160875443988"><ele>412.0</ele><time>2026-04-27T10:54:32.796Z</time></trkpt><trkpt lat="39.36133865325001" lon="8.505318513818692"><ele>412.0</ele><time>2026-04-27T10:54:33.796Z</time></trkpt><trkpt lat="39.36134107267412" lon="8.505473448075206"><ele>412.0</ele><time>2026-04-27T10:54:34.796Z</time></trkpt><trkpt lat="39.36126765322296" lon="8.505629418407667"><ele>412.0</ele><time>2026-04-27T10:54:35.796Z</time></trkpt><trkpt lat="39.361188944210156" lon="8.505791840660319"><ele>412.33333333333337</ele><time>2026-04-27T10:54:36.796Z</time></trkpt><trkpt lat="39.36116075112095" lon="8.50599017981568"><ele>412.66666666666663</ele><time>2026-04-27T10:54:37.796Z</time></trkpt><trkpt lat="39.36119412095559" lon="8.50619599197073"><ele>413.0</ele><time>2026-04-27T10:54:38.796Z</time></trkpt><trkpt lat="39.36129424696118" lon="8.506362226866429"><ele>417.0</ele><time>2026-04-27T10:54:39.796Z</time></trkpt><trkpt lat="39.36145059552038" lon="8.506493756817044"><ele>421.0</ele><time>2026-04-27T10:54:40.796Z</time></trkpt><trkpt lat="39.36160934033838" lon="8.506565252742163"><ele>425.0</ele><time>2026-04-27T10:54:41.796Z</time></trkpt><trkpt lat="39.361762320043155" lon="8.506542482550712"><ele>425.0</ele><time>2026-04-27T10:54:42.796Z</time></trkpt><trkpt lat="39.36190264028644" lon="8.506463080257754"><ele>425.0</ele><time>2026-04-27T10:54:43.796Z</time></trkpt><trkpt lat="39.3620168189776" lon="8.506430792639469"><ele>425.0</ele><time>2026-04-27T10:54:44.796Z</time></trkpt><trkpt lat="39.36210511129907" lon="8.506509181948362"><ele>425.0</ele><time>2026-04-27T10:54:45.796Z</time></trkpt><trkpt lat="39.36215495133932" lon="8.506673589526406"><ele>425.0</ele><time>2026-04-27T10:54:46.796Z</time></trkpt><trkpt lat="39.362174773713974" lon="8.506897856958341"><ele>425.0</ele><time>2026-04-27T10:54:47.796Z</time></trkpt><trkpt lat="39.362133457453076" lon="8.507081167873459"><ele>425.0</ele><time>2026-04-27T10:54:48.796Z</time></trkpt><trkpt lat="39.362020439226285" lon="8.507220987839407"><ele>428.66666666666663</ele><time>2026-04-27T10:54:49.796Z</time></trkpt><trkpt lat="39.36185866192017" lon="8.507323118716"><ele>432.33333333333337</ele><time>2026-04-27T10:54:50.796Z</time></trkpt><trkpt lat="39.36169461874528" lon="8.507388653499099"><ele>436.0</ele><time>2026-04-27T10:54:51.796Z</time></trkpt><trkpt lat="39.361525145016955" lon="8.507424020535625"><ele>433.33333333333337</ele><time>2026-04-27T10:54:52.796Z</time></trkpt><trkpt lat="39.361357563077895" lon="8.507422350969305"><ele>430.66666666666663</ele><time>2026-04-27T10:54:53.796Z</time></trkpt><trkpt lat="39.36118022495943" lon="8.507398069036995"><ele>428.0</ele><time>2026-04-27T10:54:54.796Z</time></trkpt><trkpt lat="39.361002898876684" lon="8.507356970169546"><ele>428.0</ele><time>2026-04-27T10:54:55.796Z</time></trkpt><trkpt lat="39.360825336533054" lon="8.507291687638062"><ele>428.0</ele><time>2026-04-27T10:54:56.796Z</time></trkpt><trkpt lat="39.360642174364465" lon="8.50721917372437"><ele>428.0</ele><time>2026-04-27T10:54:57.796Z</time></trkpt><trkpt lat="39.360459881865026" lon="8.50714005758373"><ele>425.3333333333333</ele><time>2026-04-27T10:54:58.796Z</time></trkpt><trkpt lat="39.36027791039017" lon="8.507090847157492"><ele>422.66666666666663</ele><time>2026-04-27T10:54:59.796Z</time></trkpt><trkpt lat="39.36008797454148" lon="8.507087593677875"><ele>420.0</ele><time>2026-04-27T10:55:00.796Z</time></trkpt><trkpt lat="39.3599128775133" lon="8.507127486655362"><ele>420.0</ele><time>2026-04-27T10:55:01.796Z</time></trkpt><trkpt lat="39.3597740601598" lon="8.507177152138263"><ele>420.0</ele><time>2026-04-27T10:55:02.796Z</time></trkpt><trkpt lat="39.35966931728556" lon="8.507273869859226"><ele>420.0</ele><time>2026-04-27T10:55:03.796Z</time></trkpt><trkpt lat="39.35961598779857" lon="8.507429963461187"><ele>420.0</ele><time>2026-04-27T10:55:04.796Z</time></trkpt><trkpt lat="39.359563354555945" lon="8.507612719132187"><ele>410.0</ele><time>2026-04-27T10:55:05.796Z</time></trkpt><trkpt lat="39.359443630415605" lon="8.507714193181963"><ele>400.0</ele><time>2026-04-27T10:55:06.796Z</time></trkpt><trkpt lat="39.3592955122033" lon="8.507761193495705"><ele>390.0</ele><time>2026-04-27T10:55:07.796Z</time></trkpt><trkpt lat="39.35915569188287" lon="8.507851145597424"><ele>395.0</ele><time>2026-04-27T10:55:08.796Z</time></trkpt><trkpt lat="39.35902738374898" lon="8.507984877438906"><ele>400.0</ele><time>2026-04-27T10:55:09.796Z</time></trkpt><trkpt lat="39.35893728059954" lon="8.508120078483229"><ele>405.0</ele><time>2026-04-27T10:55:10.796Z</time></trkpt><trkpt lat="39.358911361267594" lon="8.508271600958055"><ele>410.0</ele><time>2026-04-27T10:55:11.796Z</time></trkpt><trkpt lat="39.35895987438466" lon="8.508459917091129"><ele>410.0</ele><time>2026-04-27T10:55:12.796Z</time></trkpt><trkpt lat="39.35902596711817" lon="8.508665121811667"><ele>410.0</ele><time>2026-04-27T10:55:13.796Z</time></trkpt><trkpt lat="39.359083593511166" lon="8.508868094419283"><ele>410.0</ele><time>2026-04-27T10:55:14.796Z</time></trkpt><trkpt lat="39.35911560819807" lon="8.509027229088113"><ele>410.25</ele><time>2026-04-27T10:55:15.796Z</time></trkpt><trkpt lat="39.35907377653975" lon="8.509165121963472"><ele>410.5</ele><time>2026-04-27T10:55:16.796Z</time></trkpt><trkpt lat="39.35897118947358" lon="8.509239184252865"><ele>410.75</ele><time>2026-04-27T10:55:17.796Z</time></trkpt><trkpt lat="39.358830056996844" lon="8.509241293257853"><ele>411.0</ele><time>2026-04-27T10:55:18.796Z</time></trkpt><trkpt lat="39.35867449909347" lon="8.509139603046334"><ele>406.33333333333337</ele><time>2026-04-27T10:55:19.796Z</time></trkpt><trkpt lat="39.35851951432146" lon="8.509026084594952"><ele>401.6666666666667</ele><time>2026-04-27T10:55:20.796Z</time></trkpt><trkpt lat="39.35835964710343" lon="8.50896203814036"><ele>397.0</ele><time>2026-04-27T10:55:21.796Z</time></trkpt><trkpt lat="39.358188594898095" lon="8.508933864414562"><ele>395.33333333333337</ele><time>2026-04-27T10:55:22.796Z</time></trkpt><trkpt lat="39.35802737123862" lon="8.508905117573509"><ele>393.66666666666663</ele><time>2026-04-27T10:55:23.795Z</time></trkpt><trkpt lat="39.35788310084383" lon="8.508902264066437"><ele>392.0</ele><time>2026-04-27T10:55:24.795Z</time></trkpt><trkpt lat="39.35775126341788" lon="8.508975951294754"><ele>392.0</ele><time>2026-04-27T10:55:25.795Z</time></trkpt><trkpt lat="39.357634893550475" lon="8.509093404067707"><ele>392.0</ele><time>2026-04-27T10:55:26.795Z</time></trkpt><trkpt lat="39.35751363318277" lon="8.509208449471943"><ele>392.0</ele><time>2026-04-27T10:55:27.795Z</time></trkpt><trkpt lat="39.357369805517585" lon="8.509269037055889"><ele>392.0</ele><time>2026-04-27T10:55:28.795Z</time></trkpt><trkpt lat="39.35721274022395" lon="8.509235274255596"><ele>392.66666666666663</ele><time>2026-04-27T10:55:29.795Z</time></trkpt><trkpt lat="39.3570600977285" lon="8.509166093576916"><ele>393.33333333333337</ele><time>2026-04-27T10:55:30.795Z</time></trkpt><trkpt lat="39.35689136971108" lon="8.509109653682643"><ele>394.0</ele><time>2026-04-27T10:55:31.795Z</time></trkpt><trkpt lat="39.35673095031804" lon="8.509084442928007"><ele>394.0</ele><time>2026-04-27T10:55:32.795Z</time></trkpt><trkpt lat="39.35660014903815" lon="8.509078267382025"><ele>394.0</ele><time>2026-04-27T10:55:33.795Z</time></trkpt><trkpt lat="39.35650531679381" lon="8.509008997866903"><ele>394.0</ele><time>2026-04-27T10:55:34.795Z</time></trkpt><trkpt lat="39.35647873884507" lon="8.508876995557998"><ele>394.0</ele><time>2026-04-27T10:55:35.795Z</time></trkpt><trkpt lat="39.356523084062566" lon="8.508711750206702"><ele>391.6666666666667</ele><time>2026-04-27T10:55:36.795Z</time></trkpt><trkpt lat="39.35662666630177" lon="8.508543110129848"><ele>389.33333333333337</ele><time>2026-04-27T10:55:37.795Z</time></trkpt><trkpt lat="39.35676361797215" lon="8.508390535807687"><ele>387.0</ele><time>2026-04-27T10:55:38.795Z</time></trkpt><trkpt lat="39.356911527210315" lon="8.508260879354916"><ele>387.0</ele><time>2026-04-27T10:55:39.795Z</time></trkpt><trkpt lat="39.357046776617" lon="8.508133667370624"><ele>387.0</ele><time>2026-04-27T10:55:40.795Z</time></trkpt><trkpt lat="39.35715266277584" lon="8.50800310318997"><ele>387.0</ele><time>2026-04-27T10:55:41.795Z</time></trkpt><trkpt lat="39.35720018410999" lon="8.507852357639797"><ele>387.0</ele><time>2026-04-27T10:55:42.795Z</time></trkpt><trkpt lat="39.357170759469994" lon="8.50766523177707"><ele>386.66666666666663</ele><time>2026-04-27T10:55:43.795Z</time></trkpt><trkpt lat="39.35709311528839" lon="8.507458899343487"><ele>386.3333333333333</ele><time>2026-04-27T10:55:44.795Z</time></trkpt><trkpt lat="39.35700411187008" lon="8.507243276955752"><ele>386.0</ele><time>2026-04-27T10:55:45.795Z</time></trkpt><trkpt lat="39.35689821140476" lon="8.50705068015501"><ele>377.66666666666663</ele><time>2026-04-27T10:55:46.795Z</time></trkpt><trkpt lat="39.356758161568656" lon="8.50692165905448"><ele>369.3333333333333</ele><time>2026-04-27T10:55:47.795Z</time></trkpt><trkpt lat="39.35661255430044" lon="8.506868372457552"><ele>361.0</ele><time>2026-04-27T10:55:48.795Z</time></trkpt><trkpt lat="39.35647338196552" lon="8.50689000035912"><ele>364.5</ele><time>2026-04-27T10:55:49.795Z</time></trkpt><trkpt lat="39.3563424546436" lon="8.506895476783107"><ele>368.0</ele><time>2026-04-27T10:55:50.795Z</time></trkpt><trkpt lat="39.35623563552159" lon="8.506771706977478"><ele>371.5</ele><time>2026-04-27T10:55:51.795Z</time></trkpt><trkpt lat="39.356149044063535" lon="8.506589384628972"><ele>375.0</ele><time>2026-04-27T10:55:52.795Z</time></trkpt><trkpt lat="39.35606751972603" lon="8.506410095846961"><ele>375.0</ele><time>2026-04-27T10:55:53.795Z</time></trkpt><trkpt lat="39.355952389800194" lon="8.506258720836712"><ele>375.0</ele><time>2026-04-27T10:55:54.795Z</time></trkpt><trkpt lat="39.355822343448914" lon="8.506146619537251"><ele>375.0</ele><time>2026-04-27T10:55:55.795Z</time></trkpt><trkpt lat="39.35569503600768" lon="8.506079107902654"><ele>370.3333333333333</ele><time>2026-04-27T10:55:56.795Z</time></trkpt><trkpt lat="39.35555877649506" lon="8.506105480353739"><ele>365.66666666666663</ele><time>2026-04-27T10:55:57.795Z</time></trkpt><trkpt lat="39.35542587704618" lon="8.506218581028152"><ele>361.0</ele><time>2026-04-27T10:55:58.795Z</time></trkpt><trkpt lat="39.355284930094136" lon="8.506347952763592"><ele>361.0</ele><time>2026-04-27T10:55:59.795Z</time></trkpt><trkpt lat="39.35515104335226" lon="8.506470252637248"><ele>361.0</ele><time>2026-04-27T10:56:00.795Z</time></trkpt><trkpt lat="39.35505424135127" lon="8.506608887818645"><ele>361.0</ele><time>2026-04-27T10:56:01.795Z</time></trkpt><trkpt lat="39.35498789240687" lon="8.506760256487645"><ele>361.0</ele><time>2026-04-27T10:56:02.795Z</time></trkpt><trkpt lat="39.354883448298764" lon="8.506841610136656"><ele>361.0</ele><time>2026-04-27T10:56:03.795Z</time></trkpt><trkpt lat="39.35474378294976" lon="8.506839791472167"><ele>361.0</ele><time>2026-04-27T10:56:04.795Z</time></trkpt><trkpt lat="39.354592316192075" lon="8.506807867569503"><ele>361.0</ele><time>2026-04-27T10:56:05.795Z</time></trkpt><trkpt lat="39.35442885864709" lon="8.506792470997256"><ele>357.75</ele><time>2026-04-27T10:56:06.795Z</time></trkpt><trkpt lat="39.35426943777729" lon="8.506778243117394"><ele>354.5</ele><time>2026-04-27T10:56:07.795Z</time></trkpt><trkpt lat="39.35413372966046" lon="8.50678304912527"><ele>351.25</ele><time>2026-04-27T10:56:08.795Z</time></trkpt><trkpt lat="39.354023139926504" lon="8.50687269986938"><ele>348.0</ele><time>2026-04-27T10:56:09.795Z</time></trkpt><trkpt lat="39.353945867858265" lon="8.507035794374753"><ele>351.25</ele><time>2026-04-27T10:56:10.795Z</time></trkpt><trkpt lat="39.353870827187734" lon="8.50720645087492"><ele>354.5</ele><time>2026-04-27T10:56:11.795Z</time></trkpt><trkpt lat="39.35376439536445" lon="8.507304299309778"><ele>357.75</ele><time>2026-04-27T10:56:12.795Z</time></trkpt><trkpt lat="39.35361149223319" lon="8.50730181928193"><ele>361.0</ele><time>2026-04-27T10:56:13.795Z</time></trkpt><trkpt lat="39.353456085910494" lon="8.507223095723177"><ele>361.0</ele><time>2026-04-27T10:56:14.795Z</time></trkpt><trkpt lat="39.35330480498666" lon="8.507104907528944"><ele>361.0</ele><time>2026-04-27T10:56:15.796Z</time></trkpt><trkpt lat="39.35315524825454" lon="8.506983602010475"><ele>361.0</ele><time>2026-04-27T10:56:16.796Z</time></trkpt><trkpt lat="39.35299765625106" lon="8.506943362932484"><ele>347.66666666666663</ele><time>2026-04-27T10:56:17.796Z</time></trkpt><trkpt lat="39.35283180894395" lon="8.506968315191488"><ele>334.3333333333333</ele><time>2026-04-27T10:56:18.796Z</time></trkpt><trkpt lat="39.35265553620758" lon="8.50700815492913"><ele>321.0</ele><time>2026-04-27T10:56:19.796Z</time></trkpt><trkpt lat="39.352474293235595" lon="8.507070773824488"><ele>328.0</ele><time>2026-04-27T10:56:20.796Z</time></trkpt><trkpt lat="39.352330753916036" lon="8.507158911446028"><ele>335.0</ele><time>2026-04-27T10:56:21.796Z</time></trkpt><trkpt lat="39.35224411562128" lon="8.507284221655384"><ele>342.0</ele><time>2026-04-27T10:56:22.796Z</time></trkpt><trkpt lat="39.35223644948871" lon="8.507476124334337"><ele>349.0</ele><time>2026-04-27T10:56:23.796Z</time></trkpt><trkpt lat="39.35224366331512" lon="8.507657812428919"><ele>345.3333333333333</ele><time>2026-04-27T10:56:24.796Z</time></trkpt><trkpt lat="39.35217452899179" lon="8.507798468294864"><ele>341.6666666666667</ele><time>2026-04-27T10:56:25.795Z</time></trkpt><trkpt lat="39.35203882379665" lon="8.50789842747323"><ele>338.0</ele><time>2026-04-27T10:56:26.795Z</time></trkpt><trkpt lat="39.35187516430622" lon="8.50800169732916"><ele>338.0</ele><time>2026-04-27T10:56:27.796Z</time></trkpt><trkpt lat="39.35171136660538" lon="8.508100369114945"><ele>338.0</ele><time>2026-04-27T10:56:28.795Z</time></trkpt><trkpt lat="39.35157250861185" lon="8.50819731980192"><ele>338.0</ele><time>2026-04-27T10:56:29.795Z</time></trkpt><trkpt lat="39.35146549836253" lon="8.508318881673986"><ele>338.0</ele><time>2026-04-27T10:56:30.795Z</time></trkpt><trkpt lat="39.35141581952685" lon="8.508508010719346"><ele>338.0</ele><time>2026-04-27T10:56:31.795Z</time></trkpt><trkpt lat="39.35137410863036" lon="8.508720046232943"><ele>338.0</ele><time>2026-04-27T10:56:32.795Z</time></trkpt><trkpt lat="39.35128284739065" lon="8.508892705206177"><ele>333.0</ele><time>2026-04-27T10:56:33.795Z</time></trkpt><trkpt lat="39.351141139574175" lon="8.509018124367037"><ele>328.0</ele><time>2026-04-27T10:56:34.795Z</time></trkpt><trkpt lat="39.351002324234635" lon="8.50914537673481"><ele>323.0</ele><time>2026-04-27T10:56:35.795Z</time></trkpt><trkpt lat="39.35088281597021" lon="8.509313286857891"><ele>323.0</ele><time>2026-04-27T10:56:36.795Z</time></trkpt><trkpt lat="39.35077073087399" lon="8.50950518145968"><ele>323.0</ele><time>2026-04-27T10:56:37.795Z</time></trkpt><trkpt lat="39.35065887144512" lon="8.50969070107521"><ele>323.0</ele><time>2026-04-27T10:56:38.795Z</time></trkpt><trkpt lat="39.35053659193873" lon="8.509848372858443"><ele>318.75</ele><time>2026-04-27T10:56:39.795Z</time></trkpt><trkpt lat="39.350411751156514" lon="8.509970373925565"><ele>314.5</ele><time>2026-04-27T10:56:40.795Z</time></trkpt><trkpt lat="39.35030548898321" lon="8.510084066994308"><ele>310.25</ele><time>2026-04-27T10:56:41.795Z</time></trkpt><trkpt lat="39.350263218336835" lon="8.510242233367833"><ele>306.0</ele><time>2026-04-27T10:56:42.795Z</time></trkpt><trkpt lat="39.35029623697125" lon="8.510446246586573"><ele>306.0</ele><time>2026-04-27T10:56:43.795Z</time></trkpt><trkpt lat="39.35037286931226" lon="8.510684765200637"><ele>306.0</ele><time>2026-04-27T10:56:44.795Z</time></trkpt><trkpt lat="39.35045793120724" lon="8.510919399823193"><ele>306.0</ele><time>2026-04-27T10:56:45.795Z</time></trkpt><trkpt lat="39.3505106321239" lon="8.511127495388983"><ele>304.0</ele><time>2026-04-27T10:56:46.795Z</time></trkpt><trkpt lat="39.350492465299176" lon="8.511326456430796"><ele>302.0</ele><time>2026-04-27T10:56:47.795Z</time></trkpt><trkpt lat="39.35043551301008" lon="8.511529772150377"><ele>300.0</ele><time>2026-04-27T10:56:48.795Z</time></trkpt><trkpt lat="39.35044496027906" lon="8.511739573947294"><ele>300.0</ele><time>2026-04-27T10:56:49.795Z</time></trkpt><trkpt lat="39.35044290083155" lon="8.511956527649662"><ele>300.0</ele><time>2026-04-27T10:56:50.795Z</time></trkpt><trkpt lat="39.350376991863214" lon="8.512167663760733"><ele>300.0</ele><time>2026-04-27T10:56:51.795Z</time></trkpt><trkpt lat="39.350313857308784" lon="8.51236269955331"><ele>304.0</ele><time>2026-04-27T10:56:52.795Z</time></trkpt><trkpt lat="39.350227616034765" lon="8.512521800682595"><ele>308.0</ele><time>2026-04-27T10:56:53.795Z</time></trkpt><trkpt lat="39.35009627926904" lon="8.512652852063114"><ele>312.0</ele><time>2026-04-27T10:56:54.795Z</time></trkpt><trkpt lat="39.34994696145858" lon="8.512742448753402"><ele>312.0</ele><time>2026-04-27T10:56:55.795Z</time></trkpt><trkpt lat="39.34978505600966" lon="8.512743705388276"><ele>312.0</ele><time>2026-04-27T10:56:56.795Z</time></trkpt><trkpt lat="39.34964423975432" lon="8.512674184688787"><ele>312.0</ele><time>2026-04-27T10:56:57.795Z</time></trkpt><trkpt lat="39.34951012218236" lon="8.512632299878305"><ele>311.0</ele><time>2026-04-27T10:56:58.795Z</time></trkpt><trkpt lat="39.34938052240073" lon="8.512709775210535"><ele>310.0</ele><time>2026-04-27T10:56:59.795Z</time></trkpt><trkpt lat="39.34925900425325" lon="8.512859279831083"><ele>309.0</ele><time>2026-04-27T10:57:00.795Z</time></trkpt><trkpt lat="39.34914398656262" lon="8.513049690478272"><ele>309.0</ele><time>2026-04-27T10:57:01.795Z</time></trkpt><trkpt lat="39.349042974564156" lon="8.513233922983288"><ele>309.0</ele><time>2026-04-27T10:57:02.795Z</time></trkpt><trkpt lat="39.348993242727325" lon="8.513452952671622"><ele>309.0</ele><time>2026-04-27T10:57:03.795Z</time></trkpt><trkpt lat="39.348965223224106" lon="8.513673011229063"><ele>308.3333333333333</ele><time>2026-04-27T10:57:04.795Z</time></trkpt><trkpt lat="39.34894900874188" lon="8.513903162667972"><ele>307.66666666666663</ele><time>2026-04-27T10:57:05.795Z</time></trkpt><trkpt lat="39.34892782263015" lon="8.514111620255155"><ele>307.0</ele><time>2026-04-27T10:57:06.795Z</time></trkpt><trkpt lat="39.34894788054159" lon="8.514297554531538"><ele>307.0</ele><time>2026-04-27T10:57:07.795Z</time></trkpt><trkpt lat="39.34903433104662" lon="8.514444573171733"><ele>307.0</ele><time>2026-04-27T10:57:08.795Z</time></trkpt><trkpt lat="39.34918023561476" lon="8.514525892941577"><ele>307.0</ele><time>2026-04-27T10:57:09.795Z</time></trkpt><trkpt lat="39.34936888938488" lon="8.514520324000562"><ele>307.0</ele><time>2026-04-27T10:57:10.795Z</time></trkpt><trkpt lat="39.34958161592633" lon="8.514494758492335"><ele>307.0</ele><time>2026-04-27T10:57:11.795Z</time></trkpt><trkpt lat="39.34978851554387" lon="8.514467416319782"><ele>307.0</ele><time>2026-04-27T10:57:12.794Z</time></trkpt><trkpt lat="39.349981702826426" lon="8.514457039312681"><ele>306.25</ele><time>2026-04-27T10:57:13.794Z</time></trkpt><trkpt lat="39.3501292955319" lon="8.514467105907563"><ele>305.5</ele><time>2026-04-27T10:57:14.794Z</time></trkpt><trkpt lat="39.350241212221995" lon="8.514495280342427"><ele>304.75</ele><time>2026-04-27T10:57:15.794Z</time></trkpt><trkpt lat="39.350294990938735" lon="8.514601216129199"><ele>304.0</ele><time>2026-04-27T10:57:16.794Z</time></trkpt><trkpt lat="39.35029095450487" lon="8.514740808733896"><ele>304.0</ele><time>2026-04-27T10:57:17.794Z</time></trkpt><trkpt lat="39.35022213622269" lon="8.51484718171541"><ele>304.0</ele><time>2026-04-27T10:57:18.794Z</time></trkpt><trkpt lat="39.35009509229996" lon="8.514878723468128"><ele>304.0</ele><time>2026-04-27T10:57:19.794Z</time></trkpt><trkpt lat="39.34995196170235" lon="8.514867857327433"><ele>304.0</ele><time>2026-04-27T10:57:20.794Z</time></trkpt><trkpt lat="39.349816449417226" lon="8.514904584243078"><ele>301.3333333333333</ele><time>2026-04-27T10:57:21.794Z</time></trkpt><trkpt lat="39.34965875282934" lon="8.514975429282872"><ele>298.6666666666667</ele><time>2026-04-27T10:57:22.794Z</time></trkpt><trkpt lat="39.34949051419075" lon="8.515068114924537"><ele>296.0</ele><time>2026-04-27T10:57:23.794Z</time></trkpt><trkpt lat="39.3493201396153" lon="8.515154853025072"><ele>296.0</ele><time>2026-04-27T10:57:24.794Z</time></trkpt><trkpt lat="39.34914780214214" lon="8.515228594631393"><ele>296.0</ele><time>2026-04-27T10:57:25.794Z</time></trkpt><trkpt lat="39.34896170454404" lon="8.515257826742006"><ele>296.0</ele><time>2026-04-27T10:57:26.794Z</time></trkpt><trkpt lat="39.34877013639779" lon="8.515251345095189"><ele>293.0</ele><time>2026-04-27T10:57:27.794Z</time></trkpt><trkpt lat="39.34858726695853" lon="8.515248016775367"><ele>290.0</ele><time>2026-04-27T10:57:28.794Z</time></trkpt><trkpt lat="39.34842198394035" lon="8.515250780235768"><ele>287.0</ele><time>2026-04-27T10:57:29.794Z</time></trkpt><trkpt lat="39.34827411059519" lon="8.515227576878223"><ele>287.0</ele><time>2026-04-27T10:57:30.794Z</time></trkpt><trkpt lat="39.34815101482451" lon="8.515184806213732"><ele>287.0</ele><time>2026-04-27T10:57:31.794Z</time></trkpt><trkpt lat="39.34801795340701" lon="8.515129040897161"><ele>287.0</ele><time>2026-04-27T10:57:32.794Z</time></trkpt><trkpt lat="39.34787325380593" lon="8.51506648437488"><ele>287.0</ele><time>2026-04-27T10:57:33.794Z</time></trkpt><trkpt lat="39.34772092193047" lon="8.514995467050106"><ele>286.0</ele><time>2026-04-27T10:57:34.794Z</time></trkpt><trkpt lat="39.34755856400273" lon="8.51492620567285"><ele>285.0</ele><time>2026-04-27T10:57:35.794Z</time></trkpt><trkpt lat="39.34740760785321" lon="8.514857614186921"><ele>284.0</ele><time>2026-04-27T10:57:36.794Z</time></trkpt><trkpt lat="39.347278386661074" lon="8.514809563979437"><ele>283.0</ele><time>2026-04-27T10:57:37.794Z</time></trkpt><trkpt lat="39.347148689830966" lon="8.514838085138654"><ele>282.0</ele><time>2026-04-27T10:57:38.794Z</time></trkpt><trkpt lat="39.347037916515646" lon="8.51494533686606"><ele>281.0</ele><time>2026-04-27T10:57:39.794Z</time></trkpt><trkpt lat="39.346995898419635" lon="8.51512030638819"><ele>280.0</ele><time>2026-04-27T10:57:40.794Z</time></trkpt><trkpt lat="39.347030991263956" lon="8.515314114288028"><ele>280.3333333333333</ele><time>2026-04-27T10:57:41.794Z</time></trkpt><trkpt lat="39.34713230283887" lon="8.51550361887901"><ele>280.6666666666667</ele><time>2026-04-27T10:57:42.794Z</time></trkpt><trkpt lat="39.347270396140885" lon="8.515688280172222"><ele>281.0</ele><time>2026-04-27T10:57:43.794Z</time></trkpt><trkpt lat="39.347380208037556" lon="8.515849019815958"><ele>283.33333333333337</ele><time>2026-04-27T10:57:44.794Z</time></trkpt><trkpt lat="39.34742727814197" lon="8.516024062408457"><ele>285.6666666666667</ele><time>2026-04-27T10:57:45.794Z</time></trkpt><trkpt lat="39.347410891829995" lon="8.516222607139353"><ele>288.0</ele><time>2026-04-27T10:57:46.794Z</time></trkpt><trkpt lat="39.34735543376373" lon="8.516437215594193"><ele>289.3333333333333</ele><time>2026-04-27T10:57:47.794Z</time></trkpt><trkpt lat="39.34729418998384" lon="8.516637823272175"><ele>290.66666666666663</ele><time>2026-04-27T10:57:48.794Z</time></trkpt><trkpt lat="39.347222234033566" lon="8.516826839616423"><ele>292.0</ele><time>2026-04-27T10:57:49.794Z</time></trkpt><trkpt lat="39.34712924506237" lon="8.517008760863135"><ele>288.3333333333333</ele><time>2026-04-27T10:57:50.794Z</time></trkpt><trkpt lat="39.34701606496985" lon="8.517186270945638"><ele>284.6666666666667</ele><time>2026-04-27T10:57:51.794Z</time></trkpt><trkpt lat="39.346900024809536" lon="8.517363849086342"><ele>281.0</ele><time>2026-04-27T10:57:52.794Z</time></trkpt><trkpt lat="39.34678206526545" lon="8.517547094512528"><ele>281.0</ele><time>2026-04-27T10:57:53.794Z</time></trkpt><trkpt lat="39.346659598209634" lon="8.517743976206253"><ele>281.0</ele><time>2026-04-27T10:57:54.794Z</time></trkpt><trkpt lat="39.34652360274094" lon="8.51795668903338"><ele>281.0</ele><time>2026-04-27T10:57:55.794Z</time></trkpt><trkpt lat="39.34635377128438" lon="8.51819934823888"><ele>277.0</ele><time>2026-04-27T10:57:56.794Z</time></trkpt><trkpt lat="39.346106167847225" lon="8.518468838692467"><ele>273.0</ele><time>2026-04-27T10:57:57.794Z</time></trkpt><trkpt lat="39.34584660634348" lon="8.518706382607954"><ele>274.0</ele><time>2026-04-27T10:57:58.794Z</time></trkpt><trkpt lat="39.34562216485217" lon="8.518894492188672"><ele>275.0</ele><time>2026-04-27T10:57:59.794Z</time></trkpt><trkpt lat="39.34543338182161" lon="8.51907230396984"><ele>275.0</ele><time>2026-04-27T10:58:00.794Z</time></trkpt><trkpt lat="39.3452785880126" lon="8.519250273271348"><ele>275.0</ele><time>2026-04-27T10:58:01.794Z</time></trkpt><trkpt lat="39.345168867252106" lon="8.519502298983657"><ele>275.0</ele><time>2026-04-27T10:58:02.794Z</time></trkpt><trkpt lat="39.34510680331983" lon="8.519828220170195"><ele>272.5</ele><time>2026-04-27T10:58:03.794Z</time></trkpt><trkpt lat="39.34513401439001" lon="8.520194656800257"><ele>270.0</ele><time>2026-04-27T10:58:04.794Z</time></trkpt><trkpt lat="39.345202013433415" lon="8.520531590890126"><ele>270.0</ele><time>2026-04-27T10:58:05.793Z</time></trkpt><trkpt lat="39.345235941097705" lon="8.520761122777547"><ele>270.0</ele><time>2026-04-27T10:58:06.793Z</time></trkpt><trkpt lat="39.345159364476224" lon="8.520941114126211"><ele>270.0</ele><time>2026-04-27T10:58:07.793Z</time></trkpt><trkpt lat="39.34502681111502" lon="8.521113786929696"><ele>269.0</ele><time>2026-04-27T10:58:08.793Z</time></trkpt><trkpt lat="39.34495782359781" lon="8.521297374625307"><ele>268.0</ele><time>2026-04-27T10:58:09.793Z</time></trkpt><trkpt lat="39.34498887049857" lon="8.52147249234739"><ele>267.0</ele><time>2026-04-27T10:58:10.793Z</time></trkpt><trkpt lat="39.345118136961084" lon="8.521671450017159"><ele>267.0</ele><time>2026-04-27T10:58:11.793Z</time></trkpt><trkpt lat="39.3453243775571" lon="8.52188555768158"><ele>267.0</ele><time>2026-04-27T10:58:12.793Z</time></trkpt><trkpt lat="39.345510109466275" lon="8.522141490233503"><ele>274.0</ele><time>2026-04-27T10:58:13.793Z</time></trkpt><trkpt lat="39.34562609757247" lon="8.52237191657148"><ele>281.0</ele><time>2026-04-27T10:58:14.793Z</time></trkpt><trkpt lat="39.34564140804098" lon="8.52257098403417"><ele>288.0</ele><time>2026-04-27T10:58:15.793Z</time></trkpt><trkpt lat="39.345585852834745" lon="8.522779613809256"><ele>279.0</ele><time>2026-04-27T10:58:16.793Z</time></trkpt><trkpt lat="39.345452212968304" lon="8.522990816549296"><ele>270.0</ele><time>2026-04-27T10:58:17.793Z</time></trkpt><trkpt lat="39.34525703316709" lon="8.52318156003584"><ele>270.0</ele><time>2026-04-27T10:58:18.793Z</time></trkpt><trkpt lat="39.345003652258" lon="8.523348431976459"><ele>270.0</ele><time>2026-04-27T10:58:19.793Z</time></trkpt><trkpt lat="39.34471891602498" lon="8.523509657745276"><ele>270.0</ele><time>2026-04-27T10:58:20.793Z</time></trkpt><trkpt lat="39.3443820203191" lon="8.523656000161001"><ele>270.0</ele><time>2026-04-27T10:58:21.795Z</time></trkpt><trkpt lat="39.34402980520448" lon="8.523749555788314"><ele>268.5</ele><time>2026-04-27T10:58:22.794Z</time></trkpt><trkpt lat="39.34372813315553" lon="8.523784893046155"><ele>267.0</ele><time>2026-04-27T10:58:23.794Z</time></trkpt><trkpt lat="39.34345754022572" lon="8.523840543152899"><ele>267.0</ele><time>2026-04-27T10:58:24.795Z</time></trkpt><trkpt lat="39.34319925602544" lon="8.523981780152326"><ele>267.0</ele><time>2026-04-27T10:58:25.795Z</time></trkpt><trkpt lat="39.34297857854773" lon="8.5241440163073"><ele>267.0</ele><time>2026-04-27T10:58:26.795Z</time></trkpt><trkpt lat="39.34280473183657" lon="8.524274814664436"><ele>267.0</ele><time>2026-04-27T10:58:27.795Z</time></trkpt><trkpt lat="39.342627504534384" lon="8.524341580383277"><ele>267.0</ele><time>2026-04-27T10:58:28.794Z</time></trkpt><trkpt lat="39.342414994979286" lon="8.524328021046804"><ele>266.5</ele><time>2026-04-27T10:58:29.794Z</time></trkpt><trkpt lat="39.342138132673654" lon="8.524210273260625"><ele>266.0</ele><time>2026-04-27T10:58:30.794Z</time></trkpt><trkpt lat="39.34182053770412" lon="8.524135595845356"><ele>266.0</ele><time>2026-04-27T10:58:31.795Z</time></trkpt><trkpt lat="39.34148806333032" lon="8.524067046339534"><ele>266.0</ele><time>2026-04-27T10:58:32.795Z</time></trkpt><trkpt lat="39.34121164135581" lon="8.524022331879534"><ele>268.0</ele><time>2026-04-27T10:58:33.795Z</time></trkpt><trkpt lat="39.34098330978236" lon="8.523952515101628"><ele>270.0</ele><time>2026-04-27T10:58:34.794Z</time></trkpt><trkpt lat="39.340758324280486" lon="8.52382936210989"><ele>273.0</ele><time>2026-04-27T10:58:35.794Z</time></trkpt><trkpt lat="39.34054904750144" lon="8.523722569365344"><ele>276.0</ele><time>2026-04-27T10:58:36.794Z</time></trkpt><trkpt lat="39.34028829397125" lon="8.523696983990718"><ele>280.0</ele><time>2026-04-27T10:58:37.794Z</time></trkpt><trkpt lat="39.339962030353995" lon="8.523736733323153"><ele>284.0</ele><time>2026-04-27T10:58:38.794Z</time></trkpt><trkpt lat="39.33963497435213" lon="8.523702484356841"><ele>275.0</ele><time>2026-04-27T10:58:39.794Z</time></trkpt><trkpt lat="39.33936678003818" lon="8.523639600968956"><ele>266.0</ele><time>2026-04-27T10:58:40.794Z</time></trkpt><trkpt lat="39.3391561463125" lon="8.523586479934094"><ele>266.0</ele><time>2026-04-27T10:58:41.794Z</time></trkpt><trkpt lat="39.33897202900408" lon="8.523587787603248"><ele>266.0</ele><time>2026-04-27T10:58:42.794Z</time></trkpt><trkpt lat="39.33878478936459" lon="8.523669051986351"><ele>266.0</ele><time>2026-04-27T10:58:43.794Z</time></trkpt><trkpt lat="39.338680289719214" lon="8.523883138884152"><ele>263.0</ele><time>2026-04-27T10:58:44.794Z</time></trkpt><trkpt lat="39.33862645540248" lon="8.524128031998446"><ele>260.0</ele><time>2026-04-27T10:58:45.794Z</time></trkpt><trkpt lat="39.33864047799064" lon="8.52445141813918"><ele>257.0</ele><time>2026-04-27T10:58:46.794Z</time></trkpt><trkpt lat="39.338691721482284" lon="8.524790304269064"><ele>256.6666666666667</ele><time>2026-04-27T10:58:47.794Z</time></trkpt><trkpt lat="39.33870920930734" lon="8.525067756199896"><ele>256.3333333333333</ele><time>2026-04-27T10:58:48.794Z</time></trkpt><trkpt lat="39.33864449344761" lon="8.525265179730395"><ele>256.0</ele><time>2026-04-27T10:58:49.794Z</time></trkpt><trkpt lat="39.33848926014123" lon="8.525414540076246"><ele>258.0</ele><time>2026-04-27T10:58:50.794Z</time></trkpt><trkpt lat="39.33826318838414" lon="8.5255193954531"><ele>260.0</ele><time>2026-04-27T10:58:51.794Z</time></trkpt><trkpt lat="39.33798131744034" lon="8.525566312844193"><ele>260.0</ele><time>2026-04-27T10:58:52.794Z</time></trkpt><trkpt lat="39.33769791080071" lon="8.52561291299054"><ele>260.0</ele><time>2026-04-27T10:58:53.794Z</time></trkpt><trkpt lat="39.337484126179575" lon="8.525718455186132"><ele>260.0</ele><time>2026-04-27T10:58:54.794Z</time></trkpt><trkpt lat="39.33731311910922" lon="8.525897436247098"><ele>260.0</ele><time>2026-04-27T10:58:55.794Z</time></trkpt><trkpt lat="39.337160275875625" lon="8.526212947479765"><ele>259.0</ele><time>2026-04-27T10:58:56.794Z</time></trkpt><trkpt lat="39.33701545692057" lon="8.526573825535486"><ele>258.0</ele><time>2026-04-27T10:58:57.794Z</time></trkpt><trkpt lat="39.336859597087276" lon="8.526805953954414"><ele>258.0</ele><time>2026-04-27T10:58:58.794Z</time></trkpt><trkpt lat="39.336661541611825" lon="8.526948917589966"><ele>258.0</ele><time>2026-04-27T10:58:59.794Z</time></trkpt><trkpt lat="39.33638583885626" lon="8.52703133478441"><ele>268.0</ele><time>2026-04-27T10:59:00.794Z</time></trkpt><trkpt lat="39.336094814720774" lon="8.527086088455205"><ele>278.0</ele><time>2026-04-27T10:59:01.794Z</time></trkpt><trkpt lat="39.33586594599861" lon="8.527143224297548"><ele>278.0</ele><time>2026-04-27T10:59:02.794Z</time></trkpt><trkpt lat="39.335690417242" lon="8.52713133432477"><ele>278.0</ele><time>2026-04-27T10:59:03.794Z</time></trkpt><trkpt lat="39.335514281039124" lon="8.526977082007978"><ele>278.0</ele><time>2026-04-27T10:59:04.794Z</time></trkpt><trkpt lat="39.33534712201202" lon="8.526723261539892"><ele>273.5</ele><time>2026-04-27T10:59:05.794Z</time></trkpt><trkpt lat="39.33518108333328" lon="8.526441390707026"><ele>269.0</ele><time>2026-04-27T10:59:06.794Z</time></trkpt><trkpt lat="39.33503271929527" lon="8.526224670640973"><ele>264.0</ele><time>2026-04-27T10:59:07.794Z</time></trkpt><trkpt lat="39.33488277256847" lon="8.526106816256705"><ele>259.0</ele><time>2026-04-27T10:59:08.794Z</time></trkpt><trkpt lat="39.334708926128705" lon="8.526063011136822"><ele>254.0</ele><time>2026-04-27T10:59:09.794Z</time></trkpt><trkpt lat="39.334513300440506" lon="8.526087324224106"><ele>253.5</ele><time>2026-04-27T10:59:10.794Z</time></trkpt><trkpt lat="39.33431090514575" lon="8.526221836880786"><ele>253.0</ele><time>2026-04-27T10:59:11.794Z</time></trkpt><trkpt lat="39.33415687577549" lon="8.526457024057818"><ele>252.5</ele><time>2026-04-27T10:59:12.794Z</time></trkpt><trkpt lat="39.33402941155317" lon="8.526741484712707"><ele>252.0</ele><time>2026-04-27T10:59:13.794Z</time></trkpt><trkpt lat="39.33391566400234" lon="8.527119419733094"><ele>251.5</ele><time>2026-04-27T10:59:14.794Z</time></trkpt><trkpt lat="39.333783650503044" lon="8.52751883607641"><ele>251.0</ele><time>2026-04-27T10:59:15.794Z</time></trkpt><trkpt lat="39.333620275208" lon="8.527903622306226"><ele>251.0</ele><time>2026-04-27T10:59:16.794Z</time></trkpt><trkpt lat="39.333463556470605" lon="8.528269364829374"><ele>251.0</ele><time>2026-04-27T10:59:17.794Z</time></trkpt><trkpt lat="39.333339384933154" lon="8.528595053577519"><ele>248.0</ele><time>2026-04-27T10:59:18.793Z</time></trkpt><trkpt lat="39.33320506159694" lon="8.528905426639822"><ele>245.0</ele><time>2026-04-27T10:59:19.793Z</time></trkpt><trkpt lat="39.33306207252205" lon="8.529215339931309"><ele>251.5</ele><time>2026-04-27T10:59:20.793Z</time></trkpt><trkpt lat="39.33285480175648" lon="8.529529546439445"><ele>258.0</ele><time>2026-04-27T10:59:21.793Z</time></trkpt><trkpt lat="39.33265024663945" lon="8.529845613851936"><ele>258.0</ele><time>2026-04-27T10:59:22.793Z</time></trkpt><trkpt lat="39.33249253485108" lon="8.530125270388437"><ele>258.0</ele><time>2026-04-27T10:59:23.793Z</time></trkpt><trkpt lat="39.332391338412364" lon="8.530350160807972"><ele>258.0</ele><time>2026-04-27T10:59:24.793Z</time></trkpt><trkpt lat="39.33230217805958" lon="8.53050202413076"><ele>258.0</ele><time>2026-04-27T10:59:25.793Z</time></trkpt><trkpt lat="39.33216526245751" lon="8.530591303622268"><ele>258.0</ele><time>2026-04-27T10:59:26.793Z</time></trkpt><trkpt lat="39.33196861871311" lon="8.530602730055834"><ele>258.0</ele><time>2026-04-27T10:59:27.793Z</time></trkpt><trkpt lat="39.33174167335209" lon="8.530598425510702"><ele>258.0</ele><time>2026-04-27T10:59:28.793Z</time></trkpt><trkpt lat="39.331533827349" lon="8.530688286248092"><ele>258.0</ele><time>2026-04-27T10:59:29.793Z</time></trkpt><trkpt lat="39.33131691664794" lon="8.530921372789635"><ele>259.0</ele><time>2026-04-27T10:59:30.793Z</time></trkpt><trkpt lat="39.33114442286194" lon="8.531205029950653"><ele>260.0</ele><time>2026-04-27T10:59:31.793Z</time></trkpt><trkpt lat="39.33101411622344" lon="8.531414081032167"><ele>260.0</ele><time>2026-04-27T10:59:32.793Z</time></trkpt><trkpt lat="39.330917327697854" lon="8.531543053988964"><ele>260.0</ele><time>2026-04-27T10:59:33.793Z</time></trkpt><trkpt lat="39.33073369567541" lon="8.531601092842632"><ele>260.0</ele><time>2026-04-27T10:59:34.793Z</time></trkpt><trkpt lat="39.33046547022831" lon="8.531635170076736"><ele>267.5</ele><time>2026-04-27T10:59:35.793Z</time></trkpt><trkpt lat="39.33018547287922" lon="8.531671680153524"><ele>275.0</ele><time>2026-04-27T10:59:36.793Z</time></trkpt><trkpt lat="39.32988564197335" lon="8.531752662711916"><ele>279.5</ele><time>2026-04-27T10:59:37.793Z</time></trkpt><trkpt lat="39.329593363493586" lon="8.531820674709202"><ele>284.0</ele><time>2026-04-27T10:59:38.793Z</time></trkpt><trkpt lat="39.329353917791344" lon="8.531883787435055"><ele>284.0</ele><time>2026-04-27T10:59:39.793Z</time></trkpt><trkpt lat="39.32914013799398" lon="8.53189075502888"><ele>284.0</ele><time>2026-04-27T10:59:40.793Z</time></trkpt><trkpt lat="39.32890220507867" lon="8.531853225177617"><ele>285.33333333333337</ele><time>2026-04-27T10:59:41.793Z</time></trkpt><trkpt lat="39.328674517303526" lon="8.531850368503221"><ele>286.6666666666667</ele><time>2026-04-27T10:59:42.793Z</time></trkpt><trkpt lat="39.328493968116256" lon="8.531961426949431"><ele>288.0</ele><time>2026-04-27T10:59:43.793Z</time></trkpt><trkpt lat="39.328332817466865" lon="8.532019191550821"><ele>288.0</ele><time>2026-04-27T10:59:44.793Z</time></trkpt><trkpt lat="39.32819342322178" lon="8.53204076699499"><ele>288.0</ele><time>2026-04-27T10:59:45.793Z</time></trkpt><trkpt lat="39.32808483632481" lon="8.531991898696917"><ele>288.0</ele><time>2026-04-27T10:59:46.793Z</time></trkpt><trkpt lat="39.327984772096045" lon="8.531953484288392"><ele>288.0</ele><time>2026-04-27T10:59:47.793Z</time></trkpt><trkpt lat="39.32790096628134" lon="8.531921670837178"><ele>288.0</ele><time>2026-04-27T10:59:48.793Z</time></trkpt><trkpt lat="39.3278258939832" lon="8.531910060113256"><ele>287.5</ele><time>2026-04-27T10:59:49.793Z</time></trkpt><trkpt lat="39.32774666768422" lon="8.531899323749467"><ele>287.0</ele><time>2026-04-27T10:59:50.793Z</time></trkpt><trkpt lat="39.3276677606114" lon="8.531887956690444"><ele>286.5</ele><time>2026-04-27T10:59:51.793Z</time></trkpt><trkpt lat="39.327589119432105" lon="8.531872516908008"><ele>286.0</ele><time>2026-04-27T10:59:52.793Z</time></trkpt><trkpt lat="39.327497749681434" lon="8.531848658884218"><ele>285.5</ele><time>2026-04-27T10:59:53.793Z</time></trkpt><trkpt lat="39.32740481746076" lon="8.531841699103241"><ele>285.0</ele><time>2026-04-27T10:59:54.793Z</time></trkpt><trkpt lat="39.327308878394255" lon="8.53184322439028"><ele>285.0</ele><time>2026-04-27T10:59:55.793Z</time></trkpt><trkpt lat="39.327220268396985" lon="8.531875584790107"><ele>285.0</ele><time>2026-04-27T10:59:56.793Z</time></trkpt><trkpt lat="39.32712103004345" lon="8.531916201947421"><ele>285.0</ele><time>2026-04-27T10:59:57.793Z</time></trkpt><trkpt lat="39.327025733423426" lon="8.531969286123287"><ele>285.0</ele><time>2026-04-27T10:59:58.793Z</time></trkpt><trkpt lat="39.326925507765615" lon="8.532033882036615"><ele>285.0</ele><time>2026-04-27T10:59:59.793Z</time></trkpt><trkpt lat="39.32681961997429" lon="8.53210096642066"><ele>285.0</ele><time>2026-04-27T11:00:00.793Z</time></trkpt><trkpt lat="39.32671649844168" lon="8.532160971742025"><ele>285.0</ele><time>2026-04-27T11:00:01.793Z</time></trkpt><trkpt lat="39.32661099982095" lon="8.532225611678209"><ele>285.0</ele><time>2026-04-27T11:00:02.793Z</time></trkpt><trkpt lat="39.326498014333055" lon="8.532293611850044"><ele>285.0</ele><time>2026-04-27T11:00:03.793Z</time></trkpt><trkpt lat="39.32638324305587" lon="8.5323564568763"><ele>281.0</ele><time>2026-04-27T11:00:04.793Z</time></trkpt><trkpt lat="39.32627097841119" lon="8.532423569608047"><ele>277.0</ele><time>2026-04-27T11:00:05.793Z</time></trkpt><trkpt lat="39.32615463147198" lon="8.532495019633888"><ele>273.0</ele><time>2026-04-27T11:00:06.793Z</time></trkpt><trkpt lat="39.32603231542789" lon="8.532555255320084"><ele>269.0</ele><time>2026-04-27T11:00:07.793Z</time></trkpt><trkpt lat="39.325903917296394" lon="8.53260314351558"><ele>269.0</ele><time>2026-04-27T11:00:08.793Z</time></trkpt><trkpt lat="39.32577301466602" lon="8.532642632582354"><ele>269.0</ele><time>2026-04-27T11:00:09.793Z</time></trkpt><trkpt lat="39.325630758317644" lon="8.532675247972477"><ele>269.0</ele><time>2026-04-27T11:00:10.793Z</time></trkpt><trkpt lat="39.32548391998081" lon="8.532710390455543"><ele>269.0</ele><time>2026-04-27T11:00:11.792Z</time></trkpt><trkpt lat="39.32534248454662" lon="8.532766333656097"><ele>267.25</ele><time>2026-04-27T11:00:12.792Z</time></trkpt><trkpt lat="39.325219453231206" lon="8.532833848043477"><ele>265.5</ele><time>2026-04-27T11:00:13.792Z</time></trkpt><trkpt lat="39.32509971534164" lon="8.532902662766814"><ele>263.75</ele><time>2026-04-27T11:00:14.792Z</time></trkpt><trkpt lat="39.32499404626476" lon="8.532968337992656"><ele>262.0</ele><time>2026-04-27T11:00:15.792Z</time></trkpt><trkpt lat="39.32489924011475" lon="8.533041168222745"><ele>262.0</ele><time>2026-04-27T11:00:16.792Z</time></trkpt><trkpt lat="39.32481782723685" lon="8.533132535744294"><ele>262.0</ele><time>2026-04-27T11:00:17.792Z</time></trkpt><trkpt lat="39.3247585786612" lon="8.533236909841278"><ele>262.0</ele><time>2026-04-27T11:00:18.792Z</time></trkpt><trkpt lat="39.32472682950033" lon="8.533359247238312"><ele>262.0</ele><time>2026-04-27T11:00:19.792Z</time></trkpt><trkpt lat="39.3247297111695" lon="8.533490874584345"><ele>262.0</ele><time>2026-04-27T11:00:20.792Z</time></trkpt><trkpt lat="39.32475984971167" lon="8.5335984095314"><ele>262.0</ele><time>2026-04-27T11:00:21.792Z</time></trkpt><trkpt lat="39.32481616558187" lon="8.533685374629876"><ele>262.0</ele><time>2026-04-27T11:00:22.792Z</time></trkpt><trkpt lat="39.32489370672076" lon="8.533753220715896"><ele>262.0</ele><time>2026-04-27T11:00:23.792Z</time></trkpt><trkpt lat="39.324985278815575" lon="8.533804266654577"><ele>262.0</ele><time>2026-04-27T11:00:24.792Z</time></trkpt><trkpt lat="39.32506148227791" lon="8.533843884071938"><ele>262.0</ele><time>2026-04-27T11:00:25.792Z</time></trkpt><trkpt lat="39.32512786402233" lon="8.533904692436908"><ele>262.0</ele><time>2026-04-27T11:00:26.794Z</time></trkpt><trkpt lat="39.32515746878297" lon="8.533992944835807"><ele>260.6</ele><time>2026-04-27T11:00:27.793Z</time></trkpt><trkpt lat="39.325154574501184" lon="8.534097312985208"><ele>259.2</ele><time>2026-04-27T11:00:28.793Z</time></trkpt><trkpt lat="39.32512083197249" lon="8.534210052745777"><ele>257.8</ele><time>2026-04-27T11:00:29.794Z</time></trkpt><trkpt lat="39.325056894358944" lon="8.534301302111436"><ele>256.4</ele><time>2026-04-27T11:00:30.793Z</time></trkpt><trkpt lat="39.32498327559935" lon="8.534383800858599"><ele>255.0</ele><time>2026-04-27T11:00:31.793Z</time></trkpt><trkpt lat="39.32490290192877" lon="8.534464580299112"><ele>255.0</ele><time>2026-04-27T11:00:32.793Z</time></trkpt><trkpt lat="39.32483627098244" lon="8.534539234193737"><ele>255.0</ele><time>2026-04-27T11:00:33.793Z</time></trkpt><trkpt lat="39.32476676854339" lon="8.5346099228432"><ele>255.0</ele><time>2026-04-27T11:00:34.793Z</time></trkpt><trkpt lat="39.32469639538729" lon="8.534682476281253"><ele>255.0</ele><time>2026-04-27T11:00:35.793Z</time></trkpt><trkpt lat="39.32462870612839" lon="8.534756302507926"><ele>255.0</ele><time>2026-04-27T11:00:36.793Z</time></trkpt><trkpt lat="39.32456162567775" lon="8.534822577307946"><ele>255.0</ele><time>2026-04-27T11:00:37.793Z</time></trkpt><trkpt lat="39.32447872860394" lon="8.534862862196157"><ele>255.0</ele><time>2026-04-27T11:00:38.793Z</time></trkpt><trkpt lat="39.32439099354219" lon="8.534837447927686"><ele>255.0</ele><time>2026-04-27T11:00:39.794Z</time></trkpt><trkpt lat="39.324312402887806" lon="8.534760014615966"><ele>255.0</ele><time>2026-04-27T11:00:40.794Z</time></trkpt><trkpt lat="39.32424623245194" lon="8.534661186648522"><ele>255.0</ele><time>2026-04-27T11:00:41.794Z</time></trkpt><trkpt lat="39.32418096386865" lon="8.534551751589241"><ele>255.0</ele><time>2026-04-27T11:00:42.794Z</time></trkpt><trkpt lat="39.32411456584854" lon="8.534446030320948"><ele>254.6</ele><time>2026-04-27T11:00:43.794Z</time></trkpt><trkpt lat="39.324048294148476" lon="8.534338778143013"><ele>254.2</ele><time>2026-04-27T11:00:44.794Z</time></trkpt><trkpt lat="39.32397748030529" lon="8.534231125658954"><ele>253.8</ele><time>2026-04-27T11:00:45.794Z</time></trkpt><trkpt lat="39.32391236395162" lon="8.53412468429852"><ele>253.4</ele><time>2026-04-27T11:00:46.794Z</time></trkpt><trkpt lat="39.32384902006793" lon="8.534022171474714"><ele>253.0</ele><time>2026-04-27T11:00:47.794Z</time></trkpt><trkpt lat="39.32377841749385" lon="8.533932917546476"><ele>253.0</ele><time>2026-04-27T11:00:48.794Z</time></trkpt><trkpt lat="39.3237032279941" lon="8.533844391735961"><ele>253.0</ele><time>2026-04-27T11:00:49.794Z</time></trkpt><trkpt lat="39.323630127013466" lon="8.533738510947938"><ele>253.0</ele><time>2026-04-27T11:00:50.794Z</time></trkpt><trkpt lat="39.323537866018555" lon="8.533640310360525"><ele>253.0</ele><time>2026-04-27T11:00:51.794Z</time></trkpt><trkpt lat="39.323430026380024" lon="8.53355767976013"><ele>248.5</ele><time>2026-04-27T11:00:52.794Z</time></trkpt><trkpt lat="39.32331716203489" lon="8.53348542889905"><ele>244.0</ele><time>2026-04-27T11:00:53.794Z</time></trkpt><trkpt lat="39.32319668128784" lon="8.533432049042519"><ele>239.5</ele><time>2026-04-27T11:00:54.794Z</time></trkpt><trkpt lat="39.32308254534394" lon="8.533375048252777"><ele>235.0</ele><time>2026-04-27T11:00:55.794Z</time></trkpt><trkpt lat="39.32297029845046" lon="8.53331633832585"><ele>234.0</ele><time>2026-04-27T11:00:56.793Z</time></trkpt><trkpt lat="39.32285801399305" lon="8.533269579355485"><ele>233.0</ele><time>2026-04-27T11:00:57.793Z</time></trkpt><trkpt lat="39.32275003716654" lon="8.53321711028281"><ele>232.0</ele><time>2026-04-27T11:00:58.793Z</time></trkpt><trkpt lat="39.32264572833951" lon="8.533168544948884"><ele>231.0</ele><time>2026-04-27T11:00:59.793Z</time></trkpt><trkpt lat="39.32254256327141" lon="8.533110728265155"><ele>231.0</ele><time>2026-04-27T11:01:00.793Z</time></trkpt><trkpt lat="39.32243567809673" lon="8.533061667130331"><ele>231.0</ele><time>2026-04-27T11:01:01.793Z</time></trkpt><trkpt lat="39.32232000270048" lon="8.533015973348189"><ele>231.0</ele><time>2026-04-27T11:01:02.793Z</time></trkpt><trkpt lat="39.32220201078666" lon="8.532983713387738"><ele>231.0</ele><time>2026-04-27T11:01:03.793Z</time></trkpt><trkpt lat="39.32207804683337" lon="8.53296655537001"><ele>230.0</ele><time>2026-04-27T11:01:04.793Z</time></trkpt><trkpt lat="39.32195467312672" lon="8.532957309400881"><ele>229.0</ele><time>2026-04-27T11:01:05.793Z</time></trkpt><trkpt lat="39.32183206265604" lon="8.532946100068683"><ele>228.0</ele><time>2026-04-27T11:01:06.793Z</time></trkpt><trkpt lat="39.32170533478621" lon="8.532935479002216"><ele>227.0</ele><time>2026-04-27T11:01:07.793Z</time></trkpt><trkpt lat="39.32157422614498" lon="8.532925280594243"><ele>227.0</ele><time>2026-04-27T11:01:08.793Z</time></trkpt><trkpt lat="39.32143691184292" lon="8.532915727090026"><ele>227.0</ele><time>2026-04-27T11:01:09.793Z</time></trkpt><trkpt lat="39.321305962017966" lon="8.532898274818127"><ele>227.0</ele><time>2026-04-27T11:01:10.793Z</time></trkpt><trkpt lat="39.32118678496025" lon="8.532883934911062"><ele>227.0</ele><time>2026-04-27T11:01:11.793Z</time></trkpt><trkpt lat="39.32107295504026" lon="8.53287364129928"><ele>227.8</ele><time>2026-04-27T11:01:12.793Z</time></trkpt><trkpt lat="39.320966088852764" lon="8.532863507338819"><ele>228.6</ele><time>2026-04-27T11:01:13.793Z</time></trkpt><trkpt lat="39.320855157207816" lon="8.532858374659181"><ele>229.40000000000003</ele><time>2026-04-27T11:01:14.793Z</time></trkpt><trkpt lat="39.32074932440617" lon="8.53284894098385"><ele>230.20000000000002</ele><time>2026-04-27T11:01:15.793Z</time></trkpt><trkpt lat="39.320650162841126" lon="8.532828799630202"><ele>231.0</ele><time>2026-04-27T11:01:16.793Z</time></trkpt><trkpt lat="39.32054005776791" lon="8.532819172622494"><ele>228.20000000000002</ele><time>2026-04-27T11:01:17.793Z</time></trkpt><trkpt lat="39.32042539295742" lon="8.532804955253605"><ele>225.40000000000003</ele><time>2026-04-27T11:01:18.793Z</time></trkpt><trkpt lat="39.32031851798656" lon="8.53280001293972"><ele>222.6</ele><time>2026-04-27T11:01:19.793Z</time></trkpt><trkpt lat="39.320214874678506" lon="8.532791868227292"><ele>219.8</ele><time>2026-04-27T11:01:20.793Z</time></trkpt><trkpt lat="39.32011641788428" lon="8.532784198411386"><ele>217.0</ele><time>2026-04-27T11:01:21.793Z</time></trkpt><trkpt lat="39.32002139055963" lon="8.53277903395829"><ele>216.99999999999997</ele><time>2026-04-27T11:01:22.793Z</time></trkpt><trkpt lat="39.31992565019666" lon="8.532780470865948"><ele>217.0</ele><time>2026-04-27T11:01:23.793Z</time></trkpt><trkpt lat="39.31983722207908" lon="8.532794036556963"><ele>217.0</ele><time>2026-04-27T11:01:24.793Z</time></trkpt><trkpt lat="39.31975777523181" lon="8.53281351114212"><ele>217.0</ele><time>2026-04-27T11:01:25.793Z</time></trkpt><trkpt lat="39.319673657818804" lon="8.532827737666983"><ele>216.99999999999997</ele><time>2026-04-27T11:01:26.793Z</time></trkpt><trkpt lat="39.31959115408191" lon="8.532843847616887"><ele>217.0</ele><time>2026-04-27T11:01:27.793Z</time></trkpt><trkpt lat="39.31951316295124" lon="8.532866300796801"><ele>216.83333333333331</ele><time>2026-04-27T11:01:28.793Z</time></trkpt><trkpt lat="39.319431294547385" lon="8.532881372800135"><ele>216.66666666666666</ele><time>2026-04-27T11:01:29.793Z</time></trkpt><trkpt lat="39.319354068752176" lon="8.532906445072348"><ele>216.5</ele><time>2026-04-27T11:01:30.793Z</time></trkpt><trkpt lat="39.3192770598676" lon="8.532934576723893"><ele>216.33333333333331</ele><time>2026-04-27T11:01:31.793Z</time></trkpt><trkpt lat="39.319197113146835" lon="8.532955140289745"><ele>216.16666666666666</ele><time>2026-04-27T11:01:32.793Z</time></trkpt><trkpt lat="39.31910952076483" lon="8.532965853992726"><ele>216.0</ele><time>2026-04-27T11:01:33.793Z</time></trkpt><trkpt lat="39.319031990781404" lon="8.53300243595738"><ele>216.0</ele><time>2026-04-27T11:01:34.793Z</time></trkpt><trkpt lat="39.31894222356229" lon="8.533051265644714"><ele>216.00000000000003</ele><time>2026-04-27T11:01:35.793Z</time></trkpt><trkpt lat="39.31885733198612" lon="8.533114501892276"><ele>216.00000000000003</ele><time>2026-04-27T11:01:36.793Z</time></trkpt><trkpt lat="39.318767668855195" lon="8.533145401432595"><ele>216.0</ele><time>2026-04-27T11:01:37.793Z</time></trkpt><trkpt lat="39.31869187718279" lon="8.533193357006054"><ele>216.0</ele><time>2026-04-27T11:01:38.793Z</time></trkpt><trkpt lat="39.31861103774202" lon="8.533223922445577"><ele>214.16666666666666</ele><time>2026-04-27T11:01:39.793Z</time></trkpt><trkpt lat="39.318530516201285" lon="8.533259718473273"><ele>212.33333333333331</ele><time>2026-04-27T11:01:40.793Z</time></trkpt><trkpt lat="39.31845410411519" lon="8.53331216807047"><ele>210.5</ele><time>2026-04-27T11:01:41.793Z</time></trkpt><trkpt lat="39.31836719942278" lon="8.533362217019736"><ele>208.66666666666666</ele><time>2026-04-27T11:01:42.793Z</time></trkpt><trkpt lat="39.31828649051263" lon="8.533403279081758"><ele>206.83333333333331</ele><time>2026-04-27T11:01:43.793Z</time></trkpt><trkpt lat="39.31820489058526" lon="8.533447963005923"><ele>205.0</ele><time>2026-04-27T11:01:44.793Z</time></trkpt><trkpt lat="39.318120613519426" lon="8.533488102455214"><ele>205.4</ele><time>2026-04-27T11:01:45.793Z</time></trkpt><trkpt lat="39.31803790893654" lon="8.533532755868718"><ele>205.8</ele><time>2026-04-27T11:01:46.793Z</time></trkpt><trkpt lat="39.31795511441213" lon="8.533576709574474"><ele>206.2</ele><time>2026-04-27T11:01:47.793Z</time></trkpt><trkpt lat="39.31786832413585" lon="8.533610860966615"><ele>206.6</ele><time>2026-04-27T11:01:48.793Z</time></trkpt><trkpt lat="39.317775369016275" lon="8.53366114753894"><ele>207.0</ele><time>2026-04-27T11:01:49.792Z</time></trkpt><trkpt lat="39.31769579779249" lon="8.533715228561888"><ele>209.2</ele><time>2026-04-27T11:01:50.792Z</time></trkpt><trkpt lat="39.31760998514004" lon="8.533765692690395"><ele>211.39999999999998</ele><time>2026-04-27T11:01:51.792Z</time></trkpt><trkpt lat="39.31751996873933" lon="8.533803144229001"><ele>213.60000000000002</ele><time>2026-04-27T11:01:52.792Z</time></trkpt><trkpt lat="39.31742886662291" lon="8.533836212659729"><ele>215.8</ele><time>2026-04-27T11:01:53.792Z</time></trkpt><trkpt lat="39.317336415602036" lon="8.533864749407801"><ele>218.0</ele><time>2026-04-27T11:01:54.792Z</time></trkpt><trkpt lat="39.31723945142576" lon="8.533886772336041"><ele>216.16666666666669</ele><time>2026-04-27T11:01:55.792Z</time></trkpt><trkpt lat="39.317154915871185" lon="8.533915194121917"><ele>214.33333333333334</ele><time>2026-04-27T11:01:56.792Z</time></trkpt><trkpt lat="39.317082264453255" lon="8.533936358838714"><ele>212.5</ele><time>2026-04-27T11:01:57.792Z</time></trkpt><trkpt lat="39.31699955137672" lon="8.53396255010064"><ele>210.66666666666669</ele><time>2026-04-27T11:01:58.792Z</time></trkpt><trkpt lat="39.3169215483733" lon="8.533988928272391"><ele>208.83333333333334</ele><time>2026-04-27T11:01:59.792Z</time></trkpt><trkpt lat="39.31684196358404" lon="8.534007787461235"><ele>207.0</ele><time>2026-04-27T11:02:00.792Z</time></trkpt><trkpt lat="39.31676341801425" lon="8.534023423454027"><ele>207.0</ele><time>2026-04-27T11:02:01.792Z</time></trkpt><trkpt lat="39.31668488068182" lon="8.534040389661053"><ele>207.0</ele><time>2026-04-27T11:02:02.792Z</time></trkpt><trkpt lat="39.31660850019413" lon="8.534056695212344"><ele>207.0</ele><time>2026-04-27T11:02:03.792Z</time></trkpt><trkpt lat="39.316537523687465" lon="8.534078524024812"><ele>207.0</ele><time>2026-04-27T11:02:04.792Z</time></trkpt><trkpt lat="39.31647228792097" lon="8.53409543042747"><ele>207.0</ele><time>2026-04-27T11:02:05.792Z</time></trkpt><trkpt lat="39.3164084135738" lon="8.534094487841658"><ele>207.0</ele><time>2026-04-27T11:02:06.792Z</time></trkpt><trkpt lat="39.31630961301911" lon="8.534121898227157"><ele>206.0</ele><time>2026-04-27T11:02:08.792Z</time></trkpt><trkpt lat="39.3162213631181" lon="8.534133588886258"><ele>205.0</ele><time>2026-04-27T11:02:10.792Z</time></trkpt><trkpt lat="39.316126701620576" lon="8.534136391681441"><ele>204.0</ele><time>2026-04-27T11:02:16.792Z</time></trkpt><trkpt lat="39.31605495292575" lon="8.534163592124903"><ele>203.0</ele><time>2026-04-27T11:02:18.792Z</time></trkpt><trkpt lat="39.31594610305834" lon="8.534188422708432"><ele>202.0</ele><time>2026-04-27T11:02:20.792Z</time></trkpt><trkpt lat="39.31584848821826" lon="8.534222233472613"><ele>202.0</ele><time>2026-04-27T11:02:22.792Z</time></trkpt><trkpt lat="39.31573968999655" lon="8.534244385316065"><ele>202.0</ele><time>2026-04-27T11:02:24.792Z</time></trkpt><trkpt lat="39.31566249124285" lon="8.534276967418336"><ele>202.0</ele><time>2026-04-27T11:02:26.792Z</time></trkpt><trkpt lat="39.31557399907936" lon="8.534313529937956"><ele>202.0</ele><time>2026-04-27T11:02:29.792Z</time></trkpt><trkpt lat="39.315464949028254" lon="8.534301331635145"><ele>202.0</ele><time>2026-04-27T11:02:31.792Z</time></trkpt><trkpt lat="39.315370517399046" lon="8.534234361713988"><ele>202.2</ele><time>2026-04-27T11:02:33.792Z</time></trkpt><trkpt lat="39.31524756885295" lon="8.53420961359144"><ele>202.39999999999998</ele><time>2026-04-27T11:02:35.793Z</time></trkpt><trkpt lat="39.31513067899285" lon="8.534205366868816"><ele>202.60000000000002</ele><time>2026-04-27T11:02:37.791Z</time></trkpt><trkpt lat="39.315055859429826" lon="8.534196692214055"><ele>202.8</ele><time>2026-04-27T11:02:38.792Z</time></trkpt><trkpt lat="39.3149910044328" lon="8.534186361908723"><ele>203.0</ele><time>2026-04-27T11:02:39.792Z</time></trkpt><trkpt lat="39.314882161564505" lon="8.534167221133723"><ele>203.0</ele><time>2026-04-27T11:02:41.792Z</time></trkpt><trkpt lat="39.31478322893492" lon="8.534236112462207"><ele>203.0</ele><time>2026-04-27T11:02:43.792Z</time></trkpt><trkpt lat="39.31466678802951" lon="8.53427194175"><ele>203.0</ele><time>2026-04-27T11:02:45.792Z</time></trkpt><trkpt lat="39.31459153620795" lon="8.53430161306536"><ele>203.0</ele><time>2026-04-27T11:02:46.792Z</time></trkpt><trkpt lat="39.314514402170474" lon="8.534333339929605"><ele>203.0</ele><time>2026-04-27T11:02:47.792Z</time></trkpt><trkpt lat="39.31444705760303" lon="8.534357555302753"><ele>203.14285714285714</ele><time>2026-04-27T11:02:48.792Z</time></trkpt><trkpt lat="39.3143850726805" lon="8.534379929727699"><ele>203.28571428571428</ele><time>2026-04-27T11:02:49.792Z</time></trkpt><trkpt lat="39.31432186476484" lon="8.534448937173272"><ele>203.42857142857144</ele><time>2026-04-27T11:02:50.792Z</time></trkpt><trkpt lat="39.31427101584882" lon="8.534503500283181"><ele>203.57142857142856</ele><time>2026-04-27T11:02:51.792Z</time></trkpt><trkpt lat="39.31421991456621" lon="8.534571816192623"><ele>203.71428571428572</ele><time>2026-04-27T11:02:52.792Z</time></trkpt><trkpt lat="39.31417523518509" lon="8.534658266534334"><ele>203.85714285714286</ele><time>2026-04-27T11:02:53.792Z</time></trkpt><trkpt lat="39.31412679120693" lon="8.534719147470966"><ele>204.0</ele><time>2026-04-27T11:02:54.792Z</time></trkpt><trkpt lat="39.31403796803885" lon="8.53483833914559"><ele>204.0</ele><time>2026-04-27T11:02:56.792Z</time></trkpt><trkpt lat="39.31399282186385" lon="8.534916227736954"><ele>204.0</ele><time>2026-04-27T11:02:57.792Z</time></trkpt><trkpt lat="39.31395470649833" lon="8.534989484769518"><ele>204.0</ele><time>2026-04-27T11:02:58.792Z</time></trkpt><trkpt lat="39.31390595033267" lon="8.5350651655589"><ele>204.0</ele><time>2026-04-27T11:02:59.792Z</time></trkpt><trkpt lat="39.313865605978826" lon="8.53514850037672"><ele>204.0</ele><time>2026-04-27T11:03:00.792Z</time></trkpt><trkpt lat="39.313822449348656" lon="8.53523516324699"><ele>204.0</ele><time>2026-04-27T11:03:01.792Z</time></trkpt><trkpt lat="39.31377539766658" lon="8.535319207140413"><ele>202.83333333333334</ele><time>2026-04-27T11:03:02.792Z</time></trkpt><trkpt lat="39.31373492231703" lon="8.535411645664636"><ele>201.66666666666669</ele><time>2026-04-27T11:03:03.792Z</time></trkpt><trkpt lat="39.313700247461426" lon="8.53550364102576"><ele>200.5</ele><time>2026-04-27T11:03:04.792Z</time></trkpt><trkpt lat="39.31366499057092" lon="8.535598417412857"><ele>199.33333333333334</ele><time>2026-04-27T11:03:05.792Z</time></trkpt><trkpt lat="39.313627477944046" lon="8.535685066554665"><ele>198.16666666666669</ele><time>2026-04-27T11:03:06.792Z</time></trkpt><trkpt lat="39.31359298748373" lon="8.535779883829045"><ele>197.0</ele><time>2026-04-27T11:03:07.792Z</time></trkpt><trkpt lat="39.313555706611695" lon="8.535854493123662"><ele>197.00000000000003</ele><time>2026-04-27T11:03:08.792Z</time></trkpt><trkpt lat="39.313532093325655" lon="8.535935397183584"><ele>197.0</ele><time>2026-04-27T11:03:09.792Z</time></trkpt><trkpt lat="39.31347440666355" lon="8.536065066560383"><ele>197.0</ele><time>2026-04-27T11:03:11.792Z</time></trkpt><trkpt lat="39.31340764596117" lon="8.536169652846784"><ele>197.0</ele><time>2026-04-27T11:03:13.792Z</time></trkpt><trkpt lat="39.3133682173347" lon="8.536249675091"><ele>197.00000000000003</ele><time>2026-04-27T11:03:18.791Z</time></trkpt><trkpt lat="39.31331375893191" lon="8.536294082269757"><ele>197.0</ele><time>2026-04-27T11:03:21.791Z</time></trkpt><trkpt lat="39.31324799686577" lon="8.536345406391298"><ele>193.0</ele><time>2026-04-27T11:03:24.791Z</time></trkpt><trkpt lat="39.3131626584198" lon="8.536367244288511"><ele>193.0</ele><time>2026-04-27T11:03:27.791Z</time></trkpt><trkpt lat="39.313091733503065" lon="8.536346021328079"><ele>193.0</ele><time>2026-04-27T11:03:30.791Z</time></trkpt><trkpt lat="39.31302888953663" lon="8.536299266044983"><ele>189.0</ele><time>2026-04-27T11:03:32.791Z</time></trkpt><trkpt lat="39.312975294060216" lon="8.536256545614613"><ele>189.0</ele><time>2026-04-27T11:03:34.791Z</time></trkpt><trkpt lat="39.31291433502869" lon="8.536215094057619"><ele>195.0</ele><time>2026-04-27T11:03:39.791Z</time></trkpt><trkpt lat="39.31283756123423" lon="8.536170213511896"><ele>195.0</ele><time>2026-04-27T11:03:51.791Z</time></trkpt></trkseg><trkseg><trkpt lat="39.31235943291221" lon="8.535644781420954"><ele>195.0</ele><time>2026-04-27T12:31:29.072Z</time></trkpt><trkpt lat="39.3124329532169" lon="8.535675308917922"><ele>195.0</ele><time>2026-04-27T12:31:48.073Z</time></trkpt><trkpt lat="39.31250052691638" lon="8.535785356886608"><ele>195.0</ele><time>2026-04-27T12:31:50.073Z</time></trkpt><trkpt lat="39.31253629880491" lon="8.535852672431293"><ele>195.0</ele><time>2026-04-27T12:31:51.073Z</time></trkpt><trkpt lat="39.312609885846484" lon="8.535949915751624"><ele>195.0</ele><time>2026-04-27T12:31:53.073Z</time></trkpt><trkpt lat="39.31267228105954" lon="8.53604620958505"><ele>195.0</ele><time>2026-04-27T12:31:55.073Z</time></trkpt><trkpt lat="39.312662113609925" lon="8.536138292631906"><ele>195.0</ele><time>2026-04-27T12:31:57.073Z</time></trkpt><trkpt lat="39.312607968074865" lon="8.536253231578154"><ele>195.0</ele><time>2026-04-27T12:31:59.073Z</time></trkpt><trkpt lat="39.31254358493132" lon="8.536372038082662"><ele>195.0</ele><time>2026-04-27T12:32:01.073Z</time></trkpt><trkpt lat="39.31247140652626" lon="8.536500544763733"><ele>195.0</ele><time>2026-04-27T12:32:03.073Z</time></trkpt><trkpt lat="39.312421225913965" lon="8.536640559870564"><ele>193.8</ele><time>2026-04-27T12:32:05.073Z</time></trkpt><trkpt lat="39.31235981499178" lon="8.536778194374543"><ele>192.6</ele><time>2026-04-27T12:32:07.073Z</time></trkpt><trkpt lat="39.31232691481403" lon="8.536848296314853"><ele>191.39999999999998</ele><time>2026-04-27T12:32:08.073Z</time></trkpt><trkpt lat="39.31229339076212" lon="8.53692396588371"><ele>190.2</ele><time>2026-04-27T12:32:09.073Z</time></trkpt><trkpt lat="39.312277002996304" lon="8.537062557719867"><ele>189.0</ele><time>2026-04-27T12:32:11.073Z</time></trkpt><trkpt lat="39.31238610203187" lon="8.53714498772453"><ele>188.79999999999998</ele><time>2026-04-27T12:32:13.073Z</time></trkpt><trkpt lat="39.31250368885809" lon="8.537220182225976"><ele>188.6</ele><time>2026-04-27T12:32:15.073Z</time></trkpt><trkpt lat="39.31262431431708" lon="8.53728138832709"><ele>188.4</ele><time>2026-04-27T12:32:17.073Z</time></trkpt><trkpt lat="39.31271596414823" lon="8.53733999035854"><ele>188.2</ele><time>2026-04-27T12:32:19.073Z</time></trkpt><trkpt lat="39.312790405321245" lon="8.537365369344064"><ele>188.0</ele><time>2026-04-27T12:32:26.073Z</time></trkpt><trkpt lat="39.312864844580446" lon="8.537334152160339"><ele>188.0</ele><time>2026-04-27T12:32:29.073Z</time></trkpt><trkpt lat="39.31291872061257" lon="8.53721141235535"><ele>188.0</ele><time>2026-04-27T12:32:31.073Z</time></trkpt><trkpt lat="39.31294009945544" lon="8.537132761094366"><ele>188.0</ele><time>2026-04-27T12:32:32.073Z</time></trkpt><trkpt lat="39.31294917249911" lon="8.537026637665297"><ele>188.0</ele><time>2026-04-27T12:32:33.073Z</time></trkpt><trkpt lat="39.312992988933644" lon="8.536886058839258"><ele>188.0</ele><time>2026-04-27T12:32:35.073Z</time></trkpt><trkpt lat="39.31302336557507" lon="8.536808606478928"><ele>188.0</ele><time>2026-04-27T12:32:36.073Z</time></trkpt><trkpt lat="39.31307162694383" lon="8.536669210528041"><ele>188.16666666666666</ele><time>2026-04-27T12:32:38.073Z</time></trkpt><trkpt lat="39.31311337641015" lon="8.536544367775301"><ele>188.33333333333331</ele><time>2026-04-27T12:32:40.073Z</time></trkpt><trkpt lat="39.313116993823755" lon="8.536429702487604"><ele>188.5</ele><time>2026-04-27T12:32:42.073Z</time></trkpt><trkpt lat="39.31305734641767" lon="8.53633200673108"><ele>188.66666666666666</ele><time>2026-04-27T12:32:44.073Z</time></trkpt><trkpt lat="39.31300921432557" lon="8.53627795499065"><ele>188.83333333333334</ele><time>2026-04-27T12:32:45.073Z</time></trkpt><trkpt lat="39.312962173371126" lon="8.536216962735303"><ele>189.0</ele><time>2026-04-27T12:32:46.073Z</time></trkpt><trkpt lat="39.31291499947671" lon="8.536162833441864"><ele>190.0</ele><time>2026-04-27T12:32:47.073Z</time></trkpt><trkpt lat="39.31282202772586" lon="8.53604731003867"><ele>191.0</ele><time>2026-04-27T12:32:49.073Z</time></trkpt><trkpt lat="39.31275528141541" lon="8.535984926510057"><ele>192.0</ele><time>2026-04-27T12:32:50.073Z</time></trkpt><trkpt lat="39.312701795662875" lon="8.53592792643385"><ele>193.0</ele><time>2026-04-27T12:32:51.073Z</time></trkpt><trkpt lat="39.312650158145" lon="8.535872231669517"><ele>194.0</ele><time>2026-04-27T12:32:52.074Z</time></trkpt><trkpt lat="39.31259512412811" lon="8.53581144990141"><ele>195.0</ele><time>2026-04-27T12:32:53.074Z</time></trkpt><trkpt lat="39.312495167432374" lon="8.535686964513134"><ele>195.0</ele><time>2026-04-27T12:32:55.074Z</time></trkpt><trkpt lat="39.312445796597814" lon="8.535618421862011"><ele>195.0</ele><time>2026-04-27T12:32:56.074Z</time></trkpt><trkpt lat="39.31239275571071" lon="8.535546752237236"><ele>195.0</ele><time>2026-04-27T12:32:57.074Z</time></trkpt><trkpt lat="39.31232941647397" lon="8.535490648262881"><ele>195.0</ele><time>2026-04-27T12:32:58.074Z</time></trkpt><trkpt lat="39.31226607239293" lon="8.535437130532458"><ele>195.0</ele><time>2026-04-27T12:32:59.074Z</time></trkpt><trkpt lat="39.31220265432283" lon="8.535379618294069"><ele>195.0</ele><time>2026-04-27T12:33:00.074Z</time></trkpt><trkpt lat="39.31214476485139" lon="8.535323708752653"><ele>195.66666666666666</ele><time>2026-04-27T12:33:01.074Z</time></trkpt><trkpt lat="39.312081290025844" lon="8.535268320434632"><ele>196.33333333333331</ele><time>2026-04-27T12:33:02.073Z</time></trkpt><trkpt lat="39.312017372069" lon="8.535212124300507"><ele>197.0</ele><time>2026-04-27T12:33:03.073Z</time></trkpt><trkpt lat="39.311955936192284" lon="8.53513412718239"><ele>197.66666666666666</ele><time>2026-04-27T12:33:04.074Z</time></trkpt><trkpt lat="39.311910965489886" lon="8.53504176444745"><ele>198.33333333333331</ele><time>2026-04-27T12:33:05.074Z</time></trkpt><trkpt lat="39.311863939066995" lon="8.534957776857127"><ele>199.0</ele><time>2026-04-27T12:33:06.074Z</time></trkpt><trkpt lat="39.31182842255612" lon="8.534878757104424"><ele>198.99999999999997</ele><time>2026-04-27T12:33:07.074Z</time></trkpt><trkpt lat="39.311796276387724" lon="8.534789876951027"><ele>199.0</ele><time>2026-04-27T12:33:08.074Z</time></trkpt><trkpt lat="39.311758767919954" lon="8.534683494903105"><ele>199.0</ele><time>2026-04-27T12:33:09.074Z</time></trkpt><trkpt lat="39.311738994191764" lon="8.534578029198912"><ele>199.0</ele><time>2026-04-27T12:33:10.074Z</time></trkpt><trkpt lat="39.311724849774066" lon="8.53447094975139"><ele>198.99999999999997</ele><time>2026-04-27T12:33:11.074Z</time></trkpt><trkpt lat="39.31170896555016" lon="8.534368216027758"><ele>199.0</ele><time>2026-04-27T12:33:12.074Z</time></trkpt><trkpt lat="39.31168511242991" lon="8.534263101140887"><ele>199.66666666666666</ele><time>2026-04-27T12:33:13.074Z</time></trkpt><trkpt lat="39.311668558462195" lon="8.534169673502346"><ele>200.33333333333331</ele><time>2026-04-27T12:33:14.074Z</time></trkpt><trkpt lat="39.311644665181596" lon="8.53406871492912"><ele>201.0</ele><time>2026-04-27T12:33:15.074Z</time></trkpt><trkpt lat="39.31162258590523" lon="8.533958762304975"><ele>201.66666666666669</ele><time>2026-04-27T12:33:16.074Z</time></trkpt><trkpt lat="39.311597570331216" lon="8.533844587866627"><ele>202.33333333333334</ele><time>2026-04-27T12:33:17.074Z</time></trkpt><trkpt lat="39.311565609623464" lon="8.533730633130586"><ele>203.0</ele><time>2026-04-27T12:33:18.074Z</time></trkpt><trkpt lat="39.31154496502982" lon="8.533613970056136"><ele>203.60000000000002</ele><time>2026-04-27T12:33:19.074Z</time></trkpt><trkpt lat="39.311517368639244" lon="8.533500792607049"><ele>204.20000000000002</ele><time>2026-04-27T12:33:20.074Z</time></trkpt><trkpt lat="39.31148181696608" lon="8.53339165470653"><ele>204.8</ele><time>2026-04-27T12:33:21.074Z</time></trkpt><trkpt lat="39.31145422607568" lon="8.533271612030418"><ele>205.4</ele><time>2026-04-27T12:33:22.074Z</time></trkpt><trkpt lat="39.311438436194905" lon="8.533158391884827"><ele>206.0</ele><time>2026-04-27T12:33:23.074Z</time></trkpt><trkpt lat="39.31140888420512" lon="8.533045019028393"><ele>204.8</ele><time>2026-04-27T12:33:24.074Z</time></trkpt><trkpt lat="39.31137706940491" lon="8.53293105623081"><ele>203.60000000000002</ele><time>2026-04-27T12:33:25.074Z</time></trkpt><trkpt lat="39.31135578600979" lon="8.532818496128714"><ele>202.4</ele><time>2026-04-27T12:33:26.074Z</time></trkpt><trkpt lat="39.31134522343973" lon="8.532698746235956"><ele>201.2</ele><time>2026-04-27T12:33:27.074Z</time></trkpt><trkpt lat="39.311342146011306" lon="8.532577636428533"><ele>200.0</ele><time>2026-04-27T12:33:28.074Z</time></trkpt><trkpt lat="39.31135751581326" lon="8.532460561540711"><ele>200.2</ele><time>2026-04-27T12:33:29.074Z</time></trkpt><trkpt lat="39.31139753262791" lon="8.532334485414724"><ele>200.4</ele><time>2026-04-27T12:33:30.074Z</time></trkpt><trkpt lat="39.31144771397552" lon="8.532221284905452"><ele>200.60000000000002</ele><time>2026-04-27T12:33:31.074Z</time></trkpt><trkpt lat="39.31152497192632" lon="8.532144294733955"><ele>200.8</ele><time>2026-04-27T12:33:32.074Z</time></trkpt><trkpt lat="39.31160246223627" lon="8.532064101776085"><ele>201.0</ele><time>2026-04-27T12:33:33.074Z</time></trkpt><trkpt lat="39.31166361177822" lon="8.531983704589976"><ele>201.0</ele><time>2026-04-27T12:33:34.074Z</time></trkpt><trkpt lat="39.31172885953363" lon="8.531890971064895"><ele>201.0</ele><time>2026-04-27T12:33:35.074Z</time></trkpt><trkpt lat="39.311802298002604" lon="8.531799560535173"><ele>201.0</ele><time>2026-04-27T12:33:36.074Z</time></trkpt><trkpt lat="39.311875713116365" lon="8.531713217086232"><ele>201.0</ele><time>2026-04-27T12:33:37.074Z</time></trkpt><trkpt lat="39.31194613345456" lon="8.531625515175106"><ele>201.0</ele><time>2026-04-27T12:33:38.074Z</time></trkpt><trkpt lat="39.312015854164905" lon="8.531543088490043"><ele>201.0</ele><time>2026-04-27T12:33:39.074Z</time></trkpt><trkpt lat="39.31207484744877" lon="8.531470642167134"><ele>201.0</ele><time>2026-04-27T12:33:40.074Z</time></trkpt><trkpt lat="39.31212208882408" lon="8.531413794462948"><ele>201.0</ele><time>2026-04-27T12:33:43.074Z</time></trkpt><trkpt lat="39.31217302478121" lon="8.531358064817121"><ele>201.0</ele><time>2026-04-27T12:33:45.074Z</time></trkpt><trkpt lat="39.31227580335534" lon="8.53122805053828"><ele>201.0</ele><time>2026-04-27T12:33:47.074Z</time></trkpt><trkpt lat="39.31234445684529" lon="8.531149837449256"><ele>201.0</ele><time>2026-04-27T12:33:48.074Z</time></trkpt><trkpt lat="39.3124193486875" lon="8.53105246404052"><ele>202.8</ele><time>2026-04-27T12:33:49.074Z</time></trkpt><trkpt lat="39.3124851828627" lon="8.530956773475802"><ele>204.60000000000002</ele><time>2026-04-27T12:33:50.074Z</time></trkpt><trkpt lat="39.31256531777515" lon="8.5308587502523"><ele>206.4</ele><time>2026-04-27T12:33:51.074Z</time></trkpt><trkpt lat="39.312646817419186" lon="8.530764557738754"><ele>208.2</ele><time>2026-04-27T12:33:52.074Z</time></trkpt><trkpt lat="39.312722149109874" lon="8.530669973200865"><ele>210.0</ele><time>2026-04-27T12:33:53.074Z</time></trkpt><trkpt lat="39.3127905572715" lon="8.53058706144039"><ele>210.0</ele><time>2026-04-27T12:33:54.074Z</time></trkpt><trkpt lat="39.31285361581674" lon="8.530515642813613"><ele>210.0</ele><time>2026-04-27T12:33:55.074Z</time></trkpt><trkpt lat="39.31290717328771" lon="8.530447848383744"><ele>210.0</ele><time>2026-04-27T12:33:56.074Z</time></trkpt><trkpt lat="39.31295451370396" lon="8.530391792704165"><ele>210.0</ele><time>2026-04-27T12:33:57.074Z</time></trkpt><trkpt lat="39.313002628987014" lon="8.530244778473831"><ele>210.0</ele><time>2026-04-27T12:33:59.074Z</time></trkpt><trkpt lat="39.312977008969426" lon="8.530168206135162"><ele>210.0</ele><time>2026-04-27T12:34:00.074Z</time></trkpt><trkpt lat="39.31294070412329" lon="8.5301014560687"><ele>210.0</ele><time>2026-04-27T12:34:01.074Z</time></trkpt><trkpt lat="39.312862858427906" lon="8.529972650461907"><ele>210.0</ele><time>2026-04-27T12:34:03.074Z</time></trkpt><trkpt lat="39.31282384868396" lon="8.529881091068043"><ele>210.0</ele><time>2026-04-27T12:34:04.074Z</time></trkpt><trkpt lat="39.31279322065208" lon="8.529790696301552"><ele>210.0</ele><time>2026-04-27T12:34:05.074Z</time></trkpt><trkpt lat="39.31276267664124" lon="8.529697395687238"><ele>210.0</ele><time>2026-04-27T12:34:06.074Z</time></trkpt><trkpt lat="39.31273072988064" lon="8.529595227018229"><ele>210.0</ele><time>2026-04-27T12:34:07.074Z</time></trkpt><trkpt lat="39.312690285554936" lon="8.529506144411354"><ele>209.6</ele><time>2026-04-27T12:34:08.074Z</time></trkpt><trkpt lat="39.31264933775704" lon="8.529402485677492"><ele>209.2</ele><time>2026-04-27T12:34:09.074Z</time></trkpt><trkpt lat="39.31261153657331" lon="8.529285644549551"><ele>208.8</ele><time>2026-04-27T12:34:10.074Z</time></trkpt><trkpt lat="39.312564476402436" lon="8.529168096655146"><ele>208.4</ele><time>2026-04-27T12:34:11.074Z</time></trkpt><trkpt lat="39.31251823689786" lon="8.529054687891655"><ele>208.0</ele><time>2026-04-27T12:34:12.074Z</time></trkpt><trkpt lat="39.31247670197555" lon="8.528948575677477"><ele>208.0</ele><time>2026-04-27T12:34:13.074Z</time></trkpt><trkpt lat="39.31243741779048" lon="8.528844123905237"><ele>208.0</ele><time>2026-04-27T12:34:14.074Z</time></trkpt><trkpt lat="39.31240154162754" lon="8.528734219519864"><ele>208.0</ele><time>2026-04-27T12:34:15.074Z</time></trkpt><trkpt lat="39.31235815133367" lon="8.528637533439593"><ele>208.0</ele><time>2026-04-27T12:34:16.074Z</time></trkpt><trkpt lat="39.312314003475805" lon="8.528522042176249"><ele>208.0</ele><time>2026-04-27T12:34:17.075Z</time></trkpt><trkpt lat="39.312277751356646" lon="8.528410484635005"><ele>208.2</ele><time>2026-04-27T12:34:18.075Z</time></trkpt><trkpt lat="39.31224445440484" lon="8.528299899541873"><ele>208.4</ele><time>2026-04-27T12:34:19.075Z</time></trkpt><trkpt lat="39.312198044094245" lon="8.528179175495275"><ele>208.6</ele><time>2026-04-27T12:34:20.075Z</time></trkpt><trkpt lat="39.31213380918439" lon="8.52805962639362"><ele>208.79999999999998</ele><time>2026-04-27T12:34:21.075Z</time></trkpt><trkpt lat="39.31208665534295" lon="8.527924190255614"><ele>209.0</ele><time>2026-04-27T12:34:22.075Z</time></trkpt><trkpt lat="39.31203819150182" lon="8.527789466933363"><ele>208.2</ele><time>2026-04-27T12:34:23.075Z</time></trkpt><trkpt lat="39.31198806856877" lon="8.527661150133087"><ele>207.39999999999998</ele><time>2026-04-27T12:34:24.075Z</time></trkpt><trkpt lat="39.311933949279286" lon="8.527524720889696"><ele>206.6</ele><time>2026-04-27T12:34:25.075Z</time></trkpt><trkpt lat="39.31188419391905" lon="8.527402280755517"><ele>205.8</ele><time>2026-04-27T12:34:26.075Z</time></trkpt><trkpt lat="39.31183357042922" lon="8.527288609506131"><ele>205.0</ele><time>2026-04-27T12:34:27.075Z</time></trkpt><trkpt lat="39.31178953811257" lon="8.527172271180353"><ele>205.0</ele><time>2026-04-27T12:34:28.075Z</time></trkpt><trkpt lat="39.31173978433362" lon="8.527062522475635"><ele>205.0</ele><time>2026-04-27T12:34:29.075Z</time></trkpt><trkpt lat="39.31169703283912" lon="8.52694573409778"><ele>205.0</ele><time>2026-04-27T12:34:30.075Z</time></trkpt><trkpt lat="39.31166368547812" lon="8.526819888248662"><ele>205.0</ele><time>2026-04-27T12:34:31.075Z</time></trkpt><trkpt lat="39.3116125684763" lon="8.526707604057643"><ele>205.0</ele><time>2026-04-27T12:34:32.075Z</time></trkpt><trkpt lat="39.311577019047554" lon="8.526596626193017"><ele>204.6</ele><time>2026-04-27T12:34:33.075Z</time></trkpt><trkpt lat="39.31153581727622" lon="8.526476211151358"><ele>204.2</ele><time>2026-04-27T12:34:34.075Z</time></trkpt><trkpt lat="39.311494535117504" lon="8.52636640283946"><ele>203.8</ele><time>2026-04-27T12:34:35.075Z</time></trkpt><trkpt lat="39.311454565056444" lon="8.52625822668625"><ele>203.4</ele><time>2026-04-27T12:34:36.075Z</time></trkpt><trkpt lat="39.31141083653229" lon="8.526158398327569"><ele>203.0</ele><time>2026-04-27T12:34:37.075Z</time></trkpt><trkpt lat="39.311371172969885" lon="8.526057475984503"><ele>202.2</ele><time>2026-04-27T12:34:38.075Z</time></trkpt><trkpt lat="39.31133298223145" lon="8.525960380886456"><ele>201.4</ele><time>2026-04-27T12:34:39.075Z</time></trkpt><trkpt lat="39.3113023578277" lon="8.525884579747785"><ele>200.6</ele><time>2026-04-27T12:34:40.075Z</time></trkpt><trkpt lat="39.311252524487934" lon="8.52574873081915"><ele>199.79999999999998</ele><time>2026-04-27T12:34:42.075Z</time></trkpt><trkpt lat="39.31120566324451" lon="8.525618332873155"><ele>199.0</ele><time>2026-04-27T12:34:44.075Z</time></trkpt><trkpt lat="39.31116740533058" lon="8.525514339908797"><ele>198.99999999999997</ele><time>2026-04-27T12:34:46.075Z</time></trkpt><trkpt lat="39.31113684604579" lon="8.525437080755172"><ele>199.0</ele><time>2026-04-27T12:34:48.075Z</time></trkpt><trkpt lat="39.31111304016499" lon="8.525337898822702"><ele>199.0</ele><time>2026-04-27T12:34:51.075Z</time></trkpt><trkpt lat="39.311087455392546" lon="8.52525109348586"><ele>199.0</ele><time>2026-04-27T12:34:53.075Z</time></trkpt><trkpt lat="39.3110457191856" lon="8.52514469285995"><ele>198.99999999999997</ele><time>2026-04-27T12:34:55.075Z</time></trkpt><trkpt lat="39.31099225489491" lon="8.524992912321451"><ele>199.0</ele><time>2026-04-27T12:34:57.075Z</time></trkpt><trkpt lat="39.31096044249197" lon="8.524916689378232"><ele>199.83333333333331</ele><time>2026-04-27T12:34:58.076Z</time></trkpt><trkpt lat="39.310925886949185" lon="8.524832733405038"><ele>200.66666666666666</ele><time>2026-04-27T12:34:59.076Z</time></trkpt><trkpt lat="39.31088944693717" lon="8.524743869184887"><ele>201.5</ele><time>2026-04-27T12:35:00.076Z</time></trkpt><trkpt lat="39.31085719713136" lon="8.524657842832955"><ele>202.33333333333331</ele><time>2026-04-27T12:35:01.076Z</time></trkpt><trkpt lat="39.31081330176316" lon="8.52456195268116"><ele>203.16666666666666</ele><time>2026-04-27T12:35:02.076Z</time></trkpt><trkpt lat="39.31076348277793" lon="8.524464863345825"><ele>204.0</ele><time>2026-04-27T12:35:03.076Z</time></trkpt><trkpt lat="39.31070595879269" lon="8.524371304018333"><ele>204.2</ele><time>2026-04-27T12:35:04.076Z</time></trkpt><trkpt lat="39.31064133639462" lon="8.52428361379156"><ele>204.39999999999998</ele><time>2026-04-27T12:35:05.076Z</time></trkpt><trkpt lat="39.310579289658" lon="8.524196207211423"><ele>204.6</ele><time>2026-04-27T12:35:06.076Z</time></trkpt><trkpt lat="39.31051133003729" lon="8.524109073899142"><ele>204.8</ele><time>2026-04-27T12:35:07.077Z</time></trkpt><trkpt lat="39.310434460784" lon="8.524026712572713"><ele>205.0</ele><time>2026-04-27T12:35:08.076Z</time></trkpt><trkpt lat="39.31036109801845" lon="8.523938720485429"><ele>205.0</ele><time>2026-04-27T12:35:09.076Z</time></trkpt><trkpt lat="39.310286263334504" lon="8.523856631039543"><ele>205.0</ele><time>2026-04-27T12:35:10.076Z</time></trkpt><trkpt lat="39.31020393052588" lon="8.52376913942222"><ele>205.0</ele><time>2026-04-27T12:35:11.076Z</time></trkpt><trkpt lat="39.310108249132" lon="8.523687442465539"><ele>205.0</ele><time>2026-04-27T12:35:12.076Z</time></trkpt><trkpt lat="39.310015481235254" lon="8.52361348693735"><ele>205.0</ele><time>2026-04-27T12:35:13.076Z</time></trkpt><trkpt lat="39.30991570441605" lon="8.52352431596801"><ele>205.0</ele><time>2026-04-27T12:35:14.076Z</time></trkpt><trkpt lat="39.30981392042582" lon="8.523457497247282"><ele>205.0</ele><time>2026-04-27T12:35:15.076Z</time></trkpt><trkpt lat="39.30971036236849" lon="8.52338533537019"><ele>205.0</ele><time>2026-04-27T12:35:16.076Z</time></trkpt><trkpt lat="39.309614921771654" lon="8.523312849844555"><ele>205.0</ele><time>2026-04-27T12:35:17.076Z</time></trkpt><trkpt lat="39.309520131179546" lon="8.523251420921897"><ele>205.0</ele><time>2026-04-27T12:35:18.076Z</time></trkpt><trkpt lat="39.30942406069113" lon="8.52319360548474"><ele>204.4</ele><time>2026-04-27T12:35:19.076Z</time></trkpt><trkpt lat="39.30932772787948" lon="8.523133391808443"><ele>203.8</ele><time>2026-04-27T12:35:20.076Z</time></trkpt><trkpt lat="39.30923303655624" lon="8.52307920686051"><ele>203.2</ele><time>2026-04-27T12:35:21.076Z</time></trkpt><trkpt lat="39.30913866441986" lon="8.523033606584844"><ele>202.6</ele><time>2026-04-27T12:35:22.076Z</time></trkpt><trkpt lat="39.30904456506368" lon="8.52298378104945"><ele>202.0</ele><time>2026-04-27T12:35:23.077Z</time></trkpt><trkpt lat="39.30894619166173" lon="8.522925621730687"><ele>201.75</ele><time>2026-04-27T12:35:24.077Z</time></trkpt><trkpt lat="39.30884543071782" lon="8.52286856299835"><ele>201.5</ele><time>2026-04-27T12:35:25.077Z</time></trkpt><trkpt lat="39.30873694943469" lon="8.522813066071684"><ele>201.25</ele><time>2026-04-27T12:35:26.077Z</time></trkpt><trkpt lat="39.30863515724282" lon="8.522743848070725"><ele>201.0</ele><time>2026-04-27T12:35:27.077Z</time></trkpt><trkpt lat="39.30853103916527" lon="8.52269311395827"><ele>201.0</ele><time>2026-04-27T12:35:28.077Z</time></trkpt><trkpt lat="39.308425693697515" lon="8.52262272300905"><ele>201.0</ele><time>2026-04-27T12:35:29.077Z</time></trkpt><trkpt lat="39.308326202211376" lon="8.522542696267628"><ele>201.0</ele><time>2026-04-27T12:35:30.077Z</time></trkpt><trkpt lat="39.3082216114549" lon="8.522448719554186"><ele>201.0</ele><time>2026-04-27T12:35:31.077Z</time></trkpt><trkpt lat="39.30812539581534" lon="8.522352214593697"><ele>201.0</ele><time>2026-04-27T12:35:32.077Z</time></trkpt><trkpt lat="39.308038342558184" lon="8.522228354007849"><ele>201.0</ele><time>2026-04-27T12:35:33.077Z</time></trkpt><trkpt lat="39.30795417162262" lon="8.522098065965901"><ele>201.0</ele><time>2026-04-27T12:35:34.077Z</time></trkpt><trkpt lat="39.30787190750901" lon="8.521971754573762"><ele>201.0</ele><time>2026-04-27T12:35:35.077Z</time></trkpt><trkpt lat="39.30779083203112" lon="8.521844061171135"><ele>201.0</ele><time>2026-04-27T12:35:36.077Z</time></trkpt><trkpt lat="39.30771440416683" lon="8.521720695966673"><ele>201.0</ele><time>2026-04-27T12:35:37.077Z</time></trkpt><trkpt lat="39.30763733195479" lon="8.521597660162854"><ele>201.0</ele><time>2026-04-27T12:35:38.077Z</time></trkpt><trkpt lat="39.307557534216826" lon="8.521474748100799"><ele>201.0</ele><time>2026-04-27T12:35:39.077Z</time></trkpt><trkpt lat="39.30748175143992" lon="8.521355339027107"><ele>201.0</ele><time>2026-04-27T12:35:40.077Z</time></trkpt><trkpt lat="39.30740877546974" lon="8.521238866831405"><ele>201.0</ele><time>2026-04-27T12:35:41.077Z</time></trkpt><trkpt lat="39.30733539872458" lon="8.521116958295371"><ele>201.0</ele><time>2026-04-27T12:35:42.077Z</time></trkpt><trkpt lat="39.307259843342855" lon="8.520999006833806"><ele>201.0</ele><time>2026-04-27T12:35:43.077Z</time></trkpt><trkpt lat="39.3071864539399" lon="8.520883684722635"><ele>200.25</ele><time>2026-04-27T12:35:44.077Z</time></trkpt><trkpt lat="39.30711424349197" lon="8.520769578460166"><ele>199.5</ele><time>2026-04-27T12:35:45.077Z</time></trkpt><trkpt lat="39.30702619587428" lon="8.520668228321966"><ele>198.75</ele><time>2026-04-27T12:35:46.077Z</time></trkpt><trkpt lat="39.30693524058017" lon="8.520570128821515"><ele>198.0</ele><time>2026-04-27T12:35:47.077Z</time></trkpt><trkpt lat="39.30683282209844" lon="8.520489485635332"><ele>198.0</ele><time>2026-04-27T12:35:48.077Z</time></trkpt><trkpt lat="39.30670878938343" lon="8.520466662134114"><ele>198.0</ele><time>2026-04-27T12:35:49.077Z</time></trkpt><trkpt lat="39.306591333586624" lon="8.520434378144227"><ele>198.0</ele><time>2026-04-27T12:35:50.077Z</time></trkpt><trkpt lat="39.30646590954979" lon="8.520407485347054"><ele>198.0</ele><time>2026-04-27T12:35:51.077Z</time></trkpt><trkpt lat="39.30635199972347" lon="8.520375662331476"><ele>197.4</ele><time>2026-04-27T12:35:52.077Z</time></trkpt><trkpt lat="39.306248205905895" lon="8.52034563538359"><ele>196.8</ele><time>2026-04-27T12:35:53.077Z</time></trkpt><trkpt lat="39.306156539854264" lon="8.520306773089365"><ele>196.2</ele><time>2026-04-27T12:35:54.077Z</time></trkpt><trkpt lat="39.30607511982666" lon="8.520271624744964"><ele>195.6</ele><time>2026-04-27T12:35:55.077Z</time></trkpt><trkpt lat="39.30599441171323" lon="8.520230989522311"><ele>195.0</ele><time>2026-04-27T12:35:56.077Z</time></trkpt><trkpt lat="39.30590243034045" lon="8.52019262219346"><ele>195.0</ele><time>2026-04-27T12:35:57.077Z</time></trkpt><trkpt lat="39.30580341622232" lon="8.520130781179132"><ele>195.0</ele><time>2026-04-27T12:35:58.077Z</time></trkpt><trkpt lat="39.305703157189775" lon="8.52004804925628"><ele>195.0</ele><time>2026-04-27T12:35:59.077Z</time></trkpt><trkpt lat="39.305602130712586" lon="8.51995081394116"><ele>195.0</ele><time>2026-04-27T12:36:00.077Z</time></trkpt><trkpt lat="39.3055097796495" lon="8.519851280917054"><ele>193.75</ele><time>2026-04-27T12:36:01.077Z</time></trkpt><trkpt lat="39.30540616894527" lon="8.519762266068424"><ele>192.5</ele><time>2026-04-27T12:36:02.077Z</time></trkpt><trkpt lat="39.30529917401481" lon="8.519679656910336"><ele>191.25</ele><time>2026-04-27T12:36:03.077Z</time></trkpt><trkpt lat="39.30520401911729" lon="8.519603537685999"><ele>190.0</ele><time>2026-04-27T12:36:04.077Z</time></trkpt><trkpt lat="39.305119527943" lon="8.51952818524463"><ele>190.0</ele><time>2026-04-27T12:36:05.077Z</time></trkpt><trkpt lat="39.30504900550938" lon="8.519420780804044"><ele>190.0</ele><time>2026-04-27T12:36:06.077Z</time></trkpt><trkpt lat="39.30499625935145" lon="8.51929225325088"><ele>190.0</ele><time>2026-04-27T12:36:07.077Z</time></trkpt><trkpt lat="39.304959274871074" lon="8.519151439668159"><ele>190.0</ele><time>2026-04-27T12:36:08.077Z</time></trkpt><trkpt lat="39.3049240976059" lon="8.519009333275596"><ele>190.0</ele><time>2026-04-27T12:36:09.077Z</time></trkpt><trkpt lat="39.304879702464625" lon="8.518868372429772"><ele>190.0</ele><time>2026-04-27T12:36:10.077Z</time></trkpt><trkpt lat="39.30480842954551" lon="8.51875261684282"><ele>190.0</ele><time>2026-04-27T12:36:11.077Z</time></trkpt><trkpt lat="39.30471456794638" lon="8.518663568443543"><ele>190.0</ele><time>2026-04-27T12:36:12.077Z</time></trkpt><trkpt lat="39.304618404822016" lon="8.518600885691315"><ele>188.2</ele><time>2026-04-27T12:36:13.077Z</time></trkpt><trkpt lat="39.30451709778682" lon="8.518557468025207"><ele>186.4</ele><time>2026-04-27T12:36:14.077Z</time></trkpt><trkpt lat="39.30442052122699" lon="8.518509011044515"><ele>184.60000000000002</ele><time>2026-04-27T12:36:15.077Z</time></trkpt><trkpt lat="39.304328866042184" lon="8.518437719672903"><ele>182.8</ele><time>2026-04-27T12:36:16.077Z</time></trkpt><trkpt lat="39.3042464975746" lon="8.518353228771376"><ele>181.0</ele><time>2026-04-27T12:36:17.077Z</time></trkpt><trkpt lat="39.304179899215306" lon="8.518241718132899"><ele>181.0</ele><time>2026-04-27T12:36:18.077Z</time></trkpt><trkpt lat="39.30412426759001" lon="8.518124423098865"><ele>181.0</ele><time>2026-04-27T12:36:19.077Z</time></trkpt><trkpt lat="39.304082224626136" lon="8.517987037352372"><ele>181.0</ele><time>2026-04-27T12:36:20.077Z</time></trkpt><trkpt lat="39.30404836151818" lon="8.517854758723756"><ele>181.0</ele><time>2026-04-27T12:36:21.077Z</time></trkpt><trkpt lat="39.30400345339895" lon="8.5177256060001"><ele>181.0</ele><time>2026-04-27T12:36:22.077Z</time></trkpt><trkpt lat="39.30394515895859" lon="8.517603928948484"><ele>181.60000000000002</ele><time>2026-04-27T12:36:23.077Z</time></trkpt><trkpt lat="39.303872624436465" lon="8.51749890499164"><ele>182.2</ele><time>2026-04-27T12:36:24.077Z</time></trkpt><trkpt lat="39.30379886333865" lon="8.517400053431427"><ele>182.8</ele><time>2026-04-27T12:36:25.077Z</time></trkpt><trkpt lat="39.30371885064474" lon="8.517315021186294"><ele>183.39999999999998</ele><time>2026-04-27T12:36:26.077Z</time></trkpt><trkpt lat="39.30363141318298" lon="8.517248843567256"><ele>184.0</ele><time>2026-04-27T12:36:27.077Z</time></trkpt><trkpt lat="39.303536914300494" lon="8.517209816482408"><ele>184.0</ele><time>2026-04-27T12:36:28.077Z</time></trkpt><trkpt lat="39.30343311469542" lon="8.517207910740826"><ele>184.0</ele><time>2026-04-27T12:36:29.077Z</time></trkpt><trkpt lat="39.30332616886447" lon="8.517243629336729"><ele>184.0</ele><time>2026-04-27T12:36:30.077Z</time></trkpt><trkpt lat="39.30323090369717" lon="8.51730118323198"><ele>184.0</ele><time>2026-04-27T12:36:31.077Z</time></trkpt><trkpt lat="39.30314382406815" lon="8.517344211996228"><ele>184.0</ele><time>2026-04-27T12:36:32.077Z</time></trkpt><trkpt lat="39.303051191175314" lon="8.517343979180273"><ele>183.6</ele><time>2026-04-27T12:36:33.077Z</time></trkpt><trkpt lat="39.302947823418585" lon="8.517314585525408"><ele>183.2</ele><time>2026-04-27T12:36:34.077Z</time></trkpt><trkpt lat="39.30285596789073" lon="8.517245228645528"><ele>182.79999999999998</ele><time>2026-04-27T12:36:35.077Z</time></trkpt><trkpt lat="39.30277157687763" lon="8.517167715824826"><ele>182.39999999999998</ele><time>2026-04-27T12:36:36.078Z</time></trkpt><trkpt lat="39.302690796157755" lon="8.51708902394527"><ele>182.0</ele><time>2026-04-27T12:36:37.078Z</time></trkpt><trkpt lat="39.30259645297442" lon="8.517031964017631"><ele>182.0</ele><time>2026-04-27T12:36:38.078Z</time></trkpt><trkpt lat="39.30249266849177" lon="8.516999453153046"><ele>182.0</ele><time>2026-04-27T12:36:39.078Z</time></trkpt><trkpt lat="39.30238847836105" lon="8.516987179855981"><ele>182.0</ele><time>2026-04-27T12:36:40.078Z</time></trkpt><trkpt lat="39.302284861451625" lon="8.516989225111217"><ele>182.0</ele><time>2026-04-27T12:36:41.078Z</time></trkpt><trkpt lat="39.30218820285564" lon="8.516992334068242"><ele>182.0</ele><time>2026-04-27T12:36:42.078Z</time></trkpt><trkpt lat="39.30209948859307" lon="8.516998791945"><ele>181.16666666666666</ele><time>2026-04-27T12:36:43.078Z</time></trkpt><trkpt lat="39.3020144210881" lon="8.51700131320849"><ele>180.33333333333331</ele><time>2026-04-27T12:36:44.078Z</time></trkpt><trkpt lat="39.30193835416026" lon="8.51699287770877"><ele>179.5</ele><time>2026-04-27T12:36:45.078Z</time></trkpt><trkpt lat="39.30186283153576" lon="8.516982613311386"><ele>178.66666666666666</ele><time>2026-04-27T12:36:46.078Z</time></trkpt><trkpt lat="39.30179274626986" lon="8.516971050773682"><ele>177.83333333333334</ele><time>2026-04-27T12:36:47.078Z</time></trkpt><trkpt lat="39.301717535479604" lon="8.516940017829773"><ele>177.0</ele><time>2026-04-27T12:36:48.078Z</time></trkpt><trkpt lat="39.30164192471829" lon="8.51689024735643"><ele>177.0</ele><time>2026-04-27T12:36:49.078Z</time></trkpt><trkpt lat="39.301556078612535" lon="8.516817636708517"><ele>177.0</ele><time>2026-04-27T12:36:50.078Z</time></trkpt><trkpt lat="39.3014745025152" lon="8.516737128082742"><ele>177.0</ele><time>2026-04-27T12:36:51.078Z</time></trkpt><trkpt lat="39.301396753640574" lon="8.516634772655193"><ele>177.0</ele><time>2026-04-27T12:36:52.078Z</time></trkpt><trkpt lat="39.30132890599995" lon="8.516524092847606"><ele>177.0</ele><time>2026-04-27T12:36:53.078Z</time></trkpt><trkpt lat="39.30126321627607" lon="8.516395391405087"><ele>176.0</ele><time>2026-04-27T12:36:54.078Z</time></trkpt><trkpt lat="39.30119371063315" lon="8.516263352270036"><ele>175.0</ele><time>2026-04-27T12:36:55.078Z</time></trkpt><trkpt lat="39.30115151397529" lon="8.516100719788977"><ele>174.0</ele><time>2026-04-27T12:36:56.078Z</time></trkpt><trkpt lat="39.30114219657612" lon="8.515915294709249"><ele>173.0</ele><time>2026-04-27T12:36:57.078Z</time></trkpt><trkpt lat="39.30115197076925" lon="8.515744560531374"><ele>173.0</ele><time>2026-04-27T12:36:58.078Z</time></trkpt><trkpt lat="39.30115716759467" lon="8.515587377837134"><ele>173.0</ele><time>2026-04-27T12:36:59.078Z</time></trkpt><trkpt lat="39.3011613986643" lon="8.515451168993973"><ele>173.0</ele><time>2026-04-27T12:37:00.078Z</time></trkpt><trkpt lat="39.30113967688356" lon="8.515326267868046"><ele>173.0</ele><time>2026-04-27T12:37:01.078Z</time></trkpt><trkpt lat="39.30107674419791" lon="8.515230642927087"><ele>173.0</ele><time>2026-04-27T12:37:02.078Z</time></trkpt><trkpt lat="39.30098284483631" lon="8.515169115907348"><ele>173.25</ele><time>2026-04-27T12:37:03.078Z</time></trkpt><trkpt lat="39.30087082088058" lon="8.515137957568847"><ele>173.5</ele><time>2026-04-27T12:37:04.079Z</time></trkpt><trkpt lat="39.300759881412525" lon="8.515123476577717"><ele>173.75</ele><time>2026-04-27T12:37:05.078Z</time></trkpt><trkpt lat="39.300655782770676" lon="8.515075228858649"><ele>174.0</ele><time>2026-04-27T12:37:06.078Z</time></trkpt><trkpt lat="39.30057828224574" lon="8.514959410393"><ele>174.0</ele><time>2026-04-27T12:37:07.079Z</time></trkpt><trkpt lat="39.3005297286867" lon="8.514818432039661"><ele>174.0</ele><time>2026-04-27T12:37:08.079Z</time></trkpt><trkpt lat="39.30050370508186" lon="8.514674654755268"><ele>174.0</ele><time>2026-04-27T12:37:09.079Z</time></trkpt><trkpt lat="39.30046092420879" lon="8.514532607989501"><ele>174.0</ele><time>2026-04-27T12:37:10.079Z</time></trkpt><trkpt lat="39.300403915715265" lon="8.514397151409325"><ele>170.0</ele><time>2026-04-27T12:37:11.079Z</time></trkpt><trkpt lat="39.30033861919012" lon="8.51426206607356"><ele>166.0</ele><time>2026-04-27T12:37:12.079Z</time></trkpt><trkpt lat="39.300264475273636" lon="8.514133998018607"><ele>162.0</ele><time>2026-04-27T12:37:13.079Z</time></trkpt><trkpt lat="39.30017927753652" lon="8.514009345844833"><ele>158.0</ele><time>2026-04-27T12:37:14.079Z</time></trkpt><trkpt lat="39.30007860742533" lon="8.513903461443217"><ele>158.0</ele><time>2026-04-27T12:37:15.079Z</time></trkpt><trkpt lat="39.29995970525291" lon="8.513830936768022"><ele>158.0</ele><time>2026-04-27T12:37:16.079Z</time></trkpt><trkpt lat="39.299839802647966" lon="8.513766305234094"><ele>158.0</ele><time>2026-04-27T12:37:17.079Z</time></trkpt><trkpt lat="39.299754565429566" lon="8.513660357498315"><ele>158.0</ele><time>2026-04-27T12:37:18.079Z</time></trkpt><trkpt lat="39.299703364054345" lon="8.513526506247203"><ele>156.4</ele><time>2026-04-27T12:37:19.079Z</time></trkpt><trkpt lat="39.29964082085315" lon="8.513421848925514"><ele>154.8</ele><time>2026-04-27T12:37:20.08Z</time></trkpt><trkpt lat="39.29953192589928" lon="8.513389538201134"><ele>153.2</ele><time>2026-04-27T12:37:21.08Z</time></trkpt><trkpt lat="39.29942635478334" lon="8.51343305623576"><ele>151.6</ele><time>2026-04-27T12:37:22.08Z</time></trkpt><trkpt lat="39.29932922901119" lon="8.513476084226575"><ele>150.0</ele><time>2026-04-27T12:37:23.08Z</time></trkpt><trkpt lat="39.29923997842711" lon="8.513435542218412"><ele>150.0</ele><time>2026-04-27T12:37:24.08Z</time></trkpt><trkpt lat="39.299167719364966" lon="8.513305083658311"><ele>150.0</ele><time>2026-04-27T12:37:25.08Z</time></trkpt><trkpt lat="39.29913841390989" lon="8.513157892165262"><ele>150.0</ele><time>2026-04-27T12:37:26.08Z</time></trkpt><trkpt lat="39.299126805533504" lon="8.512999861207822"><ele>150.0</ele><time>2026-04-27T12:37:27.08Z</time></trkpt><trkpt lat="39.29910455658539" lon="8.512864324403443"><ele>149.6</ele><time>2026-04-27T12:37:28.08Z</time></trkpt><trkpt lat="39.29905671117159" lon="8.512729733839814"><ele>149.2</ele><time>2026-04-27T12:37:29.08Z</time></trkpt><trkpt lat="39.298992805224664" lon="8.512603747710418"><ele>148.8</ele><time>2026-04-27T12:37:30.08Z</time></trkpt><trkpt lat="39.29893298521309" lon="8.512491945008652"><ele>148.4</ele><time>2026-04-27T12:37:31.08Z</time></trkpt><trkpt lat="39.2988612223477" lon="8.51239317936852"><ele>148.0</ele><time>2026-04-27T12:37:32.08Z</time></trkpt><trkpt lat="39.29878270676222" lon="8.51230713416662"><ele>148.0</ele><time>2026-04-27T12:37:33.08Z</time></trkpt><trkpt lat="39.298698196661185" lon="8.51221490116776"><ele>148.0</ele><time>2026-04-27T12:37:34.08Z</time></trkpt><trkpt lat="39.298610226635994" lon="8.512122044212656"><ele>148.0</ele><time>2026-04-27T12:37:35.08Z</time></trkpt><trkpt lat="39.298519997201346" lon="8.512013101286867"><ele>148.0</ele><time>2026-04-27T12:37:36.08Z</time></trkpt><trkpt lat="39.29842505143412" lon="8.511902815452887"><ele>147.5</ele><time>2026-04-27T12:37:37.08Z</time></trkpt><trkpt lat="39.29832802916828" lon="8.511792173490518"><ele>147.0</ele><time>2026-04-27T12:37:38.08Z</time></trkpt><trkpt lat="39.29823491456704" lon="8.511680764128315"><ele>146.5</ele><time>2026-04-27T12:37:39.08Z</time></trkpt><trkpt lat="39.298141637560775" lon="8.511562767498729"><ele>146.0</ele><time>2026-04-27T12:37:40.08Z</time></trkpt><trkpt lat="39.29804872604719" lon="8.511443729089404"><ele>145.5</ele><time>2026-04-27T12:37:41.08Z</time></trkpt><trkpt lat="39.29796961493087" lon="8.511306921417422"><ele>145.0</ele><time>2026-04-27T12:37:42.08Z</time></trkpt><trkpt lat="39.297918212008504" lon="8.511161337108506"><ele>144.5</ele><time>2026-04-27T12:37:43.08Z</time></trkpt><trkpt lat="39.297904034265" lon="8.511013405168637"><ele>144.0</ele><time>2026-04-27T12:37:44.08Z</time></trkpt><trkpt lat="39.297913380405305" lon="8.51087130683643"><ele>144.2</ele><time>2026-04-27T12:37:45.08Z</time></trkpt><trkpt lat="39.29793750924469" lon="8.510734901022932"><ele>144.4</ele><time>2026-04-27T12:37:46.08Z</time></trkpt><trkpt lat="39.297983886528776" lon="8.510617665910233"><ele>144.6</ele><time>2026-04-27T12:37:47.08Z</time></trkpt><trkpt lat="39.2980704586916" lon="8.510542754480793"><ele>144.8</ele><time>2026-04-27T12:37:48.08Z</time></trkpt><trkpt lat="39.29816361979428" lon="8.510517807221452"><ele>145.0</ele><time>2026-04-27T12:37:49.08Z</time></trkpt><trkpt lat="39.29826499844992" lon="8.510548529591615"><ele>145.0</ele><time>2026-04-27T12:37:50.08Z</time></trkpt><trkpt lat="39.29834343893471" lon="8.510618786626818"><ele>145.0</ele><time>2026-04-27T12:37:51.08Z</time></trkpt><trkpt lat="39.29840304825045" lon="8.51071407180541"><ele>145.0</ele><time>2026-04-27T12:37:52.08Z</time></trkpt><trkpt lat="39.29843363871798" lon="8.51083630742555"><ele>145.0</ele><time>2026-04-27T12:37:53.08Z</time></trkpt><trkpt lat="39.298433421543834" lon="8.510960812909191"><ele>145.0</ele><time>2026-04-27T12:37:54.08Z</time></trkpt><trkpt lat="39.298398671471006" lon="8.511090810020189"><ele>145.0</ele><time>2026-04-27T12:37:55.08Z</time></trkpt><trkpt lat="39.29835515576782" lon="8.511219346191353"><ele>145.0</ele><time>2026-04-27T12:37:56.08Z</time></trkpt><trkpt lat="39.29832400579688" lon="8.511356235831126"><ele>145.0</ele><time>2026-04-27T12:37:57.08Z</time></trkpt><trkpt lat="39.2982969429596" lon="8.511499656058325"><ele>145.0</ele><time>2026-04-27T12:37:58.08Z</time></trkpt><trkpt lat="39.29826087041406" lon="8.511647951743536"><ele>145.25</ele><time>2026-04-27T12:37:59.08Z</time></trkpt><trkpt lat="39.298218776080624" lon="8.511799709887887"><ele>145.5</ele><time>2026-04-27T12:38:00.08Z</time></trkpt><trkpt lat="39.29817027471332" lon="8.511955165744892"><ele>145.75</ele><time>2026-04-27T12:38:01.08Z</time></trkpt><trkpt lat="39.298120598510366" lon="8.512114461806561"><ele>146.0</ele><time>2026-04-27T12:38:02.08Z</time></trkpt><trkpt lat="39.29807216084298" lon="8.512268905296269"><ele>146.25</ele><time>2026-04-27T12:38:03.08Z</time></trkpt><trkpt lat="39.2980223198739" lon="8.512423645857888"><ele>146.5</ele><time>2026-04-27T12:38:04.08Z</time></trkpt><trkpt lat="39.29796071898043" lon="8.512578053947573"><ele>146.75</ele><time>2026-04-27T12:38:05.08Z</time></trkpt><trkpt lat="39.29789026321522" lon="8.512731796323804"><ele>147.0</ele><time>2026-04-27T12:38:06.08Z</time></trkpt><trkpt lat="39.297815543817386" lon="8.512885220267565"><ele>147.75</ele><time>2026-04-27T12:38:07.08Z</time></trkpt><trkpt lat="39.29774073549149" lon="8.5130444977803"><ele>148.5</ele><time>2026-04-27T12:38:08.08Z</time></trkpt><trkpt lat="39.29766422831529" lon="8.513203272542754"><ele>149.25</ele><time>2026-04-27T12:38:09.08Z</time></trkpt><trkpt lat="39.29759129216484" lon="8.513354319332963"><ele>150.0</ele><time>2026-04-27T12:38:10.08Z</time></trkpt><trkpt lat="39.29751967972451" lon="8.513498848395875"><ele>150.0</ele><time>2026-04-27T12:38:11.08Z</time></trkpt><trkpt lat="39.29745086768108" lon="8.513639152511582"><ele>150.0</ele><time>2026-04-27T12:38:12.08Z</time></trkpt><trkpt lat="39.29739104134502" lon="8.513777434694397"><ele>150.0</ele><time>2026-04-27T12:38:13.08Z</time></trkpt><trkpt lat="39.29733592593254" lon="8.513920252484354"><ele>150.0</ele><time>2026-04-27T12:38:14.08Z</time></trkpt><trkpt lat="39.2972885138477" lon="8.514068357465609"><ele>150.25</ele><time>2026-04-27T12:38:15.08Z</time></trkpt><trkpt lat="39.297239686947194" lon="8.514218532000028"><ele>150.5</ele><time>2026-04-27T12:38:16.08Z</time></trkpt><trkpt lat="39.297191235208885" lon="8.514360493527825"><ele>150.75</ele><time>2026-04-27T12:38:17.08Z</time></trkpt><trkpt lat="39.29714761442973" lon="8.514509892565842"><ele>151.0</ele><time>2026-04-27T12:38:18.08Z</time></trkpt><trkpt lat="39.29711592967487" lon="8.514655291565697"><ele>151.33333333333334</ele><time>2026-04-27T12:38:19.08Z</time></trkpt><trkpt lat="39.297092314228514" lon="8.514777384314923"><ele>151.66666666666669</ele><time>2026-04-27T12:38:20.08Z</time></trkpt><trkpt lat="39.29707005973382" lon="8.514864049262739"><ele>152.0</ele><time>2026-04-27T12:38:21.08Z</time></trkpt><trkpt lat="39.29703672218066" lon="8.515005795272348"><ele>152.33333333333334</ele><time>2026-04-27T12:38:23.08Z</time></trkpt><trkpt lat="39.297017410756105" lon="8.515104377051815"><ele>152.66666666666666</ele><time>2026-04-27T12:38:25.08Z</time></trkpt><trkpt lat="39.29703362755896" lon="8.515185823541405"><ele>153.0</ele><time>2026-04-27T12:38:28.08Z</time></trkpt><trkpt lat="39.29709346038966" lon="8.515153950005615"><ele>153.0</ele><time>2026-04-27T12:38:30.08Z</time></trkpt><trkpt lat="39.29710741019673" lon="8.51503733510039"><ele>153.0</ele><time>2026-04-27T12:38:32.08Z</time></trkpt><trkpt lat="39.297103257528434" lon="8.514955794670797"><ele>153.0</ele><time>2026-04-27T12:38:33.081Z</time></trkpt><trkpt lat="39.29712024727367" lon="8.514876380640299"><ele>153.0</ele><time>2026-04-27T12:38:34.081Z</time></trkpt><trkpt lat="39.29713818914843" lon="8.514786498403518"><ele>153.0</ele><time>2026-04-27T12:38:35.081Z</time></trkpt><trkpt lat="39.29716143986133" lon="8.514705151873283"><ele>153.0</ele><time>2026-04-27T12:38:36.081Z</time></trkpt><trkpt lat="39.29718271215834" lon="8.514604596425922"><ele>153.0</ele><time>2026-04-27T12:38:37.081Z</time></trkpt><trkpt lat="39.2972072666868" lon="8.514491501054485"><ele>153.20000000000002</ele><time>2026-04-27T12:38:38.081Z</time></trkpt><trkpt lat="39.297242869793244" lon="8.514374341395746"><ele>153.4</ele><time>2026-04-27T12:38:39.081Z</time></trkpt><trkpt lat="39.297274854395596" lon="8.514252909784162"><ele>153.60000000000002</ele><time>2026-04-27T12:38:40.081Z</time></trkpt><trkpt lat="39.29730877065866" lon="8.51413133783357"><ele>153.8</ele><time>2026-04-27T12:38:41.081Z</time></trkpt><trkpt lat="39.29734292157457" lon="8.514011689578306"><ele>154.0</ele><time>2026-04-27T12:38:42.081Z</time></trkpt><trkpt lat="39.29738173145159" lon="8.513887424299538"><ele>154.0</ele><time>2026-04-27T12:38:43.081Z</time></trkpt><trkpt lat="39.29742687071902" lon="8.513764806783417"><ele>154.0</ele><time>2026-04-27T12:38:44.081Z</time></trkpt><trkpt lat="39.297476989477914" lon="8.513642767251858"><ele>154.0</ele><time>2026-04-27T12:38:45.081Z</time></trkpt><trkpt lat="39.297535066095094" lon="8.51352202560809"><ele>154.0</ele><time>2026-04-27T12:38:46.081Z</time></trkpt><trkpt lat="39.29759478770851" lon="8.513401902796774"><ele>154.0</ele><time>2026-04-27T12:38:47.081Z</time></trkpt><trkpt lat="39.29765338452499" lon="8.513287133250827"><ele>153.0</ele><time>2026-04-27T12:38:48.081Z</time></trkpt><trkpt lat="39.29771499750142" lon="8.513167746746271"><ele>152.0</ele><time>2026-04-27T12:38:49.081Z</time></trkpt><trkpt lat="39.29777383278088" lon="8.513036639415182"><ele>151.0</ele><time>2026-04-27T12:38:50.081Z</time></trkpt><trkpt lat="39.29782879438763" lon="8.512904192828234"><ele>150.0</ele><time>2026-04-27T12:38:51.081Z</time></trkpt><trkpt lat="39.29788834719556" lon="8.512772327250556"><ele>149.6</ele><time>2026-04-27T12:38:52.081Z</time></trkpt><trkpt lat="39.297945851897516" lon="8.512643318471143"><ele>149.2</ele><time>2026-04-27T12:38:53.081Z</time></trkpt><trkpt lat="39.29799997491948" lon="8.51251603152415"><ele>148.8</ele><time>2026-04-27T12:38:54.081Z</time></trkpt><trkpt lat="39.298051473477585" lon="8.512392208972592"><ele>148.4</ele><time>2026-04-27T12:38:55.081Z</time></trkpt><trkpt lat="39.298095908774705" lon="8.512277392037483"><ele>148.0</ele><time>2026-04-27T12:38:56.081Z</time></trkpt><trkpt lat="39.29813365993223" lon="8.512172140528508"><ele>148.0</ele><time>2026-04-27T12:38:57.081Z</time></trkpt><trkpt lat="39.298163490356465" lon="8.512076368189772"><ele>148.0</ele><time>2026-04-27T12:38:58.081Z</time></trkpt><trkpt lat="39.298188941173194" lon="8.511999326367222"><ele>148.0</ele><time>2026-04-27T12:38:59.081Z</time></trkpt><trkpt lat="39.29823265142305" lon="8.511868710983062"><ele>148.0</ele><time>2026-04-27T12:39:01.081Z</time></trkpt><trkpt lat="39.29827696864263" lon="8.51172357279884"><ele>148.0</ele><time>2026-04-27T12:39:03.081Z</time></trkpt><trkpt lat="39.298320895921556" lon="8.51155884791846"><ele>147.6</ele><time>2026-04-27T12:39:05.081Z</time></trkpt><trkpt lat="39.29834571987445" lon="8.511459653158747"><ele>147.20000000000002</ele><time>2026-04-27T12:39:06.081Z</time></trkpt><trkpt lat="39.298372355881206" lon="8.511353428901113"><ele>146.8</ele><time>2026-04-27T12:39:07.081Z</time></trkpt><trkpt lat="39.29840034284674" lon="8.511238768580018"><ele>146.4</ele><time>2026-04-27T12:39:08.081Z</time></trkpt><trkpt lat="39.2984301427743" lon="8.511105478743659"><ele>146.0</ele><time>2026-04-27T12:39:09.081Z</time></trkpt><trkpt lat="39.298457746181725" lon="8.510972528248052"><ele>145.75</ele><time>2026-04-27T12:39:10.082Z</time></trkpt><trkpt lat="39.29848303456945" lon="8.510826735373762"><ele>145.5</ele><time>2026-04-27T12:39:11.081Z</time></trkpt><trkpt lat="39.29850900861433" lon="8.510667561865844"><ele>145.25</ele><time>2026-04-27T12:39:12.081Z</time></trkpt><trkpt lat="39.29853721050295" lon="8.51049685916868"><ele>145.0</ele><time>2026-04-27T12:39:13.082Z</time></trkpt><trkpt lat="39.298562363966674" lon="8.510323561582792"><ele>143.25</ele><time>2026-04-27T12:39:14.082Z</time></trkpt><trkpt lat="39.29858137722089" lon="8.510157132867308"><ele>141.5</ele><time>2026-04-27T12:39:15.082Z</time></trkpt><trkpt lat="39.298594799377064" lon="8.5099861344744"><ele>139.75</ele><time>2026-04-27T12:39:16.082Z</time></trkpt><trkpt lat="39.298610116131265" lon="8.509812372236741"><ele>138.0</ele><time>2026-04-27T12:39:17.082Z</time></trkpt><trkpt lat="39.29862089392873" lon="8.509633684191975"><ele>137.25</ele><time>2026-04-27T12:39:18.082Z</time></trkpt><trkpt lat="39.298630470069384" lon="8.509448087280735"><ele>136.5</ele><time>2026-04-27T12:39:19.082Z</time></trkpt><trkpt lat="39.29863530502196" lon="8.509257320852164"><ele>135.75</ele><time>2026-04-27T12:39:20.082Z</time></trkpt><trkpt lat="39.29863741933314" lon="8.509060936294407"><ele>135.0</ele><time>2026-04-27T12:39:21.082Z</time></trkpt><trkpt lat="39.298635135849004" lon="8.50885834603946"><ele>135.66666666666666</ele><time>2026-04-27T12:39:22.081Z</time></trkpt><trkpt lat="39.2986304788236" lon="8.508654446076218"><ele>136.33333333333331</ele><time>2026-04-27T12:39:23.082Z</time></trkpt><trkpt lat="39.29862424016021" lon="8.508444033633433"><ele>137.0</ele><time>2026-04-27T12:39:24.082Z</time></trkpt><trkpt lat="39.298615551687526" lon="8.50822925066673"><ele>137.0</ele><time>2026-04-27T12:39:25.082Z</time></trkpt><trkpt lat="39.298604040551524" lon="8.508014661678788"><ele>137.0</ele><time>2026-04-27T12:39:26.082Z</time></trkpt><trkpt lat="39.29858722575971" lon="8.507802002164656"><ele>137.0</ele><time>2026-04-27T12:39:27.082Z</time></trkpt><trkpt lat="39.298560933270096" lon="8.507590112468323"><ele>137.0</ele><time>2026-04-27T12:39:28.082Z</time></trkpt><trkpt lat="39.29852210086615" lon="8.507389401568883"><ele>137.0</ele><time>2026-04-27T12:39:29.082Z</time></trkpt><trkpt lat="39.29846892301767" lon="8.507197826531641"><ele>137.0</ele><time>2026-04-27T12:39:30.082Z</time></trkpt><trkpt lat="39.29839569287717" lon="8.507003084748767"><ele>137.0</ele><time>2026-04-27T12:39:31.082Z</time></trkpt><trkpt lat="39.29832035929156" lon="8.506806837021648"><ele>137.0</ele><time>2026-04-27T12:39:32.082Z</time></trkpt><trkpt lat="39.298231933579714" lon="8.50661664754556"><ele>137.0</ele><time>2026-04-27T12:39:33.082Z</time></trkpt><trkpt lat="39.29814672103988" lon="8.506429502335644"><ele>132.33333333333331</ele><time>2026-04-27T12:39:34.082Z</time></trkpt><trkpt lat="39.298063975683135" lon="8.50624401652098"><ele>127.66666666666666</ele><time>2026-04-27T12:39:35.082Z</time></trkpt><trkpt lat="39.29798110217187" lon="8.506055089829955"><ele>123.0</ele><time>2026-04-27T12:39:36.082Z</time></trkpt><trkpt lat="39.29789203017523" lon="8.505867085686337"><ele>123.0</ele><time>2026-04-27T12:39:37.082Z</time></trkpt><trkpt lat="39.297806431395855" lon="8.505675892244128"><ele>123.0</ele><time>2026-04-27T12:39:38.082Z</time></trkpt><trkpt lat="39.297732286230435" lon="8.505477104460004"><ele>123.0</ele><time>2026-04-27T12:39:39.082Z</time></trkpt><trkpt lat="39.297683174723595" lon="8.505262436538583"><ele>124.0</ele><time>2026-04-27T12:39:40.082Z</time></trkpt><trkpt lat="39.297653812098126" lon="8.505039572067668"><ele>125.0</ele><time>2026-04-27T12:39:41.082Z</time></trkpt><trkpt lat="39.29764046484658" lon="8.504814251695013"><ele>126.0</ele><time>2026-04-27T12:39:42.082Z</time></trkpt><trkpt lat="39.297625449939154" lon="8.504583319266903"><ele>124.66666666666666</ele><time>2026-04-27T12:39:43.082Z</time></trkpt><trkpt lat="39.29761022497874" lon="8.50434978920471"><ele>123.33333333333333</ele><time>2026-04-27T12:39:44.082Z</time></trkpt><trkpt lat="39.29759867321762" lon="8.504110052609676"><ele>122.0</ele><time>2026-04-27T12:39:45.082Z</time></trkpt><trkpt lat="39.29758507505014" lon="8.503865726882623"><ele>123.0</ele><time>2026-04-27T12:39:46.082Z</time></trkpt><trkpt lat="39.29756823791111" lon="8.50362818848059"><ele>124.0</ele><time>2026-04-27T12:39:47.082Z</time></trkpt><trkpt lat="39.297551091801736" lon="8.503388699127072"><ele>125.0</ele><time>2026-04-27T12:39:48.082Z</time></trkpt><trkpt lat="39.297530896139264" lon="8.503150316377669"><ele>125.66666666666666</ele><time>2026-04-27T12:39:49.082Z</time></trkpt><trkpt lat="39.29751506930385" lon="8.502905741933157"><ele>126.33333333333334</ele><time>2026-04-27T12:39:50.082Z</time></trkpt><trkpt lat="39.29749488027547" lon="8.5026589225167"><ele>127.0</ele><time>2026-04-27T12:39:51.082Z</time></trkpt><trkpt lat="39.29747321810614" lon="8.502405724716356"><ele>127.0</ele><time>2026-04-27T12:39:52.082Z</time></trkpt><trkpt lat="39.297454279127955" lon="8.502150570273898"><ele>127.0</ele><time>2026-04-27T12:39:53.082Z</time></trkpt><trkpt lat="39.29743449502279" lon="8.501889085074694"><ele>127.0</ele><time>2026-04-27T12:39:54.082Z</time></trkpt><trkpt lat="39.297419247216325" lon="8.501623130421313"><ele>124.66666666666667</ele><time>2026-04-27T12:39:55.082Z</time></trkpt><trkpt lat="39.297399128619126" lon="8.501355168146782"><ele>122.33333333333334</ele><time>2026-04-27T12:39:56.082Z</time></trkpt><trkpt lat="39.29737890332408" lon="8.501086714364872"><ele>120.0</ele><time>2026-04-27T12:39:57.082Z</time></trkpt><trkpt lat="39.2973614061136" lon="8.500816880276957"><ele>118.66666666666666</ele><time>2026-04-27T12:39:58.082Z</time></trkpt><trkpt lat="39.297344138250985" lon="8.500544324233644"><ele>117.33333333333333</ele><time>2026-04-27T12:39:59.082Z</time></trkpt><trkpt lat="39.297327525204345" lon="8.500272193598327"><ele>116.0</ele><time>2026-04-27T12:40:00.082Z</time></trkpt><trkpt lat="39.29731683633072" lon="8.500011177875908"><ele>114.66666666666666</ele><time>2026-04-27T12:40:01.082Z</time></trkpt><trkpt lat="39.29730301514457" lon="8.499740831490104"><ele>113.33333333333334</ele><time>2026-04-27T12:40:02.082Z</time></trkpt><trkpt lat="39.29729312683656" lon="8.49946801097133"><ele>112.0</ele><time>2026-04-27T12:40:03.082Z</time></trkpt><trkpt lat="39.29726742883448" lon="8.499183140476491"><ele>110.0</ele><time>2026-04-27T12:40:04.082Z</time></trkpt><trkpt lat="39.29722187367439" lon="8.498904120409854"><ele>108.0</ele><time>2026-04-27T12:40:05.082Z</time></trkpt><trkpt lat="39.29715104230765" lon="8.498636458793657"><ele>106.0</ele><time>2026-04-27T12:40:06.082Z</time></trkpt><trkpt lat="39.29704960930183" lon="8.498370783944669"><ele>104.66666666666667</ele><time>2026-04-27T12:40:07.082Z</time></trkpt><trkpt lat="39.29693735641909" lon="8.498121549155526"><ele>103.33333333333334</ele><time>2026-04-27T12:40:08.082Z</time></trkpt><trkpt lat="39.29680849224373" lon="8.497890781537789"><ele>102.0</ele><time>2026-04-27T12:40:09.082Z</time></trkpt><trkpt lat="39.296664739068866" lon="8.497674083549384"><ele>101.0</ele><time>2026-04-27T12:40:10.082Z</time></trkpt><trkpt lat="39.29651238102055" lon="8.497475864147159"><ele>100.0</ele><time>2026-04-27T12:40:11.082Z</time></trkpt><trkpt lat="39.296367549965346" lon="8.497300582959618"><ele>99.0</ele><time>2026-04-27T12:40:12.082Z</time></trkpt><trkpt lat="39.29622981869227" lon="8.49713074989699"><ele>96.66666666666667</ele><time>2026-04-27T12:40:13.082Z</time></trkpt><trkpt lat="39.296095866772106" lon="8.49697440066739"><ele>94.33333333333334</ele><time>2026-04-27T12:40:14.082Z</time></trkpt><trkpt lat="39.29596853065155" lon="8.49680895302208"><ele>92.0</ele><time>2026-04-27T12:40:15.083Z</time></trkpt><trkpt lat="39.29582847147106" lon="8.496634205009183"><ele>92.0</ele><time>2026-04-27T12:40:16.083Z</time></trkpt><trkpt lat="39.29568249105219" lon="8.49645474184537"><ele>92.0</ele><time>2026-04-27T12:40:17.083Z</time></trkpt><trkpt lat="39.295532948520375" lon="8.496270796464922"><ele>92.0</ele><time>2026-04-27T12:40:18.083Z</time></trkpt><trkpt lat="39.29538852294026" lon="8.496082530615139"><ele>91.0</ele><time>2026-04-27T12:40:19.083Z</time></trkpt><trkpt lat="39.29522929824202" lon="8.495887389013552"><ele>90.0</ele><time>2026-04-27T12:40:20.083Z</time></trkpt><trkpt lat="39.2950775268466" lon="8.495700774614454"><ele>89.0</ele><time>2026-04-27T12:40:21.083Z</time></trkpt><trkpt lat="39.29492679481079" lon="8.49551667012045"><ele>89.33333333333334</ele><time>2026-04-27T12:40:22.083Z</time></trkpt><trkpt lat="39.294777031682415" lon="8.495336292792562"><ele>89.66666666666667</ele><time>2026-04-27T12:40:23.083Z</time></trkpt><trkpt lat="39.29462735579644" lon="8.495152734131572"><ele>90.0</ele><time>2026-04-27T12:40:24.083Z</time></trkpt><trkpt lat="39.294480435339985" lon="8.494969888429749"><ele>88.66666666666667</ele><time>2026-04-27T12:40:25.083Z</time></trkpt><trkpt lat="39.294335635835544" lon="8.49479020599305"><ele>87.33333333333334</ele><time>2026-04-27T12:40:26.083Z</time></trkpt><trkpt lat="39.29419093716715" lon="8.49461554148874"><ele>86.0</ele><time>2026-04-27T12:40:27.083Z</time></trkpt><trkpt lat="39.29404722892687" lon="8.494439754876707"><ele>85.33333333333334</ele><time>2026-04-27T12:40:28.083Z</time></trkpt><trkpt lat="39.29390467241609" lon="8.494265502209451"><ele>84.66666666666667</ele><time>2026-04-27T12:40:29.083Z</time></trkpt><trkpt lat="39.2937614944564" lon="8.4940847685265"><ele>84.0</ele><time>2026-04-27T12:40:30.083Z</time></trkpt><trkpt lat="39.29362133499461" lon="8.49390205011361"><ele>84.0</ele><time>2026-04-27T12:40:31.083Z</time></trkpt><trkpt lat="39.29349388082852" lon="8.49370650185234"><ele>84.0</ele><time>2026-04-27T12:40:32.083Z</time></trkpt><trkpt lat="39.293379756005365" lon="8.493498208999206"><ele>84.0</ele><time>2026-04-27T12:40:33.083Z</time></trkpt><trkpt lat="39.29327506094053" lon="8.49327676768551"><ele>84.0</ele><time>2026-04-27T12:40:34.083Z</time></trkpt><trkpt lat="39.29319035529036" lon="8.493045138336141"><ele>84.0</ele><time>2026-04-27T12:40:35.083Z</time></trkpt><trkpt lat="39.29311662085438" lon="8.492802159125793"><ele>84.0</ele><time>2026-04-27T12:40:36.083Z</time></trkpt><trkpt lat="39.293055731203175" lon="8.492548477525034"><ele>84.33333333333333</ele><time>2026-04-27T12:40:37.083Z</time></trkpt><trkpt lat="39.29300246490783" lon="8.492288935374031"><ele>84.66666666666666</ele><time>2026-04-27T12:40:38.083Z</time></trkpt><trkpt lat="39.29295326995425" lon="8.492019845164894"><ele>85.0</ele><time>2026-04-27T12:40:39.083Z</time></trkpt><trkpt lat="39.29290111593396" lon="8.491751760440197"><ele>85.0</ele><time>2026-04-27T12:40:40.083Z</time></trkpt><trkpt lat="39.29284458378529" lon="8.49148340565739"><ele>85.0</ele><time>2026-04-27T12:40:41.083Z</time></trkpt><trkpt lat="39.292787787498824" lon="8.49122017875963"><ele>85.0</ele><time>2026-04-27T12:40:42.083Z</time></trkpt><trkpt lat="39.29273130373207" lon="8.4909516195798"><ele>83.33333333333333</ele><time>2026-04-27T12:40:43.083Z</time></trkpt><trkpt lat="39.29267655547659" lon="8.490678349645778"><ele>81.66666666666667</ele><time>2026-04-27T12:40:44.083Z</time></trkpt><trkpt lat="39.2926202700554" lon="8.49040166106506"><ele>80.0</ele><time>2026-04-27T12:40:45.083Z</time></trkpt><trkpt lat="39.29255637596886" lon="8.49012295365264"><ele>80.0</ele><time>2026-04-27T12:40:46.083Z</time></trkpt><trkpt lat="39.29248227749195" lon="8.489842664549819"><ele>80.0</ele><time>2026-04-27T12:40:47.083Z</time></trkpt><trkpt lat="39.29239567058389" lon="8.489566494214358"><ele>80.0</ele><time>2026-04-27T12:40:48.083Z</time></trkpt><trkpt lat="39.29229729423752" lon="8.489291352937384"><ele>80.0</ele><time>2026-04-27T12:40:49.083Z</time></trkpt><trkpt lat="39.29218655797956" lon="8.489012975235829"><ele>83.5</ele><time>2026-04-27T12:40:50.083Z</time></trkpt><trkpt lat="39.29206091724155" lon="8.488733569470325"><ele>87.0</ele><time>2026-04-27T12:40:51.083Z</time></trkpt><trkpt lat="39.29193996128878" lon="8.488451177024285"><ele>87.0</ele><time>2026-04-27T12:40:52.083Z</time></trkpt><trkpt lat="39.291828345278695" lon="8.488165399235879"><ele>87.0</ele><time>2026-04-27T12:40:53.083Z</time></trkpt><trkpt lat="39.29171673112156" lon="8.487876801609355"><ele>85.0</ele><time>2026-04-27T12:40:54.083Z</time></trkpt><trkpt lat="39.291597928587166" lon="8.487585130381726"><ele>83.0</ele><time>2026-04-27T12:40:55.083Z</time></trkpt><trkpt lat="39.29149401550772" lon="8.487290579067409"><ele>84.0</ele><time>2026-04-27T12:40:56.083Z</time></trkpt><trkpt lat="39.29145050387549" lon="8.486986111226987"><ele>85.0</ele><time>2026-04-27T12:40:57.083Z</time></trkpt><trkpt lat="39.291437910053155" lon="8.48667455516994"><ele>86.0</ele><time>2026-04-27T12:40:58.083Z</time></trkpt><trkpt lat="39.29141904633183" lon="8.486356668135695"><ele>87.0</ele><time>2026-04-27T12:40:59.083Z</time></trkpt><trkpt lat="39.291373791647366" lon="8.486040812509096"><ele>87.0</ele><time>2026-04-27T12:41:00.083Z</time></trkpt><trkpt lat="39.29133083708115" lon="8.485736649126244"><ele>87.0</ele><time>2026-04-27T12:41:01.083Z</time></trkpt><trkpt lat="39.29128925314" lon="8.485444832340391"><ele>85.0</ele><time>2026-04-27T12:41:02.083Z</time></trkpt><trkpt lat="39.291246438562816" lon="8.485174744005809"><ele>83.0</ele><time>2026-04-27T12:41:03.083Z</time></trkpt><trkpt lat="39.291199498406165" lon="8.484919104767762"><ele>81.0</ele><time>2026-04-27T12:41:04.083Z</time></trkpt><trkpt lat="39.291156133616" lon="8.484673641540093"><ele>78.0</ele><time>2026-04-27T12:41:05.083Z</time></trkpt><trkpt lat="39.291120998526345" lon="8.484439078235416"><ele>75.0</ele><time>2026-04-27T12:41:06.083Z</time></trkpt><trkpt lat="39.29108560490989" lon="8.484202771237968"><ele>72.0</ele><time>2026-04-27T12:41:07.083Z</time></trkpt><trkpt lat="39.29104363698482" lon="8.48395661943925"><ele>72.0</ele><time>2026-04-27T12:41:08.083Z</time></trkpt><trkpt lat="39.29100843676622" lon="8.483700161115504"><ele>72.0</ele><time>2026-04-27T12:41:09.083Z</time></trkpt><trkpt lat="39.29098033714" lon="8.48344151253811"><ele>72.0</ele><time>2026-04-27T12:41:10.083Z</time></trkpt><trkpt lat="39.290954801059" lon="8.483171160391585"><ele>71.66666666666667</ele><time>2026-04-27T12:41:11.083Z</time></trkpt><trkpt lat="39.290933434100126" lon="8.482897614524585"><ele>71.33333333333334</ele><time>2026-04-27T12:41:12.083Z</time></trkpt><trkpt lat="39.290920268270995" lon="8.482620754543914"><ele>71.0</ele><time>2026-04-27T12:41:13.083Z</time></trkpt><trkpt lat="39.290920246841615" lon="8.482347362190342"><ele>70.0</ele><time>2026-04-27T12:41:14.083Z</time></trkpt><trkpt lat="39.29091483644576" lon="8.482074814661335"><ele>69.0</ele><time>2026-04-27T12:41:15.083Z</time></trkpt><trkpt lat="39.290911609861986" lon="8.481814357198905"><ele>68.0</ele><time>2026-04-27T12:41:16.085Z</time></trkpt><trkpt lat="39.2909107259268" lon="8.481577327279778"><ele>68.0</ele><time>2026-04-27T12:41:17.085Z</time></trkpt><trkpt lat="39.29090796646398" lon="8.48135075286363"><ele>68.0</ele><time>2026-04-27T12:41:18.085Z</time></trkpt><trkpt lat="39.290908759759816" lon="8.481130032361271"><ele>68.0</ele><time>2026-04-27T12:41:19.085Z</time></trkpt><trkpt lat="39.29090663242571" lon="8.480908633992083"><ele>67.33333333333334</ele><time>2026-04-27T12:41:20.085Z</time></trkpt><trkpt lat="39.29090989631764" lon="8.480685043406453"><ele>66.66666666666667</ele><time>2026-04-27T12:41:21.085Z</time></trkpt><trkpt lat="39.29090815150874" lon="8.480449119559148"><ele>66.0</ele><time>2026-04-27T12:41:22.085Z</time></trkpt><trkpt lat="39.29091197170529" lon="8.480220474802232"><ele>65.66666666666667</ele><time>2026-04-27T12:41:23.085Z</time></trkpt><trkpt lat="39.290917218883294" lon="8.479999341246883"><ele>65.33333333333334</ele><time>2026-04-27T12:41:24.085Z</time></trkpt><trkpt lat="39.29092515861949" lon="8.479785211411487"><ele>65.0</ele><time>2026-04-27T12:41:25.085Z</time></trkpt><trkpt lat="39.2909366890882" lon="8.479555750028657"><ele>64.66666666666667</ele><time>2026-04-27T12:41:26.085Z</time></trkpt><trkpt lat="39.29094105069359" lon="8.479290314607649"><ele>64.33333333333333</ele><time>2026-04-27T12:41:27.085Z</time></trkpt><trkpt lat="39.29092712946276" lon="8.479025848584785"><ele>64.0</ele><time>2026-04-27T12:41:28.085Z</time></trkpt><trkpt lat="39.290907422402086" lon="8.478780670049765"><ele>63.0</ele><time>2026-04-27T12:41:29.085Z</time></trkpt><trkpt lat="39.29088036892528" lon="8.478552952138731"><ele>62.0</ele><time>2026-04-27T12:41:30.085Z</time></trkpt><trkpt lat="39.29083719131572" lon="8.478337196331065"><ele>61.0</ele><time>2026-04-27T12:41:31.085Z</time></trkpt><trkpt lat="39.290784019862215" lon="8.478125109717416"><ele>61.33333333333333</ele><time>2026-04-27T12:41:32.085Z</time></trkpt><trkpt lat="39.29071558372933" lon="8.477925182253333"><ele>61.66666666666667</ele><time>2026-04-27T12:41:33.085Z</time></trkpt><trkpt lat="39.2906374600866" lon="8.477747925014697"><ele>62.0</ele><time>2026-04-27T12:41:34.085Z</time></trkpt><trkpt lat="39.29055248141973" lon="8.477583163874147"><ele>60.66666666666667</ele><time>2026-04-27T12:41:35.085Z</time></trkpt><trkpt lat="39.29045510818602" lon="8.477432110248573"><ele>59.33333333333333</ele><time>2026-04-27T12:41:36.085Z</time></trkpt><trkpt lat="39.29034971469942" lon="8.477288835870315"><ele>58.0</ele><time>2026-04-27T12:41:37.085Z</time></trkpt><trkpt lat="39.29022825488755" lon="8.477156556165399"><ele>62.0</ele><time>2026-04-27T12:41:38.085Z</time></trkpt><trkpt lat="39.29010358634195" lon="8.477037224212525"><ele>66.0</ele><time>2026-04-27T12:41:39.085Z</time></trkpt><trkpt lat="39.289966543529786" lon="8.47694065032475"><ele>70.0</ele><time>2026-04-27T12:41:40.085Z</time></trkpt><trkpt lat="39.28982740467892" lon="8.476853556103375"><ele>65.0</ele><time>2026-04-27T12:41:41.085Z</time></trkpt><trkpt lat="39.28967995051643" lon="8.476783217928736"><ele>60.0</ele><time>2026-04-27T12:41:42.085Z</time></trkpt><trkpt lat="39.28952513348768" lon="8.476721061705085"><ele>55.0</ele><time>2026-04-27T12:41:43.085Z</time></trkpt><trkpt lat="39.28936834959783" lon="8.476659673610492"><ele>55.0</ele><time>2026-04-27T12:41:44.085Z</time></trkpt><trkpt lat="39.28920730392621" lon="8.476597192921353"><ele>55.0</ele><time>2026-04-27T12:41:45.085Z</time></trkpt><trkpt lat="39.28904911222435" lon="8.476532978302554"><ele>55.0</ele><time>2026-04-27T12:41:46.085Z</time></trkpt><trkpt lat="39.28889895911794" lon="8.476463176292128"><ele>56.33333333333333</ele><time>2026-04-27T12:41:47.085Z</time></trkpt><trkpt lat="39.28875221929767" lon="8.476380873329873"><ele>57.66666666666667</ele><time>2026-04-27T12:41:48.085Z</time></trkpt><trkpt lat="39.28860205451153" lon="8.476290599115245"><ele>59.0</ele><time>2026-04-27T12:41:49.085Z</time></trkpt><trkpt lat="39.288457658797626" lon="8.476180010106233"><ele>59.0</ele><time>2026-04-27T12:41:50.085Z</time></trkpt><trkpt lat="39.28832727883437" lon="8.476057926694333"><ele>59.0</ele><time>2026-04-27T12:41:51.085Z</time></trkpt><trkpt lat="39.28820022111053" lon="8.475921418613705"><ele>59.0</ele><time>2026-04-27T12:41:52.085Z</time></trkpt><trkpt lat="39.288080649226416" lon="8.47577072607054"><ele>59.333333333333336</ele><time>2026-04-27T12:41:53.085Z</time></trkpt><trkpt lat="39.287968687937656" lon="8.475609579816165"><ele>59.66666666666667</ele><time>2026-04-27T12:41:54.085Z</time></trkpt><trkpt lat="39.28787123298296" lon="8.475429610232668"><ele>60.0</ele><time>2026-04-27T12:41:55.085Z</time></trkpt><trkpt lat="39.28778166358645" lon="8.475239139489776"><ele>58.33333333333333</ele><time>2026-04-27T12:41:56.085Z</time></trkpt><trkpt lat="39.28769465260891" lon="8.475034543832676"><ele>56.666666666666664</ele><time>2026-04-27T12:41:57.085Z</time></trkpt><trkpt lat="39.28761427078578" lon="8.474828655539941"><ele>55.0</ele><time>2026-04-27T12:41:58.085Z</time></trkpt><trkpt lat="39.287535351001196" lon="8.4746391089138"><ele>55.666666666666664</ele><time>2026-04-27T12:41:59.085Z</time></trkpt><trkpt lat="39.287453754051796" lon="8.474433794692521"><ele>56.33333333333333</ele><time>2026-04-27T12:42:00.085Z</time></trkpt><trkpt lat="39.287359652538065" lon="8.474227462710822"><ele>57.0</ele><time>2026-04-27T12:42:01.085Z</time></trkpt><trkpt lat="39.28724919898848" lon="8.47399029566226"><ele>54.0</ele><time>2026-04-27T12:42:02.085Z</time></trkpt><trkpt lat="39.28714189814322" lon="8.47372077672333"><ele>51.0</ele><time>2026-04-27T12:42:03.085Z</time></trkpt><trkpt lat="39.28702792136623" lon="8.473432867992432"><ele>51.0</ele><time>2026-04-27T12:42:04.085Z</time></trkpt><trkpt lat="39.28691132320288" lon="8.4731354236918"><ele>51.0</ele><time>2026-04-27T12:42:05.085Z</time></trkpt><trkpt lat="39.2867875528802" lon="8.472834787345281"><ele>47.0</ele><time>2026-04-27T12:42:06.085Z</time></trkpt><trkpt lat="39.28666968206661" lon="8.472535273057334"><ele>43.0</ele><time>2026-04-27T12:42:07.085Z</time></trkpt><trkpt lat="39.28654726263541" lon="8.472242103697454"><ele>42.0</ele><time>2026-04-27T12:42:08.085Z</time></trkpt><trkpt lat="39.28642259776783" lon="8.47195772498538"><ele>41.0</ele><time>2026-04-27T12:42:09.085Z</time></trkpt><trkpt lat="39.28630069734016" lon="8.471668033876046"><ele>41.0</ele><time>2026-04-27T12:42:10.085Z</time></trkpt><trkpt lat="39.28617810889048" lon="8.47138042944894"><ele>41.0</ele><time>2026-04-27T12:42:11.085Z</time></trkpt><trkpt lat="39.286058697078715" lon="8.47109165512276"><ele>42.5</ele><time>2026-04-27T12:42:12.086Z</time></trkpt><trkpt lat="39.28594303490523" lon="8.47080432666768"><ele>44.0</ele><time>2026-04-27T12:42:13.086Z</time></trkpt><trkpt lat="39.28582528188177" lon="8.470515766546733"><ele>44.0</ele><time>2026-04-27T12:42:14.086Z</time></trkpt><trkpt lat="39.28570663033074" lon="8.470232299082776"><ele>44.0</ele><time>2026-04-27T12:42:15.086Z</time></trkpt><trkpt lat="39.28557257763331" lon="8.46996458225227"><ele>45.0</ele><time>2026-04-27T12:42:16.086Z</time></trkpt><trkpt lat="39.28541572546808" lon="8.469718311100603"><ele>46.0</ele><time>2026-04-27T12:42:17.086Z</time></trkpt><trkpt lat="39.285247874260236" lon="8.469486468903602"><ele>42.0</ele><time>2026-04-27T12:42:18.086Z</time></trkpt><trkpt lat="39.285059256988724" lon="8.469273920289085"><ele>38.0</ele><time>2026-04-27T12:42:19.086Z</time></trkpt><trkpt lat="39.2848464043515" lon="8.469088399671056"><ele>37.5</ele><time>2026-04-27T12:42:20.086Z</time></trkpt><trkpt lat="39.284618700034514" lon="8.468932063317775"><ele>37.0</ele><time>2026-04-27T12:42:21.086Z</time></trkpt><trkpt lat="39.28437644989495" lon="8.468798906378062"><ele>38.0</ele><time>2026-04-27T12:42:22.086Z</time></trkpt><trkpt lat="39.28412160075676" lon="8.468680205365315"><ele>39.0</ele><time>2026-04-27T12:42:23.086Z</time></trkpt><trkpt lat="39.2838689114773" lon="8.468564102780478"><ele>39.0</ele><time>2026-04-27T12:42:24.086Z</time></trkpt><trkpt lat="39.283615362160454" lon="8.468445232390945"><ele>39.0</ele><time>2026-04-27T12:42:25.086Z</time></trkpt><trkpt lat="39.283365397680484" lon="8.468319712808734"><ele>39.0</ele><time>2026-04-27T12:42:26.086Z</time></trkpt><trkpt lat="39.28312043070234" lon="8.468192470282467"><ele>39.0</ele><time>2026-04-27T12:42:27.086Z</time></trkpt><trkpt lat="39.28287639458881" lon="8.468068027291983"><ele>36.5</ele><time>2026-04-27T12:42:28.086Z</time></trkpt><trkpt lat="39.28262898809776" lon="8.467949412390247"><ele>34.0</ele><time>2026-04-27T12:42:29.086Z</time></trkpt><trkpt lat="39.28238106151841" lon="8.467824015832205"><ele>36.5</ele><time>2026-04-27T12:42:30.086Z</time></trkpt><trkpt lat="39.28213790645193" lon="8.467696751184802"><ele>39.0</ele><time>2026-04-27T12:42:31.086Z</time></trkpt><trkpt lat="39.281898126903116" lon="8.467572455982147"><ele>39.0</ele><time>2026-04-27T12:42:32.086Z</time></trkpt><trkpt lat="39.281658991703104" lon="8.46747453221663"><ele>39.0</ele><time>2026-04-27T12:42:33.086Z</time></trkpt><trkpt lat="39.28141075240211" lon="8.467415616642924"><ele>37.0</ele><time>2026-04-27T12:42:34.086Z</time></trkpt><trkpt lat="39.28115609538407" lon="8.467398954821984"><ele>35.0</ele><time>2026-04-27T12:42:35.086Z</time></trkpt><trkpt lat="39.28089804810026" lon="8.467419959935288"><ele>35.0</ele><time>2026-04-27T12:42:36.086Z</time></trkpt><trkpt lat="39.28064169005449" lon="8.46747288992451"><ele>35.0</ele><time>2026-04-27T12:42:37.086Z</time></trkpt><trkpt lat="39.28039097257293" lon="8.467543736593885"><ele>32.5</ele><time>2026-04-27T12:42:38.086Z</time></trkpt><trkpt lat="39.28014350340998" lon="8.467628798557485"><ele>30.0</ele><time>2026-04-27T12:42:39.086Z</time></trkpt><trkpt lat="39.27989469202032" lon="8.467706868964719"><ele>30.0</ele><time>2026-04-27T12:42:40.086Z</time></trkpt><trkpt lat="39.27964337071569" lon="8.467773587864787"><ele>30.0</ele><time>2026-04-27T12:42:41.086Z</time></trkpt><trkpt lat="39.27939912842637" lon="8.467842647794155"><ele>30.0</ele><time>2026-04-27T12:42:42.086Z</time></trkpt><trkpt lat="39.27917350353324" lon="8.467906334607092"><ele>30.0</ele><time>2026-04-27T12:42:43.086Z</time></trkpt><trkpt lat="39.27895990256143" lon="8.467969204668199"><ele>31.0</ele><time>2026-04-27T12:42:44.086Z</time></trkpt><trkpt lat="39.2787553486065" lon="8.468018884365831"><ele>32.0</ele><time>2026-04-27T12:42:45.086Z</time></trkpt><trkpt lat="39.278553492772204" lon="8.468060583678275"><ele>33.0</ele><time>2026-04-27T12:42:46.086Z</time></trkpt><trkpt lat="39.278366005336" lon="8.468095824429556"><ele>33.0</ele><time>2026-04-27T12:42:47.086Z</time></trkpt><trkpt lat="39.27819508610422" lon="8.46810239488608"><ele>33.0</ele><time>2026-04-27T12:42:48.086Z</time></trkpt><trkpt lat="39.2780562166715" lon="8.468109459468401"><ele>33.0</ele><time>2026-04-27T12:42:49.086Z</time></trkpt><trkpt lat="39.27792925118632" lon="8.468107194306475"><ele>33.0</ele><time>2026-04-27T12:42:50.086Z</time></trkpt><trkpt lat="39.27781973058321" lon="8.46808611642143"><ele>30.599999999999998</ele><time>2026-04-27T12:42:51.086Z</time></trkpt><trkpt lat="39.277719306649175" lon="8.468047329380392"><ele>28.199999999999996</ele><time>2026-04-27T12:42:52.086Z</time></trkpt><trkpt lat="39.27763345607992" lon="8.46796463795762"><ele>25.8</ele><time>2026-04-27T12:42:53.086Z</time></trkpt><trkpt lat="39.27756444266942" lon="8.467849124943843"><ele>23.4</ele><time>2026-04-27T12:42:54.086Z</time></trkpt><trkpt lat="39.277511703399526" lon="8.467717842222203"><ele>21.0</ele><time>2026-04-27T12:42:55.086Z</time></trkpt><trkpt lat="39.27749129122333" lon="8.467567013109118"><ele>20.6</ele><time>2026-04-27T12:42:56.086Z</time></trkpt><trkpt lat="39.27748306040504" lon="8.46742964336947"><ele>20.200000000000003</ele><time>2026-04-27T12:42:57.086Z</time></trkpt><trkpt lat="39.27748376117451" lon="8.467288656073478"><ele>19.799999999999997</ele><time>2026-04-27T12:42:58.086Z</time></trkpt><trkpt lat="39.27751991709276" lon="8.467161705794313"><ele>19.4</ele><time>2026-04-27T12:42:59.086Z</time></trkpt><trkpt lat="39.27758637405415" lon="8.467045310759458"><ele>19.0</ele><time>2026-04-27T12:43:00.086Z</time></trkpt><trkpt lat="39.277669680424296" lon="8.466944703458296"><ele>19.0</ele><time>2026-04-27T12:43:01.086Z</time></trkpt><trkpt lat="39.27777356862047" lon="8.466852702472897"><ele>19.0</ele><time>2026-04-27T12:43:02.086Z</time></trkpt><trkpt lat="39.27788280431316" lon="8.466756090312998"><ele>19.0</ele><time>2026-04-27T12:43:03.086Z</time></trkpt><trkpt lat="39.27799448594557" lon="8.466650121091543"><ele>19.0</ele><time>2026-04-27T12:43:04.086Z</time></trkpt><trkpt lat="39.27810835038455" lon="8.466540986887487"><ele>18.25</ele><time>2026-04-27T12:43:05.086Z</time></trkpt><trkpt lat="39.278226466340314" lon="8.4664275293998"><ele>17.5</ele><time>2026-04-27T12:43:06.086Z</time></trkpt><trkpt lat="39.278345213924" lon="8.466308820448207"><ele>16.75</ele><time>2026-04-27T12:43:07.086Z</time></trkpt><trkpt lat="39.278456680622405" lon="8.46619215213502"><ele>16.0</ele><time>2026-04-27T12:43:08.086Z</time></trkpt><trkpt lat="39.27856269337269" lon="8.466061187878465"><ele>16.0</ele><time>2026-04-27T12:43:09.086Z</time></trkpt><trkpt lat="39.27865949817712" lon="8.465902774463903"><ele>16.0</ele><time>2026-04-27T12:43:10.086Z</time></trkpt><trkpt lat="39.27876142474695" lon="8.465726028899025"><ele>16.0</ele><time>2026-04-27T12:43:11.086Z</time></trkpt><trkpt lat="39.27886562708747" lon="8.465543000173348"><ele>16.0</ele><time>2026-04-27T12:43:12.086Z</time></trkpt><trkpt lat="39.278962397623644" lon="8.465341753254258"><ele>16.0</ele><time>2026-04-27T12:43:13.086Z</time></trkpt><trkpt lat="39.27905157147069" lon="8.465120999030164"><ele>16.0</ele><time>2026-04-27T12:43:14.086Z</time></trkpt><trkpt lat="39.279124027683935" lon="8.464887205844558"><ele>16.0</ele><time>2026-04-27T12:43:15.086Z</time></trkpt><trkpt lat="39.27918718376626" lon="8.464643681193301"><ele>16.0</ele><time>2026-04-27T12:43:16.086Z</time></trkpt><trkpt lat="39.27923260667214" lon="8.46438414563604"><ele>16.0</ele><time>2026-04-27T12:43:17.086Z</time></trkpt><trkpt lat="39.279247713925024" lon="8.464108846859828"><ele>15.666666666666666</ele><time>2026-04-27T12:43:18.086Z</time></trkpt><trkpt lat="39.2792447529615" lon="8.463826458961922"><ele>15.333333333333332</ele><time>2026-04-27T12:43:19.086Z</time></trkpt><trkpt lat="39.27924570298763" lon="8.46353901185674"><ele>15.0</ele><time>2026-04-27T12:43:20.086Z</time></trkpt><trkpt lat="39.27926635738261" lon="8.463255918777554"><ele>15.0</ele><time>2026-04-27T12:43:21.086Z</time></trkpt><trkpt lat="39.27932481664689" lon="8.462967206254998"><ele>15.0</ele><time>2026-04-27T12:43:22.087Z</time></trkpt><trkpt lat="39.27940095603209" lon="8.462684355276926"><ele>15.0</ele><time>2026-04-27T12:43:23.087Z</time></trkpt><trkpt lat="39.27946447257153" lon="8.462419746692266"><ele>15.0</ele><time>2026-04-27T12:43:24.087Z</time></trkpt><trkpt lat="39.279577118718855" lon="8.462149315275129"><ele>14.5</ele><time>2026-04-27T12:43:25.088Z</time></trkpt><trkpt lat="39.27971308322686" lon="8.461890548999271"><ele>14.0</ele><time>2026-04-27T12:43:26.087Z</time></trkpt><trkpt lat="39.27986682749522" lon="8.461641493624072"><ele>14.0</ele><time>2026-04-27T12:43:27.087Z</time></trkpt><trkpt lat="39.28003051001955" lon="8.461397071373803"><ele>14.0</ele><time>2026-04-27T12:43:28.087Z</time></trkpt><trkpt lat="39.280191481597704" lon="8.46115528876918"><ele>13.5</ele><time>2026-04-27T12:43:29.087Z</time></trkpt><trkpt lat="39.280344586302625" lon="8.46091191221331"><ele>13.0</ele><time>2026-04-27T12:43:30.087Z</time></trkpt><trkpt lat="39.28049115540131" lon="8.46066571082211"><ele>14.0</ele><time>2026-04-27T12:43:31.087Z</time></trkpt><trkpt lat="39.280644583577704" lon="8.46042929203021"><ele>15.0</ele><time>2026-04-27T12:43:32.087Z</time></trkpt><trkpt lat="39.28081492688073" lon="8.460209749873604"><ele>15.0</ele><time>2026-04-27T12:43:33.087Z</time></trkpt><trkpt lat="39.28100446170742" lon="8.46001442909729"><ele>15.0</ele><time>2026-04-27T12:43:34.087Z</time></trkpt><trkpt lat="39.28121169237782" lon="8.459844176531742"><ele>15.0</ele><time>2026-04-27T12:43:35.087Z</time></trkpt><trkpt lat="39.281426394268514" lon="8.4596940318394"><ele>15.0</ele><time>2026-04-27T12:43:36.087Z</time></trkpt><trkpt lat="39.28162479415057" lon="8.459526202442987"><ele>13.5</ele><time>2026-04-27T12:43:37.087Z</time></trkpt><trkpt lat="39.28180058874668" lon="8.459318578614395"><ele>12.0</ele><time>2026-04-27T12:43:38.087Z</time></trkpt><trkpt lat="39.28194248780653" lon="8.459066181188167"><ele>12.0</ele><time>2026-04-27T12:43:39.087Z</time></trkpt><trkpt lat="39.2820452081345" lon="8.458788804546124"><ele>12.0</ele><time>2026-04-27T12:43:40.087Z</time></trkpt><trkpt lat="39.28211702615847" lon="8.458488784884523"><ele>12.0</ele><time>2026-04-27T12:43:41.087Z</time></trkpt><trkpt lat="39.28215756322095" lon="8.458182066269522"><ele>12.0</ele><time>2026-04-27T12:43:42.087Z</time></trkpt><trkpt lat="39.28217771291082" lon="8.457859152840777"><ele>13.0</ele><time>2026-04-27T12:43:43.087Z</time></trkpt><trkpt lat="39.282181086523266" lon="8.457529515437502"><ele>14.0</ele><time>2026-04-27T12:43:44.087Z</time></trkpt><trkpt lat="39.282179675208404" lon="8.457199256008726"><ele>15.0</ele><time>2026-04-27T12:43:45.087Z</time></trkpt><trkpt lat="39.282176571477564" lon="8.456869941893073"><ele>16.0</ele><time>2026-04-27T12:43:46.087Z</time></trkpt><trkpt lat="39.28215510841361" lon="8.45652138160459"><ele>16.0</ele><time>2026-04-27T12:43:47.087Z</time></trkpt><trkpt lat="39.282125686138265" lon="8.456234622893604"><ele>16.0</ele><time>2026-04-27T12:43:48.087Z</time></trkpt><trkpt lat="39.28204722208841" lon="8.455951804552669"><ele>16.0</ele><time>2026-04-27T12:43:49.087Z</time></trkpt><trkpt lat="39.281948272377306" lon="8.455668397787813"><ele>16.0</ele><time>2026-04-27T12:43:50.087Z</time></trkpt><trkpt lat="39.28184644893426" lon="8.455373629379253"><ele>17.0</ele><time>2026-04-27T12:43:51.087Z</time></trkpt><trkpt lat="39.28175493241443" lon="8.455081362052656"><ele>18.0</ele><time>2026-04-27T12:43:52.087Z</time></trkpt><trkpt lat="39.281678496071784" lon="8.454813559575753"><ele>18.333333333333332</ele><time>2026-04-27T12:43:53.087Z</time></trkpt><trkpt lat="39.281615011616694" lon="8.4545464201085"><ele>18.666666666666664</ele><time>2026-04-27T12:43:54.087Z</time></trkpt><trkpt lat="39.28158360196685" lon="8.454267442736134"><ele>19.0</ele><time>2026-04-27T12:43:55.087Z</time></trkpt><trkpt lat="39.28159900250425" lon="8.453979523830956"><ele>17.5</ele><time>2026-04-27T12:43:56.087Z</time></trkpt><trkpt lat="39.28165404166209" lon="8.453679248908196"><ele>16.0</ele><time>2026-04-27T12:43:57.087Z</time></trkpt><trkpt lat="39.281732912105355" lon="8.45338641844932"><ele>16.0</ele><time>2026-04-27T12:43:58.087Z</time></trkpt><trkpt lat="39.28180677831244" lon="8.453083084082845"><ele>16.0</ele><time>2026-04-27T12:43:59.087Z</time></trkpt><trkpt lat="39.28186696722164" lon="8.452775002680053"><ele>15.666666666666666</ele><time>2026-04-27T12:44:00.087Z</time></trkpt><trkpt lat="39.28192686448427" lon="8.452480292100264"><ele>15.333333333333332</ele><time>2026-04-27T12:44:01.087Z</time></trkpt><trkpt lat="39.281981551608865" lon="8.452221922276433"><ele>15.0</ele><time>2026-04-27T12:44:02.087Z</time></trkpt><trkpt lat="39.28203081119757" lon="8.451985381807223"><ele>14.333333333333332</ele><time>2026-04-27T12:44:03.087Z</time></trkpt><trkpt lat="39.28207586221048" lon="8.451766798673733"><ele>13.666666666666666</ele><time>2026-04-27T12:44:04.087Z</time></trkpt><trkpt lat="39.2821217282169" lon="8.45156277155681"><ele>13.0</ele><time>2026-04-27T12:44:05.087Z</time></trkpt><trkpt lat="39.282168709924385" lon="8.451366936067497"><ele>13.0</ele><time>2026-04-27T12:44:06.087Z</time></trkpt><trkpt lat="39.28221460013575" lon="8.451174883954039"><ele>13.0</ele><time>2026-04-27T12:44:07.087Z</time></trkpt><trkpt lat="39.28226681059098" lon="8.450962132556015"><ele>13.0</ele><time>2026-04-27T12:44:08.087Z</time></trkpt><trkpt lat="39.28233746375842" lon="8.450729031532518"><ele>13.0</ele><time>2026-04-27T12:44:09.087Z</time></trkpt><trkpt lat="39.28242749525757" lon="8.450484429513756"><ele>13.0</ele><time>2026-04-27T12:44:10.087Z</time></trkpt><trkpt lat="39.28251982002419" lon="8.450223222009472"><ele>13.0</ele><time>2026-04-27T12:44:11.087Z</time></trkpt><trkpt lat="39.28260595755978" lon="8.449948718417293"><ele>13.0</ele><time>2026-04-27T12:44:12.088Z</time></trkpt><trkpt lat="39.28269400541482" lon="8.449661599105072"><ele>13.0</ele><time>2026-04-27T12:44:13.088Z</time></trkpt><trkpt lat="39.28279156288992" lon="8.449369459362874"><ele>11.5</ele><time>2026-04-27T12:44:14.088Z</time></trkpt><trkpt lat="39.28288583584418" lon="8.449070447893387"><ele>10.0</ele><time>2026-04-27T12:44:15.088Z</time></trkpt><trkpt lat="39.28297579087197" lon="8.448782004027963"><ele>10.0</ele><time>2026-04-27T12:44:16.088Z</time></trkpt><trkpt lat="39.283068379372835" lon="8.448505589873985"><ele>10.0</ele><time>2026-04-27T12:44:17.088Z</time></trkpt><trkpt lat="39.28317068337312" lon="8.448226096171354"><ele>9.5</ele><time>2026-04-27T12:44:18.088Z</time></trkpt><trkpt lat="39.28328634949389" lon="8.447945221998957"><ele>9.0</ele><time>2026-04-27T12:44:19.088Z</time></trkpt><trkpt lat="39.283406310450346" lon="8.447657741269195"><ele>9.0</ele><time>2026-04-27T12:44:20.088Z</time></trkpt><trkpt lat="39.283532011009065" lon="8.447365384623506"><ele>9.0</ele><time>2026-04-27T12:44:21.088Z</time></trkpt><trkpt lat="39.283649632186794" lon="8.447057191588403"><ele>9.5</ele><time>2026-04-27T12:44:22.088Z</time></trkpt><trkpt lat="39.28377763188035" lon="8.446752543330822"><ele>10.0</ele><time>2026-04-27T12:44:23.088Z</time></trkpt><trkpt lat="39.283905290015056" lon="8.446446614206927"><ele>11.0</ele><time>2026-04-27T12:44:24.088Z</time></trkpt><trkpt lat="39.2840289689068" lon="8.446136058789854"><ele>12.0</ele><time>2026-04-27T12:44:25.088Z</time></trkpt><trkpt lat="39.28415466503463" lon="8.44582478885898"><ele>12.0</ele><time>2026-04-27T12:44:26.088Z</time></trkpt><trkpt lat="39.284281422066194" lon="8.445518584903448"><ele>12.0</ele><time>2026-04-27T12:44:27.088Z</time></trkpt><trkpt lat="39.28440375127731" lon="8.445223877255838"><ele>11.5</ele><time>2026-04-27T12:44:28.088Z</time></trkpt><trkpt lat="39.28452200457424" lon="8.444937007217456"><ele>11.0</ele><time>2026-04-27T12:44:29.088Z</time></trkpt><trkpt lat="39.28463592030912" lon="8.444658601896801"><ele>10.5</ele><time>2026-04-27T12:44:30.088Z</time></trkpt><trkpt lat="39.28474926333295" lon="8.444382564883673"><ele>10.0</ele><time>2026-04-27T12:44:31.088Z</time></trkpt><trkpt lat="39.28486719790232" lon="8.444108494989043"><ele>12.0</ele><time>2026-04-27T12:44:32.088Z</time></trkpt><trkpt lat="39.284995531350226" lon="8.443835241748037"><ele>14.0</ele><time>2026-04-27T12:44:33.088Z</time></trkpt><trkpt lat="39.28514146836038" lon="8.44357078647981"><ele>14.0</ele><time>2026-04-27T12:44:34.088Z</time></trkpt><trkpt lat="39.28529714070251" lon="8.443311456617819"><ele>14.0</ele><time>2026-04-27T12:44:35.088Z</time></trkpt><trkpt lat="39.28545787991703" lon="8.443047586601853"><ele>14.5</ele><time>2026-04-27T12:44:36.088Z</time></trkpt><trkpt lat="39.28561498023009" lon="8.442777861960684"><ele>15.0</ele><time>2026-04-27T12:44:37.088Z</time></trkpt><trkpt lat="39.285777320503726" lon="8.442511267938613"><ele>15.0</ele><time>2026-04-27T12:44:38.088Z</time></trkpt><trkpt lat="39.28594419329122" lon="8.442263810345578"><ele>15.0</ele><time>2026-04-27T12:44:39.088Z</time></trkpt><trkpt lat="39.28613635027201" lon="8.442042404917848"><ele>14.5</ele><time>2026-04-27T12:44:40.088Z</time></trkpt><trkpt lat="39.28634414969501" lon="8.44183457195678"><ele>14.0</ele><time>2026-04-27T12:44:41.088Z</time></trkpt><trkpt lat="39.286557586649934" lon="8.441643998045853"><ele>14.0</ele><time>2026-04-27T12:44:42.088Z</time></trkpt><trkpt lat="39.28676338069353" lon="8.441437537356169"><ele>14.0</ele><time>2026-04-27T12:44:43.088Z</time></trkpt><trkpt lat="39.28696460482875" lon="8.441231452012733"><ele>14.0</ele><time>2026-04-27T12:44:44.088Z</time></trkpt><trkpt lat="39.287161306246155" lon="8.441021660226886"><ele>14.0</ele><time>2026-04-27T12:44:45.088Z</time></trkpt><trkpt lat="39.287351966041214" lon="8.440815355294976"><ele>14.0</ele><time>2026-04-27T12:44:46.088Z</time></trkpt><trkpt lat="39.28754568449281" lon="8.4406185913548"><ele>14.0</ele><time>2026-04-27T12:44:47.088Z</time></trkpt><trkpt lat="39.28773341785924" lon="8.440424666723045"><ele>13.5</ele><time>2026-04-27T12:44:48.088Z</time></trkpt><trkpt lat="39.2879179871821" lon="8.440227044236458"><ele>13.0</ele><time>2026-04-27T12:44:49.088Z</time></trkpt><trkpt lat="39.288106681566795" lon="8.44004618020388"><ele>13.0</ele><time>2026-04-27T12:44:50.088Z</time></trkpt><trkpt lat="39.288294780647284" lon="8.439870005715372"><ele>13.0</ele><time>2026-04-27T12:44:51.088Z</time></trkpt><trkpt lat="39.288483321103755" lon="8.439696559593147"><ele>10.5</ele><time>2026-04-27T12:44:52.088Z</time></trkpt><trkpt lat="39.28866391566252" lon="8.439514785447084"><ele>8.0</ele><time>2026-04-27T12:44:53.088Z</time></trkpt><trkpt lat="39.28884888366255" lon="8.439331840813"><ele>10.0</ele><time>2026-04-27T12:44:54.088Z</time></trkpt><trkpt lat="39.28904365196047" lon="8.439167372500457"><ele>12.0</ele><time>2026-04-27T12:44:55.088Z</time></trkpt><trkpt lat="39.289253659730306" lon="8.439029598656578"><ele>12.0</ele><time>2026-04-27T12:44:56.088Z</time></trkpt><trkpt lat="39.28946743404996" lon="8.438919199050169"><ele>12.0</ele><time>2026-04-27T12:44:57.088Z</time></trkpt><trkpt lat="39.289681704191594" lon="8.438838339596398"><ele>11.666666666666666</ele><time>2026-04-27T12:44:58.088Z</time></trkpt><trkpt lat="39.28989433118221" lon="8.438760640265132"><ele>11.333333333333332</ele><time>2026-04-27T12:44:59.088Z</time></trkpt><trkpt lat="39.29011424764401" lon="8.438683200903823"><ele>11.0</ele><time>2026-04-27T12:45:00.088Z</time></trkpt><trkpt lat="39.29032706139416" lon="8.438623164372624"><ele>11.0</ele><time>2026-04-27T12:45:01.088Z</time></trkpt><trkpt lat="39.29054147860588" lon="8.438579306893372"><ele>11.0</ele><time>2026-04-27T12:45:02.088Z</time></trkpt><trkpt lat="39.290753322738524" lon="8.43857619627545"><ele>11.0</ele><time>2026-04-27T12:45:03.088Z</time></trkpt><trkpt lat="39.29097287752566" lon="8.438599262149335"><ele>13.333333333333332</ele><time>2026-04-27T12:45:04.088Z</time></trkpt><trkpt lat="39.29118674249954" lon="8.438609207830682"><ele>15.666666666666666</ele><time>2026-04-27T12:45:05.088Z</time></trkpt><trkpt lat="39.29138659979241" lon="8.438590034245212"><ele>18.0</ele><time>2026-04-27T12:45:06.088Z</time></trkpt><trkpt lat="39.291569316838626" lon="8.438530701605204"><ele>21.0</ele><time>2026-04-27T12:45:07.088Z</time></trkpt><trkpt lat="39.29174304705671" lon="8.438413970054508"><ele>24.0</ele><time>2026-04-27T12:45:08.088Z</time></trkpt><trkpt lat="39.291900603868925" lon="8.438266347081933"><ele>27.0</ele><time>2026-04-27T12:45:09.088Z</time></trkpt><trkpt lat="39.29207665488834" lon="8.438129253511082"><ele>27.0</ele><time>2026-04-27T12:45:10.088Z</time></trkpt><trkpt lat="39.292238708307536" lon="8.437992812759456"><ele>27.0</ele><time>2026-04-27T12:45:11.088Z</time></trkpt><trkpt lat="39.292394183343895" lon="8.437830460539738"><ele>27.0</ele><time>2026-04-27T12:45:12.088Z</time></trkpt><trkpt lat="39.29253822156511" lon="8.437660380944598"><ele>27.0</ele><time>2026-04-27T12:45:13.088Z</time></trkpt><trkpt lat="39.292683478403276" lon="8.437505008583008"><ele>27.0</ele><time>2026-04-27T12:45:14.088Z</time></trkpt><trkpt lat="39.2928259833747" lon="8.437403293741417"><ele>27.0</ele><time>2026-04-27T12:45:15.088Z</time></trkpt><trkpt lat="39.29298568477299" lon="8.437375264317478"><ele>30.666666666666664</ele><time>2026-04-27T12:45:16.088Z</time></trkpt><trkpt lat="39.29315966968701" lon="8.43738789891849"><ele>34.33333333333333</ele><time>2026-04-27T12:45:17.088Z</time></trkpt><trkpt lat="39.293342143587836" lon="8.437402822141975"><ele>38.0</ele><time>2026-04-27T12:45:18.088Z</time></trkpt><trkpt lat="39.29353191249263" lon="8.437440549352356"><ele>38.0</ele><time>2026-04-27T12:45:19.088Z</time></trkpt><trkpt lat="39.29371544287697" lon="8.437485146111626"><ele>38.0</ele><time>2026-04-27T12:45:20.088Z</time></trkpt><trkpt lat="39.2938763262025" lon="8.437522667162904"><ele>38.0</ele><time>2026-04-27T12:45:21.088Z</time></trkpt><trkpt lat="39.294010899083474" lon="8.437503159607115"><ele>34.666666666666664</ele><time>2026-04-27T12:45:22.088Z</time></trkpt><trkpt lat="39.29413158590677" lon="8.437388615790917"><ele>31.333333333333336</ele><time>2026-04-27T12:45:23.088Z</time></trkpt><trkpt lat="39.29424218007878" lon="8.437234122062327"><ele>28.0</ele><time>2026-04-27T12:45:24.088Z</time></trkpt><trkpt lat="39.29434768795848" lon="8.4371081816434"><ele>28.0</ele><time>2026-04-27T12:45:25.089Z</time></trkpt><trkpt lat="39.29444852975345" lon="8.436997951324008"><ele>28.0</ele><time>2026-04-27T12:45:26.089Z</time></trkpt><trkpt lat="39.29455797576425" lon="8.436900223514781"><ele>28.0</ele><time>2026-04-27T12:45:27.089Z</time></trkpt><trkpt lat="39.29468144690549" lon="8.436828933831158"><ele>28.0</ele><time>2026-04-27T12:45:28.09Z</time></trkpt><trkpt lat="39.29481280451914" lon="8.43677731157127"><ele>34.333333333333336</ele><time>2026-04-27T12:45:29.09Z</time></trkpt><trkpt lat="39.294947917900366" lon="8.436714499706644"><ele>40.666666666666664</ele><time>2026-04-27T12:45:30.09Z</time></trkpt><trkpt lat="39.29508698113173" lon="8.43663251518376"><ele>47.0</ele><time>2026-04-27T12:45:31.09Z</time></trkpt><trkpt lat="39.29522570424347" lon="8.436538423081005"><ele>47.0</ele><time>2026-04-27T12:45:32.09Z</time></trkpt><trkpt lat="39.295365536138604" lon="8.436447072787086"><ele>47.0</ele><time>2026-04-27T12:45:33.09Z</time></trkpt><trkpt lat="39.29551916062653" lon="8.43637151274024"><ele>47.0</ele><time>2026-04-27T12:45:34.09Z</time></trkpt><trkpt lat="39.29568334114357" lon="8.436296246241746"><ele>43.666666666666664</ele><time>2026-04-27T12:45:35.09Z</time></trkpt><trkpt lat="39.2958445066388" lon="8.436215709709723"><ele>40.333333333333336</ele><time>2026-04-27T12:45:36.09Z</time></trkpt><trkpt lat="39.29601280689752" lon="8.436139314643395"><ele>37.0</ele><time>2026-04-27T12:45:37.09Z</time></trkpt><trkpt lat="39.29617786478946" lon="8.436058035354632"><ele>37.0</ele><time>2026-04-27T12:45:38.09Z</time></trkpt><trkpt lat="39.296356017821026" lon="8.435992932705677"><ele>37.0</ele><time>2026-04-27T12:45:39.09Z</time></trkpt><trkpt lat="39.29653918190654" lon="8.435932099588703"><ele>37.0</ele><time>2026-04-27T12:45:40.09Z</time></trkpt><trkpt lat="39.29672251161319" lon="8.43588114712381"><ele>44.0</ele><time>2026-04-27T12:45:41.09Z</time></trkpt><trkpt lat="39.29690299023686" lon="8.43584289745611"><ele>51.0</ele><time>2026-04-27T12:45:42.09Z</time></trkpt><trkpt lat="39.297088269424535" lon="8.435812281357762"><ele>58.0</ele><time>2026-04-27T12:45:43.09Z</time></trkpt><trkpt lat="39.29727447339018" lon="8.435784525406765"><ele>60.666666666666664</ele><time>2026-04-27T12:45:44.09Z</time></trkpt><trkpt lat="39.29746081486674" lon="8.435758675354524"><ele>63.33333333333333</ele><time>2026-04-27T12:45:45.09Z</time></trkpt><trkpt lat="39.29764455150865" lon="8.435725706987743"><ele>66.0</ele><time>2026-04-27T12:45:46.09Z</time></trkpt><trkpt lat="39.29783122561454" lon="8.435688838253075"><ele>66.0</ele><time>2026-04-27T12:45:47.09Z</time></trkpt><trkpt lat="39.29801751251687" lon="8.435656096958388"><ele>66.0</ele><time>2026-04-27T12:45:48.09Z</time></trkpt><trkpt lat="39.29820428634645" lon="8.435617800188783"><ele>66.0</ele><time>2026-04-27T12:45:49.09Z</time></trkpt><trkpt lat="39.29839219681188" lon="8.435585134282826"><ele>68.33333333333333</ele><time>2026-04-27T12:45:50.09Z</time></trkpt><trkpt lat="39.29857803704197" lon="8.435556551418275"><ele>70.66666666666666</ele><time>2026-04-27T12:45:51.09Z</time></trkpt><trkpt lat="39.298765710777886" lon="8.435544420053487"><ele>73.0</ele><time>2026-04-27T12:45:52.09Z</time></trkpt><trkpt lat="39.298950344270715" lon="8.435562033340839"><ele>73.0</ele><time>2026-04-27T12:45:53.09Z</time></trkpt><trkpt lat="39.299108967015165" lon="8.435597053569595"><ele>73.0</ele><time>2026-04-27T12:45:54.09Z</time></trkpt><trkpt lat="39.29922557710934" lon="8.435650135960222"><ele>73.0</ele><time>2026-04-27T12:45:55.09Z</time></trkpt><trkpt lat="39.299304138346976" lon="8.435742422080148"><ele>73.0</ele><time>2026-04-27T12:45:56.09Z</time></trkpt><trkpt lat="39.29935915463774" lon="8.435892400143635"><ele>73.0</ele><time>2026-04-27T12:45:57.09Z</time></trkpt><trkpt lat="39.29944374790993" lon="8.436037599311982"><ele>73.0</ele><time>2026-04-27T12:45:58.09Z</time></trkpt><trkpt lat="39.29954366292227" lon="8.436152209975743"><ele>73.0</ele><time>2026-04-27T12:45:59.09Z</time></trkpt><trkpt lat="39.29965532475071" lon="8.436209325172571"><ele>73.0</ele><time>2026-04-27T12:46:00.09Z</time></trkpt><trkpt lat="39.29975329601786" lon="8.436246260689716"><ele>71.8</ele><time>2026-04-27T12:46:01.09Z</time></trkpt><trkpt lat="39.29986186051048" lon="8.436304383738223"><ele>70.6</ele><time>2026-04-27T12:46:02.09Z</time></trkpt><trkpt lat="39.29997092855245" lon="8.436355806006716"><ele>69.4</ele><time>2026-04-27T12:46:03.09Z</time></trkpt><trkpt lat="39.30006758298208" lon="8.436381678665283"><ele>68.2</ele><time>2026-04-27T12:46:04.09Z</time></trkpt><trkpt lat="39.3001547585564" lon="8.436334844917763"><ele>67.0</ele><time>2026-04-27T12:46:05.09Z</time></trkpt><trkpt lat="39.3002117674659" lon="8.436236229877737"><ele>67.0</ele><time>2026-04-27T12:46:06.09Z</time></trkpt><trkpt lat="39.30023031020334" lon="8.436115020264625"><ele>67.0</ele><time>2026-04-27T12:46:07.09Z</time></trkpt><trkpt lat="39.300242739884546" lon="8.43598476214333"><ele>67.0</ele><time>2026-04-27T12:46:08.09Z</time></trkpt><trkpt lat="39.30030261400905" lon="8.435900235944663"><ele>67.0</ele><time>2026-04-27T12:46:09.09Z</time></trkpt><trkpt lat="39.30038028275231" lon="8.435856735842096"><ele>67.0</ele><time>2026-04-27T12:46:10.09Z</time></trkpt><trkpt lat="39.30046966998952" lon="8.435827890095318"><ele>67.0</ele><time>2026-04-27T12:46:11.09Z</time></trkpt><trkpt lat="39.300568370307495" lon="8.435811690050413"><ele>67.0</ele><time>2026-04-27T12:46:12.09Z</time></trkpt><trkpt lat="39.30067027383602" lon="8.435815877385913"><ele>67.0</ele><time>2026-04-27T12:46:13.09Z</time></trkpt><trkpt lat="39.30077253751389" lon="8.435826163622497"><ele>67.0</ele><time>2026-04-27T12:46:14.09Z</time></trkpt><trkpt lat="39.30087224865976" lon="8.43584943713839"><ele>67.0</ele><time>2026-04-27T12:46:15.09Z</time></trkpt><trkpt lat="39.300975786801445" lon="8.435879921062147"><ele>67.5</ele><time>2026-04-27T12:46:16.09Z</time></trkpt><trkpt lat="39.301086438916066" lon="8.435906687986074"><ele>68.0</ele><time>2026-04-27T12:46:17.09Z</time></trkpt><trkpt lat="39.30119607450047" lon="8.435937222672935"><ele>68.5</ele><time>2026-04-27T12:46:18.09Z</time></trkpt><trkpt lat="39.301308053030716" lon="8.435971929617043"><ele>69.0</ele><time>2026-04-27T12:46:19.091Z</time></trkpt><trkpt lat="39.301422959762405" lon="8.436010583292962"><ele>69.0</ele><time>2026-04-27T12:46:20.091Z</time></trkpt><trkpt lat="39.301528918948705" lon="8.436055468428796"><ele>69.0</ele><time>2026-04-27T12:46:21.091Z</time></trkpt><trkpt lat="39.3016242478726" lon="8.436135003113307"><ele>69.0</ele><time>2026-04-27T12:46:22.091Z</time></trkpt><trkpt lat="39.30171046062448" lon="8.436223946875968"><ele>69.0</ele><time>2026-04-27T12:46:23.091Z</time></trkpt><trkpt lat="39.301796574123436" lon="8.436319714850994"><ele>69.0</ele><time>2026-04-27T12:46:24.091Z</time></trkpt><trkpt lat="39.30188208797256" lon="8.43641871184506"><ele>77.75</ele><time>2026-04-27T12:46:25.091Z</time></trkpt><trkpt lat="39.30196652926534" lon="8.436520377837113"><ele>86.5</ele><time>2026-04-27T12:46:26.091Z</time></trkpt><trkpt lat="39.302046520591496" lon="8.436624521535007"><ele>95.25</ele><time>2026-04-27T12:46:27.091Z</time></trkpt><trkpt lat="39.30212558133447" lon="8.436735603034453"><ele>104.0</ele><time>2026-04-27T12:46:28.091Z</time></trkpt><trkpt lat="39.30220407852052" lon="8.436840891549672"><ele>100.2</ele><time>2026-04-27T12:46:29.091Z</time></trkpt><trkpt lat="39.30228655979949" lon="8.436941834380589"><ele>96.4</ele><time>2026-04-27T12:46:30.091Z</time></trkpt><trkpt lat="39.302366345308855" lon="8.437033694580172"><ele>92.6</ele><time>2026-04-27T12:46:31.091Z</time></trkpt><trkpt lat="39.30244828373508" lon="8.437078117153495"><ele>88.8</ele><time>2026-04-27T12:46:32.091Z</time></trkpt><trkpt lat="39.30253984570757" lon="8.437063883508834"><ele>85.0</ele><time>2026-04-27T12:46:33.091Z</time></trkpt><trkpt lat="39.302626217613074" lon="8.436996583644541"><ele>85.0</ele><time>2026-04-27T12:46:34.091Z</time></trkpt><trkpt lat="39.302700526727754" lon="8.436902948420258"><ele>85.0</ele><time>2026-04-27T12:46:35.091Z</time></trkpt><trkpt lat="39.302773726704324" lon="8.436805398674439"><ele>85.0</ele><time>2026-04-27T12:46:36.091Z</time></trkpt><trkpt lat="39.30285176919495" lon="8.436719161994633"><ele>85.0</ele><time>2026-04-27T12:46:37.091Z</time></trkpt><trkpt lat="39.302928363705334" lon="8.436650547220466"><ele>85.0</ele><time>2026-04-27T12:46:38.091Z</time></trkpt><trkpt lat="39.30301470967053" lon="8.436613339955843"><ele>88.0</ele><time>2026-04-27T12:46:39.091Z</time></trkpt><trkpt lat="39.303111370467796" lon="8.436611348982444"><ele>91.0</ele><time>2026-04-27T12:46:40.091Z</time></trkpt><trkpt lat="39.30321397759193" lon="8.43662514201626"><ele>94.0</ele><time>2026-04-27T12:46:41.091Z</time></trkpt><trkpt lat="39.30331916381339" lon="8.436622965742044"><ele>97.0</ele><time>2026-04-27T12:46:42.091Z</time></trkpt><trkpt lat="39.30343226086998" lon="8.436609092688908"><ele>100.0</ele><time>2026-04-27T12:46:43.091Z</time></trkpt><trkpt lat="39.30353752391641" lon="8.43656580762289"><ele>100.0</ele><time>2026-04-27T12:46:44.091Z</time></trkpt><trkpt lat="39.30364428723532" lon="8.43651419107545"><ele>100.0</ele><time>2026-04-27T12:46:45.091Z</time></trkpt><trkpt lat="39.30374773182179" lon="8.436474132068453"><ele>100.0</ele><time>2026-04-27T12:46:46.091Z</time></trkpt><trkpt lat="39.30385270713599" lon="8.43643650585005"><ele>100.0</ele><time>2026-04-27T12:46:47.091Z</time></trkpt><trkpt lat="39.30396762445379" lon="8.43639521858817"><ele>104.0</ele><time>2026-04-27T12:46:48.091Z</time></trkpt><trkpt lat="39.30408939996933" lon="8.436350783086679"><ele>108.0</ele><time>2026-04-27T12:46:49.091Z</time></trkpt><trkpt lat="39.30421237980956" lon="8.436306859147686"><ele>112.0</ele><time>2026-04-27T12:46:50.091Z</time></trkpt><trkpt lat="39.304330503808984" lon="8.436263840197737"><ele>116.0</ele><time>2026-04-27T12:46:51.091Z</time></trkpt><trkpt lat="39.30443040729476" lon="8.436236008085336"><ele>113.14285714285715</ele><time>2026-04-27T12:46:52.091Z</time></trkpt><trkpt lat="39.30450623311776" lon="8.436209575645636"><ele>110.28571428571429</ele><time>2026-04-27T12:46:53.091Z</time></trkpt><trkpt lat="39.304597791948275" lon="8.436175908033219"><ele>107.42857142857143</ele><time>2026-04-27T12:46:55.091Z</time></trkpt><trkpt lat="39.30465833562546" lon="8.436149109590984"><ele>104.57142857142858</ele><time>2026-04-27T12:47:00.091Z</time></trkpt><trkpt lat="39.304717592052555" lon="8.43611269350232"><ele>101.71428571428572</ele><time>2026-04-27T12:47:03.091Z</time></trkpt><trkpt lat="39.30475300503064" lon="8.43603972787242"><ele>98.85714285714285</ele><time>2026-04-27T12:47:07.091Z</time></trkpt><trkpt lat="39.30481007395843" lon="8.436106779393908"><ele>96.0</ele><time>2026-04-27T12:52:57.099Z</time></trkpt><trkpt lat="39.30487917264947" lon="8.436102511070182"><ele>96.0</ele><time>2026-04-27T12:52:59.099Z</time></trkpt><trkpt lat="39.304941588003764" lon="8.436072654981709"><ele>96.0</ele><time>2026-04-27T12:53:01.099Z</time></trkpt><trkpt lat="39.3050289626106" lon="8.436052825748904"><ele>96.0</ele><time>2026-04-27T12:53:03.099Z</time></trkpt><trkpt lat="39.305117727767524" lon="8.435995040711152"><ele>96.0</ele><time>2026-04-27T12:53:05.099Z</time></trkpt><trkpt lat="39.30519527902945" lon="8.435891047559311"><ele>96.0</ele><time>2026-04-27T12:53:07.099Z</time></trkpt><trkpt lat="39.305287449455825" lon="8.435786982809383"><ele>96.0</ele><time>2026-04-27T12:53:09.099Z</time></trkpt><trkpt lat="39.305348870583614" lon="8.435748469335447"><ele>96.0</ele><time>2026-04-27T12:53:10.099Z</time></trkpt><trkpt lat="39.30541067375499" lon="8.435708474933984"><ele>96.0</ele><time>2026-04-27T12:53:11.099Z</time></trkpt><trkpt lat="39.305487483634025" lon="8.435665188947455"><ele>96.0</ele><time>2026-04-27T12:53:12.099Z</time></trkpt><trkpt lat="39.30557266358653" lon="8.435621026596179"><ele>96.0</ele><time>2026-04-27T12:53:13.099Z</time></trkpt><trkpt lat="39.30565709217557" lon="8.435567099355923"><ele>96.0</ele><time>2026-04-27T12:53:14.099Z</time></trkpt><trkpt lat="39.305751050229816" lon="8.435514840523004"><ele>92.8</ele><time>2026-04-27T12:53:15.099Z</time></trkpt><trkpt lat="39.305850925014965" lon="8.435462892176284"><ele>89.6</ele><time>2026-04-27T12:53:16.099Z</time></trkpt><trkpt lat="39.305953358230454" lon="8.435432969273089"><ele>86.4</ele><time>2026-04-27T12:53:17.099Z</time></trkpt><trkpt lat="39.306060805512686" lon="8.435423605383434"><ele>83.2</ele><time>2026-04-27T12:53:18.099Z</time></trkpt><trkpt lat="39.306173157259316" lon="8.435441832850296"><ele>80.0</ele><time>2026-04-27T12:53:19.099Z</time></trkpt><trkpt lat="39.306278484628265" lon="8.435496134927693"><ele>84.75</ele><time>2026-04-27T12:53:20.099Z</time></trkpt><trkpt lat="39.306375644192826" lon="8.43557962585687"><ele>89.5</ele><time>2026-04-27T12:53:21.099Z</time></trkpt><trkpt lat="39.30646791702598" lon="8.435677045267381"><ele>94.25</ele><time>2026-04-27T12:53:22.099Z</time></trkpt><trkpt lat="39.30656556408914" lon="8.435771393018243"><ele>99.0</ele><time>2026-04-27T12:53:23.099Z</time></trkpt><trkpt lat="39.306662899473835" lon="8.43585320932144"><ele>99.0</ele><time>2026-04-27T12:53:24.1Z</time></trkpt><trkpt lat="39.306750962575535" lon="8.435920455798398"><ele>99.0</ele><time>2026-04-27T12:53:25.1Z</time></trkpt><trkpt lat="39.306820737573176" lon="8.43597956293225"><ele>99.0</ele><time>2026-04-27T12:53:26.1Z</time></trkpt><trkpt lat="39.30685594763295" lon="8.436067744094967"><ele>99.0</ele><time>2026-04-27T12:53:27.1Z</time></trkpt><trkpt lat="39.30684866166679" lon="8.436159921579762"><ele>99.0</ele><time>2026-04-27T12:53:28.1Z</time></trkpt><trkpt lat="39.30681311069762" lon="8.436274537931766"><ele>99.0</ele><time>2026-04-27T12:53:29.1Z</time></trkpt><trkpt lat="39.30677549972825" lon="8.436392875683442"><ele>103.25</ele><time>2026-04-27T12:53:30.1Z</time></trkpt><trkpt lat="39.306758566569336" lon="8.436522661234255"><ele>107.5</ele><time>2026-04-27T12:53:31.1Z</time></trkpt><trkpt lat="39.3067851184106" lon="8.43665817864014"><ele>111.75</ele><time>2026-04-27T12:53:32.1Z</time></trkpt><trkpt lat="39.30684578106114" lon="8.436783480081548"><ele>116.0</ele><time>2026-04-27T12:53:33.1Z</time></trkpt><trkpt lat="39.30691489197903" lon="8.436922434119214"><ele>116.0</ele><time>2026-04-27T12:53:34.1Z</time></trkpt><trkpt lat="39.306961038925536" lon="8.437069993004165"><ele>116.0</ele><time>2026-04-27T12:53:35.1Z</time></trkpt><trkpt lat="39.30698453345265" lon="8.43720980733667"><ele>116.0</ele><time>2026-04-27T12:53:36.1Z</time></trkpt><trkpt lat="39.30698298894311" lon="8.437316246655238"><ele>116.0</ele><time>2026-04-27T12:53:37.1Z</time></trkpt><trkpt lat="39.30693929690844" lon="8.437396957561312"><ele>116.0</ele><time>2026-04-27T12:53:38.1Z</time></trkpt><trkpt lat="39.30682846976779" lon="8.437453875360761"><ele>114.0</ele><time>2026-04-27T12:53:39.1Z</time></trkpt><trkpt lat="39.30670628035584" lon="8.437489480087846"><ele>112.0</ele><time>2026-04-27T12:53:40.1Z</time></trkpt><trkpt lat="39.306569826570666" lon="8.437509805038808"><ele>110.0</ele><time>2026-04-27T12:53:41.1Z</time></trkpt><trkpt lat="39.30644853703437" lon="8.43753500401482"><ele>108.0</ele><time>2026-04-27T12:53:42.1Z</time></trkpt><trkpt lat="39.306331628060136" lon="8.437599152707724"><ele>114.0</ele><time>2026-04-27T12:53:43.1Z</time></trkpt><trkpt lat="39.30621821276261" lon="8.437709634293057"><ele>120.0</ele><time>2026-04-27T12:53:44.1Z</time></trkpt><trkpt lat="39.30611590708825" lon="8.437823855598518"><ele>126.0</ele><time>2026-04-27T12:53:45.1Z</time></trkpt><trkpt lat="39.30604820212039" lon="8.437982177165033"><ele>132.0</ele><time>2026-04-27T12:53:46.1Z</time></trkpt><trkpt lat="39.30599420910183" lon="8.438153604802476"><ele>132.0</ele><time>2026-04-27T12:53:47.1Z</time></trkpt><trkpt lat="39.305961442568304" lon="8.438340724221645"><ele>132.0</ele><time>2026-04-27T12:53:48.1Z</time></trkpt><trkpt lat="39.30594694348474" lon="8.43854422815106"><ele>132.0</ele><time>2026-04-27T12:53:49.1Z</time></trkpt><trkpt lat="39.305967259928465" lon="8.438729358955053"><ele>132.5</ele><time>2026-04-27T12:53:50.1Z</time></trkpt><trkpt lat="39.30602939915686" lon="8.438881968825712"><ele>133.0</ele><time>2026-04-27T12:53:51.101Z</time></trkpt><trkpt lat="39.306114011445146" lon="8.439019961277367"><ele>133.5</ele><time>2026-04-27T12:53:52.101Z</time></trkpt><trkpt lat="39.30619670249251" lon="8.439167340427375"><ele>134.0</ele><time>2026-04-27T12:53:53.101Z</time></trkpt><trkpt lat="39.306232183855855" lon="8.439336198615578"><ele>134.0</ele><time>2026-04-27T12:53:54.101Z</time></trkpt><trkpt lat="39.306247087575294" lon="8.439529898280668"><ele>134.0</ele><time>2026-04-27T12:53:55.101Z</time></trkpt><trkpt lat="39.30622283454745" lon="8.43972042490934"><ele>134.0</ele><time>2026-04-27T12:53:56.101Z</time></trkpt><trkpt lat="39.30618737784888" lon="8.439908735990903"><ele>136.25</ele><time>2026-04-27T12:53:57.101Z</time></trkpt><trkpt lat="39.306172979940186" lon="8.440083126593334"><ele>138.5</ele><time>2026-04-27T12:53:58.101Z</time></trkpt><trkpt lat="39.30621689057569" lon="8.440264998650507"><ele>140.75</ele><time>2026-04-27T12:53:59.101Z</time></trkpt><trkpt lat="39.30628672831721" lon="8.440443365852492"><ele>143.0</ele><time>2026-04-27T12:54:00.101Z</time></trkpt><trkpt lat="39.30635778182341" lon="8.440594591509702"><ele>140.20000000000002</ele><time>2026-04-27T12:54:01.101Z</time></trkpt><trkpt lat="39.30643567468455" lon="8.440699249254237"><ele>137.4</ele><time>2026-04-27T12:54:02.101Z</time></trkpt><trkpt lat="39.306524622271745" lon="8.440725188559467"><ele>134.60000000000002</ele><time>2026-04-27T12:54:03.101Z</time></trkpt><trkpt lat="39.30661713345649" lon="8.440684593064852"><ele>131.8</ele><time>2026-04-27T12:54:04.101Z</time></trkpt><trkpt lat="39.30668826188097" lon="8.440588771777971"><ele>129.0</ele><time>2026-04-27T12:54:05.101Z</time></trkpt><trkpt lat="39.30671625518623" lon="8.440449744517727"><ele>127.75</ele><time>2026-04-27T12:54:06.101Z</time></trkpt><trkpt lat="39.30671674378484" lon="8.44028692226094"><ele>126.5</ele><time>2026-04-27T12:54:07.101Z</time></trkpt><trkpt lat="39.30671871577887" lon="8.440109535720431"><ele>125.25</ele><time>2026-04-27T12:54:08.101Z</time></trkpt><trkpt lat="39.30672618269645" lon="8.439921563865166"><ele>124.0</ele><time>2026-04-27T12:54:09.101Z</time></trkpt><trkpt lat="39.30674901336086" lon="8.439739795677424"><ele>122.4</ele><time>2026-04-27T12:54:10.101Z</time></trkpt><trkpt lat="39.30676415975076" lon="8.43957030399916"><ele>120.80000000000001</ele><time>2026-04-27T12:54:11.101Z</time></trkpt><trkpt lat="39.30679240974206" lon="8.439435052835812"><ele>119.19999999999999</ele><time>2026-04-27T12:54:12.101Z</time></trkpt><trkpt lat="39.30686084066685" lon="8.439345138302512"><ele>117.6</ele><time>2026-04-27T12:54:13.101Z</time></trkpt><trkpt lat="39.30695185886226" lon="8.4393084152142"><ele>116.0</ele><time>2026-04-27T12:54:14.101Z</time></trkpt><trkpt lat="39.307042340210586" lon="8.439339773465992"><ele>116.0</ele><time>2026-04-27T12:54:15.101Z</time></trkpt><trkpt lat="39.307126943942045" lon="8.439404402498125"><ele>116.0</ele><time>2026-04-27T12:54:16.101Z</time></trkpt><trkpt lat="39.307214231368505" lon="8.43946349989469"><ele>116.0</ele><time>2026-04-27T12:54:17.101Z</time></trkpt><trkpt lat="39.30730518807635" lon="8.439525005194962"><ele>116.0</ele><time>2026-04-27T12:54:18.101Z</time></trkpt><trkpt lat="39.307400979059416" lon="8.439579063363833"><ele>116.0</ele><time>2026-04-27T12:54:19.101Z</time></trkpt><trkpt lat="39.30750821552915" lon="8.439621401866598"><ele>122.33333333333333</ele><time>2026-04-27T12:54:20.101Z</time></trkpt><trkpt lat="39.30763844185933" lon="8.439642454104803"><ele>128.66666666666666</ele><time>2026-04-27T12:54:21.101Z</time></trkpt><trkpt lat="39.307790897577966" lon="8.439675896454965"><ele>135.0</ele><time>2026-04-27T12:54:22.101Z</time></trkpt><trkpt lat="39.30795614975653" lon="8.439714790045084"><ele>134.66666666666666</ele><time>2026-04-27T12:54:23.101Z</time></trkpt><trkpt lat="39.308128144217605" lon="8.439751158415813"><ele>134.33333333333331</ele><time>2026-04-27T12:54:24.101Z</time></trkpt><trkpt lat="39.308282963839375" lon="8.4397771620611"><ele>134.0</ele><time>2026-04-27T12:54:25.101Z</time></trkpt><trkpt lat="39.3084189423993" lon="8.439771142392283"><ele>134.0</ele><time>2026-04-27T12:54:26.101Z</time></trkpt><trkpt lat="39.30853203047258" lon="8.439702575407528"><ele>134.0</ele><time>2026-04-27T12:54:27.101Z</time></trkpt><trkpt lat="39.30861967989545" lon="8.439572997745636"><ele>134.0</ele><time>2026-04-27T12:54:28.101Z</time></trkpt><trkpt lat="39.308653404600534" lon="8.43938287454583"><ele>134.0</ele><time>2026-04-27T12:54:29.101Z</time></trkpt><trkpt lat="39.308614375796466" lon="8.439164405555237"><ele>131.66666666666666</ele><time>2026-04-27T12:54:30.101Z</time></trkpt><trkpt lat="39.308534439904506" lon="8.438924574830963"><ele>129.33333333333334</ele><time>2026-04-27T12:54:31.101Z</time></trkpt><trkpt lat="39.308455890142284" lon="8.438697452813988"><ele>127.0</ele><time>2026-04-27T12:54:32.101Z</time></trkpt><trkpt lat="39.30838518698129" lon="8.43850653804911"><ele>127.0</ele><time>2026-04-27T12:54:33.101Z</time></trkpt><trkpt lat="39.308335628255286" lon="8.438322915327351"><ele>127.0</ele><time>2026-04-27T12:54:34.101Z</time></trkpt><trkpt lat="39.30833273319431" lon="8.438154867438957"><ele>127.0</ele><time>2026-04-27T12:54:35.101Z</time></trkpt><trkpt lat="39.308375669930754" lon="8.437992842944292"><ele>127.0</ele><time>2026-04-27T12:54:36.101Z</time></trkpt><trkpt lat="39.308441273498104" lon="8.43781124757577"><ele>124.66666666666667</ele><time>2026-04-27T12:54:37.101Z</time></trkpt><trkpt lat="39.30852059713908" lon="8.437622129147519"><ele>122.33333333333334</ele><time>2026-04-27T12:54:38.101Z</time></trkpt><trkpt lat="39.308603985952786" lon="8.437434736557682"><ele>120.0</ele><time>2026-04-27T12:54:39.101Z</time></trkpt><trkpt lat="39.30868538643633" lon="8.437271419742734"><ele>120.0</ele><time>2026-04-27T12:54:40.101Z</time></trkpt><trkpt lat="39.308781867226074" lon="8.43716052312228"><ele>120.0</ele><time>2026-04-27T12:54:41.101Z</time></trkpt><trkpt lat="39.308903660543784" lon="8.437117754733917"><ele>120.0</ele><time>2026-04-27T12:54:42.101Z</time></trkpt><trkpt lat="39.30904939395929" lon="8.43712170200929"><ele>120.0</ele><time>2026-04-27T12:54:43.101Z</time></trkpt><trkpt lat="39.309199625624956" lon="8.437149977297123"><ele>127.33333333333334</ele><time>2026-04-27T12:54:44.101Z</time></trkpt><trkpt lat="39.3093525350359" lon="8.437176020611524"><ele>134.66666666666669</ele><time>2026-04-27T12:54:45.101Z</time></trkpt><trkpt lat="39.309506239726105" lon="8.437202606412397"><ele>142.0</ele><time>2026-04-27T12:54:46.101Z</time></trkpt><trkpt lat="39.30965575900157" lon="8.437223948944942"><ele>143.5</ele><time>2026-04-27T12:54:47.101Z</time></trkpt><trkpt lat="39.30980367463151" lon="8.437253287717896"><ele>145.0</ele><time>2026-04-27T12:54:48.101Z</time></trkpt><trkpt lat="39.30993783128784" lon="8.437260733592176"><ele>146.5</ele><time>2026-04-27T12:54:49.101Z</time></trkpt><trkpt lat="39.31007055323061" lon="8.437228023918347"><ele>148.0</ele><time>2026-04-27T12:54:50.101Z</time></trkpt><trkpt lat="39.3102106875944" lon="8.437164412966615"><ele>148.0</ele><time>2026-04-27T12:54:51.101Z</time></trkpt><trkpt lat="39.310360138308106" lon="8.437148896942196"><ele>148.0</ele><time>2026-04-27T12:54:52.102Z</time></trkpt><trkpt lat="39.31050743583906" lon="8.437144013505842"><ele>148.0</ele><time>2026-04-27T12:54:53.102Z</time></trkpt><trkpt lat="39.31065387260278" lon="8.437117202222982"><ele>148.0</ele><time>2026-04-27T12:54:54.102Z</time></trkpt><trkpt lat="39.310801004132735" lon="8.437066814260842"><ele>148.5</ele><time>2026-04-27T12:54:55.102Z</time></trkpt><trkpt lat="39.31094090669804" lon="8.437019036134567"><ele>149.0</ele><time>2026-04-27T12:54:56.102Z</time></trkpt><trkpt lat="39.31106121097874" lon="8.437030603059357"><ele>149.5</ele><time>2026-04-27T12:54:57.102Z</time></trkpt><trkpt lat="39.311158244291015" lon="8.437085948819428"><ele>150.0</ele><time>2026-04-27T12:54:58.102Z</time></trkpt><trkpt lat="39.311236931866134" lon="8.437179909677594"><ele>150.0</ele><time>2026-04-27T12:54:59.102Z</time></trkpt><trkpt lat="39.31132613520112" lon="8.437280552050833"><ele>150.0</ele><time>2026-04-27T12:55:00.102Z</time></trkpt><trkpt lat="39.31143557757171" lon="8.437366761304798"><ele>150.0</ele><time>2026-04-27T12:55:01.102Z</time></trkpt><trkpt lat="39.311565081309226" lon="8.43742527761178"><ele>150.0</ele><time>2026-04-27T12:55:02.102Z</time></trkpt><trkpt lat="39.31169639051794" lon="8.437439607789274"><ele>149.25</ele><time>2026-04-27T12:55:03.102Z</time></trkpt><trkpt lat="39.311825983078016" lon="8.437428430052641"><ele>148.5</ele><time>2026-04-27T12:55:04.102Z</time></trkpt><trkpt lat="39.311933652131344" lon="8.437372145871748"><ele>147.75</ele><time>2026-04-27T12:55:05.102Z</time></trkpt><trkpt lat="39.31201326000974" lon="8.437260812361242"><ele>147.0</ele><time>2026-04-27T12:55:06.102Z</time></trkpt><trkpt lat="39.312069834528806" lon="8.437113642031738"><ele>146.25</ele><time>2026-04-27T12:55:07.102Z</time></trkpt><trkpt lat="39.3121294548607" lon="8.436970288117294"><ele>145.5</ele><time>2026-04-27T12:55:08.102Z</time></trkpt><trkpt lat="39.31220758527221" lon="8.436852111119157"><ele>144.75</ele><time>2026-04-27T12:55:09.102Z</time></trkpt><trkpt lat="39.31230537861278" lon="8.4367744597923"><ele>144.0</ele><time>2026-04-27T12:55:10.102Z</time></trkpt><trkpt lat="39.31241522979005" lon="8.436727260007261"><ele>144.0</ele><time>2026-04-27T12:55:11.102Z</time></trkpt><trkpt lat="39.31253016377962" lon="8.436724956999578"><ele>144.0</ele><time>2026-04-27T12:55:12.102Z</time></trkpt><trkpt lat="39.31264086557514" lon="8.436755994673733"><ele>144.0</ele><time>2026-04-27T12:55:13.102Z</time></trkpt><trkpt lat="39.31274937976879" lon="8.43680435771374"><ele>144.0</ele><time>2026-04-27T12:55:14.102Z</time></trkpt><trkpt lat="39.31286135600698" lon="8.436813110917878"><ele>144.0</ele><time>2026-04-27T12:55:15.102Z</time></trkpt><trkpt lat="39.31296675942219" lon="8.436763476648116"><ele>144.0</ele><time>2026-04-27T12:55:16.102Z</time></trkpt><trkpt lat="39.31306720582574" lon="8.43669440145214"><ele>144.0</ele><time>2026-04-27T12:55:17.102Z</time></trkpt><trkpt lat="39.31316738917295" lon="8.436626523455095"><ele>144.0</ele><time>2026-04-27T12:55:18.102Z</time></trkpt><trkpt lat="39.31326608296341" lon="8.436547219608368"><ele>145.5</ele><time>2026-04-27T12:55:19.102Z</time></trkpt><trkpt lat="39.31336274509081" lon="8.43646833978345"><ele>147.0</ele><time>2026-04-27T12:55:20.102Z</time></trkpt><trkpt lat="39.31347341477441" lon="8.43643521873088"><ele>148.5</ele><time>2026-04-27T12:55:21.102Z</time></trkpt><trkpt lat="39.31358646103045" lon="8.436441529399747"><ele>150.0</ele><time>2026-04-27T12:55:22.102Z</time></trkpt><trkpt lat="39.31369612410025" lon="8.436452797844023"><ele>150.0</ele><time>2026-04-27T12:55:23.102Z</time></trkpt><trkpt lat="39.313803452730546" lon="8.436477388773092"><ele>150.0</ele><time>2026-04-27T12:55:24.102Z</time></trkpt><trkpt lat="39.31390114491876" lon="8.436543061536184"><ele>150.0</ele><time>2026-04-27T12:55:25.102Z</time></trkpt><trkpt lat="39.313989475448004" lon="8.43662960533907"><ele>150.0</ele><time>2026-04-27T12:55:26.102Z</time></trkpt><trkpt lat="39.3140828752452" lon="8.43669331039803"><ele>150.0</ele><time>2026-04-27T12:55:27.102Z</time></trkpt><trkpt lat="39.314189054548194" lon="8.436722240868564"><ele>151.0</ele><time>2026-04-27T12:55:28.102Z</time></trkpt><trkpt lat="39.314299481246124" lon="8.436744915522162"><ele>152.0</ele><time>2026-04-27T12:55:29.102Z</time></trkpt><trkpt lat="39.314403283695825" lon="8.436771394199456"><ele>153.0</ele><time>2026-04-27T12:55:30.102Z</time></trkpt><trkpt lat="39.314500999851944" lon="8.436768129592801"><ele>154.0</ele><time>2026-04-27T12:55:31.102Z</time></trkpt><trkpt lat="39.31459180177368" lon="8.436704692269474"><ele>155.0</ele><time>2026-04-27T12:55:32.102Z</time></trkpt><trkpt lat="39.314662483126945" lon="8.436589423428078"><ele>155.0</ele><time>2026-04-27T12:55:33.102Z</time></trkpt><trkpt lat="39.31472174981043" lon="8.43646474037315"><ele>155.0</ele><time>2026-04-27T12:55:34.102Z</time></trkpt><trkpt lat="39.31478815629797" lon="8.436346863198143"><ele>155.0</ele><time>2026-04-27T12:55:35.102Z</time></trkpt><trkpt lat="39.31487390299356" lon="8.436271431363108"><ele>155.0</ele><time>2026-04-27T12:55:36.102Z</time></trkpt><trkpt lat="39.31497686996276" lon="8.436220676565553"><ele>155.0</ele><time>2026-04-27T12:55:37.102Z</time></trkpt><trkpt lat="39.315092638517925" lon="8.436205389284403"><ele>154.25</ele><time>2026-04-27T12:55:38.102Z</time></trkpt><trkpt lat="39.31521670038976" lon="8.436198431139665"><ele>153.5</ele><time>2026-04-27T12:55:39.102Z</time></trkpt><trkpt lat="39.315343350281864" lon="8.436177889181788"><ele>152.75</ele><time>2026-04-27T12:55:40.102Z</time></trkpt><trkpt lat="39.31547075608825" lon="8.436144424939641"><ele>152.0</ele><time>2026-04-27T12:55:41.102Z</time></trkpt><trkpt lat="39.315602540573835" lon="8.436110511924644"><ele>153.25</ele><time>2026-04-27T12:55:42.102Z</time></trkpt><trkpt lat="39.31572894518805" lon="8.43609424305237"><ele>154.5</ele><time>2026-04-27T12:55:43.102Z</time></trkpt><trkpt lat="39.315850267378465" lon="8.436124422647143"><ele>155.75</ele><time>2026-04-27T12:55:44.102Z</time></trkpt><trkpt lat="39.315945633132735" lon="8.436201752086049"><ele>157.0</ele><time>2026-04-27T12:55:45.102Z</time></trkpt><trkpt lat="39.316004923227425" lon="8.436366125565351"><ele>157.0</ele><time>2026-04-27T12:55:46.102Z</time></trkpt><trkpt lat="39.316018309305804" lon="8.436535961114753"><ele>157.0</ele><time>2026-04-27T12:55:47.102Z</time></trkpt><trkpt lat="39.31597421140764" lon="8.436707236447829"><ele>157.0</ele><time>2026-04-27T12:55:48.102Z</time></trkpt><trkpt lat="39.3159167341639" lon="8.436859247502225"><ele>157.0</ele><time>2026-04-27T12:55:49.102Z</time></trkpt><trkpt lat="39.31586812135905" lon="8.436988502436543"><ele>157.0</ele><time>2026-04-27T12:55:50.102Z</time></trkpt><trkpt lat="39.31585921121166" lon="8.437110307455773"><ele>157.0</ele><time>2026-04-27T12:55:51.102Z</time></trkpt><trkpt lat="39.31590340240459" lon="8.437215191133898"><ele>157.0</ele><time>2026-04-27T12:55:52.102Z</time></trkpt><trkpt lat="39.31597178294011" lon="8.437311034340023"><ele>157.0</ele><time>2026-04-27T12:55:53.102Z</time></trkpt><trkpt lat="39.31604887572327" lon="8.437399403128982"><ele>157.0</ele><time>2026-04-27T12:55:54.102Z</time></trkpt><trkpt lat="39.31612848084793" lon="8.437485570115633"><ele>157.5</ele><time>2026-04-27T12:55:55.102Z</time></trkpt><trkpt lat="39.316223060450355" lon="8.437559177397569"><ele>158.0</ele><time>2026-04-27T12:55:56.103Z</time></trkpt><trkpt lat="39.31631999944934" lon="8.437619600309686"><ele>158.5</ele><time>2026-04-27T12:55:57.103Z</time></trkpt><trkpt lat="39.316434572659766" lon="8.437673999540179"><ele>159.0</ele><time>2026-04-27T12:55:58.103Z</time></trkpt><trkpt lat="39.31654477651603" lon="8.437733280672722"><ele>159.0</ele><time>2026-04-27T12:55:59.104Z</time></trkpt><trkpt lat="39.31665171498155" lon="8.43778795276441"><ele>159.0</ele><time>2026-04-27T12:56:00.104Z</time></trkpt><trkpt lat="39.31675167964475" lon="8.437826742080393"><ele>159.0</ele><time>2026-04-27T12:56:01.104Z</time></trkpt><trkpt lat="39.316846514574884" lon="8.437806099533883"><ele>159.0</ele><time>2026-04-27T12:56:02.104Z</time></trkpt><trkpt lat="39.3169333376315" lon="8.43773347857241"><ele>159.0</ele><time>2026-04-27T12:56:03.103Z</time></trkpt><trkpt lat="39.31698079898882" lon="8.437618145615394"><ele>159.0</ele><time>2026-04-27T12:56:04.103Z</time></trkpt><trkpt lat="39.31699915758062" lon="8.437462494033841"><ele>159.0</ele><time>2026-04-27T12:56:05.104Z</time></trkpt><trkpt lat="39.317012862727225" lon="8.437311371302815"><ele>159.0</ele><time>2026-04-27T12:56:06.103Z</time></trkpt><trkpt lat="39.317039731720996" lon="8.437162247580439"><ele>159.0</ele><time>2026-04-27T12:56:07.103Z</time></trkpt><trkpt lat="39.31707526921013" lon="8.437001996780108"><ele>160.25</ele><time>2026-04-27T12:56:08.103Z</time></trkpt><trkpt lat="39.317118114482845" lon="8.436837918986607"><ele>161.5</ele><time>2026-04-27T12:56:09.104Z</time></trkpt><trkpt lat="39.31716494226002" lon="8.43668346679207"><ele>162.75</ele><time>2026-04-27T12:56:10.104Z</time></trkpt><trkpt lat="39.31722336812663" lon="8.436533608569368"><ele>164.0</ele><time>2026-04-27T12:56:11.104Z</time></trkpt><trkpt lat="39.31729154571108" lon="8.436407081296604"><ele>164.0</ele><time>2026-04-27T12:56:12.104Z</time></trkpt><trkpt lat="39.317373185292226" lon="8.43631062294"><ele>164.0</ele><time>2026-04-27T12:56:13.104Z</time></trkpt><trkpt lat="39.317465357498904" lon="8.436249678565682"><ele>164.0</ele><time>2026-04-27T12:56:14.104Z</time></trkpt><trkpt lat="39.31757182115509" lon="8.436229040800741"><ele>164.0</ele><time>2026-04-27T12:56:15.104Z</time></trkpt><trkpt lat="39.31767920315292" lon="8.436247794688319"><ele>164.0</ele><time>2026-04-27T12:56:16.104Z</time></trkpt><trkpt lat="39.31778763513769" lon="8.436282745755857"><ele>164.0</ele><time>2026-04-27T12:56:17.104Z</time></trkpt><trkpt lat="39.317903458803656" lon="8.436321840538652"><ele>164.0</ele><time>2026-04-27T12:56:18.104Z</time></trkpt><trkpt lat="39.31801540925401" lon="8.436326868408369"><ele>164.0</ele><time>2026-04-27T12:56:19.104Z</time></trkpt><trkpt lat="39.31813020454082" lon="8.436277496419486"><ele>164.0</ele><time>2026-04-27T12:56:20.104Z</time></trkpt><trkpt lat="39.31824121187955" lon="8.436207707097932"><ele>161.6</ele><time>2026-04-27T12:56:21.104Z</time></trkpt><trkpt lat="39.31834365459125" lon="8.436141046030492"><ele>159.2</ele><time>2026-04-27T12:56:22.104Z</time></trkpt><trkpt lat="39.31844484816689" lon="8.4361122434665"><ele>156.79999999999998</ele><time>2026-04-27T12:56:23.104Z</time></trkpt><trkpt lat="39.31854539170436" lon="8.436124301675465"><ele>154.39999999999998</ele><time>2026-04-27T12:56:24.104Z</time></trkpt><trkpt lat="39.31865641288327" lon="8.436140849426563"><ele>152.0</ele><time>2026-04-27T12:56:25.104Z</time></trkpt><trkpt lat="39.31878203689327" lon="8.436150191746814"><ele>152.0</ele><time>2026-04-27T12:56:26.104Z</time></trkpt><trkpt lat="39.31890374568679" lon="8.43617361283514"><ele>152.0</ele><time>2026-04-27T12:56:27.104Z</time></trkpt><trkpt lat="39.31902684601552" lon="8.436191428933032"><ele>152.0</ele><time>2026-04-27T12:56:28.104Z</time></trkpt><trkpt lat="39.31915120691541" lon="8.436208635286807"><ele>152.0</ele><time>2026-04-27T12:56:29.104Z</time></trkpt><trkpt lat="39.31927511068125" lon="8.436225493622443"><ele>152.0</ele><time>2026-04-27T12:56:30.104Z</time></trkpt><trkpt lat="39.319393243253494" lon="8.436239931104492"><ele>152.0</ele><time>2026-04-27T12:56:31.104Z</time></trkpt><trkpt lat="39.31950429546306" lon="8.43625571730926"><ele>152.0</ele><time>2026-04-27T12:56:32.104Z</time></trkpt><trkpt lat="39.319605092771994" lon="8.436254527600745"><ele>152.0</ele><time>2026-04-27T12:56:33.104Z</time></trkpt><trkpt lat="39.31970222261595" lon="8.436207111777437"><ele>152.0</ele><time>2026-04-27T12:56:34.104Z</time></trkpt><trkpt lat="39.31978248493153" lon="8.436116862425237"><ele>154.2</ele><time>2026-04-27T12:56:35.104Z</time></trkpt><trkpt lat="39.31984819761901" lon="8.435998454816874"><ele>156.39999999999998</ele><time>2026-04-27T12:56:36.104Z</time></trkpt><trkpt lat="39.31989425342185" lon="8.435854611737795"><ele>158.60000000000002</ele><time>2026-04-27T12:56:37.104Z</time></trkpt><trkpt lat="39.31993874109624" lon="8.435715736323388"><ele>160.8</ele><time>2026-04-27T12:56:38.104Z</time></trkpt><trkpt lat="39.319999492074324" lon="8.435618240634456"><ele>163.0</ele><time>2026-04-27T12:56:39.104Z</time></trkpt><trkpt lat="39.32008084769343" lon="8.435584616523544"><ele>163.0</ele><time>2026-04-27T12:56:40.104Z</time></trkpt><trkpt lat="39.320171919935675" lon="8.435603656097605"><ele>163.0</ele><time>2026-04-27T12:56:41.104Z</time></trkpt><trkpt lat="39.32027090513391" lon="8.435654864334586"><ele>163.0</ele><time>2026-04-27T12:56:42.104Z</time></trkpt><trkpt lat="39.320379190780784" lon="8.43570108977944"><ele>163.0</ele><time>2026-04-27T12:56:43.104Z</time></trkpt><trkpt lat="39.32050039022709" lon="8.435757220320744"><ele>163.0</ele><time>2026-04-27T12:56:44.104Z</time></trkpt><trkpt lat="39.320606722664024" lon="8.43583992826193"><ele>163.8</ele><time>2026-04-27T12:56:45.104Z</time></trkpt><trkpt lat="39.320691528511375" lon="8.435951247549664"><ele>164.60000000000002</ele><time>2026-04-27T12:56:46.104Z</time></trkpt><trkpt lat="39.320764571066654" lon="8.436056736674127"><ele>165.39999999999998</ele><time>2026-04-27T12:56:47.104Z</time></trkpt><trkpt lat="39.320868497556475" lon="8.436096396643725"><ele>166.2</ele><time>2026-04-27T12:56:48.104Z</time></trkpt><trkpt lat="39.32097529144346" lon="8.436067985623662"><ele>167.0</ele><time>2026-04-27T12:56:49.104Z</time></trkpt><trkpt lat="39.32109132518406" lon="8.436006732319457"><ele>167.0</ele><time>2026-04-27T12:56:50.104Z</time></trkpt><trkpt lat="39.32122161486215" lon="8.435948674989854"><ele>167.0</ele><time>2026-04-27T12:56:51.104Z</time></trkpt><trkpt lat="39.32135311313193" lon="8.435912713895217"><ele>167.0</ele><time>2026-04-27T12:56:52.104Z</time></trkpt><trkpt lat="39.321486312319706" lon="8.43591332824305"><ele>167.0</ele><time>2026-04-27T12:56:53.104Z</time></trkpt><trkpt lat="39.321629591358615" lon="8.435926299876433"><ele>167.33333333333331</ele><time>2026-04-27T12:56:54.104Z</time></trkpt><trkpt lat="39.32177920922122" lon="8.43594586943546"><ele>167.66666666666666</ele><time>2026-04-27T12:56:55.104Z</time></trkpt><trkpt lat="39.321926201351694" lon="8.435949492315483"><ele>168.0</ele><time>2026-04-27T12:56:56.104Z</time></trkpt><trkpt lat="39.32208107957363" lon="8.435961936372964"><ele>168.66666666666666</ele><time>2026-04-27T12:56:57.104Z</time></trkpt><trkpt lat="39.32223795209324" lon="8.435970122529826"><ele>169.33333333333331</ele><time>2026-04-27T12:56:58.104Z</time></trkpt><trkpt lat="39.32240268315099" lon="8.435933774430023"><ele>170.0</ele><time>2026-04-27T12:56:59.104Z</time></trkpt><trkpt lat="39.32255406894901" lon="8.435863757045064"><ele>170.0</ele><time>2026-04-27T12:57:00.104Z</time></trkpt><trkpt lat="39.32267533983748" lon="8.435823482572571"><ele>170.0</ele><time>2026-04-27T12:57:01.104Z</time></trkpt><trkpt lat="39.322798668051426" lon="8.435800353243742"><ele>170.0</ele><time>2026-04-27T12:57:02.104Z</time></trkpt><trkpt lat="39.32292225580969" lon="8.4358260723952"><ele>170.0</ele><time>2026-04-27T12:57:03.104Z</time></trkpt><trkpt lat="39.32304723704484" lon="8.435918562527704"><ele>169.0</ele><time>2026-04-27T12:57:04.104Z</time></trkpt><trkpt lat="39.32316443139779" lon="8.436050690530557"><ele>168.0</ele><time>2026-04-27T12:57:05.104Z</time></trkpt><trkpt lat="39.32327047139605" lon="8.436198571210879"><ele>167.0</ele><time>2026-04-27T12:57:06.104Z</time></trkpt><trkpt lat="39.32335580594578" lon="8.436376766416165"><ele>171.5</ele><time>2026-04-27T12:57:07.104Z</time></trkpt><trkpt lat="39.323428520448594" lon="8.436532911148914"><ele>176.0</ele><time>2026-04-27T12:57:08.104Z</time></trkpt><trkpt lat="39.32352555706042" lon="8.43662019675971"><ele>180.5</ele><time>2026-04-27T12:57:09.104Z</time></trkpt><trkpt lat="39.32363556295546" lon="8.436635680129163"><ele>185.0</ele><time>2026-04-27T12:57:10.104Z</time></trkpt><trkpt lat="39.32375672190098" lon="8.436591621702869"><ele>185.0</ele><time>2026-04-27T12:57:11.104Z</time></trkpt><trkpt lat="39.32385815457594" lon="8.436502125904918"><ele>185.0</ele><time>2026-04-27T12:57:12.104Z</time></trkpt><trkpt lat="39.323952097130764" lon="8.43636104610695"><ele>185.0</ele><time>2026-04-27T12:57:13.104Z</time></trkpt><trkpt lat="39.32397840965534" lon="8.436179802120012"><ele>185.0</ele><time>2026-04-27T12:57:14.104Z</time></trkpt><trkpt lat="39.323951177354665" lon="8.435982436093688"><ele>185.33333333333331</ele><time>2026-04-27T12:57:15.105Z</time></trkpt><trkpt lat="39.323932217378164" lon="8.435772775750271"><ele>185.66666666666666</ele><time>2026-04-27T12:57:16.105Z</time></trkpt><trkpt lat="39.323956158478055" lon="8.435559750969032"><ele>186.0</ele><time>2026-04-27T12:57:17.105Z</time></trkpt><trkpt lat="39.324005801583645" lon="8.43534885365882"><ele>181.33333333333334</ele><time>2026-04-27T12:57:18.105Z</time></trkpt><trkpt lat="39.32405633004705" lon="8.435155514525922"><ele>176.66666666666669</ele><time>2026-04-27T12:57:19.105Z</time></trkpt><trkpt lat="39.324112824633076" lon="8.434981245065678"><ele>172.0</ele><time>2026-04-27T12:57:20.105Z</time></trkpt><trkpt lat="39.324202438771685" lon="8.434828434616689"><ele>172.0</ele><time>2026-04-27T12:57:21.105Z</time></trkpt><trkpt lat="39.32433550382979" lon="8.434708243221124"><ele>172.0</ele><time>2026-04-27T12:57:22.105Z</time></trkpt><trkpt lat="39.32447768020203" lon="8.43459058859484"><ele>172.0</ele><time>2026-04-27T12:57:23.105Z</time></trkpt><trkpt lat="39.32460099841718" lon="8.434463781894264"><ele>173.66666666666669</ele><time>2026-04-27T12:57:24.105Z</time></trkpt><trkpt lat="39.324697732160715" lon="8.434278470928266"><ele>175.33333333333334</ele><time>2026-04-27T12:57:25.105Z</time></trkpt><trkpt lat="39.32474042643324" lon="8.434061401738978"><ele>177.0</ele><time>2026-04-27T12:57:26.105Z</time></trkpt><trkpt lat="39.324760722915975" lon="8.433860876056048"><ele>171.25</ele><time>2026-04-27T12:57:27.105Z</time></trkpt><trkpt lat="39.324801202188524" lon="8.433710867860478"><ele>165.5</ele><time>2026-04-27T12:57:28.105Z</time></trkpt><trkpt lat="39.324882594421865" lon="8.433634484449628"><ele>159.75</ele><time>2026-04-27T12:57:29.105Z</time></trkpt><trkpt lat="39.32500783860088" lon="8.43361542006808"><ele>154.0</ele><time>2026-04-27T12:57:30.105Z</time></trkpt><trkpt lat="39.32515297672092" lon="8.433668022826248"><ele>154.0</ele><time>2026-04-27T12:57:31.105Z</time></trkpt><trkpt lat="39.32529304252562" lon="8.43365377770267"><ele>154.0</ele><time>2026-04-27T12:57:32.105Z</time></trkpt><trkpt lat="39.32540437505979" lon="8.433548850742078"><ele>154.0</ele><time>2026-04-27T12:57:33.105Z</time></trkpt><trkpt lat="39.325499117931074" lon="8.433405100724032"><ele>154.0</ele><time>2026-04-27T12:57:34.105Z</time></trkpt><trkpt lat="39.32561720749147" lon="8.433295481292898"><ele>155.66666666666669</ele><time>2026-04-27T12:57:35.105Z</time></trkpt><trkpt lat="39.32574145325936" lon="8.433261219141796"><ele>157.33333333333334</ele><time>2026-04-27T12:57:36.105Z</time></trkpt><trkpt lat="39.3258953268039" lon="8.433304117117206"><ele>159.0</ele><time>2026-04-27T12:57:37.105Z</time></trkpt><trkpt lat="39.32605980259957" lon="8.43332940504959"><ele>159.0</ele><time>2026-04-27T12:57:38.105Z</time></trkpt><trkpt lat="39.326226749130456" lon="8.433321187851778"><ele>159.0</ele><time>2026-04-27T12:57:39.105Z</time></trkpt><trkpt lat="39.326395626137405" lon="8.433310866328206"><ele>159.0</ele><time>2026-04-27T12:57:40.105Z</time></trkpt><trkpt lat="39.32655251177856" lon="8.433329931209093"><ele>158.66666666666666</ele><time>2026-04-27T12:57:41.105Z</time></trkpt><trkpt lat="39.32671047933372" lon="8.433370090682073"><ele>158.33333333333331</ele><time>2026-04-27T12:57:42.105Z</time></trkpt><trkpt lat="39.326872771824675" lon="8.433349574242001"><ele>158.0</ele><time>2026-04-27T12:57:43.105Z</time></trkpt><trkpt lat="39.327017573399715" lon="8.433272444971694"><ele>158.0</ele><time>2026-04-27T12:57:44.105Z</time></trkpt><trkpt lat="39.32715884503259" lon="8.433224799259039"><ele>158.0</ele><time>2026-04-27T12:57:45.105Z</time></trkpt><trkpt lat="39.327316277795525" lon="8.433272373991745"><ele>158.0</ele><time>2026-04-27T12:57:46.105Z</time></trkpt><trkpt lat="39.32748888290413" lon="8.433322258384896"><ele>156.33333333333331</ele><time>2026-04-27T12:57:47.105Z</time></trkpt><trkpt lat="39.3276712266451" lon="8.43335951100792"><ele>154.66666666666666</ele><time>2026-04-27T12:57:48.105Z</time></trkpt><trkpt lat="39.32786116425959" lon="8.433375085592475"><ele>153.0</ele><time>2026-04-27T12:57:49.105Z</time></trkpt><trkpt lat="39.32804558810193" lon="8.433372195604793"><ele>153.33333333333334</ele><time>2026-04-27T12:57:50.105Z</time></trkpt><trkpt lat="39.328231017518824" lon="8.433355830712108"><ele>153.66666666666669</ele><time>2026-04-27T12:57:51.105Z</time></trkpt><trkpt lat="39.32841207074807" lon="8.43335688393049"><ele>154.0</ele><time>2026-04-27T12:57:52.105Z</time></trkpt><trkpt lat="39.32857570622145" lon="8.433356043847391"><ele>154.0</ele><time>2026-04-27T12:57:53.105Z</time></trkpt><trkpt lat="39.32873101743971" lon="8.433329757801506"><ele>154.0</ele><time>2026-04-27T12:57:54.105Z</time></trkpt><trkpt lat="39.32887581850326" lon="8.433242147714642"><ele>154.0</ele><time>2026-04-27T12:57:55.105Z</time></trkpt><trkpt lat="39.32898755804983" lon="8.433077658326612"><ele>149.0</ele><time>2026-04-27T12:57:56.105Z</time></trkpt><trkpt lat="39.32907044368748" lon="8.43283462573151"><ele>144.0</ele><time>2026-04-27T12:57:57.105Z</time></trkpt><trkpt lat="39.329185910980705" lon="8.432683475704156"><ele>139.0</ele><time>2026-04-27T12:57:58.105Z</time></trkpt><trkpt lat="39.329316818782075" lon="8.432594262568013"><ele>139.0</ele><time>2026-04-27T12:57:59.105Z</time></trkpt><trkpt lat="39.32946146608591" lon="8.432567873442844"><ele>139.0</ele><time>2026-04-27T12:58:00.105Z</time></trkpt><trkpt lat="39.32961155032036" lon="8.432625428423453"><ele>139.0</ele><time>2026-04-27T12:58:01.105Z</time></trkpt><trkpt lat="39.329740313257304" lon="8.432731482310995"><ele>138.8</ele><time>2026-04-27T12:58:02.106Z</time></trkpt><trkpt lat="39.329812117021646" lon="8.432841829935004"><ele>138.60000000000002</ele><time>2026-04-27T12:58:03.106Z</time></trkpt><trkpt lat="39.32982948565622" lon="8.432954867221177"><ele>138.4</ele><time>2026-04-27T12:58:04.106Z</time></trkpt><trkpt lat="39.329792864259815" lon="8.433088671006912"><ele>138.20000000000002</ele><time>2026-04-27T12:58:05.106Z</time></trkpt><trkpt lat="39.329754745371524" lon="8.43322470739973"><ele>138.0</ele><time>2026-04-27T12:58:06.106Z</time></trkpt><trkpt lat="39.329799663769" lon="8.43335798289239"><ele>138.0</ele><time>2026-04-27T12:58:07.106Z</time></trkpt><trkpt lat="39.329902699283494" lon="8.433457621727857"><ele>138.0</ele><time>2026-04-27T12:58:08.106Z</time></trkpt><trkpt lat="39.3300505040733" lon="8.4335161310229"><ele>138.0</ele><time>2026-04-27T12:58:09.106Z</time></trkpt><trkpt lat="39.33021079354487" lon="8.433583034540385"><ele>138.0</ele><time>2026-04-27T12:58:10.106Z</time></trkpt><trkpt lat="39.33035931049019" lon="8.433670888392166"><ele>138.0</ele><time>2026-04-27T12:58:11.107Z</time></trkpt><trkpt lat="39.3304856250246" lon="8.433760808464472"><ele>138.0</ele><time>2026-04-27T12:58:12.106Z</time></trkpt><trkpt lat="39.33058912879057" lon="8.433844887709139"><ele>138.0</ele><time>2026-04-27T12:58:13.106Z</time></trkpt><trkpt lat="39.33065785609066" lon="8.433971835178811"><ele>135.5</ele><time>2026-04-27T12:58:14.106Z</time></trkpt><trkpt lat="39.33069055632383" lon="8.434140742219608"><ele>133.0</ele><time>2026-04-27T12:58:15.106Z</time></trkpt><trkpt lat="39.330726478299525" lon="8.434314069432007"><ele>130.5</ele><time>2026-04-27T12:58:16.106Z</time></trkpt><trkpt lat="39.330802097997065" lon="8.434441586955417"><ele>128.0</ele><time>2026-04-27T12:58:17.106Z</time></trkpt><trkpt lat="39.330929449043815" lon="8.434538689250791"><ele>128.0</ele><time>2026-04-27T12:58:18.106Z</time></trkpt><trkpt lat="39.33105366169316" lon="8.43462855978824"><ele>128.0</ele><time>2026-04-27T12:58:19.106Z</time></trkpt><trkpt lat="39.33118752897021" lon="8.434702465900141"><ele>128.0</ele><time>2026-04-27T12:58:20.106Z</time></trkpt><trkpt lat="39.33130407782841" lon="8.434766854230901"><ele>128.0</ele><time>2026-04-27T12:58:21.106Z</time></trkpt><trkpt lat="39.33138687098556" lon="8.434833564245716"><ele>129.6</ele><time>2026-04-27T12:58:22.106Z</time></trkpt><trkpt lat="39.33144158494396" lon="8.434884277078005"><ele>131.20000000000002</ele><time>2026-04-27T12:58:23.106Z</time></trkpt><trkpt lat="39.331523563793226" lon="8.434982602456964"><ele>132.8</ele><time>2026-04-27T12:58:25.106Z</time></trkpt><trkpt lat="39.331604040285974" lon="8.435032051162073"><ele>134.4</ele><time>2026-04-27T12:58:27.106Z</time></trkpt><trkpt lat="39.33169381262458" lon="8.435054890831703"><ele>136.0</ele><time>2026-04-27T12:58:29.107Z</time></trkpt><trkpt lat="39.331815322075656" lon="8.43509710250705"><ele>136.0</ele><time>2026-04-27T12:58:31.107Z</time></trkpt><trkpt lat="39.33186174813813" lon="8.435163473969086"><ele>136.0</ele><time>2026-04-27T12:58:32.107Z</time></trkpt><trkpt lat="39.331886218719596" lon="8.43526365385919"><ele>136.0</ele><time>2026-04-27T12:58:33.107Z</time></trkpt><trkpt lat="39.33187782682046" lon="8.435382485190365"><ele>136.0</ele><time>2026-04-27T12:58:34.107Z</time></trkpt><trkpt lat="39.33183400774579" lon="8.435506114491313"><ele>136.0</ele><time>2026-04-27T12:58:35.107Z</time></trkpt><trkpt lat="39.33178641697938" lon="8.43564234623359"><ele>140.5</ele><time>2026-04-27T12:58:36.107Z</time></trkpt><trkpt lat="39.331746411165255" lon="8.435791159944754"><ele>145.0</ele><time>2026-04-27T12:58:37.107Z</time></trkpt><trkpt lat="39.33170598428659" lon="8.435953613619995"><ele>149.5</ele><time>2026-04-27T12:58:38.107Z</time></trkpt><trkpt lat="39.331661481782945" lon="8.436119605864988"><ele>154.0</ele><time>2026-04-27T12:58:39.107Z</time></trkpt><trkpt lat="39.33162113364357" lon="8.4362907119343"><ele>158.5</ele><time>2026-04-27T12:58:40.107Z</time></trkpt><trkpt lat="39.33158180036414" lon="8.436458634585366"><ele>163.0</ele><time>2026-04-27T12:58:41.107Z</time></trkpt><trkpt lat="39.33153325571134" lon="8.43663114444233"><ele>167.5</ele><time>2026-04-27T12:58:42.107Z</time></trkpt><trkpt lat="39.33148745755875" lon="8.436801423734458"><ele>172.0</ele><time>2026-04-27T12:58:43.107Z</time></trkpt><trkpt lat="39.331449959923276" lon="8.436981959742543"><ele>178.25</ele><time>2026-04-27T12:58:44.107Z</time></trkpt><trkpt lat="39.33140687153145" lon="8.437162093923597"><ele>184.5</ele><time>2026-04-27T12:58:45.107Z</time></trkpt><trkpt lat="39.33138495658311" lon="8.437351845881949"><ele>190.75</ele><time>2026-04-27T12:58:46.107Z</time></trkpt><trkpt lat="39.331381998534155" lon="8.437548287459224"><ele>197.0</ele><time>2026-04-27T12:58:47.107Z</time></trkpt><trkpt lat="39.331388359177296" lon="8.437738008151896"><ele>197.0</ele><time>2026-04-27T12:58:48.107Z</time></trkpt><trkpt lat="39.331403658505515" lon="8.437932733655483"><ele>197.0</ele><time>2026-04-27T12:58:49.107Z</time></trkpt><trkpt lat="39.33143189565955" lon="8.438126984321492"><ele>197.0</ele><time>2026-04-27T12:58:50.107Z</time></trkpt><trkpt lat="39.331464464395395" lon="8.438319027447553"><ele>196.66666666666669</ele><time>2026-04-27T12:58:51.107Z</time></trkpt><trkpt lat="39.33150589489179" lon="8.438510546133864"><ele>196.33333333333331</ele><time>2026-04-27T12:58:52.107Z</time></trkpt><trkpt lat="39.33154719534243" lon="8.43869799663576"><ele>196.0</ele><time>2026-04-27T12:58:53.107Z</time></trkpt><trkpt lat="39.3315947393155" lon="8.438892199697484"><ele>194.0</ele><time>2026-04-27T12:58:54.107Z</time></trkpt><trkpt lat="39.33164069702341" lon="8.43907679688285"><ele>192.0</ele><time>2026-04-27T12:58:55.107Z</time></trkpt><trkpt lat="39.331711313411226" lon="8.439256205169533"><ele>190.0</ele><time>2026-04-27T12:58:56.107Z</time></trkpt><trkpt lat="39.33179822130676" lon="8.43943069185891"><ele>190.0</ele><time>2026-04-27T12:58:57.107Z</time></trkpt><trkpt lat="39.3318895780626" lon="8.43958947459159"><ele>190.0</ele><time>2026-04-27T12:58:58.107Z</time></trkpt><trkpt lat="39.33200144339976" lon="8.439743351455038"><ele>190.0</ele><time>2026-04-27T12:58:59.107Z</time></trkpt><trkpt lat="39.33209741996669" lon="8.439889370573697"><ele>191.25</ele><time>2026-04-27T12:59:00.107Z</time></trkpt><trkpt lat="39.33217986431322" lon="8.44003261612471"><ele>192.5</ele><time>2026-04-27T12:59:01.107Z</time></trkpt><trkpt lat="39.33222444836882" lon="8.440197504442146"><ele>193.75</ele><time>2026-04-27T12:59:02.107Z</time></trkpt><trkpt lat="39.33220737987826" lon="8.440349813446455"><ele>195.0</ele><time>2026-04-27T12:59:03.107Z</time></trkpt><trkpt lat="39.332141065697634" lon="8.440482589420428"><ele>199.5</ele><time>2026-04-27T12:59:04.107Z</time></trkpt><trkpt lat="39.33202327381867" lon="8.440609716914292"><ele>204.0</ele><time>2026-04-27T12:59:05.107Z</time></trkpt><trkpt lat="39.33194589019978" lon="8.44074950563184"><ele>208.5</ele><time>2026-04-27T12:59:06.107Z</time></trkpt><trkpt lat="39.331925818483754" lon="8.440932976610886"><ele>213.0</ele><time>2026-04-27T12:59:07.107Z</time></trkpt><trkpt lat="39.33196572197797" lon="8.441121571579927"><ele>213.0</ele><time>2026-04-27T12:59:08.107Z</time></trkpt><trkpt lat="39.33204198773962" lon="8.441292169713375"><ele>213.0</ele><time>2026-04-27T12:59:09.107Z</time></trkpt><trkpt lat="39.33213340494651" lon="8.441457727623888"><ele>213.0</ele><time>2026-04-27T12:59:10.107Z</time></trkpt><trkpt lat="39.33220669407562" lon="8.441644698402598"><ele>211.33333333333331</ele><time>2026-04-27T12:59:11.107Z</time></trkpt><trkpt lat="39.332241929967545" lon="8.441860285631993"><ele>209.66666666666666</ele><time>2026-04-27T12:59:12.107Z</time></trkpt><trkpt lat="39.332244307754365" lon="8.442074048532938"><ele>208.0</ele><time>2026-04-27T12:59:13.107Z</time></trkpt><trkpt lat="39.3322107978892" lon="8.442297943413866"><ele>220.0</ele><time>2026-04-27T12:59:14.107Z</time></trkpt><trkpt lat="39.33215353181507" lon="8.442518346310937"><ele>232.0</ele><time>2026-04-27T12:59:15.107Z</time></trkpt><trkpt lat="39.332094105046075" lon="8.442735005250784"><ele>244.0</ele><time>2026-04-27T12:59:16.107Z</time></trkpt><trkpt lat="39.33203717036267" lon="8.442942660124322"><ele>244.39999999999998</ele><time>2026-04-27T12:59:17.107Z</time></trkpt><trkpt lat="39.33200176740114" lon="8.443121748405646"><ele>244.79999999999998</ele><time>2026-04-27T12:59:18.107Z</time></trkpt><trkpt lat="39.331980812171786" lon="8.443258642499497"><ele>245.20000000000002</ele><time>2026-04-27T12:59:19.107Z</time></trkpt><trkpt lat="39.33197317453339" lon="8.4433827742809"><ele>245.60000000000002</ele><time>2026-04-27T12:59:20.107Z</time></trkpt><trkpt lat="39.33203511252726" lon="8.44346620933348"><ele>246.0</ele><time>2026-04-27T12:59:21.107Z</time></trkpt><trkpt lat="39.33212171441739" lon="8.44349843273887"><ele>244.5</ele><time>2026-04-27T12:59:22.107Z</time></trkpt><trkpt lat="39.332239751936065" lon="8.44345479754957"><ele>243.0</ele><time>2026-04-27T12:59:23.107Z</time></trkpt><trkpt lat="39.332332100352495" lon="8.443337461414911"><ele>241.5</ele><time>2026-04-27T12:59:24.107Z</time></trkpt><trkpt lat="39.332398295988334" lon="8.443164780388821"><ele>240.0</ele><time>2026-04-27T12:59:25.107Z</time></trkpt><trkpt lat="39.332453208862255" lon="8.442978468529919"><ele>232.0</ele><time>2026-04-27T12:59:26.107Z</time></trkpt><trkpt lat="39.33252098089276" lon="8.442798555950493"><ele>224.0</ele><time>2026-04-27T12:59:27.107Z</time></trkpt><trkpt lat="39.33260179990626" lon="8.442616165939974"><ele>216.0</ele><time>2026-04-27T12:59:28.107Z</time></trkpt><trkpt lat="39.33268040270592" lon="8.442439803487915"><ele>216.0</ele><time>2026-04-27T12:59:29.107Z</time></trkpt><trkpt lat="39.332749089792635" lon="8.442293194143474"><ele>216.0</ele><time>2026-04-27T12:59:30.107Z</time></trkpt><trkpt lat="39.33282457601288" lon="8.442193506607822"><ele>216.0</ele><time>2026-04-27T12:59:31.107Z</time></trkpt><trkpt lat="39.33292588238404" lon="8.442182164932904"><ele>216.0</ele><time>2026-04-27T12:59:32.107Z</time></trkpt><trkpt lat="39.33306430846686" lon="8.442239435076814"><ele>221.0</ele><time>2026-04-27T12:59:33.107Z</time></trkpt><trkpt lat="39.33319931702327" lon="8.442316850302118"><ele>226.0</ele><time>2026-04-27T12:59:34.107Z</time></trkpt><trkpt lat="39.333321064798724" lon="8.44226462011952"><ele>231.0</ele><time>2026-04-27T12:59:35.107Z</time></trkpt><trkpt lat="39.33339598979565" lon="8.442115597154885"><ele>236.0</ele><time>2026-04-27T12:59:36.107Z</time></trkpt><trkpt lat="39.33339830890558" lon="8.441922327906008"><ele>236.0</ele><time>2026-04-27T12:59:37.107Z</time></trkpt><trkpt lat="39.3333371261675" lon="8.441741337538716"><ele>236.0</ele><time>2026-04-27T12:59:38.107Z</time></trkpt><trkpt lat="39.33323711938007" lon="8.441573865153433"><ele>236.0</ele><time>2026-04-27T12:59:39.107Z</time></trkpt><trkpt lat="39.33317808625058" lon="8.441427969508595"><ele>236.0</ele><time>2026-04-27T12:59:40.107Z</time></trkpt><trkpt lat="39.333180689742214" lon="8.441298200693645"><ele>233.5</ele><time>2026-04-27T12:59:41.108Z</time></trkpt><trkpt lat="39.33326622145693" lon="8.441194094755447"><ele>231.0</ele><time>2026-04-27T12:59:42.108Z</time></trkpt><trkpt lat="39.33339510970479" lon="8.441134165507963"><ele>228.5</ele><time>2026-04-27T12:59:43.108Z</time></trkpt><trkpt lat="39.333538815629296" lon="8.441101468124774"><ele>226.0</ele><time>2026-04-27T12:59:44.108Z</time></trkpt><trkpt lat="39.33367877410062" lon="8.441052985192036"><ele>226.0</ele><time>2026-04-27T12:59:45.108Z</time></trkpt><trkpt lat="39.333837889725" lon="8.441003465629946"><ele>226.0</ele><time>2026-04-27T12:59:46.108Z</time></trkpt><trkpt lat="39.33400434305559" lon="8.440939456368747"><ele>226.0</ele><time>2026-04-27T12:59:47.108Z</time></trkpt><trkpt lat="39.33417953255125" lon="8.44087578378528"><ele>235.0</ele><time>2026-04-27T12:59:48.108Z</time></trkpt><trkpt lat="39.33435942578509" lon="8.440806690690923"><ele>244.0</ele><time>2026-04-27T12:59:49.108Z</time></trkpt><trkpt lat="39.334527767165596" lon="8.44072803709269"><ele>253.0</ele><time>2026-04-27T12:59:50.108Z</time></trkpt><trkpt lat="39.33467689529306" lon="8.44067534706136"><ele>259.25</ele><time>2026-04-27T12:59:51.108Z</time></trkpt><trkpt lat="39.334794029317194" lon="8.440609300956796"><ele>265.5</ele><time>2026-04-27T12:59:52.108Z</time></trkpt><trkpt lat="39.33487335741409" lon="8.440485636107898"><ele>271.75</ele><time>2026-04-27T12:59:53.108Z</time></trkpt><trkpt lat="39.334886645994565" lon="8.440313762537668"><ele>278.0</ele><time>2026-04-27T12:59:54.108Z</time></trkpt><trkpt lat="39.334864731996475" lon="8.440144802900093"><ele>278.0</ele><time>2026-04-27T12:59:55.108Z</time></trkpt><trkpt lat="39.334873769259964" lon="8.440012871767676"><ele>278.0</ele><time>2026-04-27T12:59:56.108Z</time></trkpt><trkpt lat="39.33494449368069" lon="8.439925545772839"><ele>278.0</ele><time>2026-04-27T12:59:57.108Z</time></trkpt><trkpt lat="39.33506928007045" lon="8.439915645682623"><ele>278.0</ele><time>2026-04-27T12:59:58.108Z</time></trkpt><trkpt lat="39.33521341686912" lon="8.439970002549305"><ele>278.0</ele><time>2026-04-27T12:59:59.108Z</time></trkpt><trkpt lat="39.33533790974436" lon="8.440055952556753"><ele>278.0</ele><time>2026-04-27T13:00:00.108Z</time></trkpt><trkpt lat="39.33547785511826" lon="8.44012180736052"><ele>278.0</ele><time>2026-04-27T13:00:01.108Z</time></trkpt><trkpt lat="39.33562226521041" lon="8.440180028893637"><ele>278.0</ele><time>2026-04-27T13:00:02.108Z</time></trkpt><trkpt lat="39.335722401639785" lon="8.440269477332542"><ele>278.25</ele><time>2026-04-27T13:00:03.108Z</time></trkpt><trkpt lat="39.335769121335986" lon="8.440407400159293"><ele>278.5</ele><time>2026-04-27T13:00:04.108Z</time></trkpt><trkpt lat="39.33576001060022" lon="8.440582323089922"><ele>278.75</ele><time>2026-04-27T13:00:05.108Z</time></trkpt><trkpt lat="39.335671648720115" lon="8.440735841745658"><ele>279.0</ele><time>2026-04-27T13:00:06.108Z</time></trkpt><trkpt lat="39.335525366649556" lon="8.440823533089338"><ele>279.0</ele><time>2026-04-27T13:00:07.108Z</time></trkpt><trkpt lat="39.335395987779094" lon="8.440857640227664"><ele>279.0</ele><time>2026-04-27T13:00:08.108Z</time></trkpt><trkpt lat="39.33530124674493" lon="8.440887396714627"><ele>279.0</ele><time>2026-04-27T13:00:09.109Z</time></trkpt><trkpt lat="39.335254404747744" lon="8.44097152003896"><ele>279.0</ele><time>2026-04-27T13:00:10.109Z</time></trkpt><trkpt lat="39.3352664337219" lon="8.441071767753684"><ele>279.0</ele><time>2026-04-27T13:00:11.109Z</time></trkpt><trkpt lat="39.33532218507204" lon="8.441136726171411"><ele>279.0</ele><time>2026-04-27T13:00:12.108Z</time></trkpt><trkpt lat="39.33542190653746" lon="8.441152575941473"><ele>279.0</ele><time>2026-04-27T13:00:13.108Z</time></trkpt><trkpt lat="39.33554476771609" lon="8.441085379799874"><ele>279.0</ele><time>2026-04-27T13:00:14.108Z</time></trkpt><trkpt lat="39.33564716417122" lon="8.440969937401368"><ele>279.0</ele><time>2026-04-27T13:00:15.109Z</time></trkpt><trkpt lat="39.33576959167332" lon="8.440880997845534"><ele>286.3333333333333</ele><time>2026-04-27T13:00:16.109Z</time></trkpt><trkpt lat="39.33591310746299" lon="8.44080100957578"><ele>293.66666666666663</ele><time>2026-04-27T13:00:17.109Z</time></trkpt><trkpt lat="39.3360652309249" lon="8.440712570227008"><ele>301.0</ele><time>2026-04-27T13:00:18.108Z</time></trkpt><trkpt lat="39.33620842457353" lon="8.440611273751903"><ele>301.0</ele><time>2026-04-27T13:00:19.108Z</time></trkpt><trkpt lat="39.33633755826019" lon="8.440469370037446"><ele>301.0</ele><time>2026-04-27T13:00:20.109Z</time></trkpt><trkpt lat="39.336424747263" lon="8.440292351335373"><ele>301.0</ele><time>2026-04-27T13:00:21.108Z</time></trkpt><trkpt lat="39.336474984312524" lon="8.440127071278622"><ele>305.25</ele><time>2026-04-27T13:00:22.108Z</time></trkpt><trkpt lat="39.33655863451408" lon="8.440002531698426"><ele>309.5</ele><time>2026-04-27T13:00:23.108Z</time></trkpt><trkpt lat="39.33670129596878" lon="8.439925311265709"><ele>313.75</ele><time>2026-04-27T13:00:24.108Z</time></trkpt><trkpt lat="39.33684978377215" lon="8.439904850797527"><ele>318.0</ele><time>2026-04-27T13:00:25.108Z</time></trkpt><trkpt lat="39.33700077199179" lon="8.43994556342363"><ele>318.0</ele><time>2026-04-27T13:00:26.108Z</time></trkpt><trkpt lat="39.337158420431756" lon="8.44002528523747"><ele>318.0</ele><time>2026-04-27T13:00:27.109Z</time></trkpt><trkpt lat="39.33733358311427" lon="8.440092692151616"><ele>318.0</ele><time>2026-04-27T13:00:28.109Z</time></trkpt><trkpt lat="39.33751185009657" lon="8.440155818761138"><ele>323.6666666666667</ele><time>2026-04-27T13:00:29.109Z</time></trkpt><trkpt lat="39.33769569756741" lon="8.440202733836232"><ele>329.33333333333337</ele><time>2026-04-27T13:00:30.109Z</time></trkpt><trkpt lat="39.33789538075427" lon="8.440207432136772"><ele>335.0</ele><time>2026-04-27T13:00:31.109Z</time></trkpt><trkpt lat="39.33809904261662" lon="8.44018613348195"><ele>338.6666666666667</ele><time>2026-04-27T13:00:32.109Z</time></trkpt><trkpt lat="39.33828444469783" lon="8.44015371515117"><ele>342.3333333333333</ele><time>2026-04-27T13:00:33.109Z</time></trkpt><trkpt lat="39.33847585955247" lon="8.44012585827264"><ele>346.0</ele><time>2026-04-27T13:00:34.109Z</time></trkpt><trkpt lat="39.33867620452027" lon="8.440109944264512"><ele>346.0</ele><time>2026-04-27T13:00:35.109Z</time></trkpt><trkpt lat="39.3388813693166" lon="8.440089845900543"><ele>346.0</ele><time>2026-04-27T13:00:36.109Z</time></trkpt><trkpt lat="39.339084578679895" lon="8.4400762024204"><ele>346.0</ele><time>2026-04-27T13:00:37.109Z</time></trkpt><trkpt lat="39.339292448078" lon="8.440051307443698"><ele>349.3333333333333</ele><time>2026-04-27T13:00:38.109Z</time></trkpt><trkpt lat="39.33949702204539" lon="8.440024860958658"><ele>352.6666666666667</ele><time>2026-04-27T13:00:39.109Z</time></trkpt><trkpt lat="39.33970892120937" lon="8.439999516505416"><ele>356.0</ele><time>2026-04-27T13:00:40.109Z</time></trkpt><trkpt lat="39.339923709142276" lon="8.439973194920277"><ele>359.0</ele><time>2026-04-27T13:00:41.109Z</time></trkpt><trkpt lat="39.34014277976739" lon="8.439940517306036"><ele>362.0</ele><time>2026-04-27T13:00:42.109Z</time></trkpt><trkpt lat="39.340360183094724" lon="8.43989541957999"><ele>365.0</ele><time>2026-04-27T13:00:43.109Z</time></trkpt><trkpt lat="39.3405755719471" lon="8.439841404501566"><ele>368.33333333333337</ele><time>2026-04-27T13:00:44.109Z</time></trkpt><trkpt lat="39.3407915285902" lon="8.439785290175376"><ele>371.6666666666667</ele><time>2026-04-27T13:00:45.109Z</time></trkpt><trkpt lat="39.34101294915512" lon="8.439735003854683"><ele>375.0</ele><time>2026-04-27T13:00:46.109Z</time></trkpt><trkpt lat="39.341231764979426" lon="8.439694258022977"><ele>381.0</ele><time>2026-04-27T13:00:47.109Z</time></trkpt><trkpt lat="39.341453132803316" lon="8.439666684792504"><ele>387.0</ele><time>2026-04-27T13:00:48.109Z</time></trkpt><trkpt lat="39.34167892252354" lon="8.439646326488688"><ele>393.0</ele><time>2026-04-27T13:00:49.109Z</time></trkpt><trkpt lat="39.341906667238405" lon="8.439623651934948"><ele>399.0</ele><time>2026-04-27T13:00:50.109Z</time></trkpt><trkpt lat="39.34213131000849" lon="8.43958855914055"><ele>405.0</ele><time>2026-04-27T13:00:51.109Z</time></trkpt><trkpt lat="39.34235662904553" lon="8.439526606278127"><ele>408.5</ele><time>2026-04-27T13:00:52.109Z</time></trkpt><trkpt lat="39.342572341086665" lon="8.439437876390508"><ele>412.0</ele><time>2026-04-27T13:00:53.109Z</time></trkpt><trkpt lat="39.34278234747577" lon="8.439334048813192"><ele>412.0</ele><time>2026-04-27T13:00:54.109Z</time></trkpt><trkpt lat="39.342992560360464" lon="8.439239986478949"><ele>412.0</ele><time>2026-04-27T13:00:55.109Z</time></trkpt><trkpt lat="39.34319913730695" lon="8.439171775473254"><ele>412.0</ele><time>2026-04-27T13:00:56.109Z</time></trkpt><trkpt lat="39.34340258135338" lon="8.439144870515355"><ele>416.0</ele><time>2026-04-27T13:00:57.109Z</time></trkpt><trkpt lat="39.34360289685159" lon="8.439146195786623"><ele>420.0</ele><time>2026-04-27T13:00:58.109Z</time></trkpt><trkpt lat="39.343798563875964" lon="8.439148883989747"><ele>424.0</ele><time>2026-04-27T13:00:59.109Z</time></trkpt><trkpt lat="39.343994195373504" lon="8.439133375319473"><ele>426.33333333333337</ele><time>2026-04-27T13:01:00.109Z</time></trkpt><trkpt lat="39.34418963545669" lon="8.439103937208843"><ele>428.66666666666663</ele><time>2026-04-27T13:01:01.109Z</time></trkpt><trkpt lat="39.34437226537836" lon="8.439073664507957"><ele>431.0</ele><time>2026-04-27T13:01:02.109Z</time></trkpt><trkpt lat="39.34454594046777" lon="8.43904967467784"><ele>428.0</ele><time>2026-04-27T13:01:03.109Z</time></trkpt><trkpt lat="39.34473191350521" lon="8.43905212387171"><ele>425.0</ele><time>2026-04-27T13:01:04.109Z</time></trkpt><trkpt lat="39.34493149977781" lon="8.439051853743566"><ele>422.0</ele><time>2026-04-27T13:01:05.109Z</time></trkpt><trkpt lat="39.34513923955937" lon="8.43903252779563"><ele>422.0</ele><time>2026-04-27T13:01:06.109Z</time></trkpt><trkpt lat="39.34536445349402" lon="8.43900826158162"><ele>422.0</ele><time>2026-04-27T13:01:07.109Z</time></trkpt><trkpt lat="39.34559297689633" lon="8.438976464582618"><ele>418.66666666666663</ele><time>2026-04-27T13:01:08.109Z</time></trkpt><trkpt lat="39.345808291130176" lon="8.438945209992776"><ele>415.33333333333337</ele><time>2026-04-27T13:01:09.109Z</time></trkpt><trkpt lat="39.34601824352003" lon="8.438911313015012"><ele>412.0</ele><time>2026-04-27T13:01:10.109Z</time></trkpt><trkpt lat="39.34621981740737" lon="8.438874322125312"><ele>409.33333333333337</ele><time>2026-04-27T13:01:11.109Z</time></trkpt><trkpt lat="39.34641845276735" lon="8.438837175364096"><ele>406.66666666666663</ele><time>2026-04-27T13:01:12.109Z</time></trkpt><trkpt lat="39.34661030655452" lon="8.438804730838603"><ele>404.0</ele><time>2026-04-27T13:01:13.109Z</time></trkpt><trkpt lat="39.346796853505815" lon="8.438761377624534"><ele>404.0</ele><time>2026-04-27T13:01:14.109Z</time></trkpt><trkpt lat="39.34696985804119" lon="8.43865780277713"><ele>404.0</ele><time>2026-04-27T13:01:15.109Z</time></trkpt><trkpt lat="39.347142968960824" lon="8.43851534078633"><ele>404.0</ele><time>2026-04-27T13:01:16.109Z</time></trkpt><trkpt lat="39.347343289413246" lon="8.438383868785483"><ele>393.0</ele><time>2026-04-27T13:01:17.109Z</time></trkpt><trkpt lat="39.34756158088733" lon="8.438295704713807"><ele>382.0</ele><time>2026-04-27T13:01:18.109Z</time></trkpt><trkpt lat="39.34778842452534" lon="8.438226601454033"><ele>382.0</ele><time>2026-04-27T13:01:19.109Z</time></trkpt><trkpt lat="39.34801482130473" lon="8.438147754521669"><ele>382.0</ele><time>2026-04-27T13:01:20.109Z</time></trkpt><trkpt lat="39.34823937193516" lon="8.438051603277158"><ele>382.0</ele><time>2026-04-27T13:01:21.109Z</time></trkpt><trkpt lat="39.34846359050805" lon="8.437953273770095"><ele>382.0</ele><time>2026-04-27T13:01:22.109Z</time></trkpt><trkpt lat="39.348685756537485" lon="8.437854709380998"><ele>373.66666666666663</ele><time>2026-04-27T13:01:23.109Z</time></trkpt><trkpt lat="39.34890038154345" lon="8.437767022816802"><ele>365.3333333333333</ele><time>2026-04-27T13:01:24.109Z</time></trkpt><trkpt lat="39.34911000170406" lon="8.437681449730556"><ele>357.0</ele><time>2026-04-27T13:01:25.109Z</time></trkpt><trkpt lat="39.34931251088997" lon="8.437587224550482"><ele>357.0</ele><time>2026-04-27T13:01:26.109Z</time></trkpt><trkpt lat="39.34951030466245" lon="8.437510410761098"><ele>357.0</ele><time>2026-04-27T13:01:27.109Z</time></trkpt><trkpt lat="39.34971274471528" lon="8.437498433960082"><ele>357.0</ele><time>2026-04-27T13:01:28.109Z</time></trkpt><trkpt lat="39.34991600441967" lon="8.437554703364322"><ele>356.3333333333333</ele><time>2026-04-27T13:01:29.109Z</time></trkpt><trkpt lat="39.35011878925208" lon="8.437670423650017"><ele>355.66666666666663</ele><time>2026-04-27T13:01:30.109Z</time></trkpt><trkpt lat="39.350320574866835" lon="8.437795373629505"><ele>355.0</ele><time>2026-04-27T13:01:31.109Z</time></trkpt><trkpt lat="39.35053494280676" lon="8.437910375132033"><ele>344.0</ele><time>2026-04-27T13:01:32.109Z</time></trkpt><trkpt lat="39.350755672728354" lon="8.438025955447305"><ele>333.0</ele><time>2026-04-27T13:01:33.109Z</time></trkpt><trkpt lat="39.35098777935787" lon="8.438151474532983"><ele>333.0</ele><time>2026-04-27T13:01:34.109Z</time></trkpt><trkpt lat="39.35121851882373" lon="8.43827928001525"><ele>333.0</ele><time>2026-04-27T13:01:35.109Z</time></trkpt><trkpt lat="39.35144736074143" lon="8.438397319991394"><ele>335.0</ele><time>2026-04-27T13:01:36.109Z</time></trkpt><trkpt lat="39.35167484965068" lon="8.438504833426425"><ele>337.0</ele><time>2026-04-27T13:01:37.109Z</time></trkpt><trkpt lat="39.351912865104765" lon="8.438590042071002"><ele>337.0</ele><time>2026-04-27T13:01:38.109Z</time></trkpt><trkpt lat="39.35215563656172" lon="8.438656628929536"><ele>337.0</ele><time>2026-04-27T13:01:39.109Z</time></trkpt><trkpt lat="39.35239316010057" lon="8.43874844345861"><ele>329.5</ele><time>2026-04-27T13:01:40.11Z</time></trkpt><trkpt lat="39.352619320052135" lon="8.438882505563948"><ele>322.0</ele><time>2026-04-27T13:01:41.11Z</time></trkpt><trkpt lat="39.352836884568084" lon="8.43903823578877"><ele>320.0</ele><time>2026-04-27T13:01:42.11Z</time></trkpt><trkpt lat="39.353050620300806" lon="8.439202483396569"><ele>318.0</ele><time>2026-04-27T13:01:43.11Z</time></trkpt><trkpt lat="39.35326086410587" lon="8.439362314871701"><ele>318.0</ele><time>2026-04-27T13:01:44.11Z</time></trkpt><trkpt lat="39.35347423255705" lon="8.439516181920728"><ele>318.0</ele><time>2026-04-27T13:01:45.11Z</time></trkpt><trkpt lat="39.353682193336006" lon="8.439675046506826"><ele>312.5</ele><time>2026-04-27T13:01:46.11Z</time></trkpt><trkpt lat="39.353891342209" lon="8.439834699945115"><ele>307.0</ele><time>2026-04-27T13:01:47.11Z</time></trkpt><trkpt lat="39.354100158088684" lon="8.439987646183992"><ele>307.0</ele><time>2026-04-27T13:01:48.11Z</time></trkpt><trkpt lat="39.35430713434189" lon="8.440144853974513"><ele>307.0</ele><time>2026-04-27T13:01:49.11Z</time></trkpt><trkpt lat="39.354514521686475" lon="8.440300427804761"><ele>307.5</ele><time>2026-04-27T13:01:50.11Z</time></trkpt><trkpt lat="39.35472243823356" lon="8.440452458781508"><ele>308.0</ele><time>2026-04-27T13:01:51.11Z</time></trkpt><trkpt lat="39.35493377625392" lon="8.4405894880215"><ele>307.0</ele><time>2026-04-27T13:01:52.11Z</time></trkpt><trkpt lat="39.35513879513195" lon="8.440703387594542"><ele>306.0</ele><time>2026-04-27T13:01:53.11Z</time></trkpt><trkpt lat="39.355339931100346" lon="8.440796014329713"><ele>305.0</ele><time>2026-04-27T13:01:54.11Z</time></trkpt><trkpt lat="39.355539207413734" lon="8.440859658939557"><ele>303.0</ele><time>2026-04-27T13:01:55.11Z</time></trkpt><trkpt lat="39.3557341633985" lon="8.440868812385714"><ele>301.0</ele><time>2026-04-27T13:01:56.11Z</time></trkpt><trkpt lat="39.35591930940541" lon="8.440784103250374"><ele>299.0</ele><time>2026-04-27T13:01:57.11Z</time></trkpt><trkpt lat="39.35610397620966" lon="8.440667023926851"><ele>299.0</ele><time>2026-04-27T13:01:58.11Z</time></trkpt><trkpt lat="39.35628597870926" lon="8.440520610019657"><ele>299.0</ele><time>2026-04-27T13:01:59.11Z</time></trkpt><trkpt lat="39.35646746450355" lon="8.440385795943904"><ele>299.0</ele><time>2026-04-27T13:02:00.11Z</time></trkpt><trkpt lat="39.35666601924378" lon="8.440308734468482"><ele>302.6666666666667</ele><time>2026-04-27T13:02:01.11Z</time></trkpt><trkpt lat="39.356860778757664" lon="8.440298417783485"><ele>306.3333333333333</ele><time>2026-04-27T13:02:02.11Z</time></trkpt><trkpt lat="39.3570593481673" lon="8.440249056296285"><ele>310.0</ele><time>2026-04-27T13:02:03.11Z</time></trkpt><trkpt lat="39.35726985664235" lon="8.440197427615255"><ele>311.3333333333333</ele><time>2026-04-27T13:02:04.11Z</time></trkpt><trkpt lat="39.35748441512672" lon="8.440173543658526"><ele>312.6666666666667</ele><time>2026-04-27T13:02:05.11Z</time></trkpt><trkpt lat="39.357701460798395" lon="8.440196982314685"><ele>314.0</ele><time>2026-04-27T13:02:06.11Z</time></trkpt><trkpt lat="39.35791964581704" lon="8.44024480725726"><ele>316.33333333333337</ele><time>2026-04-27T13:02:07.11Z</time></trkpt><trkpt lat="39.35812902316521" lon="8.440286253778515"><ele>318.6666666666667</ele><time>2026-04-27T13:02:08.11Z</time></trkpt><trkpt lat="39.35831723546527" lon="8.44033962531703"><ele>321.0</ele><time>2026-04-27T13:02:09.11Z</time></trkpt><trkpt lat="39.35848519221371" lon="8.440439889048806"><ele>312.6666666666667</ele><time>2026-04-27T13:02:10.11Z</time></trkpt><trkpt lat="39.35862343110575" lon="8.440565252535354"><ele>304.33333333333337</ele><time>2026-04-27T13:02:11.11Z</time></trkpt><trkpt lat="39.358777526626845" lon="8.44063229556333"><ele>296.0</ele><time>2026-04-27T13:02:12.11Z</time></trkpt><trkpt lat="39.35894475997489" lon="8.440639349102124"><ele>295.33333333333337</ele><time>2026-04-27T13:02:13.111Z</time></trkpt><trkpt lat="39.35913123631957" lon="8.440638146653672"><ele>294.6666666666667</ele><time>2026-04-27T13:02:14.111Z</time></trkpt><trkpt lat="39.359330497540455" lon="8.44064898408375"><ele>294.0</ele><time>2026-04-27T13:02:15.111Z</time></trkpt><trkpt lat="39.359534994997986" lon="8.440657355045134"><ele>292.6666666666667</ele><time>2026-04-27T13:02:16.111Z</time></trkpt><trkpt lat="39.359731930567065" lon="8.440665132948174"><ele>291.33333333333337</ele><time>2026-04-27T13:02:17.111Z</time></trkpt><trkpt lat="39.35992898380693" lon="8.440667097359833"><ele>290.0</ele><time>2026-04-27T13:02:18.111Z</time></trkpt><trkpt lat="39.36013192274336" lon="8.440652236837954"><ele>290.0</ele><time>2026-04-27T13:02:19.111Z</time></trkpt><trkpt lat="39.36033606509813" lon="8.440615984128026"><ele>290.0</ele><time>2026-04-27T13:02:20.111Z</time></trkpt><trkpt lat="39.360541403196535" lon="8.44056011741641"><ele>290.0</ele><time>2026-04-27T13:02:21.111Z</time></trkpt><trkpt lat="39.36074546376204" lon="8.440488079279273"><ele>294.0</ele><time>2026-04-27T13:02:22.112Z</time></trkpt><trkpt lat="39.36094590481121" lon="8.44040167605777"><ele>298.0</ele><time>2026-04-27T13:02:23.111Z</time></trkpt><trkpt lat="39.36114590935245" lon="8.440293249945988"><ele>302.0</ele><time>2026-04-27T13:02:24.111Z</time></trkpt><trkpt lat="39.361335474948525" lon="8.440180187094366"><ele>296.33333333333337</ele><time>2026-04-27T13:02:25.111Z</time></trkpt><trkpt lat="39.36151144556994" lon="8.440053052274664"><ele>290.6666666666667</ele><time>2026-04-27T13:02:26.111Z</time></trkpt><trkpt lat="39.3616662175245" lon="8.439888395126818"><ele>285.0</ele><time>2026-04-27T13:02:27.111Z</time></trkpt><trkpt lat="39.361808005073556" lon="8.439703368858968"><ele>292.0</ele><time>2026-04-27T13:02:28.111Z</time></trkpt><trkpt lat="39.36193723742038" lon="8.439488047007563"><ele>299.0</ele><time>2026-04-27T13:02:29.111Z</time></trkpt><trkpt lat="39.36205387792987" lon="8.439267374670596"><ele>306.0</ele><time>2026-04-27T13:02:30.111Z</time></trkpt><trkpt lat="39.36216011392985" lon="8.439051376203532"><ele>292.0</ele><time>2026-04-27T13:02:31.111Z</time></trkpt><trkpt lat="39.362422629147055" lon="8.43916758710695"><ele>278.0</ele><time>2026-04-27T13:02:32.111Z</time></trkpt><trkpt lat="39.36253442184246" lon="8.438976253894232"><ele>278.0</ele><time>2026-04-27T13:02:33.111Z</time></trkpt><trkpt lat="39.36264330250999" lon="8.438815276302789"><ele>278.0</ele><time>2026-04-27T13:02:34.111Z</time></trkpt><trkpt lat="39.3627787346704" lon="8.438716979972568"><ele>278.0</ele><time>2026-04-27T13:02:35.111Z</time></trkpt><trkpt lat="39.362923802288215" lon="8.43868414117992"><ele>274.6666666666667</ele><time>2026-04-27T13:02:36.111Z</time></trkpt><trkpt lat="39.36307490243122" lon="8.438701612931451"><ele>271.3333333333333</ele><time>2026-04-27T13:02:37.111Z</time></trkpt><trkpt lat="39.36323268974583" lon="8.438733102912384"><ele>268.0</ele><time>2026-04-27T13:02:38.111Z</time></trkpt><trkpt lat="39.36339559551703" lon="8.438736548909858"><ele>268.0</ele><time>2026-04-27T13:02:39.111Z</time></trkpt><trkpt lat="39.363532255091506" lon="8.438671334729277"><ele>268.0</ele><time>2026-04-27T13:02:40.111Z</time></trkpt><trkpt lat="39.36363741621947" lon="8.438562655810934"><ele>268.0</ele><time>2026-04-27T13:02:41.111Z</time></trkpt><trkpt lat="39.3637119117045" lon="8.438431592096327"><ele>268.0</ele><time>2026-04-27T13:02:42.111Z</time></trkpt><trkpt lat="39.3637753121756" lon="8.438260409589123"><ele>268.0</ele><time>2026-04-27T13:02:43.111Z</time></trkpt><trkpt lat="39.36378649554165" lon="8.438080756600046"><ele>268.0</ele><time>2026-04-27T13:02:44.111Z</time></trkpt><trkpt lat="39.36376442795431" lon="8.437907698955941"><ele>268.0</ele><time>2026-04-27T13:02:45.111Z</time></trkpt><trkpt lat="39.363708805551006" lon="8.437726996641572"><ele>268.0</ele><time>2026-04-27T13:02:46.111Z</time></trkpt><trkpt lat="39.363643657459185" lon="8.437545931978514"><ele>269.0</ele><time>2026-04-27T13:02:47.111Z</time></trkpt><trkpt lat="39.36358525955135" lon="8.437339312616752"><ele>270.0</ele><time>2026-04-27T13:02:48.111Z</time></trkpt><trkpt lat="39.363561814736386" lon="8.43712535485115"><ele>271.0</ele><time>2026-04-27T13:02:49.111Z</time></trkpt><trkpt lat="39.36359061492143" lon="8.436904474907665"><ele>271.0</ele><time>2026-04-27T13:02:50.111Z</time></trkpt><trkpt lat="39.36365131078256" lon="8.436668475288824"><ele>271.0</ele><time>2026-04-27T13:02:51.111Z</time></trkpt><trkpt lat="39.36366568437157" lon="8.436417805692354"><ele>271.0</ele><time>2026-04-27T13:02:52.111Z</time></trkpt><trkpt lat="39.363643446944664" lon="8.436155744949446"><ele>269.0</ele><time>2026-04-27T13:02:53.111Z</time></trkpt><trkpt lat="39.36359752778579" lon="8.4358994809271"><ele>267.0</ele><time>2026-04-27T13:02:54.111Z</time></trkpt><trkpt lat="39.36351678506625" lon="8.435620183027009"><ele>265.0</ele><time>2026-04-27T13:02:55.111Z</time></trkpt><trkpt lat="39.36348006226543" lon="8.43538146294305"><ele>263.0</ele><time>2026-04-27T13:02:56.111Z</time></trkpt><trkpt lat="39.36345805823784" lon="8.43514139921617"><ele>261.0</ele><time>2026-04-27T13:02:57.111Z</time></trkpt><trkpt lat="39.363467899820655" lon="8.434897844713785"><ele>259.0</ele><time>2026-04-27T13:02:58.111Z</time></trkpt><trkpt lat="39.36350150330159" lon="8.434645336393146"><ele>257.3333333333333</ele><time>2026-04-27T13:02:59.111Z</time></trkpt><trkpt lat="39.36354689866874" lon="8.434375349628727"><ele>255.66666666666669</ele><time>2026-04-27T13:03:00.111Z</time></trkpt><trkpt lat="39.363574505598244" lon="8.434089308810341"><ele>254.0</ele><time>2026-04-27T13:03:01.111Z</time></trkpt><trkpt lat="39.363594877768946" lon="8.433794087267891"><ele>252.5</ele><time>2026-04-27T13:03:02.111Z</time></trkpt><trkpt lat="39.36359552669174" lon="8.433496760687625"><ele>251.0</ele><time>2026-04-27T13:03:03.111Z</time></trkpt><trkpt lat="39.363591610560114" lon="8.433199900104638"><ele>249.0</ele><time>2026-04-27T13:03:04.111Z</time></trkpt><trkpt lat="39.363593240522654" lon="8.432908132721826"><ele>247.0</ele><time>2026-04-27T13:03:05.111Z</time></trkpt><trkpt lat="39.36359382429831" lon="8.432624154775901"><ele>245.0</ele><time>2026-04-27T13:03:06.111Z</time></trkpt><trkpt lat="39.363589699623795" lon="8.43236141895069"><ele>243.0</ele><time>2026-04-27T13:03:07.112Z</time></trkpt><trkpt lat="39.363622295309646" lon="8.432115565845132"><ele>241.0</ele><time>2026-04-27T13:03:08.112Z</time></trkpt><trkpt lat="39.36370213178014" lon="8.431877549266648"><ele>239.0</ele><time>2026-04-27T13:03:09.112Z</time></trkpt><trkpt lat="39.363812524755" lon="8.431644496008403"><ele>242.33333333333334</ele><time>2026-04-27T13:03:10.112Z</time></trkpt><trkpt lat="39.36389786421007" lon="8.431393890247188"><ele>245.66666666666669</ele><time>2026-04-27T13:03:11.112Z</time></trkpt><trkpt lat="39.36394245563179" lon="8.43112079983821"><ele>249.0</ele><time>2026-04-27T13:03:12.112Z</time></trkpt><trkpt lat="39.36394317428232" lon="8.43085487160805"><ele>249.0</ele><time>2026-04-27T13:03:13.112Z</time></trkpt><trkpt lat="39.36390978030136" lon="8.430588186540064"><ele>249.0</ele><time>2026-04-27T13:03:14.112Z</time></trkpt><trkpt lat="39.36385814495035" lon="8.430325654298956"><ele>249.0</ele><time>2026-04-27T13:03:15.112Z</time></trkpt><trkpt lat="39.363841785283384" lon="8.43009736849666"><ele>247.0</ele><time>2026-04-27T13:03:16.112Z</time></trkpt><trkpt lat="39.36388703677547" lon="8.429894557992377"><ele>245.0</ele><time>2026-04-27T13:03:17.112Z</time></trkpt><trkpt lat="39.36400204869995" lon="8.429703900823196"><ele>243.0</ele><time>2026-04-27T13:03:18.112Z</time></trkpt><trkpt lat="39.36415890103835" lon="8.429527276999012"><ele>240.66666666666669</ele><time>2026-04-27T13:03:19.112Z</time></trkpt><trkpt lat="39.36428622010842" lon="8.429348228059153"><ele>238.33333333333334</ele><time>2026-04-27T13:03:20.112Z</time></trkpt><trkpt lat="39.36435962981318" lon="8.429158856157853"><ele>236.0</ele><time>2026-04-27T13:03:21.112Z</time></trkpt><trkpt lat="39.36437133053729" lon="8.428958203452341"><ele>234.0</ele><time>2026-04-27T13:03:22.112Z</time></trkpt><trkpt lat="39.36429888337507" lon="8.428756507650334"><ele>232.0</ele><time>2026-04-27T13:03:23.112Z</time></trkpt><trkpt lat="39.36417922610975" lon="8.428558345280885"><ele>230.0</ele><time>2026-04-27T13:03:24.112Z</time></trkpt><trkpt lat="39.36409864834556" lon="8.428362544501375"><ele>230.0</ele><time>2026-04-27T13:03:25.112Z</time></trkpt><trkpt lat="39.36412310490961" lon="8.428164989614904"><ele>230.0</ele><time>2026-04-27T13:03:26.112Z</time></trkpt><trkpt lat="39.364250092747156" lon="8.427981849159865"><ele>230.0</ele><time>2026-04-27T13:03:27.112Z</time></trkpt><trkpt lat="39.364385849666334" lon="8.427803304129117"><ele>229.0</ele><time>2026-04-27T13:03:28.112Z</time></trkpt><trkpt lat="39.364469453861176" lon="8.427610603032395"><ele>228.0</ele><time>2026-04-27T13:03:29.112Z</time></trkpt><trkpt lat="39.3644721511914" lon="8.427411392706412"><ele>227.0</ele><time>2026-04-27T13:03:30.112Z</time></trkpt><trkpt lat="39.36439683268428" lon="8.427208218385669"><ele>227.66666666666669</ele><time>2026-04-27T13:03:31.112Z</time></trkpt><trkpt lat="39.36432061821361" lon="8.427005708046194"><ele>228.33333333333331</ele><time>2026-04-27T13:03:32.112Z</time></trkpt><trkpt lat="39.36434053622624" lon="8.426783827442089"><ele>229.0</ele><time>2026-04-27T13:03:33.112Z</time></trkpt><trkpt lat="39.36443117627562" lon="8.42658881688819"><ele>229.0</ele><time>2026-04-27T13:03:34.112Z</time></trkpt><trkpt lat="39.364563013210834" lon="8.42640812760197"><ele>229.0</ele><time>2026-04-27T13:03:35.112Z</time></trkpt><trkpt lat="39.36470671766758" lon="8.426223593889409"><ele>229.0</ele><time>2026-04-27T13:03:36.112Z</time></trkpt><trkpt lat="39.36484880856926" lon="8.426027658451394"><ele>228.0</ele><time>2026-04-27T13:03:37.112Z</time></trkpt><trkpt lat="39.364963283652706" lon="8.425825024766185"><ele>227.0</ele><time>2026-04-27T13:03:38.112Z</time></trkpt><trkpt lat="39.36502266286142" lon="8.42559322762423"><ele>226.0</ele><time>2026-04-27T13:03:39.112Z</time></trkpt><trkpt lat="39.3650429487203" lon="8.425330590130317"><ele>225.33333333333331</ele><time>2026-04-27T13:03:40.112Z</time></trkpt><trkpt lat="39.3650159769173" lon="8.425048326373885"><ele>224.66666666666669</ele><time>2026-04-27T13:03:41.112Z</time></trkpt><trkpt lat="39.365006816976596" lon="8.424773430819846"><ele>224.0</ele><time>2026-04-27T13:03:42.112Z</time></trkpt><trkpt lat="39.36500408461466" lon="8.424535294146139"><ele>224.0</ele><time>2026-04-27T13:03:43.112Z</time></trkpt><trkpt lat="39.36495920412764" lon="8.424325700396661"><ele>224.0</ele><time>2026-04-27T13:03:44.112Z</time></trkpt><trkpt lat="39.36484527534124" lon="8.424155151080354"><ele>224.0</ele><time>2026-04-27T13:03:45.112Z</time></trkpt><trkpt lat="39.36469287775069" lon="8.424018703164263"><ele>225.66666666666669</ele><time>2026-04-27T13:03:46.112Z</time></trkpt><trkpt lat="39.36460405635087" lon="8.423868982850248"><ele>227.33333333333331</ele><time>2026-04-27T13:03:47.112Z</time></trkpt><trkpt lat="39.364615386661846" lon="8.423672644325682"><ele>229.0</ele><time>2026-04-27T13:03:48.112Z</time></trkpt><trkpt lat="39.36467242955737" lon="8.423453708058997"><ele>224.0</ele><time>2026-04-27T13:03:49.112Z</time></trkpt><trkpt lat="39.364665875876156" lon="8.423238299274429"><ele>219.0</ele><time>2026-04-27T13:03:50.112Z</time></trkpt><trkpt lat="39.36460473568019" lon="8.422985954271239"><ele>214.0</ele><time>2026-04-27T13:03:51.112Z</time></trkpt><trkpt lat="39.36453450948168" lon="8.422733830276576"><ele>210.33333333333331</ele><time>2026-04-27T13:03:52.112Z</time></trkpt><trkpt lat="39.36453298434503" lon="8.422473941190242"><ele>206.66666666666669</ele><time>2026-04-27T13:03:53.112Z</time></trkpt><trkpt lat="39.36455167044074" lon="8.422214746488962"><ele>203.0</ele><time>2026-04-27T13:03:54.112Z</time></trkpt><trkpt lat="39.364543793334306" lon="8.421960939426205"><ele>200.0</ele><time>2026-04-27T13:03:55.112Z</time></trkpt><trkpt lat="39.364491661667834" lon="8.421711971297508"><ele>197.0</ele><time>2026-04-27T13:03:56.112Z</time></trkpt><trkpt lat="39.36441988015325" lon="8.421451817325895"><ele>194.0</ele><time>2026-04-27T13:03:57.112Z</time></trkpt><trkpt lat="39.3643271718106" lon="8.42119472195339"><ele>193.0</ele><time>2026-04-27T13:03:58.112Z</time></trkpt><trkpt lat="39.364203914369966" lon="8.420960514033688"><ele>192.0</ele><time>2026-04-27T13:03:59.112Z</time></trkpt><trkpt lat="39.36406749069288" lon="8.420758838035661"><ele>191.0</ele><time>2026-04-27T13:04:00.112Z</time></trkpt><trkpt lat="39.36395933433616" lon="8.420543402643656"><ele>187.33333333333331</ele><time>2026-04-27T13:04:01.112Z</time></trkpt><trkpt lat="39.36390169089726" lon="8.420322212927225"><ele>183.66666666666666</ele><time>2026-04-27T13:04:02.112Z</time></trkpt><trkpt lat="39.36391709846321" lon="8.420114283658592"><ele>180.0</ele><time>2026-04-27T13:04:03.112Z</time></trkpt><trkpt lat="39.36399850689393" lon="8.41990285072615"><ele>180.0</ele><time>2026-04-27T13:04:04.112Z</time></trkpt><trkpt lat="39.364096799269994" lon="8.41969085855605"><ele>180.0</ele><time>2026-04-27T13:04:05.112Z</time></trkpt><trkpt lat="39.36415949708234" lon="8.419496685750792"><ele>180.0</ele><time>2026-04-27T13:04:06.112Z</time></trkpt><trkpt lat="39.364149327885606" lon="8.41929784713585"><ele>179.33333333333334</ele><time>2026-04-27T13:04:07.112Z</time></trkpt><trkpt lat="39.36407833416845" lon="8.41909595802256"><ele>178.66666666666669</ele><time>2026-04-27T13:04:08.112Z</time></trkpt><trkpt lat="39.363951342657565" lon="8.41893171612639"><ele>178.0</ele><time>2026-04-27T13:04:09.112Z</time></trkpt><trkpt lat="39.36378324930838" lon="8.418823425885813"><ele>174.33333333333334</ele><time>2026-04-27T13:04:10.112Z</time></trkpt><trkpt lat="39.363605372124994" lon="8.41871806781057"><ele>170.66666666666666</ele><time>2026-04-27T13:04:11.112Z</time></trkpt><trkpt lat="39.36344518776374" lon="8.418558355490687"><ele>167.0</ele><time>2026-04-27T13:04:12.112Z</time></trkpt><trkpt lat="39.36330813811374" lon="8.418342186702779"><ele>167.0</ele><time>2026-04-27T13:04:13.112Z</time></trkpt><trkpt lat="39.36319700110051" lon="8.418131238992663"><ele>167.0</ele><time>2026-04-27T13:04:14.112Z</time></trkpt><trkpt lat="39.36308594364772" lon="8.41794534079634"><ele>167.0</ele><time>2026-04-27T13:04:15.112Z</time></trkpt><trkpt lat="39.36294774678721" lon="8.417828694758075"><ele>166.66666666666666</ele><time>2026-04-27T13:04:16.112Z</time></trkpt><trkpt lat="39.362763365766085" lon="8.417774602606542"><ele>166.33333333333334</ele><time>2026-04-27T13:04:17.112Z</time></trkpt><trkpt lat="39.36256737086495" lon="8.4177068565311"><ele>166.0</ele><time>2026-04-27T13:04:18.114Z</time></trkpt><trkpt lat="39.36237804140634" lon="8.417551012586731"><ele>164.0</ele><time>2026-04-27T13:04:19.113Z</time></trkpt><trkpt lat="39.362196079441205" lon="8.417363685977895"><ele>162.0</ele><time>2026-04-27T13:04:20.113Z</time></trkpt><trkpt lat="39.362010030366804" lon="8.417171103606838"><ele>159.5</ele><time>2026-04-27T13:04:21.114Z</time></trkpt><trkpt lat="39.361819936235555" lon="8.416993234660929"><ele>157.0</ele><time>2026-04-27T13:04:22.113Z</time></trkpt><trkpt lat="39.36164847529815" lon="8.416816871378773"><ele>157.0</ele><time>2026-04-27T13:04:23.113Z</time></trkpt><trkpt lat="39.361502545706585" lon="8.416610857178103"><ele>157.0</ele><time>2026-04-27T13:04:24.114Z</time></trkpt><trkpt lat="39.36137634006739" lon="8.41636633434832"><ele>157.0</ele><time>2026-04-27T13:04:25.114Z</time></trkpt><trkpt lat="39.36124344855005" lon="8.416118743893392"><ele>153.0</ele><time>2026-04-27T13:04:26.114Z</time></trkpt><trkpt lat="39.361093995816546" lon="8.415885454783675"><ele>149.0</ele><time>2026-04-27T13:04:27.114Z</time></trkpt><trkpt lat="39.360936309138935" lon="8.415648547802546"><ele>151.0</ele><time>2026-04-27T13:04:28.114Z</time></trkpt><trkpt lat="39.36078225447585" lon="8.415417440730561"><ele>153.0</ele><time>2026-04-27T13:04:29.114Z</time></trkpt><trkpt lat="39.36063840998639" lon="8.415205666653224"><ele>151.0</ele><time>2026-04-27T13:04:30.113Z</time></trkpt><trkpt lat="39.36049378581257" lon="8.414993168709193"><ele>149.0</ele><time>2026-04-27T13:04:31.114Z</time></trkpt><trkpt lat="39.3603770747069" lon="8.414784059991284"><ele>147.0</ele><time>2026-04-27T13:04:32.114Z</time></trkpt><trkpt lat="39.360303058865846" lon="8.414530803587585"><ele>144.0</ele><time>2026-04-27T13:04:33.114Z</time></trkpt><trkpt lat="39.360236058482464" lon="8.414242161369359"><ele>141.0</ele><time>2026-04-27T13:04:34.114Z</time></trkpt><trkpt lat="39.3601553545229" lon="8.413946015525546"><ele>139.5</ele><time>2026-04-27T13:04:35.114Z</time></trkpt><trkpt lat="39.36005818980041" lon="8.413647266629892"><ele>138.0</ele><time>2026-04-27T13:04:36.114Z</time></trkpt><trkpt lat="39.359959037812686" lon="8.413349990335337"><ele>138.0</ele><time>2026-04-27T13:04:37.114Z</time></trkpt><trkpt lat="39.359860859303765" lon="8.413055702874448"><ele>138.0</ele><time>2026-04-27T13:04:38.114Z</time></trkpt><trkpt lat="39.359787729594395" lon="8.412767554377528"><ele>139.0</ele><time>2026-04-27T13:04:39.114Z</time></trkpt><trkpt lat="39.359759834276424" lon="8.412474775606931"><ele>140.0</ele><time>2026-04-27T13:04:40.114Z</time></trkpt><trkpt lat="39.35976104974763" lon="8.41216516135135"><ele>140.0</ele><time>2026-04-27T13:04:41.114Z</time></trkpt><trkpt lat="39.35975777662786" lon="8.411860789382542"><ele>140.0</ele><time>2026-04-27T13:04:42.114Z</time></trkpt><trkpt lat="39.35974694667854" lon="8.411540551432402"><ele>139.5</ele><time>2026-04-27T13:04:43.114Z</time></trkpt><trkpt lat="39.359734663515546" lon="8.411224790310136"><ele>139.0</ele><time>2026-04-27T13:04:44.114Z</time></trkpt><trkpt lat="39.359693634224726" lon="8.410907109602919"><ele>136.0</ele><time>2026-04-27T13:04:45.114Z</time></trkpt><trkpt lat="39.35963877695803" lon="8.410595757981538"><ele>133.0</ele><time>2026-04-27T13:04:46.114Z</time></trkpt><trkpt lat="39.35957441317639" lon="8.41030200607122"><ele>130.0</ele><time>2026-04-27T13:04:47.114Z</time></trkpt><trkpt lat="39.359505297044116" lon="8.41002271726938"><ele>127.0</ele><time>2026-04-27T13:04:48.114Z</time></trkpt><trkpt lat="39.35944152753579" lon="8.409759519549977"><ele>124.0</ele><time>2026-04-27T13:04:49.114Z</time></trkpt><trkpt lat="39.359428694854195" lon="8.409496338390943"><ele>121.66666666666667</ele><time>2026-04-27T13:04:50.114Z</time></trkpt><trkpt lat="39.35947291922597" lon="8.409240498050764"><ele>119.33333333333334</ele><time>2026-04-27T13:04:51.114Z</time></trkpt><trkpt lat="39.35957089658919" lon="8.408981490511769"><ele>117.0</ele><time>2026-04-27T13:04:52.114Z</time></trkpt><trkpt lat="39.35968783469416" lon="8.408715960652808"><ele>117.0</ele><time>2026-04-27T13:04:53.114Z</time></trkpt><trkpt lat="39.35980126012609" lon="8.408442867449573"><ele>117.0</ele><time>2026-04-27T13:04:54.114Z</time></trkpt><trkpt lat="39.359902255765824" lon="8.408168022876128"><ele>114.0</ele><time>2026-04-27T13:04:55.114Z</time></trkpt><trkpt lat="39.35994860135108" lon="8.407888310787758"><ele>111.0</ele><time>2026-04-27T13:04:56.114Z</time></trkpt><trkpt lat="39.35995256296618" lon="8.407609311526441"><ele>108.0</ele><time>2026-04-27T13:04:57.114Z</time></trkpt><trkpt lat="39.35991641129464" lon="8.40734350027827"><ele>106.66666666666666</ele><time>2026-04-27T13:04:58.115Z</time></trkpt><trkpt lat="39.35995902045031" lon="8.407107389360496"><ele>105.33333333333333</ele><time>2026-04-27T13:04:59.115Z</time></trkpt><trkpt lat="39.36007075194004" lon="8.406878646915793"><ele>104.0</ele><time>2026-04-27T13:05:00.115Z</time></trkpt><trkpt lat="39.360211746541815" lon="8.406654489323229"><ele>104.0</ele><time>2026-04-27T13:05:01.115Z</time></trkpt><trkpt lat="39.360363751565465" lon="8.406434858917672"><ele>104.0</ele><time>2026-04-27T13:05:02.115Z</time></trkpt><trkpt lat="39.360484661834974" lon="8.406175202774875"><ele>105.5</ele><time>2026-04-27T13:05:03.115Z</time></trkpt><trkpt lat="39.36059883285779" lon="8.40590956668792"><ele>107.0</ele><time>2026-04-27T13:05:04.115Z</time></trkpt><trkpt lat="39.360686287745054" lon="8.40564834663928"><ele>102.0</ele><time>2026-04-27T13:05:05.115Z</time></trkpt><trkpt lat="39.360762048826054" lon="8.405388294231807"><ele>97.0</ele><time>2026-04-27T13:05:06.115Z</time></trkpt><trkpt lat="39.36082279045975" lon="8.405156398674043"><ele>92.0</ele><time>2026-04-27T13:05:07.115Z</time></trkpt><trkpt lat="39.360916308035826" lon="8.40496526412263"><ele>92.0</ele><time>2026-04-27T13:05:08.115Z</time></trkpt><trkpt lat="39.36106543222726" lon="8.404829089755898"><ele>92.0</ele><time>2026-04-27T13:05:09.115Z</time></trkpt><trkpt lat="39.36125068380556" lon="8.40470192270432"><ele>92.0</ele><time>2026-04-27T13:05:10.115Z</time></trkpt><trkpt lat="39.3614479736" lon="8.40456482529276"><ele>92.0</ele><time>2026-04-27T13:05:11.115Z</time></trkpt><trkpt lat="39.361646864027044" lon="8.404411382134386"><ele>92.0</ele><time>2026-04-27T13:05:12.115Z</time></trkpt><trkpt lat="39.36184341754614" lon="8.404241428408392"><ele>92.0</ele><time>2026-04-27T13:05:13.115Z</time></trkpt><trkpt lat="39.362041186261024" lon="8.404064000064182"><ele>92.0</ele><time>2026-04-27T13:05:14.115Z</time></trkpt><trkpt lat="39.36225089612445" lon="8.403883889557882"><ele>88.5</ele><time>2026-04-27T13:05:15.115Z</time></trkpt><trkpt lat="39.362461859149654" lon="8.403703780155599"><ele>85.0</ele><time>2026-04-27T13:05:16.115Z</time></trkpt><trkpt lat="39.36266241034351" lon="8.403531273075153"><ele>85.0</ele><time>2026-04-27T13:05:17.115Z</time></trkpt><trkpt lat="39.36283800852336" lon="8.403379501216355"><ele>85.0</ele><time>2026-04-27T13:05:18.115Z</time></trkpt><trkpt lat="39.36298220232052" lon="8.403226641341629"><ele>85.0</ele><time>2026-04-27T13:05:19.115Z</time></trkpt><trkpt lat="39.36306382097985" lon="8.403013063211466"><ele>83.66666666666666</ele><time>2026-04-27T13:05:20.115Z</time></trkpt><trkpt lat="39.36310790996442" lon="8.402773698324495"><ele>82.33333333333333</ele><time>2026-04-27T13:05:21.115Z</time></trkpt><trkpt lat="39.363172505675514" lon="8.402566507744194"><ele>81.0</ele><time>2026-04-27T13:05:22.115Z</time></trkpt><trkpt lat="39.36330032212505" lon="8.402425450000877"><ele>81.0</ele><time>2026-04-27T13:05:23.115Z</time></trkpt><trkpt lat="39.363472135855915" lon="8.402346973380006"><ele>81.0</ele><time>2026-04-27T13:05:24.115Z</time></trkpt><trkpt lat="39.36365103645579" lon="8.402278841387997"><ele>81.0</ele><time>2026-04-27T13:05:25.115Z</time></trkpt><trkpt lat="39.3637700227009" lon="8.402130859425288"><ele>83.33333333333333</ele><time>2026-04-27T13:05:26.115Z</time></trkpt><trkpt lat="39.36383963394538" lon="8.401908581745394"><ele>85.66666666666666</ele><time>2026-04-27T13:05:27.115Z</time></trkpt><trkpt lat="39.36385879952483" lon="8.40166089307583"><ele>88.0</ele><time>2026-04-27T13:05:28.115Z</time></trkpt><trkpt lat="39.36384988416335" lon="8.40144459651847"><ele>84.0</ele><time>2026-04-27T13:05:29.115Z</time></trkpt><trkpt lat="39.36392276910396" lon="8.401291047987042"><ele>80.0</ele><time>2026-04-27T13:05:30.115Z</time></trkpt><trkpt lat="39.36404024971409" lon="8.401211516187436"><ele>76.0</ele><time>2026-04-27T13:05:31.115Z</time></trkpt><trkpt lat="39.36418694587175" lon="8.401237418817878"><ele>72.0</ele><time>2026-04-27T13:05:32.115Z</time></trkpt><trkpt lat="39.3643638006014" lon="8.40131114560387"><ele>72.0</ele><time>2026-04-27T13:05:33.115Z</time></trkpt><trkpt lat="39.36452865251617" lon="8.401354295907103"><ele>72.0</ele><time>2026-04-27T13:05:34.115Z</time></trkpt><trkpt lat="39.364665318552355" lon="8.401278340854406"><ele>72.0</ele><time>2026-04-27T13:05:35.115Z</time></trkpt><trkpt lat="39.364785414528995" lon="8.401128650397753"><ele>69.33333333333333</ele><time>2026-04-27T13:05:36.115Z</time></trkpt><trkpt lat="39.36486258222312" lon="8.400908488658407"><ele>66.66666666666666</ele><time>2026-04-27T13:05:37.115Z</time></trkpt><trkpt lat="39.36488919047267" lon="8.400661996536183"><ele>64.0</ele><time>2026-04-27T13:05:38.115Z</time></trkpt><trkpt lat="39.3648930619892" lon="8.400442745997793"><ele>61.0</ele><time>2026-04-27T13:05:39.115Z</time></trkpt><trkpt lat="39.36493419181" lon="8.400243170800266"><ele>58.0</ele><time>2026-04-27T13:05:40.115Z</time></trkpt><trkpt lat="39.36505184597228" lon="8.400079904057291"><ele>55.0</ele><time>2026-04-27T13:05:41.115Z</time></trkpt><trkpt lat="39.36523148929181" lon="8.399989548997993"><ele>55.0</ele><time>2026-04-27T13:05:42.115Z</time></trkpt><trkpt lat="39.36543628438818" lon="8.399941766875006"><ele>55.0</ele><time>2026-04-27T13:05:43.115Z</time></trkpt><trkpt lat="39.36564833389756" lon="8.39990145066123"><ele>55.0</ele><time>2026-04-27T13:05:44.115Z</time></trkpt><trkpt lat="39.365846687795774" lon="8.39985196665751"><ele>53.33333333333333</ele><time>2026-04-27T13:05:45.115Z</time></trkpt><trkpt lat="39.3660454008182" lon="8.399785975039405"><ele>51.66666666666667</ele><time>2026-04-27T13:05:46.115Z</time></trkpt><trkpt lat="39.36624028368624" lon="8.399711748763211"><ele>50.0</ele><time>2026-04-27T13:05:47.115Z</time></trkpt><trkpt lat="39.36643273098641" lon="8.399631961170552"><ele>48.66666666666667</ele><time>2026-04-27T13:05:48.115Z</time></trkpt><trkpt lat="39.36661700202225" lon="8.39953365972153"><ele>47.333333333333336</ele><time>2026-04-27T13:05:49.115Z</time></trkpt><trkpt lat="39.36677294252574" lon="8.399422023213068"><ele>46.0</ele><time>2026-04-27T13:05:50.115Z</time></trkpt><trkpt lat="39.36689599421407" lon="8.399258654104475"><ele>46.0</ele><time>2026-04-27T13:05:51.115Z</time></trkpt><trkpt lat="39.366986050125" lon="8.39904334111462"><ele>46.0</ele><time>2026-04-27T13:05:52.115Z</time></trkpt><trkpt lat="39.367044712992445" lon="8.398788906003052"><ele>46.0</ele><time>2026-04-27T13:05:53.115Z</time></trkpt><trkpt lat="39.36709630078096" lon="8.398513283719602"><ele>44.0</ele><time>2026-04-27T13:05:54.115Z</time></trkpt><trkpt lat="39.36715792657994" lon="8.398234018364736"><ele>42.0</ele><time>2026-04-27T13:05:55.115Z</time></trkpt><trkpt lat="39.367218087888695" lon="8.397963272897488"><ele>40.0</ele><time>2026-04-27T13:05:56.115Z</time></trkpt><trkpt lat="39.367282481963265" lon="8.397684531902948"><ele>44.5</ele><time>2026-04-27T13:05:57.115Z</time></trkpt><trkpt lat="39.36735335747574" lon="8.39739412065908"><ele>49.0</ele><time>2026-04-27T13:05:58.115Z</time></trkpt><trkpt lat="39.36742031634342" lon="8.397099767459363"><ele>49.0</ele><time>2026-04-27T13:05:59.115Z</time></trkpt><trkpt lat="39.36748790904022" lon="8.396802869309909"><ele>49.0</ele><time>2026-04-27T13:06:00.115Z</time></trkpt><trkpt lat="39.36755883635963" lon="8.396510868568374"><ele>44.0</ele><time>2026-04-27T13:06:01.115Z</time></trkpt><trkpt lat="39.36762627121838" lon="8.39622260236655"><ele>39.0</ele><time>2026-04-27T13:06:02.115Z</time></trkpt><trkpt lat="39.36769097164206" lon="8.395953096790008"><ele>39.0</ele><time>2026-04-27T13:06:03.115Z</time></trkpt><trkpt lat="39.367759465616786" lon="8.39570433247168"><ele>39.0</ele><time>2026-04-27T13:06:04.115Z</time></trkpt><trkpt lat="39.367856674099265" lon="8.39546479565498"><ele>39.0</ele><time>2026-04-27T13:06:05.115Z</time></trkpt><trkpt lat="39.36798084224698" lon="8.395239707431225"><ele>40.0</ele><time>2026-04-27T13:06:06.115Z</time></trkpt><trkpt lat="39.36813031073498" lon="8.395036561783401"><ele>41.0</ele><time>2026-04-27T13:06:07.115Z</time></trkpt><trkpt lat="39.36830569990663" lon="8.394859439857408"><ele>42.0</ele><time>2026-04-27T13:06:08.115Z</time></trkpt><trkpt lat="39.36849539373642" lon="8.394707923474126"><ele>41.333333333333336</ele><time>2026-04-27T13:06:09.115Z</time></trkpt><trkpt lat="39.36869659137117" lon="8.39457620227254"><ele>40.66666666666667</ele><time>2026-04-27T13:06:10.115Z</time></trkpt><trkpt lat="39.368886960874505" lon="8.394486411865435"><ele>40.0</ele><time>2026-04-27T13:06:11.116Z</time></trkpt><trkpt lat="39.369104574441664" lon="8.394543353573651"><ele>37.333333333333336</ele><time>2026-04-27T13:06:12.116Z</time></trkpt><trkpt lat="39.36929120310915" lon="8.3945946395571"><ele>34.666666666666664</ele><time>2026-04-27T13:06:13.116Z</time></trkpt><trkpt lat="39.36948960562822" lon="8.394629414164939"><ele>32.0</ele><time>2026-04-27T13:06:14.116Z</time></trkpt><trkpt lat="39.36967800816056" lon="8.394570888515686"><ele>36.666666666666664</ele><time>2026-04-27T13:06:15.116Z</time></trkpt><trkpt lat="39.369843448312466" lon="8.394426778696262"><ele>41.333333333333336</ele><time>2026-04-27T13:06:16.116Z</time></trkpt><trkpt lat="39.369998212579965" lon="8.394240962999046"><ele>46.0</ele><time>2026-04-27T13:06:17.116Z</time></trkpt><trkpt lat="39.37012406172559" lon="8.39403449308421"><ele>42.333333333333336</ele><time>2026-04-27T13:06:18.116Z</time></trkpt><trkpt lat="39.37022831742245" lon="8.393800590761533"><ele>38.666666666666664</ele><time>2026-04-27T13:06:19.116Z</time></trkpt><trkpt lat="39.37029848473459" lon="8.393554836536712"><ele>35.0</ele><time>2026-04-27T13:06:20.116Z</time></trkpt><trkpt lat="39.37032002411726" lon="8.393309763104735"><ele>35.0</ele><time>2026-04-27T13:06:21.116Z</time></trkpt><trkpt lat="39.37035496795052" lon="8.393130178002515"><ele>35.0</ele><time>2026-04-27T13:06:22.116Z</time></trkpt><trkpt lat="39.370438540377336" lon="8.393031811313612"><ele>35.0</ele><time>2026-04-27T13:06:23.116Z</time></trkpt><trkpt lat="39.37057017079125" lon="8.393023451640287"><ele>35.0</ele><time>2026-04-27T13:06:24.117Z</time></trkpt><trkpt lat="39.370729553779675" lon="8.393124232938998"><ele>40.0</ele><time>2026-04-27T13:06:25.117Z</time></trkpt><trkpt lat="39.37086115534305" lon="8.39329616509978"><ele>45.0</ele><time>2026-04-27T13:06:26.117Z</time></trkpt><trkpt lat="39.370995251918394" lon="8.39349240525021"><ele>50.0</ele><time>2026-04-27T13:06:27.117Z</time></trkpt><trkpt lat="39.37113650661871" lon="8.39366901499473"><ele>50.0</ele><time>2026-04-27T13:06:28.117Z</time></trkpt><trkpt lat="39.371290651256835" lon="8.393793721232885"><ele>50.0</ele><time>2026-04-27T13:06:29.117Z</time></trkpt><trkpt lat="39.37147412346834" lon="8.3938271717725"><ele>50.0</ele><time>2026-04-27T13:06:30.117Z</time></trkpt><trkpt lat="39.37167399873308" lon="8.39381767273403"><ele>56.333333333333336</ele><time>2026-04-27T13:06:31.116Z</time></trkpt><trkpt lat="39.371871102707296" lon="8.393845169291206"><ele>62.66666666666667</ele><time>2026-04-27T13:06:32.116Z</time></trkpt><trkpt lat="39.37206109921367" lon="8.393906008441313"><ele>69.0</ele><time>2026-04-27T13:06:33.117Z</time></trkpt><trkpt lat="39.372224050530235" lon="8.39397375818125"><ele>69.0</ele><time>2026-04-27T13:06:34.117Z</time></trkpt><trkpt lat="39.37233410245534" lon="8.394057804285513"><ele>69.0</ele><time>2026-04-27T13:06:35.117Z</time></trkpt><trkpt lat="39.37240168987029" lon="8.394206898654017"><ele>69.0</ele><time>2026-04-27T13:06:36.117Z</time></trkpt><trkpt lat="39.37240543470978" lon="8.394418585458268"><ele>69.0</ele><time>2026-04-27T13:06:37.117Z</time></trkpt><trkpt lat="39.372363450227084" lon="8.394651685552734"><ele>72.66666666666667</ele><time>2026-04-27T13:06:38.117Z</time></trkpt><trkpt lat="39.37233849077357" lon="8.394891919148204"><ele>76.33333333333334</ele><time>2026-04-27T13:06:39.117Z</time></trkpt><trkpt lat="39.372322457308165" lon="8.395136937697476"><ele>80.0</ele><time>2026-04-27T13:06:40.117Z</time></trkpt><trkpt lat="39.37230647223786" lon="8.395383538761504"><ele>83.66666666666667</ele><time>2026-04-27T13:06:41.117Z</time></trkpt><trkpt lat="39.372300117347926" lon="8.39564527929788"><ele>87.33333333333333</ele><time>2026-04-27T13:06:42.117Z</time></trkpt><trkpt lat="39.37228775928842" lon="8.395888937325712"><ele>91.0</ele><time>2026-04-27T13:06:43.117Z</time></trkpt><trkpt lat="39.3722527186135" lon="8.39608008637646"><ele>91.0</ele><time>2026-04-27T13:06:44.117Z</time></trkpt><trkpt lat="39.37219378369737" lon="8.396229295186304"><ele>91.0</ele><time>2026-04-27T13:06:45.117Z</time></trkpt><trkpt lat="39.37215075419556" lon="8.396354830482972"><ele>91.0</ele><time>2026-04-27T13:06:46.117Z</time></trkpt><trkpt lat="39.372187387853465" lon="8.396453522857868"><ele>91.0</ele><time>2026-04-27T13:06:47.117Z</time></trkpt><trkpt lat="39.37227592923986" lon="8.396503254252918"><ele>91.0</ele><time>2026-04-27T13:06:48.117Z</time></trkpt><trkpt lat="39.37240526776032" lon="8.396459047438604"><ele>91.0</ele><time>2026-04-27T13:06:49.117Z</time></trkpt><trkpt lat="39.372509591264645" lon="8.396333481798662"><ele>91.0</ele><time>2026-04-27T13:06:50.117Z</time></trkpt><trkpt lat="39.37258264584902" lon="8.396115619832825"><ele>91.0</ele><time>2026-04-27T13:06:51.117Z</time></trkpt><trkpt lat="39.37261407152528" lon="8.395864046580591"><ele>91.0</ele><time>2026-04-27T13:06:52.117Z</time></trkpt><trkpt lat="39.37266563652988" lon="8.395618163870887"><ele>91.0</ele><time>2026-04-27T13:06:53.117Z</time></trkpt><trkpt lat="39.3727559723561" lon="8.395387182827161"><ele>91.0</ele><time>2026-04-27T13:06:54.117Z</time></trkpt><trkpt lat="39.37286797112689" lon="8.395154057521907"><ele>91.66666666666666</ele><time>2026-04-27T13:06:55.117Z</time></trkpt><trkpt lat="39.37298747614881" lon="8.394919256702595"><ele>92.33333333333333</ele><time>2026-04-27T13:06:56.117Z</time></trkpt><trkpt lat="39.37310386972768" lon="8.39468093992573"><ele>93.0</ele><time>2026-04-27T13:06:57.117Z</time></trkpt><trkpt lat="39.37321243930137" lon="8.394437453971522"><ele>93.0</ele><time>2026-04-27T13:06:58.117Z</time></trkpt><trkpt lat="39.37332177197661" lon="8.394197655291563"><ele>93.0</ele><time>2026-04-27T13:06:59.117Z</time></trkpt><trkpt lat="39.373455555540104" lon="8.393974812266983"><ele>93.0</ele><time>2026-04-27T13:07:00.117Z</time></trkpt><trkpt lat="39.37361196502172" lon="8.393776846019218"><ele>93.33333333333333</ele><time>2026-04-27T13:07:01.117Z</time></trkpt><trkpt lat="39.373766857290875" lon="8.393589599933984"><ele>93.66666666666666</ele><time>2026-04-27T13:07:02.117Z</time></trkpt><trkpt lat="39.37390050933792" lon="8.393430708123795"><ele>94.0</ele><time>2026-04-27T13:07:03.117Z</time></trkpt><trkpt lat="39.37402691793813" lon="8.393309133592423"><ele>98.0</ele><time>2026-04-27T13:07:04.117Z</time></trkpt><trkpt lat="39.374184533584916" lon="8.393231218354217"><ele>102.0</ele><time>2026-04-27T13:07:05.117Z</time></trkpt><trkpt lat="39.37436850141365" lon="8.393230946397866"><ele>106.0</ele><time>2026-04-27T13:07:06.117Z</time></trkpt><trkpt lat="39.37455988416234" lon="8.39329551069088"><ele>107.33333333333334</ele><time>2026-04-27T13:07:07.117Z</time></trkpt><trkpt lat="39.37474374170768" lon="8.393416446974792"><ele>108.66666666666666</ele><time>2026-04-27T13:07:08.117Z</time></trkpt><trkpt lat="39.37492888224654" lon="8.393558020537814"><ele>110.0</ele><time>2026-04-27T13:07:09.117Z</time></trkpt><trkpt lat="39.37511902542041" lon="8.393697789594361"><ele>112.0</ele><time>2026-04-27T13:07:10.117Z</time></trkpt><trkpt lat="39.37530827985568" lon="8.393856870294599"><ele>114.0</ele><time>2026-04-27T13:07:11.117Z</time></trkpt><trkpt lat="39.3754951067007" lon="8.39402792868679"><ele>112.5</ele><time>2026-04-27T13:07:12.117Z</time></trkpt><trkpt lat="39.375685373362124" lon="8.39420919665042"><ele>111.0</ele><time>2026-04-27T13:07:13.117Z</time></trkpt><trkpt lat="39.37588218654321" lon="8.394397615546648"><ele>111.0</ele><time>2026-04-27T13:07:14.117Z</time></trkpt><trkpt lat="39.37608545978282" lon="8.394588304726561"><ele>111.0</ele><time>2026-04-27T13:07:15.117Z</time></trkpt><trkpt lat="39.37629251213093" lon="8.394781054572297"><ele>112.5</ele><time>2026-04-27T13:07:16.117Z</time></trkpt><trkpt lat="39.37649774464956" lon="8.39497754007727"><ele>114.0</ele><time>2026-04-27T13:07:17.117Z</time></trkpt><trkpt lat="39.37668920883635" lon="8.395149981041742"><ele>114.0</ele><time>2026-04-27T13:07:18.117Z</time></trkpt><trkpt lat="39.3769012701123" lon="8.395301927891179"><ele>114.0</ele><time>2026-04-27T13:07:19.117Z</time></trkpt><trkpt lat="39.37712607784024" lon="8.395384156679738"><ele>115.0</ele><time>2026-04-27T13:07:20.117Z</time></trkpt><trkpt lat="39.37736268421598" lon="8.395424259574343"><ele>116.0</ele><time>2026-04-27T13:07:21.117Z</time></trkpt><trkpt lat="39.377612770190694" lon="8.39545625092322"><ele>120.5</ele><time>2026-04-27T13:07:22.117Z</time></trkpt><trkpt lat="39.37786621697725" lon="8.395504887046853"><ele>125.0</ele><time>2026-04-27T13:07:23.117Z</time></trkpt><trkpt lat="39.378108529657126" lon="8.395575969478472"><ele>125.0</ele><time>2026-04-27T13:07:24.117Z</time></trkpt><trkpt lat="39.37833879419064" lon="8.3956628395924"><ele>125.0</ele><time>2026-04-27T13:07:25.117Z</time></trkpt><trkpt lat="39.378549676230605" lon="8.395736039706167"><ele>125.0</ele><time>2026-04-27T13:07:26.117Z</time></trkpt><trkpt lat="39.37874434514829" lon="8.395778713205319"><ele>125.0</ele><time>2026-04-27T13:07:27.118Z</time></trkpt><trkpt lat="39.37892564524268" lon="8.395759202576516"><ele>125.0</ele><time>2026-04-27T13:07:28.118Z</time></trkpt><trkpt lat="39.37909276196848" lon="8.395645536244457"><ele>124.33333333333333</ele><time>2026-04-27T13:07:29.118Z</time></trkpt><trkpt lat="39.379230393011454" lon="8.39544896045116"><ele>123.66666666666666</ele><time>2026-04-27T13:07:30.118Z</time></trkpt><trkpt lat="39.37934277254236" lon="8.395204282831605"><ele>123.0</ele><time>2026-04-27T13:07:31.118Z</time></trkpt><trkpt lat="39.37947439815187" lon="8.394979553412224"><ele>123.0</ele><time>2026-04-27T13:07:32.118Z</time></trkpt><trkpt lat="39.379664451347175" lon="8.394846727114427"><ele>123.0</ele><time>2026-04-27T13:07:33.118Z</time></trkpt><trkpt lat="39.37988445354122" lon="8.394777198953815"><ele>123.0</ele><time>2026-04-27T13:07:34.118Z</time></trkpt><trkpt lat="39.38011239934448" lon="8.394722764180464"><ele>124.33333333333334</ele><time>2026-04-27T13:07:35.118Z</time></trkpt><trkpt lat="39.38032818102147" lon="8.394655855133445"><ele>125.66666666666667</ele><time>2026-04-27T13:07:36.118Z</time></trkpt><trkpt lat="39.38055077671376" lon="8.394614586136678"><ele>127.0</ele><time>2026-04-27T13:07:37.118Z</time></trkpt><trkpt lat="39.380775609356846" lon="8.394597370647737"><ele>128.33333333333334</ele><time>2026-04-27T13:07:38.118Z</time></trkpt><trkpt lat="39.380995795056926" lon="8.39456606200358"><ele>129.66666666666666</ele><time>2026-04-27T13:07:39.118Z</time></trkpt><trkpt lat="39.38120608288605" lon="8.394478613387665"><ele>131.0</ele><time>2026-04-27T13:07:40.118Z</time></trkpt><trkpt lat="39.38139889809102" lon="8.394319489999711"><ele>134.0</ele><time>2026-04-27T13:07:41.118Z</time></trkpt><trkpt lat="39.38158156952706" lon="8.394132524409503"><ele>137.0</ele><time>2026-04-27T13:07:42.118Z</time></trkpt><trkpt lat="39.38177377864248" lon="8.393974320165878"><ele>137.0</ele><time>2026-04-27T13:07:43.118Z</time></trkpt><trkpt lat="39.381989697733594" lon="8.393852074709203"><ele>137.0</ele><time>2026-04-27T13:07:44.118Z</time></trkpt><trkpt lat="39.38221937549047" lon="8.393764767923761"><ele>136.0</ele><time>2026-04-27T13:07:45.118Z</time></trkpt><trkpt lat="39.382450635114346" lon="8.39369968530929"><ele>135.0</ele><time>2026-04-27T13:07:46.118Z</time></trkpt><trkpt lat="39.3826849506425" lon="8.393678248312805"><ele>135.0</ele><time>2026-04-27T13:07:47.118Z</time></trkpt><trkpt lat="39.38291770489339" lon="8.393714437360497"><ele>135.0</ele><time>2026-04-27T13:07:48.118Z</time></trkpt><trkpt lat="39.38314057358266" lon="8.393792713705158"><ele>137.66666666666666</ele><time>2026-04-27T13:07:49.118Z</time></trkpt><trkpt lat="39.38335908282781" lon="8.393881493530563"><ele>140.33333333333331</ele><time>2026-04-27T13:07:50.118Z</time></trkpt><trkpt lat="39.38356542258611" lon="8.393960524258528"><ele>143.0</ele><time>2026-04-27T13:07:51.118Z</time></trkpt><trkpt lat="39.38374890380439" lon="8.394026916491814"><ele>142.66666666666666</ele><time>2026-04-27T13:07:52.118Z</time></trkpt><trkpt lat="39.38393540259606" lon="8.394089567538057"><ele>142.33333333333334</ele><time>2026-04-27T13:07:53.118Z</time></trkpt><trkpt lat="39.384136141474656" lon="8.394143415713422"><ele>142.0</ele><time>2026-04-27T13:07:54.118Z</time></trkpt><trkpt lat="39.38434883711509" lon="8.394208217018003"><ele>142.0</ele><time>2026-04-27T13:07:55.118Z</time></trkpt><trkpt lat="39.3845668577321" lon="8.394268257957867"><ele>142.0</ele><time>2026-04-27T13:07:56.118Z</time></trkpt><trkpt lat="39.3847945788006" lon="8.394301953030364"><ele>141.66666666666669</ele><time>2026-04-27T13:07:57.118Z</time></trkpt><trkpt lat="39.3850195039591" lon="8.394316292696885"><ele>141.33333333333334</ele><time>2026-04-27T13:07:58.118Z</time></trkpt><trkpt lat="39.38522741417157" lon="8.394326780371369"><ele>141.0</ele><time>2026-04-27T13:07:59.118Z</time></trkpt><trkpt lat="39.38541583908441" lon="8.39434275871667"><ele>140.33333333333334</ele><time>2026-04-27T13:08:00.118Z</time></trkpt><trkpt lat="39.385596327465265" lon="8.394388068151702"><ele>139.66666666666669</ele><time>2026-04-27T13:08:01.118Z</time></trkpt><trkpt lat="39.38577731705591" lon="8.394473239710223"><ele>139.0</ele><time>2026-04-27T13:08:02.118Z</time></trkpt><trkpt lat="39.385966464502545" lon="8.394581862026143"><ele>138.66666666666669</ele><time>2026-04-27T13:08:03.118Z</time></trkpt><trkpt lat="39.3861614062115" lon="8.394675269258947"><ele>138.33333333333334</ele><time>2026-04-27T13:08:04.118Z</time></trkpt><trkpt lat="39.38637002548593" lon="8.39473582509497"><ele>138.0</ele><time>2026-04-27T13:08:05.118Z</time></trkpt><trkpt lat="39.386587873343764" lon="8.394798418446001"><ele>138.0</ele><time>2026-04-27T13:08:06.118Z</time></trkpt><trkpt lat="39.386800057715746" lon="8.39487345888812"><ele>138.0</ele><time>2026-04-27T13:08:07.118Z</time></trkpt><trkpt lat="39.387007901746045" lon="8.394951467609413"><ele>138.0</ele><time>2026-04-27T13:08:08.118Z</time></trkpt><trkpt lat="39.3872176239539" lon="8.395012578412349"><ele>137.0</ele><time>2026-04-27T13:08:09.118Z</time></trkpt><trkpt lat="39.38742550987845" lon="8.39507037347565"><ele>136.0</ele><time>2026-04-27T13:08:10.118Z</time></trkpt><trkpt lat="39.387628766627564" lon="8.395134601481162"><ele>135.0</ele><time>2026-04-27T13:08:11.118Z</time></trkpt><trkpt lat="39.38782091430616" lon="8.395194605416275"><ele>135.0</ele><time>2026-04-27T13:08:12.118Z</time></trkpt><trkpt lat="39.388007734974956" lon="8.395247302776143"><ele>135.0</ele><time>2026-04-27T13:08:13.118Z</time></trkpt><trkpt lat="39.38820200056221" lon="8.395280986480055"><ele>135.0</ele><time>2026-04-27T13:08:14.118Z</time></trkpt><trkpt lat="39.388406929590666" lon="8.39528259803009"><ele>136.0</ele><time>2026-04-27T13:08:15.118Z</time></trkpt><trkpt lat="39.38861363832415" lon="8.39525089836047"><ele>137.0</ele><time>2026-04-27T13:08:16.118Z</time></trkpt><trkpt lat="39.38882131692665" lon="8.395214632627653"><ele>138.0</ele><time>2026-04-27T13:08:17.118Z</time></trkpt><trkpt lat="39.389027147077506" lon="8.39518496230822"><ele>138.33333333333334</ele><time>2026-04-27T13:08:18.118Z</time></trkpt><trkpt lat="39.38924085320467" lon="8.395175923900222"><ele>138.66666666666669</ele><time>2026-04-27T13:08:19.118Z</time></trkpt><trkpt lat="39.38945581519434" lon="8.395160521171517"><ele>139.0</ele><time>2026-04-27T13:08:20.118Z</time></trkpt><trkpt lat="39.38966388575439" lon="8.395134607714363"><ele>140.0</ele><time>2026-04-27T13:08:21.118Z</time></trkpt><trkpt lat="39.389879365457105" lon="8.395100489904738"><ele>141.0</ele><time>2026-04-27T13:08:22.118Z</time></trkpt><trkpt lat="39.39009664609986" lon="8.395073295122343"><ele>142.0</ele><time>2026-04-27T13:08:23.118Z</time></trkpt><trkpt lat="39.39032021982581" lon="8.395049902420915"><ele>141.5</ele><time>2026-04-27T13:08:24.118Z</time></trkpt><trkpt lat="39.39054486900248" lon="8.395027914005068"><ele>141.0</ele><time>2026-04-27T13:08:25.118Z</time></trkpt><trkpt lat="39.39077057049251" lon="8.395000424548812"><ele>141.0</ele><time>2026-04-27T13:08:26.118Z</time></trkpt><trkpt lat="39.39099788370203" lon="8.394972717448024"><ele>141.0</ele><time>2026-04-27T13:08:27.118Z</time></trkpt><trkpt lat="39.391228179211055" lon="8.394948889914417"><ele>143.0</ele><time>2026-04-27T13:08:28.118Z</time></trkpt><trkpt lat="39.391457101551396" lon="8.394931172604544"><ele>145.0</ele><time>2026-04-27T13:08:29.118Z</time></trkpt><trkpt lat="39.391684158483294" lon="8.394907463683465"><ele>145.0</ele><time>2026-04-27T13:08:30.119Z</time></trkpt><trkpt lat="39.391911419777976" lon="8.394879664024598"><ele>145.0</ele><time>2026-04-27T13:08:31.12Z</time></trkpt><trkpt lat="39.39213441007475" lon="8.394851859313214"><ele>146.0</ele><time>2026-04-27T13:08:32.12Z</time></trkpt><trkpt lat="39.39236266663776" lon="8.394827856994091"><ele>147.0</ele><time>2026-04-27T13:08:33.12Z</time></trkpt><trkpt lat="39.39259208387122" lon="8.39480884871496"><ele>147.0</ele><time>2026-04-27T13:08:34.119Z</time></trkpt><trkpt lat="39.39282190484319" lon="8.394797467142867"><ele>147.0</ele><time>2026-04-27T13:08:35.119Z</time></trkpt><trkpt lat="39.39305468999664" lon="8.394799435848995"><ele>147.0</ele><time>2026-04-27T13:08:36.12Z</time></trkpt><trkpt lat="39.39328717002374" lon="8.394803415423894"><ele>147.0</ele><time>2026-04-27T13:08:37.12Z</time></trkpt><trkpt lat="39.393511521302436" lon="8.394800931571952"><ele>147.0</ele><time>2026-04-27T13:08:38.12Z</time></trkpt><trkpt lat="39.393731831126686" lon="8.39479727514867"><ele>147.0</ele><time>2026-04-27T13:08:39.12Z</time></trkpt><trkpt lat="39.39394385709818" lon="8.394831215126695"><ele>147.0</ele><time>2026-04-27T13:08:40.119Z</time></trkpt><trkpt lat="39.394147652333565" lon="8.394923582979878"><ele>145.66666666666666</ele><time>2026-04-27T13:08:41.119Z</time></trkpt><trkpt lat="39.3943448479979" lon="8.395054077185863"><ele>144.33333333333331</ele><time>2026-04-27T13:08:42.12Z</time></trkpt><trkpt lat="39.3945231309283" lon="8.395215093945772"><ele>143.0</ele><time>2026-04-27T13:08:43.119Z</time></trkpt><trkpt lat="39.394701934620024" lon="8.395386532984904"><ele>145.66666666666666</ele><time>2026-04-27T13:08:44.119Z</time></trkpt><trkpt lat="39.3948808517282" lon="8.395557057155822"><ele>148.33333333333334</ele><time>2026-04-27T13:08:45.119Z</time></trkpt><trkpt lat="39.395067338789985" lon="8.39572024523666"><ele>151.0</ele><time>2026-04-27T13:08:46.119Z</time></trkpt><trkpt lat="39.39526245701697" lon="8.395890055344612"><ele>151.0</ele><time>2026-04-27T13:08:47.119Z</time></trkpt><trkpt lat="39.3954479070275" lon="8.39606758014485"><ele>151.0</ele><time>2026-04-27T13:08:48.119Z</time></trkpt><trkpt lat="39.395608719948456" lon="8.396268185112671"><ele>151.0</ele><time>2026-04-27T13:08:49.119Z</time></trkpt><trkpt lat="39.395743585958144" lon="8.396503437120659"><ele>151.0</ele><time>2026-04-27T13:08:50.119Z</time></trkpt><trkpt lat="39.39585440774714" lon="8.39676249923362"><ele>151.0</ele><time>2026-04-27T13:08:51.119Z</time></trkpt><trkpt lat="39.395939134817404" lon="8.397017637014148"><ele>151.0</ele><time>2026-04-27T13:08:52.119Z</time></trkpt><trkpt lat="39.39598432605442" lon="8.397257801348925"><ele>151.0</ele><time>2026-04-27T13:08:53.119Z</time></trkpt><trkpt lat="39.396001880990404" lon="8.397495529357064"><ele>151.0</ele><time>2026-04-27T13:08:54.12Z</time></trkpt><trkpt lat="39.39599362243623" lon="8.397725110460048"><ele>151.0</ele><time>2026-04-27T13:08:55.12Z</time></trkpt><trkpt lat="39.3959609449048" lon="8.397955571691554"><ele>151.0</ele><time>2026-04-27T13:08:56.12Z</time></trkpt><trkpt lat="39.39590228251664" lon="8.398185512331143"><ele>151.0</ele><time>2026-04-27T13:08:57.12Z</time></trkpt><trkpt lat="39.39583232705151" lon="8.39841332470012"><ele>151.0</ele><time>2026-04-27T13:08:58.12Z</time></trkpt><trkpt lat="39.39575327310455" lon="8.398637181192647"><ele>151.0</ele><time>2026-04-27T13:08:59.12Z</time></trkpt><trkpt lat="39.39565322830444" lon="8.398846566075315"><ele>145.33333333333334</ele><time>2026-04-27T13:09:00.12Z</time></trkpt><trkpt lat="39.39553329743027" lon="8.399042864612731"><ele>139.66666666666666</ele><time>2026-04-27T13:09:01.12Z</time></trkpt><trkpt lat="39.39539596571148" lon="8.399223098045505"><ele>134.0</ele><time>2026-04-27T13:09:02.12Z</time></trkpt><trkpt lat="39.39525398170817" lon="8.399402411481557"><ele>136.0</ele><time>2026-04-27T13:09:03.12Z</time></trkpt><trkpt lat="39.39510726915033" lon="8.399576073241823"><ele>138.0</ele><time>2026-04-27T13:09:04.12Z</time></trkpt><trkpt lat="39.39495694324848" lon="8.399751194790374"><ele>140.0</ele><time>2026-04-27T13:09:05.12Z</time></trkpt><trkpt lat="39.39480915087027" lon="8.399923331032962"><ele>152.66666666666666</ele><time>2026-04-27T13:09:06.12Z</time></trkpt><trkpt lat="39.39465677757691" lon="8.400088137766362"><ele>165.33333333333334</ele><time>2026-04-27T13:09:07.12Z</time></trkpt><trkpt lat="39.394511779465226" lon="8.40026162199611"><ele>178.0</ele><time>2026-04-27T13:09:08.12Z</time></trkpt><trkpt lat="39.39435995978781" lon="8.400441215503179"><ele>167.33333333333334</ele><time>2026-04-27T13:09:09.12Z</time></trkpt><trkpt lat="39.394190938913646" lon="8.400598942603871"><ele>156.66666666666666</ele><time>2026-04-27T13:09:10.12Z</time></trkpt><trkpt lat="39.394036491043906" lon="8.400769543612927"><ele>146.0</ele><time>2026-04-27T13:09:11.12Z</time></trkpt><trkpt lat="39.39388613094947" lon="8.400917781673789"><ele>155.66666666666666</ele><time>2026-04-27T13:09:12.12Z</time></trkpt><trkpt lat="39.39372914302026" lon="8.401064556208548"><ele>165.33333333333334</ele><time>2026-04-27T13:09:13.12Z</time></trkpt><trkpt lat="39.39355823132411" lon="8.401194433820875"><ele>175.0</ele><time>2026-04-27T13:09:14.12Z</time></trkpt><trkpt lat="39.393389747021935" lon="8.401287026848221"><ele>175.0</ele><time>2026-04-27T13:09:15.12Z</time></trkpt><trkpt lat="39.39317883354633" lon="8.401315207389093"><ele>175.0</ele><time>2026-04-27T13:09:16.12Z</time></trkpt><trkpt lat="39.39296438915823" lon="8.401332105035056"><ele>175.0</ele><time>2026-04-27T13:09:17.12Z</time></trkpt><trkpt lat="39.39277926994821" lon="8.401449175616643"><ele>170.33333333333334</ele><time>2026-04-27T13:09:18.12Z</time></trkpt><trkpt lat="39.39261215794716" lon="8.40164433454525"><ele>165.66666666666666</ele><time>2026-04-27T13:09:19.12Z</time></trkpt><trkpt lat="39.39244724462018" lon="8.40183033822464"><ele>161.0</ele><time>2026-04-27T13:09:20.12Z</time></trkpt><trkpt lat="39.39225299673159" lon="8.401986606344414"><ele>157.5</ele><time>2026-04-27T13:09:21.12Z</time></trkpt><trkpt lat="39.39203669514917" lon="8.402118566765733"><ele>154.0</ele><time>2026-04-27T13:09:22.12Z</time></trkpt><trkpt lat="39.39184097891754" lon="8.40222438813676"><ele>154.0</ele><time>2026-04-27T13:09:23.12Z</time></trkpt><trkpt lat="39.39168780271523" lon="8.402380520633812"><ele>154.0</ele><time>2026-04-27T13:09:24.12Z</time></trkpt><trkpt lat="39.39155407986998" lon="8.402567583234747"><ele>154.0</ele><time>2026-04-27T13:09:25.12Z</time></trkpt><trkpt lat="39.39144801111412" lon="8.402800532724207"><ele>155.66666666666669</ele><time>2026-04-27T13:09:26.12Z</time></trkpt><trkpt lat="39.391353004672936" lon="8.403040793027383"><ele>157.33333333333334</ele><time>2026-04-27T13:09:27.12Z</time></trkpt><trkpt lat="39.39123406895056" lon="8.403228420909784"><ele>159.0</ele><time>2026-04-27T13:09:28.12Z</time></trkpt><trkpt lat="39.391086676682605" lon="8.403353533621207"><ele>159.0</ele><time>2026-04-27T13:09:29.12Z</time></trkpt><trkpt lat="39.390902307943605" lon="8.403432442461648"><ele>159.0</ele><time>2026-04-27T13:09:30.12Z</time></trkpt><trkpt lat="39.39070679666413" lon="8.403506054218207"><ele>159.0</ele><time>2026-04-27T13:09:31.12Z</time></trkpt><trkpt lat="39.390514633005836" lon="8.403601394756453"><ele>155.0</ele><time>2026-04-27T13:09:32.12Z</time></trkpt><trkpt lat="39.39032811633012" lon="8.403747310077497"><ele>151.0</ele><time>2026-04-27T13:09:33.12Z</time></trkpt><trkpt lat="39.390140354485894" lon="8.403927154344775"><ele>151.0</ele><time>2026-04-27T13:09:34.12Z</time></trkpt><trkpt lat="39.389944097404715" lon="8.40408429790174"><ele>151.0</ele><time>2026-04-27T13:09:35.12Z</time></trkpt><trkpt lat="39.38973210790975" lon="8.404217583230908"><ele>161.5</ele><time>2026-04-27T13:09:36.12Z</time></trkpt><trkpt lat="39.38952328817455" lon="8.404348508010639"><ele>172.0</ele><time>2026-04-27T13:09:37.12Z</time></trkpt><trkpt lat="39.389313068624084" lon="8.404470129720146"><ele>172.0</ele><time>2026-04-27T13:09:38.12Z</time></trkpt><trkpt lat="39.38910650426507" lon="8.404557646870163"><ele>172.0</ele><time>2026-04-27T13:09:39.12Z</time></trkpt><trkpt lat="39.3888872978695" lon="8.40461162029159"><ele>172.0</ele><time>2026-04-27T13:09:40.12Z</time></trkpt><trkpt lat="39.38866252801246" lon="8.40463827847105"><ele>175.5</ele><time>2026-04-27T13:09:41.12Z</time></trkpt><trkpt lat="39.38843643558682" lon="8.404645264899376"><ele>179.0</ele><time>2026-04-27T13:09:42.12Z</time></trkpt><trkpt lat="39.38821207926712" lon="8.404668270248536"><ele>164.0</ele><time>2026-04-27T13:09:43.12Z</time></trkpt><trkpt lat="39.387984461055375" lon="8.404707348859604"><ele>149.0</ele><time>2026-04-27T13:09:44.12Z</time></trkpt><trkpt lat="39.38775319708668" lon="8.404757114131979"><ele>149.0</ele><time>2026-04-27T13:09:45.12Z</time></trkpt><trkpt lat="39.38754009620084" lon="8.40481933165504"><ele>149.0</ele><time>2026-04-27T13:09:46.12Z</time></trkpt><trkpt lat="39.38734088879853" lon="8.404879396302677"><ele>149.0</ele><time>2026-04-27T13:09:47.12Z</time></trkpt><trkpt lat="39.387135153157665" lon="8.404929006663362"><ele>151.33333333333331</ele><time>2026-04-27T13:09:48.12Z</time></trkpt><trkpt lat="39.38692256736913" lon="8.404988794835315"><ele>153.66666666666666</ele><time>2026-04-27T13:09:49.12Z</time></trkpt><trkpt lat="39.386728493150535" lon="8.405098457418406"><ele>156.0</ele><time>2026-04-27T13:09:50.12Z</time></trkpt><trkpt lat="39.38655651910832" lon="8.405266889437755"><ele>156.0</ele><time>2026-04-27T13:09:51.12Z</time></trkpt><trkpt lat="39.386399147832726" lon="8.405477639501838"><ele>156.0</ele><time>2026-04-27T13:09:52.12Z</time></trkpt><trkpt lat="39.38625207537525" lon="8.405695562486981"><ele>154.66666666666666</ele><time>2026-04-27T13:09:53.12Z</time></trkpt><trkpt lat="39.38611138189975" lon="8.405899391833147"><ele>153.33333333333331</ele><time>2026-04-27T13:09:54.12Z</time></trkpt><trkpt lat="39.38597348174832" lon="8.406087150412619"><ele>152.0</ele><time>2026-04-27T13:09:55.12Z</time></trkpt><trkpt lat="39.38586784679897" lon="8.406247998275921"><ele>147.75</ele><time>2026-04-27T13:09:56.12Z</time></trkpt><trkpt lat="39.38580660295889" lon="8.40639507040417"><ele>143.5</ele><time>2026-04-27T13:09:57.12Z</time></trkpt><trkpt lat="39.385802977755624" lon="8.40655403701671"><ele>139.25</ele><time>2026-04-27T13:09:58.12Z</time></trkpt><trkpt lat="39.385876485839134" lon="8.406711430637795"><ele>135.0</ele><time>2026-04-27T13:09:59.12Z</time></trkpt><trkpt lat="39.38601446916288" lon="8.406812246034377"><ele>135.0</ele><time>2026-04-27T13:10:00.12Z</time></trkpt><trkpt lat="39.38620314696193" lon="8.406806260620563"><ele>135.0</ele><time>2026-04-27T13:10:01.12Z</time></trkpt><trkpt lat="39.38638468463818" lon="8.406733575032835"><ele>135.0</ele><time>2026-04-27T13:10:02.12Z</time></trkpt><trkpt lat="39.38625557752925" lon="8.406860787107828"><ele>130.66666666666666</ele><time>2026-04-27T13:10:03.12Z</time></trkpt><trkpt lat="39.386462949252845" lon="8.40675033667875"><ele>126.33333333333333</ele><time>2026-04-27T13:10:04.12Z</time></trkpt><trkpt lat="39.38667258647303" lon="8.406655579323852"><ele>122.0</ele><time>2026-04-27T13:10:05.12Z</time></trkpt><trkpt lat="39.38689456295066" lon="8.40655929789945"><ele>122.0</ele><time>2026-04-27T13:10:06.12Z</time></trkpt><trkpt lat="39.38711398421561" lon="8.406466032191814"><ele>122.0</ele><time>2026-04-27T13:10:07.121Z</time></trkpt><trkpt lat="39.38732341357256" lon="8.406406257367754"><ele>122.0</ele><time>2026-04-27T13:10:08.121Z</time></trkpt><trkpt lat="39.38753746823353" lon="8.406390331683319"><ele>117.0</ele><time>2026-04-27T13:10:09.121Z</time></trkpt><trkpt lat="39.387759816622044" lon="8.406422818712002"><ele>112.0</ele><time>2026-04-27T13:10:10.121Z</time></trkpt><trkpt lat="39.38798433183127" lon="8.40648340235103"><ele>109.0</ele><time>2026-04-27T13:10:11.121Z</time></trkpt><trkpt lat="39.38819733336944" lon="8.406528093148406"><ele>106.0</ele><time>2026-04-27T13:10:12.121Z</time></trkpt><trkpt lat="39.38840450546021" lon="8.406503858114544"><ele>103.0</ele><time>2026-04-27T13:10:13.121Z</time></trkpt><trkpt lat="39.388587069791754" lon="8.406402908504036"><ele>103.33333333333334</ele><time>2026-04-27T13:10:14.121Z</time></trkpt><trkpt lat="39.38876966280001" lon="8.406261118309427"><ele>103.66666666666666</ele><time>2026-04-27T13:10:15.121Z</time></trkpt><trkpt lat="39.38894634664944" lon="8.406123615607429"><ele>104.0</ele><time>2026-04-27T13:10:16.121Z</time></trkpt><trkpt lat="39.3891398112414" lon="8.406038873913243"><ele>104.0</ele><time>2026-04-27T13:10:17.121Z</time></trkpt><trkpt lat="39.389336360232825" lon="8.405994089810841"><ele>104.0</ele><time>2026-04-27T13:10:18.121Z</time></trkpt><trkpt lat="39.38952046838562" lon="8.405953708243485"><ele>104.0</ele><time>2026-04-27T13:10:19.121Z</time></trkpt><trkpt lat="39.38966370363054" lon="8.405922555564697"><ele>100.25</ele><time>2026-04-27T13:10:20.121Z</time></trkpt><trkpt lat="39.38979034808991" lon="8.405929889547398"><ele>96.5</ele><time>2026-04-27T13:10:21.121Z</time></trkpt><trkpt lat="39.38991342158736" lon="8.405986092264426"><ele>92.75</ele><time>2026-04-27T13:10:22.121Z</time></trkpt><trkpt lat="39.39002011904353" lon="8.406062238310563"><ele>89.0</ele><time>2026-04-27T13:10:23.121Z</time></trkpt><trkpt lat="39.390132775762936" lon="8.406062594654493"><ele>89.0</ele><time>2026-04-27T13:10:24.121Z</time></trkpt><trkpt lat="39.39024987870996" lon="8.406009343687627"><ele>89.0</ele><time>2026-04-27T13:10:25.121Z</time></trkpt><trkpt lat="39.390319846001105" lon="8.405926462546557"><ele>89.0</ele><time>2026-04-27T13:10:26.121Z</time></trkpt><trkpt lat="39.39043424379496" lon="8.405835337774747"><ele>89.0</ele><time>2026-04-27T13:10:27.121Z</time></trkpt><trkpt lat="39.39055033957928" lon="8.405724953939547"><ele>87.75</ele><time>2026-04-27T13:10:28.121Z</time></trkpt><trkpt lat="39.390680471118294" lon="8.405617478144059"><ele>86.5</ele><time>2026-04-27T13:10:29.121Z</time></trkpt><trkpt lat="39.39079047192413" lon="8.405524786264548"><ele>85.25</ele><time>2026-04-27T13:10:30.121Z</time></trkpt><trkpt lat="39.390891678702076" lon="8.405434802015234"><ele>84.0</ele><time>2026-04-27T13:10:31.121Z</time></trkpt><trkpt lat="39.39099571456213" lon="8.4053556727008"><ele>84.0</ele><time>2026-04-27T13:10:32.121Z</time></trkpt><trkpt lat="39.3910898879475" lon="8.405276949616518"><ele>84.0</ele><time>2026-04-27T13:10:33.121Z</time></trkpt><trkpt lat="39.391190887348706" lon="8.405206423319264"><ele>84.0</ele><time>2026-04-27T13:10:34.121Z</time></trkpt><trkpt lat="39.391291697583156" lon="8.40515583525971"><ele>84.0</ele><time>2026-04-27T13:10:35.121Z</time></trkpt><trkpt lat="39.3914186820094" lon="8.405141942163954"><ele>81.16666666666667</ele><time>2026-04-27T13:10:36.123Z</time></trkpt><trkpt lat="39.39151321846327" lon="8.405117075123696"><ele>78.33333333333333</ele><time>2026-04-27T13:10:37.122Z</time></trkpt><trkpt lat="39.391584488206945" lon="8.405107193021474"><ele>75.5</ele><time>2026-04-27T13:10:38.122Z</time></trkpt><trkpt lat="39.391643642173904" lon="8.405146306709334"><ele>72.66666666666666</ele><time>2026-04-27T13:10:39.123Z</time></trkpt><trkpt lat="39.39171477531883" lon="8.405191864401665"><ele>69.83333333333333</ele><time>2026-04-27T13:10:40.123Z</time></trkpt><trkpt lat="39.3917874984555" lon="8.405208664028553"><ele>67.0</ele><time>2026-04-27T13:10:41.123Z</time></trkpt><trkpt lat="39.39186736444417" lon="8.40520496470667"><ele>67.0</ele><time>2026-04-27T13:10:42.122Z</time></trkpt><trkpt lat="39.39198187510286" lon="8.405179180125383"><ele>67.0</ele><time>2026-04-27T13:10:44.123Z</time></trkpt><trkpt lat="39.39204658449821" lon="8.405151017525014"><ele>67.0</ele><time>2026-04-27T13:10:45.123Z</time></trkpt><trkpt lat="39.392122148250074" lon="8.40511921449934"><ele>67.0</ele><time>2026-04-27T13:10:46.123Z</time></trkpt><trkpt lat="39.392210368738816" lon="8.405082976776667"><ele>67.0</ele><time>2026-04-27T13:10:47.123Z</time></trkpt><trkpt lat="39.39231159693659" lon="8.405035783039247"><ele>66.8</ele><time>2026-04-27T13:10:48.123Z</time></trkpt><trkpt lat="39.39242146336409" lon="8.404983950702348"><ele>66.6</ele><time>2026-04-27T13:10:49.123Z</time></trkpt><trkpt lat="39.39252598814492" lon="8.40494434687999"><ele>66.39999999999999</ele><time>2026-04-27T13:10:50.123Z</time></trkpt><trkpt lat="39.39263213776848" lon="8.404906457982106"><ele>66.2</ele><time>2026-04-27T13:10:51.123Z</time></trkpt><trkpt lat="39.3927379207325" lon="8.404861417397385"><ele>66.0</ele><time>2026-04-27T13:10:52.123Z</time></trkpt><trkpt lat="39.39284482032307" lon="8.404810515927478"><ele>66.0</ele><time>2026-04-27T13:10:53.123Z</time></trkpt><trkpt lat="39.39295792816635" lon="8.404758789641114"><ele>66.0</ele><time>2026-04-27T13:10:54.123Z</time></trkpt><trkpt lat="39.3930773035319" lon="8.404705156279515"><ele>66.0</ele><time>2026-04-27T13:10:55.123Z</time></trkpt><trkpt lat="39.39319585124362" lon="8.404647894987772"><ele>66.0</ele><time>2026-04-27T13:10:56.123Z</time></trkpt><trkpt lat="39.393319102954756" lon="8.404584682287028"><ele>63.25</ele><time>2026-04-27T13:10:57.123Z</time></trkpt><trkpt lat="39.39343863442742" lon="8.404503020330713"><ele>60.5</ele><time>2026-04-27T13:10:58.123Z</time></trkpt><trkpt lat="39.39355673157024" lon="8.404404664263271"><ele>57.75</ele><time>2026-04-27T13:10:59.123Z</time></trkpt><trkpt lat="39.39367215951856" lon="8.404284144209027"><ele>55.0</ele><time>2026-04-27T13:11:00.123Z</time></trkpt><trkpt lat="39.393783620156526" lon="8.404158334277438"><ele>58.33333333333333</ele><time>2026-04-27T13:11:01.123Z</time></trkpt><trkpt lat="39.393902004127945" lon="8.404027304900549"><ele>61.66666666666667</ele><time>2026-04-27T13:11:02.123Z</time></trkpt><trkpt lat="39.39403446087189" lon="8.403919729108553"><ele>65.0</ele><time>2026-04-27T13:11:03.123Z</time></trkpt><trkpt lat="39.39418812803796" lon="8.403864258897968"><ele>65.0</ele><time>2026-04-27T13:11:04.123Z</time></trkpt><trkpt lat="39.39434817891156" lon="8.403867853942993"><ele>65.0</ele><time>2026-04-27T13:11:05.123Z</time></trkpt><trkpt lat="39.39450514291687" lon="8.403918176109938"><ele>65.0</ele><time>2026-04-27T13:11:06.123Z</time></trkpt><trkpt lat="39.39465258303599" lon="8.404005193900668"><ele>68.0</ele><time>2026-04-27T13:11:07.123Z</time></trkpt><trkpt lat="39.39479089394758" lon="8.404095774547057"><ele>71.0</ele><time>2026-04-27T13:11:08.123Z</time></trkpt><trkpt lat="39.39494833571732" lon="8.404130643639151"><ele>74.0</ele><time>2026-04-27T13:11:09.123Z</time></trkpt><trkpt lat="39.395109940754566" lon="8.404121977526309"><ele>74.0</ele><time>2026-04-27T13:11:10.123Z</time></trkpt><trkpt lat="39.39526851032942" lon="8.404109645603924"><ele>74.0</ele><time>2026-04-27T13:11:11.123Z</time></trkpt><trkpt lat="39.39542516948606" lon="8.40405165151024"><ele>74.0</ele><time>2026-04-27T13:11:12.123Z</time></trkpt><trkpt lat="39.395562017866155" lon="8.403952098587261"><ele>72.75</ele><time>2026-04-27T13:11:13.123Z</time></trkpt><trkpt lat="39.395686432557085" lon="8.403831549595408"><ele>71.5</ele><time>2026-04-27T13:11:14.123Z</time></trkpt><trkpt lat="39.39581303914314" lon="8.403718821545812"><ele>70.25</ele><time>2026-04-27T13:11:15.123Z</time></trkpt><trkpt lat="39.39593389997062" lon="8.40363278028819"><ele>69.0</ele><time>2026-04-27T13:11:16.123Z</time></trkpt><trkpt lat="39.39604943800356" lon="8.403567636677298"><ele>69.0</ele><time>2026-04-27T13:11:17.123Z</time></trkpt><trkpt lat="39.3961538602264" lon="8.403511888518027"><ele>69.0</ele><time>2026-04-27T13:11:18.123Z</time></trkpt><trkpt lat="39.39625215023584" lon="8.403472083728559"><ele>69.0</ele><time>2026-04-27T13:11:19.123Z</time></trkpt><trkpt lat="39.396320276622475" lon="8.403436272767323"><ele>69.0</ele><time>2026-04-27T13:11:20.123Z</time></trkpt><trkpt lat="39.39640103902387" lon="8.403368179963605"><ele>69.0</ele><time>2026-04-27T13:11:22.123Z</time></trkpt><trkpt lat="39.396488392753675" lon="8.40341237046462"><ele>69.66666666666667</ele><time>2026-04-27T13:11:24.123Z</time></trkpt><trkpt lat="39.396568911111" lon="8.403421709942531"><ele>70.33333333333333</ele><time>2026-04-27T13:11:26.123Z</time></trkpt><trkpt lat="39.39661022799011" lon="8.403354859272842"><ele>71.0</ele><time>2026-04-27T13:11:28.123Z</time></trkpt><trkpt lat="39.39670396312902" lon="8.403414165866865"><ele>71.66666666666666</ele><time>2026-04-27T13:18:18.133Z</time></trkpt><trkpt lat="39.396788308983695" lon="8.403455019333016"><ele>72.33333333333333</ele><time>2026-04-27T13:18:20.133Z</time></trkpt><trkpt lat="39.39685056655837" lon="8.403470944925392"><ele>73.0</ele><time>2026-04-27T13:18:21.133Z</time></trkpt><trkpt lat="39.396919295091585" lon="8.403478105260822"><ele>73.0</ele><time>2026-04-27T13:18:22.133Z</time></trkpt><trkpt lat="39.3969968519879" lon="8.403478295887695"><ele>73.0</ele><time>2026-04-27T13:18:23.133Z</time></trkpt><trkpt lat="39.39706992186611" lon="8.403467772621005"><ele>73.0</ele><time>2026-04-27T13:18:24.133Z</time></trkpt><trkpt lat="39.39714796693366" lon="8.403459536482437"><ele>73.0</ele><time>2026-04-27T13:18:25.133Z</time></trkpt><trkpt lat="39.39723174882796" lon="8.403433692914463"><ele>73.0</ele><time>2026-04-27T13:18:26.133Z</time></trkpt><trkpt lat="39.39732232220871" lon="8.403412441020606"><ele>73.0</ele><time>2026-04-27T13:18:27.133Z</time></trkpt><trkpt lat="39.39740866505069" lon="8.403385052898896"><ele>72.0</ele><time>2026-04-27T13:18:28.133Z</time></trkpt><trkpt lat="39.397508969910476" lon="8.4033491321991"><ele>71.0</ele><time>2026-04-27T13:18:29.133Z</time></trkpt><trkpt lat="39.397626781970914" lon="8.403296535597292"><ele>70.0</ele><time>2026-04-27T13:18:30.133Z</time></trkpt><trkpt lat="39.39774909596695" lon="8.403257835967523"><ele>69.0</ele><time>2026-04-27T13:18:31.133Z</time></trkpt><trkpt lat="39.39786421131055" lon="8.403225357647575"><ele>69.0</ele><time>2026-04-27T13:18:32.133Z</time></trkpt><trkpt lat="39.39798879263698" lon="8.403191199225477"><ele>69.0</ele><time>2026-04-27T13:18:33.133Z</time></trkpt><trkpt lat="39.39811547365173" lon="8.40315816550661"><ele>69.0</ele><time>2026-04-27T13:18:34.133Z</time></trkpt><trkpt lat="39.398258234347495" lon="8.403123628339499"><ele>69.0</ele><time>2026-04-27T13:18:35.133Z</time></trkpt><trkpt lat="39.398398384431225" lon="8.40307568011301"><ele>69.33333333333333</ele><time>2026-04-27T13:18:36.133Z</time></trkpt><trkpt lat="39.39854326470634" lon="8.403002187047429"><ele>69.66666666666666</ele><time>2026-04-27T13:18:37.133Z</time></trkpt><trkpt lat="39.39867857691289" lon="8.402930805572101"><ele>70.0</ele><time>2026-04-27T13:18:38.133Z</time></trkpt><trkpt lat="39.39882626380216" lon="8.402862199568192"><ele>64.66666666666666</ele><time>2026-04-27T13:18:39.133Z</time></trkpt><trkpt lat="39.39897367412804" lon="8.402800892040158"><ele>59.33333333333333</ele><time>2026-04-27T13:18:40.133Z</time></trkpt><trkpt lat="39.39912590745036" lon="8.402764596845115"><ele>54.0</ele><time>2026-04-27T13:18:41.133Z</time></trkpt><trkpt lat="39.399268503541236" lon="8.40271322213971"><ele>54.0</ele><time>2026-04-27T13:18:42.133Z</time></trkpt><trkpt lat="39.399407476689326" lon="8.402666200334783"><ele>54.0</ele><time>2026-04-27T13:18:43.133Z</time></trkpt><trkpt lat="39.39952301259768" lon="8.402597324813074"><ele>54.0</ele><time>2026-04-27T13:18:44.133Z</time></trkpt><trkpt lat="39.399631420056245" lon="8.402519700718956"><ele>54.0</ele><time>2026-04-27T13:18:45.133Z</time></trkpt><trkpt lat="39.399733574668225" lon="8.402455084621538"><ele>57.0</ele><time>2026-04-27T13:18:46.133Z</time></trkpt><trkpt lat="39.399833368955775" lon="8.402395741054397"><ele>60.0</ele><time>2026-04-27T13:18:47.133Z</time></trkpt><trkpt lat="39.399941140134416" lon="8.402339270760569"><ele>63.0</ele><time>2026-04-27T13:18:48.133Z</time></trkpt><trkpt lat="39.40005280346608" lon="8.402275812801584"><ele>66.0</ele><time>2026-04-27T13:18:49.133Z</time></trkpt><trkpt lat="39.40016186990356" lon="8.402220130274648"><ele>60.199999999999996</ele><time>2026-04-27T13:18:50.133Z</time></trkpt><trkpt lat="39.40027412504921" lon="8.402160645056643"><ele>54.39999999999999</ele><time>2026-04-27T13:18:51.133Z</time></trkpt><trkpt lat="39.40038526681699" lon="8.402122002563091"><ele>48.6</ele><time>2026-04-27T13:18:52.133Z</time></trkpt><trkpt lat="39.40048540607916" lon="8.4020894785937"><ele>42.8</ele><time>2026-04-27T13:18:53.133Z</time></trkpt><trkpt lat="39.40059235605722" lon="8.402084450748411"><ele>37.0</ele><time>2026-04-27T13:18:54.133Z</time></trkpt><trkpt lat="39.40068857991161" lon="8.402135901112626"><ele>42.75</ele><time>2026-04-27T13:18:55.133Z</time></trkpt><trkpt lat="39.400782409369434" lon="8.402220648490452"><ele>48.5</ele><time>2026-04-27T13:18:56.133Z</time></trkpt><trkpt lat="39.40086882312158" lon="8.402309125446463"><ele>54.25</ele><time>2026-04-27T13:18:57.133Z</time></trkpt><trkpt lat="39.400960200453476" lon="8.40241305791936"><ele>60.0</ele><time>2026-04-27T13:18:58.133Z</time></trkpt><trkpt lat="39.40106456430842" lon="8.402496298746406"><ele>60.0</ele><time>2026-04-27T13:18:59.133Z</time></trkpt><trkpt lat="39.40117172428233" lon="8.402569866377656"><ele>60.0</ele><time>2026-04-27T13:19:00.134Z</time></trkpt><trkpt lat="39.40130525997521" lon="8.402607659423014"><ele>60.0</ele><time>2026-04-27T13:19:01.134Z</time></trkpt><trkpt lat="39.40144567486471" lon="8.40262435768033"><ele>60.0</ele><time>2026-04-27T13:19:02.134Z</time></trkpt><trkpt lat="39.40159382288934" lon="8.40264066394614"><ele>53.666666666666664</ele><time>2026-04-27T13:19:03.134Z</time></trkpt><trkpt lat="39.4017513684729" lon="8.402672118751045"><ele>47.33333333333333</ele><time>2026-04-27T13:19:04.134Z</time></trkpt><trkpt lat="39.40191598841085" lon="8.40271015177695"><ele>41.0</ele><time>2026-04-27T13:19:05.134Z</time></trkpt><trkpt lat="39.40208339576156" lon="8.402742964257696"><ele>36.33333333333333</ele><time>2026-04-27T13:19:06.135Z</time></trkpt><trkpt lat="39.40224905625555" lon="8.402771401417962"><ele>31.666666666666664</ele><time>2026-04-27T13:19:07.134Z</time></trkpt><trkpt lat="39.402404078975344" lon="8.402808307174464"><ele>27.0</ele><time>2026-04-27T13:19:08.134Z</time></trkpt><trkpt lat="39.40253532380294" lon="8.402846867081546"><ele>27.0</ele><time>2026-04-27T13:19:09.135Z</time></trkpt><trkpt lat="39.40264537367985" lon="8.402929792395067"><ele>27.0</ele><time>2026-04-27T13:19:10.134Z</time></trkpt><trkpt lat="39.4027420843033" lon="8.4030556624041"><ele>27.0</ele><time>2026-04-27T13:19:11.134Z</time></trkpt><trkpt lat="39.40280940380549" lon="8.403197399722133"><ele>27.0</ele><time>2026-04-27T13:19:12.134Z</time></trkpt><trkpt lat="39.40284172552772" lon="8.40333575406332"><ele>36.0</ele><time>2026-04-27T13:19:13.134Z</time></trkpt><trkpt lat="39.4028699179878" lon="8.403478133812838"><ele>45.0</ele><time>2026-04-27T13:19:14.134Z</time></trkpt><trkpt lat="39.40292681028324" lon="8.403610103878153"><ele>54.0</ele><time>2026-04-27T13:19:15.134Z</time></trkpt><trkpt lat="39.40299370364654" lon="8.403727091901438"><ele>63.0</ele><time>2026-04-27T13:19:16.134Z</time></trkpt><trkpt lat="39.403065519042585" lon="8.4038446329649"><ele>63.0</ele><time>2026-04-27T13:19:17.134Z</time></trkpt><trkpt lat="39.40315765365463" lon="8.403964529490286"><ele>63.0</ele><time>2026-04-27T13:19:18.134Z</time></trkpt><trkpt lat="39.40325827482292" lon="8.404056770977293"><ele>63.0</ele><time>2026-04-27T13:19:19.134Z</time></trkpt><trkpt lat="39.40337562099483" lon="8.404124996829182"><ele>63.0</ele><time>2026-04-27T13:19:20.135Z</time></trkpt><trkpt lat="39.403513585437416" lon="8.40417371380218"><ele>63.0</ele><time>2026-04-27T13:19:21.135Z</time></trkpt><trkpt lat="39.40364621288707" lon="8.404229966786366"><ele>63.0</ele><time>2026-04-27T13:19:22.135Z</time></trkpt><trkpt lat="39.40377823813979" lon="8.404310950503643"><ele>63.0</ele><time>2026-04-27T13:19:23.135Z</time></trkpt><trkpt lat="39.403909759862806" lon="8.404391508733546"><ele>63.0</ele><time>2026-04-27T13:19:24.135Z</time></trkpt><trkpt lat="39.40404993118851" lon="8.404468279508603"><ele>59.66666666666667</ele><time>2026-04-27T13:19:25.135Z</time></trkpt><trkpt lat="39.40419551043741" lon="8.40455132075957"><ele>56.333333333333336</ele><time>2026-04-27T13:19:26.135Z</time></trkpt><trkpt lat="39.404348915984414" lon="8.404619725955445"><ele>53.0</ele><time>2026-04-27T13:19:27.135Z</time></trkpt><trkpt lat="39.40450829693522" lon="8.404682500368008"><ele>60.0</ele><time>2026-04-27T13:19:28.135Z</time></trkpt><trkpt lat="39.40467095103878" lon="8.404748628786578"><ele>67.0</ele><time>2026-04-27T13:19:29.135Z</time></trkpt><trkpt lat="39.40483980769987" lon="8.404800199821858"><ele>74.0</ele><time>2026-04-27T13:19:30.135Z</time></trkpt><trkpt lat="39.40501457283726" lon="8.40482909835152"><ele>74.0</ele><time>2026-04-27T13:19:31.135Z</time></trkpt><trkpt lat="39.40520207591701" lon="8.40483386690996"><ele>74.0</ele><time>2026-04-27T13:19:32.135Z</time></trkpt><trkpt lat="39.405386816725674" lon="8.404829700253764"><ele>74.0</ele><time>2026-04-27T13:19:33.135Z</time></trkpt><trkpt lat="39.40557220407322" lon="8.404813861752382"><ele>77.0</ele><time>2026-04-27T13:19:34.135Z</time></trkpt><trkpt lat="39.40575898646151" lon="8.40479933458086"><ele>80.0</ele><time>2026-04-27T13:19:35.135Z</time></trkpt><trkpt lat="39.40593239965054" lon="8.404761436425641"><ele>83.0</ele><time>2026-04-27T13:19:36.135Z</time></trkpt><trkpt lat="39.4060881555043" lon="8.404702028870517"><ele>83.0</ele><time>2026-04-27T13:19:37.135Z</time></trkpt><trkpt lat="39.40623655345469" lon="8.404676233359286"><ele>83.0</ele><time>2026-04-27T13:19:38.135Z</time></trkpt><trkpt lat="39.40638947194671" lon="8.40471545408088"><ele>83.0</ele><time>2026-04-27T13:19:39.135Z</time></trkpt><trkpt lat="39.40654397793704" lon="8.40479529179311"><ele>80.33333333333334</ele><time>2026-04-27T13:19:40.135Z</time></trkpt><trkpt lat="39.40670502070339" lon="8.404896693805188"><ele>77.66666666666667</ele><time>2026-04-27T13:19:41.135Z</time></trkpt><trkpt lat="39.406872469812" lon="8.405001663530232"><ele>75.0</ele><time>2026-04-27T13:19:42.135Z</time></trkpt><trkpt lat="39.407050786447506" lon="8.405101775857139"><ele>71.33333333333333</ele><time>2026-04-27T13:19:43.135Z</time></trkpt><trkpt lat="39.407237566631835" lon="8.405201126449994"><ele>67.66666666666666</ele><time>2026-04-27T13:19:44.135Z</time></trkpt><trkpt lat="39.40743350256924" lon="8.405308156720208"><ele>64.0</ele><time>2026-04-27T13:19:45.135Z</time></trkpt><trkpt lat="39.40762582405872" lon="8.405420842406699"><ele>67.66666666666666</ele><time>2026-04-27T13:19:46.135Z</time></trkpt><trkpt lat="39.40781936620512" lon="8.405528512352841"><ele>71.33333333333333</ele><time>2026-04-27T13:19:47.135Z</time></trkpt><trkpt lat="39.40802058388829" lon="8.405634609778582"><ele>75.0</ele><time>2026-04-27T13:19:48.135Z</time></trkpt><trkpt lat="39.408224211185505" lon="8.405754748212557"><ele>75.0</ele><time>2026-04-27T13:19:49.135Z</time></trkpt><trkpt lat="39.408423020264166" lon="8.405892270791131"><ele>75.0</ele><time>2026-04-27T13:19:50.135Z</time></trkpt><trkpt lat="39.40861597183943" lon="8.406017052768707"><ele>75.0</ele><time>2026-04-27T13:19:51.135Z</time></trkpt><trkpt lat="39.40880693187817" lon="8.406103903003604"><ele>72.33333333333333</ele><time>2026-04-27T13:19:52.135Z</time></trkpt><trkpt lat="39.4090101008793" lon="8.406143922536284"><ele>69.66666666666666</ele><time>2026-04-27T13:19:53.135Z</time></trkpt><trkpt lat="39.40922148073158" lon="8.406156498174662"><ele>67.0</ele><time>2026-04-27T13:19:54.135Z</time></trkpt><trkpt lat="39.409444598693554" lon="8.406152089176194"><ele>67.5</ele><time>2026-04-27T13:19:55.135Z</time></trkpt><trkpt lat="39.40967069313656" lon="8.406146814296523"><ele>68.0</ele><time>2026-04-27T13:19:56.135Z</time></trkpt><trkpt lat="39.40989663044775" lon="8.406145500561411"><ele>68.0</ele><time>2026-04-27T13:19:57.135Z</time></trkpt><trkpt lat="39.41012004704112" lon="8.406140001046694"><ele>68.0</ele><time>2026-04-27T13:19:58.135Z</time></trkpt><trkpt lat="39.41033431683584" lon="8.406134138291401"><ele>68.0</ele><time>2026-04-27T13:19:59.135Z</time></trkpt><trkpt lat="39.410536620122926" lon="8.406147109177828"><ele>66.66666666666667</ele><time>2026-04-27T13:20:00.135Z</time></trkpt><trkpt lat="39.41073780831321" lon="8.406220947383366"><ele>65.33333333333333</ele><time>2026-04-27T13:20:01.135Z</time></trkpt><trkpt lat="39.41093432287279" lon="8.406330060437686"><ele>64.0</ele><time>2026-04-27T13:20:02.135Z</time></trkpt><trkpt lat="39.411110704983315" lon="8.406435432020915"><ele>63.33333333333333</ele><time>2026-04-27T13:20:03.135Z</time></trkpt><trkpt lat="39.41129712910127" lon="8.406533743457182"><ele>62.66666666666667</ele><time>2026-04-27T13:20:04.135Z</time></trkpt><trkpt lat="39.41149197727468" lon="8.406629585677297"><ele>62.0</ele><time>2026-04-27T13:20:05.135Z</time></trkpt><trkpt lat="39.41167831842295" lon="8.406722629732245"><ele>62.0</ele><time>2026-04-27T13:20:06.135Z</time></trkpt><trkpt lat="39.41185183882218" lon="8.406820634508213"><ele>62.0</ele><time>2026-04-27T13:20:07.135Z</time></trkpt><trkpt lat="39.412005823729835" lon="8.406953939148037"><ele>62.0</ele><time>2026-04-27T13:20:08.135Z</time></trkpt><trkpt lat="39.41214093684892" lon="8.407122884783316"><ele>60.333333333333336</ele><time>2026-04-27T13:20:09.135Z</time></trkpt><trkpt lat="39.41227043214565" lon="8.407316899569672"><ele>58.66666666666667</ele><time>2026-04-27T13:20:10.135Z</time></trkpt><trkpt lat="39.4124093765427" lon="8.4075074284637"><ele>57.0</ele><time>2026-04-27T13:20:11.135Z</time></trkpt><trkpt lat="39.412549993007296" lon="8.407697505658208"><ele>57.0</ele><time>2026-04-27T13:20:12.135Z</time></trkpt><trkpt lat="39.4126759027103" lon="8.407884407323746"><ele>57.0</ele><time>2026-04-27T13:20:13.135Z</time></trkpt><trkpt lat="39.412771357202836" lon="8.408094274971601"><ele>57.0</ele><time>2026-04-27T13:20:14.135Z</time></trkpt><trkpt lat="39.412821989874935" lon="8.40832911527797"><ele>58.66666666666667</ele><time>2026-04-27T13:20:15.135Z</time></trkpt><trkpt lat="39.412849090936106" lon="8.408581534355436"><ele>60.333333333333336</ele><time>2026-04-27T13:20:16.135Z</time></trkpt><trkpt lat="39.41286844371672" lon="8.408839361335863"><ele>62.0</ele><time>2026-04-27T13:20:17.135Z</time></trkpt><trkpt lat="39.412888340753994" lon="8.409086128657007"><ele>62.75</ele><time>2026-04-27T13:20:18.135Z</time></trkpt><trkpt lat="39.41291359179879" lon="8.409288177722695"><ele>63.5</ele><time>2026-04-27T13:20:19.135Z</time></trkpt><trkpt lat="39.41298854184497" lon="8.409448482488717"><ele>64.25</ele><time>2026-04-27T13:20:20.135Z</time></trkpt><trkpt lat="39.41310322623655" lon="8.409537006325346"><ele>65.0</ele><time>2026-04-27T13:20:21.135Z</time></trkpt><trkpt lat="39.41325625061059" lon="8.409592083067146"><ele>63.0</ele><time>2026-04-27T13:20:22.135Z</time></trkpt><trkpt lat="39.41345806431103" lon="8.409677139317154"><ele>61.0</ele><time>2026-04-27T13:20:23.135Z</time></trkpt><trkpt lat="39.4136470310802" lon="8.409751661789198"><ele>59.0</ele><time>2026-04-27T13:20:24.135Z</time></trkpt><trkpt lat="39.41382626735609" lon="8.40983368029135"><ele>56.333333333333336</ele><time>2026-04-27T13:20:25.135Z</time></trkpt><trkpt lat="39.41399449644504" lon="8.409914725315815"><ele>53.66666666666667</ele><time>2026-04-27T13:20:26.135Z</time></trkpt><trkpt lat="39.41413461713457" lon="8.410036532005865"><ele>51.0</ele><time>2026-04-27T13:20:27.135Z</time></trkpt><trkpt lat="39.41423747187112" lon="8.410202026658215"><ele>51.0</ele><time>2026-04-27T13:20:28.135Z</time></trkpt><trkpt lat="39.414317023232286" lon="8.410406350796412"><ele>51.0</ele><time>2026-04-27T13:20:29.135Z</time></trkpt><trkpt lat="39.41439431914929" lon="8.410606726575809"><ele>51.0</ele><time>2026-04-27T13:20:30.135Z</time></trkpt><trkpt lat="39.4144951126062" lon="8.410755059059982"><ele>49.333333333333336</ele><time>2026-04-27T13:20:31.135Z</time></trkpt><trkpt lat="39.41464283062445" lon="8.410839260489047"><ele>47.66666666666667</ele><time>2026-04-27T13:20:32.135Z</time></trkpt><trkpt lat="39.414814024952285" lon="8.41087461229197"><ele>46.0</ele><time>2026-04-27T13:20:33.136Z</time></trkpt><trkpt lat="39.41499695883579" lon="8.410888604366693"><ele>46.0</ele><time>2026-04-27T13:20:34.136Z</time></trkpt><trkpt lat="39.41518555830877" lon="8.410904961543949"><ele>46.0</ele><time>2026-04-27T13:20:35.136Z</time></trkpt><trkpt lat="39.41537432572174" lon="8.41093644830332"><ele>46.0</ele><time>2026-04-27T13:20:36.136Z</time></trkpt><trkpt lat="39.41556276779278" lon="8.410978657085517"><ele>43.0</ele><time>2026-04-27T13:20:37.136Z</time></trkpt><trkpt lat="39.415753506709045" lon="8.411028898555525"><ele>40.0</ele><time>2026-04-27T13:20:38.136Z</time></trkpt><trkpt lat="39.41594541691816" lon="8.411091843224998"><ele>37.0</ele><time>2026-04-27T13:20:39.136Z</time></trkpt><trkpt lat="39.41613662025574" lon="8.411160433890995"><ele>37.66666666666667</ele><time>2026-04-27T13:20:40.136Z</time></trkpt><trkpt lat="39.41633022723878" lon="8.411225453191522"><ele>38.333333333333336</ele><time>2026-04-27T13:20:41.136Z</time></trkpt><trkpt lat="39.416525408428896" lon="8.411286432561349"><ele>39.0</ele><time>2026-04-27T13:20:42.136Z</time></trkpt><trkpt lat="39.416722219463466" lon="8.411352401332394"><ele>39.0</ele><time>2026-04-27T13:20:43.136Z</time></trkpt><trkpt lat="39.416922560228144" lon="8.411423720366875"><ele>39.0</ele><time>2026-04-27T13:20:44.136Z</time></trkpt><trkpt lat="39.41712429573065" lon="8.411497709543099"><ele>39.0</ele><time>2026-04-27T13:20:45.136Z</time></trkpt><trkpt lat="39.41732686548254" lon="8.411580393199173"><ele>35.666666666666664</ele><time>2026-04-27T13:20:46.136Z</time></trkpt><trkpt lat="39.41752804993939" lon="8.411660602215706"><ele>32.33333333333333</ele><time>2026-04-27T13:20:47.136Z</time></trkpt><trkpt lat="39.41772878477393" lon="8.411750270047714"><ele>29.0</ele><time>2026-04-27T13:20:48.136Z</time></trkpt><trkpt lat="39.417929461339334" lon="8.41184364709262"><ele>25.0</ele><time>2026-04-27T13:20:49.136Z</time></trkpt><trkpt lat="39.418143188641" lon="8.411923630029117"><ele>21.0</ele><time>2026-04-27T13:20:50.136Z</time></trkpt><trkpt lat="39.41835260855553" lon="8.411983413179135"><ele>17.0</ele><time>2026-04-27T13:20:51.136Z</time></trkpt><trkpt lat="39.418563156540806" lon="8.412033423670962"><ele>17.0</ele><time>2026-04-27T13:20:52.136Z</time></trkpt><trkpt lat="39.418776091816426" lon="8.412069229225716"><ele>17.0</ele><time>2026-04-27T13:20:53.136Z</time></trkpt><trkpt lat="39.4189862529895" lon="8.412101724254793"><ele>17.0</ele><time>2026-04-27T13:20:54.136Z</time></trkpt><trkpt lat="39.41919369662531" lon="8.412151619894093"><ele>15.0</ele><time>2026-04-27T13:20:55.136Z</time></trkpt><trkpt lat="39.41939891141001" lon="8.412209223702618"><ele>13.0</ele><time>2026-04-27T13:20:56.136Z</time></trkpt><trkpt lat="39.41960509137582" lon="8.412263409404616"><ele>11.0</ele><time>2026-04-27T13:20:57.136Z</time></trkpt><trkpt lat="39.419809544857486" lon="8.412313105385824"><ele>10.0</ele><time>2026-04-27T13:20:58.136Z</time></trkpt><trkpt lat="39.420015923985204" lon="8.412364079874784"><ele>9.0</ele><time>2026-04-27T13:20:59.136Z</time></trkpt><trkpt lat="39.42022335937818" lon="8.412415473505659"><ele>8.0</ele><time>2026-04-27T13:21:00.136Z</time></trkpt><trkpt lat="39.42043415563919" lon="8.412460550723944"><ele>9.0</ele><time>2026-04-27T13:21:01.136Z</time></trkpt><trkpt lat="39.420644352329006" lon="8.412502685276404"><ele>10.0</ele><time>2026-04-27T13:21:02.136Z</time></trkpt><trkpt lat="39.42085965078564" lon="8.412549247954829"><ele>11.0</ele><time>2026-04-27T13:21:03.136Z</time></trkpt><trkpt lat="39.42107178160713" lon="8.412586810410698"><ele>11.0</ele><time>2026-04-27T13:21:04.136Z</time></trkpt><trkpt lat="39.42128484771673" lon="8.412620824422861"><ele>11.0</ele><time>2026-04-27T13:21:05.136Z</time></trkpt><trkpt lat="39.421495998586046" lon="8.412639620993124"><ele>11.0</ele><time>2026-04-27T13:21:06.136Z</time></trkpt><trkpt lat="39.42171057944012" lon="8.412639784664282"><ele>11.0</ele><time>2026-04-27T13:21:07.136Z</time></trkpt><trkpt lat="39.421925993323214" lon="8.412644902203741"><ele>11.0</ele><time>2026-04-27T13:21:08.136Z</time></trkpt><trkpt lat="39.422137517043105" lon="8.412662038252279"><ele>11.0</ele><time>2026-04-27T13:21:09.136Z</time></trkpt><trkpt lat="39.42235293593616" lon="8.412691309869386"><ele>11.0</ele><time>2026-04-27T13:21:10.137Z</time></trkpt><trkpt lat="39.42257097803285" lon="8.412728547446727"><ele>11.0</ele><time>2026-04-27T13:21:11.137Z</time></trkpt><trkpt lat="39.42278326047308" lon="8.412762073937964"><ele>11.0</ele><time>2026-04-27T13:21:12.137Z</time></trkpt><trkpt lat="39.42299581546414" lon="8.412796505688364"><ele>10.0</ele><time>2026-04-27T13:21:13.136Z</time></trkpt><trkpt lat="39.423209002441645" lon="8.412830838539227"><ele>9.0</ele><time>2026-04-27T13:21:14.136Z</time></trkpt><trkpt lat="39.42342089629204" lon="8.412872833020606"><ele>8.0</ele><time>2026-04-27T13:21:15.137Z</time></trkpt><trkpt lat="39.42363743912081" lon="8.412926852963986"><ele>8.666666666666666</ele><time>2026-04-27T13:21:16.136Z</time></trkpt><trkpt lat="39.423848119462455" lon="8.412971571646265"><ele>9.333333333333334</ele><time>2026-04-27T13:21:17.136Z</time></trkpt><trkpt lat="39.424061425839824" lon="8.41301009033258"><ele>10.0</ele><time>2026-04-27T13:21:18.137Z</time></trkpt><trkpt lat="39.42427161820061" lon="8.413029842091609"><ele>10.0</ele><time>2026-04-27T13:21:19.136Z</time></trkpt><trkpt lat="39.424486692374415" lon="8.413049730390926"><ele>10.0</ele><time>2026-04-27T13:21:20.136Z</time></trkpt><trkpt lat="39.424698771863355" lon="8.413084087333262"><ele>10.0</ele><time>2026-04-27T13:21:21.136Z</time></trkpt><trkpt lat="39.42490773051156" lon="8.41311424147865"><ele>9.666666666666668</ele><time>2026-04-27T13:21:22.136Z</time></trkpt><trkpt lat="39.42511824780716" lon="8.413144372361298"><ele>9.333333333333334</ele><time>2026-04-27T13:21:23.136Z</time></trkpt><trkpt lat="39.42532732429794" lon="8.413168213105847"><ele>9.0</ele><time>2026-04-27T13:21:24.136Z</time></trkpt><trkpt lat="39.425539539750766" lon="8.413194518410286"><ele>8.333333333333334</ele><time>2026-04-27T13:21:25.136Z</time></trkpt><trkpt lat="39.42574857420336" lon="8.413221364724183"><ele>7.666666666666667</ele><time>2026-04-27T13:21:26.136Z</time></trkpt><trkpt lat="39.42595716051097" lon="8.413251341210955"><ele>7.0</ele><time>2026-04-27T13:21:27.136Z</time></trkpt><trkpt lat="39.4261686708581" lon="8.413277009058357"><ele>7.0</ele><time>2026-04-27T13:21:28.136Z</time></trkpt><trkpt lat="39.42638042970648" lon="8.413295401830919"><ele>7.0</ele><time>2026-04-27T13:21:29.136Z</time></trkpt><trkpt lat="39.426594540805276" lon="8.413309812978378"><ele>7.0</ele><time>2026-04-27T13:21:30.136Z</time></trkpt><trkpt lat="39.42681136621006" lon="8.413315839073546"><ele>7.0</ele><time>2026-04-27T13:21:31.136Z</time></trkpt><trkpt lat="39.42702684178189" lon="8.41332421048023"><ele>7.0</ele><time>2026-04-27T13:21:32.136Z</time></trkpt><trkpt lat="39.427237950141865" lon="8.413320352587437"><ele>7.0</ele><time>2026-04-27T13:21:33.136Z</time></trkpt><trkpt lat="39.42745006990398" lon="8.413320788111928"><ele>7.666666666666667</ele><time>2026-04-27T13:21:34.136Z</time></trkpt><trkpt lat="39.42765914472254" lon="8.413321802958635"><ele>8.333333333333334</ele><time>2026-04-27T13:21:35.136Z</time></trkpt><trkpt lat="39.42786990268146" lon="8.413323349737926"><ele>9.0</ele><time>2026-04-27T13:21:36.136Z</time></trkpt><trkpt lat="39.42807687110494" lon="8.413325550457579"><ele>9.333333333333334</ele><time>2026-04-27T13:21:37.136Z</time></trkpt><trkpt lat="39.42829286706533" lon="8.413331956706605"><ele>9.666666666666668</ele><time>2026-04-27T13:21:38.136Z</time></trkpt><trkpt lat="39.428505774662284" lon="8.41334574124505"><ele>10.0</ele><time>2026-04-27T13:21:39.136Z</time></trkpt><trkpt lat="39.42872188220399" lon="8.413365764018302"><ele>10.0</ele><time>2026-04-27T13:21:40.136Z</time></trkpt><trkpt lat="39.42894045998996" lon="8.413377471938313"><ele>10.0</ele><time>2026-04-27T13:21:41.136Z</time></trkpt><trkpt lat="39.42915520088335" lon="8.413388656380299"><ele>10.0</ele><time>2026-04-27T13:21:42.136Z</time></trkpt><trkpt lat="39.429371264208065" lon="8.413398494236617"><ele>10.0</ele><time>2026-04-27T13:21:43.136Z</time></trkpt><trkpt lat="39.42958332777981" lon="8.41340701063154"><ele>10.0</ele><time>2026-04-27T13:21:44.136Z</time></trkpt><trkpt lat="39.42979336757725" lon="8.413419952782311"><ele>10.0</ele><time>2026-04-27T13:21:45.136Z</time></trkpt><trkpt lat="39.43000220647188" lon="8.413444268336915"><ele>10.0</ele><time>2026-04-27T13:21:46.137Z</time></trkpt><trkpt lat="39.430216255570244" lon="8.41346793783994"><ele>10.0</ele><time>2026-04-27T13:21:47.137Z</time></trkpt><trkpt lat="39.43043197342927" lon="8.413489532942906"><ele>10.0</ele><time>2026-04-27T13:21:48.137Z</time></trkpt><trkpt lat="39.43064320097708" lon="8.413505108143301"><ele>10.0</ele><time>2026-04-27T13:21:49.137Z</time></trkpt><trkpt lat="39.43085626731443" lon="8.413510717175733"><ele>10.0</ele><time>2026-04-27T13:21:50.137Z</time></trkpt><trkpt lat="39.43107037571101" lon="8.413520186120973"><ele>10.0</ele><time>2026-04-27T13:21:51.137Z</time></trkpt><trkpt lat="39.43128344049957" lon="8.413537733502737"><ele>9.0</ele><time>2026-04-27T13:21:52.137Z</time></trkpt><trkpt lat="39.43149555476603" lon="8.413550313507871"><ele>8.0</ele><time>2026-04-27T13:21:53.137Z</time></trkpt><trkpt lat="39.43170497259508" lon="8.413562769195908"><ele>7.0</ele><time>2026-04-27T13:21:54.137Z</time></trkpt><trkpt lat="39.4319167053585" lon="8.413574163605833"><ele>7.0</ele><time>2026-04-27T13:21:55.137Z</time></trkpt><trkpt lat="39.43212186862924" lon="8.41358865015192"><ele>7.0</ele><time>2026-04-27T13:21:56.137Z</time></trkpt><trkpt lat="39.43233022388493" lon="8.413606462654098"><ele>7.0</ele><time>2026-04-27T13:21:57.137Z</time></trkpt><trkpt lat="39.43253451969793" lon="8.413619376716488"><ele>6.666666666666667</ele><time>2026-04-27T13:21:58.137Z</time></trkpt><trkpt lat="39.43274104609" lon="8.413632038982877"><ele>6.333333333333334</ele><time>2026-04-27T13:21:59.137Z</time></trkpt><trkpt lat="39.43294883595641" lon="8.41364331533106"><ele>6.0</ele><time>2026-04-27T13:22:00.137Z</time></trkpt><trkpt lat="39.4331540918738" lon="8.413652958370628"><ele>6.0</ele><time>2026-04-27T13:22:01.137Z</time></trkpt><trkpt lat="39.433365581482605" lon="8.413667831749143"><ele>6.0</ele><time>2026-04-27T13:22:02.137Z</time></trkpt><trkpt lat="39.433574940899824" lon="8.4136805384548"><ele>6.0</ele><time>2026-04-27T13:22:03.137Z</time></trkpt><trkpt lat="39.43378173851685" lon="8.413689215795305"><ele>5.0</ele><time>2026-04-27T13:22:04.137Z</time></trkpt><trkpt lat="39.43398867115337" lon="8.413693201554308"><ele>4.0</ele><time>2026-04-27T13:22:05.137Z</time></trkpt><trkpt lat="39.434197451203445" lon="8.413695258636663"><ele>3.0</ele><time>2026-04-27T13:22:06.137Z</time></trkpt><trkpt lat="39.43440696002555" lon="8.413697166734458"><ele>3.0</ele><time>2026-04-27T13:22:07.137Z</time></trkpt><trkpt lat="39.43461877406931" lon="8.413707728013412"><ele>3.0</ele><time>2026-04-27T13:22:08.137Z</time></trkpt><trkpt lat="39.43482904141145" lon="8.413721729664184"><ele>3.0</ele><time>2026-04-27T13:22:09.137Z</time></trkpt><trkpt lat="39.43503406540522" lon="8.413732841013978"><ele>2.6666666666666665</ele><time>2026-04-27T13:22:10.137Z</time></trkpt><trkpt lat="39.43523971282005" lon="8.41374511374516"><ele>2.333333333333333</ele><time>2026-04-27T13:22:11.137Z</time></trkpt><trkpt lat="39.43544495909784" lon="8.413758211821294"><ele>2.0</ele><time>2026-04-27T13:22:12.137Z</time></trkpt><trkpt lat="39.43564900592449" lon="8.413767916940419"><ele>2.0</ele><time>2026-04-27T13:22:13.137Z</time></trkpt><trkpt lat="39.43585308847243" lon="8.41377615678764"><ele>2.0</ele><time>2026-04-27T13:22:14.137Z</time></trkpt><trkpt lat="39.436061063336716" lon="8.413788082087628"><ele>2.0</ele><time>2026-04-27T13:22:15.137Z</time></trkpt><trkpt lat="39.43625069038568" lon="8.413799547753525"><ele>2.6666666666666665</ele><time>2026-04-27T13:22:16.137Z</time></trkpt><trkpt lat="39.43642558172671" lon="8.413811529287514"><ele>3.333333333333333</ele><time>2026-04-27T13:22:17.137Z</time></trkpt><trkpt lat="39.43658791469061" lon="8.413820969243693"><ele>4.0</ele><time>2026-04-27T13:22:18.137Z</time></trkpt><trkpt lat="39.43672404810947" lon="8.413837823063728"><ele>5.5</ele><time>2026-04-27T13:22:19.137Z</time></trkpt><trkpt lat="39.436824863694454" lon="8.41389804488699"><ele>7.0</ele><time>2026-04-27T13:22:20.137Z</time></trkpt><trkpt lat="39.43692007397904" lon="8.413994339077806"><ele>8.5</ele><time>2026-04-27T13:22:21.137Z</time></trkpt><trkpt lat="39.436993181104185" lon="8.414122181981194"><ele>10.0</ele><time>2026-04-27T13:22:22.137Z</time></trkpt><trkpt lat="39.43704537320882" lon="8.414274842579589"><ele>10.0</ele><time>2026-04-27T13:22:23.137Z</time></trkpt><trkpt lat="39.43706905471229" lon="8.414433825896063"><ele>10.0</ele><time>2026-04-27T13:22:24.137Z</time></trkpt><trkpt lat="39.43706140524036" lon="8.414604763229114"><ele>10.0</ele><time>2026-04-27T13:22:25.137Z</time></trkpt><trkpt lat="39.43703223690081" lon="8.41479987292267"><ele>10.0</ele><time>2026-04-27T13:22:26.137Z</time></trkpt><trkpt lat="39.43700540639695" lon="8.414999186840584"><ele>10.0</ele><time>2026-04-27T13:22:27.137Z</time></trkpt><trkpt lat="39.43698182294656" lon="8.415218292781992"><ele>10.0</ele><time>2026-04-27T13:22:28.137Z</time></trkpt><trkpt lat="39.4369608390447" lon="8.415437894239497"><ele>10.0</ele><time>2026-04-27T13:22:29.137Z</time></trkpt><trkpt lat="39.43694270079839" lon="8.41565036522185"><ele>10.25</ele><time>2026-04-27T13:22:30.137Z</time></trkpt><trkpt lat="39.43692405199451" lon="8.415847037739935"><ele>10.5</ele><time>2026-04-27T13:22:31.137Z</time></trkpt><trkpt lat="39.43692472738162" lon="8.416029177499079"><ele>10.75</ele><time>2026-04-27T13:22:32.137Z</time></trkpt><trkpt lat="39.436965950399625" lon="8.416215292426257"><ele>11.0</ele><time>2026-04-27T13:22:33.137Z</time></trkpt><trkpt lat="39.437031496360554" lon="8.416411176170183"><ele>11.0</ele><time>2026-04-27T13:22:34.137Z</time></trkpt><trkpt lat="39.437123396707605" lon="8.416585862012573"><ele>11.0</ele><time>2026-04-27T13:22:35.137Z</time></trkpt><trkpt lat="39.437235294163266" lon="8.416754297711561"><ele>11.0</ele><time>2026-04-27T13:22:36.137Z</time></trkpt><trkpt lat="39.43735848786044" lon="8.416904484322023"><ele>8.666666666666666</ele><time>2026-04-27T13:22:37.137Z</time></trkpt><trkpt lat="39.437509524305305" lon="8.416997278840546"><ele>6.333333333333333</ele><time>2026-04-27T13:22:38.137Z</time></trkpt><trkpt lat="39.43767137184035" lon="8.417014706617904"><ele>4.0</ele><time>2026-04-27T13:22:39.137Z</time></trkpt><trkpt lat="39.43784457648188" lon="8.416971631951744"><ele>4.333333333333333</ele><time>2026-04-27T13:22:40.137Z</time></trkpt><trkpt lat="39.43800969176057" lon="8.416874313869434"><ele>4.666666666666667</ele><time>2026-04-27T13:22:41.137Z</time></trkpt><trkpt lat="39.43816687830325" lon="8.41674851066254"><ele>5.0</ele><time>2026-04-27T13:22:42.137Z</time></trkpt><trkpt lat="39.43832198941646" lon="8.41662731905793"><ele>5.0</ele><time>2026-04-27T13:22:43.137Z</time></trkpt><trkpt lat="39.43847383887869" lon="8.416536162868313"><ele>5.0</ele><time>2026-04-27T13:22:44.137Z</time></trkpt><trkpt lat="39.43861055433266" lon="8.416478575601976"><ele>5.0</ele><time>2026-04-27T13:22:45.137Z</time></trkpt><trkpt lat="39.438753947129555" lon="8.416504260332761"><ele>4.333333333333334</ele><time>2026-04-27T13:22:46.137Z</time></trkpt><trkpt lat="39.4388882359508" lon="8.41660984241536"><ele>3.666666666666667</ele><time>2026-04-27T13:22:47.137Z</time></trkpt><trkpt lat="39.43901333199844" lon="8.416755644753675"><ele>3.0</ele><time>2026-04-27T13:22:48.137Z</time></trkpt><trkpt lat="39.439134001640056" lon="8.41692562903492"><ele>3.0</ele><time>2026-04-27T13:22:49.137Z</time></trkpt><trkpt lat="39.43921874186677" lon="8.4171319268912"><ele>3.0</ele><time>2026-04-27T13:22:50.137Z</time></trkpt><trkpt lat="39.43926896467051" lon="8.417365440992796"><ele>3.0</ele><time>2026-04-27T13:22:51.137Z</time></trkpt><trkpt lat="39.43928886306167" lon="8.417615103223296"><ele>4.333333333333334</ele><time>2026-04-27T13:22:52.137Z</time></trkpt><trkpt lat="39.43930981682047" lon="8.417867826810065"><ele>5.666666666666667</ele><time>2026-04-27T13:22:53.137Z</time></trkpt><trkpt lat="39.439335024297975" lon="8.418118821536236"><ele>7.0</ele><time>2026-04-27T13:22:54.137Z</time></trkpt><trkpt lat="39.43936141331217" lon="8.41836984064794"><ele>7.0</ele><time>2026-04-27T13:22:55.137Z</time></trkpt><trkpt lat="39.439409556971526" lon="8.41862199584359"><ele>7.0</ele><time>2026-04-27T13:22:56.137Z</time></trkpt><trkpt lat="39.43948697384519" lon="8.418858341857765"><ele>7.0</ele><time>2026-04-27T13:22:57.137Z</time></trkpt><trkpt lat="39.4395916547955" lon="8.419084107931093"><ele>6.333333333333334</ele><time>2026-04-27T13:22:58.137Z</time></trkpt><trkpt lat="39.4397018279514" lon="8.419316483899257"><ele>5.666666666666667</ele><time>2026-04-27T13:22:59.138Z</time></trkpt><trkpt lat="39.439814098688345" lon="8.419545059183807"><ele>5.0</ele><time>2026-04-27T13:23:00.138Z</time></trkpt><trkpt lat="39.4399147292532" lon="8.419766808797661"><ele>5.0</ele><time>2026-04-27T13:23:01.138Z</time></trkpt><trkpt lat="39.43998389001272" lon="8.419988418481399"><ele>5.0</ele><time>2026-04-27T13:23:02.138Z</time></trkpt><trkpt lat="39.44002156708121" lon="8.420228803270824"><ele>5.0</ele><time>2026-04-27T13:23:03.138Z</time></trkpt><trkpt lat="39.44004263446148" lon="8.420484117643483"><ele>5.666666666666667</ele><time>2026-04-27T13:23:04.138Z</time></trkpt><trkpt lat="39.44005301247164" lon="8.42074373130044"><ele>6.333333333333334</ele><time>2026-04-27T13:23:05.138Z</time></trkpt><trkpt lat="39.44006144684178" lon="8.421004028270476"><ele>7.0</ele><time>2026-04-27T13:23:06.138Z</time></trkpt><trkpt lat="39.44007478817728" lon="8.4212627024768"><ele>7.666666666666667</ele><time>2026-04-27T13:23:07.138Z</time></trkpt><trkpt lat="39.44008830752067" lon="8.421524377774231"><ele>8.333333333333334</ele><time>2026-04-27T13:23:08.138Z</time></trkpt><trkpt lat="39.44011031909555" lon="8.421787408737051"><ele>9.0</ele><time>2026-04-27T13:23:09.138Z</time></trkpt><trkpt lat="39.440152892952426" lon="8.422044841976136"><ele>9.666666666666666</ele><time>2026-04-27T13:23:10.138Z</time></trkpt><trkpt lat="39.44021983349102" lon="8.422303672458366"><ele>10.333333333333332</ele><time>2026-04-27T13:23:11.138Z</time></trkpt><trkpt lat="39.440315269623675" lon="8.42254774855259"><ele>11.0</ele><time>2026-04-27T13:23:12.138Z</time></trkpt><trkpt lat="39.44043038307367" lon="8.422780772201886"><ele>10.0</ele><time>2026-04-27T13:23:13.138Z</time></trkpt><trkpt lat="39.44055811975944" lon="8.423009958001444"><ele>9.0</ele><time>2026-04-27T13:23:14.138Z</time></trkpt><trkpt lat="39.44068874327421" lon="8.423246941076814"><ele>8.0</ele><time>2026-04-27T13:23:15.138Z</time></trkpt><trkpt lat="39.440812391341716" lon="8.423484161663472"><ele>8.0</ele><time>2026-04-27T13:23:16.138Z</time></trkpt><trkpt lat="39.44093730814635" lon="8.42372481681245"><ele>8.0</ele><time>2026-04-27T13:23:17.138Z</time></trkpt><trkpt lat="39.44106773882135" lon="8.423965428385884"><ele>8.0</ele><time>2026-04-27T13:23:18.139Z</time></trkpt><trkpt lat="39.441200386530426" lon="8.424204820958712"><ele>8.0</ele><time>2026-04-27T13:23:19.138Z</time></trkpt><trkpt lat="39.44133504228038" lon="8.424448833577658"><ele>7.0</ele><time>2026-04-27T13:23:20.138Z</time></trkpt><trkpt lat="39.44147065938879" lon="8.424692196720404"><ele>6.0</ele><time>2026-04-27T13:23:21.138Z</time></trkpt><trkpt lat="39.44161193132315" lon="8.424932990384596"><ele>6.0</ele><time>2026-04-27T13:23:22.138Z</time></trkpt><trkpt lat="39.44175943404484" lon="8.425166319613854"><ele>6.0</ele><time>2026-04-27T13:23:23.138Z</time></trkpt><trkpt lat="39.44190480997856" lon="8.425383329422472"><ele>6.0</ele><time>2026-04-27T13:23:24.138Z</time></trkpt><trkpt lat="39.44204271712074" lon="8.425595224410737"><ele>6.0</ele><time>2026-04-27T13:23:25.139Z</time></trkpt><trkpt lat="39.442156626044046" lon="8.425818609600357"><ele>6.0</ele><time>2026-04-27T13:23:26.139Z</time></trkpt><trkpt lat="39.442230642663134" lon="8.426072372257133"><ele>6.666666666666666</ele><time>2026-04-27T13:23:27.139Z</time></trkpt><trkpt lat="39.44227091606561" lon="8.426346238725253"><ele>7.333333333333333</ele><time>2026-04-27T13:23:28.139Z</time></trkpt><trkpt lat="39.442295255902145" lon="8.42662935124544"><ele>8.0</ele><time>2026-04-27T13:23:29.139Z</time></trkpt><trkpt lat="39.442320582009025" lon="8.426920897604639"><ele>7.5</ele><time>2026-04-27T13:23:30.139Z</time></trkpt><trkpt lat="39.442351872965865" lon="8.427211520651479"><ele>7.0</ele><time>2026-04-27T13:23:31.139Z</time></trkpt><trkpt lat="39.442383886835344" lon="8.427499197202449"><ele>7.0</ele><time>2026-04-27T13:23:32.139Z</time></trkpt><trkpt lat="39.44241492562793" lon="8.42778705945798"><ele>7.0</ele><time>2026-04-27T13:23:33.139Z</time></trkpt><trkpt lat="39.442448747893" lon="8.428074375377205"><ele>7.0</ele><time>2026-04-27T13:23:34.139Z</time></trkpt><trkpt lat="39.44248050252006" lon="8.428365667252839"><ele>7.5</ele><time>2026-04-27T13:23:35.139Z</time></trkpt><trkpt lat="39.44249433689337" lon="8.428658003302429"><ele>8.0</ele><time>2026-04-27T13:23:36.139Z</time></trkpt><trkpt lat="39.44250939326931" lon="8.428949436734687"><ele>8.666666666666666</ele><time>2026-04-27T13:23:37.139Z</time></trkpt><trkpt lat="39.44253259481466" lon="8.429236549224886"><ele>9.333333333333334</ele><time>2026-04-27T13:23:38.139Z</time></trkpt><trkpt lat="39.44255964995862" lon="8.42952668546825"><ele>10.0</ele><time>2026-04-27T13:23:39.139Z</time></trkpt><trkpt lat="39.442587753024384" lon="8.429814441018799"><ele>10.0</ele><time>2026-04-27T13:23:40.139Z</time></trkpt><trkpt lat="39.44261717350074" lon="8.430104681450754"><ele>10.0</ele><time>2026-04-27T13:23:41.139Z</time></trkpt><trkpt lat="39.442645848011075" lon="8.430394520582391"><ele>12.0</ele><time>2026-04-27T13:23:42.139Z</time></trkpt><trkpt lat="39.442668658002894" lon="8.430689217811205"><ele>14.0</ele><time>2026-04-27T13:23:43.139Z</time></trkpt><trkpt lat="39.44269479203516" lon="8.430986470750986"><ele>14.0</ele><time>2026-04-27T13:23:44.139Z</time></trkpt><trkpt lat="39.44272356198446" lon="8.431282853227072"><ele>14.0</ele><time>2026-04-27T13:23:45.139Z</time></trkpt><trkpt lat="39.4427566255113" lon="8.43157832377506"><ele>14.5</ele><time>2026-04-27T13:23:46.139Z</time></trkpt><trkpt lat="39.44278695679524" lon="8.431872121935335"><ele>15.0</ele><time>2026-04-27T13:23:47.139Z</time></trkpt><trkpt lat="39.44281684147192" lon="8.432163485605507"><ele>16.333333333333332</ele><time>2026-04-27T13:23:48.139Z</time></trkpt><trkpt lat="39.44284224177268" lon="8.4324459566972"><ele>17.666666666666664</ele><time>2026-04-27T13:23:49.139Z</time></trkpt><trkpt lat="39.44286438098528" lon="8.432724033452065"><ele>19.0</ele><time>2026-04-27T13:23:50.139Z</time></trkpt><trkpt lat="39.442891791163866" lon="8.433001851856211"><ele>19.333333333333332</ele><time>2026-04-27T13:23:51.139Z</time></trkpt><trkpt lat="39.44291730767136" lon="8.433279867987034"><ele>19.666666666666668</ele><time>2026-04-27T13:23:52.139Z</time></trkpt><trkpt lat="39.44295839891781" lon="8.433552080281444"><ele>20.0</ele><time>2026-04-27T13:23:53.139Z</time></trkpt><trkpt lat="39.44302822856673" lon="8.43381527781391"><ele>17.666666666666668</ele><time>2026-04-27T13:23:54.139Z</time></trkpt><trkpt lat="39.44312805258222" lon="8.434065739966075"><ele>15.333333333333332</ele><time>2026-04-27T13:23:55.139Z</time></trkpt><trkpt lat="39.44324310768665" lon="8.434307861560619"><ele>13.0</ele><time>2026-04-27T13:23:56.139Z</time></trkpt><trkpt lat="39.44335956790607" lon="8.434547366607239"><ele>13.0</ele><time>2026-04-27T13:23:57.139Z</time></trkpt><trkpt lat="39.44347208301403" lon="8.434793898819494"><ele>13.0</ele><time>2026-04-27T13:23:58.139Z</time></trkpt><trkpt lat="39.4435878836421" lon="8.435042054584416"><ele>13.0</ele><time>2026-04-27T13:23:59.139Z</time></trkpt><trkpt lat="39.443702042563224" lon="8.43528881856437"><ele>11.333333333333332</ele><time>2026-04-27T13:24:00.139Z</time></trkpt><trkpt lat="39.44381949796404" lon="8.435534770117052"><ele>9.666666666666666</ele><time>2026-04-27T13:24:01.139Z</time></trkpt><trkpt lat="39.443936578193814" lon="8.43578248941236"><ele>8.0</ele><time>2026-04-27T13:24:02.139Z</time></trkpt><trkpt lat="39.444020573691866" lon="8.436041081499333"><ele>9.666666666666666</ele><time>2026-04-27T13:24:03.139Z</time></trkpt><trkpt lat="39.44406186779924" lon="8.436319520509153"><ele>11.333333333333332</ele><time>2026-04-27T13:24:04.139Z</time></trkpt><trkpt lat="39.44407543184653" lon="8.436612080457232"><ele>13.0</ele><time>2026-04-27T13:24:05.14Z</time></trkpt><trkpt lat="39.44409357333891" lon="8.436911049600647"><ele>12.0</ele><time>2026-04-27T13:24:06.14Z</time></trkpt><trkpt lat="39.4441203018131" lon="8.437215512663848"><ele>11.0</ele><time>2026-04-27T13:24:07.14Z</time></trkpt><trkpt lat="39.44414555184135" lon="8.437526636313592"><ele>11.0</ele><time>2026-04-27T13:24:08.14Z</time></trkpt><trkpt lat="39.4441695439977" lon="8.43783778726661"><ele>11.0</ele><time>2026-04-27T13:24:09.14Z</time></trkpt><trkpt lat="39.444193231880234" lon="8.438151587400732"><ele>10.5</ele><time>2026-04-27T13:24:10.14Z</time></trkpt><trkpt lat="39.44421808783705" lon="8.438462410350159"><ele>10.0</ele><time>2026-04-27T13:24:11.14Z</time></trkpt><trkpt lat="39.44424761527037" lon="8.438764383558548"><ele>11.0</ele><time>2026-04-27T13:24:12.14Z</time></trkpt><trkpt lat="39.444279470420085" lon="8.439068759950093"><ele>12.0</ele><time>2026-04-27T13:24:13.14Z</time></trkpt><trkpt lat="39.44431812583036" lon="8.439376231184916"><ele>14.0</ele><time>2026-04-27T13:24:14.14Z</time></trkpt><trkpt lat="39.44436374512538" lon="8.439686125412269"><ele>16.0</ele><time>2026-04-27T13:24:15.14Z</time></trkpt><trkpt lat="39.44441771416791" lon="8.439993283738765"><ele>16.0</ele><time>2026-04-27T13:24:16.14Z</time></trkpt><trkpt lat="39.44446872679051" lon="8.440301728991189"><ele>16.0</ele><time>2026-04-27T13:24:17.14Z</time></trkpt><trkpt lat="39.44451468516561" lon="8.440602083019813"><ele>18.333333333333332</ele><time>2026-04-27T13:24:18.14Z</time></trkpt><trkpt lat="39.444556363789566" lon="8.440884157593203"><ele>20.666666666666668</ele><time>2026-04-27T13:24:19.14Z</time></trkpt><trkpt lat="39.44459278198873" lon="8.441146703685927"><ele>23.0</ele><time>2026-04-27T13:24:20.14Z</time></trkpt><trkpt lat="39.44462510011182" lon="8.441386417115483"><ele>24.0</ele><time>2026-04-27T13:24:21.14Z</time></trkpt><trkpt lat="39.44462547813076" lon="8.44160599983069"><ele>25.0</ele><time>2026-04-27T13:24:22.14Z</time></trkpt><trkpt lat="39.444570265362614" lon="8.441798226051667"><ele>26.0</ele><time>2026-04-27T13:24:23.14Z</time></trkpt><trkpt lat="39.44446677640985" lon="8.441988613996612"><ele>23.0</ele><time>2026-04-27T13:24:24.14Z</time></trkpt><trkpt lat="39.444355025121226" lon="8.442192292771075"><ele>20.0</ele><time>2026-04-27T13:24:25.14Z</time></trkpt><trkpt lat="39.44424626941212" lon="8.442416191067817"><ele>17.0</ele><time>2026-04-27T13:24:26.14Z</time></trkpt><trkpt lat="39.444140676351246" lon="8.44265261447397"><ele>17.0</ele><time>2026-04-27T13:24:27.14Z</time></trkpt><trkpt lat="39.444033655059116" lon="8.442870307680172"><ele>17.0</ele><time>2026-04-27T13:24:28.14Z</time></trkpt><trkpt lat="39.443929968075" lon="8.44307582334433"><ele>17.0</ele><time>2026-04-27T13:24:29.14Z</time></trkpt><trkpt lat="39.44386275830228" lon="8.443288148604791"><ele>16.0</ele><time>2026-04-27T13:24:30.14Z</time></trkpt><trkpt lat="39.44385023896635" lon="8.443508296293803"><ele>15.0</ele><time>2026-04-27T13:24:31.14Z</time></trkpt><trkpt lat="39.44390111241415" lon="8.443731687693269"><ele>14.0</ele><time>2026-04-27T13:24:32.14Z</time></trkpt><trkpt lat="39.44396432188023" lon="8.443948889271786"><ele>14.0</ele><time>2026-04-27T13:24:33.14Z</time></trkpt><trkpt lat="39.444064284298115" lon="8.444149454360627"><ele>14.0</ele><time>2026-04-27T13:24:34.14Z</time></trkpt><trkpt lat="39.44418418577965" lon="8.444347600264475"><ele>14.0</ele><time>2026-04-27T13:24:35.14Z</time></trkpt><trkpt lat="39.44431490308699" lon="8.444547033737917"><ele>14.0</ele><time>2026-04-27T13:24:36.14Z</time></trkpt><trkpt lat="39.44444551638574" lon="8.444751142630315"><ele>14.0</ele><time>2026-04-27T13:24:37.14Z</time></trkpt><trkpt lat="39.44457714094398" lon="8.444959568450717"><ele>14.0</ele><time>2026-04-27T13:24:38.14Z</time></trkpt><trkpt lat="39.44472061874521" lon="8.445164423145357"><ele>14.0</ele><time>2026-04-27T13:24:39.14Z</time></trkpt><trkpt lat="39.44488028427777" lon="8.445360875629838"><ele>14.0</ele><time>2026-04-27T13:24:40.14Z</time></trkpt><trkpt lat="39.44505539888945" lon="8.445537597560838"><ele>14.0</ele><time>2026-04-27T13:24:41.14Z</time></trkpt><trkpt lat="39.445231704896344" lon="8.44571405772284"><ele>14.333333333333334</ele><time>2026-04-27T13:24:42.14Z</time></trkpt><trkpt lat="39.44540606223976" lon="8.44589358945858"><ele>14.666666666666668</ele><time>2026-04-27T13:24:43.14Z</time></trkpt><trkpt lat="39.44557532461914" lon="8.446087441302684"><ele>15.0</ele><time>2026-04-27T13:24:44.14Z</time></trkpt><trkpt lat="39.44572753197911" lon="8.446293441923835"><ele>16.666666666666668</ele><time>2026-04-27T13:24:45.14Z</time></trkpt><trkpt lat="39.445871412509256" lon="8.446514623788683"><ele>18.333333333333336</ele><time>2026-04-27T13:24:46.14Z</time></trkpt><trkpt lat="39.446019144294524" lon="8.446732778771146"><ele>20.0</ele><time>2026-04-27T13:24:47.14Z</time></trkpt><trkpt lat="39.446177805792814" lon="8.446935742935196"><ele>18.5</ele><time>2026-04-27T13:24:48.14Z</time></trkpt><trkpt lat="39.44635117121035" lon="8.44712834095688"><ele>17.0</ele><time>2026-04-27T13:24:49.14Z</time></trkpt><trkpt lat="39.446527668350505" lon="8.447327989182595"><ele>17.0</ele><time>2026-04-27T13:24:50.14Z</time></trkpt><trkpt lat="39.44668916957523" lon="8.447515926842964"><ele>17.0</ele><time>2026-04-27T13:24:51.14Z</time></trkpt><trkpt lat="39.44684433808805" lon="8.447675494563729"><ele>17.0</ele><time>2026-04-27T13:24:52.14Z</time></trkpt><trkpt lat="39.4470217675259" lon="8.44778674392119"><ele>16.0</ele><time>2026-04-27T13:24:53.14Z</time></trkpt><trkpt lat="39.44722387899361" lon="8.447859005197772"><ele>15.0</ele><time>2026-04-27T13:24:54.14Z</time></trkpt><trkpt lat="39.44743471519205" lon="8.447930465305426"><ele>14.0</ele><time>2026-04-27T13:24:55.14Z</time></trkpt><trkpt lat="39.4476519011412" lon="8.44800660895196"><ele>16.0</ele><time>2026-04-27T13:24:56.14Z</time></trkpt><trkpt lat="39.447873166832075" lon="8.448086925536806"><ele>18.0</ele><time>2026-04-27T13:24:57.14Z</time></trkpt><trkpt lat="39.44809605806459" lon="8.448172518024808"><ele>18.0</ele><time>2026-04-27T13:24:58.14Z</time></trkpt><trkpt lat="39.44831911374405" lon="8.448253080122852"><ele>18.0</ele><time>2026-04-27T13:24:59.14Z</time></trkpt><trkpt lat="39.448534142510404" lon="8.448326877325657"><ele>18.0</ele><time>2026-04-27T13:25:00.14Z</time></trkpt><trkpt lat="39.44874151025639" lon="8.44839830603187"><ele>18.0</ele><time>2026-04-27T13:25:01.14Z</time></trkpt><trkpt lat="39.448943751917426" lon="8.448471194215744"><ele>18.0</ele><time>2026-04-27T13:25:02.14Z</time></trkpt><trkpt lat="39.44913972276745" lon="8.448552487164344"><ele>17.333333333333332</ele><time>2026-04-27T13:25:03.14Z</time></trkpt><trkpt lat="39.449314809816165" lon="8.4486632076635"><ele>16.666666666666664</ele><time>2026-04-27T13:25:04.14Z</time></trkpt><trkpt lat="39.44946243011522" lon="8.448826202549897"><ele>16.0</ele><time>2026-04-27T13:25:05.14Z</time></trkpt><trkpt lat="39.44959804329983" lon="8.44901903170447"><ele>16.333333333333332</ele><time>2026-04-27T13:25:06.14Z</time></trkpt><trkpt lat="39.44973813564931" lon="8.449217743116083"><ele>16.666666666666668</ele><time>2026-04-27T13:25:07.14Z</time></trkpt><trkpt lat="39.44986941017596" lon="8.449423914325918"><ele>17.0</ele><time>2026-04-27T13:25:08.14Z</time></trkpt><trkpt lat="39.44997382458284" lon="8.449608835271535"><ele>18.0</ele><time>2026-04-27T13:25:09.14Z</time></trkpt><trkpt lat="39.45002974953647" lon="8.449791335422912"><ele>19.0</ele><time>2026-04-27T13:25:10.14Z</time></trkpt><trkpt lat="39.45004143228019" lon="8.449979921345824"><ele>20.0</ele><time>2026-04-27T13:25:11.14Z</time></trkpt><trkpt lat="39.44999816203002" lon="8.450192632086457"><ele>20.0</ele><time>2026-04-27T13:25:12.14Z</time></trkpt><trkpt lat="39.449922708169325" lon="8.450410599776573"><ele>20.0</ele><time>2026-04-27T13:25:13.14Z</time></trkpt><trkpt lat="39.44985105522953" lon="8.450642253863231"><ele>20.0</ele><time>2026-04-27T13:25:14.14Z</time></trkpt><trkpt lat="39.449773342016194" lon="8.450875990568372"><ele>19.666666666666668</ele><time>2026-04-27T13:25:15.14Z</time></trkpt><trkpt lat="39.449692181039936" lon="8.451111681263235"><ele>19.333333333333332</ele><time>2026-04-27T13:25:16.14Z</time></trkpt><trkpt lat="39.44962041244443" lon="8.45133310398131"><ele>19.0</ele><time>2026-04-27T13:25:17.14Z</time></trkpt><trkpt lat="39.449562112830776" lon="8.451547943525092"><ele>23.0</ele><time>2026-04-27T13:25:18.141Z</time></trkpt><trkpt lat="39.44954040533466" lon="8.451791499370389"><ele>27.0</ele><time>2026-04-27T13:25:19.141Z</time></trkpt><trkpt lat="39.44956489205677" lon="8.452049183947095"><ele>31.0</ele><time>2026-04-27T13:25:20.141Z</time></trkpt><trkpt lat="39.449605107474305" lon="8.452314401515347"><ele>32.333333333333336</ele><time>2026-04-27T13:25:21.141Z</time></trkpt><trkpt lat="39.449623982377865" lon="8.452580620348721"><ele>33.666666666666664</ele><time>2026-04-27T13:25:22.141Z</time></trkpt><trkpt lat="39.44964118869937" lon="8.452859280004544"><ele>35.0</ele><time>2026-04-27T13:25:23.141Z</time></trkpt><trkpt lat="39.449664466184025" lon="8.453144031238239"><ele>30.666666666666664</ele><time>2026-04-27T13:25:24.142Z</time></trkpt><trkpt lat="39.44968483135582" lon="8.453431410028912"><ele>26.333333333333332</ele><time>2026-04-27T13:25:25.141Z</time></trkpt><trkpt lat="39.449705738438546" lon="8.453718021555176"><ele>22.0</ele><time>2026-04-27T13:25:26.141Z</time></trkpt><trkpt lat="39.44972806566549" lon="8.454002497112176"><ele>22.0</ele><time>2026-04-27T13:25:27.141Z</time></trkpt><trkpt lat="39.44972711279119" lon="8.45428674380838"><ele>22.0</ele><time>2026-04-27T13:25:28.141Z</time></trkpt><trkpt lat="39.44969286856681" lon="8.454579968152947"><ele>22.0</ele><time>2026-04-27T13:25:29.141Z</time></trkpt><trkpt lat="39.449651248008706" lon="8.45487636472166"><ele>28.0</ele><time>2026-04-27T13:25:30.142Z</time></trkpt><trkpt lat="39.449612330517326" lon="8.455170665536171"><ele>34.0</ele><time>2026-04-27T13:25:31.141Z</time></trkpt><trkpt lat="39.44957728455712" lon="8.455442633935691"><ele>40.0</ele><time>2026-04-27T13:25:32.141Z</time></trkpt><trkpt lat="39.449529128979556" lon="8.455690986029081"><ele>40.0</ele><time>2026-04-27T13:25:33.141Z</time></trkpt><trkpt lat="39.449439328266365" lon="8.455914894760088"><ele>40.0</ele><time>2026-04-27T13:25:34.141Z</time></trkpt><trkpt lat="39.449313824907115" lon="8.456131420189994"><ele>40.0</ele><time>2026-04-27T13:25:35.141Z</time></trkpt><trkpt lat="39.449178033983074" lon="8.456346779196771"><ele>34.0</ele><time>2026-04-27T13:25:36.141Z</time></trkpt><trkpt lat="39.449038444642355" lon="8.456572091518435"><ele>28.0</ele><time>2026-04-27T13:25:37.141Z</time></trkpt><trkpt lat="39.44890278292707" lon="8.456807977625248"><ele>29.666666666666668</ele><time>2026-04-27T13:25:38.141Z</time></trkpt><trkpt lat="39.4487689586158" lon="8.457038238032801"><ele>31.333333333333336</ele><time>2026-04-27T13:25:39.141Z</time></trkpt><trkpt lat="39.44863198759871" lon="8.457267036560749"><ele>33.0</ele><time>2026-04-27T13:25:40.141Z</time></trkpt><trkpt lat="39.448519559568496" lon="8.457514111943155"><ele>33.0</ele><time>2026-04-27T13:25:41.141Z</time></trkpt><trkpt lat="39.4484337049452" lon="8.457770390679194"><ele>33.0</ele><time>2026-04-27T13:25:42.141Z</time></trkpt><trkpt lat="39.448373615683906" lon="8.45804087079503"><ele>33.0</ele><time>2026-04-27T13:25:43.141Z</time></trkpt><trkpt lat="39.44832614481722" lon="8.458327587382623"><ele>31.0</ele><time>2026-04-27T13:25:44.141Z</time></trkpt><trkpt lat="39.44827795060132" lon="8.458620104774388"><ele>29.0</ele><time>2026-04-27T13:25:45.141Z</time></trkpt><trkpt lat="39.44820224175391" lon="8.458904842861921"><ele>27.5</ele><time>2026-04-27T13:25:46.141Z</time></trkpt><trkpt lat="39.4480955806887" lon="8.459172388170028"><ele>26.0</ele><time>2026-04-27T13:25:47.141Z</time></trkpt><trkpt lat="39.44797563232237" lon="8.459434136207317"><ele>31.5</ele><time>2026-04-27T13:25:48.141Z</time></trkpt><trkpt lat="39.44785375027646" lon="8.459696661550648"><ele>37.0</ele><time>2026-04-27T13:25:49.141Z</time></trkpt><trkpt lat="39.447747736621544" lon="8.459968738979068"><ele>37.0</ele><time>2026-04-27T13:25:50.141Z</time></trkpt><trkpt lat="39.447653299014185" lon="8.46024868701637"><ele>37.0</ele><time>2026-04-27T13:25:51.141Z</time></trkpt><trkpt lat="39.44756581370098" lon="8.460532517856842"><ele>32.5</ele><time>2026-04-27T13:25:52.141Z</time></trkpt><trkpt lat="39.44747708106225" lon="8.460814579994057"><ele>28.0</ele><time>2026-04-27T13:25:53.141Z</time></trkpt><trkpt lat="39.44738622997485" lon="8.461093729503087"><ele>25.5</ele><time>2026-04-27T13:25:54.141Z</time></trkpt><trkpt lat="39.447294802298025" lon="8.461375632860275"><ele>23.0</ele><time>2026-04-27T13:25:55.141Z</time></trkpt><trkpt lat="39.44720636684018" lon="8.461659229310584"><ele>23.0</ele><time>2026-04-27T13:25:56.141Z</time></trkpt><trkpt lat="39.447119343926616" lon="8.461933039369514"><ele>23.0</ele><time>2026-04-27T13:25:57.141Z</time></trkpt><trkpt lat="39.44703608188631" lon="8.462189929485321"><ele>23.0</ele><time>2026-04-27T13:25:58.141Z</time></trkpt><trkpt lat="39.446978923997776" lon="8.4624419722373"><ele>23.0</ele><time>2026-04-27T13:25:59.141Z</time></trkpt><trkpt lat="39.44697823714572" lon="8.46270959050572"><ele>23.0</ele><time>2026-04-27T13:26:00.141Z</time></trkpt><trkpt lat="39.44703379234595" lon="8.46298925874268"><ele>23.0</ele><time>2026-04-27T13:26:01.141Z</time></trkpt><trkpt lat="39.44708360065419" lon="8.463263405385755"><ele>23.0</ele><time>2026-04-27T13:26:02.142Z</time></trkpt><trkpt lat="39.44713694932004" lon="8.463539496555962"><ele>23.0</ele><time>2026-04-27T13:26:03.142Z</time></trkpt><trkpt lat="39.447181846773915" lon="8.463819389320381"><ele>23.0</ele><time>2026-04-27T13:26:04.142Z</time></trkpt><trkpt lat="39.44723038287874" lon="8.464105627750012"><ele>23.0</ele><time>2026-04-27T13:26:05.142Z</time></trkpt><trkpt lat="39.44728355474331" lon="8.464394285827945"><ele>23.0</ele><time>2026-04-27T13:26:06.142Z</time></trkpt><trkpt lat="39.44733667796506" lon="8.46468429487922"><ele>24.0</ele><time>2026-04-27T13:26:07.142Z</time></trkpt><trkpt lat="39.44738624958343" lon="8.464974363714107"><ele>25.0</ele><time>2026-04-27T13:26:08.142Z</time></trkpt><trkpt lat="39.44741840130486" lon="8.46526451061959"><ele>26.0</ele><time>2026-04-27T13:26:09.142Z</time></trkpt><trkpt lat="39.44742540127735" lon="8.46555730087554"><ele>27.0</ele><time>2026-04-27T13:26:10.142Z</time></trkpt><trkpt lat="39.447424300948576" lon="8.465853372360328"><ele>27.0</ele><time>2026-04-27T13:26:11.142Z</time></trkpt><trkpt lat="39.447419850928306" lon="8.466139900613198"><ele>27.0</ele><time>2026-04-27T13:26:12.142Z</time></trkpt><trkpt lat="39.447424605051815" lon="8.466406200878563"><ele>27.0</ele><time>2026-04-27T13:26:13.142Z</time></trkpt><trkpt lat="39.44746555964637" lon="8.46665382458237"><ele>27.666666666666664</ele><time>2026-04-27T13:26:14.142Z</time></trkpt><trkpt lat="39.447564657111386" lon="8.466876492830687"><ele>28.333333333333332</ele><time>2026-04-27T13:26:15.142Z</time></trkpt><trkpt lat="39.44769438959427" lon="8.467075326365231"><ele>29.0</ele><time>2026-04-27T13:26:16.142Z</time></trkpt><trkpt lat="39.447850076783105" lon="8.467267340169666"><ele>29.0</ele><time>2026-04-27T13:26:17.142Z</time></trkpt><trkpt lat="39.4480182449308" lon="8.467446013819888"><ele>29.0</ele><time>2026-04-27T13:26:18.142Z</time></trkpt><trkpt lat="39.44820899712728" lon="8.46758498283832"><ele>29.0</ele><time>2026-04-27T13:26:19.142Z</time></trkpt><trkpt lat="39.44842281540909" lon="8.467690894973826"><ele>29.0</ele><time>2026-04-27T13:26:20.142Z</time></trkpt><trkpt lat="39.44864151576241" lon="8.467792776598651"><ele>29.0</ele><time>2026-04-27T13:26:21.142Z</time></trkpt><trkpt lat="39.448844360009176" lon="8.467887129421323"><ele>29.0</ele><time>2026-04-27T13:26:22.142Z</time></trkpt><trkpt lat="39.44904901319395" lon="8.467970421551634"><ele>30.0</ele><time>2026-04-27T13:26:23.142Z</time></trkpt><trkpt lat="39.449252584426674" lon="8.468007540134787"><ele>31.0</ele><time>2026-04-27T13:26:24.142Z</time></trkpt><trkpt lat="39.44946549673266" lon="8.467981597922783"><ele>32.0</ele><time>2026-04-27T13:26:25.142Z</time></trkpt><trkpt lat="39.44965245910066" lon="8.467946399181207"><ele>32.0</ele><time>2026-04-27T13:26:26.142Z</time></trkpt><trkpt lat="39.44982263737635" lon="8.467927640910453"><ele>32.0</ele><time>2026-04-27T13:26:27.142Z</time></trkpt><trkpt lat="39.449974898407284" lon="8.467984588025924"><ele>32.0</ele><time>2026-04-27T13:26:28.142Z</time></trkpt><trkpt lat="39.45009452912094" lon="8.468126726107295"><ele>32.0</ele><time>2026-04-27T13:26:29.142Z</time></trkpt><trkpt lat="39.45016127777886" lon="8.46833552980295"><ele>32.0</ele><time>2026-04-27T13:26:30.142Z</time></trkpt><trkpt lat="39.450177752966994" lon="8.468578950074937"><ele>32.0</ele><time>2026-04-27T13:26:31.142Z</time></trkpt><trkpt lat="39.4501379105609" lon="8.468836501341857"><ele>34.33333333333333</ele><time>2026-04-27T13:26:32.142Z</time></trkpt><trkpt lat="39.45012039326361" lon="8.469077267904122"><ele>36.666666666666664</ele><time>2026-04-27T13:26:33.142Z</time></trkpt><trkpt lat="39.4501717682233" lon="8.469293402035012"><ele>39.0</ele><time>2026-04-27T13:26:34.142Z</time></trkpt><trkpt lat="39.45024026116962" lon="8.469517552923309"><ele>42.0</ele><time>2026-04-27T13:26:35.142Z</time></trkpt><trkpt lat="39.4502776576831" lon="8.46977974190909"><ele>45.0</ele><time>2026-04-27T13:26:36.142Z</time></trkpt><trkpt lat="39.450319467238955" lon="8.470036727054742"><ele>48.0</ele><time>2026-04-27T13:26:37.142Z</time></trkpt><trkpt lat="39.45034854920349" lon="8.470308689700689"><ele>48.33333333333333</ele><time>2026-04-27T13:26:38.142Z</time></trkpt><trkpt lat="39.45037131906631" lon="8.470585966737644"><ele>48.666666666666664</ele><time>2026-04-27T13:26:39.142Z</time></trkpt><trkpt lat="39.45039235463318" lon="8.470870848184576"><ele>49.0</ele><time>2026-04-27T13:26:40.142Z</time></trkpt><trkpt lat="39.450410063600394" lon="8.471160814384358"><ele>48.0</ele><time>2026-04-27T13:26:41.142Z</time></trkpt><trkpt lat="39.45042311443807" lon="8.471454553819829"><ele>47.0</ele><time>2026-04-27T13:26:42.142Z</time></trkpt><trkpt lat="39.4504494978848" lon="8.471748184467698"><ele>41.0</ele><time>2026-04-27T13:26:43.142Z</time></trkpt><trkpt lat="39.450472729424625" lon="8.472034366902292"><ele>35.0</ele><time>2026-04-27T13:26:44.142Z</time></trkpt><trkpt lat="39.45048885209207" lon="8.47231039662621"><ele>29.0</ele><time>2026-04-27T13:26:45.142Z</time></trkpt><trkpt lat="39.4504842592107" lon="8.47258385254139"><ele>35.0</ele><time>2026-04-27T13:26:46.142Z</time></trkpt><trkpt lat="39.45044587952283" lon="8.472859821153781"><ele>41.0</ele><time>2026-04-27T13:26:47.142Z</time></trkpt><trkpt lat="39.45039412295616" lon="8.47313777746251"><ele>47.0</ele><time>2026-04-27T13:26:48.142Z</time></trkpt><trkpt lat="39.450360298886444" lon="8.473421648973124"><ele>47.0</ele><time>2026-04-27T13:26:49.142Z</time></trkpt><trkpt lat="39.45035344628301" lon="8.473709686120623"><ele>47.0</ele><time>2026-04-27T13:26:50.142Z</time></trkpt><trkpt lat="39.45035584177855" lon="8.474006149033087"><ele>45.5</ele><time>2026-04-27T13:26:51.142Z</time></trkpt><trkpt lat="39.45034679237496" lon="8.47430135284289"><ele>44.0</ele><time>2026-04-27T13:26:52.142Z</time></trkpt><trkpt lat="39.45031392303397" lon="8.474594983183064"><ele>44.0</ele><time>2026-04-27T13:26:53.142Z</time></trkpt><trkpt lat="39.45026312766162" lon="8.474882499760517"><ele>44.0</ele><time>2026-04-27T13:26:54.142Z</time></trkpt><trkpt lat="39.450213534097806" lon="8.475171752236875"><ele>42.0</ele><time>2026-04-27T13:26:55.142Z</time></trkpt><trkpt lat="39.45016229087742" lon="8.475453762929174"><ele>40.0</ele><time>2026-04-27T13:26:56.142Z</time></trkpt><trkpt lat="39.45012509963023" lon="8.475717080314473"><ele>38.0</ele><time>2026-04-27T13:26:57.142Z</time></trkpt><trkpt lat="39.4501269747802" lon="8.475982004218634"><ele>38.0</ele><time>2026-04-27T13:26:58.142Z</time></trkpt><trkpt lat="39.450173663265446" lon="8.476264375827604"><ele>38.0</ele><time>2026-04-27T13:26:59.142Z</time></trkpt><trkpt lat="39.45021869967567" lon="8.476528534505498"><ele>38.0</ele><time>2026-04-27T13:27:00.142Z</time></trkpt><trkpt lat="39.45028091830611" lon="8.47680639229398"><ele>38.0</ele><time>2026-04-27T13:27:01.142Z</time></trkpt><trkpt lat="39.45034506154287" lon="8.477087726678153"><ele>38.0</ele><time>2026-04-27T13:27:02.142Z</time></trkpt><trkpt lat="39.45036070914264" lon="8.477382896698913"><ele>38.0</ele><time>2026-04-27T13:27:03.142Z</time></trkpt><trkpt lat="39.45041599190534" lon="8.477655441109981"><ele>38.0</ele><time>2026-04-27T13:27:04.142Z</time></trkpt><trkpt lat="39.45046655128022" lon="8.477904699194704"><ele>38.0</ele><time>2026-04-27T13:27:05.142Z</time></trkpt><trkpt lat="39.450517024473456" lon="8.478124891557584"><ele>38.0</ele><time>2026-04-27T13:27:06.142Z</time></trkpt><trkpt lat="39.45059963461824" lon="8.478303557959732"><ele>38.0</ele><time>2026-04-27T13:27:07.142Z</time></trkpt><trkpt lat="39.45072560745293" lon="8.478409864222472"><ele>38.0</ele><time>2026-04-27T13:27:08.142Z</time></trkpt><trkpt lat="39.450906852137024" lon="8.478445353899076"><ele>38.0</ele><time>2026-04-27T13:27:09.142Z</time></trkpt><trkpt lat="39.45106999816773" lon="8.478433246610672"><ele>38.0</ele><time>2026-04-27T13:27:10.142Z</time></trkpt><trkpt lat="39.45122608704802" lon="8.47842454518094"><ele>38.0</ele><time>2026-04-27T13:27:11.142Z</time></trkpt><trkpt lat="39.45139074237297" lon="8.478536765380051"><ele>37.0</ele><time>2026-04-27T13:27:12.142Z</time></trkpt><trkpt lat="39.451566600315196" lon="8.478630486809962"><ele>36.0</ele><time>2026-04-27T13:27:13.142Z</time></trkpt><trkpt lat="39.45174802876244" lon="8.478721831697142"><ele>35.0</ele><time>2026-04-27T13:27:14.143Z</time></trkpt><trkpt lat="39.45192874892908" lon="8.478781494529295"><ele>35.0</ele><time>2026-04-27T13:27:15.143Z</time></trkpt><trkpt lat="39.45209929581709" lon="8.478843786844307"><ele>35.0</ele><time>2026-04-27T13:27:16.143Z</time></trkpt><trkpt lat="39.45225679371674" lon="8.478885364925612"><ele>35.0</ele><time>2026-04-27T13:27:17.143Z</time></trkpt><trkpt lat="39.45240789242679" lon="8.478920936805915"><ele>35.0</ele><time>2026-04-27T13:27:18.143Z</time></trkpt><trkpt lat="39.45254518930449" lon="8.478958373064515"><ele>35.0</ele><time>2026-04-27T13:27:19.143Z</time></trkpt><trkpt lat="39.4526740047761" lon="8.478984561223982"><ele>35.0</ele><time>2026-04-27T13:27:20.143Z</time></trkpt><trkpt lat="39.45279540830996" lon="8.479022263801346"><ele>35.0</ele><time>2026-04-27T13:27:21.143Z</time></trkpt><trkpt lat="39.45289420969573" lon="8.4790708546374"><ele>35.8</ele><time>2026-04-27T13:27:22.143Z</time></trkpt><trkpt lat="39.45297470769558" lon="8.479152241590658"><ele>36.6</ele><time>2026-04-27T13:27:23.143Z</time></trkpt><trkpt lat="39.45302752894984" lon="8.4792389834548"><ele>37.4</ele><time>2026-04-27T13:27:24.144Z</time></trkpt><trkpt lat="39.45307424035523" lon="8.479295093150673"><ele>38.2</ele><time>2026-04-27T13:27:25.143Z</time></trkpt><trkpt lat="39.453157189113085" lon="8.479285232249117"><ele>39.0</ele><time>2026-04-27T13:27:27.144Z</time></trkpt><trkpt lat="39.453295359577545" lon="8.479234091903068"><ele>39.0</ele><time>2026-04-27T13:28:45.145Z</time></trkpt><trkpt lat="39.45334509218613" lon="8.479165792127008"><ele>39.0</ele><time>2026-04-27T13:28:46.145Z</time></trkpt><trkpt lat="39.453387498257" lon="8.479091040771833"><ele>39.0</ele><time>2026-04-27T13:28:47.145Z</time></trkpt><trkpt lat="39.45342831099837" lon="8.479020316307826"><ele>39.0</ele><time>2026-04-27T13:28:48.145Z</time></trkpt><trkpt lat="39.453499500433345" lon="8.478913377876392"><ele>39.0</ele><time>2026-04-27T13:28:50.145Z</time></trkpt><trkpt lat="39.45356376188846" lon="8.478816381245421"><ele>39.0</ele><time>2026-04-27T13:28:52.145Z</time></trkpt><trkpt lat="39.45361022861537" lon="8.478742559500082"><ele>39.0</ele><time>2026-04-27T13:28:53.145Z</time></trkpt><trkpt lat="39.45367111398994" lon="8.478652283059617"><ele>39.0</ele><time>2026-04-27T13:28:54.145Z</time></trkpt><trkpt lat="39.45375021318224" lon="8.478573790884505"><ele>39.0</ele><time>2026-04-27T13:28:55.145Z</time></trkpt><trkpt lat="39.45384970561693" lon="8.478509844679557"><ele>39.0</ele><time>2026-04-27T13:28:56.145Z</time></trkpt><trkpt lat="39.45396613213401" lon="8.47847749845187"><ele>39.0</ele><time>2026-04-27T13:28:57.145Z</time></trkpt><trkpt lat="39.45411118678313" lon="8.47848039562387"><ele>39.0</ele><time>2026-04-27T13:28:58.145Z</time></trkpt><trkpt lat="39.454261720074484" lon="8.478477342435498"><ele>39.0</ele><time>2026-04-27T13:28:59.145Z</time></trkpt><trkpt lat="39.45442510040687" lon="8.478478976017735"><ele>39.0</ele><time>2026-04-27T13:29:00.145Z</time></trkpt><trkpt lat="39.45460047733663" lon="8.478474403336064"><ele>39.0</ele><time>2026-04-27T13:29:01.145Z</time></trkpt><trkpt lat="39.45478507119664" lon="8.478470057076027"><ele>39.0</ele><time>2026-04-27T13:29:02.145Z</time></trkpt><trkpt lat="39.45496332995182" lon="8.47846544838454"><ele>39.0</ele><time>2026-04-27T13:29:03.145Z</time></trkpt><trkpt lat="39.45514072061145" lon="8.478462804224536"><ele>39.0</ele><time>2026-04-27T13:29:04.145Z</time></trkpt><trkpt lat="39.45531814772599" lon="8.478462633774216"><ele>39.0</ele><time>2026-04-27T13:29:05.145Z</time></trkpt><trkpt lat="39.45549693683063" lon="8.478459855970408"><ele>39.0</ele><time>2026-04-27T13:29:06.145Z</time></trkpt><trkpt lat="39.45567722161221" lon="8.478461665731714"><ele>40.0</ele><time>2026-04-27T13:29:07.145Z</time></trkpt><trkpt lat="39.45585456698557" lon="8.47846857852942"><ele>41.0</ele><time>2026-04-27T13:29:08.145Z</time></trkpt><trkpt lat="39.45603773466323" lon="8.478484766499163"><ele>42.0</ele><time>2026-04-27T13:29:09.145Z</time></trkpt><trkpt lat="39.456226513692506" lon="8.47851801730918"><ele>43.333333333333336</ele><time>2026-04-27T13:29:10.145Z</time></trkpt><trkpt lat="39.4564210316237" lon="8.478547401350808"><ele>44.66666666666667</ele><time>2026-04-27T13:29:11.145Z</time></trkpt><trkpt lat="39.456617477509624" lon="8.478554709838034"><ele>46.0</ele><time>2026-04-27T13:29:12.145Z</time></trkpt><trkpt lat="39.45681978876858" lon="8.478509333865901"><ele>46.0</ele><time>2026-04-27T13:29:13.145Z</time></trkpt><trkpt lat="39.45701984974247" lon="8.478427183778912"><ele>46.0</ele><time>2026-04-27T13:29:14.145Z</time></trkpt><trkpt lat="39.45720749913354" lon="8.478346184576798"><ele>46.0</ele><time>2026-04-27T13:29:15.145Z</time></trkpt><trkpt lat="39.457395970762406" lon="8.47831543350964"><ele>47.0</ele><time>2026-04-27T13:29:16.145Z</time></trkpt><trkpt lat="39.457587707132674" lon="8.47834064371909"><ele>48.0</ele><time>2026-04-27T13:29:17.145Z</time></trkpt><trkpt lat="39.45779353137491" lon="8.478409758470212"><ele>49.0</ele><time>2026-04-27T13:29:18.145Z</time></trkpt><trkpt lat="39.458018195362484" lon="8.478493488843059"><ele>53.0</ele><time>2026-04-27T13:29:19.145Z</time></trkpt><trkpt lat="39.458260804189" lon="8.478572431205844"><ele>57.0</ele><time>2026-04-27T13:29:20.145Z</time></trkpt><trkpt lat="39.45850606126673" lon="8.478649180361291"><ele>57.0</ele><time>2026-04-27T13:29:21.145Z</time></trkpt><trkpt lat="39.45876734571362" lon="8.47870402053516"><ele>57.0</ele><time>2026-04-27T13:29:22.145Z</time></trkpt><trkpt lat="39.459048223221025" lon="8.478766707886756"><ele>55.0</ele><time>2026-04-27T13:29:23.145Z</time></trkpt><trkpt lat="39.45930421676981" lon="8.478783137333416"><ele>53.0</ele><time>2026-04-27T13:29:24.145Z</time></trkpt><trkpt lat="39.459529319688805" lon="8.478783029563434"><ele>56.0</ele><time>2026-04-27T13:29:25.145Z</time></trkpt><trkpt lat="39.45971380457567" lon="8.478780918688978"><ele>59.0</ele><time>2026-04-27T13:29:26.145Z</time></trkpt><trkpt lat="39.45984966838911" lon="8.478785423843014"><ele>62.0</ele><time>2026-04-27T13:29:27.145Z</time></trkpt><trkpt lat="39.45994604821027" lon="8.478911150906448"><ele>62.0</ele><time>2026-04-27T13:29:28.145Z</time></trkpt><trkpt lat="39.46004557673604" lon="8.479106919466778"><ele>62.0</ele><time>2026-04-27T13:29:29.145Z</time></trkpt><trkpt lat="39.4602252389127" lon="8.479262852890376"><ele>62.0</ele><time>2026-04-27T13:29:30.147Z</time></trkpt><trkpt lat="39.460422339690574" lon="8.479440985299405"><ele>61.66666666666667</ele><time>2026-04-27T13:29:31.147Z</time></trkpt><trkpt lat="39.46061492558766" lon="8.479605503395739"><ele>61.33333333333333</ele><time>2026-04-27T13:29:32.147Z</time></trkpt><trkpt lat="39.46078159504077" lon="8.47973838699134"><ele>61.0</ele><time>2026-04-27T13:29:33.146Z</time></trkpt><trkpt lat="39.460923869755085" lon="8.47981108444108"><ele>61.0</ele><time>2026-04-27T13:29:34.147Z</time></trkpt><trkpt lat="39.46106629386018" lon="8.47979319110816"><ele>61.0</ele><time>2026-04-27T13:29:35.147Z</time></trkpt><trkpt lat="39.46122168107281" lon="8.479694079419046"><ele>61.0</ele><time>2026-04-27T13:29:36.147Z</time></trkpt><trkpt lat="39.46135245952984" lon="8.479473643319167"><ele>67.0</ele><time>2026-04-27T13:29:37.147Z</time></trkpt><trkpt lat="39.46153743492032" lon="8.47920736577865"><ele>73.0</ele><time>2026-04-27T13:29:38.147Z</time></trkpt><trkpt lat="39.46169499637295" lon="8.478884532438379"><ele>80.0</ele><time>2026-04-27T13:29:39.147Z</time></trkpt><trkpt lat="39.461842256387946" lon="8.478561183785558"><ele>87.0</ele><time>2026-04-27T13:29:40.146Z</time></trkpt><trkpt lat="39.461971583643454" lon="8.47829847457853"><ele>87.0</ele><time>2026-04-27T13:29:41.146Z</time></trkpt><trkpt lat="39.46209287959059" lon="8.478119940715123"><ele>87.0</ele><time>2026-04-27T13:29:42.147Z</time></trkpt><trkpt lat="39.46223384686646" lon="8.478045246909835"><ele>87.0</ele><time>2026-04-27T13:29:43.147Z</time></trkpt><trkpt lat="39.4623975914466" lon="8.47804155378715"><ele>85.5</ele><time>2026-04-27T13:29:44.147Z</time></trkpt><trkpt lat="39.462602511019774" lon="8.477963597581418"><ele>84.0</ele><time>2026-04-27T13:29:45.147Z</time></trkpt><trkpt lat="39.46285048991539" lon="8.477804396622174"><ele>92.0</ele><time>2026-04-27T13:29:46.147Z</time></trkpt><trkpt lat="39.46308259721649" lon="8.477607819395946"><ele>100.0</ele><time>2026-04-27T13:29:47.147Z</time></trkpt><trkpt lat="39.46323055474094" lon="8.477458900537686"><ele>100.0</ele><time>2026-04-27T13:29:48.147Z</time></trkpt><trkpt lat="39.463333571914305" lon="8.477379594469983"><ele>100.0</ele><time>2026-04-27T13:29:49.147Z</time></trkpt><trkpt lat="39.463402094777244" lon="8.477360150639177"><ele>100.0</ele><time>2026-04-27T13:29:50.147Z</time></trkpt><trkpt lat="39.46345595568679" lon="8.477448044467607"><ele>100.0</ele><time>2026-04-27T13:29:51.147Z</time></trkpt><trkpt lat="39.46347858516839" lon="8.477592131664826"><ele>100.0</ele><time>2026-04-27T13:29:52.147Z</time></trkpt><trkpt lat="39.46337656162829" lon="8.477757286105662"><ele>101.66666666666667</ele><time>2026-04-27T13:29:53.147Z</time></trkpt><trkpt lat="39.463253000263656" lon="8.47793738343359"><ele>103.33333333333334</ele><time>2026-04-27T13:29:54.147Z</time></trkpt><trkpt lat="39.46308862554627" lon="8.478178081091214"><ele>105.0</ele><time>2026-04-27T13:29:55.147Z</time></trkpt><trkpt lat="39.4629071976409" lon="8.478468910980563"><ele>99.66666666666667</ele><time>2026-04-27T13:29:56.147Z</time></trkpt><trkpt lat="39.462741742211456" lon="8.478708656171634"><ele>94.33333333333334</ele><time>2026-04-27T13:29:57.147Z</time></trkpt><trkpt lat="39.4626414063068" lon="8.478857580167473"><ele>89.0</ele><time>2026-04-27T13:29:58.147Z</time></trkpt><trkpt lat="39.46260851494366" lon="8.478971100294777"><ele>89.0</ele><time>2026-04-27T13:29:59.147Z</time></trkpt><trkpt lat="39.46264993891502" lon="8.479127390749403"><ele>89.0</ele><time>2026-04-27T13:30:00.147Z</time></trkpt><trkpt lat="39.462764604017806" lon="8.47932760674593"><ele>89.0</ele><time>2026-04-27T13:30:01.147Z</time></trkpt><trkpt lat="39.46292141779613" lon="8.479595824826701"><ele>99.0</ele><time>2026-04-27T13:30:02.147Z</time></trkpt><trkpt lat="39.46307437962811" lon="8.479942484752941"><ele>109.0</ele><time>2026-04-27T13:30:03.147Z</time></trkpt><trkpt lat="39.46322578078223" lon="8.480254240258875"><ele>103.33333333333334</ele><time>2026-04-27T13:30:04.147Z</time></trkpt><trkpt lat="39.46333103210021" lon="8.480466205776242"><ele>97.66666666666667</ele><time>2026-04-27T13:30:05.147Z</time></trkpt><trkpt lat="39.46342778008903" lon="8.480592355356425"><ele>92.0</ele><time>2026-04-27T13:30:06.147Z</time></trkpt><trkpt lat="39.46354530604291" lon="8.480672709897227"><ele>92.0</ele><time>2026-04-27T13:30:07.147Z</time></trkpt><trkpt lat="39.46371573693577" lon="8.48069219033169"><ele>92.0</ele><time>2026-04-27T13:30:08.147Z</time></trkpt><trkpt lat="39.46397881720953" lon="8.48065053827442"><ele>92.0</ele><time>2026-04-27T13:30:09.147Z</time></trkpt><trkpt lat="39.464225807191724" lon="8.480629786324275"><ele>96.5</ele><time>2026-04-27T13:30:10.147Z</time></trkpt><trkpt lat="39.464377849046755" lon="8.480668306148567"><ele>101.0</ele><time>2026-04-27T13:30:11.147Z</time></trkpt><trkpt lat="39.46443778952211" lon="8.480779541454956"><ele>105.5</ele><time>2026-04-27T13:30:12.148Z</time></trkpt><trkpt lat="39.46444174522958" lon="8.48088739565278"><ele>110.0</ele><time>2026-04-27T13:30:13.148Z</time></trkpt><trkpt lat="39.46436408652781" lon="8.481026205148037"><ele>107.33333333333333</ele><time>2026-04-27T13:30:14.148Z</time></trkpt><trkpt lat="39.46432998933635" lon="8.481274199004217"><ele>104.66666666666666</ele><time>2026-04-27T13:30:15.148Z</time></trkpt><trkpt lat="39.464376109145995" lon="8.481484404515951"><ele>102.0</ele><time>2026-04-27T13:30:16.148Z</time></trkpt><trkpt lat="39.46447139382195" lon="8.481596695119064"><ele>108.66666666666666</ele><time>2026-04-27T13:30:17.148Z</time></trkpt><trkpt lat="39.464621985358384" lon="8.481615989358344"><ele>115.33333333333333</ele><time>2026-04-27T13:30:18.148Z</time></trkpt><trkpt lat="39.464820200030026" lon="8.4815479351913"><ele>122.0</ele><time>2026-04-27T13:30:19.148Z</time></trkpt><trkpt lat="39.46504029426759" lon="8.481441560066624"><ele>122.0</ele><time>2026-04-27T13:30:20.148Z</time></trkpt><trkpt lat="39.465272380684254" lon="8.481384625882598"><ele>122.0</ele><time>2026-04-27T13:30:21.148Z</time></trkpt><trkpt lat="39.46546818626741" lon="8.481448168389257"><ele>122.0</ele><time>2026-04-27T13:30:22.148Z</time></trkpt><trkpt lat="39.46563925277982" lon="8.481515316857292"><ele>126.39999999999999</ele><time>2026-04-27T13:30:23.148Z</time></trkpt><trkpt lat="39.46575052215715" lon="8.481596487944707"><ele>130.79999999999998</ele><time>2026-04-27T13:30:24.148Z</time></trkpt><trkpt lat="39.46578595089708" lon="8.481689019264735"><ele>135.2</ele><time>2026-04-27T13:30:25.148Z</time></trkpt><trkpt lat="39.46577649558215" lon="8.481797800702905"><ele>139.6</ele><time>2026-04-27T13:30:26.148Z</time></trkpt><trkpt lat="39.46568128522953" lon="8.481889399933648"><ele>144.0</ele><time>2026-04-27T13:30:27.148Z</time></trkpt><trkpt lat="39.46553919681675" lon="8.482005572148815"><ele>137.33333333333334</ele><time>2026-04-27T13:30:28.148Z</time></trkpt><trkpt lat="39.46535763381532" lon="8.482141367048825"><ele>130.66666666666669</ele><time>2026-04-27T13:30:29.148Z</time></trkpt><trkpt lat="39.46522620193435" lon="8.48228957610003"><ele>124.0</ele><time>2026-04-27T13:30:30.148Z</time></trkpt><trkpt lat="39.46515158826443" lon="8.482456702155059"><ele>124.0</ele><time>2026-04-27T13:30:31.148Z</time></trkpt><trkpt lat="39.46516094101746" lon="8.482668295517009"><ele>124.0</ele><time>2026-04-27T13:30:32.148Z</time></trkpt><trkpt lat="39.46524466056874" lon="8.482869973277472"><ele>124.0</ele><time>2026-04-27T13:30:33.148Z</time></trkpt><trkpt lat="39.46531932649794" lon="8.483034453542281"><ele>127.5</ele><time>2026-04-27T13:30:34.148Z</time></trkpt><trkpt lat="39.46528665244122" lon="8.483134609908365"><ele>131.0</ele><time>2026-04-27T13:30:35.148Z</time></trkpt><trkpt lat="39.465243732764876" lon="8.483252327110536"><ele>134.5</ele><time>2026-04-27T13:30:36.148Z</time></trkpt><trkpt lat="39.4650822700231" lon="8.483324559672782"><ele>138.0</ele><time>2026-04-27T13:30:37.148Z</time></trkpt><trkpt lat="39.464956332530335" lon="8.48349447042146"><ele>138.0</ele><time>2026-04-27T13:30:38.148Z</time></trkpt><trkpt lat="39.464850157494126" lon="8.483755996333878"><ele>138.0</ele><time>2026-04-27T13:30:39.148Z</time></trkpt><trkpt lat="39.46480726776113" lon="8.483930979812866"><ele>138.0</ele><time>2026-04-27T13:30:40.148Z</time></trkpt><trkpt lat="39.46483510172334" lon="8.484124865203105"><ele>140.33333333333334</ele><time>2026-04-27T13:30:41.148Z</time></trkpt><trkpt lat="39.46497744064419" lon="8.484240158031833"><ele>142.66666666666669</ele><time>2026-04-27T13:30:42.148Z</time></trkpt><trkpt lat="39.46513832966329" lon="8.484334419386661"><ele>145.0</ele><time>2026-04-27T13:30:43.148Z</time></trkpt><trkpt lat="39.4654341345501" lon="8.484447851671689"><ele>149.5</ele><time>2026-04-27T13:30:44.148Z</time></trkpt><trkpt lat="39.46566894973595" lon="8.484598070715506"><ele>154.0</ele><time>2026-04-27T13:30:45.148Z</time></trkpt><trkpt lat="39.46582374411338" lon="8.484759071670798"><ele>154.0</ele><time>2026-04-27T13:30:46.148Z</time></trkpt><trkpt lat="39.46588702699864" lon="8.484950013476224"><ele>154.0</ele><time>2026-04-27T13:30:47.148Z</time></trkpt><trkpt lat="39.465954243384154" lon="8.485138603249714"><ele>154.0</ele><time>2026-04-27T13:30:48.148Z</time></trkpt><trkpt lat="39.46604764865001" lon="8.485323947524668"><ele>152.0</ele><time>2026-04-27T13:30:49.148Z</time></trkpt><trkpt lat="39.466142332192" lon="8.48544994426132"><ele>150.0</ele><time>2026-04-27T13:30:50.148Z</time></trkpt><trkpt lat="39.466214669974455" lon="8.485545014810928"><ele>148.0</ele><time>2026-04-27T13:30:51.148Z</time></trkpt><trkpt lat="39.466323280439475" lon="8.485650061356045"><ele>146.0</ele><time>2026-04-27T13:30:53.148Z</time></trkpt><trkpt lat="39.46635236398956" lon="8.48573601759449"><ele>144.0</ele><time>2026-04-27T13:30:54.148Z</time></trkpt><trkpt lat="39.46630524005298" lon="8.485829126856379"><ele>149.4</ele><time>2026-04-27T13:30:55.148Z</time></trkpt><trkpt lat="39.4663168497199" lon="8.485949341934376"><ele>154.8</ele><time>2026-04-27T13:30:56.148Z</time></trkpt><trkpt lat="39.466343500756736" lon="8.486071598067317"><ele>160.20000000000002</ele><time>2026-04-27T13:30:57.148Z</time></trkpt><trkpt lat="39.46638439377916" lon="8.486169819051426"><ele>165.60000000000002</ele><time>2026-04-27T13:30:58.148Z</time></trkpt><trkpt lat="39.46647882007794" lon="8.486195682125155"><ele>171.0</ele><time>2026-04-27T13:30:59.148Z</time></trkpt><trkpt lat="39.466556542814665" lon="8.486196080597285"><ele>171.0</ele><time>2026-04-27T13:31:00.148Z</time></trkpt><trkpt lat="39.466643951618124" lon="8.486204036369092"><ele>171.0</ele><time>2026-04-27T13:31:01.148Z</time></trkpt><trkpt lat="39.46672778049716" lon="8.486212979028569"><ele>171.0</ele><time>2026-04-27T13:31:02.148Z</time></trkpt><trkpt lat="39.46676974884421" lon="8.486316642570223"><ele>171.0</ele><time>2026-04-27T13:31:03.148Z</time></trkpt><trkpt lat="39.466797436760785" lon="8.486407380346266"><ele>171.0</ele><time>2026-04-27T13:31:04.148Z</time></trkpt><trkpt lat="39.46678683319648" lon="8.486507030527806"><ele>171.0</ele><time>2026-04-27T13:31:05.148Z</time></trkpt><trkpt lat="39.46675285906911" lon="8.486593500838715"><ele>170.0</ele><time>2026-04-27T13:31:06.148Z</time></trkpt><trkpt lat="39.46670121863594" lon="8.486730200370816"><ele>169.0</ele><time>2026-04-27T13:31:07.148Z</time></trkpt><trkpt lat="39.46665465201733" lon="8.486864259467916"><ele>168.0</ele><time>2026-04-27T13:31:08.148Z</time></trkpt><trkpt lat="39.46663371260927" lon="8.48701810134542"><ele>167.0</ele><time>2026-04-27T13:31:09.148Z</time></trkpt><trkpt lat="39.466657809879905" lon="8.487170782870898"><ele>167.0</ele><time>2026-04-27T13:31:10.148Z</time></trkpt><trkpt lat="39.46675628761201" lon="8.487349906612913"><ele>167.0</ele><time>2026-04-27T13:31:11.148Z</time></trkpt><trkpt lat="39.46680247935531" lon="8.487555009981524"><ele>167.0</ele><time>2026-04-27T13:31:12.148Z</time></trkpt><trkpt lat="39.4667612849029" lon="8.487711303657708"><ele>167.0</ele><time>2026-04-27T13:31:13.148Z</time></trkpt><trkpt lat="39.46667421657532" lon="8.487872373890157"><ele>167.0</ele><time>2026-04-27T13:31:14.148Z</time></trkpt><trkpt lat="39.46669319191636" lon="8.488048405904747"><ele>167.0</ele><time>2026-04-27T13:31:15.148Z</time></trkpt><trkpt lat="39.46677241509009" lon="8.488190801317442"><ele>167.0</ele><time>2026-04-27T13:31:16.148Z</time></trkpt><trkpt lat="39.46694523331334" lon="8.488308321620298"><ele>170.0</ele><time>2026-04-27T13:31:17.148Z</time></trkpt><trkpt lat="39.467137633420776" lon="8.48837564714062"><ele>173.0</ele><time>2026-04-27T13:31:18.148Z</time></trkpt><trkpt lat="39.46730181614547" lon="8.488344895101294"><ele>176.0</ele><time>2026-04-27T13:31:19.148Z</time></trkpt><trkpt lat="39.467474990581685" lon="8.488220517759816"><ele>176.0</ele><time>2026-04-27T13:31:20.148Z</time></trkpt><trkpt lat="39.46767396115017" lon="8.488067084695455"><ele>176.0</ele><time>2026-04-27T13:31:21.148Z</time></trkpt><trkpt lat="39.46790665394926" lon="8.48800534035105"><ele>180.66666666666666</ele><time>2026-04-27T13:31:22.148Z</time></trkpt><trkpt lat="39.468148464143695" lon="8.487941515007615"><ele>185.33333333333334</ele><time>2026-04-27T13:31:23.148Z</time></trkpt><trkpt lat="39.46833237095361" lon="8.487915596761423"><ele>190.0</ele><time>2026-04-27T13:31:24.148Z</time></trkpt><trkpt lat="39.468450967438464" lon="8.487948601106597"><ele>190.0</ele><time>2026-04-27T13:31:25.149Z</time></trkpt><trkpt lat="39.468525853784044" lon="8.488033744794649"><ele>190.0</ele><time>2026-04-27T13:31:26.149Z</time></trkpt><trkpt lat="39.468557531107336" lon="8.488175459931595"><ele>190.0</ele><time>2026-04-27T13:31:27.149Z</time></trkpt><trkpt lat="39.46852844854632" lon="8.488342717497904"><ele>190.0</ele><time>2026-04-27T13:31:28.149Z</time></trkpt><trkpt lat="39.468478426958654" lon="8.488569625174998"><ele>189.33333333333334</ele><time>2026-04-27T13:31:29.149Z</time></trkpt><trkpt lat="39.46843884274583" lon="8.488855817012084"><ele>188.66666666666666</ele><time>2026-04-27T13:31:30.149Z</time></trkpt><trkpt lat="39.4684415064824" lon="8.489114152666263"><ele>188.0</ele><time>2026-04-27T13:31:31.149Z</time></trkpt><trkpt lat="39.46852166459206" lon="8.489300954518042"><ele>188.0</ele><time>2026-04-27T13:31:32.149Z</time></trkpt><trkpt lat="39.46866757667178" lon="8.489447598283139"><ele>188.0</ele><time>2026-04-27T13:31:33.149Z</time></trkpt><trkpt lat="39.468896353417456" lon="8.489574320124445"><ele>188.0</ele><time>2026-04-27T13:31:34.149Z</time></trkpt><trkpt lat="39.46919226262587" lon="8.489723734563846"><ele>189.5</ele><time>2026-04-27T13:31:35.149Z</time></trkpt><trkpt lat="39.46946698201388" lon="8.48995071472656"><ele>191.0</ele><time>2026-04-27T13:31:36.149Z</time></trkpt><trkpt lat="39.46969198925251" lon="8.490138870459118"><ele>196.0</ele><time>2026-04-27T13:31:37.149Z</time></trkpt><trkpt lat="39.46983588984838" lon="8.490342630209007"><ele>201.0</ele><time>2026-04-27T13:31:38.149Z</time></trkpt><trkpt lat="39.469934246454926" lon="8.490571768761075"><ele>206.0</ele><time>2026-04-27T13:31:39.149Z</time></trkpt><trkpt lat="39.47007298025367" lon="8.490795073409677"><ele>206.0</ele><time>2026-04-27T13:31:40.149Z</time></trkpt><trkpt lat="39.470224523469426" lon="8.490964460009208"><ele>206.0</ele><time>2026-04-27T13:31:41.149Z</time></trkpt><trkpt lat="39.47043776087397" lon="8.491068500962298"><ele>206.0</ele><time>2026-04-27T13:31:42.15Z</time></trkpt><trkpt lat="39.470709392189164" lon="8.491134255843924"><ele>214.5</ele><time>2026-04-27T13:31:43.149Z</time></trkpt><trkpt lat="39.47096564395078" lon="8.491160396406164"><ele>223.0</ele><time>2026-04-27T13:31:44.15Z</time></trkpt><trkpt lat="39.47123005577523" lon="8.491099735045186"><ele>224.0</ele><time>2026-04-27T13:31:45.15Z</time></trkpt><trkpt lat="39.4715211456805" lon="8.491039398167588"><ele>225.0</ele><time>2026-04-27T13:31:46.149Z</time></trkpt><trkpt lat="39.47182142850833" lon="8.491085891478432"><ele>229.5</ele><time>2026-04-27T13:31:47.149Z</time></trkpt><trkpt lat="39.47213205214552" lon="8.491137307993595"><ele>234.0</ele><time>2026-04-27T13:31:48.15Z</time></trkpt><trkpt lat="39.47239975012742" lon="8.491181228078899"><ele>234.0</ele><time>2026-04-27T13:31:49.15Z</time></trkpt><trkpt lat="39.472604259737686" lon="8.491214781074632"><ele>234.0</ele><time>2026-04-27T13:31:50.15Z</time></trkpt><trkpt lat="39.47273748534117" lon="8.491260944035899"><ele>234.0</ele><time>2026-04-27T13:31:51.15Z</time></trkpt><trkpt lat="39.47279896786729" lon="8.491346322067821"><ele>234.0</ele><time>2026-04-27T13:31:52.15Z</time></trkpt><trkpt lat="39.47280671254759" lon="8.491466990133032"><ele>227.66666666666669</ele><time>2026-04-27T13:31:53.15Z</time></trkpt><trkpt lat="39.47276357931281" lon="8.49166029164567"><ele>221.33333333333334</ele><time>2026-04-27T13:31:54.15Z</time></trkpt><trkpt lat="39.47277340977679" lon="8.49193912174195"><ele>215.0</ele><time>2026-04-27T13:31:55.15Z</time></trkpt><trkpt lat="39.47284710043352" lon="8.49221292271097"><ele>223.33333333333334</ele><time>2026-04-27T13:31:56.15Z</time></trkpt><trkpt lat="39.47295876728599" lon="8.492436367179716"><ele>231.66666666666669</ele><time>2026-04-27T13:31:57.15Z</time></trkpt><trkpt lat="39.473114886005085" lon="8.49258991916328"><ele>240.0</ele><time>2026-04-27T13:31:58.15Z</time></trkpt><trkpt lat="39.473225013699484" lon="8.492731741722688"><ele>240.0</ele><time>2026-04-27T13:31:59.15Z</time></trkpt><trkpt lat="39.473230822784714" lon="8.492868500180593"><ele>240.0</ele><time>2026-04-27T13:32:00.15Z</time></trkpt><trkpt lat="39.47321200287911" lon="8.493058786825069"><ele>240.0</ele><time>2026-04-27T13:32:01.15Z</time></trkpt><trkpt lat="39.4732000259939" lon="8.493307403803025"><ele>240.0</ele><time>2026-04-27T13:32:02.15Z</time></trkpt><trkpt lat="39.473257785747165" lon="8.493501294982009"><ele>236.33333333333331</ele><time>2026-04-27T13:32:03.15Z</time></trkpt><trkpt lat="39.473356121971484" lon="8.493647411410704"><ele>232.66666666666666</ele><time>2026-04-27T13:32:04.15Z</time></trkpt><trkpt lat="39.473551903938365" lon="8.49374382622766"><ele>229.0</ele><time>2026-04-27T13:32:05.15Z</time></trkpt><trkpt lat="39.47378314600214" lon="8.49376997814929"><ele>229.0</ele><time>2026-04-27T13:32:06.15Z</time></trkpt><trkpt lat="39.47398033941218" lon="8.493791778034584"><ele>229.0</ele><time>2026-04-27T13:32:07.15Z</time></trkpt><trkpt lat="39.47408109759128" lon="8.493917319447089"><ele>229.0</ele><time>2026-04-27T13:32:08.15Z</time></trkpt><trkpt lat="39.47426845100829" lon="8.494060935529188"><ele>229.0</ele><time>2026-04-27T13:32:09.15Z</time></trkpt><trkpt lat="39.47450803975327" lon="8.494161802051275"><ele>229.0</ele><time>2026-04-27T13:32:10.15Z</time></trkpt><trkpt lat="39.47477795739476" lon="8.494249369816155"><ele>237.5</ele><time>2026-04-27T13:32:11.15Z</time></trkpt><trkpt lat="39.475066276672" lon="8.494320484853287"><ele>246.0</ele><time>2026-04-27T13:32:12.15Z</time></trkpt><trkpt lat="39.47529501603671" lon="8.494393951670935"><ele>245.0</ele><time>2026-04-27T13:32:13.15Z</time></trkpt><trkpt lat="39.47546051930971" lon="8.494440715136374"><ele>244.0</ele><time>2026-04-27T13:32:14.15Z</time></trkpt><trkpt lat="39.47560840204897" lon="8.494414462130248"><ele>243.0</ele><time>2026-04-27T13:32:15.15Z</time></trkpt><trkpt lat="39.47574187483027" lon="8.494277147232774"><ele>243.0</ele><time>2026-04-27T13:32:16.15Z</time></trkpt><trkpt lat="39.475852514201875" lon="8.49405402956447"><ele>243.0</ele><time>2026-04-27T13:32:17.15Z</time></trkpt><trkpt lat="39.47593351768953" lon="8.49377709922129"><ele>243.0</ele><time>2026-04-27T13:32:18.15Z</time></trkpt><trkpt lat="39.4760102794693" lon="8.493591775125871"><ele>244.0</ele><time>2026-04-27T13:32:19.15Z</time></trkpt><trkpt lat="39.47610820178368" lon="8.493515119655372"><ele>245.0</ele><time>2026-04-27T13:32:20.15Z</time></trkpt><trkpt lat="39.476234640013814" lon="8.493624176310947"><ele>246.0</ele><time>2026-04-27T13:32:21.15Z</time></trkpt><trkpt lat="39.47635069788378" lon="8.49374741374837"><ele>247.0</ele><time>2026-04-27T13:32:22.15Z</time></trkpt><trkpt lat="39.476500020553054" lon="8.493796928068427"><ele>247.0</ele><time>2026-04-27T13:32:23.15Z</time></trkpt><trkpt lat="39.47665176351823" lon="8.493792718622752"><ele>247.0</ele><time>2026-04-27T13:32:24.15Z</time></trkpt><trkpt lat="39.47679088054187" lon="8.493687289466733"><ele>247.0</ele><time>2026-04-27T13:32:25.15Z</time></trkpt><trkpt lat="39.476933285797784" lon="8.493556940053274"><ele>247.0</ele><time>2026-04-27T13:32:26.15Z</time></trkpt><trkpt lat="39.47702738599046" lon="8.493561590468456"><ele>247.0</ele><time>2026-04-27T13:32:27.15Z</time></trkpt><trkpt lat="39.47705212906352" lon="8.493738649783351"><ele>247.0</ele><time>2026-04-27T13:32:28.15Z</time></trkpt><trkpt lat="39.477033654399186" lon="8.493902966830998"><ele>247.0</ele><time>2026-04-27T13:32:29.15Z</time></trkpt><trkpt lat="39.47700661989248" lon="8.494140812174154"><ele>247.0</ele><time>2026-04-27T13:32:30.15Z</time></trkpt><trkpt lat="39.47696288208414" lon="8.49442239493522"><ele>247.0</ele><time>2026-04-27T13:32:31.15Z</time></trkpt><trkpt lat="39.47697627832382" lon="8.494673029521767"><ele>247.0</ele><time>2026-04-27T13:32:32.15Z</time></trkpt><trkpt lat="39.47704346433856" lon="8.494857195082314"><ele>256.0</ele><time>2026-04-27T13:32:33.15Z</time></trkpt><trkpt lat="39.47717862720957" lon="8.495002462659787"><ele>265.0</ele><time>2026-04-27T13:32:34.15Z</time></trkpt><trkpt lat="39.477353935412395" lon="8.495089874089297"><ele>274.0</ele><time>2026-04-27T13:32:35.15Z</time></trkpt><trkpt lat="39.47746847671377" lon="8.495164084882946"><ele>274.0</ele><time>2026-04-27T13:32:36.15Z</time></trkpt><trkpt lat="39.47746998328598" lon="8.495300055738198"><ele>274.0</ele><time>2026-04-27T13:32:37.15Z</time></trkpt><trkpt lat="39.47746873771746" lon="8.495478245942014"><ele>274.0</ele><time>2026-04-27T13:32:38.15Z</time></trkpt><trkpt lat="39.477409758828685" lon="8.495606098262199"><ele>274.0</ele><time>2026-04-27T13:32:39.15Z</time></trkpt><trkpt lat="39.477292085013005" lon="8.495608212563265"><ele>274.0</ele><time>2026-04-27T13:32:40.151Z</time></trkpt><trkpt lat="39.477179155475866" lon="8.495707767072972"><ele>274.0</ele><time>2026-04-27T13:32:41.151Z</time></trkpt><trkpt lat="39.47713398990921" lon="8.49588946236217"><ele>274.0</ele><time>2026-04-27T13:32:42.151Z</time></trkpt><trkpt lat="39.47717397857574" lon="8.496082584719215"><ele>274.0</ele><time>2026-04-27T13:32:43.151Z</time></trkpt><trkpt lat="39.47728393193215" lon="8.49626708735531"><ele>275.75</ele><time>2026-04-27T13:32:44.151Z</time></trkpt><trkpt lat="39.47731357645161" lon="8.496430398973484"><ele>277.5</ele><time>2026-04-27T13:32:45.151Z</time></trkpt><trkpt lat="39.47723389298318" lon="8.496529343007769"><ele>279.25</ele><time>2026-04-27T13:32:46.151Z</time></trkpt><trkpt lat="39.477168152959784" lon="8.496769106611884"><ele>281.0</ele><time>2026-04-27T13:32:47.151Z</time></trkpt><trkpt lat="39.47713991731062" lon="8.497036813184405"><ele>277.33333333333337</ele><time>2026-04-27T13:32:48.151Z</time></trkpt><trkpt lat="39.477183774117776" lon="8.497246031023359"><ele>273.6666666666667</ele><time>2026-04-27T13:32:49.151Z</time></trkpt><trkpt lat="39.47728086530826" lon="8.497389192281796"><ele>270.0</ele><time>2026-04-27T13:32:50.151Z</time></trkpt><trkpt lat="39.47745214777454" lon="8.497476135065277"><ele>270.0</ele><time>2026-04-27T13:32:51.151Z</time></trkpt><trkpt lat="39.477664228177304" lon="8.497497136885077"><ele>270.0</ele><time>2026-04-27T13:32:52.151Z</time></trkpt><trkpt lat="39.47786303289012" lon="8.497446654100244"><ele>270.0</ele><time>2026-04-27T13:32:53.151Z</time></trkpt><trkpt lat="39.47805350042096" lon="8.497338324267503"><ele>264.0</ele><time>2026-04-27T13:32:54.151Z</time></trkpt><trkpt lat="39.478268801337826" lon="8.497151336654236"><ele>258.0</ele><time>2026-04-27T13:32:55.151Z</time></trkpt><trkpt lat="39.478496730548834" lon="8.496905505589723"><ele>267.5</ele><time>2026-04-27T13:32:56.151Z</time></trkpt><trkpt lat="39.4787543604184" lon="8.496603807117584"><ele>277.0</ele><time>2026-04-27T13:32:57.151Z</time></trkpt><trkpt lat="39.479001591303096" lon="8.496362620897445"><ele>292.5</ele><time>2026-04-27T13:32:58.151Z</time></trkpt><trkpt lat="39.47920953591905" lon="8.496162242360825"><ele>308.0</ele><time>2026-04-27T13:32:59.151Z</time></trkpt><trkpt lat="39.47937682798885" lon="8.49598315248664"><ele>308.0</ele><time>2026-04-27T13:33:00.151Z</time></trkpt><trkpt lat="39.47954618716206" lon="8.495869766179315"><ele>308.0</ele><time>2026-04-27T13:33:01.151Z</time></trkpt><trkpt lat="39.479686623616296" lon="8.495829273475634"><ele>308.0</ele><time>2026-04-27T13:33:02.151Z</time></trkpt><trkpt lat="39.479786851304844" lon="8.495895381312057"><ele>308.0</ele><time>2026-04-27T13:33:03.151Z</time></trkpt><trkpt lat="39.4798861914269" lon="8.496009878412174"><ele>310.0</ele><time>2026-04-27T13:33:04.151Z</time></trkpt><trkpt lat="39.4799818972064" lon="8.496203320980381"><ele>312.0</ele><time>2026-04-27T13:33:05.151Z</time></trkpt><trkpt lat="39.48000334101513" lon="8.496417380776665"><ele>314.0</ele><time>2026-04-27T13:33:06.151Z</time></trkpt><trkpt lat="39.47992758890261" lon="8.496566059517352"><ele>309.0</ele><time>2026-04-27T13:33:07.151Z</time></trkpt><trkpt lat="39.47984328945432" lon="8.496802070526154"><ele>304.0</ele><time>2026-04-27T13:33:08.151Z</time></trkpt><trkpt lat="39.479786617493886" lon="8.49704030405754"><ele>299.0</ele><time>2026-04-27T13:33:09.151Z</time></trkpt><trkpt lat="39.4797992618277" lon="8.497263740279726"><ele>298.6666666666667</ele><time>2026-04-27T13:33:10.151Z</time></trkpt><trkpt lat="39.47985700330443" lon="8.497459718202931"><ele>298.3333333333333</ele><time>2026-04-27T13:33:11.151Z</time></trkpt><trkpt lat="39.479955421177046" lon="8.497615332322962"><ele>298.0</ele><time>2026-04-27T13:33:12.151Z</time></trkpt><trkpt lat="39.48007416383438" lon="8.497698213800911"><ele>298.0</ele><time>2026-04-27T13:33:13.151Z</time></trkpt><trkpt lat="39.480202845490695" lon="8.4977269872621"><ele>298.0</ele><time>2026-04-27T13:33:14.151Z</time></trkpt><trkpt lat="39.480367982147584" lon="8.497711614861789"><ele>298.0</ele><time>2026-04-27T13:33:15.151Z</time></trkpt><trkpt lat="39.48059825756734" lon="8.497665843860677"><ele>303.5</ele><time>2026-04-27T13:33:16.151Z</time></trkpt><trkpt lat="39.48085511662607" lon="8.497643868534379"><ele>309.0</ele><time>2026-04-27T13:33:17.151Z</time></trkpt><trkpt lat="39.48111661329697" lon="8.497635992215839"><ele>313.0</ele><time>2026-04-27T13:33:18.151Z</time></trkpt><trkpt lat="39.48134249790074" lon="8.497617426151912"><ele>317.0</ele><time>2026-04-27T13:33:19.151Z</time></trkpt><trkpt lat="39.48151173720253" lon="8.49761056107543"><ele>321.0</ele><time>2026-04-27T13:33:20.151Z</time></trkpt><trkpt lat="39.48165240532922" lon="8.497703366091729"><ele>321.0</ele><time>2026-04-27T13:33:21.151Z</time></trkpt><trkpt lat="39.48172400001027" lon="8.497876997428019"><ele>321.0</ele><time>2026-04-27T13:33:22.151Z</time></trkpt><trkpt lat="39.4818150028787" lon="8.498103722842123"><ele>321.0</ele><time>2026-04-27T13:33:23.151Z</time></trkpt><trkpt lat="39.4818959849669" lon="8.49837780177354"><ele>325.3333333333333</ele><time>2026-04-27T13:33:24.151Z</time></trkpt><trkpt lat="39.48200789187314" lon="8.498553403229636"><ele>329.66666666666663</ele><time>2026-04-27T13:33:25.151Z</time></trkpt><trkpt lat="39.48216151772396" lon="8.498696032493458"><ele>334.0</ele><time>2026-04-27T13:33:26.151Z</time></trkpt><trkpt lat="39.48240464168375" lon="8.498816886495213"><ele>316.0</ele><time>2026-04-27T13:33:27.151Z</time></trkpt><trkpt lat="39.48267534998515" lon="8.49893001985082"><ele>298.0</ele><time>2026-04-27T13:33:28.151Z</time></trkpt><trkpt lat="39.482886243734825" lon="8.499043641997384"><ele>304.3333333333333</ele><time>2026-04-27T13:33:29.151Z</time></trkpt><trkpt lat="39.483067796184926" lon="8.499094525165939"><ele>310.6666666666667</ele><time>2026-04-27T13:33:30.151Z</time></trkpt><trkpt lat="39.48327000941962" lon="8.499074138868286"><ele>317.0</ele><time>2026-04-27T13:33:31.151Z</time></trkpt><trkpt lat="39.483484729746735" lon="8.498986487290423"><ele>317.0</ele><time>2026-04-27T13:33:32.151Z</time></trkpt><trkpt lat="39.4836778233356" lon="8.498905802290638"><ele>317.0</ele><time>2026-04-27T13:33:33.151Z</time></trkpt><trkpt lat="39.48381317740802" lon="8.498917583535917"><ele>317.0</ele><time>2026-04-27T13:33:34.151Z</time></trkpt><trkpt lat="39.48388717719577" lon="8.49900558160206"><ele>317.0</ele><time>2026-04-27T13:33:35.151Z</time></trkpt><trkpt lat="39.4838865427561" lon="8.499168835284106"><ele>323.6666666666667</ele><time>2026-04-27T13:33:36.151Z</time></trkpt><trkpt lat="39.48385613788989" lon="8.499351139177868"><ele>330.3333333333333</ele><time>2026-04-27T13:33:37.151Z</time></trkpt><trkpt lat="39.48385613789577" lon="8.499619409814954"><ele>337.0</ele><time>2026-04-27T13:33:38.151Z</time></trkpt><trkpt lat="39.48384616415784" lon="8.49989676696984"><ele>326.0</ele><time>2026-04-27T13:33:39.151Z</time></trkpt><trkpt lat="39.48374568932399" lon="8.50006872469681"><ele>315.0</ele><time>2026-04-27T13:33:40.151Z</time></trkpt><trkpt lat="39.4836938099704" lon="8.500261028446344"><ele>304.0</ele><time>2026-04-27T13:33:41.151Z</time></trkpt><trkpt lat="39.48370258013541" lon="8.500451459340542"><ele>304.0</ele><time>2026-04-27T13:33:42.152Z</time></trkpt><trkpt lat="39.48372394998932" lon="8.500651324347924"><ele>304.0</ele><time>2026-04-27T13:33:43.153Z</time></trkpt><trkpt lat="39.483833775372226" lon="8.500836850248772"><ele>304.0</ele><time>2026-04-27T13:33:44.153Z</time></trkpt><trkpt lat="39.48400085219445" lon="8.500947439602351"><ele>307.75</ele><time>2026-04-27T13:33:45.152Z</time></trkpt><trkpt lat="39.484033687821785" lon="8.501057331606686"><ele>311.5</ele><time>2026-04-27T13:33:46.152Z</time></trkpt><trkpt lat="39.483948544214336" lon="8.501141781098598"><ele>315.25</ele><time>2026-04-27T13:33:47.152Z</time></trkpt><trkpt lat="39.48384425441451" lon="8.501240893574195"><ele>319.0</ele><time>2026-04-27T13:33:48.152Z</time></trkpt><trkpt lat="39.48368241090087" lon="8.501397724612952"><ele>319.0</ele><time>2026-04-27T13:33:49.152Z</time></trkpt><trkpt lat="39.483558428626885" lon="8.501543391729005"><ele>319.0</ele><time>2026-04-27T13:33:50.153Z</time></trkpt><trkpt lat="39.483507361527145" lon="8.501668538851066"><ele>319.0</ele><time>2026-04-27T13:33:51.152Z</time></trkpt><trkpt lat="39.483517967984554" lon="8.501816816230994"><ele>319.0</ele><time>2026-04-27T13:33:52.152Z</time></trkpt><trkpt lat="39.48364642459451" lon="8.50194364675765"><ele>332.0</ele><time>2026-04-27T13:33:53.152Z</time></trkpt><trkpt lat="39.48380755159975" lon="8.502095562955697"><ele>345.0</ele><time>2026-04-27T13:33:54.153Z</time></trkpt><trkpt lat="39.48393646953271" lon="8.502337787064484"><ele>358.0</ele><time>2026-04-27T13:33:55.152Z</time></trkpt><trkpt lat="39.48406586902958" lon="8.502571236605402"><ele>358.0</ele><time>2026-04-27T13:33:56.152Z</time></trkpt><trkpt lat="39.484130580005065" lon="8.502733724671572"><ele>358.0</ele><time>2026-04-27T13:33:57.152Z</time></trkpt><trkpt lat="39.48409633794639" lon="8.502837625746192"><ele>358.0</ele><time>2026-04-27T13:33:58.152Z</time></trkpt><trkpt lat="39.48402709697588" lon="8.502900519175059"><ele>358.0</ele><time>2026-04-27T13:33:59.152Z</time></trkpt><trkpt lat="39.483914189596405" lon="8.502944767235263"><ele>358.0</ele><time>2026-04-27T13:34:00.152Z</time></trkpt><trkpt lat="39.483704633154375" lon="8.502906920455793"><ele>357.0</ele><time>2026-04-27T13:34:01.152Z</time></trkpt><trkpt lat="39.48345816294338" lon="8.50292975625242"><ele>356.0</ele><time>2026-04-27T13:34:02.152Z</time></trkpt><trkpt lat="39.4832696429243" lon="8.502944793546268"><ele>355.0</ele><time>2026-04-27T13:34:03.152Z</time></trkpt><trkpt lat="39.48312349228843" lon="8.503002728116845"><ele>355.0</ele><time>2026-04-27T13:34:04.152Z</time></trkpt><trkpt lat="39.4829985503995" lon="8.503160134204206"><ele>355.0</ele><time>2026-04-27T13:34:05.152Z</time></trkpt><trkpt lat="39.48286214664194" lon="8.503419356710754"><ele>355.0</ele><time>2026-04-27T13:34:06.152Z</time></trkpt><trkpt lat="39.482721037656" lon="8.50361566428665"><ele>347.0</ele><time>2026-04-27T13:34:07.152Z</time></trkpt><trkpt lat="39.48266959838621" lon="8.503786338198713"><ele>339.0</ele><time>2026-04-27T13:34:08.152Z</time></trkpt><trkpt lat="39.48268803790028" lon="8.503988084944973"><ele>331.0</ele><time>2026-04-27T13:34:09.152Z</time></trkpt><trkpt lat="39.48277554532816" lon="8.504252559169638"><ele>331.0</ele><time>2026-04-27T13:34:10.152Z</time></trkpt><trkpt lat="39.482903748420114" lon="8.504566487928347"><ele>331.0</ele><time>2026-04-27T13:34:11.153Z</time></trkpt><trkpt lat="39.482992665594885" lon="8.504846859858846"><ele>333.75</ele><time>2026-04-27T13:34:12.153Z</time></trkpt><trkpt lat="39.48301462364436" lon="8.505003011192517"><ele>336.5</ele><time>2026-04-27T13:34:13.153Z</time></trkpt><trkpt lat="39.48297184678679" lon="8.505089420973597"><ele>339.25</ele><time>2026-04-27T13:34:14.153Z</time></trkpt><trkpt lat="39.4828564265835" lon="8.505123486482987"><ele>342.0</ele><time>2026-04-27T13:34:15.153Z</time></trkpt><trkpt lat="39.482694685017705" lon="8.505265267102612"><ele>350.6666666666667</ele><time>2026-04-27T13:34:16.153Z</time></trkpt><trkpt lat="39.48254803189578" lon="8.505464260532325"><ele>359.33333333333337</ele><time>2026-04-27T13:34:17.153Z</time></trkpt><trkpt lat="39.4824214148987" lon="8.50571530956509"><ele>368.0</ele><time>2026-04-27T13:34:18.153Z</time></trkpt><trkpt lat="39.48234204416753" lon="8.505948766992617"><ele>368.0</ele><time>2026-04-27T13:34:19.153Z</time></trkpt><trkpt lat="39.4822909026353" lon="8.506106360634494"><ele>368.0</ele><time>2026-04-27T13:34:20.153Z</time></trkpt><trkpt lat="39.48230109485092" lon="8.506242219035522"><ele>368.0</ele><time>2026-04-27T13:34:21.153Z</time></trkpt><trkpt lat="39.482394583671685" lon="8.50635376698578"><ele>368.0</ele><time>2026-04-27T13:34:22.153Z</time></trkpt><trkpt lat="39.48254777772769" lon="8.506383789834882"><ele>369.0</ele><time>2026-04-27T13:34:23.153Z</time></trkpt><trkpt lat="39.48274561635678" lon="8.506343303350969"><ele>370.0</ele><time>2026-04-27T13:34:24.153Z</time></trkpt><trkpt lat="39.483001669011024" lon="8.506271004637588"><ele>375.5</ele><time>2026-04-27T13:34:25.153Z</time></trkpt><trkpt lat="39.48328893160436" lon="8.506202027474258"><ele>381.0</ele><time>2026-04-27T13:34:26.153Z</time></trkpt><trkpt lat="39.48354972801968" lon="8.506113979910822"><ele>381.0</ele><time>2026-04-27T13:34:27.153Z</time></trkpt><trkpt lat="39.48373989675868" lon="8.505996629751051"><ele>381.0</ele><time>2026-04-27T13:34:28.153Z</time></trkpt><trkpt lat="39.483893926423455" lon="8.505816026796378"><ele>381.0</ele><time>2026-04-27T13:34:29.153Z</time></trkpt><trkpt lat="39.48403059151447" lon="8.505542756272627"><ele>383.5</ele><time>2026-04-27T13:34:30.153Z</time></trkpt><trkpt lat="39.484178968725104" lon="8.505249071526961"><ele>386.0</ele><time>2026-04-27T13:34:31.153Z</time></trkpt><trkpt lat="39.48432149355555" lon="8.505032098489247"><ele>386.0</ele><time>2026-04-27T13:34:32.153Z</time></trkpt><trkpt lat="39.484452036614144" lon="8.504941843403465"><ele>386.0</ele><time>2026-04-27T13:34:33.153Z</time></trkpt><trkpt lat="39.484547586118076" lon="8.504966329483402"><ele>386.0</ele><time>2026-04-27T13:34:34.153Z</time></trkpt><trkpt lat="39.484622903278" lon="8.505050453459218"><ele>386.0</ele><time>2026-04-27T13:34:35.153Z</time></trkpt><trkpt lat="39.484667253168325" lon="8.505206129565781"><ele>385.66666666666663</ele><time>2026-04-27T13:34:36.153Z</time></trkpt><trkpt lat="39.48464404239321" lon="8.505365523238195"><ele>385.33333333333337</ele><time>2026-04-27T13:34:37.153Z</time></trkpt><trkpt lat="39.484552252814346" lon="8.505565776389844"><ele>385.0</ele><time>2026-04-27T13:34:38.153Z</time></trkpt><trkpt lat="39.48448091492866" lon="8.505820009764202"><ele>385.0</ele><time>2026-04-27T13:34:39.153Z</time></trkpt><trkpt lat="39.48446693808781" lon="8.506117121294078"><ele>385.0</ele><time>2026-04-27T13:34:40.153Z</time></trkpt><trkpt lat="39.48448979004997" lon="8.50647660492758"><ele>386.5</ele><time>2026-04-27T13:34:41.153Z</time></trkpt><trkpt lat="39.48446106373044" lon="8.50690351921142"><ele>388.0</ele><time>2026-04-27T13:34:42.153Z</time></trkpt><trkpt lat="39.48442775093763" lon="8.507384234417312"><ele>393.5</ele><time>2026-04-27T13:34:43.153Z</time></trkpt><trkpt lat="39.48439209048751" lon="8.507910512405585"><ele>399.0</ele><time>2026-04-27T13:34:44.153Z</time></trkpt><trkpt lat="39.4843570866848" lon="8.508383840036728"><ele>403.5</ele><time>2026-04-27T13:34:45.153Z</time></trkpt><trkpt lat="39.484330847892004" lon="8.50875090161592"><ele>408.0</ele><time>2026-04-27T13:34:46.153Z</time></trkpt><trkpt lat="39.48429033023973" lon="8.509042140820563"><ele>408.0</ele><time>2026-04-27T13:34:47.153Z</time></trkpt><trkpt lat="39.48420911573637" lon="8.509233608369646"><ele>408.0</ele><time>2026-04-27T13:34:48.153Z</time></trkpt><trkpt lat="39.48407589807428" lon="8.509404906105242"><ele>408.0</ele><time>2026-04-27T13:34:49.153Z</time></trkpt><trkpt lat="39.48396866017387" lon="8.509668997439446"><ele>412.33333333333337</ele><time>2026-04-27T13:34:50.153Z</time></trkpt><trkpt lat="39.48389817194589" lon="8.509909976847498"><ele>416.6666666666667</ele><time>2026-04-27T13:34:51.153Z</time></trkpt><trkpt lat="39.48387750579636" lon="8.510222048438452"><ele>421.0</ele><time>2026-04-27T13:34:52.153Z</time></trkpt><trkpt lat="39.48390982953996" lon="8.510563477558941"><ele>422.5</ele><time>2026-04-27T13:34:53.153Z</time></trkpt><trkpt lat="39.4839679243491" lon="8.51084628225451"><ele>424.0</ele><time>2026-04-27T13:34:54.153Z</time></trkpt><trkpt lat="39.48411023433745" lon="8.511091080346805"><ele>418.5</ele><time>2026-04-27T13:34:55.153Z</time></trkpt><trkpt lat="39.48434007072194" lon="8.511345071623175"><ele>413.0</ele><time>2026-04-27T13:34:56.153Z</time></trkpt><trkpt lat="39.48463750506006" lon="8.511617869660887"><ele>418.5</ele><time>2026-04-27T13:34:57.153Z</time></trkpt><trkpt lat="39.484941274314615" lon="8.511940252816766"><ele>424.0</ele><time>2026-04-27T13:34:58.153Z</time></trkpt><trkpt lat="39.4852082811756" lon="8.512245643419812"><ele>424.0</ele><time>2026-04-27T13:34:59.153Z</time></trkpt><trkpt lat="39.485372872787735" lon="8.512501032502628"><ele>424.0</ele><time>2026-04-27T13:35:00.153Z</time></trkpt><trkpt lat="39.48551625253264" lon="8.512674423267978"><ele>428.75</ele><time>2026-04-27T13:35:01.153Z</time></trkpt><trkpt lat="39.48565488303784" lon="8.512765510294994"><ele>433.5</ele><time>2026-04-27T13:35:02.153Z</time></trkpt><trkpt lat="39.485766903753415" lon="8.51286544748563"><ele>438.25</ele><time>2026-04-27T13:35:03.153Z</time></trkpt><trkpt lat="39.485829432223724" lon="8.513006253721715"><ele>443.0</ele><time>2026-04-27T13:35:04.153Z</time></trkpt><trkpt lat="39.485788167170774" lon="8.513185662696774"><ele>443.0</ele><time>2026-04-27T13:35:05.153Z</time></trkpt><trkpt lat="39.485696650419975" lon="8.513472335792605"><ele>443.0</ele><time>2026-04-27T13:35:06.153Z</time></trkpt><trkpt lat="39.48564290967135" lon="8.513707912130512"><ele>443.0</ele><time>2026-04-27T13:35:07.153Z</time></trkpt><trkpt lat="39.48567808433454" lon="8.513958721947176"><ele>445.0</ele><time>2026-04-27T13:35:08.153Z</time></trkpt><trkpt lat="39.48576934432693" lon="8.514248416636448"><ele>447.0</ele><time>2026-04-27T13:35:09.153Z</time></trkpt><trkpt lat="39.485780539324054" lon="8.5145983400968"><ele>448.5</ele><time>2026-04-27T13:35:10.153Z</time></trkpt><trkpt lat="39.4858587106624" lon="8.514957538213489"><ele>450.0</ele><time>2026-04-27T13:35:11.153Z</time></trkpt><trkpt lat="39.48597441640746" lon="8.515346518361458"><ele>451.5</ele><time>2026-04-27T13:35:12.153Z</time></trkpt><trkpt lat="39.48609727404191" lon="8.515759541815084"><ele>453.0</ele><time>2026-04-27T13:35:13.153Z</time></trkpt><trkpt lat="39.48621139273724" lon="8.516122800113022"><ele>458.0</ele><time>2026-04-27T13:35:14.153Z</time></trkpt><trkpt lat="39.48632508912179" lon="8.516408412231925"><ele>463.0</ele><time>2026-04-27T13:35:15.153Z</time></trkpt><trkpt lat="39.4864417697132" lon="8.51663470968316"><ele>463.0</ele><time>2026-04-27T13:35:16.153Z</time></trkpt><trkpt lat="39.486554536224865" lon="8.516845048153762"><ele>463.0</ele><time>2026-04-27T13:35:17.153Z</time></trkpt><trkpt lat="39.48670312252339" lon="8.517035782896867"><ele>463.0</ele><time>2026-04-27T13:35:18.153Z</time></trkpt><trkpt lat="39.48691353453817" lon="8.517198027019818"><ele>462.0</ele><time>2026-04-27T13:35:19.153Z</time></trkpt><trkpt lat="39.48718164647168" lon="8.5173644141679"><ele>461.0</ele><time>2026-04-27T13:35:20.153Z</time></trkpt><trkpt lat="39.48743459475675" lon="8.51758262484144"><ele>461.0</ele><time>2026-04-27T13:35:21.153Z</time></trkpt><trkpt lat="39.48765086301248" lon="8.51773725227736"><ele>461.0</ele><time>2026-04-27T13:35:22.153Z</time></trkpt><trkpt lat="39.4878254118951" lon="8.517865864057715"><ele>461.0</ele><time>2026-04-27T13:35:23.153Z</time></trkpt><trkpt lat="39.48800671833007" lon="8.517946430253067"><ele>459.0</ele><time>2026-04-27T13:35:24.154Z</time></trkpt><trkpt lat="39.488220637003174" lon="8.517974652626334"><ele>457.0</ele><time>2026-04-27T13:35:25.154Z</time></trkpt><trkpt lat="39.488462444607066" lon="8.517923720958676"><ele>458.5</ele><time>2026-04-27T13:35:26.154Z</time></trkpt><trkpt lat="39.48872659068779" lon="8.517778479665559"><ele>460.0</ele><time>2026-04-27T13:35:27.154Z</time></trkpt><trkpt lat="39.48901820922593" lon="8.51756459514983"><ele>456.5</ele><time>2026-04-27T13:35:28.154Z</time></trkpt><trkpt lat="39.48934265514163" lon="8.51733082614111"><ele>453.0</ele><time>2026-04-27T13:35:29.154Z</time></trkpt><trkpt lat="39.489694655825744" lon="8.517139049704111"><ele>453.0</ele><time>2026-04-27T13:35:30.154Z</time></trkpt><trkpt lat="39.49002748893355" lon="8.516995938925783"><ele>453.0</ele><time>2026-04-27T13:35:31.154Z</time></trkpt><trkpt lat="39.490301094311405" lon="8.516878171161622"><ele>450.0</ele><time>2026-04-27T13:35:32.154Z</time></trkpt><trkpt lat="39.49051891095862" lon="8.516792791367887"><ele>447.0</ele><time>2026-04-27T13:35:33.154Z</time></trkpt><trkpt lat="39.49074382883868" lon="8.51678521028642"><ele>447.0</ele><time>2026-04-27T13:35:34.154Z</time></trkpt><trkpt lat="39.49099288171242" lon="8.516813939801306"><ele>447.0</ele><time>2026-04-27T13:35:35.154Z</time></trkpt><trkpt lat="39.49123660211991" lon="8.516921572422852"><ele>444.5</ele><time>2026-04-27T13:35:36.154Z</time></trkpt><trkpt lat="39.49148572196821" lon="8.517102513931757"><ele>442.0</ele><time>2026-04-27T13:35:37.154Z</time></trkpt><trkpt lat="39.49177478299142" lon="8.517342109490134"><ele>442.0</ele><time>2026-04-27T13:35:38.154Z</time></trkpt><trkpt lat="39.49205572183377" lon="8.51757949203887"><ele>442.0</ele><time>2026-04-27T13:35:39.154Z</time></trkpt><trkpt lat="39.49226949645372" lon="8.517781179420743"><ele>441.0</ele><time>2026-04-27T13:35:40.154Z</time></trkpt><trkpt lat="39.4924169515974" lon="8.51798086314154"><ele>440.0</ele><time>2026-04-27T13:35:41.154Z</time></trkpt><trkpt lat="39.492552372533275" lon="8.518247742754745"><ele>440.0</ele><time>2026-04-27T13:35:42.154Z</time></trkpt><trkpt lat="39.49270973631508" lon="8.518628267143853"><ele>440.0</ele><time>2026-04-27T13:35:43.154Z</time></trkpt><trkpt lat="39.492894258846846" lon="8.519065974676582"><ele>440.0</ele><time>2026-04-27T13:35:44.154Z</time></trkpt><trkpt lat="39.4930983462244" lon="8.519556246789046"><ele>440.0</ele><time>2026-04-27T13:35:45.154Z</time></trkpt><trkpt lat="39.493294100790365" lon="8.520026684164899"><ele>439.0</ele><time>2026-04-27T13:35:46.154Z</time></trkpt><trkpt lat="39.4934606624326" lon="8.52042704179424"><ele>438.0</ele><time>2026-04-27T13:35:47.154Z</time></trkpt><trkpt lat="39.49359100701306" lon="8.520739850113314"><ele>438.0</ele><time>2026-04-27T13:35:48.155Z</time></trkpt><trkpt lat="39.49370187377114" lon="8.521005680165139"><ele>438.0</ele><time>2026-04-27T13:35:49.154Z</time></trkpt><trkpt lat="39.493798331691245" lon="8.5212369623808"><ele>438.0</ele><time>2026-04-27T13:35:50.154Z</time></trkpt><trkpt lat="39.493871454578056" lon="8.52141365667556"><ele>438.75</ele><time>2026-04-27T13:35:51.155Z</time></trkpt><trkpt lat="39.49393212802472" lon="8.52153211624946"><ele>439.5</ele><time>2026-04-27T13:35:52.155Z</time></trkpt><trkpt lat="39.493994704582825" lon="8.521628782885129"><ele>440.25</ele><time>2026-04-27T13:35:53.155Z</time></trkpt><trkpt lat="39.49407470971948" lon="8.521734112837322"><ele>441.0</ele><time>2026-04-27T13:35:54.155Z</time></trkpt><trkpt lat="39.494176144877265" lon="8.521839233262433"><ele>441.0</ele><time>2026-04-27T13:35:55.154Z</time></trkpt><trkpt lat="39.49426549937201" lon="8.521924295812385"><ele>441.0</ele><time>2026-04-27T13:35:56.154Z</time></trkpt><trkpt lat="39.494359616393396" lon="8.522013893722304"><ele>441.0</ele><time>2026-04-27T13:35:57.155Z</time></trkpt><trkpt lat="39.49445445396226" lon="8.522096888968383"><ele>441.0</ele><time>2026-04-27T13:35:58.155Z</time></trkpt><trkpt lat="39.49455690419172" lon="8.522176961885359"><ele>440.0</ele><time>2026-04-27T13:35:59.155Z</time></trkpt><trkpt lat="39.494671160321076" lon="8.522242364879856"><ele>439.0</ele><time>2026-04-27T13:36:00.156Z</time></trkpt><trkpt lat="39.494842224122195" lon="8.52230725796124"><ele>438.0</ele><time>2026-04-27T13:36:01.155Z</time></trkpt><trkpt lat="39.49508721011269" lon="8.522377506818069"><ele>438.0</ele><time>2026-04-27T13:36:02.155Z</time></trkpt><trkpt lat="39.49539391402279" lon="8.522453409864463"><ele>438.0</ele><time>2026-04-27T13:36:03.155Z</time></trkpt><trkpt lat="39.49574478326091" lon="8.522559544372958"><ele>436.5</ele><time>2026-04-27T13:36:04.155Z</time></trkpt><trkpt lat="39.49614449029003" lon="8.522660764488887"><ele>435.0</ele><time>2026-04-27T13:36:05.155Z</time></trkpt><trkpt lat="39.49654404620273" lon="8.522769578564716"><ele>433.0</ele><time>2026-04-27T13:36:06.155Z</time></trkpt><trkpt lat="39.49689587277625" lon="8.52286177586623"><ele>431.0</ele><time>2026-04-27T13:36:07.155Z</time></trkpt><trkpt lat="39.49720772892337" lon="8.522968009162454"><ele>429.5</ele><time>2026-04-27T13:36:08.155Z</time></trkpt><trkpt lat="39.49748475685835" lon="8.52302335591295"><ele>428.0</ele><time>2026-04-27T13:36:09.155Z</time></trkpt><trkpt lat="39.49770133736746" lon="8.523106536052223"><ele>428.0</ele><time>2026-04-27T13:36:10.155Z</time></trkpt><trkpt lat="39.49787040433074" lon="8.523175283629694"><ele>428.0</ele><time>2026-04-27T13:36:11.155Z</time></trkpt><trkpt lat="39.49798885254538" lon="8.523286671985252"><ele>428.0</ele><time>2026-04-27T13:36:12.155Z</time></trkpt><trkpt lat="39.49805885622893" lon="8.523458433649939"><ele>428.0</ele><time>2026-04-27T13:36:13.155Z</time></trkpt><trkpt lat="39.49813309292872" lon="8.523678387421205"><ele>428.0</ele><time>2026-04-27T13:36:14.155Z</time></trkpt><trkpt lat="39.49817926306879" lon="8.523861430346129"><ele>428.0</ele><time>2026-04-27T13:36:15.155Z</time></trkpt><trkpt lat="39.49819044565722" lon="8.524042584818995"><ele>426.3333333333333</ele><time>2026-04-27T13:36:16.155Z</time></trkpt><trkpt lat="39.498142065530935" lon="8.524240761409986"><ele>424.66666666666663</ele><time>2026-04-27T13:36:17.155Z</time></trkpt><trkpt lat="39.49806035126131" lon="8.524518276594412"><ele>423.0</ele><time>2026-04-27T13:36:18.155Z</time></trkpt><trkpt lat="39.49795067398099" lon="8.524887360716209"><ele>420.5</ele><time>2026-04-27T13:36:19.155Z</time></trkpt><trkpt lat="39.49782457354578" lon="8.525310403533176"><ele>418.0</ele><time>2026-04-27T13:36:20.155Z</time></trkpt><trkpt lat="39.497702446417435" lon="8.52572455080893"><ele>418.0</ele><time>2026-04-27T13:36:21.155Z</time></trkpt><trkpt lat="39.49760866810013" lon="8.526080111845758"><ele>418.0</ele><time>2026-04-27T13:36:22.155Z</time></trkpt><trkpt lat="39.497573214449865" lon="8.5264010390217"><ele>418.0</ele><time>2026-04-27T13:36:23.155Z</time></trkpt><trkpt lat="39.4975841449181" lon="8.526709561567001"><ele>418.0</ele><time>2026-04-27T13:36:24.155Z</time></trkpt><trkpt lat="39.49762930775759" lon="8.526982683955778"><ele>417.33333333333337</ele><time>2026-04-27T13:36:25.155Z</time></trkpt><trkpt lat="39.4976971402861" lon="8.527193191841835"><ele>416.66666666666663</ele><time>2026-04-27T13:36:26.155Z</time></trkpt><trkpt lat="39.49782334332816" lon="8.527344945132814"><ele>416.0</ele><time>2026-04-27T13:36:27.155Z</time></trkpt><trkpt lat="39.49803176808693" lon="8.527441480850499"><ele>418.5</ele><time>2026-04-27T13:36:28.155Z</time></trkpt><trkpt lat="39.49833084130128" lon="8.527518938883889"><ele>421.0</ele><time>2026-04-27T13:36:29.155Z</time></trkpt><trkpt lat="39.498532900644435" lon="8.52760097456155"><ele>421.0</ele><time>2026-04-27T13:36:30.155Z</time></trkpt><trkpt lat="39.49870133681269" lon="8.527628555212937"><ele>421.0</ele><time>2026-04-27T13:36:31.155Z</time></trkpt><trkpt lat="39.49888714275379" lon="8.527559505570757"><ele>421.0</ele><time>2026-04-27T13:36:32.155Z</time></trkpt><trkpt lat="39.4990780096704" lon="8.527396464600582"><ele>420.0</ele><time>2026-04-27T13:36:33.155Z</time></trkpt><trkpt lat="39.49925555992923" lon="8.527235844172647"><ele>419.0</ele><time>2026-04-27T13:36:34.155Z</time></trkpt><trkpt lat="39.499390670826145" lon="8.527214949924256"><ele>418.0</ele><time>2026-04-27T13:36:35.155Z</time></trkpt><trkpt lat="39.49948628328966" lon="8.527295585583339"><ele>418.0</ele><time>2026-04-27T13:36:36.155Z</time></trkpt><trkpt lat="39.49950440716589" lon="8.527450452942162"><ele>418.0</ele><time>2026-04-27T13:36:37.155Z</time></trkpt><trkpt lat="39.49958987399663" lon="8.52766852745005"><ele>418.0</ele><time>2026-04-27T13:36:38.155Z</time></trkpt><trkpt lat="39.49974085452663" lon="8.528053769446945"><ele>418.5</ele><time>2026-04-27T13:36:39.155Z</time></trkpt><trkpt lat="39.4998726318683" lon="8.528391874392984"><ele>419.0</ele><time>2026-04-27T13:36:40.155Z</time></trkpt><trkpt lat="39.500025400548786" lon="8.528765677982229"><ele>416.5</ele><time>2026-04-27T13:36:41.155Z</time></trkpt><trkpt lat="39.5001306829388" lon="8.529037165078284"><ele>414.0</ele><time>2026-04-27T13:36:42.155Z</time></trkpt><trkpt lat="39.50023879175475" lon="8.529290886248436"><ele>414.0</ele><time>2026-04-27T13:36:43.155Z</time></trkpt><trkpt lat="39.50037837433158" lon="8.529371070569148"><ele>414.0</ele><time>2026-04-27T13:36:44.155Z</time></trkpt><trkpt lat="39.500537009392445" lon="8.529400516399852"><ele>414.0</ele><time>2026-04-27T13:36:45.155Z</time></trkpt><trkpt lat="39.500642181832596" lon="8.529575451949304"><ele>413.0</ele><time>2026-04-27T13:36:46.155Z</time></trkpt><trkpt lat="39.50080414053516" lon="8.529840534464576"><ele>412.0</ele><time>2026-04-27T13:36:47.155Z</time></trkpt><trkpt lat="39.500960743613675" lon="8.530097405693615"><ele>412.0</ele><time>2026-04-27T13:36:48.155Z</time></trkpt><trkpt lat="39.50113492675249" lon="8.530385438883695"><ele>412.0</ele><time>2026-04-27T13:36:49.155Z</time></trkpt><trkpt lat="39.50125889070927" lon="8.530622965998027"><ele>412.0</ele><time>2026-04-27T13:36:50.155Z</time></trkpt><trkpt lat="39.50133187557848" lon="8.530888126671204"><ele>412.0</ele><time>2026-04-27T13:36:51.156Z</time></trkpt><trkpt lat="39.501393145680176" lon="8.531113973758353"><ele>412.0</ele><time>2026-04-27T13:36:52.156Z</time></trkpt><trkpt lat="39.50148353025781" lon="8.531279088846183"><ele>412.0</ele><time>2026-04-27T13:36:53.156Z</time></trkpt><trkpt lat="39.501620400620034" lon="8.5313242990885"><ele>412.0</ele><time>2026-04-27T13:36:54.156Z</time></trkpt><trkpt lat="39.50184551333312" lon="8.531366982095836"><ele>412.0</ele><time>2026-04-27T13:36:55.156Z</time></trkpt><trkpt lat="39.50207791316096" lon="8.531407927650406"><ele>413.0</ele><time>2026-04-27T13:36:56.156Z</time></trkpt><trkpt lat="39.50241017339277" lon="8.531527793502073"><ele>414.0</ele><time>2026-04-27T13:36:57.156Z</time></trkpt><trkpt lat="39.50268125908094" lon="8.531640523904324"><ele>412.5</ele><time>2026-04-27T13:36:58.156Z</time></trkpt><trkpt lat="39.502930918093085" lon="8.531718954090003"><ele>411.0</ele><time>2026-04-27T13:36:59.156Z</time></trkpt><trkpt lat="39.503140711609255" lon="8.531840823662021"><ele>411.0</ele><time>2026-04-27T13:37:00.156Z</time></trkpt><trkpt lat="39.50337653763779" lon="8.532030024467824"><ele>411.0</ele><time>2026-04-27T13:37:01.156Z</time></trkpt><trkpt lat="39.50360941743814" lon="8.532220582374462"><ele>410.0</ele><time>2026-04-27T13:37:02.156Z</time></trkpt><trkpt lat="39.50380689999238" lon="8.532388551704026"><ele>409.0</ele><time>2026-04-27T13:37:03.156Z</time></trkpt><trkpt lat="39.503924281330626" lon="8.53255930486803"><ele>408.0</ele><time>2026-04-27T13:37:04.156Z</time></trkpt><trkpt lat="39.50400895632365" lon="8.532754305660816"><ele>409.0</ele><time>2026-04-27T13:37:05.156Z</time></trkpt><trkpt lat="39.504076631921016" lon="8.532931959265046"><ele>410.0</ele><time>2026-04-27T13:37:06.156Z</time></trkpt><trkpt lat="39.5040968690054" lon="8.5330645709126"><ele>411.0</ele><time>2026-04-27T13:37:07.156Z</time></trkpt><trkpt lat="39.50405852409295" lon="8.533196609459134"><ele>412.0</ele><time>2026-04-27T13:37:08.156Z</time></trkpt><trkpt lat="39.50394554281784" lon="8.533339252655857"><ele>412.0</ele><time>2026-04-27T13:37:09.156Z</time></trkpt><trkpt lat="39.50378181202084" lon="8.533540007215338"><ele>412.0</ele><time>2026-04-27T13:37:10.156Z</time></trkpt><trkpt lat="39.503612746623716" lon="8.533755315055672"><ele>411.0</ele><time>2026-04-27T13:37:11.156Z</time></trkpt><trkpt lat="39.50349579325835" lon="8.533943484164359"><ele>410.0</ele><time>2026-04-27T13:37:12.156Z</time></trkpt><trkpt lat="39.50345631719058" lon="8.534133310495909"><ele>409.0</ele><time>2026-04-27T13:37:13.156Z</time></trkpt><trkpt lat="39.5034983147799" lon="8.53437533041866"><ele>410.33333333333337</ele><time>2026-04-27T13:37:14.156Z</time></trkpt><trkpt lat="39.50358401686327" lon="8.534644149173698"><ele>411.66666666666663</ele><time>2026-04-27T13:37:15.156Z</time></trkpt><trkpt lat="39.50358711295036" lon="8.534870248990094"><ele>413.0</ele><time>2026-04-27T13:37:16.156Z</time></trkpt><trkpt lat="39.50355593103379" lon="8.53506165226858"><ele>413.0</ele><time>2026-04-27T13:37:17.156Z</time></trkpt><trkpt lat="39.50345620889089" lon="8.535283417166788"><ele>413.0</ele><time>2026-04-27T13:37:18.156Z</time></trkpt><trkpt lat="39.50336347021859" lon="8.53556146243263"><ele>413.0</ele><time>2026-04-27T13:37:19.156Z</time></trkpt><trkpt lat="39.50332316996396" lon="8.535842556441752"><ele>414.0</ele><time>2026-04-27T13:37:20.156Z</time></trkpt><trkpt lat="39.503317380988655" lon="8.536180681953356"><ele>415.0</ele><time>2026-04-27T13:37:21.156Z</time></trkpt><trkpt lat="39.5032682528895" lon="8.53654673898477"><ele>415.0</ele><time>2026-04-27T13:37:22.156Z</time></trkpt><trkpt lat="39.50323629047509" lon="8.536896142957099"><ele>415.0</ele><time>2026-04-27T13:37:23.156Z</time></trkpt><trkpt lat="39.50322019800886" lon="8.537191101989249"><ele>413.6666666666667</ele><time>2026-04-27T13:37:24.156Z</time></trkpt><trkpt lat="39.5032517131388" lon="8.537426810498426"><ele>412.33333333333337</ele><time>2026-04-27T13:37:25.156Z</time></trkpt><trkpt lat="39.5033285912422" lon="8.537663370271638"><ele>411.0</ele><time>2026-04-27T13:37:26.156Z</time></trkpt><trkpt lat="39.50349031410623" lon="8.537937005454411"><ele>411.0</ele><time>2026-04-27T13:37:27.156Z</time></trkpt><trkpt lat="39.50360094939868" lon="8.538218835123137"><ele>411.0</ele><time>2026-04-27T13:37:28.156Z</time></trkpt><trkpt lat="39.50371298437752" lon="8.538399231844503"><ele>411.0</ele><time>2026-04-27T13:37:29.156Z</time></trkpt><trkpt lat="39.503824184946446" lon="8.538531459031425"><ele>411.0</ele><time>2026-04-27T13:37:30.156Z</time></trkpt><trkpt lat="39.50399694961341" lon="8.538623708911045"><ele>411.0</ele><time>2026-04-27T13:37:31.156Z</time></trkpt><trkpt lat="39.50423449260821" lon="8.538701652044734"><ele>411.0</ele><time>2026-04-27T13:37:32.156Z</time></trkpt><trkpt lat="39.504476080163826" lon="8.538804497495349"><ele>409.33333333333337</ele><time>2026-04-27T13:37:33.156Z</time></trkpt><trkpt lat="39.504680397479405" lon="8.538933425633452"><ele>407.6666666666667</ele><time>2026-04-27T13:37:34.156Z</time></trkpt><trkpt lat="39.504831982671625" lon="8.539057480840029"><ele>406.0</ele><time>2026-04-27T13:37:35.156Z</time></trkpt><trkpt lat="39.50495297969944" lon="8.53921937190326"><ele>406.0</ele><time>2026-04-27T13:37:36.156Z</time></trkpt><trkpt lat="39.50502893203196" lon="8.539450879464614"><ele>406.0</ele><time>2026-04-27T13:37:37.156Z</time></trkpt><trkpt lat="39.50513388478976" lon="8.539746345545415"><ele>406.0</ele><time>2026-04-27T13:37:38.156Z</time></trkpt><trkpt lat="39.50524942060586" lon="8.540070063521968"><ele>403.0</ele><time>2026-04-27T13:37:39.156Z</time></trkpt><trkpt lat="39.50536897608091" lon="8.540401786018798"><ele>400.0</ele><time>2026-04-27T13:37:40.156Z</time></trkpt><trkpt lat="39.50548646973666" lon="8.540729024350163"><ele>400.0</ele><time>2026-04-27T13:37:41.156Z</time></trkpt><trkpt lat="39.50560225474865" lon="8.54105547378899"><ele>400.0</ele><time>2026-04-27T13:37:42.156Z</time></trkpt><trkpt lat="39.50571665327207" lon="8.541374833940061"><ele>399.0</ele><time>2026-04-27T13:37:43.156Z</time></trkpt><trkpt lat="39.50582911713846" lon="8.541688577123587"><ele>398.0</ele><time>2026-04-27T13:37:44.156Z</time></trkpt><trkpt lat="39.50594705908423" lon="8.541975943400322"><ele>397.66666666666663</ele><time>2026-04-27T13:37:45.156Z</time></trkpt><trkpt lat="39.506019083191006" lon="8.542251579586447"><ele>397.33333333333337</ele><time>2026-04-27T13:37:46.156Z</time></trkpt><trkpt lat="39.50605824329428" lon="8.542491455513952"><ele>397.0</ele><time>2026-04-27T13:37:47.156Z</time></trkpt><trkpt lat="39.506023286923885" lon="8.542717015929362"><ele>396.6666666666667</ele><time>2026-04-27T13:37:48.156Z</time></trkpt><trkpt lat="39.50596615671092" lon="8.542982423230239"><ele>396.33333333333337</ele><time>2026-04-27T13:37:49.156Z</time></trkpt><trkpt lat="39.50590408136306" lon="8.543276214462725"><ele>396.0</ele><time>2026-04-27T13:37:50.156Z</time></trkpt><trkpt lat="39.50587005147779" lon="8.54353580581502"><ele>395.66666666666663</ele><time>2026-04-27T13:37:51.156Z</time></trkpt><trkpt lat="39.50587165258739" lon="8.543788884497317"><ele>395.3333333333333</ele><time>2026-04-27T13:37:52.156Z</time></trkpt><trkpt lat="39.5059590511674" lon="8.54404365235719"><ele>395.0</ele><time>2026-04-27T13:37:53.158Z</time></trkpt><trkpt lat="39.50601533955364" lon="8.544333180408806"><ele>395.0</ele><time>2026-04-27T13:37:54.157Z</time></trkpt><trkpt lat="39.506079851934246" lon="8.544604403455324"><ele>395.0</ele><time>2026-04-27T13:37:55.157Z</time></trkpt><trkpt lat="39.50614036128469" lon="8.544858796950393"><ele>395.0</ele><time>2026-04-27T13:37:56.157Z</time></trkpt><trkpt lat="39.50622327901881" lon="8.545129476064988"><ele>396.0</ele><time>2026-04-27T13:37:57.158Z</time></trkpt><trkpt lat="39.50630347272595" lon="8.545407703085925"><ele>397.0</ele><time>2026-04-27T13:37:58.158Z</time></trkpt><trkpt lat="39.50641467298282" lon="8.545670504719528"><ele>397.0</ele><time>2026-04-27T13:37:59.157Z</time></trkpt><trkpt lat="39.50655860445011" lon="8.545909676904607"><ele>397.0</ele><time>2026-04-27T13:38:00.157Z</time></trkpt><trkpt lat="39.506694159548545" lon="8.546156147646936"><ele>395.33333333333337</ele><time>2026-04-27T13:38:01.157Z</time></trkpt><trkpt lat="39.50680769969941" lon="8.546391660889318"><ele>393.66666666666663</ele><time>2026-04-27T13:38:02.158Z</time></trkpt><trkpt lat="39.50690904114891" lon="8.54661400864421"><ele>392.0</ele><time>2026-04-27T13:38:03.158Z</time></trkpt><trkpt lat="39.50695666091945" lon="8.546874098533559"><ele>389.5</ele><time>2026-04-27T13:38:04.158Z</time></trkpt><trkpt lat="39.50698186126272" lon="8.547174527438202"><ele>387.0</ele><time>2026-04-27T13:38:05.157Z</time></trkpt><trkpt lat="39.507014445948755" lon="8.54748008528244"><ele>387.0</ele><time>2026-04-27T13:38:06.157Z</time></trkpt><trkpt lat="39.507044970209094" lon="8.547752933857884"><ele>387.0</ele><time>2026-04-27T13:38:07.157Z</time></trkpt><trkpt lat="39.50707519953582" lon="8.547973495933228"><ele>387.0</ele><time>2026-04-27T13:38:08.157Z</time></trkpt><trkpt lat="39.50711813182502" lon="8.548138468755651"><ele>387.0</ele><time>2026-04-27T13:38:09.157Z</time></trkpt><trkpt lat="39.507221019229206" lon="8.548266822701123"><ele>387.0</ele><time>2026-04-27T13:38:10.157Z</time></trkpt><trkpt lat="39.507394350912634" lon="8.548327688354386"><ele>387.0</ele><time>2026-04-27T13:38:11.157Z</time></trkpt><trkpt lat="39.507625697669496" lon="8.548339801416189"><ele>387.0</ele><time>2026-04-27T13:38:12.157Z</time></trkpt><trkpt lat="39.50785389772021" lon="8.548375712661697"><ele>387.0</ele><time>2026-04-27T13:38:13.157Z</time></trkpt><trkpt lat="39.50802060413609" lon="8.548464703681844"><ele>387.0</ele><time>2026-04-27T13:38:14.157Z</time></trkpt><trkpt lat="39.508130867092326" lon="8.548627793176555"><ele>385.0</ele><time>2026-04-27T13:38:15.157Z</time></trkpt><trkpt lat="39.508226976326775" lon="8.548884732550889"><ele>383.0</ele><time>2026-04-27T13:38:16.157Z</time></trkpt><trkpt lat="39.50831456984745" lon="8.549196530107533"><ele>383.0</ele><time>2026-04-27T13:38:17.157Z</time></trkpt><trkpt lat="39.50840841628829" lon="8.549465959204932"><ele>383.0</ele><time>2026-04-27T13:38:18.157Z</time></trkpt><trkpt lat="39.508495480140304" lon="8.549654496202864"><ele>383.0</ele><time>2026-04-27T13:38:19.157Z</time></trkpt><trkpt lat="39.508594893641174" lon="8.549787802135699"><ele>380.33333333333337</ele><time>2026-04-27T13:38:20.157Z</time></trkpt><trkpt lat="39.50875162644572" lon="8.549829439599616"><ele>377.6666666666667</ele><time>2026-04-27T13:38:21.157Z</time></trkpt><trkpt lat="39.508965526269506" lon="8.549791934547557"><ele>375.0</ele><time>2026-04-27T13:38:22.157Z</time></trkpt><trkpt lat="39.50922796998859" lon="8.549694600280413"><ele>375.0</ele><time>2026-04-27T13:38:23.157Z</time></trkpt><trkpt lat="39.509464884354045" lon="8.549643686239595"><ele>375.0</ele><time>2026-04-27T13:38:24.157Z</time></trkpt><trkpt lat="39.509643217019494" lon="8.54963146203878"><ele>375.0</ele><time>2026-04-27T13:38:25.157Z</time></trkpt><trkpt lat="39.50977765463574" lon="8.5496556055151"><ele>374.6666666666667</ele><time>2026-04-27T13:38:26.157Z</time></trkpt><trkpt lat="39.50986773932304" lon="8.54974822062517"><ele>374.33333333333337</ele><time>2026-04-27T13:38:27.157Z</time></trkpt><trkpt lat="39.50993126116177" lon="8.5499662068169"><ele>374.0</ele><time>2026-04-27T13:38:28.157Z</time></trkpt><trkpt lat="39.50996244314381" lon="8.550282393385846"><ele>373.5</ele><time>2026-04-27T13:38:29.157Z</time></trkpt><trkpt lat="39.509994879346145" lon="8.550638443111069"><ele>373.0</ele><time>2026-04-27T13:38:30.157Z</time></trkpt><trkpt lat="39.51003560257231" lon="8.55095817868323"><ele>373.0</ele><time>2026-04-27T13:38:31.158Z</time></trkpt><trkpt lat="39.510015266005425" lon="8.551204437943358"><ele>373.0</ele><time>2026-04-27T13:38:32.158Z</time></trkpt><trkpt lat="39.50991036084905" lon="8.551488719448653"><ele>373.0</ele><time>2026-04-27T13:38:33.158Z</time></trkpt><trkpt lat="39.50980649228309" lon="8.551808555228119"><ele>379.0</ele><time>2026-04-27T13:38:34.158Z</time></trkpt><trkpt lat="39.5097109922523" lon="8.552151019636884"><ele>385.0</ele><time>2026-04-27T13:38:35.158Z</time></trkpt><trkpt lat="39.50961565802053" lon="8.552483682041272"><ele>384.0</ele><time>2026-04-27T13:38:36.158Z</time></trkpt><trkpt lat="39.50952306599872" lon="8.552787411132293"><ele>383.0</ele><time>2026-04-27T13:38:37.158Z</time></trkpt><trkpt lat="39.509414852438226" lon="8.553076497892706"><ele>383.0</ele><time>2026-04-27T13:38:38.158Z</time></trkpt><trkpt lat="39.509279629357295" lon="8.553302858549339"><ele>383.0</ele><time>2026-04-27T13:38:39.158Z</time></trkpt><trkpt lat="39.50915355455196" lon="8.553485057658422"><ele>383.0</ele><time>2026-04-27T13:38:40.158Z</time></trkpt><trkpt lat="39.509078332178476" lon="8.553677895430177"><ele>384.0</ele><time>2026-04-27T13:38:41.158Z</time></trkpt><trkpt lat="39.509068650307185" lon="8.553928710851839"><ele>385.0</ele><time>2026-04-27T13:38:42.158Z</time></trkpt><trkpt lat="39.50908648367546" lon="8.554250092877016"><ele>386.0</ele><time>2026-04-27T13:38:43.158Z</time></trkpt><trkpt lat="39.50909821050373" lon="8.554590388623433"><ele>388.5</ele><time>2026-04-27T13:38:44.158Z</time></trkpt><trkpt lat="39.50911006916937" lon="8.554934510085909"><ele>391.0</ele><time>2026-04-27T13:38:45.158Z</time></trkpt><trkpt lat="39.50912234720745" lon="8.555290801394385"><ele>392.0</ele><time>2026-04-27T13:38:46.158Z</time></trkpt><trkpt lat="39.50913405979461" lon="8.555630684044141"><ele>393.0</ele><time>2026-04-27T13:38:47.158Z</time></trkpt><trkpt lat="39.50914475117937" lon="8.555915334745494"><ele>393.0</ele><time>2026-04-27T13:38:48.158Z</time></trkpt><trkpt lat="39.50915358686249" lon="8.556147912496112"><ele>393.0</ele><time>2026-04-27T13:38:49.158Z</time></trkpt><trkpt lat="39.50917395420723" lon="8.556351936411401"><ele>393.0</ele><time>2026-04-27T13:38:50.158Z</time></trkpt><trkpt lat="39.50921522148864" lon="8.556541369895116"><ele>393.33333333333337</ele><time>2026-04-27T13:38:51.158Z</time></trkpt><trkpt lat="39.50936640504558" lon="8.556698031106013"><ele>393.6666666666667</ele><time>2026-04-27T13:38:52.158Z</time></trkpt><trkpt lat="39.50951811433584" lon="8.556899547253995"><ele>394.0</ele><time>2026-04-27T13:38:53.158Z</time></trkpt><trkpt lat="39.50970216372868" lon="8.557126567875779"><ele>391.5</ele><time>2026-04-27T13:38:54.158Z</time></trkpt><trkpt lat="39.50989657902284" lon="8.557366374355427"><ele>389.0</ele><time>2026-04-27T13:38:55.158Z</time></trkpt><trkpt lat="39.5100952748109" lon="8.557610854561966"><ele>389.0</ele><time>2026-04-27T13:38:56.158Z</time></trkpt><trkpt lat="39.51028046721695" lon="8.557838502837871"><ele>389.0</ele><time>2026-04-27T13:38:57.158Z</time></trkpt><trkpt lat="39.51044774336429" lon="8.558042270965778"><ele>386.0</ele><time>2026-04-27T13:38:58.158Z</time></trkpt><trkpt lat="39.51061246000236" lon="8.558192892365712"><ele>383.0</ele><time>2026-04-27T13:38:59.158Z</time></trkpt><trkpt lat="39.51078659501979" lon="8.558321467957086"><ele>380.0</ele><time>2026-04-27T13:39:00.158Z</time></trkpt><trkpt lat="39.510987108398275" lon="8.558375211699921"><ele>380.0</ele><time>2026-04-27T13:39:01.158Z</time></trkpt><trkpt lat="39.51113864848217" lon="8.558444514058362"><ele>380.0</ele><time>2026-04-27T13:39:02.158Z</time></trkpt><trkpt lat="39.5112249661088" lon="8.558575884776992"><ele>380.0</ele><time>2026-04-27T13:39:03.158Z</time></trkpt><trkpt lat="39.511294921191904" lon="8.55880616369536"><ele>376.6666666666667</ele><time>2026-04-27T13:39:04.158Z</time></trkpt><trkpt lat="39.511392722590365" lon="8.559095274192094"><ele>373.3333333333333</ele><time>2026-04-27T13:39:05.158Z</time></trkpt><trkpt lat="39.51149325812391" lon="8.55931327569093"><ele>370.0</ele><time>2026-04-27T13:39:06.158Z</time></trkpt><trkpt lat="39.51160129668607" lon="8.559465424434173"><ele>366.3333333333333</ele><time>2026-04-27T13:39:07.158Z</time></trkpt><trkpt lat="39.51178255667375" lon="8.55956497209682"><ele>362.6666666666667</ele><time>2026-04-27T13:39:08.158Z</time></trkpt><trkpt lat="39.51198493286494" lon="8.559591227306502"><ele>359.0</ele><time>2026-04-27T13:39:09.158Z</time></trkpt><trkpt lat="39.51215196377929" lon="8.559568778990661"><ele>359.6666666666667</ele><time>2026-04-27T13:39:10.158Z</time></trkpt><trkpt lat="39.51231174101798" lon="8.55941236966813"><ele>360.3333333333333</ele><time>2026-04-27T13:39:11.158Z</time></trkpt><trkpt lat="39.51247910630713" lon="8.559182719874102"><ele>361.0</ele><time>2026-04-27T13:39:12.158Z</time></trkpt><trkpt lat="39.512625536012976" lon="8.558927414066346"><ele>360.0</ele><time>2026-04-27T13:39:13.158Z</time></trkpt><trkpt lat="39.51274073921536" lon="8.558694707000967"><ele>359.0</ele><time>2026-04-27T13:39:14.158Z</time></trkpt><trkpt lat="39.5128448504421" lon="8.5585359904396"><ele>358.0</ele><time>2026-04-27T13:39:15.158Z</time></trkpt><trkpt lat="39.512971475106525" lon="8.558477855749295"><ele>358.0</ele><time>2026-04-27T13:39:16.158Z</time></trkpt><trkpt lat="39.51313226212889" lon="8.558570578873017"><ele>358.0</ele><time>2026-04-27T13:39:17.158Z</time></trkpt><trkpt lat="39.51331594387636" lon="8.558579068008493"><ele>358.0</ele><time>2026-04-27T13:39:18.158Z</time></trkpt><trkpt lat="39.51349680610726" lon="8.558526793086129"><ele>358.0</ele><time>2026-04-27T13:39:19.158Z</time></trkpt><trkpt lat="39.51366079872602" lon="8.558399321922366"><ele>358.0</ele><time>2026-04-27T13:39:20.158Z</time></trkpt><trkpt lat="39.513826513672484" lon="8.558336003201182"><ele>358.0</ele><time>2026-04-27T13:39:21.158Z</time></trkpt><trkpt lat="39.51404474449975" lon="8.55836464196084"><ele>354.0</ele><time>2026-04-27T13:39:22.158Z</time></trkpt><trkpt lat="39.51426539095331" lon="8.55840447338416"><ele>350.0</ele><time>2026-04-27T13:39:23.158Z</time></trkpt><trkpt lat="39.514465568091666" lon="8.558382731661405"><ele>346.0</ele><time>2026-04-27T13:39:24.158Z</time></trkpt><trkpt lat="39.51465628192806" lon="8.55833307442158"><ele>345.3333333333333</ele><time>2026-04-27T13:39:25.158Z</time></trkpt><trkpt lat="39.514789097571104" lon="8.55823052755327"><ele>344.6666666666667</ele><time>2026-04-27T13:39:26.158Z</time></trkpt><trkpt lat="39.51487839583332" lon="8.558035209893276"><ele>344.0</ele><time>2026-04-27T13:39:27.158Z</time></trkpt><trkpt lat="39.51491547104287" lon="8.557779388512484"><ele>344.0</ele><time>2026-04-27T13:39:28.158Z</time></trkpt><trkpt lat="39.51493021312162" lon="8.557575354908618"><ele>344.0</ele><time>2026-04-27T13:39:29.158Z</time></trkpt><trkpt lat="39.51499838720984" lon="8.55746149740289"><ele>344.0</ele><time>2026-04-27T13:39:30.158Z</time></trkpt><trkpt lat="39.51512478836509" lon="8.557449372200686"><ele>344.0</ele><time>2026-04-27T13:39:31.158Z</time></trkpt><trkpt lat="39.51524101754054" lon="8.55758150317052"><ele>344.0</ele><time>2026-04-27T13:39:32.158Z</time></trkpt><trkpt lat="39.51537444237939" lon="8.557743773760993"><ele>344.0</ele><time>2026-04-27T13:39:33.158Z</time></trkpt><trkpt lat="39.5155362984377" lon="8.557923147164756"><ele>344.0</ele><time>2026-04-27T13:39:34.158Z</time></trkpt><trkpt lat="39.5156717772744" lon="8.558044044679885"><ele>338.33333333333337</ele><time>2026-04-27T13:39:35.158Z</time></trkpt><trkpt lat="39.51581045383029" lon="8.55809777043157"><ele>332.6666666666667</ele><time>2026-04-27T13:39:36.158Z</time></trkpt><trkpt lat="39.5159849755761" lon="8.558042337295724"><ele>327.0</ele><time>2026-04-27T13:39:37.158Z</time></trkpt><trkpt lat="39.5161849888129" lon="8.557940161969423"><ele>332.0</ele><time>2026-04-27T13:39:38.158Z</time></trkpt><trkpt lat="39.516434493507795" lon="8.55786144649921"><ele>337.0</ele><time>2026-04-27T13:39:39.158Z</time></trkpt><trkpt lat="39.516669493570944" lon="8.557834108650377"><ele>337.0</ele><time>2026-04-27T13:39:40.158Z</time></trkpt><trkpt lat="39.51686697192598" lon="8.557751664527826"><ele>337.0</ele><time>2026-04-27T13:39:41.158Z</time></trkpt><trkpt lat="39.51705534027297" lon="8.557639393446221"><ele>337.0</ele><time>2026-04-27T13:39:42.158Z</time></trkpt><trkpt lat="39.51723992760526" lon="8.557520057236527"><ele>332.0</ele><time>2026-04-27T13:39:43.158Z</time></trkpt><trkpt lat="39.51744117248269" lon="8.557484473643916"><ele>327.0</ele><time>2026-04-27T13:39:44.159Z</time></trkpt><trkpt lat="39.517632521349675" lon="8.55745080487587"><ele>322.0</ele><time>2026-04-27T13:39:45.159Z</time></trkpt><trkpt lat="39.51780196180702" lon="8.557448082111188"><ele>322.0</ele><time>2026-04-27T13:39:46.159Z</time></trkpt><trkpt lat="39.517923165177244" lon="8.55748925116386"><ele>322.0</ele><time>2026-04-27T13:39:47.159Z</time></trkpt><trkpt lat="39.51800778529797" lon="8.557618061607636"><ele>322.0</ele><time>2026-04-27T13:39:48.159Z</time></trkpt><trkpt lat="39.51804714145749" lon="8.557803559922142"><ele>322.0</ele><time>2026-04-27T13:39:49.159Z</time></trkpt><trkpt lat="39.51806726544885" lon="8.557961087829694"><ele>321.3333333333333</ele><time>2026-04-27T13:39:50.159Z</time></trkpt><trkpt lat="39.51801328355973" lon="8.558109405302938"><ele>320.6666666666667</ele><time>2026-04-27T13:39:51.159Z</time></trkpt><trkpt lat="39.51788943476088" lon="8.558212644038957"><ele>320.0</ele><time>2026-04-27T13:39:52.159Z</time></trkpt><trkpt lat="39.5177117110371" lon="8.558360757258693"><ele>320.0</ele><time>2026-04-27T13:39:53.159Z</time></trkpt><trkpt lat="39.51750812661507" lon="8.558493304660969"><ele>320.0</ele><time>2026-04-27T13:39:54.159Z</time></trkpt><trkpt lat="39.51729533281456" lon="8.558638989928047"><ele>318.6666666666667</ele><time>2026-04-27T13:39:55.159Z</time></trkpt><trkpt lat="39.517110343871444" lon="8.558786534351006"><ele>317.3333333333333</ele><time>2026-04-27T13:39:56.159Z</time></trkpt><trkpt lat="39.51694536411086" lon="8.558945302205663"><ele>316.0</ele><time>2026-04-27T13:39:57.159Z</time></trkpt><trkpt lat="39.51680790317066" lon="8.559111218019181"><ele>316.0</ele><time>2026-04-27T13:39:58.159Z</time></trkpt><trkpt lat="39.516679444860245" lon="8.559289372032499"><ele>316.0</ele><time>2026-04-27T13:39:59.16Z</time></trkpt><trkpt lat="39.51653870814505" lon="8.559462623893532"><ele>316.0</ele><time>2026-04-27T13:40:00.161Z</time></trkpt><trkpt lat="39.51639830311373" lon="8.559648357281853"><ele>314.0</ele><time>2026-04-27T13:40:01.161Z</time></trkpt><trkpt lat="39.51627489052994" lon="8.559867577385521"><ele>312.0</ele><time>2026-04-27T13:40:02.16Z</time></trkpt><trkpt lat="39.51614289302608" lon="8.560083562183081"><ele>310.0</ele><time>2026-04-27T13:40:03.16Z</time></trkpt><trkpt lat="39.51601599912579" lon="8.56030512204344"><ele>311.66666666666663</ele><time>2026-04-27T13:40:04.16Z</time></trkpt><trkpt lat="39.51589971392768" lon="8.560507952823755"><ele>313.3333333333333</ele><time>2026-04-27T13:40:05.161Z</time></trkpt><trkpt lat="39.515803570294" lon="8.560694941462767"><ele>315.0</ele><time>2026-04-27T13:40:06.16Z</time></trkpt><trkpt lat="39.51576369822703" lon="8.560907915396925"><ele>315.0</ele><time>2026-04-27T13:40:07.16Z</time></trkpt><trkpt lat="39.51580324142553" lon="8.56115110414567"><ele>315.0</ele><time>2026-04-27T13:40:08.16Z</time></trkpt><trkpt lat="39.515834719969334" lon="8.56141419243492"><ele>315.0</ele><time>2026-04-27T13:40:09.16Z</time></trkpt><trkpt lat="39.51593271047663" lon="8.561614119965016"><ele>315.0</ele><time>2026-04-27T13:40:10.16Z</time></trkpt><trkpt lat="39.516077692219575" lon="8.561778206078117"><ele>315.0</ele><time>2026-04-27T13:40:11.161Z</time></trkpt><trkpt lat="39.51623994414061" lon="8.561972606177504"><ele>315.0</ele><time>2026-04-27T13:40:12.161Z</time></trkpt><trkpt lat="39.51641316621098" lon="8.56218195713779"><ele>315.0</ele><time>2026-04-27T13:40:13.161Z</time></trkpt><trkpt lat="39.51655102661156" lon="8.562369663359078"><ele>315.0</ele><time>2026-04-27T13:40:14.161Z</time></trkpt><trkpt lat="39.51664686172739" lon="8.5625803874639"><ele>315.0</ele><time>2026-04-27T13:40:15.161Z</time></trkpt><trkpt lat="39.51670643614111" lon="8.562823836148716"><ele>313.3333333333333</ele><time>2026-04-27T13:40:16.161Z</time></trkpt><trkpt lat="39.516765754135655" lon="8.563083099803137"><ele>311.66666666666663</ele><time>2026-04-27T13:40:17.161Z</time></trkpt><trkpt lat="39.51683042731673" lon="8.563348011659102"><ele>310.0</ele><time>2026-04-27T13:40:18.161Z</time></trkpt><trkpt lat="39.516923005649936" lon="8.563597677078523"><ele>310.66666666666663</ele><time>2026-04-27T13:40:19.161Z</time></trkpt><trkpt lat="39.51700945263526" lon="8.563836496302182"><ele>311.3333333333333</ele><time>2026-04-27T13:40:20.161Z</time></trkpt><trkpt lat="39.51709225744851" lon="8.564044491901404"><ele>312.0</ele><time>2026-04-27T13:40:21.161Z</time></trkpt><trkpt lat="39.5171904688903" lon="8.564209719924502"><ele>312.0</ele><time>2026-04-27T13:40:22.161Z</time></trkpt><trkpt lat="39.5173390807184" lon="8.564316685277253"><ele>312.0</ele><time>2026-04-27T13:40:23.161Z</time></trkpt><trkpt lat="39.51752349425374" lon="8.564400967176345"><ele>312.0</ele><time>2026-04-27T13:40:24.161Z</time></trkpt><trkpt lat="39.51772034879649" lon="8.564486795176345"><ele>310.0</ele><time>2026-04-27T13:40:25.161Z</time></trkpt><trkpt lat="39.517922389694846" lon="8.56460574883881"><ele>308.0</ele><time>2026-04-27T13:40:26.161Z</time></trkpt><trkpt lat="39.518126656558415" lon="8.564684840563702"><ele>306.0</ele><time>2026-04-27T13:40:27.161Z</time></trkpt><trkpt lat="39.518303939265856" lon="8.564774142098958"><ele>306.0</ele><time>2026-04-27T13:40:28.161Z</time></trkpt><trkpt lat="39.51844705895251" lon="8.564851543148784"><ele>306.0</ele><time>2026-04-27T13:40:29.161Z</time></trkpt><trkpt lat="39.518522423425296" lon="8.564975719561636"><ele>306.0</ele><time>2026-04-27T13:40:30.161Z</time></trkpt><trkpt lat="39.51853434299128" lon="8.565108176663134"><ele>306.0</ele><time>2026-04-27T13:40:31.161Z</time></trkpt><trkpt lat="39.518487142874605" lon="8.56530102153377"><ele>305.0</ele><time>2026-04-27T13:40:32.161Z</time></trkpt><trkpt lat="39.518442559206534" lon="8.565541941109798"><ele>304.0</ele><time>2026-04-27T13:40:33.161Z</time></trkpt><trkpt lat="39.51843698344566" lon="8.565824685257468"><ele>303.0</ele><time>2026-04-27T13:40:34.161Z</time></trkpt><trkpt lat="39.51847622580409" lon="8.5661204755076"><ele>302.6666666666667</ele><time>2026-04-27T13:40:35.161Z</time></trkpt><trkpt lat="39.51851545871523" lon="8.566407234105851"><ele>302.33333333333337</ele><time>2026-04-27T13:40:36.161Z</time></trkpt><trkpt lat="39.5185418423444" lon="8.566658380552816"><ele>302.0</ele><time>2026-04-27T13:40:37.161Z</time></trkpt><trkpt lat="39.51852705503793" lon="8.566878158349592"><ele>302.8</ele><time>2026-04-27T13:40:38.161Z</time></trkpt><trkpt lat="39.51849858471325" lon="8.5670556954518"><ele>303.6</ele><time>2026-04-27T13:40:39.161Z</time></trkpt><trkpt lat="39.51846344036821" lon="8.567184069119694"><ele>304.40000000000003</ele><time>2026-04-27T13:40:40.161Z</time></trkpt><trkpt lat="39.51843128205679" lon="8.567282001918652"><ele>305.2</ele><time>2026-04-27T13:40:41.161Z</time></trkpt><trkpt lat="39.51839144024482" lon="8.56737796679626"><ele>306.0</ele><time>2026-04-27T13:40:42.161Z</time></trkpt><trkpt lat="39.51834173202145" lon="8.567477712963512"><ele>306.0</ele><time>2026-04-27T13:40:43.161Z</time></trkpt><trkpt lat="39.5182893626804" lon="8.567609725681692"><ele>306.0</ele><time>2026-04-27T13:40:44.161Z</time></trkpt><trkpt lat="39.51821651833284" lon="8.567744844148221"><ele>306.0</ele><time>2026-04-27T13:40:45.161Z</time></trkpt><trkpt lat="39.51814660404947" lon="8.567890519765301"><ele>306.0</ele><time>2026-04-27T13:40:46.161Z</time></trkpt><trkpt lat="39.51809612170958" lon="8.56801964726161"><ele>306.5</ele><time>2026-04-27T13:40:47.161Z</time></trkpt><trkpt lat="39.51805366060375" lon="8.568136045026465"><ele>307.0</ele><time>2026-04-27T13:40:48.161Z</time></trkpt><trkpt lat="39.518038890095475" lon="8.56821938825533"><ele>307.5</ele><time>2026-04-27T13:40:49.161Z</time></trkpt><trkpt lat="39.51802696522897" lon="8.568301756927255"><ele>308.0</ele><time>2026-04-27T13:40:50.161Z</time></trkpt><trkpt lat="39.51801200124778" lon="8.568421468241008"><ele>308.5</ele><time>2026-04-27T13:40:51.161Z</time></trkpt><trkpt lat="39.5179987795869" lon="8.56857986320126"><ele>309.0</ele><time>2026-04-27T13:40:52.161Z</time></trkpt><trkpt lat="39.51799685698701" lon="8.568771047250129"><ele>309.0</ele><time>2026-04-27T13:40:53.161Z</time></trkpt><trkpt lat="39.51801384576236" lon="8.56897244112244"><ele>309.0</ele><time>2026-04-27T13:40:54.161Z</time></trkpt><trkpt lat="39.51803617695239" lon="8.569176746772587"><ele>309.0</ele><time>2026-04-27T13:40:55.161Z</time></trkpt><trkpt lat="39.5180601390777" lon="8.569394919203816"><ele>309.6666666666667</ele><time>2026-04-27T13:40:56.161Z</time></trkpt><trkpt lat="39.518086170870035" lon="8.569628678222998"><ele>310.33333333333337</ele><time>2026-04-27T13:40:57.161Z</time></trkpt><trkpt lat="39.5181142410436" lon="8.569880741323937"><ele>311.0</ele><time>2026-04-27T13:40:58.161Z</time></trkpt><trkpt lat="39.5181410273486" lon="8.57012127565854"><ele>311.0</ele><time>2026-04-27T13:40:59.161Z</time></trkpt><trkpt lat="39.51816625672078" lon="8.570347829145371"><ele>311.0</ele><time>2026-04-27T13:41:00.161Z</time></trkpt><trkpt lat="39.51819043008484" lon="8.570564899944301"><ele>311.0</ele><time>2026-04-27T13:41:01.161Z</time></trkpt><trkpt lat="39.51821241629447" lon="8.570762329771654"><ele>311.0</ele><time>2026-04-27T13:41:02.161Z</time></trkpt><trkpt lat="39.51823703845462" lon="8.57092652325394"><ele>311.0</ele><time>2026-04-27T13:41:03.161Z</time></trkpt><trkpt lat="39.51827542716243" lon="8.571074922283646"><ele>311.0</ele><time>2026-04-27T13:41:04.161Z</time></trkpt><trkpt lat="39.518381160025854" lon="8.571183007862489"><ele>311.0</ele><time>2026-04-27T13:41:05.161Z</time></trkpt><trkpt lat="39.51852185877725" lon="8.571217691347268"><ele>310.25</ele><time>2026-04-27T13:41:06.161Z</time></trkpt><trkpt lat="39.518649440782426" lon="8.571257422483226"><ele>309.5</ele><time>2026-04-27T13:41:07.161Z</time></trkpt><trkpt lat="39.51873577125832" lon="8.571326832090183"><ele>308.75</ele><time>2026-04-27T13:41:08.161Z</time></trkpt><trkpt lat="39.518783523857415" lon="8.571439269470615"><ele>308.0</ele><time>2026-04-27T13:41:09.161Z</time></trkpt><trkpt lat="39.518778815847625" lon="8.571616568445087"><ele>308.0</ele><time>2026-04-27T13:41:10.161Z</time></trkpt><trkpt lat="39.518808216336346" lon="8.57178000250516"><ele>308.0</ele><time>2026-04-27T13:41:11.161Z</time></trkpt><trkpt lat="39.51884375582682" lon="8.571906089654536"><ele>308.0</ele><time>2026-04-27T13:41:12.162Z</time></trkpt><trkpt lat="39.518967213744205" lon="8.571956107025684"><ele>308.0</ele><time>2026-04-27T13:41:13.162Z</time></trkpt><trkpt lat="39.51911814991515" lon="8.571924732143096"><ele>308.0</ele><time>2026-04-27T13:41:14.162Z</time></trkpt><trkpt lat="39.519274105754434" lon="8.571923908454144"><ele>308.0</ele><time>2026-04-27T13:41:15.162Z</time></trkpt><trkpt lat="39.51942498733781" lon="8.57197731819837"><ele>308.0</ele><time>2026-04-27T13:41:16.162Z</time></trkpt><trkpt lat="39.5195916328643" lon="8.572029632748304"><ele>306.33333333333337</ele><time>2026-04-27T13:41:17.162Z</time></trkpt><trkpt lat="39.51978464554341" lon="8.572022919124871"><ele>304.6666666666667</ele><time>2026-04-27T13:41:18.162Z</time></trkpt><trkpt lat="39.51995975584926" lon="8.57200513927148"><ele>303.0</ele><time>2026-04-27T13:41:19.162Z</time></trkpt><trkpt lat="39.520127886809256" lon="8.571924517976765"><ele>303.0</ele><time>2026-04-27T13:41:20.162Z</time></trkpt><trkpt lat="39.52030336540534" lon="8.571822291200029"><ele>303.0</ele><time>2026-04-27T13:41:21.162Z</time></trkpt><trkpt lat="39.52044962199828" lon="8.57172960212955"><ele>303.0</ele><time>2026-04-27T13:41:22.162Z</time></trkpt><trkpt lat="39.52057525297232" lon="8.571661058103711"><ele>302.0</ele><time>2026-04-27T13:41:23.162Z</time></trkpt><trkpt lat="39.52068792602718" lon="8.571626406263128"><ele>301.0</ele><time>2026-04-27T13:41:24.162Z</time></trkpt><trkpt lat="39.520780596025034" lon="8.57169595498006"><ele>300.0</ele><time>2026-04-27T13:41:25.162Z</time></trkpt><trkpt lat="39.52082212138779" lon="8.571798854675325"><ele>299.0</ele><time>2026-04-27T13:41:26.162Z</time></trkpt><trkpt lat="39.520805279354654" lon="8.57188954199726"><ele>298.0</ele><time>2026-04-27T13:41:27.162Z</time></trkpt><trkpt lat="39.520746356492104" lon="8.571996479329501"><ele>298.0</ele><time>2026-04-27T13:41:28.162Z</time></trkpt><trkpt lat="39.52065670941939" lon="8.572148456288096"><ele>298.0</ele><time>2026-04-27T13:41:29.162Z</time></trkpt><trkpt lat="39.52054938446319" lon="8.57233076017148"><ele>298.0</ele><time>2026-04-27T13:41:30.162Z</time></trkpt><trkpt lat="39.520438827862044" lon="8.572517272228765"><ele>294.66666666666663</ele><time>2026-04-27T13:41:31.162Z</time></trkpt><trkpt lat="39.52031656256809" lon="8.57272392907949"><ele>291.3333333333333</ele><time>2026-04-27T13:41:32.162Z</time></trkpt><trkpt lat="39.52018677749917" lon="8.572945650524321"><ele>288.0</ele><time>2026-04-27T13:41:33.162Z</time></trkpt><trkpt lat="39.52007431243218" lon="8.573189106950544"><ele>288.0</ele><time>2026-04-27T13:41:34.162Z</time></trkpt><trkpt lat="39.52000157940988" lon="8.573442758965"><ele>288.0</ele><time>2026-04-27T13:41:35.162Z</time></trkpt><trkpt lat="39.51995976479342" lon="8.573699244619945"><ele>288.0</ele><time>2026-04-27T13:41:36.162Z</time></trkpt><trkpt lat="39.519988010049666" lon="8.573933669560276"><ele>290.25</ele><time>2026-04-27T13:41:37.162Z</time></trkpt><trkpt lat="39.519973059971136" lon="8.574117633132053"><ele>292.5</ele><time>2026-04-27T13:41:38.162Z</time></trkpt><trkpt lat="39.51988590284163" lon="8.574249843704415"><ele>294.75</ele><time>2026-04-27T13:41:39.162Z</time></trkpt><trkpt lat="39.51975600879815" lon="8.574376952807443"><ele>297.0</ele><time>2026-04-27T13:41:40.162Z</time></trkpt><trkpt lat="39.5196738870812" lon="8.574547309355088"><ele>298.6666666666667</ele><time>2026-04-27T13:41:41.162Z</time></trkpt><trkpt lat="39.519669506829196" lon="8.574761574504526"><ele>300.33333333333337</ele><time>2026-04-27T13:41:42.162Z</time></trkpt><trkpt lat="39.519737127496846" lon="8.575000339867975"><ele>302.0</ele><time>2026-04-27T13:41:43.162Z</time></trkpt><trkpt lat="39.519878161086574" lon="8.575256317820338"><ele>296.5</ele><time>2026-04-27T13:41:44.162Z</time></trkpt><trkpt lat="39.52006272462648" lon="8.57552339491779"><ele>291.0</ele><time>2026-04-27T13:41:45.162Z</time></trkpt><trkpt lat="39.52020793515073" lon="8.575777231915112"><ele>291.0</ele><time>2026-04-27T13:41:46.162Z</time></trkpt><trkpt lat="39.52032175163678" lon="8.575985014585509"><ele>291.0</ele><time>2026-04-27T13:41:47.162Z</time></trkpt><trkpt lat="39.52036530702819" lon="8.576183352909633"><ele>291.0</ele><time>2026-04-27T13:41:48.162Z</time></trkpt><trkpt lat="39.52033529335766" lon="8.576390824152291"><ele>290.0</ele><time>2026-04-27T13:41:49.162Z</time></trkpt><trkpt lat="39.52030263341263" lon="8.576652678060059"><ele>289.0</ele><time>2026-04-27T13:41:50.162Z</time></trkpt><trkpt lat="39.52026391800964" lon="8.576967103643447"><ele>292.0</ele><time>2026-04-27T13:41:51.162Z</time></trkpt><trkpt lat="39.52022419253909" lon="8.57729073823607"><ele>295.0</ele><time>2026-04-27T13:41:52.162Z</time></trkpt><trkpt lat="39.52017814626013" lon="8.577575699357949"><ele>295.0</ele><time>2026-04-27T13:41:53.162Z</time></trkpt><trkpt lat="39.5200896873807" lon="8.577772209022628"><ele>295.0</ele><time>2026-04-27T13:41:54.162Z</time></trkpt><trkpt lat="39.51996258705844" lon="8.577962819024746"><ele>295.0</ele><time>2026-04-27T13:41:55.162Z</time></trkpt><trkpt lat="39.519876840692056" lon="8.578143794667223"><ele>299.0</ele><time>2026-04-27T13:41:56.162Z</time></trkpt><trkpt lat="39.519860230589366" lon="8.578343336872226"><ele>303.0</ele><time>2026-04-27T13:41:57.162Z</time></trkpt><trkpt lat="39.51990046272515" lon="8.5785688231664"><ele>307.0</ele><time>2026-04-27T13:41:58.162Z</time></trkpt><trkpt lat="39.51999077458451" lon="8.578872581064957"><ele>307.0</ele><time>2026-04-27T13:41:59.162Z</time></trkpt><trkpt lat="39.52002773606407" lon="8.579188388253062"><ele>307.0</ele><time>2026-04-27T13:42:00.162Z</time></trkpt><trkpt lat="39.52009387767888" lon="8.579518671193645"><ele>307.3333333333333</ele><time>2026-04-27T13:42:01.162Z</time></trkpt><trkpt lat="39.52008214805296" lon="8.579799125806861"><ele>307.6666666666667</ele><time>2026-04-27T13:42:02.162Z</time></trkpt><trkpt lat="39.520083649819384" lon="8.580030246742737"><ele>308.0</ele><time>2026-04-27T13:42:03.162Z</time></trkpt><trkpt lat="39.52011496695103" lon="8.5802557037162"><ele>305.33333333333337</ele><time>2026-04-27T13:42:04.162Z</time></trkpt><trkpt lat="39.520190495422746" lon="8.580493189810875"><ele>302.6666666666667</ele><time>2026-04-27T13:42:05.163Z</time></trkpt><trkpt lat="39.52027494460782" lon="8.580766179659076"><ele>300.0</ele><time>2026-04-27T13:42:06.163Z</time></trkpt><trkpt lat="39.52032218592448" lon="8.581022571558815"><ele>297.0</ele><time>2026-04-27T13:42:07.163Z</time></trkpt><trkpt lat="39.520300469462896" lon="8.581264145278686"><ele>294.0</ele><time>2026-04-27T13:42:08.164Z</time></trkpt><trkpt lat="39.52026818373873" lon="8.581534135859775"><ele>291.0</ele><time>2026-04-27T13:42:09.163Z</time></trkpt><trkpt lat="39.520241572634525" lon="8.581767087393278"><ele>291.0</ele><time>2026-04-27T13:42:10.163Z</time></trkpt><trkpt lat="39.520269541229105" lon="8.581930965135447"><ele>291.0</ele><time>2026-04-27T13:42:11.164Z</time></trkpt><trkpt lat="39.52036327511783" lon="8.582090588945972"><ele>291.0</ele><time>2026-04-27T13:42:12.163Z</time></trkpt><trkpt lat="39.52051477702653" lon="8.582270680333044"><ele>288.5</ele><time>2026-04-27T13:42:13.163Z</time></trkpt><trkpt lat="39.520694163891406" lon="8.582470979094584"><ele>286.0</ele><time>2026-04-27T13:42:14.164Z</time></trkpt><trkpt lat="39.520871305166196" lon="8.582691383110587"><ele>282.5</ele><time>2026-04-27T13:42:15.164Z</time></trkpt><trkpt lat="39.52105260488537" lon="8.582922727491072"><ele>279.0</ele><time>2026-04-27T13:42:16.164Z</time></trkpt><trkpt lat="39.52123030938929" lon="8.583146420761304"><ele>278.0</ele><time>2026-04-27T13:42:17.164Z</time></trkpt><trkpt lat="39.52139621546052" lon="8.58334903900369"><ele>277.0</ele><time>2026-04-27T13:42:18.163Z</time></trkpt><trkpt lat="39.521551941969605" lon="8.583542266361574"><ele>276.0</ele><time>2026-04-27T13:42:19.163Z</time></trkpt><trkpt lat="39.52169737559672" lon="8.583726725931024"><ele>276.0</ele><time>2026-04-27T13:42:20.163Z</time></trkpt><trkpt lat="39.52184250925893" lon="8.583935249873386"><ele>276.0</ele><time>2026-04-27T13:42:21.163Z</time></trkpt><trkpt lat="39.521984055446744" lon="8.584117833803289"><ele>276.0</ele><time>2026-04-27T13:42:22.163Z</time></trkpt><trkpt lat="39.522106244457326" lon="8.584284260544523"><ele>276.5</ele><time>2026-04-27T13:42:23.163Z</time></trkpt><trkpt lat="39.52218645072599" lon="8.584449921810771"><ele>277.0</ele><time>2026-04-27T13:42:24.163Z</time></trkpt><trkpt lat="39.522186439301805" lon="8.584610626980275"><ele>277.5</ele><time>2026-04-27T13:42:25.163Z</time></trkpt><trkpt lat="39.52214170287399" lon="8.584798827264635"><ele>278.0</ele><time>2026-04-27T13:42:26.163Z</time></trkpt><trkpt lat="39.52207828274432" lon="8.584999321425547"><ele>276.25</ele><time>2026-04-27T13:42:27.163Z</time></trkpt><trkpt lat="39.52201949097411" lon="8.585180522904093"><ele>274.5</ele><time>2026-04-27T13:42:28.163Z</time></trkpt><trkpt lat="39.521962383519025" lon="8.585350171121185"><ele>272.75</ele><time>2026-04-27T13:42:29.163Z</time></trkpt><trkpt lat="39.52190708364709" lon="8.585510801861574"><ele>271.0</ele><time>2026-04-27T13:42:30.163Z</time></trkpt><trkpt lat="39.52185390105436" lon="8.585659817036092"><ele>269.25</ele><time>2026-04-27T13:42:31.163Z</time></trkpt><trkpt lat="39.52179986589711" lon="8.585803344695481"><ele>267.5</ele><time>2026-04-27T13:42:32.163Z</time></trkpt><trkpt lat="39.521763727815674" lon="8.585937372688118"><ele>265.75</ele><time>2026-04-27T13:42:33.163Z</time></trkpt><trkpt lat="39.52177434707488" lon="8.586104901195858"><ele>264.0</ele><time>2026-04-27T13:42:34.163Z</time></trkpt><trkpt lat="39.521879945351294" lon="8.586260096224077"><ele>262.3333333333333</ele><time>2026-04-27T13:42:35.163Z</time></trkpt><trkpt lat="39.522032053872074" lon="8.586394786757428"><ele>260.66666666666663</ele><time>2026-04-27T13:42:36.163Z</time></trkpt><trkpt lat="39.52218508395061" lon="8.586499211921463"><ele>259.0</ele><time>2026-04-27T13:42:37.163Z</time></trkpt><trkpt lat="39.52237057976787" lon="8.58651864536971"><ele>258.5</ele><time>2026-04-27T13:42:38.164Z</time></trkpt><trkpt lat="39.52253596195914" lon="8.586452735297321"><ele>258.0</ele><time>2026-04-27T13:42:39.164Z</time></trkpt><trkpt lat="39.52268676429074" lon="8.586381189941058"><ele>257.5</ele><time>2026-04-27T13:42:40.164Z</time></trkpt><trkpt lat="39.522791531420395" lon="8.586435916588215"><ele>257.0</ele><time>2026-04-27T13:42:41.164Z</time></trkpt><trkpt lat="39.52285024987026" lon="8.586526836261624"><ele>257.0</ele><time>2026-04-27T13:42:42.164Z</time></trkpt><trkpt lat="39.522882686348325" lon="8.586655978702701"><ele>257.0</ele><time>2026-04-27T13:42:43.164Z</time></trkpt><trkpt lat="39.52284495237214" lon="8.58685830588183"><ele>257.0</ele><time>2026-04-27T13:42:44.164Z</time></trkpt><trkpt lat="39.52282449179836" lon="8.587123207294297"><ele>256.0</ele><time>2026-04-27T13:42:45.164Z</time></trkpt><trkpt lat="39.52287252329251" lon="8.58740395162594"><ele>255.0</ele><time>2026-04-27T13:42:46.164Z</time></trkpt><trkpt lat="39.52294497777757" lon="8.587669872846018"><ele>254.0</ele><time>2026-04-27T13:42:47.164Z</time></trkpt><trkpt lat="39.523018706441796" lon="8.587889447569571"><ele>251.33333333333334</ele><time>2026-04-27T13:42:48.164Z</time></trkpt><trkpt lat="39.523139297305086" lon="8.588036371001474"><ele>248.66666666666669</ele><time>2026-04-27T13:42:49.164Z</time></trkpt><trkpt lat="39.523307080335826" lon="8.588131113180301"><ele>246.0</ele><time>2026-04-27T13:42:50.164Z</time></trkpt><trkpt lat="39.52353422273988" lon="8.588174253251694"><ele>243.66666666666669</ele><time>2026-04-27T13:42:51.164Z</time></trkpt><trkpt lat="39.52377299383935" lon="8.588202031910004"><ele>241.33333333333334</ele><time>2026-04-27T13:42:52.164Z</time></trkpt><trkpt lat="39.52394671686251" lon="8.588221789513488"><ele>239.0</ele><time>2026-04-27T13:42:53.164Z</time></trkpt><trkpt lat="39.52408901559808" lon="8.588190343195624"><ele>239.0</ele><time>2026-04-27T13:42:54.164Z</time></trkpt><trkpt lat="39.52422638219793" lon="8.588058189654406"><ele>239.0</ele><time>2026-04-27T13:42:55.164Z</time></trkpt><trkpt lat="39.52434277894818" lon="8.587920056680579"><ele>239.0</ele><time>2026-04-27T13:42:56.164Z</time></trkpt><trkpt lat="39.524457294043536" lon="8.587849563959601"><ele>242.0</ele><time>2026-04-27T13:42:57.164Z</time></trkpt><trkpt lat="39.52459272525073" lon="8.587880975078297"><ele>245.0</ele><time>2026-04-27T13:42:58.164Z</time></trkpt><trkpt lat="39.52468503103586" lon="8.588022530342734"><ele>248.0</ele><time>2026-04-27T13:42:59.164Z</time></trkpt><trkpt lat="39.524722173705094" lon="8.588181940619645"><ele>251.0</ele><time>2026-04-27T13:43:00.164Z</time></trkpt><trkpt lat="39.52469944608102" lon="8.588351304777477"><ele>251.0</ele><time>2026-04-27T13:43:01.164Z</time></trkpt><trkpt lat="39.52466042593441" lon="8.588565904626526"><ele>251.0</ele><time>2026-04-27T13:43:02.164Z</time></trkpt><trkpt lat="39.52462305997551" lon="8.588792023376872"><ele>251.0</ele><time>2026-04-27T13:43:03.164Z</time></trkpt><trkpt lat="39.52461233780389" lon="8.588987157948516"><ele>251.0</ele><time>2026-04-27T13:43:04.164Z</time></trkpt><trkpt lat="39.52465718113763" lon="8.589154555389014"><ele>251.0</ele><time>2026-04-27T13:43:05.164Z</time></trkpt><trkpt lat="39.52471431312645" lon="8.589288366339646"><ele>251.0</ele><time>2026-04-27T13:43:06.164Z</time></trkpt><trkpt lat="39.52479390870626" lon="8.58939408355898"><ele>251.0</ele><time>2026-04-27T13:43:07.164Z</time></trkpt><trkpt lat="39.524898900801155" lon="8.589475100327773"><ele>251.0</ele><time>2026-04-27T13:43:08.164Z</time></trkpt><trkpt lat="39.524996430487676" lon="8.589569098233655"><ele>251.0</ele><time>2026-04-27T13:43:09.164Z</time></trkpt><trkpt lat="39.525106399664196" lon="8.589644402080584"><ele>251.0</ele><time>2026-04-27T13:43:10.164Z</time></trkpt><trkpt lat="39.52517801440957" lon="8.58977402668187"><ele>251.0</ele><time>2026-04-27T13:43:11.164Z</time></trkpt><trkpt lat="39.525161946883046" lon="8.589916720347784"><ele>251.0</ele><time>2026-04-27T13:43:12.164Z</time></trkpt><trkpt lat="39.525134496197644" lon="8.590038682694757"><ele>251.00000000000003</ele><time>2026-04-27T13:43:13.164Z</time></trkpt><trkpt lat="39.525111694893" lon="8.59017794761414"><ele>251.00000000000003</ele><time>2026-04-27T13:43:14.164Z</time></trkpt><trkpt lat="39.52508786665191" lon="8.590324560378033"><ele>251.0</ele><time>2026-04-27T13:43:15.164Z</time></trkpt><trkpt lat="39.525064485556896" lon="8.590475292054373"><ele>251.0</ele><time>2026-04-27T13:43:16.164Z</time></trkpt><trkpt lat="39.5250434974614" lon="8.59062496073896"><ele>251.60000000000002</ele><time>2026-04-27T13:43:17.164Z</time></trkpt><trkpt lat="39.525038546571345" lon="8.590769940188245"><ele>252.20000000000002</ele><time>2026-04-27T13:43:18.164Z</time></trkpt><trkpt lat="39.52508601050768" lon="8.590908365679766"><ele>252.79999999999998</ele><time>2026-04-27T13:43:19.164Z</time></trkpt><trkpt lat="39.525164037404195" lon="8.591010492583612"><ele>253.39999999999998</ele><time>2026-04-27T13:43:20.164Z</time></trkpt><trkpt lat="39.52519253030356" lon="8.591117556828005"><ele>254.0</ele><time>2026-04-27T13:43:21.164Z</time></trkpt><trkpt lat="39.52529447336461" lon="8.591190789854402"><ele>254.79999999999998</ele><time>2026-04-27T13:43:22.164Z</time></trkpt><trkpt lat="39.52535979723392" lon="8.59128171450654"><ele>255.59999999999997</ele><time>2026-04-27T13:43:23.164Z</time></trkpt><trkpt lat="39.52542184286801" lon="8.591371252730662"><ele>256.4</ele><time>2026-04-27T13:43:24.164Z</time></trkpt><trkpt lat="39.52548309940188" lon="8.591460110990365"><ele>257.2</ele><time>2026-04-27T13:43:25.164Z</time></trkpt><trkpt lat="39.52552178627199" lon="8.591570689593857"><ele>258.0</ele><time>2026-04-27T13:43:26.164Z</time></trkpt><trkpt lat="39.52558652750528" lon="8.591657565497588"><ele>258.5</ele><time>2026-04-27T13:43:27.164Z</time></trkpt><trkpt lat="39.525650298348125" lon="8.591743740288555"><ele>259.0</ele><time>2026-04-27T13:43:28.164Z</time></trkpt><trkpt lat="39.52570706209741" lon="8.591830069574286"><ele>259.5</ele><time>2026-04-27T13:43:29.164Z</time></trkpt><trkpt lat="39.52576114057776" lon="8.591917039292388"><ele>260.0</ele><time>2026-04-27T13:43:30.164Z</time></trkpt><trkpt lat="39.52580518555122" lon="8.592010740376542"><ele>260.5</ele><time>2026-04-27T13:43:31.164Z</time></trkpt><trkpt lat="39.52584878488135" lon="8.592120084821016"><ele>261.0</ele><time>2026-04-27T13:43:32.164Z</time></trkpt><trkpt lat="39.525839827712524" lon="8.59224074556017"><ele>261.0</ele><time>2026-04-27T13:43:33.164Z</time></trkpt><trkpt lat="39.52579780568718" lon="8.59235464284562"><ele>261.0</ele><time>2026-04-27T13:43:34.164Z</time></trkpt><trkpt lat="39.525751273023914" lon="8.592487515626146"><ele>261.0</ele><time>2026-04-27T13:43:35.164Z</time></trkpt><trkpt lat="39.52570153643196" lon="8.59261844259948"><ele>261.0</ele><time>2026-04-27T13:43:36.164Z</time></trkpt><trkpt lat="39.52565029378309" lon="8.592750925422589"><ele>261.0</ele><time>2026-04-27T13:43:37.164Z</time></trkpt><trkpt lat="39.52559443926554" lon="8.592895164787082"><ele>259.25</ele><time>2026-04-27T13:43:38.164Z</time></trkpt><trkpt lat="39.525539926661594" lon="8.593038147242781"><ele>257.5</ele><time>2026-04-27T13:43:39.164Z</time></trkpt><trkpt lat="39.52548838648207" lon="8.593178537884551"><ele>255.75</ele><time>2026-04-27T13:43:40.164Z</time></trkpt><trkpt lat="39.52544124354903" lon="8.593325482680344"><ele>254.0</ele><time>2026-04-27T13:43:41.164Z</time></trkpt><trkpt lat="39.52540080760508" lon="8.593472792074488"><ele>253.79999999999998</ele><time>2026-04-27T13:43:42.164Z</time></trkpt><trkpt lat="39.525368657317344" lon="8.59362101426634"><ele>253.59999999999997</ele><time>2026-04-27T13:43:43.164Z</time></trkpt><trkpt lat="39.5253623104303" lon="8.593774690950182"><ele>253.4</ele><time>2026-04-27T13:43:44.164Z</time></trkpt><trkpt lat="39.52536148639492" lon="8.59392000886784"><ele>253.2</ele><time>2026-04-27T13:43:45.164Z</time></trkpt><trkpt lat="39.525340897211855" lon="8.594034292176667"><ele>253.0</ele><time>2026-04-27T13:43:46.164Z</time></trkpt><trkpt lat="39.52529000323798" lon="8.594113736817464"><ele>254.0</ele><time>2026-04-27T13:43:47.164Z</time></trkpt><trkpt lat="39.52518587833319" lon="8.594079737876216"><ele>255.0</ele><time>2026-04-27T13:43:48.164Z</time></trkpt><trkpt lat="39.52508010338767" lon="8.594076438324914"><ele>256.0</ele><time>2026-04-27T13:43:49.164Z</time></trkpt><trkpt lat="39.52497558509135" lon="8.594086508370694"><ele>257.0</ele><time>2026-04-27T13:43:50.164Z</time></trkpt><trkpt lat="39.52487080713526" lon="8.594068104284021"><ele>258.0</ele><time>2026-04-27T13:43:51.165Z</time></trkpt><trkpt lat="39.52476833757631" lon="8.594042464686904"><ele>258.0</ele><time>2026-04-27T13:43:52.165Z</time></trkpt><trkpt lat="39.52467358712603" lon="8.594044411001548"><ele>258.0</ele><time>2026-04-27T13:43:53.165Z</time></trkpt><trkpt lat="39.52457693581614" lon="8.59407482996347"><ele>258.0</ele><time>2026-04-27T13:43:54.165Z</time></trkpt><trkpt lat="39.5244822063615" lon="8.594099895672723"><ele>258.0</ele><time>2026-04-27T13:43:55.165Z</time></trkpt><trkpt lat="39.524387033973056" lon="8.594125128526654"><ele>258.0</ele><time>2026-04-27T13:43:56.165Z</time></trkpt><trkpt lat="39.5242940102829" lon="8.59417132848008"><ele>258.0</ele><time>2026-04-27T13:43:57.165Z</time></trkpt><trkpt lat="39.52419750720005" lon="8.594199232483673"><ele>258.0</ele><time>2026-04-27T13:43:58.165Z</time></trkpt><trkpt lat="39.52409899688081" lon="8.594247037852153"><ele>258.0</ele><time>2026-04-27T13:43:59.165Z</time></trkpt><trkpt lat="39.52400032341599" lon="8.594282885036515"><ele>258.0</ele><time>2026-04-27T13:44:00.165Z</time></trkpt><trkpt lat="39.52390884217045" lon="8.594321007933281"><ele>258.0</ele><time>2026-04-27T13:44:01.165Z</time></trkpt><trkpt lat="39.5238367217896" lon="8.594373522098778"><ele>258.0</ele><time>2026-04-27T13:44:02.165Z</time></trkpt><trkpt lat="39.52378336663506" lon="8.594436040431244"><ele>258.0</ele><time>2026-04-27T13:44:03.165Z</time></trkpt><trkpt lat="39.52373107855029" lon="8.594481563531087"><ele>258.0</ele><time>2026-04-27T13:44:04.165Z</time></trkpt><trkpt lat="39.5236706693134" lon="8.5945628252366"><ele>258.0</ele><time>2026-04-27T13:44:06.165Z</time></trkpt><trkpt lat="39.523614017631886" lon="8.594677625176578"><ele>258.0</ele><time>2026-04-27T13:44:08.165Z</time></trkpt><trkpt lat="39.52359941833559" lon="8.594759805668714"><ele>258.0</ele><time>2026-04-27T13:44:09.165Z</time></trkpt><trkpt lat="39.52356636539718" lon="8.59491029133165"><ele>259.4</ele><time>2026-04-27T13:44:11.166Z</time></trkpt><trkpt lat="39.523536057867894" lon="8.595037492712368"><ele>260.8</ele><time>2026-04-27T13:44:13.166Z</time></trkpt><trkpt lat="39.5235171650304" lon="8.595116747898551"><ele>262.2</ele><time>2026-04-27T13:49:43.173Z</time></trkpt><trkpt lat="39.52349014621001" lon="8.59523008936835"><ele>263.6</ele><time>2026-04-27T13:49:45.174Z</time></trkpt><trkpt lat="39.52345730880825" lon="8.595393945289976"><ele>265.0</ele><time>2026-04-27T13:49:47.174Z</time></trkpt><trkpt lat="39.52348622248244" lon="8.595515786886198"><ele>267.0</ele><time>2026-04-27T13:49:48.174Z</time></trkpt><trkpt lat="39.52346430980491" lon="8.595623678422504"><ele>269.0</ele><time>2026-04-27T13:49:49.174Z</time></trkpt><trkpt lat="39.52344090650931" lon="8.595739348598519"><ele>271.0</ele><time>2026-04-27T13:49:50.174Z</time></trkpt><trkpt lat="39.5234174825956" lon="8.59585512065159"><ele>273.0</ele><time>2026-04-27T13:49:51.174Z</time></trkpt><trkpt lat="39.52339333174022" lon="8.59597448433795"><ele>275.0</ele><time>2026-04-27T13:49:52.174Z</time></trkpt><trkpt lat="39.523369057838494" lon="8.59608643675066"><ele>275.0</ele><time>2026-04-27T13:49:53.174Z</time></trkpt><trkpt lat="39.52334609446392" lon="8.596194972227787"><ele>275.0</ele><time>2026-04-27T13:49:54.174Z</time></trkpt><trkpt lat="39.523322223393244" lon="8.596306383732804"><ele>275.0</ele><time>2026-04-27T13:49:55.174Z</time></trkpt><trkpt lat="39.52329773019041" lon="8.596415559348248"><ele>275.0</ele><time>2026-04-27T13:49:56.174Z</time></trkpt><trkpt lat="39.52327325246325" lon="8.59652265654109"><ele>275.0</ele><time>2026-04-27T13:49:57.174Z</time></trkpt><trkpt lat="39.52324938475315" lon="8.596627680183548"><ele>275.0</ele><time>2026-04-27T13:49:58.174Z</time></trkpt><trkpt lat="39.523233376729074" lon="8.596738621401109"><ele>275.0</ele><time>2026-04-27T13:49:59.174Z</time></trkpt><trkpt lat="39.523230365954994" lon="8.596832141518394"><ele>275.0</ele><time>2026-04-27T13:50:00.174Z</time></trkpt><trkpt lat="39.5232794645161" lon="8.596895597760811"><ele>275.0</ele><time>2026-04-27T13:50:01.174Z</time></trkpt><trkpt lat="39.52332864121528" lon="8.596948068367709"><ele>275.0</ele><time>2026-04-27T13:50:02.174Z</time></trkpt><trkpt lat="39.52339752349982" lon="8.596976713933469"><ele>275.0</ele><time>2026-04-27T13:50:03.174Z</time></trkpt><trkpt lat="39.52350218411054" lon="8.59702246665876"><ele>275.0</ele><time>2026-04-27T13:50:05.174Z</time></trkpt><trkpt lat="39.52359765368062" lon="8.5970722646447"><ele>274.6666666666667</ele><time>2026-04-27T13:50:07.174Z</time></trkpt><trkpt lat="39.523711312393814" lon="8.597112854978054"><ele>274.33333333333337</ele><time>2026-04-27T13:50:09.174Z</time></trkpt><trkpt lat="39.52377833090376" lon="8.597135653892765"><ele>274.0</ele><time>2026-04-27T13:50:10.174Z</time></trkpt><trkpt lat="39.52384774759309" lon="8.597161750865807"><ele>273.6666666666667</ele><time>2026-04-27T13:50:11.174Z</time></trkpt><trkpt lat="39.52392568335238" lon="8.597203495201295"><ele>273.3333333333333</ele><time>2026-04-27T13:50:12.174Z</time></trkpt><trkpt lat="39.524007123237766" lon="8.597245540654715"><ele>273.0</ele><time>2026-04-27T13:50:13.174Z</time></trkpt><trkpt lat="39.52409112568765" lon="8.597276583765119"><ele>274.6666666666667</ele><time>2026-04-27T13:50:14.174Z</time></trkpt><trkpt lat="39.524175976035" lon="8.597316494795047"><ele>276.3333333333333</ele><time>2026-04-27T13:50:15.174Z</time></trkpt><trkpt lat="39.524256530028296" lon="8.59735034246678"><ele>278.0</ele><time>2026-04-27T13:50:16.174Z</time></trkpt><trkpt lat="39.52433936083644" lon="8.597390538170277"><ele>279.66666666666663</ele><time>2026-04-27T13:50:17.174Z</time></trkpt><trkpt lat="39.5244090028719" lon="8.597434140374164"><ele>281.3333333333333</ele><time>2026-04-27T13:50:18.174Z</time></trkpt><trkpt lat="39.524474633649305" lon="8.597486657102499"><ele>283.0</ele><time>2026-04-27T13:50:19.174Z</time></trkpt><trkpt lat="39.52453722821448" lon="8.59754949759992"><ele>283.7142857142857</ele><time>2026-04-27T13:50:20.174Z</time></trkpt><trkpt lat="39.52459426074716" lon="8.597609067695949"><ele>284.42857142857144</ele><time>2026-04-27T13:50:21.174Z</time></trkpt><trkpt lat="39.52465261971241" lon="8.59766739312148"><ele>285.14285714285717</ele><time>2026-04-27T13:50:22.174Z</time></trkpt><trkpt lat="39.52470886763704" lon="8.59772458526298"><ele>285.8571428571429</ele><time>2026-04-27T13:50:23.174Z</time></trkpt><trkpt lat="39.52476471764667" lon="8.597780936829864"><ele>286.57142857142856</ele><time>2026-04-27T13:50:24.174Z</time></trkpt><trkpt lat="39.5248161682366" lon="8.59783118540757"><ele>287.28571428571433</ele><time>2026-04-27T13:50:25.174Z</time></trkpt><trkpt lat="39.52487418145265" lon="8.597887843331598"><ele>288.0</ele><time>2026-04-27T13:50:26.174Z</time></trkpt><trkpt lat="39.52493096317576" lon="8.597943298457315"><ele>288.1666666666667</ele><time>2026-04-27T13:50:27.175Z</time></trkpt><trkpt lat="39.52499213916932" lon="8.59800372007272"><ele>288.3333333333333</ele><time>2026-04-27T13:50:28.176Z</time></trkpt><trkpt lat="39.52506060448343" lon="8.59806168794294"><ele>288.5</ele><time>2026-04-27T13:50:29.176Z</time></trkpt><trkpt lat="39.525123863503765" lon="8.598125675766008"><ele>288.66666666666663</ele><time>2026-04-27T13:50:30.176Z</time></trkpt><trkpt lat="39.52518102557471" lon="8.59818983068962"><ele>288.8333333333333</ele><time>2026-04-27T13:50:31.176Z</time></trkpt><trkpt lat="39.52523490937325" lon="8.59824164006527"><ele>289.0</ele><time>2026-04-27T13:50:32.176Z</time></trkpt><trkpt lat="39.52528978443218" lon="8.598298691463729"><ele>289.0</ele><time>2026-04-27T13:50:33.176Z</time></trkpt><trkpt lat="39.52534546441651" lon="8.598361663704646"><ele>289.0</ele><time>2026-04-27T13:50:34.175Z</time></trkpt><trkpt lat="39.52540442888992" lon="8.598423508958849"><ele>289.0</ele><time>2026-04-27T13:50:35.176Z</time></trkpt><trkpt lat="39.52546445534483" lon="8.598471997771275"><ele>289.0</ele><time>2026-04-27T13:50:36.176Z</time></trkpt><trkpt lat="39.52553061870753" lon="8.598526847309374"><ele>289.0</ele><time>2026-04-27T13:50:37.176Z</time></trkpt><trkpt lat="39.525590640567046" lon="8.598596791448214"><ele>289.0</ele><time>2026-04-27T13:50:38.176Z</time></trkpt><trkpt lat="39.52565993202196" lon="8.59868391636526"><ele>290.3333333333333</ele><time>2026-04-27T13:50:39.176Z</time></trkpt><trkpt lat="39.52573183368861" lon="8.598739565402834"><ele>291.66666666666663</ele><time>2026-04-27T13:50:40.176Z</time></trkpt><trkpt lat="39.52580776032658" lon="8.598805956383043"><ele>293.0</ele><time>2026-04-27T13:50:41.176Z</time></trkpt><trkpt lat="39.52589025620641" lon="8.598855697173237"><ele>294.3333333333333</ele><time>2026-04-27T13:50:42.176Z</time></trkpt><trkpt lat="39.52596978937957" lon="8.59890386059815"><ele>295.6666666666667</ele><time>2026-04-27T13:50:43.176Z</time></trkpt><trkpt lat="39.52604665311294" lon="8.598940592934818"><ele>297.0</ele><time>2026-04-27T13:50:44.176Z</time></trkpt><trkpt lat="39.52612358832291" lon="8.59897161001876"><ele>297.0</ele><time>2026-04-27T13:50:45.176Z</time></trkpt><trkpt lat="39.52619413007657" lon="8.599004237383712"><ele>297.0</ele><time>2026-04-27T13:50:46.176Z</time></trkpt><trkpt lat="39.52625827205385" lon="8.599034518315287"><ele>297.0</ele><time>2026-04-27T13:50:47.176Z</time></trkpt><trkpt lat="39.52638112226669" lon="8.599083397906107"><ele>297.0</ele><time>2026-04-27T13:50:49.176Z</time></trkpt><trkpt lat="39.52644409653911" lon="8.599109306617528"><ele>297.0</ele><time>2026-04-27T13:50:50.176Z</time></trkpt><trkpt lat="39.52650536399395" lon="8.599134766082377"><ele>297.0</ele><time>2026-04-27T13:50:51.176Z</time></trkpt><trkpt lat="39.526564727968584" lon="8.599166650651862"><ele>297.57142857142856</ele><time>2026-04-27T13:50:52.176Z</time></trkpt><trkpt lat="39.52662759024124" lon="8.599205735112747"><ele>298.14285714285717</ele><time>2026-04-27T13:50:53.176Z</time></trkpt><trkpt lat="39.526685931047666" lon="8.599252570745355"><ele>298.7142857142857</ele><time>2026-04-27T13:50:54.176Z</time></trkpt><trkpt lat="39.52673951626984" lon="8.599301599422962"><ele>299.2857142857143</ele><time>2026-04-27T13:50:55.176Z</time></trkpt><trkpt lat="39.52678963143893" lon="8.599360188810406"><ele>299.8571428571429</ele><time>2026-04-27T13:50:56.176Z</time></trkpt><trkpt lat="39.526833761975425" lon="8.599420750541023"><ele>300.42857142857144</ele><time>2026-04-27T13:50:57.176Z</time></trkpt><trkpt lat="39.52685954525709" lon="8.59951089322489"><ele>301.0</ele><time>2026-04-27T13:50:58.176Z</time></trkpt><trkpt lat="39.52688273563946" lon="8.59961982565474"><ele>301.8333333333333</ele><time>2026-04-27T13:50:59.176Z</time></trkpt><trkpt lat="39.52690820902941" lon="8.599730470759319"><ele>302.66666666666663</ele><time>2026-04-27T13:51:00.176Z</time></trkpt><trkpt lat="39.526920423408654" lon="8.599848957522418"><ele>303.5</ele><time>2026-04-27T13:51:01.176Z</time></trkpt><trkpt lat="39.52692878356373" lon="8.599962846572213"><ele>304.3333333333333</ele><time>2026-04-27T13:51:02.176Z</time></trkpt><trkpt lat="39.52693698217117" lon="8.600073739586122"><ele>305.1666666666667</ele><time>2026-04-27T13:51:03.176Z</time></trkpt><trkpt lat="39.52694260667648" lon="8.600170896516934"><ele>306.0</ele><time>2026-04-27T13:51:04.176Z</time></trkpt><trkpt lat="39.526953148233574" lon="8.600310150478068"><ele>306.5</ele><time>2026-04-27T13:51:06.176Z</time></trkpt><trkpt lat="39.52700600605169" lon="8.60037470092817"><ele>307.0</ele><time>2026-04-27T13:51:07.176Z</time></trkpt><trkpt lat="39.527114230963534" lon="8.60044544588894"><ele>307.5</ele><time>2026-04-27T13:51:09.176Z</time></trkpt><trkpt lat="39.52718200710062" lon="8.60047768820615"><ele>308.0</ele><time>2026-04-27T13:51:10.176Z</time></trkpt><trkpt lat="39.527244951439336" lon="8.600501497827404"><ele>308.5</ele><time>2026-04-27T13:51:11.176Z</time></trkpt><trkpt lat="39.52730672282959" lon="8.600521544175757"><ele>309.0</ele><time>2026-04-27T13:51:12.176Z</time></trkpt><trkpt lat="39.52736231349539" lon="8.600575602530503"><ele>309.8</ele><time>2026-04-27T13:51:13.176Z</time></trkpt><trkpt lat="39.52743407095791" lon="8.600645563434801"><ele>310.59999999999997</ele><time>2026-04-27T13:51:14.176Z</time></trkpt><trkpt lat="39.5275059621513" lon="8.60073727108338"><ele>311.4</ele><time>2026-04-27T13:51:15.176Z</time></trkpt><trkpt lat="39.52756615598063" lon="8.600852295603564"><ele>312.2</ele><time>2026-04-27T13:51:16.176Z</time></trkpt><trkpt lat="39.52762453745384" lon="8.600981399821825"><ele>313.0</ele><time>2026-04-27T13:51:17.176Z</time></trkpt><trkpt lat="39.52769908718926" lon="8.601104508631996"><ele>313.6</ele><time>2026-04-27T13:51:18.176Z</time></trkpt><trkpt lat="39.527771137087086" lon="8.601220388729658"><ele>314.20000000000005</ele><time>2026-04-27T13:51:19.176Z</time></trkpt><trkpt lat="39.5278501277913" lon="8.601329033992851"><ele>314.8</ele><time>2026-04-27T13:51:20.176Z</time></trkpt><trkpt lat="39.52791523679583" lon="8.601439135014557"><ele>315.40000000000003</ele><time>2026-04-27T13:51:21.176Z</time></trkpt><trkpt lat="39.52797795710843" lon="8.601550227173512"><ele>316.0</ele><time>2026-04-27T13:51:22.176Z</time></trkpt><trkpt lat="39.52801308048607" lon="8.601686778878598"><ele>317.20000000000005</ele><time>2026-04-27T13:51:23.176Z</time></trkpt><trkpt lat="39.52802336976449" lon="8.601829294575735"><ele>318.40000000000003</ele><time>2026-04-27T13:51:24.176Z</time></trkpt><trkpt lat="39.52801773255103" lon="8.601953134264068"><ele>319.6</ele><time>2026-04-27T13:51:25.176Z</time></trkpt><trkpt lat="39.52804181530791" lon="8.602070134443697"><ele>320.8</ele><time>2026-04-27T13:51:26.176Z</time></trkpt><trkpt lat="39.52805393027787" lon="8.60218365817987"><ele>322.0</ele><time>2026-04-27T13:51:27.176Z</time></trkpt><trkpt lat="39.528086578871736" lon="8.602284811637345"><ele>322.0</ele><time>2026-04-27T13:51:28.176Z</time></trkpt><trkpt lat="39.52812755125917" lon="8.602373241077357"><ele>322.0</ele><time>2026-04-27T13:51:29.176Z</time></trkpt><trkpt lat="39.52821562368267" lon="8.602465109902194"><ele>322.0</ele><time>2026-04-27T13:51:30.176Z</time></trkpt><trkpt lat="39.5282840946234" lon="8.602557390430466"><ele>322.0</ele><time>2026-04-27T13:51:31.176Z</time></trkpt><trkpt lat="39.5283364382624" lon="8.602673217325204"><ele>322.0</ele><time>2026-04-27T13:51:32.176Z</time></trkpt><trkpt lat="39.52836105240041" lon="8.602791282507967"><ele>322.8</ele><time>2026-04-27T13:51:33.176Z</time></trkpt><trkpt lat="39.52837860664449" lon="8.60291491327499"><ele>323.6</ele><time>2026-04-27T13:51:34.176Z</time></trkpt><trkpt lat="39.5283853664448" lon="8.603033143816495"><ele>324.40000000000003</ele><time>2026-04-27T13:51:35.176Z</time></trkpt><trkpt lat="39.52839004439495" lon="8.603147537996652"><ele>325.20000000000005</ele><time>2026-04-27T13:51:36.176Z</time></trkpt><trkpt lat="39.52838634665258" lon="8.603262429641928"><ele>326.0</ele><time>2026-04-27T13:51:37.176Z</time></trkpt><trkpt lat="39.528385049106184" lon="8.6033803792487"><ele>326.0</ele><time>2026-04-27T13:51:38.177Z</time></trkpt><trkpt lat="39.52838618450361" lon="8.603505254787235"><ele>326.0</ele><time>2026-04-27T13:51:39.177Z</time></trkpt><trkpt lat="39.52838184147157" lon="8.60362938087922"><ele>326.0</ele><time>2026-04-27T13:51:40.177Z</time></trkpt><trkpt lat="39.52838552934396" lon="8.603751109680463"><ele>326.0</ele><time>2026-04-27T13:51:41.177Z</time></trkpt><trkpt lat="39.52838706223145" lon="8.603875795527374"><ele>326.0</ele><time>2026-04-27T13:51:42.177Z</time></trkpt><trkpt lat="39.52839354933717" lon="8.603992141339788"><ele>327.0</ele><time>2026-04-27T13:51:43.177Z</time></trkpt><trkpt lat="39.528388388566405" lon="8.604102803398252"><ele>328.0</ele><time>2026-04-27T13:51:44.177Z</time></trkpt><trkpt lat="39.52836545555911" lon="8.604206631802866"><ele>329.0</ele><time>2026-04-27T13:51:45.177Z</time></trkpt><trkpt lat="39.52832589771929" lon="8.604292960506688"><ele>330.0</ele><time>2026-04-27T13:51:46.177Z</time></trkpt><trkpt lat="39.52824144374714" lon="8.604346066749885"><ele>331.0</ele><time>2026-04-27T13:51:47.177Z</time></trkpt><trkpt lat="39.52816788644358" lon="8.60440027479195"><ele>332.0</ele><time>2026-04-27T13:51:48.177Z</time></trkpt><trkpt lat="39.52808429621772" lon="8.604440958998461"><ele>332.1666666666667</ele><time>2026-04-27T13:51:49.177Z</time></trkpt><trkpt lat="39.528004121078666" lon="8.604517555533068"><ele>332.33333333333337</ele><time>2026-04-27T13:51:50.177Z</time></trkpt><trkpt lat="39.52792901059415" lon="8.604603293508571"><ele>332.5</ele><time>2026-04-27T13:51:51.177Z</time></trkpt><trkpt lat="39.52786169336496" lon="8.604682826835031"><ele>332.6666666666667</ele><time>2026-04-27T13:51:52.177Z</time></trkpt><trkpt lat="39.52780414018158" lon="8.604752693923063"><ele>332.8333333333333</ele><time>2026-04-27T13:51:53.177Z</time></trkpt><trkpt lat="39.52775440649435" lon="8.60481358475938"><ele>333.0</ele><time>2026-04-27T13:51:54.177Z</time></trkpt><trkpt lat="39.52770793748466" lon="8.604871801948715"><ele>333.0</ele><time>2026-04-27T13:51:55.177Z</time></trkpt><trkpt lat="39.52765999296075" lon="8.60494388063418"><ele>333.0</ele><time>2026-04-27T13:51:56.177Z</time></trkpt><trkpt lat="39.527618790702746" lon="8.605018083444985"><ele>333.0</ele><time>2026-04-27T13:51:57.177Z</time></trkpt><trkpt lat="39.5275782081873" lon="8.605095880929671"><ele>333.0</ele><time>2026-04-27T13:51:58.177Z</time></trkpt><trkpt lat="39.52754569318979" lon="8.605197722206722"><ele>333.0</ele><time>2026-04-27T13:51:59.177Z</time></trkpt><trkpt lat="39.527528324117824" lon="8.605315298561491"><ele>333.0</ele><time>2026-04-27T13:52:00.177Z</time></trkpt><trkpt lat="39.5275287418031" lon="8.605440564505637"><ele>334.0</ele><time>2026-04-27T13:52:01.177Z</time></trkpt><trkpt lat="39.52754170046561" lon="8.60556633578488"><ele>335.0</ele><time>2026-04-27T13:52:02.177Z</time></trkpt><trkpt lat="39.52756244083703" lon="8.60570096771331"><ele>336.0</ele><time>2026-04-27T13:52:03.177Z</time></trkpt><trkpt lat="39.527587731916334" lon="8.60583740109037"><ele>337.0</ele><time>2026-04-27T13:52:04.177Z</time></trkpt><trkpt lat="39.52761249152943" lon="8.60597113992557"><ele>338.0</ele><time>2026-04-27T13:52:05.177Z</time></trkpt><trkpt lat="39.52763577453033" lon="8.606096902796752"><ele>338.6666666666667</ele><time>2026-04-27T13:52:06.177Z</time></trkpt><trkpt lat="39.52766079742109" lon="8.606213941403356"><ele>339.33333333333337</ele><time>2026-04-27T13:52:07.177Z</time></trkpt><trkpt lat="39.52769362536981" lon="8.606318784832425"><ele>340.0</ele><time>2026-04-27T13:52:08.177Z</time></trkpt><trkpt lat="39.52773177877093" lon="8.606410881074485"><ele>340.6666666666667</ele><time>2026-04-27T13:52:09.177Z</time></trkpt><trkpt lat="39.527767961227546" lon="8.606491733342683"><ele>341.3333333333333</ele><time>2026-04-27T13:52:10.177Z</time></trkpt><trkpt lat="39.527819665493354" lon="8.606615731059497"><ele>342.0</ele><time>2026-04-27T13:52:12.177Z</time></trkpt><trkpt lat="39.52782362234322" lon="8.606707269121447"><ele>341.99999999999994</ele><time>2026-04-27T13:52:14.177Z</time></trkpt><trkpt lat="39.52786675298142" lon="8.606786636817803"><ele>342.0</ele><time>2026-04-27T13:52:17.177Z</time></trkpt><trkpt lat="39.527899149626776" lon="8.606862574679823"><ele>342.0</ele><time>2026-04-27T13:52:19.177Z</time></trkpt><trkpt lat="39.52792949151748" lon="8.606946689089522"><ele>342.0</ele><time>2026-04-27T13:52:21.177Z</time></trkpt><trkpt lat="39.5279865461587" lon="8.606992089040979"><ele>342.0</ele><time>2026-04-27T13:52:23.177Z</time></trkpt><trkpt lat="39.528038269212765" lon="8.607058672978944"><ele>341.99999999999994</ele><time>2026-04-27T13:52:27.177Z</time></trkpt><trkpt lat="39.52808165962958" lon="8.60713670273913"><ele>342.0</ele><time>2026-04-27T13:52:29.177Z</time></trkpt><trkpt lat="39.528144405861546" lon="8.60724672958571"><ele>343.1666666666667</ele><time>2026-04-27T13:52:31.177Z</time></trkpt><trkpt lat="39.528182960218686" lon="8.607317885877615"><ele>344.3333333333333</ele><time>2026-04-27T13:52:32.177Z</time></trkpt><trkpt lat="39.52822752192842" lon="8.6073995508695"><ele>345.5</ele><time>2026-04-27T13:52:33.178Z</time></trkpt><trkpt lat="39.528257330634226" lon="8.60750099916531"><ele>346.66666666666663</ele><time>2026-04-27T13:52:34.177Z</time></trkpt><trkpt lat="39.528309848199754" lon="8.607603957559073"><ele>347.8333333333333</ele><time>2026-04-27T13:52:35.177Z</time></trkpt><trkpt lat="39.52835976996477" lon="8.60770372962118"><ele>349.0</ele><time>2026-04-27T13:52:36.178Z</time></trkpt><trkpt lat="39.52840936466558" lon="8.607800149229613"><ele>349.2</ele><time>2026-04-27T13:52:37.178Z</time></trkpt><trkpt lat="39.5284774707031" lon="8.607889772855872"><ele>349.4</ele><time>2026-04-27T13:52:38.178Z</time></trkpt><trkpt lat="39.5285252961072" lon="8.608003582720851"><ele>349.6</ele><time>2026-04-27T13:52:39.179Z</time></trkpt><trkpt lat="39.52859676793656" lon="8.608102606597267"><ele>349.8</ele><time>2026-04-27T13:52:40.178Z</time></trkpt><trkpt lat="39.52868069472513" lon="8.608182509410504"><ele>350.0</ele><time>2026-04-27T13:52:41.178Z</time></trkpt><trkpt lat="39.5287587579787" lon="8.608277809768204"><ele>352.0</ele><time>2026-04-27T13:52:42.178Z</time></trkpt><trkpt lat="39.52884344335793" lon="8.60836083322214"><ele>354.0</ele><time>2026-04-27T13:52:43.178Z</time></trkpt><trkpt lat="39.52891750618108" lon="8.608473188084613"><ele>356.0</ele><time>2026-04-27T13:52:44.178Z</time></trkpt><trkpt lat="39.52900617974599" lon="8.608572790072595"><ele>358.0</ele><time>2026-04-27T13:52:45.179Z</time></trkpt><trkpt lat="39.5291043851941" lon="8.608653657414346"><ele>357.25</ele><time>2026-04-27T13:52:46.178Z</time></trkpt><trkpt lat="39.52918046817933" lon="8.608771063458859"><ele>356.5</ele><time>2026-04-27T13:52:47.178Z</time></trkpt><trkpt lat="39.52926475437601" lon="8.60887902187176"><ele>355.75</ele><time>2026-04-27T13:52:48.178Z</time></trkpt><trkpt lat="39.529354293634164" lon="8.60898712086588"><ele>355.0</ele><time>2026-04-27T13:52:49.178Z</time></trkpt><trkpt lat="39.52945216920283" lon="8.60908512370537"><ele>355.0</ele><time>2026-04-27T13:52:50.178Z</time></trkpt><trkpt lat="39.529550501963286" lon="8.609186127582259"><ele>355.0</ele><time>2026-04-27T13:52:51.178Z</time></trkpt><trkpt lat="39.52965075764983" lon="8.609290326879366"><ele>355.0</ele><time>2026-04-27T13:52:52.178Z</time></trkpt><trkpt lat="39.52975175356449" lon="8.609392688699147"><ele>355.0</ele><time>2026-04-27T13:52:53.178Z</time></trkpt><trkpt lat="39.52985599461855" lon="8.609497982886152"><ele>356.75</ele><time>2026-04-27T13:52:54.178Z</time></trkpt><trkpt lat="39.52995917851344" lon="8.609606438911676"><ele>358.5</ele><time>2026-04-27T13:52:55.178Z</time></trkpt><trkpt lat="39.53006395606488" lon="8.609720448624742"><ele>360.25</ele><time>2026-04-27T13:52:56.178Z</time></trkpt><trkpt lat="39.53017007992313" lon="8.609837887986474"><ele>362.0</ele><time>2026-04-27T13:52:57.178Z</time></trkpt><trkpt lat="39.53028064346478" lon="8.609959237829502"><ele>365.33333333333337</ele><time>2026-04-27T13:52:58.178Z</time></trkpt><trkpt lat="39.53040084877046" lon="8.61008000021936"><ele>368.6666666666667</ele><time>2026-04-27T13:52:59.178Z</time></trkpt><trkpt lat="39.53051819671487" lon="8.610211585687473"><ele>372.0</ele><time>2026-04-27T13:53:00.178Z</time></trkpt><trkpt lat="39.530640978500145" lon="8.61034347712074"><ele>372.0</ele><time>2026-04-27T13:53:01.178Z</time></trkpt><trkpt lat="39.53075926280326" lon="8.610470793278727"><ele>372.0</ele><time>2026-04-27T13:53:02.178Z</time></trkpt><trkpt lat="39.530873911485855" lon="8.610595920672376"><ele>372.0</ele><time>2026-04-27T13:53:03.178Z</time></trkpt><trkpt lat="39.53097461684425" lon="8.610734057695147"><ele>372.0</ele><time>2026-04-27T13:53:04.178Z</time></trkpt><trkpt lat="39.53105149461794" lon="8.61089520040123"><ele>372.0</ele><time>2026-04-27T13:53:05.178Z</time></trkpt><trkpt lat="39.531108057952785" lon="8.611060666074152"><ele>372.0</ele><time>2026-04-27T13:53:06.178Z</time></trkpt><trkpt lat="39.53115398172187" lon="8.611226020760423"><ele>372.0</ele><time>2026-04-27T13:53:07.178Z</time></trkpt><trkpt lat="39.531210342247896" lon="8.611383202710151"><ele>373.5</ele><time>2026-04-27T13:53:08.178Z</time></trkpt><trkpt lat="39.53129223705024" lon="8.611502072367191"><ele>375.0</ele><time>2026-04-27T13:53:09.178Z</time></trkpt><trkpt lat="39.531407749946325" lon="8.611573119873595"><ele>376.5</ele><time>2026-04-27T13:53:10.178Z</time></trkpt><trkpt lat="39.53153747956933" lon="8.61160963702718"><ele>378.0</ele><time>2026-04-27T13:53:11.179Z</time></trkpt><trkpt lat="39.53166253158684" lon="8.611657014584576"><ele>378.0</ele><time>2026-04-27T13:53:12.179Z</time></trkpt><trkpt lat="39.53179916178469" lon="8.611708273390237"><ele>378.0</ele><time>2026-04-27T13:53:13.179Z</time></trkpt><trkpt lat="39.53194736579432" lon="8.611747306924508"><ele>378.0</ele><time>2026-04-27T13:53:14.179Z</time></trkpt><trkpt lat="39.53208443044176" lon="8.6117573563079"><ele>378.0</ele><time>2026-04-27T13:53:15.179Z</time></trkpt><trkpt lat="39.53221532432004" lon="8.611705274295053"><ele>374.3333333333333</ele><time>2026-04-27T13:53:16.179Z</time></trkpt><trkpt lat="39.53232345764326" lon="8.611562723843079"><ele>370.66666666666663</ele><time>2026-04-27T13:53:17.179Z</time></trkpt><trkpt lat="39.532425800475444" lon="8.611419460115899"><ele>367.0</ele><time>2026-04-27T13:53:18.179Z</time></trkpt><trkpt lat="39.53252513469565" lon="8.61126325552847"><ele>371.66666666666663</ele><time>2026-04-27T13:53:19.179Z</time></trkpt><trkpt lat="39.532620104924575" lon="8.611120927528715"><ele>376.3333333333333</ele><time>2026-04-27T13:53:20.179Z</time></trkpt><trkpt lat="39.53274094939816" lon="8.610998367785516"><ele>381.0</ele><time>2026-04-27T13:53:21.179Z</time></trkpt><trkpt lat="39.53287457754373" lon="8.610901332608274"><ele>376.0</ele><time>2026-04-27T13:53:22.179Z</time></trkpt><trkpt lat="39.533036128311245" lon="8.610855180464362"><ele>371.0</ele><time>2026-04-27T13:53:23.179Z</time></trkpt><trkpt lat="39.533182978263" lon="8.610835190559321"><ele>366.0</ele><time>2026-04-27T13:53:24.179Z</time></trkpt><trkpt lat="39.53331927698508" lon="8.610790814046103"><ele>366.0</ele><time>2026-04-27T13:53:25.179Z</time></trkpt><trkpt lat="39.53345142448182" lon="8.610687591960017"><ele>366.0</ele><time>2026-04-27T13:53:26.179Z</time></trkpt><trkpt lat="39.533543099234706" lon="8.610531481893842"><ele>366.0</ele><time>2026-04-27T13:53:27.179Z</time></trkpt><trkpt lat="39.533635557496915" lon="8.610355198804625"><ele>360.6666666666667</ele><time>2026-04-27T13:53:28.179Z</time></trkpt><trkpt lat="39.53374505357568" lon="8.610188391130954"><ele>355.33333333333337</ele><time>2026-04-27T13:53:29.179Z</time></trkpt><trkpt lat="39.53386693043618" lon="8.61002759982257"><ele>350.0</ele><time>2026-04-27T13:53:30.179Z</time></trkpt><trkpt lat="39.53399299202512" lon="8.60986320998792"><ele>350.0</ele><time>2026-04-27T13:53:31.179Z</time></trkpt><trkpt lat="39.53412247801192" lon="8.609704121270095"><ele>350.0</ele><time>2026-04-27T13:53:32.179Z</time></trkpt><trkpt lat="39.534249863365325" lon="8.60954774556053"><ele>350.0</ele><time>2026-04-27T13:53:33.179Z</time></trkpt><trkpt lat="39.53436257374301" lon="8.609403641768735"><ele>351.0</ele><time>2026-04-27T13:53:34.179Z</time></trkpt><trkpt lat="39.53447691216732" lon="8.609300877123"><ele>352.0</ele><time>2026-04-27T13:53:35.179Z</time></trkpt><trkpt lat="39.53461054049016" lon="8.609253249036438"><ele>353.0</ele><time>2026-04-27T13:53:36.179Z</time></trkpt><trkpt lat="39.534762289559026" lon="8.609265532778057"><ele>354.0</ele><time>2026-04-27T13:53:37.179Z</time></trkpt><trkpt lat="39.53492217352056" lon="8.6092983384329"><ele>354.0</ele><time>2026-04-27T13:53:38.179Z</time></trkpt><trkpt lat="39.5350864975042" lon="8.609293546884645"><ele>354.0</ele><time>2026-04-27T13:53:39.179Z</time></trkpt><trkpt lat="39.535247659328626" lon="8.609260363537382"><ele>354.0</ele><time>2026-04-27T13:53:40.179Z</time></trkpt><trkpt lat="39.53539459968457" lon="8.609197159784138"><ele>347.6666666666667</ele><time>2026-04-27T13:53:41.179Z</time></trkpt><trkpt lat="39.53554692517339" lon="8.609119988916081"><ele>341.33333333333337</ele><time>2026-04-27T13:53:42.179Z</time></trkpt><trkpt lat="39.53568149595217" lon="8.608997769170182"><ele>335.0</ele><time>2026-04-27T13:53:43.179Z</time></trkpt><trkpt lat="39.53579316521939" lon="8.608852794191831"><ele>335.0</ele><time>2026-04-27T13:53:44.179Z</time></trkpt><trkpt lat="39.53591318385972" lon="8.608713406908935"><ele>335.0</ele><time>2026-04-27T13:53:45.179Z</time></trkpt><trkpt lat="39.53603866333558" lon="8.608591498630338"><ele>335.0</ele><time>2026-04-27T13:53:46.179Z</time></trkpt><trkpt lat="39.53616560596713" lon="8.608474122883594"><ele>334.0</ele><time>2026-04-27T13:53:47.179Z</time></trkpt><trkpt lat="39.53629606801428" lon="8.608354257618963"><ele>333.0</ele><time>2026-04-27T13:53:48.179Z</time></trkpt><trkpt lat="39.53642033229955" lon="8.60824504686597"><ele>332.0</ele><time>2026-04-27T13:53:49.179Z</time></trkpt><trkpt lat="39.53654476507998" lon="8.608151210077365"><ele>332.0</ele><time>2026-04-27T13:53:50.179Z</time></trkpt><trkpt lat="39.536662482888" lon="8.6080612889319"><ele>332.0</ele><time>2026-04-27T13:53:51.179Z</time></trkpt><trkpt lat="39.536776543448674" lon="8.607972439295137"><ele>332.0</ele><time>2026-04-27T13:53:52.179Z</time></trkpt><trkpt lat="39.53688279232879" lon="8.607881658845962"><ele>332.0</ele><time>2026-04-27T13:53:53.179Z</time></trkpt><trkpt lat="39.53698298764672" lon="8.607789565712155"><ele>334.5</ele><time>2026-04-27T13:53:54.179Z</time></trkpt><trkpt lat="39.5370853173816" lon="8.607704913172492"><ele>337.0</ele><time>2026-04-27T13:53:55.179Z</time></trkpt><trkpt lat="39.53719192753954" lon="8.607634627697415"><ele>339.5</ele><time>2026-04-27T13:53:56.179Z</time></trkpt><trkpt lat="39.53730643367438" lon="8.607586181233446"><ele>342.0</ele><time>2026-04-27T13:53:57.179Z</time></trkpt><trkpt lat="39.537433717142775" lon="8.607558500126395"><ele>342.0</ele><time>2026-04-27T13:53:58.179Z</time></trkpt><trkpt lat="39.53755543265753" lon="8.607531927035803"><ele>342.0</ele><time>2026-04-27T13:53:59.179Z</time></trkpt><trkpt lat="39.5376599926344" lon="8.607486986790569"><ele>342.0</ele><time>2026-04-27T13:54:00.179Z</time></trkpt><trkpt lat="39.53776137425846" lon="8.607466379087077"><ele>342.0</ele><time>2026-04-27T13:54:01.179Z</time></trkpt><trkpt lat="39.53785080657607" lon="8.607506316498197"><ele>342.0</ele><time>2026-04-27T13:54:02.179Z</time></trkpt><trkpt lat="39.53791250893025" lon="8.607614559139837"><ele>341.20000000000005</ele><time>2026-04-27T13:54:03.179Z</time></trkpt><trkpt lat="39.53799015806401" lon="8.607705118750266"><ele>340.4</ele><time>2026-04-27T13:54:04.179Z</time></trkpt><trkpt lat="39.53806406727303" lon="8.607786509774565"><ele>339.6</ele><time>2026-04-27T13:54:05.179Z</time></trkpt><trkpt lat="39.538163572759906" lon="8.60782089150975"><ele>338.79999999999995</ele><time>2026-04-27T13:54:06.179Z</time></trkpt><trkpt lat="39.53827884577333" lon="8.607827841387426"><ele>338.0</ele><time>2026-04-27T13:54:07.179Z</time></trkpt><trkpt lat="39.5383954311237" lon="8.607816370399624"><ele>338.0</ele><time>2026-04-27T13:54:08.179Z</time></trkpt><trkpt lat="39.53849066817319" lon="8.607783899109743"><ele>338.0</ele><time>2026-04-27T13:54:09.179Z</time></trkpt><trkpt lat="39.53857842341506" lon="8.607733504265617"><ele>338.0</ele><time>2026-04-27T13:54:10.179Z</time></trkpt><trkpt lat="39.53866899138713" lon="8.607688879002735"><ele>338.0</ele><time>2026-04-27T13:54:11.179Z</time></trkpt><trkpt lat="39.538774050292844" lon="8.607686697723112"><ele>338.0</ele><time>2026-04-27T13:54:12.179Z</time></trkpt><trkpt lat="39.53887709685419" lon="8.607717712719596"><ele>337.79999999999995</ele><time>2026-04-27T13:54:13.179Z</time></trkpt><trkpt lat="39.53898037311066" lon="8.607772766537463"><ele>337.6</ele><time>2026-04-27T13:54:14.179Z</time></trkpt><trkpt lat="39.53908512800656" lon="8.607797366262576"><ele>337.4</ele><time>2026-04-27T13:54:15.179Z</time></trkpt><trkpt lat="39.53919243912586" lon="8.607774684584331"><ele>337.20000000000005</ele><time>2026-04-27T13:54:16.179Z</time></trkpt><trkpt lat="39.53930000297039" lon="8.607726285323874"><ele>337.0</ele><time>2026-04-27T13:54:17.179Z</time></trkpt><trkpt lat="39.53940741514192" lon="8.607681679260521"><ele>337.0</ele><time>2026-04-27T13:54:18.179Z</time></trkpt><trkpt lat="39.539514706832165" lon="8.607676419687056"><ele>337.0</ele><time>2026-04-27T13:54:19.179Z</time></trkpt><trkpt lat="39.53962468134492" lon="8.607713219091218"><ele>337.0</ele><time>2026-04-27T13:54:20.179Z</time></trkpt><trkpt lat="39.53972702609924" lon="8.607772219658482"><ele>337.0</ele><time>2026-04-27T13:54:21.179Z</time></trkpt><trkpt lat="39.53982901894914" lon="8.607816879352914"><ele>337.0</ele><time>2026-04-27T13:54:22.179Z</time></trkpt><trkpt lat="39.53992006005059" lon="8.607850954178197"><ele>336.3333333333333</ele><time>2026-04-27T13:54:23.179Z</time></trkpt><trkpt lat="39.54001053227385" lon="8.607857686532727"><ele>335.66666666666663</ele><time>2026-04-27T13:54:24.18Z</time></trkpt><trkpt lat="39.54009547580652" lon="8.60783438582657"><ele>335.0</ele><time>2026-04-27T13:54:25.18Z</time></trkpt><trkpt lat="39.54017258289723" lon="8.607791629307624"><ele>334.3333333333333</ele><time>2026-04-27T13:54:26.18Z</time></trkpt><trkpt lat="39.54024296807907" lon="8.607742764848693"><ele>333.6666666666667</ele><time>2026-04-27T13:54:27.18Z</time></trkpt><trkpt lat="39.54031876645292" lon="8.607726750265812"><ele>333.0</ele><time>2026-04-27T13:54:28.18Z</time></trkpt><trkpt lat="39.54039660471877" lon="8.607756848558616"><ele>330.25</ele><time>2026-04-27T13:54:29.18Z</time></trkpt><trkpt lat="39.54045899165294" lon="8.607836336791346"><ele>327.5</ele><time>2026-04-27T13:54:30.18Z</time></trkpt><trkpt lat="39.54049201977373" lon="8.607976294610793"><ele>324.75</ele><time>2026-04-27T13:54:31.18Z</time></trkpt><trkpt lat="39.54054066842834" lon="8.60814518766596"><ele>322.0</ele><time>2026-04-27T13:54:32.18Z</time></trkpt><trkpt lat="39.54061529238542" lon="8.60835382713886"><ele>322.0</ele><time>2026-04-27T13:54:33.18Z</time></trkpt><trkpt lat="39.54071580305495" lon="8.60856997547508"><ele>322.0</ele><time>2026-04-27T13:54:34.18Z</time></trkpt><trkpt lat="39.540788243906654" lon="8.6087942960767"><ele>322.0</ele><time>2026-04-27T13:54:35.18Z</time></trkpt><trkpt lat="39.54087372341435" lon="8.608992034245068"><ele>320.25</ele><time>2026-04-27T13:54:36.18Z</time></trkpt><trkpt lat="39.54096271103274" lon="8.60916178631591"><ele>318.5</ele><time>2026-04-27T13:54:37.18Z</time></trkpt><trkpt lat="39.541061060238995" lon="8.609299284048399"><ele>316.75</ele><time>2026-04-27T13:54:38.18Z</time></trkpt><trkpt lat="39.54118588703928" lon="8.609371536612825"><ele>315.0</ele><time>2026-04-27T13:54:39.18Z</time></trkpt><trkpt lat="39.54132783623927" lon="8.60937914010399"><ele>315.0</ele><time>2026-04-27T13:54:40.18Z</time></trkpt><trkpt lat="39.54146246642828" lon="8.609384234184583"><ele>315.0</ele><time>2026-04-27T13:54:41.18Z</time></trkpt><trkpt lat="39.54160722317735" lon="8.609385705445709"><ele>315.0</ele><time>2026-04-27T13:54:42.18Z</time></trkpt><trkpt lat="39.54175524628941" lon="8.609397198441004"><ele>315.0</ele><time>2026-04-27T13:54:43.18Z</time></trkpt><trkpt lat="39.5418752404996" lon="8.609418581615689"><ele>315.0</ele><time>2026-04-27T13:54:44.18Z</time></trkpt><trkpt lat="39.541955767582046" lon="8.609470670105802"><ele>315.0</ele><time>2026-04-27T13:54:45.181Z</time></trkpt><trkpt lat="39.541999801442046" lon="8.609550419439023"><ele>315.0</ele><time>2026-04-27T13:54:46.18Z</time></trkpt><trkpt lat="39.54200492808377" lon="8.609632157603368"><ele>315.0</ele><time>2026-04-27T13:54:47.18Z</time></trkpt><trkpt lat="39.54195227849775" lon="8.609684963003872"><ele>315.0</ele><time>2026-04-27T13:54:48.18Z</time></trkpt><trkpt lat="39.54186651102947" lon="8.609678028813406"><ele>315.0</ele><time>2026-04-27T13:54:49.181Z</time></trkpt><trkpt lat="39.541774092479365" lon="8.609596948445484"><ele>307.75</ele><time>2026-04-27T13:54:50.181Z</time></trkpt><trkpt lat="39.54166844823412" lon="8.609536276622707"><ele>300.5</ele><time>2026-04-27T13:54:51.18Z</time></trkpt><trkpt lat="39.5415523615959" lon="8.60953391944381"><ele>293.25</ele><time>2026-04-27T13:54:52.18Z</time></trkpt><trkpt lat="39.541439326135546" lon="8.609562427044601"><ele>286.0</ele><time>2026-04-27T13:54:53.18Z</time></trkpt><trkpt lat="39.54133164902083" lon="8.609597300516475"><ele>286.0</ele><time>2026-04-27T13:54:54.18Z</time></trkpt><trkpt lat="39.54122374562885" lon="8.609631884516416"><ele>286.0</ele><time>2026-04-27T13:54:55.18Z</time></trkpt><trkpt lat="39.54111556589968" lon="8.609659843862067"><ele>286.0</ele><time>2026-04-27T13:54:56.18Z</time></trkpt><trkpt lat="39.541009267231914" lon="8.609641840879616"><ele>286.0</ele><time>2026-04-27T13:54:57.18Z</time></trkpt><trkpt lat="39.54091193408059" lon="8.609567210368875"><ele>286.0</ele><time>2026-04-27T13:54:58.18Z</time></trkpt><trkpt lat="39.54082415236384" lon="8.609473074466518"><ele>289.25</ele><time>2026-04-27T13:54:59.18Z</time></trkpt><trkpt lat="39.54074300681544" lon="8.609368157728722"><ele>292.5</ele><time>2026-04-27T13:55:00.18Z</time></trkpt><trkpt lat="39.540651270037635" lon="8.60926779633743"><ele>295.75</ele><time>2026-04-27T13:55:01.18Z</time></trkpt><trkpt lat="39.540548148619166" lon="8.609173973576567"><ele>299.0</ele><time>2026-04-27T13:55:02.18Z</time></trkpt><trkpt lat="39.54043618354598" lon="8.609096941224129"><ele>295.0</ele><time>2026-04-27T13:55:03.18Z</time></trkpt><trkpt lat="39.54031487798208" lon="8.609048993900934"><ele>291.0</ele><time>2026-04-27T13:55:04.18Z</time></trkpt><trkpt lat="39.54018491866531" lon="8.609023910790096"><ele>287.0</ele><time>2026-04-27T13:55:05.18Z</time></trkpt><trkpt lat="39.54005747513589" lon="8.608973240729187"><ele>283.0</ele><time>2026-04-27T13:55:06.18Z</time></trkpt><trkpt lat="39.53993802026573" lon="8.608942291454388"><ele>283.0</ele><time>2026-04-27T13:55:07.18Z</time></trkpt><trkpt lat="39.53982309893809" lon="8.608916038463732"><ele>283.0</ele><time>2026-04-27T13:55:08.18Z</time></trkpt><trkpt lat="39.53970948960399" lon="8.608914963170768"><ele>283.0</ele><time>2026-04-27T13:55:09.18Z</time></trkpt><trkpt lat="39.53959965051166" lon="8.608939471663756"><ele>283.0</ele><time>2026-04-27T13:55:10.18Z</time></trkpt><trkpt lat="39.53948523076912" lon="8.609004947788454"><ele>283.0</ele><time>2026-04-27T13:55:11.18Z</time></trkpt><trkpt lat="39.539374615884995" lon="8.609080495201374"><ele>283.0</ele><time>2026-04-27T13:55:12.18Z</time></trkpt><trkpt lat="39.539269657111284" lon="8.609157563293191"><ele>283.0</ele><time>2026-04-27T13:55:13.18Z</time></trkpt><trkpt lat="39.539176651480375" lon="8.609231055855322"><ele>283.0</ele><time>2026-04-27T13:55:14.18Z</time></trkpt><trkpt lat="39.53911148233632" lon="8.609325521207177"><ele>283.0</ele><time>2026-04-27T13:55:15.18Z</time></trkpt><trkpt lat="39.53910143205132" lon="8.609458413678254"><ele>283.0</ele><time>2026-04-27T13:55:16.18Z</time></trkpt><trkpt lat="39.53918294432346" lon="8.609539663594298"><ele>283.0</ele><time>2026-04-27T13:55:17.18Z</time></trkpt><trkpt lat="39.53927129413229" lon="8.609563214296267"><ele>283.0</ele><time>2026-04-27T13:55:18.18Z</time></trkpt><trkpt lat="39.53937252358348" lon="8.609518941933034"><ele>283.0</ele><time>2026-04-27T13:55:19.18Z</time></trkpt><trkpt lat="39.53948732422172" lon="8.609453664173767"><ele>283.0</ele><time>2026-04-27T13:55:20.18Z</time></trkpt><trkpt lat="39.53960220687153" lon="8.609398651573006"><ele>283.0</ele><time>2026-04-27T13:55:21.18Z</time></trkpt><trkpt lat="39.5397201338004" lon="8.60939092376735"><ele>283.0</ele><time>2026-04-27T13:55:22.18Z</time></trkpt><trkpt lat="39.539833782002134" lon="8.609436502332395"><ele>283.0</ele><time>2026-04-27T13:55:23.18Z</time></trkpt><trkpt lat="39.539940414245756" lon="8.609526768844168"><ele>281.5</ele><time>2026-04-27T13:55:24.18Z</time></trkpt><trkpt lat="39.54005329622405" lon="8.609619850929985"><ele>280.0</ele><time>2026-04-27T13:55:25.18Z</time></trkpt><trkpt lat="39.54017187470031" lon="8.6097104400999"><ele>278.5</ele><time>2026-04-27T13:55:26.18Z</time></trkpt><trkpt lat="39.54029466466521" lon="8.6098002680968"><ele>277.0</ele><time>2026-04-27T13:55:27.18Z</time></trkpt><trkpt lat="39.54041770687514" lon="8.609900256184872"><ele>277.0</ele><time>2026-04-27T13:55:28.18Z</time></trkpt><trkpt lat="39.540516069651574" lon="8.610033731380906"><ele>277.0</ele><time>2026-04-27T13:55:29.18Z</time></trkpt><trkpt lat="39.54058676489684" lon="8.610189237877135"><ele>277.0</ele><time>2026-04-27T13:55:30.18Z</time></trkpt><trkpt lat="39.54066305440556" lon="8.610318731674212"><ele>277.0</ele><time>2026-04-27T13:55:31.18Z</time></trkpt><trkpt lat="39.54077600623725" lon="8.610405815418568"><ele>273.5</ele><time>2026-04-27T13:55:32.18Z</time></trkpt><trkpt lat="39.54091182978743" lon="8.610433125495488"><ele>270.0</ele><time>2026-04-27T13:55:33.18Z</time></trkpt><trkpt lat="39.54106539318493" lon="8.610445811391397"><ele>266.5</ele><time>2026-04-27T13:55:34.18Z</time></trkpt><trkpt lat="39.541211605826646" lon="8.610486843132346"><ele>263.0</ele><time>2026-04-27T13:55:35.18Z</time></trkpt><trkpt lat="39.5413490527078" lon="8.610573050325556"><ele>263.0</ele><time>2026-04-27T13:55:36.18Z</time></trkpt><trkpt lat="39.54146807033519" lon="8.610697636377875"><ele>263.0</ele><time>2026-04-27T13:55:37.18Z</time></trkpt><trkpt lat="39.541557154257895" lon="8.610859623463597"><ele>263.0</ele><time>2026-04-27T13:55:38.18Z</time></trkpt><trkpt lat="39.541646724555946" lon="8.610985933400325"><ele>263.0</ele><time>2026-04-27T13:55:39.18Z</time></trkpt><trkpt lat="39.54175154065615" lon="8.61107402436312"><ele>263.0</ele><time>2026-04-27T13:55:40.18Z</time></trkpt><trkpt lat="39.541866815714634" lon="8.611121062288909"><ele>263.0</ele><time>2026-04-27T13:55:41.181Z</time></trkpt><trkpt lat="39.54197916973486" lon="8.611151228833778"><ele>263.0</ele><time>2026-04-27T13:55:42.181Z</time></trkpt><trkpt lat="39.54207122159833" lon="8.611225777823517"><ele>263.0</ele><time>2026-04-27T13:55:43.181Z</time></trkpt><trkpt lat="39.542137146239" lon="8.611315708037294"><ele>263.0</ele><time>2026-04-27T13:55:44.181Z</time></trkpt><trkpt lat="39.54215730515259" lon="8.611438376313451"><ele>261.2</ele><time>2026-04-27T13:55:45.181Z</time></trkpt><trkpt lat="39.5421113271701" lon="8.61155044059492"><ele>259.4</ele><time>2026-04-27T13:55:46.181Z</time></trkpt><trkpt lat="39.54208189025507" lon="8.611667675839856"><ele>257.59999999999997</ele><time>2026-04-27T13:55:47.181Z</time></trkpt><trkpt lat="39.54204811509876" lon="8.611791971927985"><ele>255.79999999999998</ele><time>2026-04-27T13:55:48.181Z</time></trkpt><trkpt lat="39.54207760520152" lon="8.61194270639383"><ele>254.0</ele><time>2026-04-27T13:55:49.181Z</time></trkpt><trkpt lat="39.542123675004824" lon="8.61207854013462"><ele>250.79999999999998</ele><time>2026-04-27T13:55:50.181Z</time></trkpt><trkpt lat="39.54219802096585" lon="8.612175101734218"><ele>247.59999999999997</ele><time>2026-04-27T13:55:51.181Z</time></trkpt><trkpt lat="39.542302147242154" lon="8.612235553340183"><ele>244.4</ele><time>2026-04-27T13:55:52.181Z</time></trkpt><trkpt lat="39.5424159542915" lon="8.612257652008774"><ele>241.2</ele><time>2026-04-27T13:55:53.181Z</time></trkpt><trkpt lat="39.54252746417729" lon="8.612231525641521"><ele>238.0</ele><time>2026-04-27T13:55:54.181Z</time></trkpt><trkpt lat="39.54262828541475" lon="8.612176403956289"><ele>238.0</ele><time>2026-04-27T13:55:55.181Z</time></trkpt><trkpt lat="39.54272599713938" lon="8.612124889517853"><ele>238.0</ele><time>2026-04-27T13:55:56.181Z</time></trkpt><trkpt lat="39.54283169728587" lon="8.612113377766496"><ele>238.0</ele><time>2026-04-27T13:55:57.181Z</time></trkpt><trkpt lat="39.54292856843369" lon="8.612142244131029"><ele>238.0</ele><time>2026-04-27T13:55:58.181Z</time></trkpt><trkpt lat="39.54301448180533" lon="8.612201054239629"><ele>238.0</ele><time>2026-04-27T13:55:59.181Z</time></trkpt><trkpt lat="39.54308297272878" lon="8.612284849891017"><ele>238.60000000000002</ele><time>2026-04-27T13:56:00.181Z</time></trkpt><trkpt lat="39.543154499698126" lon="8.612371821216456"><ele>239.20000000000002</ele><time>2026-04-27T13:56:01.181Z</time></trkpt><trkpt lat="39.54323482964657" lon="8.612445348500534"><ele>239.8</ele><time>2026-04-27T13:56:02.181Z</time></trkpt><trkpt lat="39.54332874922351" lon="8.612499728905972"><ele>240.4</ele><time>2026-04-27T13:56:03.181Z</time></trkpt><trkpt lat="39.5434219624185" lon="8.612551219492234"><ele>241.0</ele><time>2026-04-27T13:56:04.181Z</time></trkpt><trkpt lat="39.543521202495306" lon="8.61257869745031"><ele>241.0</ele><time>2026-04-27T13:56:05.181Z</time></trkpt><trkpt lat="39.54361997745181" lon="8.612608747486801"><ele>241.0</ele><time>2026-04-27T13:56:06.181Z</time></trkpt><trkpt lat="39.54373846328783" lon="8.612650584426257"><ele>241.0</ele><time>2026-04-27T13:56:07.181Z</time></trkpt><trkpt lat="39.54387561887348" lon="8.612697884646893"><ele>241.0</ele><time>2026-04-27T13:56:08.181Z</time></trkpt><trkpt lat="39.54400528817047" lon="8.612771656783915"><ele>238.4</ele><time>2026-04-27T13:56:09.181Z</time></trkpt><trkpt lat="39.54411993450034" lon="8.61283462679453"><ele>235.8</ele><time>2026-04-27T13:56:10.181Z</time></trkpt><trkpt lat="39.54418924217864" lon="8.612928296255156"><ele>233.20000000000002</ele><time>2026-04-27T13:56:11.181Z</time></trkpt><trkpt lat="39.544242442548615" lon="8.61302352857336"><ele>230.60000000000002</ele><time>2026-04-27T13:56:12.181Z</time></trkpt><trkpt lat="39.544228437823385" lon="8.613158659072592"><ele>228.0</ele><time>2026-04-27T13:56:13.181Z</time></trkpt><trkpt lat="39.54416262621712" lon="8.613269210887813"><ele>228.0</ele><time>2026-04-27T13:56:14.181Z</time></trkpt><trkpt lat="39.5440594347233" lon="8.613304710125718"><ele>228.0</ele><time>2026-04-27T13:56:15.181Z</time></trkpt><trkpt lat="39.54396275750846" lon="8.61327010535647"><ele>228.0</ele><time>2026-04-27T13:56:16.181Z</time></trkpt><trkpt lat="39.543884075586675" lon="8.61314635972882"><ele>228.0</ele><time>2026-04-27T13:56:17.181Z</time></trkpt><trkpt lat="39.54381393405615" lon="8.613031155295094"><ele>228.0</ele><time>2026-04-27T13:56:18.181Z</time></trkpt><trkpt lat="39.54371600394527" lon="8.612974364696807"><ele>226.75</ele><time>2026-04-27T13:56:19.181Z</time></trkpt><trkpt lat="39.54359695450923" lon="8.612959571028268"><ele>225.5</ele><time>2026-04-27T13:56:20.181Z</time></trkpt><trkpt lat="39.54346678960369" lon="8.612986022644499"><ele>224.25</ele><time>2026-04-27T13:56:21.181Z</time></trkpt><trkpt lat="39.543359880655686" lon="8.613096162889528"><ele>223.0</ele><time>2026-04-27T13:56:22.181Z</time></trkpt><trkpt lat="39.54328672374856" lon="8.613271869999245"><ele>223.0</ele><time>2026-04-27T13:56:23.181Z</time></trkpt><trkpt lat="39.54321246191098" lon="8.613436305303805"><ele>223.0</ele><time>2026-04-27T13:56:24.181Z</time></trkpt><trkpt lat="39.54312923580138" lon="8.613620589043956"><ele>223.0</ele><time>2026-04-27T13:56:25.181Z</time></trkpt><trkpt lat="39.54304137392574" lon="8.61381516001465"><ele>221.66666666666666</ele><time>2026-04-27T13:56:26.181Z</time></trkpt><trkpt lat="39.54295122318334" lon="8.614015104374738"><ele>220.33333333333331</ele><time>2026-04-27T13:56:27.181Z</time></trkpt><trkpt lat="39.542859665490056" lon="8.614218169747485"><ele>219.0</ele><time>2026-04-27T13:56:28.181Z</time></trkpt><trkpt lat="39.54276740286807" lon="8.614422798393372"><ele>216.66666666666669</ele><time>2026-04-27T13:56:29.181Z</time></trkpt><trkpt lat="39.54267265851973" lon="8.614631100171028"><ele>214.33333333333334</ele><time>2026-04-27T13:56:30.181Z</time></trkpt><trkpt lat="39.54258150788891" lon="8.61482104727623"><ele>212.0</ele><time>2026-04-27T13:56:31.181Z</time></trkpt><trkpt lat="39.54247460340193" lon="8.614976695925318"><ele>212.0</ele><time>2026-04-27T13:56:32.181Z</time></trkpt><trkpt lat="39.54236968577264" lon="8.615094398564159"><ele>212.0</ele><time>2026-04-27T13:56:33.181Z</time></trkpt><trkpt lat="39.5422872284694" lon="8.615216010916876"><ele>212.0</ele><time>2026-04-27T13:56:34.181Z</time></trkpt><trkpt lat="39.542273470898216" lon="8.615383577043326"><ele>212.0</ele><time>2026-04-27T13:56:35.181Z</time></trkpt><trkpt lat="39.542347748076935" lon="8.615539487200877"><ele>209.5</ele><time>2026-04-27T13:56:36.181Z</time></trkpt><trkpt lat="39.54241140359916" lon="8.615719092216773"><ele>207.0</ele><time>2026-04-27T13:56:37.181Z</time></trkpt><trkpt lat="39.542474716115485" lon="8.615890662058854"><ele>204.5</ele><time>2026-04-27T13:56:38.181Z</time></trkpt><trkpt lat="39.542499848256284" lon="8.616051802716713"><ele>202.0</ele><time>2026-04-27T13:56:39.181Z</time></trkpt><trkpt lat="39.54248477463613" lon="8.616230575096646"><ele>200.0</ele><time>2026-04-27T13:56:40.181Z</time></trkpt><trkpt lat="39.54244321516368" lon="8.616419064349994"><ele>198.0</ele><time>2026-04-27T13:56:41.181Z</time></trkpt><trkpt lat="39.54239390064761" lon="8.616624789650377"><ele>196.0</ele><time>2026-04-27T13:56:42.181Z</time></trkpt><trkpt lat="39.54234251533838" lon="8.616839153974007"><ele>194.75</ele><time>2026-04-27T13:56:43.181Z</time></trkpt><trkpt lat="39.542294442490416" lon="8.617039699628137"><ele>193.5</ele><time>2026-04-27T13:56:44.181Z</time></trkpt><trkpt lat="39.54225008239397" lon="8.617220029550046"><ele>192.25</ele><time>2026-04-27T13:56:45.182Z</time></trkpt><trkpt lat="39.54221073541091" lon="8.6173635659998"><ele>191.0</ele><time>2026-04-27T13:56:46.182Z</time></trkpt><trkpt lat="39.5421671568964" lon="8.617446428399578"><ele>191.0</ele><time>2026-04-27T13:56:47.182Z</time></trkpt><trkpt lat="39.5420943537172" lon="8.617464606627559"><ele>191.0</ele><time>2026-04-27T13:56:48.183Z</time></trkpt><trkpt lat="39.54201207084892" lon="8.617383550654448"><ele>191.0</ele><time>2026-04-27T13:56:49.182Z</time></trkpt><trkpt lat="39.54196036396371" lon="8.617227200045123"><ele>191.0</ele><time>2026-04-27T13:56:50.182Z</time></trkpt><trkpt lat="39.54191599719335" lon="8.617040558674791"><ele>190.33333333333331</ele><time>2026-04-27T13:56:51.182Z</time></trkpt><trkpt lat="39.541866736637644" lon="8.616839806215374"><ele>189.66666666666666</ele><time>2026-04-27T13:56:52.183Z</time></trkpt><trkpt lat="39.54182129138912" lon="8.616645660143508"><ele>189.0</ele><time>2026-04-27T13:56:53.183Z</time></trkpt><trkpt lat="39.541771052499904" lon="8.616476828339016"><ele>189.0</ele><time>2026-04-27T13:56:54.183Z</time></trkpt><trkpt lat="39.54168645637591" lon="8.616366308038657"><ele>189.0</ele><time>2026-04-27T13:56:55.182Z</time></trkpt><trkpt lat="39.541557349929484" lon="8.616318689011244"><ele>189.0</ele><time>2026-04-27T13:56:56.182Z</time></trkpt><trkpt lat="39.54140004194745" lon="8.61634136248948"><ele>189.0</ele><time>2026-04-27T13:56:57.183Z</time></trkpt><trkpt lat="39.54121984745867" lon="8.616385938744227"><ele>187.75</ele><time>2026-04-27T13:56:58.183Z</time></trkpt><trkpt lat="39.54104575343832" lon="8.616403737232915"><ele>186.5</ele><time>2026-04-27T13:56:59.183Z</time></trkpt><trkpt lat="39.54090763851459" lon="8.616432928063144"><ele>185.25</ele><time>2026-04-27T13:57:00.183Z</time></trkpt><trkpt lat="39.54079934231344" lon="8.616521635812484"><ele>184.0</ele><time>2026-04-27T13:57:01.183Z</time></trkpt><trkpt lat="39.54073639693537" lon="8.616673430136213"><ele>184.0</ele><time>2026-04-27T13:57:02.183Z</time></trkpt><trkpt lat="39.540708902562045" lon="8.616880744399046"><ele>184.0</ele><time>2026-04-27T13:57:03.183Z</time></trkpt><trkpt lat="39.540666786294125" lon="8.617117469762613"><ele>184.0</ele><time>2026-04-27T13:57:04.183Z</time></trkpt><trkpt lat="39.54065269551864" lon="8.617351247389431"><ele>181.66666666666669</ele><time>2026-04-27T13:57:05.183Z</time></trkpt><trkpt lat="39.540684305501884" lon="8.61756636379663"><ele>179.33333333333334</ele><time>2026-04-27T13:57:06.183Z</time></trkpt><trkpt lat="39.54076267204488" lon="8.617766593125275"><ele>177.0</ele><time>2026-04-27T13:57:07.183Z</time></trkpt><trkpt lat="39.540828374706095" lon="8.617983772298594"><ele>175.0</ele><time>2026-04-27T13:57:08.183Z</time></trkpt><trkpt lat="39.5408995167515" lon="8.61817371213978"><ele>173.0</ele><time>2026-04-27T13:57:09.183Z</time></trkpt><trkpt lat="39.54096500106614" lon="8.618352766163353"><ele>171.0</ele><time>2026-04-27T13:57:10.183Z</time></trkpt><trkpt lat="39.54102600736571" lon="8.618528022376026"><ele>170.5</ele><time>2026-04-27T13:57:11.183Z</time></trkpt><trkpt lat="39.54106077215887" lon="8.618711066620692"><ele>170.0</ele><time>2026-04-27T13:57:12.183Z</time></trkpt><trkpt lat="39.54105479283641" lon="8.618891590107696"><ele>169.5</ele><time>2026-04-27T13:57:13.183Z</time></trkpt><trkpt lat="39.54104873818137" lon="8.619077746922438"><ele>169.0</ele><time>2026-04-27T13:57:14.183Z</time></trkpt><trkpt lat="39.54104325362151" lon="8.619266293888021"><ele>169.0</ele><time>2026-04-27T13:57:15.183Z</time></trkpt><trkpt lat="39.54103776936963" lon="8.619454830029376"><ele>169.0</ele><time>2026-04-27T13:57:16.183Z</time></trkpt><trkpt lat="39.54102992751379" lon="8.619633769839968"><ele>169.0</ele><time>2026-04-27T13:57:17.183Z</time></trkpt><trkpt lat="39.541027818237616" lon="8.619803935207237"><ele>169.0</ele><time>2026-04-27T13:57:18.183Z</time></trkpt><trkpt lat="39.54104081761878" lon="8.619975205207464"><ele>168.25</ele><time>2026-04-27T13:57:19.183Z</time></trkpt><trkpt lat="39.54111619595691" lon="8.620114745769142"><ele>167.5</ele><time>2026-04-27T13:57:20.183Z</time></trkpt><trkpt lat="39.54121584636847" lon="8.62023987805293"><ele>166.75</ele><time>2026-04-27T13:57:21.183Z</time></trkpt><trkpt lat="39.54133419793084" lon="8.620340403224985"><ele>166.0</ele><time>2026-04-27T13:57:22.183Z</time></trkpt><trkpt lat="39.54143323376956" lon="8.620459672176342"><ele>164.8</ele><time>2026-04-27T13:57:23.183Z</time></trkpt><trkpt lat="39.5415265340032" lon="8.620557889973874"><ele>163.60000000000002</ele><time>2026-04-27T13:57:24.183Z</time></trkpt><trkpt lat="39.541593361845315" lon="8.620640538339197"><ele>162.4</ele><time>2026-04-27T13:57:25.183Z</time></trkpt><trkpt lat="39.541615642795776" lon="8.620738512184742"><ele>161.2</ele><time>2026-04-27T13:57:26.183Z</time></trkpt><trkpt lat="39.54158457027724" lon="8.620850785365706"><ele>160.0</ele><time>2026-04-27T13:57:27.183Z</time></trkpt><trkpt lat="39.54150946888972" lon="8.620947834040326"><ele>160.0</ele><time>2026-04-27T13:57:28.183Z</time></trkpt><trkpt lat="39.541412376443105" lon="8.621046024020714"><ele>160.0</ele><time>2026-04-27T13:57:29.183Z</time></trkpt><trkpt lat="39.541315625839225" lon="8.621156161064244"><ele>160.0</ele><time>2026-04-27T13:57:30.183Z</time></trkpt><trkpt lat="39.54121744450584" lon="8.621267929926532"><ele>160.0</ele><time>2026-04-27T13:57:31.183Z</time></trkpt><trkpt lat="39.541128575982235" lon="8.62136397675529"><ele>159.2</ele><time>2026-04-27T13:57:32.183Z</time></trkpt><trkpt lat="39.54105372899308" lon="8.62145052246083"><ele>158.4</ele><time>2026-04-27T13:57:33.183Z</time></trkpt><trkpt lat="39.54098473299484" lon="8.621546816347635"><ele>157.6</ele><time>2026-04-27T13:57:34.183Z</time></trkpt><trkpt lat="39.54093612598847" lon="8.621646768957373"><ele>156.8</ele><time>2026-04-27T13:57:35.183Z</time></trkpt><trkpt lat="39.54093533503369" lon="8.621806962329204"><ele>156.0</ele><time>2026-04-27T13:57:36.183Z</time></trkpt><trkpt lat="39.54093341564799" lon="8.621941361516761"><ele>154.8</ele><time>2026-04-27T13:57:37.183Z</time></trkpt><trkpt lat="39.54093256905424" lon="8.622096369754939"><ele>153.6</ele><time>2026-04-27T13:57:38.183Z</time></trkpt><trkpt lat="39.54093479281753" lon="8.622222344047346"><ele>152.4</ele><time>2026-04-27T13:57:39.183Z</time></trkpt><trkpt lat="39.54091738859861" lon="8.622342968668057"><ele>151.2</ele><time>2026-04-27T13:57:40.183Z</time></trkpt><trkpt lat="39.5408783259447" lon="8.622451869203726"><ele>150.0</ele><time>2026-04-27T13:57:41.183Z</time></trkpt><trkpt lat="39.540821695008574" lon="8.622542416623686"><ele>150.0</ele><time>2026-04-27T13:57:42.183Z</time></trkpt><trkpt lat="39.540747116451826" lon="8.622589344226478"><ele>150.0</ele><time>2026-04-27T13:57:43.183Z</time></trkpt><trkpt lat="39.540661531235145" lon="8.622636725037763"><ele>150.0</ele><time>2026-04-27T13:57:44.183Z</time></trkpt><trkpt lat="39.54057457991392" lon="8.622755573402515"><ele>150.0</ele><time>2026-04-27T13:57:45.183Z</time></trkpt><trkpt lat="39.54052695393762" lon="8.62288371274539"><ele>150.0</ele><time>2026-04-27T13:57:46.183Z</time></trkpt><trkpt lat="39.5404974583692" lon="8.623027463750379"><ele>149.2</ele><time>2026-04-27T13:57:47.183Z</time></trkpt><trkpt lat="39.54048685298683" lon="8.62315748454804"><ele>148.4</ele><time>2026-04-27T13:57:48.183Z</time></trkpt><trkpt lat="39.540500737586555" lon="8.623294020820149"><ele>147.6</ele><time>2026-04-27T13:57:49.183Z</time></trkpt><trkpt lat="39.54050073758413" lon="8.623414784277603"><ele>146.8</ele><time>2026-04-27T13:57:50.183Z</time></trkpt><trkpt lat="39.540501675853804" lon="8.623532082133616"><ele>146.0</ele><time>2026-04-27T13:57:51.183Z</time></trkpt><trkpt lat="39.540502837578835" lon="8.623657147649803"><ele>145.0</ele><time>2026-04-27T13:57:52.183Z</time></trkpt><trkpt lat="39.54049400965761" lon="8.623782037497296"><ele>144.0</ele><time>2026-04-27T13:57:53.183Z</time></trkpt><trkpt lat="39.5404636793301" lon="8.623892104632823"><ele>143.0</ele><time>2026-04-27T13:57:54.183Z</time></trkpt><trkpt lat="39.540420432689736" lon="8.623998630145474"><ele>142.0</ele><time>2026-04-27T13:57:55.183Z</time></trkpt><trkpt lat="39.54036593823355" lon="8.624104966996821"><ele>141.0</ele><time>2026-04-27T13:57:56.183Z</time></trkpt><trkpt lat="39.540301513724" lon="8.624212738997313"><ele>140.6</ele><time>2026-04-27T13:57:57.184Z</time></trkpt><trkpt lat="39.54022250105964" lon="8.624315117298872"><ele>140.2</ele><time>2026-04-27T13:57:58.184Z</time></trkpt><trkpt lat="39.54014483515374" lon="8.624421486613603"><ele>139.8</ele><time>2026-04-27T13:57:59.184Z</time></trkpt><trkpt lat="39.5400726889618" lon="8.624519386653358"><ele>139.4</ele><time>2026-04-27T13:58:00.184Z</time></trkpt><trkpt lat="39.539993272816396" lon="8.624627151748163"><ele>139.0</ele><time>2026-04-27T13:58:01.184Z</time></trkpt><trkpt lat="39.539921841484265" lon="8.62474817838332"><ele>138.25</ele><time>2026-04-27T13:58:02.184Z</time></trkpt><trkpt lat="39.539907098892925" lon="8.624907157033936"><ele>137.5</ele><time>2026-04-27T13:58:03.184Z</time></trkpt><trkpt lat="39.539890967432086" lon="8.625035363061176"><ele>136.75</ele><time>2026-04-27T13:58:04.184Z</time></trkpt><trkpt lat="39.53986911344268" lon="8.625193460804107"><ele>136.0</ele><time>2026-04-27T13:58:05.184Z</time></trkpt><trkpt lat="39.53985111530608" lon="8.625349724118834"><ele>135.0</ele><time>2026-04-27T13:58:06.184Z</time></trkpt><trkpt lat="39.539819260169345" lon="8.625482614929465"><ele>134.0</ele><time>2026-04-27T13:58:07.184Z</time></trkpt><trkpt lat="39.539778975108" lon="8.625603185648552"><ele>133.0</ele><time>2026-04-27T13:58:08.184Z</time></trkpt><trkpt lat="39.53973405113714" lon="8.625715578549679"><ele>132.0</ele><time>2026-04-27T13:58:09.184Z</time></trkpt><trkpt lat="39.539689790406705" lon="8.625822593393215"><ele>131.0</ele><time>2026-04-27T13:58:10.184Z</time></trkpt><trkpt lat="39.5396457305639" lon="8.625929155149802"><ele>131.0</ele><time>2026-04-27T13:58:11.184Z</time></trkpt><trkpt lat="39.53960198149261" lon="8.62603496547347"><ele>131.0</ele><time>2026-04-27T13:58:12.184Z</time></trkpt><trkpt lat="39.53956409644508" lon="8.626153207358437"><ele>131.0</ele><time>2026-04-27T13:58:13.184Z</time></trkpt><trkpt lat="39.539534239806365" lon="8.626276972124789"><ele>131.0</ele><time>2026-04-27T13:58:14.184Z</time></trkpt><trkpt lat="39.5395041053184" lon="8.626400442369919"><ele>131.0</ele><time>2026-04-27T13:58:15.184Z</time></trkpt><trkpt lat="39.53947501961546" lon="8.626520514043214"><ele>131.6</ele><time>2026-04-27T13:58:16.184Z</time></trkpt><trkpt lat="39.53944610613193" lon="8.626642372417466"><ele>132.2</ele><time>2026-04-27T13:58:17.184Z</time></trkpt><trkpt lat="39.53942127550895" lon="8.62675997167919"><ele>132.8</ele><time>2026-04-27T13:58:18.184Z</time></trkpt><trkpt lat="39.53939514076479" lon="8.626874815807193"><ele>133.4</ele><time>2026-04-27T13:58:19.184Z</time></trkpt><trkpt lat="39.53936703180536" lon="8.626987469745718"><ele>134.0</ele><time>2026-04-27T13:58:20.184Z</time></trkpt><trkpt lat="39.539336395467274" lon="8.62708934085515"><ele>134.0</ele><time>2026-04-27T13:58:21.184Z</time></trkpt><trkpt lat="39.539309358882136" lon="8.627164553294687"><ele>134.0</ele><time>2026-04-27T13:58:22.184Z</time></trkpt><trkpt lat="39.53928791605506" lon="8.62725628423711"><ele>134.0</ele><time>2026-04-27T13:58:24.184Z</time></trkpt><trkpt lat="39.53944804029261" lon="8.627370394305732"><ele>134.0</ele><time>2026-04-27T13:58:25.184Z</time></trkpt><trkpt lat="39.53952041594095" lon="8.627458357812529"><ele>134.0</ele><time>2026-04-27T13:58:26.184Z</time></trkpt><trkpt lat="39.53957688984951" lon="8.627556804967815"><ele>132.8</ele><time>2026-04-27T13:58:27.184Z</time></trkpt><trkpt lat="39.53965093959411" lon="8.627639358237689"><ele>131.60000000000002</ele><time>2026-04-27T13:58:28.184Z</time></trkpt><trkpt lat="39.53968914873147" lon="8.627733611126667"><ele>130.4</ele><time>2026-04-27T13:58:29.184Z</time></trkpt><trkpt lat="39.53974246940724" lon="8.627833540370194"><ele>129.20000000000002</ele><time>2026-04-27T13:58:30.184Z</time></trkpt><trkpt lat="39.539790235761394" lon="8.627948027221692"><ele>128.0</ele><time>2026-04-27T13:58:31.184Z</time></trkpt><trkpt lat="39.539851293477774" lon="8.62805830024323"><ele>127.80000000000001</ele><time>2026-04-27T13:58:32.184Z</time></trkpt><trkpt lat="39.539911496109646" lon="8.628178599678563"><ele>127.60000000000001</ele><time>2026-04-27T13:58:33.184Z</time></trkpt><trkpt lat="39.53995656499565" lon="8.628306989159773"><ele>127.39999999999999</ele><time>2026-04-27T13:58:34.184Z</time></trkpt><trkpt lat="39.53999339873117" lon="8.628433485425713"><ele>127.19999999999999</ele><time>2026-04-27T13:58:35.184Z</time></trkpt><trkpt lat="39.54002593771701" lon="8.628569113076567"><ele>127.0</ele><time>2026-04-27T13:58:36.184Z</time></trkpt><trkpt lat="39.54006177007814" lon="8.628699323763577"><ele>127.0</ele><time>2026-04-27T13:58:37.184Z</time></trkpt><trkpt lat="39.54008266671927" lon="8.628819834606535"><ele>126.99999999999999</ele><time>2026-04-27T13:58:38.184Z</time></trkpt><trkpt lat="39.540113032004605" lon="8.628935323575922"><ele>126.99999999999999</ele><time>2026-04-27T13:58:39.184Z</time></trkpt><trkpt lat="39.5401532913648" lon="8.629041141589562"><ele>127.0</ele><time>2026-04-27T13:58:40.184Z</time></trkpt><trkpt lat="39.54017355841827" lon="8.62913066878061"><ele>127.0</ele><time>2026-04-27T13:58:41.184Z</time></trkpt><trkpt lat="39.54021380640447" lon="8.629302568889631"><ele>127.00000000000001</ele><time>2026-04-27T13:58:43.184Z</time></trkpt><trkpt lat="39.54022870518457" lon="8.62939160430323"><ele>127.0</ele><time>2026-04-27T13:58:44.184Z</time></trkpt><trkpt lat="39.5402576361624" lon="8.6294815974016"><ele>127.0</ele><time>2026-04-27T13:58:45.184Z</time></trkpt><trkpt lat="39.54028307306219" lon="8.62958891565292"><ele>127.0</ele><time>2026-04-27T13:58:46.184Z</time></trkpt><trkpt lat="39.540308774059056" lon="8.629693007659474"><ele>127.00000000000001</ele><time>2026-04-27T13:58:47.184Z</time></trkpt><trkpt lat="39.54034017769189" lon="8.629806532291058"><ele>127.0</ele><time>2026-04-27T13:58:48.184Z</time></trkpt><trkpt lat="39.54037482794457" lon="8.629914732139126"><ele>127.0</ele><time>2026-04-27T13:58:49.184Z</time></trkpt><trkpt lat="39.54040792460489" lon="8.630021512314052"><ele>126.99999999999999</ele><time>2026-04-27T13:58:50.184Z</time></trkpt><trkpt lat="39.540443458519576" lon="8.63012829595782"><ele>126.99999999999999</ele><time>2026-04-27T13:58:51.185Z</time></trkpt><trkpt lat="39.54047446025675" lon="8.630241531762714"><ele>127.0</ele><time>2026-04-27T13:58:52.185Z</time></trkpt><trkpt lat="39.540507663394244" lon="8.630352879941723"><ele>127.0</ele><time>2026-04-27T13:58:53.185Z</time></trkpt><trkpt lat="39.54053518667659" lon="8.63046846195885"><ele>127.0</ele><time>2026-04-27T13:58:54.184Z</time></trkpt><trkpt lat="39.54056699792502" lon="8.630581611956357"><ele>126.99999999999999</ele><time>2026-04-27T13:58:55.185Z</time></trkpt><trkpt lat="39.54060076832494" lon="8.630693189861294"><ele>126.99999999999999</ele><time>2026-04-27T13:58:56.185Z</time></trkpt><trkpt lat="39.54062440392685" lon="8.630818240330143"><ele>127.0</ele><time>2026-04-27T13:58:57.185Z</time></trkpt><trkpt lat="39.54066238992505" lon="8.630922958847005"><ele>127.0</ele><time>2026-04-27T13:58:58.185Z</time></trkpt><trkpt lat="39.54069244262519" lon="8.631024194187436"><ele>127.00000000000001</ele><time>2026-04-27T13:58:59.185Z</time></trkpt><trkpt lat="39.54069262591461" lon="8.631123965843855"><ele>127.0</ele><time>2026-04-27T13:59:00.185Z</time></trkpt><trkpt lat="39.54073073912672" lon="8.631246251350223"><ele>127.0</ele><time>2026-04-27T13:59:02.185Z</time></trkpt><trkpt lat="39.54076037073313" lon="8.631319788788646"><ele>127.0</ele><time>2026-04-27T13:59:04.185Z</time></trkpt><trkpt lat="39.54078425728629" lon="8.63142673532137"><ele>127.00000000000001</ele><time>2026-04-27T13:59:06.185Z</time></trkpt><trkpt lat="39.54080454013548" lon="8.631516861374278"><ele>127.0</ele><time>2026-04-27T13:59:08.185Z</time></trkpt><trkpt lat="39.54087015332377" lon="8.63156579359246"><ele>126.83333333333334</ele><time>2026-04-27T13:59:10.185Z</time></trkpt><trkpt lat="39.54098545542314" lon="8.631614939695117"><ele>126.66666666666667</ele><time>2026-04-27T13:59:12.185Z</time></trkpt><trkpt lat="39.54104590993296" lon="8.631663144592537"><ele>126.5</ele><time>2026-04-27T13:59:13.185Z</time></trkpt><trkpt lat="39.54108851750113" lon="8.631745408827154"><ele>126.33333333333334</ele><time>2026-04-27T13:59:14.185Z</time></trkpt><trkpt lat="39.54114744222882" lon="8.631800152937771"><ele>126.16666666666667</ele><time>2026-04-27T13:59:15.185Z</time></trkpt><trkpt lat="39.54121599721124" lon="8.631860795472335"><ele>126.0</ele><time>2026-04-27T13:59:16.185Z</time></trkpt><trkpt lat="39.54128998283283" lon="8.631922859228206"><ele>125.19999999999999</ele><time>2026-04-27T13:59:17.185Z</time></trkpt><trkpt lat="39.541364294064905" lon="8.631983723997728"><ele>124.39999999999999</ele><time>2026-04-27T13:59:18.185Z</time></trkpt><trkpt lat="39.54144383566445" lon="8.63204778957612"><ele>123.6</ele><time>2026-04-27T13:59:19.185Z</time></trkpt><trkpt lat="39.54152646245529" lon="8.632113190166976"><ele>122.8</ele><time>2026-04-27T13:59:20.186Z</time></trkpt><trkpt lat="39.5416063603053" lon="8.632176430825997"><ele>122.0</ele><time>2026-04-27T13:59:21.186Z</time></trkpt><trkpt lat="39.54168958280326" lon="8.632242302937568"><ele>121.99999999999999</ele><time>2026-04-27T13:59:22.186Z</time></trkpt><trkpt lat="39.54176592681066" lon="8.632303268877001"><ele>122.0</ele><time>2026-04-27T13:59:23.186Z</time></trkpt><trkpt lat="39.54183212317991" lon="8.632357740852294"><ele>122.0</ele><time>2026-04-27T13:59:24.186Z</time></trkpt><trkpt lat="39.5418857183448" lon="8.632404906560069"><ele>122.0</ele><time>2026-04-27T13:59:25.186Z</time></trkpt><trkpt lat="39.54199543438423" lon="8.632402608873077"><ele>121.99999999999999</ele><time>2026-04-27T13:59:27.186Z</time></trkpt><trkpt lat="39.54206200181805" lon="8.632357156147012"><ele>122.0</ele><time>2026-04-27T13:59:29.186Z</time></trkpt><trkpt lat="39.54208990251838" lon="8.632283443559132"><ele>119.0</ele><time>2026-04-27T13:59:31.186Z</time></trkpt><trkpt lat="39.5421296951914" lon="8.632215940051209"><ele>119.0</ele><time>2026-04-27T13:59:34.186Z</time></trkpt><trkpt lat="39.54224405290022" lon="8.632306725224852"><ele>119.0</ele><time>2026-04-27T13:59:41.186Z</time></trkpt><trkpt lat="39.54225745154961" lon="8.632390101243255"><ele>119.0</ele><time>2026-04-27T13:59:51.186Z</time></trkpt></trkseg><trkseg><trkpt lat="39.54235136127984" lon="8.63246592970294"><ele>118.99999999999999</ele><time>2026-04-27T14:10:17.2Z</time></trkpt><trkpt lat="39.54235351045265" lon="8.632552841327236"><ele>119.0</ele><time>2026-04-27T14:10:20.2Z</time></trkpt><trkpt lat="39.542343402918526" lon="8.632634226576679"><ele>119.0</ele><time>2026-04-27T14:10:22.2Z</time></trkpt><trkpt lat="39.54235543621976" lon="8.632754262424745"><ele>119.0</ele><time>2026-04-27T14:10:50.2Z</time></trkpt><trkpt lat="39.54240558586829" lon="8.632810538715285"><ele>118.99999999999999</ele><time>2026-04-27T14:10:51.2Z</time></trkpt><trkpt lat="39.5424665151877" lon="8.632871601524325"><ele>119.0</ele><time>2026-04-27T14:10:52.2Z</time></trkpt><trkpt lat="39.54254122822112" lon="8.632927158627725"><ele>119.16666666666666</ele><time>2026-04-27T14:10:53.2Z</time></trkpt><trkpt lat="39.54260409660182" lon="8.632982052812558"><ele>119.33333333333333</ele><time>2026-04-27T14:10:54.2Z</time></trkpt><trkpt lat="39.542666856127205" lon="8.633031668575171"><ele>119.5</ele><time>2026-04-27T14:10:55.2Z</time></trkpt><trkpt lat="39.54275173922923" lon="8.633092220800044"><ele>119.66666666666666</ele><time>2026-04-27T14:10:57.2Z</time></trkpt><trkpt lat="39.54280988602124" lon="8.633140720178833"><ele>119.83333333333333</ele><time>2026-04-27T14:11:00.2Z</time></trkpt><trkpt lat="39.54289781906049" lon="8.633253282706304"><ele>120.0</ele><time>2026-04-27T14:11:02.2Z</time></trkpt><trkpt lat="39.54295822181696" lon="8.633297563706337"><ele>119.2</ele><time>2026-04-27T14:11:03.2Z</time></trkpt><trkpt lat="39.54305995850667" lon="8.63338662905437"><ele>118.4</ele><time>2026-04-27T14:11:05.2Z</time></trkpt><trkpt lat="39.543169441314944" lon="8.633474080685515"><ele>117.6</ele><time>2026-04-27T14:11:07.201Z</time></trkpt><trkpt lat="39.54322587595325" lon="8.633517631551765"><ele>116.8</ele><time>2026-04-27T14:11:08.201Z</time></trkpt><trkpt lat="39.54328414273324" lon="8.633565298712522"><ele>116.0</ele><time>2026-04-27T14:11:09.201Z</time></trkpt><trkpt lat="39.54334719446262" lon="8.633615863610656"><ele>115.83333333333333</ele><time>2026-04-27T14:11:10.201Z</time></trkpt><trkpt lat="39.54341252072431" lon="8.633669062146986"><ele>115.66666666666666</ele><time>2026-04-27T14:11:11.201Z</time></trkpt><trkpt lat="39.54348482118347" lon="8.633717920387417"><ele>115.5</ele><time>2026-04-27T14:11:12.201Z</time></trkpt><trkpt lat="39.543553866415394" lon="8.633773180880125"><ele>115.33333333333334</ele><time>2026-04-27T14:11:13.201Z</time></trkpt><trkpt lat="39.54362933830541" lon="8.633837923349853"><ele>115.16666666666667</ele><time>2026-04-27T14:11:14.201Z</time></trkpt><trkpt lat="39.54370863997159" lon="8.633914028347053"><ele>115.0</ele><time>2026-04-27T14:11:15.201Z</time></trkpt><trkpt lat="39.543789445374635" lon="8.633991105669084"><ele>114.8</ele><time>2026-04-27T14:11:16.201Z</time></trkpt><trkpt lat="39.54387109887679" lon="8.634066640224326"><ele>114.6</ele><time>2026-04-27T14:11:17.201Z</time></trkpt><trkpt lat="39.543961269331554" lon="8.634136985959914"><ele>114.4</ele><time>2026-04-27T14:11:18.201Z</time></trkpt><trkpt lat="39.54406277458321" lon="8.634206830456915"><ele>114.2</ele><time>2026-04-27T14:11:19.201Z</time></trkpt><trkpt lat="39.54416137539641" lon="8.634290973566465"><ele>114.0</ele><time>2026-04-27T14:11:20.201Z</time></trkpt><trkpt lat="39.544261779791675" lon="8.634374419952952"><ele>114.0</ele><time>2026-04-27T14:11:21.201Z</time></trkpt><trkpt lat="39.54436727697768" lon="8.63447120081265"><ele>114.0</ele><time>2026-04-27T14:11:22.201Z</time></trkpt><trkpt lat="39.54447878348625" lon="8.634563730182956"><ele>114.0</ele><time>2026-04-27T14:11:23.201Z</time></trkpt><trkpt lat="39.544593351508496" lon="8.634655212029699"><ele>114.0</ele><time>2026-04-27T14:11:24.201Z</time></trkpt><trkpt lat="39.544706768367135" lon="8.634749361621347"><ele>112.75</ele><time>2026-04-27T14:11:25.201Z</time></trkpt><trkpt lat="39.544826269253115" lon="8.634845364967699"><ele>111.5</ele><time>2026-04-27T14:11:26.201Z</time></trkpt><trkpt lat="39.544946927681266" lon="8.634947025786994"><ele>110.25</ele><time>2026-04-27T14:11:27.202Z</time></trkpt><trkpt lat="39.545067563563116" lon="8.635046954146983"><ele>109.0</ele><time>2026-04-27T14:11:28.202Z</time></trkpt><trkpt lat="39.5451916554294" lon="8.635147971367708"><ele>109.0</ele><time>2026-04-27T14:11:29.202Z</time></trkpt><trkpt lat="39.54530771837795" lon="8.635248742714325"><ele>109.0</ele><time>2026-04-27T14:11:30.203Z</time></trkpt><trkpt lat="39.54542878792696" lon="8.635348520263115"><ele>109.0</ele><time>2026-04-27T14:11:31.202Z</time></trkpt><trkpt lat="39.54552539774593" lon="8.635427701224087"><ele>109.0</ele><time>2026-04-27T14:11:32.202Z</time></trkpt><trkpt lat="39.54559897799726" lon="8.635495847916712"><ele>108.50000000000001</ele><time>2026-04-27T14:11:33.203Z</time></trkpt><trkpt lat="39.545667507416084" lon="8.635554885795989"><ele>108.0</ele><time>2026-04-27T14:11:34.203Z</time></trkpt><trkpt lat="39.545728316150644" lon="8.635597840640674"><ele>107.5</ele><time>2026-04-27T14:11:35.203Z</time></trkpt><trkpt lat="39.54578480604687" lon="8.635644719717584"><ele>107.0</ele><time>2026-04-27T14:11:36.203Z</time></trkpt><trkpt lat="39.545898416719595" lon="8.635741600099674"><ele>106.50000000000001</ele><time>2026-04-27T14:11:38.202Z</time></trkpt><trkpt lat="39.54596516777482" lon="8.635794579543054"><ele>106.0</ele><time>2026-04-27T14:11:39.202Z</time></trkpt><trkpt lat="39.54603672642906" lon="8.635851540322285"><ele>106.00000000000001</ele><time>2026-04-27T14:11:40.203Z</time></trkpt><trkpt lat="39.54610656293249" lon="8.635909597127265"><ele>106.0</ele><time>2026-04-27T14:11:41.203Z</time></trkpt><trkpt lat="39.54616859089165" lon="8.63596400797114"><ele>106.0</ele><time>2026-04-27T14:11:42.203Z</time></trkpt><trkpt lat="39.54623400603451" lon="8.636018445361984"><ele>106.0</ele><time>2026-04-27T14:11:43.203Z</time></trkpt><trkpt lat="39.54630311033652" lon="8.636068123771869"><ele>106.00000000000001</ele><time>2026-04-27T14:11:44.203Z</time></trkpt><trkpt lat="39.54636976062062" lon="8.636124229764452"><ele>106.0</ele><time>2026-04-27T14:11:45.203Z</time></trkpt><trkpt lat="39.546432934993035" lon="8.636181176230737"><ele>105.83333333333334</ele><time>2026-04-27T14:11:46.203Z</time></trkpt><trkpt lat="39.54649635260847" lon="8.636233710950329"><ele>105.66666666666667</ele><time>2026-04-27T14:11:47.203Z</time></trkpt><trkpt lat="39.54656841211004" lon="8.63628966821974"><ele>105.5</ele><time>2026-04-27T14:11:48.203Z</time></trkpt><trkpt lat="39.546641734521565" lon="8.636349772426447"><ele>105.33333333333334</ele><time>2026-04-27T14:11:49.203Z</time></trkpt><trkpt lat="39.546715161451" lon="8.636412547921505"><ele>105.16666666666667</ele><time>2026-04-27T14:11:50.203Z</time></trkpt><trkpt lat="39.54678681023707" lon="8.636471417679697"><ele>105.0</ele><time>2026-04-27T14:11:51.203Z</time></trkpt><trkpt lat="39.54685833382425" lon="8.636538329335513"><ele>105.0</ele><time>2026-04-27T14:11:52.203Z</time></trkpt><trkpt lat="39.54692593215008" lon="8.636600283590543"><ele>105.0</ele><time>2026-04-27T14:11:53.203Z</time></trkpt><trkpt lat="39.54699178775541" lon="8.636658006614116"><ele>105.0</ele><time>2026-04-27T14:11:54.203Z</time></trkpt><trkpt lat="39.54705857269802" lon="8.636710497593013"><ele>105.0</ele><time>2026-04-27T14:11:55.203Z</time></trkpt><trkpt lat="39.547125511426664" lon="8.636764146042756"><ele>105.0</ele><time>2026-04-27T14:11:56.203Z</time></trkpt><trkpt lat="39.54719447381343" lon="8.636821575787987"><ele>105.0</ele><time>2026-04-27T14:11:57.203Z</time></trkpt><trkpt lat="39.54726324520197" lon="8.636879483199461"><ele>105.0</ele><time>2026-04-27T14:11:58.203Z</time></trkpt><trkpt lat="39.547331126808665" lon="8.636936287686863"><ele>105.0</ele><time>2026-04-27T14:11:59.203Z</time></trkpt><trkpt lat="39.5473987428834" lon="8.636996000332996"><ele>105.0</ele><time>2026-04-27T14:12:00.203Z</time></trkpt><trkpt lat="39.547451861528856" lon="8.637064323596837"><ele>105.0</ele><time>2026-04-27T14:12:01.203Z</time></trkpt><trkpt lat="39.54749597853568" lon="8.63713859626598"><ele>105.0</ele><time>2026-04-27T14:12:02.203Z</time></trkpt><trkpt lat="39.54753473679188" lon="8.63722633661649"><ele>105.0</ele><time>2026-04-27T14:12:03.203Z</time></trkpt><trkpt lat="39.547566930455226" lon="8.637312754891374"><ele>105.0</ele><time>2026-04-27T14:12:04.203Z</time></trkpt><trkpt lat="39.54759003876143" lon="8.637403460933461"><ele>105.0</ele><time>2026-04-27T14:12:05.203Z</time></trkpt><trkpt lat="39.54762598820171" lon="8.637477211916853"><ele>105.0</ele><time>2026-04-27T14:12:06.203Z</time></trkpt><trkpt lat="39.5476843202713" lon="8.63751455596314"><ele>105.0</ele><time>2026-04-27T14:12:07.203Z</time></trkpt><trkpt lat="39.547790207723224" lon="8.637507523923318"><ele>105.0</ele><time>2026-04-27T14:12:09.203Z</time></trkpt><trkpt lat="39.547863550196745" lon="8.637497495804356"><ele>105.0</ele><time>2026-04-27T14:12:10.203Z</time></trkpt><trkpt lat="39.54794359309851" lon="8.63750627420938"><ele>104.8</ele><time>2026-04-27T14:12:11.203Z</time></trkpt><trkpt lat="39.54803154740649" lon="8.637538199481053"><ele>104.6</ele><time>2026-04-27T14:12:12.203Z</time></trkpt><trkpt lat="39.54812370265766" lon="8.63759083295802"><ele>104.4</ele><time>2026-04-27T14:12:13.203Z</time></trkpt><trkpt lat="39.548213907089874" lon="8.63765531643068"><ele>104.2</ele><time>2026-04-27T14:12:14.203Z</time></trkpt><trkpt lat="39.54830595882876" lon="8.63773028641374"><ele>104.0</ele><time>2026-04-27T14:12:15.203Z</time></trkpt><trkpt lat="39.54840784082003" lon="8.637814004957464"><ele>104.0</ele><time>2026-04-27T14:12:16.203Z</time></trkpt><trkpt lat="39.54851691588126" lon="8.637905528024024"><ele>104.0</ele><time>2026-04-27T14:12:17.203Z</time></trkpt><trkpt lat="39.5486319493376" lon="8.638004501905634"><ele>104.0</ele><time>2026-04-27T14:12:18.203Z</time></trkpt><trkpt lat="39.54875042679043" lon="8.638105604463515"><ele>104.0</ele><time>2026-04-27T14:12:19.203Z</time></trkpt><trkpt lat="39.54887420141064" lon="8.638210053612498"><ele>102.33333333333333</ele><time>2026-04-27T14:12:20.203Z</time></trkpt><trkpt lat="39.54900008178053" lon="8.63831328863922"><ele>100.66666666666666</ele><time>2026-04-27T14:12:21.203Z</time></trkpt><trkpt lat="39.5491375368914" lon="8.638428955113723"><ele>99.0</ele><time>2026-04-27T14:12:22.203Z</time></trkpt><trkpt lat="39.549284142895715" lon="8.638553681487238"><ele>99.33333333333334</ele><time>2026-04-27T14:12:23.203Z</time></trkpt><trkpt lat="39.54944162845897" lon="8.638688754535808"><ele>99.66666666666667</ele><time>2026-04-27T14:12:24.203Z</time></trkpt><trkpt lat="39.549607939190196" lon="8.638831715292502"><ele>100.0</ele><time>2026-04-27T14:12:25.203Z</time></trkpt><trkpt lat="39.54977417310852" lon="8.63897053966652"><ele>99.33333333333334</ele><time>2026-04-27T14:12:26.203Z</time></trkpt><trkpt lat="39.54994866404357" lon="8.639118883262618"><ele>98.66666666666666</ele><time>2026-04-27T14:12:27.203Z</time></trkpt><trkpt lat="39.55012389486396" lon="8.639267846928128"><ele>98.0</ele><time>2026-04-27T14:12:28.203Z</time></trkpt><trkpt lat="39.55029913551769" lon="8.639416249184617"><ele>97.0</ele><time>2026-04-27T14:12:29.203Z</time></trkpt><trkpt lat="39.550479145715016" lon="8.639571362700387"><ele>96.0</ele><time>2026-04-27T14:12:30.203Z</time></trkpt><trkpt lat="39.55065626587178" lon="8.639719681309561"><ele>95.0</ele><time>2026-04-27T14:12:31.203Z</time></trkpt><trkpt lat="39.55083449972264" lon="8.639865249675262"><ele>95.0</ele><time>2026-04-27T14:12:32.203Z</time></trkpt><trkpt lat="39.551015488504305" lon="8.640011250124314"><ele>95.0</ele><time>2026-04-27T14:12:33.203Z</time></trkpt><trkpt lat="39.55119880290879" lon="8.640161951179746"><ele>95.0</ele><time>2026-04-27T14:12:34.203Z</time></trkpt><trkpt lat="39.551384017438494" lon="8.640315247905354"><ele>93.33333333333334</ele><time>2026-04-27T14:12:35.203Z</time></trkpt><trkpt lat="39.55157234900077" lon="8.640472254667689"><ele>91.66666666666667</ele><time>2026-04-27T14:12:36.203Z</time></trkpt><trkpt lat="39.55176272781695" lon="8.640625922924201"><ele>90.0</ele><time>2026-04-27T14:12:37.203Z</time></trkpt><trkpt lat="39.551955696736954" lon="8.64078551937364"><ele>90.0</ele><time>2026-04-27T14:12:38.203Z</time></trkpt><trkpt lat="39.55214862450732" lon="8.640945108427756"><ele>90.0</ele><time>2026-04-27T14:12:39.203Z</time></trkpt><trkpt lat="39.55234197719696" lon="8.64110304899867"><ele>89.0</ele><time>2026-04-27T14:12:40.203Z</time></trkpt><trkpt lat="39.55253610740013" lon="8.641262724381477"><ele>88.0</ele><time>2026-04-27T14:12:41.203Z</time></trkpt><trkpt lat="39.552721132210316" lon="8.641418947865622"><ele>88.66666666666666</ele><time>2026-04-27T14:12:42.203Z</time></trkpt><trkpt lat="39.55290418429363" lon="8.641571423753593"><ele>89.33333333333333</ele><time>2026-04-27T14:12:43.203Z</time></trkpt><trkpt lat="39.55309018401909" lon="8.641726308525378"><ele>90.0</ele><time>2026-04-27T14:12:44.203Z</time></trkpt><trkpt lat="39.55327694337678" lon="8.641884486147735"><ele>89.0</ele><time>2026-04-27T14:12:45.203Z</time></trkpt><trkpt lat="39.55346230756814" lon="8.642039751294517"><ele>88.0</ele><time>2026-04-27T14:12:46.203Z</time></trkpt><trkpt lat="39.55364459335481" lon="8.642189579756781"><ele>87.0</ele><time>2026-04-27T14:12:47.203Z</time></trkpt><trkpt lat="39.553829622672026" lon="8.642344618447622"><ele>87.0</ele><time>2026-04-27T14:12:48.204Z</time></trkpt><trkpt lat="39.554019790684514" lon="8.642501173225273"><ele>87.0</ele><time>2026-04-27T14:12:49.204Z</time></trkpt><trkpt lat="39.554225787291365" lon="8.642665467930618"><ele>86.5</ele><time>2026-04-27T14:12:50.204Z</time></trkpt><trkpt lat="39.554440595881765" lon="8.642839921189724"><ele>86.0</ele><time>2026-04-27T14:12:51.204Z</time></trkpt><trkpt lat="39.55465657647402" lon="8.643025781304342"><ele>85.0</ele><time>2026-04-27T14:12:52.204Z</time></trkpt><trkpt lat="39.554877641145275" lon="8.643220272212968"><ele>84.0</ele><time>2026-04-27T14:12:53.204Z</time></trkpt><trkpt lat="39.55510214787676" lon="8.643411458796098"><ele>84.0</ele><time>2026-04-27T14:12:54.204Z</time></trkpt><trkpt lat="39.55533173758949" lon="8.643607458736204"><ele>84.0</ele><time>2026-04-27T14:12:55.204Z</time></trkpt><trkpt lat="39.55555753922555" lon="8.643794230777434"><ele>84.5</ele><time>2026-04-27T14:12:56.204Z</time></trkpt><trkpt lat="39.555782628778275" lon="8.643978592647937"><ele>85.0</ele><time>2026-04-27T14:12:57.204Z</time></trkpt><trkpt lat="39.556005598562976" lon="8.644163953784567"><ele>85.0</ele><time>2026-04-27T14:12:58.204Z</time></trkpt><trkpt lat="39.556226672518356" lon="8.64434744540398"><ele>85.0</ele><time>2026-04-27T14:12:59.204Z</time></trkpt><trkpt lat="39.55644669302658" lon="8.644530538513656"><ele>85.5</ele><time>2026-04-27T14:13:00.204Z</time></trkpt><trkpt lat="39.55666378030785" lon="8.644707400742584"><ele>86.0</ele><time>2026-04-27T14:13:01.204Z</time></trkpt><trkpt lat="39.556876825814484" lon="8.644882558708264"><ele>85.5</ele><time>2026-04-27T14:13:02.204Z</time></trkpt><trkpt lat="39.55708874645036" lon="8.6450591808475"><ele>85.0</ele><time>2026-04-27T14:13:03.204Z</time></trkpt><trkpt lat="39.55730033397364" lon="8.64523620340691"><ele>85.5</ele><time>2026-04-27T14:13:04.204Z</time></trkpt><trkpt lat="39.55751332406005" lon="8.645415378153366"><ele>86.0</ele><time>2026-04-27T14:13:05.204Z</time></trkpt><trkpt lat="39.55772521576899" lon="8.64559604038203"><ele>85.0</ele><time>2026-04-27T14:13:06.204Z</time></trkpt><trkpt lat="39.55793604943917" lon="8.64577105556291"><ele>84.0</ele><time>2026-04-27T14:13:07.204Z</time></trkpt><trkpt lat="39.558146904222326" lon="8.645949965590399"><ele>84.0</ele><time>2026-04-27T14:13:08.204Z</time></trkpt><trkpt lat="39.55836189327443" lon="8.646126968023019"><ele>84.0</ele><time>2026-04-27T14:13:09.204Z</time></trkpt><trkpt lat="39.55857370290754" lon="8.646305623119012"><ele>83.5</ele><time>2026-04-27T14:13:10.204Z</time></trkpt><trkpt lat="39.558785981803034" lon="8.646483867333107"><ele>83.0</ele><time>2026-04-27T14:13:11.204Z</time></trkpt><trkpt lat="39.55899806251923" lon="8.646659824069394"><ele>83.0</ele><time>2026-04-27T14:13:12.204Z</time></trkpt><trkpt lat="39.55919523121323" lon="8.646820286121683"><ele>83.0</ele><time>2026-04-27T14:13:13.204Z</time></trkpt><trkpt lat="39.559376536567314" lon="8.646970235245266"><ele>83.0</ele><time>2026-04-27T14:13:14.204Z</time></trkpt><trkpt lat="39.559553793751476" lon="8.647109931511148"><ele>82.33333333333334</ele><time>2026-04-27T14:13:15.204Z</time></trkpt><trkpt lat="39.559717258043484" lon="8.647244465636033"><ele>81.66666666666667</ele><time>2026-04-27T14:13:16.204Z</time></trkpt><trkpt lat="39.559869687148684" lon="8.64737640119297"><ele>81.0</ele><time>2026-04-27T14:13:17.204Z</time></trkpt><trkpt lat="39.560023491180694" lon="8.647510143376724"><ele>81.0</ele><time>2026-04-27T14:13:18.204Z</time></trkpt><trkpt lat="39.560192557186795" lon="8.647649497968027"><ele>81.0</ele><time>2026-04-27T14:13:19.204Z</time></trkpt><trkpt lat="39.56036816986131" lon="8.647801234303106"><ele>81.0</ele><time>2026-04-27T14:13:20.204Z</time></trkpt><trkpt lat="39.5605496753413" lon="8.647957582244285"><ele>81.0</ele><time>2026-04-27T14:13:21.204Z</time></trkpt><trkpt lat="39.560739869547675" lon="8.648116173745212"><ele>81.0</ele><time>2026-04-27T14:13:22.204Z</time></trkpt><trkpt lat="39.560933323782876" lon="8.648280292192066"><ele>81.0</ele><time>2026-04-27T14:13:23.204Z</time></trkpt><trkpt lat="39.561126214289224" lon="8.64844528335143"><ele>81.0</ele><time>2026-04-27T14:13:24.204Z</time></trkpt><trkpt lat="39.56132303945062" lon="8.648612757972183"><ele>80.5</ele><time>2026-04-27T14:13:25.204Z</time></trkpt><trkpt lat="39.56152636033986" lon="8.648780292684437"><ele>80.0</ele><time>2026-04-27T14:13:26.204Z</time></trkpt><trkpt lat="39.56173088958603" lon="8.648950532492373"><ele>80.0</ele><time>2026-04-27T14:13:27.204Z</time></trkpt><trkpt lat="39.56193863487713" lon="8.64912770045414"><ele>80.0</ele><time>2026-04-27T14:13:28.204Z</time></trkpt><trkpt lat="39.56215100940319" lon="8.64930627668797"><ele>80.5</ele><time>2026-04-27T14:13:29.204Z</time></trkpt><trkpt lat="39.56236649573977" lon="8.649486228414558"><ele>81.0</ele><time>2026-04-27T14:13:30.204Z</time></trkpt><trkpt lat="39.56258045846051" lon="8.649663818433446"><ele>81.0</ele><time>2026-04-27T14:13:31.204Z</time></trkpt><trkpt lat="39.56279575424853" lon="8.649841271259646"><ele>81.0</ele><time>2026-04-27T14:13:32.204Z</time></trkpt><trkpt lat="39.56301279589155" lon="8.65002217405783"><ele>80.0</ele><time>2026-04-27T14:13:33.205Z</time></trkpt><trkpt lat="39.563228548502224" lon="8.650203208890442"><ele>79.0</ele><time>2026-04-27T14:13:34.205Z</time></trkpt><trkpt lat="39.56344478212305" lon="8.650379147112965"><ele>78.5</ele><time>2026-04-27T14:13:35.205Z</time></trkpt><trkpt lat="39.56365350116701" lon="8.650546973840243"><ele>78.0</ele><time>2026-04-27T14:13:36.205Z</time></trkpt><trkpt lat="39.56385096293717" lon="8.650709027628436"><ele>78.33333333333333</ele><time>2026-04-27T14:13:37.205Z</time></trkpt><trkpt lat="39.564039417443745" lon="8.650859904403367"><ele>78.66666666666666</ele><time>2026-04-27T14:13:38.205Z</time></trkpt><trkpt lat="39.56421805683486" lon="8.651004519484117"><ele>79.0</ele><time>2026-04-27T14:13:39.204Z</time></trkpt><trkpt lat="39.56439585658788" lon="8.651140270432009"><ele>78.66666666666666</ele><time>2026-04-27T14:13:40.205Z</time></trkpt><trkpt lat="39.56457871090756" lon="8.651271938132268"><ele>78.33333333333333</ele><time>2026-04-27T14:13:41.205Z</time></trkpt><trkpt lat="39.56476241554686" lon="8.651409347739879"><ele>78.0</ele><time>2026-04-27T14:13:42.204Z</time></trkpt><trkpt lat="39.564942110438" lon="8.651553955096993"><ele>78.0</ele><time>2026-04-27T14:13:43.204Z</time></trkpt><trkpt lat="39.56509892700597" lon="8.651716354386453"><ele>78.0</ele><time>2026-04-27T14:13:44.204Z</time></trkpt><trkpt lat="39.565254956388685" lon="8.65186005197876"><ele>78.0</ele><time>2026-04-27T14:13:45.205Z</time></trkpt><trkpt lat="39.56541862709848" lon="8.652001773311065"><ele>76.66666666666667</ele><time>2026-04-27T14:13:46.205Z</time></trkpt><trkpt lat="39.56558104724188" lon="8.652142915561937"><ele>75.33333333333334</ele><time>2026-04-27T14:13:47.205Z</time></trkpt><trkpt lat="39.56574120113536" lon="8.6522817676547"><ele>74.0</ele><time>2026-04-27T14:13:48.205Z</time></trkpt><trkpt lat="39.56590133191278" lon="8.65241587028031"><ele>74.0</ele><time>2026-04-27T14:13:49.205Z</time></trkpt><trkpt lat="39.56606048628133" lon="8.652552066708417"><ele>74.0</ele><time>2026-04-27T14:13:50.205Z</time></trkpt><trkpt lat="39.56622044114698" lon="8.652686901578855"><ele>74.0</ele><time>2026-04-27T14:13:51.205Z</time></trkpt><trkpt lat="39.56638276807417" lon="8.652822297137813"><ele>74.66666666666667</ele><time>2026-04-27T14:13:52.205Z</time></trkpt><trkpt lat="39.56654684872988" lon="8.652956613247683"><ele>75.33333333333333</ele><time>2026-04-27T14:13:53.205Z</time></trkpt><trkpt lat="39.56671718140315" lon="8.653094887434108"><ele>76.0</ele><time>2026-04-27T14:13:54.205Z</time></trkpt><trkpt lat="39.56689289906963" lon="8.653239193403149"><ele>75.0</ele><time>2026-04-27T14:13:55.205Z</time></trkpt><trkpt lat="39.567071160527895" lon="8.653387600675753"><ele>74.0</ele><time>2026-04-27T14:13:56.205Z</time></trkpt><trkpt lat="39.56725283802155" lon="8.653541704612138"><ele>73.0</ele><time>2026-04-27T14:13:57.205Z</time></trkpt><trkpt lat="39.56743795529215" lon="8.653699083947345"><ele>73.0</ele><time>2026-04-27T14:13:58.205Z</time></trkpt><trkpt lat="39.56762561830431" lon="8.653858405587897"><ele>73.0</ele><time>2026-04-27T14:13:59.205Z</time></trkpt><trkpt lat="39.5678131347773" lon="8.654014834497712"><ele>73.0</ele><time>2026-04-27T14:14:00.205Z</time></trkpt><trkpt lat="39.56800533024922" lon="8.654171252679"><ele>73.0</ele><time>2026-04-27T14:14:01.205Z</time></trkpt><trkpt lat="39.568194459819615" lon="8.654327484605366"><ele>73.0</ele><time>2026-04-27T14:14:02.205Z</time></trkpt><trkpt lat="39.56838710113242" lon="8.654485028109043"><ele>73.0</ele><time>2026-04-27T14:14:03.205Z</time></trkpt><trkpt lat="39.568576243252345" lon="8.654638761867048"><ele>73.0</ele><time>2026-04-27T14:14:04.205Z</time></trkpt><trkpt lat="39.56876171625246" lon="8.654795087795014"><ele>73.0</ele><time>2026-04-27T14:14:05.205Z</time></trkpt><trkpt lat="39.56894711177308" lon="8.654951181155935"><ele>73.33333333333333</ele><time>2026-04-27T14:14:06.205Z</time></trkpt><trkpt lat="39.56914142709666" lon="8.655104773621865"><ele>73.66666666666667</ele><time>2026-04-27T14:14:07.205Z</time></trkpt><trkpt lat="39.5693298069818" lon="8.65525261629154"><ele>74.0</ele><time>2026-04-27T14:14:08.205Z</time></trkpt><trkpt lat="39.5695159447043" lon="8.655410166276354"><ele>73.5</ele><time>2026-04-27T14:14:09.205Z</time></trkpt><trkpt lat="39.569712222750475" lon="8.655561674784321"><ele>73.0</ele><time>2026-04-27T14:14:10.205Z</time></trkpt><trkpt lat="39.56991342695144" lon="8.65572609509398"><ele>73.0</ele><time>2026-04-27T14:14:11.205Z</time></trkpt><trkpt lat="39.57011281271332" lon="8.655901427613701"><ele>73.0</ele><time>2026-04-27T14:14:12.205Z</time></trkpt><trkpt lat="39.57031807324892" lon="8.656082060112512"><ele>72.5</ele><time>2026-04-27T14:14:13.205Z</time></trkpt><trkpt lat="39.570526446140065" lon="8.656266443295237"><ele>72.0</ele><time>2026-04-27T14:14:14.205Z</time></trkpt><trkpt lat="39.570739492428494" lon="8.656449973220633"><ele>72.0</ele><time>2026-04-27T14:14:15.205Z</time></trkpt><trkpt lat="39.57096174015102" lon="8.656634142659634"><ele>72.0</ele><time>2026-04-27T14:14:16.205Z</time></trkpt><trkpt lat="39.57118358576685" lon="8.6568214653038"><ele>72.0</ele><time>2026-04-27T14:14:17.205Z</time></trkpt><trkpt lat="39.5714067053023" lon="8.657010915160027"><ele>72.0</ele><time>2026-04-27T14:14:18.205Z</time></trkpt><trkpt lat="39.5716282397271" lon="8.657201412781271"><ele>72.0</ele><time>2026-04-27T14:14:19.205Z</time></trkpt><trkpt lat="39.57185066666469" lon="8.65739146114841"><ele>72.0</ele><time>2026-04-27T14:14:20.205Z</time></trkpt><trkpt lat="39.57207341332846" lon="8.65757916232033"><ele>72.0</ele><time>2026-04-27T14:14:21.205Z</time></trkpt><trkpt lat="39.57229564024962" lon="8.657765567061391"><ele>72.0</ele><time>2026-04-27T14:14:22.205Z</time></trkpt><trkpt lat="39.572519675173545" lon="8.65794836053728"><ele>72.0</ele><time>2026-04-27T14:14:23.205Z</time></trkpt><trkpt lat="39.57274121738237" lon="8.65813042077333"><ele>72.0</ele><time>2026-04-27T14:14:24.205Z</time></trkpt><trkpt lat="39.57296160869618" lon="8.6583130714708"><ele>71.0</ele><time>2026-04-27T14:14:25.205Z</time></trkpt><trkpt lat="39.573182027276566" lon="8.658496433887331"><ele>70.0</ele><time>2026-04-27T14:14:26.205Z</time></trkpt><trkpt lat="39.57340302844445" lon="8.658683046281022"><ele>70.0</ele><time>2026-04-27T14:14:27.205Z</time></trkpt><trkpt lat="39.57362522670065" lon="8.658865972172961"><ele>70.0</ele><time>2026-04-27T14:14:28.205Z</time></trkpt><trkpt lat="39.573846625228924" lon="8.659047223020805"><ele>69.0</ele><time>2026-04-27T14:14:29.205Z</time></trkpt><trkpt lat="39.57407098019865" lon="8.659233496061448"><ele>68.0</ele><time>2026-04-27T14:14:30.205Z</time></trkpt><trkpt lat="39.57429331114863" lon="8.659420815956526"><ele>68.5</ele><time>2026-04-27T14:14:31.205Z</time></trkpt><trkpt lat="39.57451893882245" lon="8.659612645614455"><ele>69.0</ele><time>2026-04-27T14:14:32.205Z</time></trkpt><trkpt lat="39.57474586563338" lon="8.659803642156675"><ele>68.0</ele><time>2026-04-27T14:14:33.205Z</time></trkpt><trkpt lat="39.574972664371536" lon="8.659992625146012"><ele>67.0</ele><time>2026-04-27T14:14:34.205Z</time></trkpt><trkpt lat="39.57520005328439" lon="8.6601800167955"><ele>67.5</ele><time>2026-04-27T14:14:35.205Z</time></trkpt><trkpt lat="39.57542684108343" lon="8.660367475967377"><ele>68.0</ele><time>2026-04-27T14:14:36.205Z</time></trkpt><trkpt lat="39.575651826396296" lon="8.660554440349358"><ele>68.0</ele><time>2026-04-27T14:14:37.205Z</time></trkpt><trkpt lat="39.5758754213294" lon="8.66074257566395"><ele>68.0</ele><time>2026-04-27T14:14:38.205Z</time></trkpt><trkpt lat="39.57609864936816" lon="8.660929340264458"><ele>67.5</ele><time>2026-04-27T14:14:39.205Z</time></trkpt><trkpt lat="39.57632126511116" lon="8.661115569021966"><ele>67.0</ele><time>2026-04-27T14:14:40.205Z</time></trkpt><trkpt lat="39.576544320924015" lon="8.661299574370009"><ele>67.0</ele><time>2026-04-27T14:14:41.205Z</time></trkpt><trkpt lat="39.576769792449966" lon="8.661484642267675"><ele>67.0</ele><time>2026-04-27T14:14:42.205Z</time></trkpt><trkpt lat="39.57699576216758" lon="8.661672492764103"><ele>67.0</ele><time>2026-04-27T14:14:43.205Z</time></trkpt><trkpt lat="39.57722152534972" lon="8.661863130018276"><ele>67.0</ele><time>2026-04-27T14:14:44.205Z</time></trkpt><trkpt lat="39.57744933410475" lon="8.66205046116266"><ele>67.5</ele><time>2026-04-27T14:14:45.205Z</time></trkpt><trkpt lat="39.57767394450501" lon="8.662240233171248"><ele>68.0</ele><time>2026-04-27T14:14:46.205Z</time></trkpt><trkpt lat="39.57789854267588" lon="8.66242839209023"><ele>66.5</ele><time>2026-04-27T14:14:47.205Z</time></trkpt><trkpt lat="39.57812555522772" lon="8.662612188632263"><ele>65.0</ele><time>2026-04-27T14:14:48.205Z</time></trkpt><trkpt lat="39.57834955621787" lon="8.662798885051155"><ele>65.0</ele><time>2026-04-27T14:14:49.205Z</time></trkpt><trkpt lat="39.5785739007026" lon="8.662986684339865"><ele>65.0</ele><time>2026-04-27T14:14:50.205Z</time></trkpt><trkpt lat="39.57880056951051" lon="8.66317550084825"><ele>64.0</ele><time>2026-04-27T14:14:51.206Z</time></trkpt><trkpt lat="39.579025357392894" lon="8.663362461207472"><ele>63.0</ele><time>2026-04-27T14:14:52.206Z</time></trkpt><trkpt lat="39.57924882174789" lon="8.663550076771715"><ele>63.5</ele><time>2026-04-27T14:14:53.206Z</time></trkpt><trkpt lat="39.57947212623354" lon="8.663736838129719"><ele>64.0</ele><time>2026-04-27T14:14:54.206Z</time></trkpt><trkpt lat="39.579698811034866" lon="8.663925225152317"><ele>64.0</ele><time>2026-04-27T14:14:55.206Z</time></trkpt><trkpt lat="39.579927900667805" lon="8.66411373273188"><ele>64.0</ele><time>2026-04-27T14:14:56.206Z</time></trkpt><trkpt lat="39.580154493616" lon="8.66430141931589"><ele>64.0</ele><time>2026-04-27T14:14:57.206Z</time></trkpt><trkpt lat="39.58037310269425" lon="8.66448500058545"><ele>64.0</ele><time>2026-04-27T14:14:58.206Z</time></trkpt><trkpt lat="39.58058269643298" lon="8.664664642634763"><ele>64.0</ele><time>2026-04-27T14:14:59.206Z</time></trkpt><trkpt lat="39.580793415096096" lon="8.664839367360473"><ele>64.0</ele><time>2026-04-27T14:15:00.206Z</time></trkpt><trkpt lat="39.58100222825655" lon="8.66500912043803"><ele>64.0</ele><time>2026-04-27T14:15:01.206Z</time></trkpt><trkpt lat="39.58120556055303" lon="8.665179516116401"><ele>64.0</ele><time>2026-04-27T14:15:02.206Z</time></trkpt><trkpt lat="39.58140867327898" lon="8.665320261382583"><ele>63.0</ele><time>2026-04-27T14:15:03.206Z</time></trkpt><trkpt lat="39.581627871671365" lon="8.66543453920504"><ele>62.0</ele><time>2026-04-27T14:15:04.206Z</time></trkpt><trkpt lat="39.581854936531535" lon="8.665521678291507"><ele>62.0</ele><time>2026-04-27T14:15:05.206Z</time></trkpt><trkpt lat="39.582086283264665" lon="8.665578011566275"><ele>62.0</ele><time>2026-04-27T14:15:06.206Z</time></trkpt><trkpt lat="39.582322597968854" lon="8.66560314811376"><ele>62.0</ele><time>2026-04-27T14:15:07.206Z</time></trkpt><trkpt lat="39.58255938992682" lon="8.665598237369377"><ele>62.0</ele><time>2026-04-27T14:15:08.206Z</time></trkpt><trkpt lat="39.58279803736" lon="8.665567879595748"><ele>62.5</ele><time>2026-04-27T14:15:09.206Z</time></trkpt><trkpt lat="39.583037805955456" lon="8.665521424501724"><ele>63.0</ele><time>2026-04-27T14:15:10.206Z</time></trkpt><trkpt lat="39.583276026667036" lon="8.66546765949834"><ele>63.0</ele><time>2026-04-27T14:15:11.206Z</time></trkpt><trkpt lat="39.58351569987984" lon="8.665417431310546"><ele>63.0</ele><time>2026-04-27T14:15:12.206Z</time></trkpt><trkpt lat="39.583758331126866" lon="8.665369812194124"><ele>62.5</ele><time>2026-04-27T14:15:13.206Z</time></trkpt><trkpt lat="39.583999060763404" lon="8.665321055084547"><ele>62.0</ele><time>2026-04-27T14:15:14.206Z</time></trkpt><trkpt lat="39.584238187483294" lon="8.665269915292292"><ele>61.5</ele><time>2026-04-27T14:15:15.206Z</time></trkpt><trkpt lat="39.584478734110284" lon="8.665218430758042"><ele>61.0</ele><time>2026-04-27T14:15:16.206Z</time></trkpt><trkpt lat="39.58471827789491" lon="8.66517019002118"><ele>61.0</ele><time>2026-04-27T14:15:17.206Z</time></trkpt><trkpt lat="39.58495692317334" lon="8.665125516362478"><ele>61.0</ele><time>2026-04-27T14:15:18.206Z</time></trkpt><trkpt lat="39.58519467751173" lon="8.66507850484031"><ele>61.0</ele><time>2026-04-27T14:15:19.206Z</time></trkpt><trkpt lat="39.585432632150244" lon="8.665029978085935"><ele>61.0</ele><time>2026-04-27T14:15:20.206Z</time></trkpt><trkpt lat="39.58566771299168" lon="8.664980881878815"><ele>61.0</ele><time>2026-04-27T14:15:21.206Z</time></trkpt><trkpt lat="39.58590627556849" lon="8.664930002298087"><ele>61.0</ele><time>2026-04-27T14:15:22.206Z</time></trkpt><trkpt lat="39.586142346380555" lon="8.664878265557617"><ele>60.0</ele><time>2026-04-27T14:15:23.206Z</time></trkpt><trkpt lat="39.58638015116846" lon="8.664827887460259"><ele>59.0</ele><time>2026-04-27T14:15:24.206Z</time></trkpt><trkpt lat="39.586620241949326" lon="8.66477627738017"><ele>59.0</ele><time>2026-04-27T14:15:25.206Z</time></trkpt><trkpt lat="39.58686290997017" lon="8.664725410213379"><ele>59.0</ele><time>2026-04-27T14:15:26.206Z</time></trkpt><trkpt lat="39.58710829332701" lon="8.664676949301855"><ele>59.5</ele><time>2026-04-27T14:15:27.206Z</time></trkpt><trkpt lat="39.58735595679378" lon="8.66462669835862"><ele>60.0</ele><time>2026-04-27T14:15:28.206Z</time></trkpt><trkpt lat="39.587605932238475" lon="8.664574991700313"><ele>58.5</ele><time>2026-04-27T14:15:29.206Z</time></trkpt><trkpt lat="39.58785028192611" lon="8.664521211771786"><ele>57.0</ele><time>2026-04-27T14:15:30.206Z</time></trkpt><trkpt lat="39.58809605160022" lon="8.664468679094716"><ele>57.0</ele><time>2026-04-27T14:15:31.206Z</time></trkpt><trkpt lat="39.58833999688079" lon="8.66441857269484"><ele>57.0</ele><time>2026-04-27T14:15:32.206Z</time></trkpt><trkpt lat="39.58858420511931" lon="8.664365832597209"><ele>56.5</ele><time>2026-04-27T14:15:33.206Z</time></trkpt><trkpt lat="39.5888266935175" lon="8.664318044116794"><ele>56.0</ele><time>2026-04-27T14:15:34.206Z</time></trkpt><trkpt lat="39.58907007221389" lon="8.66427048685048"><ele>56.0</ele><time>2026-04-27T14:15:35.206Z</time></trkpt><trkpt lat="39.58931165890647" lon="8.66422022645155"><ele>56.0</ele><time>2026-04-27T14:15:36.206Z</time></trkpt><trkpt lat="39.5895528445694" lon="8.664173887465788"><ele>56.0</ele><time>2026-04-27T14:15:37.206Z</time></trkpt><trkpt lat="39.58979192629303" lon="8.664126035691694"><ele>56.0</ele><time>2026-04-27T14:15:38.206Z</time></trkpt><trkpt lat="39.590028082520085" lon="8.664079875524301"><ele>56.0</ele><time>2026-04-27T14:15:39.207Z</time></trkpt><trkpt lat="39.5902655761083" lon="8.664029729669833"><ele>56.0</ele><time>2026-04-27T14:15:40.207Z</time></trkpt><trkpt lat="39.59050372842813" lon="8.663978194073763"><ele>55.5</ele><time>2026-04-27T14:15:41.207Z</time></trkpt><trkpt lat="39.59073999486482" lon="8.66392653592925"><ele>55.0</ele><time>2026-04-27T14:15:42.207Z</time></trkpt><trkpt lat="39.590982357192736" lon="8.66387677389489"><ele>55.0</ele><time>2026-04-27T14:15:43.208Z</time></trkpt><trkpt lat="39.59122118612856" lon="8.66382266747115"><ele>55.0</ele><time>2026-04-27T14:15:44.208Z</time></trkpt><trkpt lat="39.591461651878895" lon="8.663767446414983"><ele>55.0</ele><time>2026-04-27T14:15:45.208Z</time></trkpt><trkpt lat="39.59170330322443" lon="8.663716260266336"><ele>55.0</ele><time>2026-04-27T14:15:46.207Z</time></trkpt><trkpt lat="39.59194541849" lon="8.663664749364992"><ele>55.0</ele><time>2026-04-27T14:15:47.207Z</time></trkpt><trkpt lat="39.592189814888165" lon="8.663608229189034"><ele>55.0</ele><time>2026-04-27T14:15:48.208Z</time></trkpt><trkpt lat="39.59243489813566" lon="8.663552904371038"><ele>55.0</ele><time>2026-04-27T14:15:49.207Z</time></trkpt><trkpt lat="39.592681364277304" lon="8.663498414921808"><ele>55.0</ele><time>2026-04-27T14:15:50.207Z</time></trkpt><trkpt lat="39.592925125311034" lon="8.663448150074826"><ele>54.0</ele><time>2026-04-27T14:15:51.208Z</time></trkpt><trkpt lat="39.59316775124691" lon="8.66340301633467"><ele>53.0</ele><time>2026-04-27T14:15:52.207Z</time></trkpt><trkpt lat="39.59341030853827" lon="8.66335991833287"><ele>53.0</ele><time>2026-04-27T14:15:53.207Z</time></trkpt><trkpt lat="39.59365362737208" lon="8.663321176193064"><ele>53.0</ele><time>2026-04-27T14:15:54.207Z</time></trkpt><trkpt lat="39.5939004600864" lon="8.663275597862905"><ele>53.5</ele><time>2026-04-27T14:15:55.207Z</time></trkpt><trkpt lat="39.59414242721373" lon="8.663223879264281"><ele>54.0</ele><time>2026-04-27T14:15:56.207Z</time></trkpt><trkpt lat="39.59438596855583" lon="8.663172778326716"><ele>54.0</ele><time>2026-04-27T14:15:57.207Z</time></trkpt><trkpt lat="39.59463612676912" lon="8.66312122022809"><ele>54.0</ele><time>2026-04-27T14:15:58.207Z</time></trkpt><trkpt lat="39.5948849539375" lon="8.66307303566088"><ele>54.0</ele><time>2026-04-27T14:15:59.207Z</time></trkpt><trkpt lat="39.59513351967302" lon="8.663024117718956"><ele>54.0</ele><time>2026-04-27T14:16:00.207Z</time></trkpt><trkpt lat="39.59538053659635" lon="8.662973692068064"><ele>53.5</ele><time>2026-04-27T14:16:01.207Z</time></trkpt><trkpt lat="39.595627978098854" lon="8.662923760334166"><ele>53.0</ele><time>2026-04-27T14:16:02.207Z</time></trkpt><trkpt lat="39.59587212199996" lon="8.66287337345905"><ele>53.0</ele><time>2026-04-27T14:16:03.207Z</time></trkpt><trkpt lat="39.59611430090263" lon="8.662828712968395"><ele>53.0</ele><time>2026-04-27T14:16:04.207Z</time></trkpt><trkpt lat="39.59635594252473" lon="8.66278104952149"><ele>51.5</ele><time>2026-04-27T14:16:05.207Z</time></trkpt><trkpt lat="39.596598138029385" lon="8.662729913279756"><ele>50.0</ele><time>2026-04-27T14:16:06.207Z</time></trkpt><trkpt lat="39.596838550749304" lon="8.66268140158077"><ele>51.0</ele><time>2026-04-27T14:16:07.207Z</time></trkpt><trkpt lat="39.59708028760656" lon="8.662633222714684"><ele>52.0</ele><time>2026-04-27T14:16:08.207Z</time></trkpt><trkpt lat="39.59732059665851" lon="8.66258399767806"><ele>52.0</ele><time>2026-04-27T14:16:09.207Z</time></trkpt><trkpt lat="39.597561682610234" lon="8.662534620900388"><ele>52.0</ele><time>2026-04-27T14:16:10.207Z</time></trkpt><trkpt lat="39.59779756527306" lon="8.662483085655401"><ele>52.0</ele><time>2026-04-27T14:16:11.207Z</time></trkpt><trkpt lat="39.598033607335715" lon="8.662427721855336"><ele>52.0</ele><time>2026-04-27T14:16:12.207Z</time></trkpt><trkpt lat="39.59827025073229" lon="8.66237143878227"><ele>52.0</ele><time>2026-04-27T14:16:13.207Z</time></trkpt><trkpt lat="39.598509818930815" lon="8.662319108294115"><ele>52.0</ele><time>2026-04-27T14:16:14.207Z</time></trkpt><trkpt lat="39.59874806711672" lon="8.662268623236669"><ele>51.5</ele><time>2026-04-27T14:16:15.207Z</time></trkpt><trkpt lat="39.59899152419637" lon="8.662223780397783"><ele>51.0</ele><time>2026-04-27T14:16:16.207Z</time></trkpt><trkpt lat="39.5992359097393" lon="8.66217666185969"><ele>51.0</ele><time>2026-04-27T14:16:17.207Z</time></trkpt><trkpt lat="39.59947297918445" lon="8.662128835428694"><ele>51.0</ele><time>2026-04-27T14:16:18.207Z</time></trkpt><trkpt lat="39.59971328128678" lon="8.662080039815251"><ele>51.0</ele><time>2026-04-27T14:16:19.207Z</time></trkpt><trkpt lat="39.599953941072094" lon="8.662027468581524"><ele>51.0</ele><time>2026-04-27T14:16:20.207Z</time></trkpt><trkpt lat="39.60019440089281" lon="8.661975627351726"><ele>50.5</ele><time>2026-04-27T14:16:21.207Z</time></trkpt><trkpt lat="39.60043573495626" lon="8.661927607440505"><ele>50.0</ele><time>2026-04-27T14:16:22.207Z</time></trkpt><trkpt lat="39.60067467349666" lon="8.661880388061794"><ele>50.0</ele><time>2026-04-27T14:16:23.207Z</time></trkpt><trkpt lat="39.60091808022837" lon="8.661834175008092"><ele>50.0</ele><time>2026-04-27T14:16:24.207Z</time></trkpt><trkpt lat="39.601158811008546" lon="8.661783802478373"><ele>49.5</ele><time>2026-04-27T14:16:25.207Z</time></trkpt><trkpt lat="39.60140038368572" lon="8.661731741093213"><ele>49.0</ele><time>2026-04-27T14:16:26.207Z</time></trkpt><trkpt lat="39.60164327209379" lon="8.661683093924909"><ele>49.0</ele><time>2026-04-27T14:16:27.207Z</time></trkpt><trkpt lat="39.601883611146704" lon="8.661632706921566"><ele>49.0</ele><time>2026-04-27T14:16:28.207Z</time></trkpt><trkpt lat="39.6021270209546" lon="8.661580370634674"><ele>49.0</ele><time>2026-04-27T14:16:29.207Z</time></trkpt><trkpt lat="39.602367213931316" lon="8.661529412144462"><ele>49.0</ele><time>2026-04-27T14:16:30.207Z</time></trkpt><trkpt lat="39.602609161190244" lon="8.661479770333495"><ele>48.0</ele><time>2026-04-27T14:16:31.207Z</time></trkpt><trkpt lat="39.60284934595271" lon="8.661431838041516"><ele>47.0</ele><time>2026-04-27T14:16:32.207Z</time></trkpt><trkpt lat="39.6030891665036" lon="8.661382370918846"><ele>47.0</ele><time>2026-04-27T14:16:33.207Z</time></trkpt><trkpt lat="39.603328286887326" lon="8.661333805464947"><ele>47.0</ele><time>2026-04-27T14:16:34.207Z</time></trkpt><trkpt lat="39.60356717230775" lon="8.661284556275614"><ele>47.0</ele><time>2026-04-27T14:16:35.208Z</time></trkpt><trkpt lat="39.60380616214813" lon="8.66123494965256"><ele>47.0</ele><time>2026-04-27T14:16:36.208Z</time></trkpt><trkpt lat="39.60404668921494" lon="8.661182201043305"><ele>47.0</ele><time>2026-04-27T14:16:37.208Z</time></trkpt><trkpt lat="39.604284106686094" lon="8.661131966869396"><ele>47.0</ele><time>2026-04-27T14:16:38.208Z</time></trkpt><trkpt lat="39.604519996340066" lon="8.661082900071108"><ele>47.0</ele><time>2026-04-27T14:16:39.208Z</time></trkpt><trkpt lat="39.604759813376795" lon="8.661030929333865"><ele>47.0</ele><time>2026-04-27T14:16:40.208Z</time></trkpt><trkpt lat="39.6049987342631" lon="8.660982216836207"><ele>47.0</ele><time>2026-04-27T14:16:41.208Z</time></trkpt><trkpt lat="39.60524144250099" lon="8.660932245012617"><ele>47.0</ele><time>2026-04-27T14:16:42.208Z</time></trkpt><trkpt lat="39.60548122978383" lon="8.660884275131966"><ele>47.0</ele><time>2026-04-27T14:16:43.208Z</time></trkpt><trkpt lat="39.60571988079195" lon="8.660835884313256"><ele>47.0</ele><time>2026-04-27T14:16:44.208Z</time></trkpt><trkpt lat="39.60595510142471" lon="8.6607874969819"><ele>47.0</ele><time>2026-04-27T14:16:45.208Z</time></trkpt><trkpt lat="39.606190221626306" lon="8.660741411308475"><ele>47.0</ele><time>2026-04-27T14:16:46.208Z</time></trkpt><trkpt lat="39.60642613451717" lon="8.660692392402538"><ele>47.0</ele><time>2026-04-27T14:16:47.208Z</time></trkpt><trkpt lat="39.606664579264724" lon="8.660642946651345"><ele>47.0</ele><time>2026-04-27T14:16:48.208Z</time></trkpt><trkpt lat="39.6069015545065" lon="8.660593969533888"><ele>46.5</ele><time>2026-04-27T14:16:49.208Z</time></trkpt><trkpt lat="39.60713921094289" lon="8.660546781103035"><ele>46.0</ele><time>2026-04-27T14:16:50.208Z</time></trkpt><trkpt lat="39.607375056544164" lon="8.660496699143321"><ele>46.0</ele><time>2026-04-27T14:16:51.208Z</time></trkpt><trkpt lat="39.607613973154116" lon="8.660444121577875"><ele>46.0</ele><time>2026-04-27T14:16:52.208Z</time></trkpt><trkpt lat="39.607850440852424" lon="8.66039264391875"><ele>45.5</ele><time>2026-04-27T14:16:53.208Z</time></trkpt><trkpt lat="39.60808580891243" lon="8.66034283887919"><ele>45.0</ele><time>2026-04-27T14:16:54.208Z</time></trkpt><trkpt lat="39.60832225033754" lon="8.660294693118791"><ele>45.0</ele><time>2026-04-27T14:16:55.208Z</time></trkpt><trkpt lat="39.60855191664612" lon="8.660247683856946"><ele>45.0</ele><time>2026-04-27T14:16:56.208Z</time></trkpt><trkpt lat="39.60877693474099" lon="8.660203959896828"><ele>45.0</ele><time>2026-04-27T14:16:57.208Z</time></trkpt><trkpt lat="39.60898012227585" lon="8.660165309524414"><ele>45.0</ele><time>2026-04-27T14:16:58.208Z</time></trkpt><trkpt lat="39.60916376304442" lon="8.660128278587159"><ele>45.0</ele><time>2026-04-27T14:16:59.208Z</time></trkpt><trkpt lat="39.60933303516182" lon="8.660093354042782"><ele>45.0</ele><time>2026-04-27T14:17:00.208Z</time></trkpt><trkpt lat="39.6094934597413" lon="8.660060911464843"><ele>45.0</ele><time>2026-04-27T14:17:01.208Z</time></trkpt><trkpt lat="39.609635649767796" lon="8.660030333014593"><ele>45.0</ele><time>2026-04-27T14:17:02.208Z</time></trkpt><trkpt lat="39.609763515538724" lon="8.66000041321695"><ele>45.0</ele><time>2026-04-27T14:17:03.208Z</time></trkpt><trkpt lat="39.60987243629246" lon="8.659976464482009"><ele>45.0</ele><time>2026-04-27T14:17:04.208Z</time></trkpt><trkpt lat="39.609971762651156" lon="8.659954289633713"><ele>45.0</ele><time>2026-04-27T14:17:05.208Z</time></trkpt><trkpt lat="39.61006089123237" lon="8.659935037810115"><ele>45.0</ele><time>2026-04-27T14:17:06.208Z</time></trkpt><trkpt lat="39.61014236059418" lon="8.659917109799288"><ele>45.0</ele><time>2026-04-27T14:17:07.208Z</time></trkpt><trkpt lat="39.6102080236832" lon="8.659904351307734"><ele>45.0</ele><time>2026-04-27T14:17:08.208Z</time></trkpt><trkpt lat="39.61029241892574" lon="8.659897202320296"><ele>45.0</ele><time>2026-04-27T14:17:09.208Z</time></trkpt><trkpt lat="39.61040771632497" lon="8.659875818163583"><ele>44.666666666666664</ele><time>2026-04-27T14:17:10.208Z</time></trkpt><trkpt lat="39.61054740053666" lon="8.65984811729591"><ele>44.33333333333333</ele><time>2026-04-27T14:17:11.208Z</time></trkpt><trkpt lat="39.61070633319073" lon="8.659812611100067"><ele>44.0</ele><time>2026-04-27T14:17:12.208Z</time></trkpt><trkpt lat="39.61088104702839" lon="8.659774475924635"><ele>44.0</ele><time>2026-04-27T14:17:13.208Z</time></trkpt><trkpt lat="39.611073790529424" lon="8.659731466439133"><ele>44.0</ele><time>2026-04-27T14:17:14.208Z</time></trkpt><trkpt lat="39.61127895870463" lon="8.659688085555947"><ele>44.0</ele><time>2026-04-27T14:17:15.208Z</time></trkpt><trkpt lat="39.611498767722615" lon="8.659644755081334"><ele>43.5</ele><time>2026-04-27T14:17:16.208Z</time></trkpt><trkpt lat="39.6117301758445" lon="8.659593952659609"><ele>43.0</ele><time>2026-04-27T14:17:17.208Z</time></trkpt><trkpt lat="39.61196719410452" lon="8.659540866404617"><ele>43.0</ele><time>2026-04-27T14:17:18.208Z</time></trkpt><trkpt lat="39.61221460353943" lon="8.659489256134394"><ele>43.0</ele><time>2026-04-27T14:17:19.208Z</time></trkpt><trkpt lat="39.61246853073545" lon="8.659436235420523"><ele>42.5</ele><time>2026-04-27T14:17:20.208Z</time></trkpt><trkpt lat="39.612725023840525" lon="8.659384949078257"><ele>42.0</ele><time>2026-04-27T14:17:21.208Z</time></trkpt><trkpt lat="39.61298814029343" lon="8.659331054940424"><ele>42.0</ele><time>2026-04-27T14:17:22.208Z</time></trkpt><trkpt lat="39.61325920053297" lon="8.65927161155444"><ele>42.0</ele><time>2026-04-27T14:17:23.208Z</time></trkpt><trkpt lat="39.613534879143565" lon="8.659219628128211"><ele>42.5</ele><time>2026-04-27T14:17:24.208Z</time></trkpt><trkpt lat="39.61381334926851" lon="8.659167302499199"><ele>43.0</ele><time>2026-04-27T14:17:25.208Z</time></trkpt><trkpt lat="39.614089431317126" lon="8.659112199567181"><ele>43.0</ele><time>2026-04-27T14:17:26.208Z</time></trkpt><trkpt lat="39.61436375051101" lon="8.659056760551872"><ele>43.0</ele><time>2026-04-27T14:17:27.208Z</time></trkpt><trkpt lat="39.614638910787704" lon="8.659002023540872"><ele>42.5</ele><time>2026-04-27T14:17:28.208Z</time></trkpt><trkpt lat="39.61491150875169" lon="8.658945440404855"><ele>42.0</ele><time>2026-04-27T14:17:29.208Z</time></trkpt><trkpt lat="39.615183626686125" lon="8.658888297607119"><ele>42.0</ele><time>2026-04-27T14:17:30.208Z</time></trkpt><trkpt lat="39.61545544148219" lon="8.658832208407086"><ele>42.0</ele><time>2026-04-27T14:17:31.208Z</time></trkpt><trkpt lat="39.61572434719411" lon="8.658777489200675"><ele>42.0</ele><time>2026-04-27T14:17:32.208Z</time></trkpt><trkpt lat="39.615995068532484" lon="8.658721800710886"><ele>42.0</ele><time>2026-04-27T14:17:33.208Z</time></trkpt><trkpt lat="39.616266826584024" lon="8.65866627389722"><ele>41.5</ele><time>2026-04-27T14:17:34.208Z</time></trkpt><trkpt lat="39.616537153496225" lon="8.658612074924548"><ele>41.0</ele><time>2026-04-27T14:17:35.208Z</time></trkpt><trkpt lat="39.61680278646542" lon="8.658559300356634"><ele>40.0</ele><time>2026-04-27T14:17:36.208Z</time></trkpt><trkpt lat="39.617072026490156" lon="8.658503957228607"><ele>39.0</ele><time>2026-04-27T14:17:37.208Z</time></trkpt><trkpt lat="39.61734207481518" lon="8.658448796982562"><ele>39.0</ele><time>2026-04-27T14:17:38.208Z</time></trkpt><trkpt lat="39.617612049180465" lon="8.658394877475617"><ele>39.0</ele><time>2026-04-27T14:17:39.208Z</time></trkpt><trkpt lat="39.61788023369238" lon="8.658338015619488"><ele>38.0</ele><time>2026-04-27T14:17:40.208Z</time></trkpt><trkpt lat="39.61814693716729" lon="8.658279318669834"><ele>37.0</ele><time>2026-04-27T14:17:41.208Z</time></trkpt><trkpt lat="39.61841296414956" lon="8.658224177614137"><ele>37.5</ele><time>2026-04-27T14:17:42.208Z</time></trkpt><trkpt lat="39.61867959367701" lon="8.65816644345624"><ele>38.0</ele><time>2026-04-27T14:17:43.208Z</time></trkpt><trkpt lat="39.61894822055518" lon="8.658110133664309"><ele>38.0</ele><time>2026-04-27T14:17:44.208Z</time></trkpt><trkpt lat="39.6192168638614" lon="8.658054001608656"><ele>38.0</ele><time>2026-04-27T14:17:45.21Z</time></trkpt><trkpt lat="39.619486608079875" lon="8.657996086544001"><ele>38.5</ele><time>2026-04-27T14:17:46.21Z</time></trkpt><trkpt lat="39.619756014750585" lon="8.657938463002814"><ele>39.0</ele><time>2026-04-27T14:17:47.21Z</time></trkpt><trkpt lat="39.62002944753125" lon="8.657881474919561"><ele>39.0</ele><time>2026-04-27T14:17:48.21Z</time></trkpt><trkpt lat="39.62030113251848" lon="8.65782814074377"><ele>39.0</ele><time>2026-04-27T14:17:49.209Z</time></trkpt><trkpt lat="39.620575754912124" lon="8.657774414659288"><ele>38.5</ele><time>2026-04-27T14:17:50.209Z</time></trkpt><trkpt lat="39.62084679066019" lon="8.657717494302789"><ele>38.0</ele><time>2026-04-27T14:17:51.21Z</time></trkpt><trkpt lat="39.62111524538116" lon="8.657661579759644"><ele>39.0</ele><time>2026-04-27T14:17:52.21Z</time></trkpt><trkpt lat="39.62138728485274" lon="8.657604685281214"><ele>40.0</ele><time>2026-04-27T14:17:53.21Z</time></trkpt><trkpt lat="39.62166031107013" lon="8.657550119921027"><ele>40.0</ele><time>2026-04-27T14:17:54.21Z</time></trkpt><trkpt lat="39.6219289665714" lon="8.657495860329897"><ele>40.0</ele><time>2026-04-27T14:17:55.21Z</time></trkpt><trkpt lat="39.62219874141426" lon="8.657438069773528"><ele>39.0</ele><time>2026-04-27T14:17:56.21Z</time></trkpt><trkpt lat="39.62246883017571" lon="8.657384062211465"><ele>38.0</ele><time>2026-04-27T14:17:57.21Z</time></trkpt><trkpt lat="39.62274119739638" lon="8.657327770245164"><ele>38.0</ele><time>2026-04-27T14:17:58.21Z</time></trkpt><trkpt lat="39.62300862416294" lon="8.657272949752025"><ele>38.0</ele><time>2026-04-27T14:17:59.21Z</time></trkpt><trkpt lat="39.62327243810192" lon="8.657217530781775"><ele>38.0</ele><time>2026-04-27T14:18:00.21Z</time></trkpt><trkpt lat="39.62353604773301" lon="8.657161010855777"><ele>38.0</ele><time>2026-04-27T14:18:01.21Z</time></trkpt><trkpt lat="39.62380206339798" lon="8.657104001779624"><ele>40.5</ele><time>2026-04-27T14:18:02.21Z</time></trkpt><trkpt lat="39.624071549515" lon="8.65704702779726"><ele>43.0</ele><time>2026-04-27T14:18:03.21Z</time></trkpt><trkpt lat="39.62434254741463" lon="8.656989781008042"><ele>39.5</ele><time>2026-04-27T14:18:04.21Z</time></trkpt><trkpt lat="39.624614418006914" lon="8.656934876833855"><ele>36.0</ele><time>2026-04-27T14:18:05.211Z</time></trkpt><trkpt lat="39.62488739117726" lon="8.656878497478159"><ele>36.0</ele><time>2026-04-27T14:18:06.211Z</time></trkpt><trkpt lat="39.62516205850012" lon="8.656820779254659"><ele>36.0</ele><time>2026-04-27T14:18:07.211Z</time></trkpt><trkpt lat="39.6254381191055" lon="8.656764380638755"><ele>38.0</ele><time>2026-04-27T14:18:08.211Z</time></trkpt><trkpt lat="39.62571255089371" lon="8.656707181752259"><ele>40.0</ele><time>2026-04-27T14:18:09.211Z</time></trkpt><trkpt lat="39.62598451689922" lon="8.656649188787851"><ele>40.0</ele><time>2026-04-27T14:18:10.211Z</time></trkpt><trkpt lat="39.62625656451182" lon="8.656593192127177"><ele>40.0</ele><time>2026-04-27T14:18:11.211Z</time></trkpt><trkpt lat="39.6265321448441" lon="8.656545974092056"><ele>40.0</ele><time>2026-04-27T14:18:12.211Z</time></trkpt><trkpt lat="39.62680632350617" lon="8.656512647246688"><ele>40.0</ele><time>2026-04-27T14:18:13.211Z</time></trkpt><trkpt lat="39.62708294775021" lon="8.656486793078091"><ele>39.0</ele><time>2026-04-27T14:18:14.211Z</time></trkpt><trkpt lat="39.627354799639704" lon="8.656462080650675"><ele>38.0</ele><time>2026-04-27T14:18:15.211Z</time></trkpt><trkpt lat="39.62762337852314" lon="8.656435688092838"><ele>37.0</ele><time>2026-04-27T14:18:16.211Z</time></trkpt><trkpt lat="39.62789386521153" lon="8.656407469086469"><ele>36.0</ele><time>2026-04-27T14:18:17.211Z</time></trkpt><trkpt lat="39.62816510562581" lon="8.656376753566617"><ele>36.0</ele><time>2026-04-27T14:18:18.211Z</time></trkpt><trkpt lat="39.628436480215676" lon="8.656346084492604"><ele>36.0</ele><time>2026-04-27T14:18:19.211Z</time></trkpt><trkpt lat="39.62871058632076" lon="8.656318069557777"><ele>35.5</ele><time>2026-04-27T14:18:20.211Z</time></trkpt><trkpt lat="39.62898370113819" lon="8.656293306449989"><ele>35.0</ele><time>2026-04-27T14:18:21.211Z</time></trkpt><trkpt lat="39.62925695418042" lon="8.656264501111984"><ele>34.5</ele><time>2026-04-27T14:18:22.211Z</time></trkpt><trkpt lat="39.62953042940099" lon="8.656238142826664"><ele>34.0</ele><time>2026-04-27T14:18:23.211Z</time></trkpt><trkpt lat="39.629804583340615" lon="8.656210580562803"><ele>34.0</ele><time>2026-04-27T14:18:24.211Z</time></trkpt><trkpt lat="39.63007875366851" lon="8.656182724778583"><ele>34.0</ele><time>2026-04-27T14:18:25.211Z</time></trkpt><trkpt lat="39.63034968948267" lon="8.656153929056758"><ele>33.5</ele><time>2026-04-27T14:18:26.211Z</time></trkpt><trkpt lat="39.63062005748542" lon="8.656125458428498"><ele>33.0</ele><time>2026-04-27T14:18:27.211Z</time></trkpt><trkpt lat="39.63089055676639" lon="8.656097593139823"><ele>32.0</ele><time>2026-04-27T14:18:28.211Z</time></trkpt><trkpt lat="39.63116171694087" lon="8.656069647779326"><ele>31.0</ele><time>2026-04-27T14:18:29.211Z</time></trkpt><trkpt lat="39.631432430136634" lon="8.65604363459205"><ele>31.0</ele><time>2026-04-27T14:18:30.211Z</time></trkpt><trkpt lat="39.63170372840845" lon="8.656016677233334"><ele>31.0</ele><time>2026-04-27T14:18:31.211Z</time></trkpt><trkpt lat="39.63197435681202" lon="8.655990369158637"><ele>31.0</ele><time>2026-04-27T14:18:32.211Z</time></trkpt><trkpt lat="39.63224347467609" lon="8.655963874339415"><ele>31.0</ele><time>2026-04-27T14:18:33.211Z</time></trkpt><trkpt lat="39.632510558472916" lon="8.655935315234835"><ele>31.0</ele><time>2026-04-27T14:18:34.211Z</time></trkpt><trkpt lat="39.63277613657896" lon="8.655907297421871"><ele>31.0</ele><time>2026-04-27T14:18:35.211Z</time></trkpt><trkpt lat="39.63304194100753" lon="8.655882799198322"><ele>31.5</ele><time>2026-04-27T14:18:36.211Z</time></trkpt><trkpt lat="39.63330745783592" lon="8.655854788983298"><ele>32.0</ele><time>2026-04-27T14:18:37.211Z</time></trkpt><trkpt lat="39.63357721382467" lon="8.655826182531605"><ele>31.5</ele><time>2026-04-27T14:18:38.211Z</time></trkpt><trkpt lat="39.63384704474992" lon="8.655796579019862"><ele>31.0</ele><time>2026-04-27T14:18:39.211Z</time></trkpt><trkpt lat="39.63411429566978" lon="8.65576394939085"><ele>31.0</ele><time>2026-04-27T14:18:40.211Z</time></trkpt><trkpt lat="39.63438419694215" lon="8.655733126072247"><ele>31.0</ele><time>2026-04-27T14:18:41.211Z</time></trkpt><trkpt lat="39.63465471195333" lon="8.655697146484952"><ele>30.5</ele><time>2026-04-27T14:18:42.211Z</time></trkpt><trkpt lat="39.6349273384526" lon="8.655668858192483"><ele>30.0</ele><time>2026-04-27T14:18:43.211Z</time></trkpt><trkpt lat="39.635193115183796" lon="8.655642901973536"><ele>30.5</ele><time>2026-04-27T14:18:44.211Z</time></trkpt><trkpt lat="39.63546241628401" lon="8.65561965734974"><ele>31.0</ele><time>2026-04-27T14:18:45.211Z</time></trkpt><trkpt lat="39.635731377487055" lon="8.655592702645752"><ele>31.0</ele><time>2026-04-27T14:18:46.211Z</time></trkpt><trkpt lat="39.636001299623906" lon="8.655564086598762"><ele>31.0</ele><time>2026-04-27T14:18:47.211Z</time></trkpt><trkpt lat="39.63627150226236" lon="8.655533679345565"><ele>30.5</ele><time>2026-04-27T14:18:48.211Z</time></trkpt><trkpt lat="39.636542915625256" lon="8.655505381500378"><ele>30.0</ele><time>2026-04-27T14:18:49.211Z</time></trkpt><trkpt lat="39.636814038984994" lon="8.655481449332772"><ele>30.0</ele><time>2026-04-27T14:18:50.211Z</time></trkpt><trkpt lat="39.63708402930362" lon="8.655452402505947"><ele>30.0</ele><time>2026-04-27T14:18:51.211Z</time></trkpt><trkpt lat="39.63735588931127" lon="8.655424980028613"><ele>30.0</ele><time>2026-04-27T14:18:52.211Z</time></trkpt><trkpt lat="39.63762864060535" lon="8.655396743127685"><ele>30.0</ele><time>2026-04-27T14:18:53.211Z</time></trkpt><trkpt lat="39.63790139844247" lon="8.655365851730107"><ele>30.5</ele><time>2026-04-27T14:18:54.211Z</time></trkpt><trkpt lat="39.63817160873042" lon="8.655337555703108"><ele>31.0</ele><time>2026-04-27T14:18:55.211Z</time></trkpt><trkpt lat="39.63843935179569" lon="8.655311287546098"><ele>30.0</ele><time>2026-04-27T14:18:56.211Z</time></trkpt><trkpt lat="39.63870278805439" lon="8.65528373088286"><ele>29.0</ele><time>2026-04-27T14:18:57.211Z</time></trkpt><trkpt lat="39.63896460778372" lon="8.655255074301303"><ele>29.0</ele><time>2026-04-27T14:18:58.211Z</time></trkpt><trkpt lat="39.63922620452678" lon="8.655225640391457"><ele>29.0</ele><time>2026-04-27T14:18:59.211Z</time></trkpt><trkpt lat="39.63949177066321" lon="8.655198272224732"><ele>28.5</ele><time>2026-04-27T14:19:00.211Z</time></trkpt><trkpt lat="39.63975831056838" lon="8.65517221174081"><ele>28.0</ele><time>2026-04-27T14:19:01.211Z</time></trkpt><trkpt lat="39.64002490815451" lon="8.655146303768793"><ele>28.0</ele><time>2026-04-27T14:19:02.211Z</time></trkpt><trkpt lat="39.640295557261055" lon="8.655123638689535"><ele>28.0</ele><time>2026-04-27T14:19:03.211Z</time></trkpt><trkpt lat="39.64056575758566" lon="8.655096842446104"><ele>28.0</ele><time>2026-04-27T14:19:04.211Z</time></trkpt><trkpt lat="39.640836547199946" lon="8.65506909938564"><ele>28.0</ele><time>2026-04-27T14:19:05.211Z</time></trkpt><trkpt lat="39.64110281426195" lon="8.655038805634854"><ele>28.5</ele><time>2026-04-27T14:19:06.211Z</time></trkpt><trkpt lat="39.64137156639207" lon="8.655006970674824"><ele>29.0</ele><time>2026-04-27T14:19:07.211Z</time></trkpt><trkpt lat="39.64163948577255" lon="8.654980014427709"><ele>29.0</ele><time>2026-04-27T14:19:08.211Z</time></trkpt><trkpt lat="39.64190696120923" lon="8.654952752751019"><ele>29.0</ele><time>2026-04-27T14:19:09.211Z</time></trkpt><trkpt lat="39.6421710729419" lon="8.654928483623285"><ele>28.5</ele><time>2026-04-27T14:19:10.211Z</time></trkpt><trkpt lat="39.64243283586093" lon="8.654904081964194"><ele>28.0</ele><time>2026-04-27T14:19:11.211Z</time></trkpt><trkpt lat="39.64269234573003" lon="8.654875551466501"><ele>27.5</ele><time>2026-04-27T14:19:12.211Z</time></trkpt><trkpt lat="39.64295110299523" lon="8.654847751874247"><ele>27.0</ele><time>2026-04-27T14:19:13.211Z</time></trkpt><trkpt lat="39.64321422400359" lon="8.65482097802163"><ele>27.0</ele><time>2026-04-27T14:19:14.211Z</time></trkpt><trkpt lat="39.64347720327135" lon="8.65479322459064"><ele>27.0</ele><time>2026-04-27T14:19:15.211Z</time></trkpt><trkpt lat="39.64373920545596" lon="8.654764385837169"><ele>27.0</ele><time>2026-04-27T14:19:16.211Z</time></trkpt><trkpt lat="39.64400290523451" lon="8.654737122033135"><ele>27.0</ele><time>2026-04-27T14:19:17.211Z</time></trkpt><trkpt lat="39.64426662457956" lon="8.654708403871362"><ele>26.5</ele><time>2026-04-27T14:19:18.212Z</time></trkpt><trkpt lat="39.6445313004825" lon="8.65468229515162"><ele>26.0</ele><time>2026-04-27T14:19:19.212Z</time></trkpt><trkpt lat="39.64480102413841" lon="8.654658850573313"><ele>26.0</ele><time>2026-04-27T14:19:20.212Z</time></trkpt><trkpt lat="39.645068144945405" lon="8.65463523962106"><ele>26.0</ele><time>2026-04-27T14:19:21.212Z</time></trkpt><trkpt lat="39.645333067515125" lon="8.654611419170386"><ele>25.5</ele><time>2026-04-27T14:19:22.212Z</time></trkpt><trkpt lat="39.64559618331286" lon="8.654586133071755"><ele>25.0</ele><time>2026-04-27T14:19:23.212Z</time></trkpt><trkpt lat="39.64585903775535" lon="8.654563742912645"><ele>25.0</ele><time>2026-04-27T14:19:24.212Z</time></trkpt><trkpt lat="39.64612199501713" lon="8.654540238254421"><ele>25.0</ele><time>2026-04-27T14:19:25.212Z</time></trkpt><trkpt lat="39.64638487400016" lon="8.654514688609304"><ele>24.5</ele><time>2026-04-27T14:19:26.212Z</time></trkpt><trkpt lat="39.64664829616856" lon="8.654488347668694"><ele>24.0</ele><time>2026-04-27T14:19:27.212Z</time></trkpt><trkpt lat="39.64691234883761" lon="8.654461019096468"><ele>23.5</ele><time>2026-04-27T14:19:28.212Z</time></trkpt><trkpt lat="39.647169709591836" lon="8.654430956659446"><ele>23.0</ele><time>2026-04-27T14:19:29.212Z</time></trkpt><trkpt lat="39.64742513367486" lon="8.654397640820807"><ele>23.0</ele><time>2026-04-27T14:19:30.212Z</time></trkpt><trkpt lat="39.64769000647643" lon="8.654360770851955"><ele>23.0</ele><time>2026-04-27T14:19:31.212Z</time></trkpt><trkpt lat="39.647953245422784" lon="8.654322700151413"><ele>23.5</ele><time>2026-04-27T14:19:32.212Z</time></trkpt><trkpt lat="39.64821601528653" lon="8.654289619585711"><ele>24.0</ele><time>2026-04-27T14:19:33.212Z</time></trkpt><trkpt lat="39.648478147655474" lon="8.654263379294461"><ele>23.5</ele><time>2026-04-27T14:19:34.212Z</time></trkpt><trkpt lat="39.648740441242495" lon="8.654237562864322"><ele>23.0</ele><time>2026-04-27T14:19:35.212Z</time></trkpt><trkpt lat="39.64900223239827" lon="8.654213246320099"><ele>23.0</ele><time>2026-04-27T14:19:36.212Z</time></trkpt><trkpt lat="39.64926172171741" lon="8.654188881284043"><ele>23.0</ele><time>2026-04-27T14:19:37.212Z</time></trkpt><trkpt lat="39.64952065068298" lon="8.654166817997814"><ele>23.0</ele><time>2026-04-27T14:19:38.212Z</time></trkpt><trkpt lat="39.64978205540183" lon="8.654135368153609"><ele>23.0</ele><time>2026-04-27T14:19:39.212Z</time></trkpt><trkpt lat="39.65004536591043" lon="8.654103163544564"><ele>22.5</ele><time>2026-04-27T14:19:40.212Z</time></trkpt><trkpt lat="39.65030867290277" lon="8.654078179143653"><ele>22.0</ele><time>2026-04-27T14:19:41.212Z</time></trkpt><trkpt lat="39.65057158633626" lon="8.654052208390592"><ele>22.0</ele><time>2026-04-27T14:19:42.212Z</time></trkpt><trkpt lat="39.65083428074847" lon="8.654025736063842"><ele>22.0</ele><time>2026-04-27T14:19:43.212Z</time></trkpt><trkpt lat="39.65109578401626" lon="8.653999249895667"><ele>21.5</ele><time>2026-04-27T14:19:44.212Z</time></trkpt><trkpt lat="39.651358101615195" lon="8.653970665416477"><ele>21.0</ele><time>2026-04-27T14:19:45.212Z</time></trkpt><trkpt lat="39.65161795114229" lon="8.653941560673022"><ele>21.0</ele><time>2026-04-27T14:19:46.212Z</time></trkpt><trkpt lat="39.651884438259096" lon="8.6539170497209"><ele>21.0</ele><time>2026-04-27T14:19:47.212Z</time></trkpt><trkpt lat="39.652149967123606" lon="8.65389064400015"><ele>21.0</ele><time>2026-04-27T14:19:48.212Z</time></trkpt><trkpt lat="39.65241466531915" lon="8.65386085586728"><ele>21.0</ele><time>2026-04-27T14:19:49.212Z</time></trkpt><trkpt lat="39.65268118524555" lon="8.6538337787538"><ele>21.0</ele><time>2026-04-27T14:19:50.212Z</time></trkpt><trkpt lat="39.65295057462752" lon="8.653806334161509"><ele>21.0</ele><time>2026-04-27T14:19:51.212Z</time></trkpt><trkpt lat="39.65321689596462" lon="8.65377661821254"><ele>21.0</ele><time>2026-04-27T14:19:52.213Z</time></trkpt><trkpt lat="39.653477368549105" lon="8.65375007115534"><ele>21.0</ele><time>2026-04-27T14:19:53.213Z</time></trkpt><trkpt lat="39.65373462799404" lon="8.653721644791263"><ele>21.5</ele><time>2026-04-27T14:19:54.213Z</time></trkpt><trkpt lat="39.65399019037956" lon="8.653692820152358"><ele>22.0</ele><time>2026-04-27T14:19:55.213Z</time></trkpt><trkpt lat="39.65424263374344" lon="8.65366168409728"><ele>21.5</ele><time>2026-04-27T14:19:56.213Z</time></trkpt><trkpt lat="39.65450198954451" lon="8.653634875249882"><ele>21.0</ele><time>2026-04-27T14:19:57.213Z</time></trkpt><trkpt lat="39.654764715242315" lon="8.653611368268894"><ele>21.0</ele><time>2026-04-27T14:19:58.212Z</time></trkpt><trkpt lat="39.655031795750325" lon="8.653590794754553"><ele>21.0</ele><time>2026-04-27T14:19:59.212Z</time></trkpt><trkpt lat="39.65530033598083" lon="8.653567859504646"><ele>20.5</ele><time>2026-04-27T14:20:00.213Z</time></trkpt><trkpt lat="39.655570683001855" lon="8.653543732607526"><ele>20.0</ele><time>2026-04-27T14:20:01.213Z</time></trkpt><trkpt lat="39.65584144404445" lon="8.65351489936008"><ele>20.0</ele><time>2026-04-27T14:20:02.213Z</time></trkpt><trkpt lat="39.65610569674844" lon="8.653484400064158"><ele>20.0</ele><time>2026-04-27T14:20:03.213Z</time></trkpt><trkpt lat="39.65636774265135" lon="8.653454078591565"><ele>20.5</ele><time>2026-04-27T14:20:04.212Z</time></trkpt><trkpt lat="39.656629395738904" lon="8.653429821229976"><ele>21.0</ele><time>2026-04-27T14:20:05.212Z</time></trkpt><trkpt lat="39.65688514459063" lon="8.653395964950294"><ele>20.0</ele><time>2026-04-27T14:20:06.213Z</time></trkpt><trkpt lat="39.65714492532068" lon="8.653367709233082"><ele>19.0</ele><time>2026-04-27T14:20:07.213Z</time></trkpt><trkpt lat="39.65740097390647" lon="8.65333897716839"><ele>19.0</ele><time>2026-04-27T14:20:08.213Z</time></trkpt><trkpt lat="39.657658926359865" lon="8.653310941699552"><ele>19.0</ele><time>2026-04-27T14:20:09.213Z</time></trkpt><trkpt lat="39.657917147336455" lon="8.65328476972413"><ele>19.0</ele><time>2026-04-27T14:20:10.213Z</time></trkpt><trkpt lat="39.658175796268374" lon="8.653256693062142"><ele>19.0</ele><time>2026-04-27T14:20:11.213Z</time></trkpt><trkpt lat="39.65843577861096" lon="8.653229900631054"><ele>19.0</ele><time>2026-04-27T14:20:12.213Z</time></trkpt><trkpt lat="39.658692861840414" lon="8.653200827838587"><ele>19.0</ele><time>2026-04-27T14:20:13.213Z</time></trkpt><trkpt lat="39.65895255531243" lon="8.653173524900783"><ele>19.0</ele><time>2026-04-27T14:20:14.213Z</time></trkpt><trkpt lat="39.65921571848334" lon="8.653147370118262"><ele>19.0</ele><time>2026-04-27T14:20:15.213Z</time></trkpt><trkpt lat="39.659476362283755" lon="8.65311863024842"><ele>19.0</ele><time>2026-04-27T14:20:16.213Z</time></trkpt><trkpt lat="39.65973509642338" lon="8.653093668716982"><ele>19.0</ele><time>2026-04-27T14:20:17.213Z</time></trkpt><trkpt lat="39.65999389009061" lon="8.653066292887816"><ele>19.0</ele><time>2026-04-27T14:20:18.213Z</time></trkpt><trkpt lat="39.66024900014303" lon="8.653037973048459"><ele>19.0</ele><time>2026-04-27T14:20:19.213Z</time></trkpt><trkpt lat="39.66050425982691" lon="8.653008788760246"><ele>17.5</ele><time>2026-04-27T14:20:20.213Z</time></trkpt><trkpt lat="39.66076203556473" lon="8.652979504810963"><ele>16.0</ele><time>2026-04-27T14:20:21.213Z</time></trkpt><trkpt lat="39.661024613844354" lon="8.652946116843912"><ele>15.5</ele><time>2026-04-27T14:20:22.213Z</time></trkpt><trkpt lat="39.66129035147787" lon="8.652915819024125"><ele>15.0</ele><time>2026-04-27T14:20:23.213Z</time></trkpt><trkpt lat="39.66155414145459" lon="8.652891618658517"><ele>15.0</ele><time>2026-04-27T14:20:24.213Z</time></trkpt><trkpt lat="39.66181732060596" lon="8.652872745101591"><ele>15.0</ele><time>2026-04-27T14:20:25.213Z</time></trkpt><trkpt lat="39.66208028861605" lon="8.652852966871732"><ele>15.5</ele><time>2026-04-27T14:20:26.213Z</time></trkpt><trkpt lat="39.66234529340256" lon="8.65282804357538"><ele>16.0</ele><time>2026-04-27T14:20:27.213Z</time></trkpt><trkpt lat="39.66260914016442" lon="8.652799177638924"><ele>16.5</ele><time>2026-04-27T14:20:28.213Z</time></trkpt><trkpt lat="39.66286728339507" lon="8.6527732219277"><ele>17.0</ele><time>2026-04-27T14:20:29.213Z</time></trkpt><trkpt lat="39.663122785990446" lon="8.652746793019075"><ele>17.0</ele><time>2026-04-27T14:20:30.213Z</time></trkpt><trkpt lat="39.663378183268605" lon="8.652720881512346"><ele>17.0</ele><time>2026-04-27T14:20:31.213Z</time></trkpt><trkpt lat="39.66363336036897" lon="8.652692992200501"><ele>16.5</ele><time>2026-04-27T14:20:32.213Z</time></trkpt><trkpt lat="39.663887505429386" lon="8.652665791471657"><ele>16.0</ele><time>2026-04-27T14:20:33.213Z</time></trkpt><trkpt lat="39.66414394735724" lon="8.652638655416498"><ele>16.0</ele><time>2026-04-27T14:20:34.213Z</time></trkpt><trkpt lat="39.664400319969005" lon="8.652613443340451"><ele>16.0</ele><time>2026-04-27T14:20:35.213Z</time></trkpt><trkpt lat="39.66465481232029" lon="8.652591083304538"><ele>15.5</ele><time>2026-04-27T14:20:36.213Z</time></trkpt><trkpt lat="39.664909543951254" lon="8.652569801799405"><ele>15.0</ele><time>2026-04-27T14:20:37.213Z</time></trkpt><trkpt lat="39.66515942754918" lon="8.652538877505757"><ele>15.5</ele><time>2026-04-27T14:20:38.213Z</time></trkpt><trkpt lat="39.665408289547095" lon="8.652506819551977"><ele>16.0</ele><time>2026-04-27T14:20:39.213Z</time></trkpt><trkpt lat="39.66565440301925" lon="8.652478583730089"><ele>16.0</ele><time>2026-04-27T14:20:40.213Z</time></trkpt><trkpt lat="39.665898235580855" lon="8.652455872268849"><ele>16.0</ele><time>2026-04-27T14:20:41.213Z</time></trkpt><trkpt lat="39.666143147978374" lon="8.652430358453337"><ele>16.5</ele><time>2026-04-27T14:20:42.213Z</time></trkpt><trkpt lat="39.66638692411897" lon="8.652402882027907"><ele>17.0</ele><time>2026-04-27T14:20:43.213Z</time></trkpt><trkpt lat="39.666632686796206" lon="8.652376024828838"><ele>17.0</ele><time>2026-04-27T14:20:44.213Z</time></trkpt><trkpt lat="39.666879168170524" lon="8.652356264127073"><ele>17.0</ele><time>2026-04-27T14:20:45.213Z</time></trkpt><trkpt lat="39.6671253234387" lon="8.652343938022359"><ele>16.0</ele><time>2026-04-27T14:20:46.213Z</time></trkpt><trkpt lat="39.667368980564866" lon="8.652328043258388"><ele>15.0</ele><time>2026-04-27T14:20:47.213Z</time></trkpt><trkpt lat="39.66761157654353" lon="8.652306549525493"><ele>14.5</ele><time>2026-04-27T14:20:48.213Z</time></trkpt><trkpt lat="39.66785667846841" lon="8.652285195198507"><ele>14.0</ele><time>2026-04-27T14:20:49.213Z</time></trkpt><trkpt lat="39.668096481972675" lon="8.652255384975732"><ele>14.0</ele><time>2026-04-27T14:20:50.213Z</time></trkpt><trkpt lat="39.66833711658517" lon="8.652220832364058"><ele>14.0</ele><time>2026-04-27T14:20:51.213Z</time></trkpt><trkpt lat="39.66857270791084" lon="8.652194504602157"><ele>13.5</ele><time>2026-04-27T14:20:52.213Z</time></trkpt><trkpt lat="39.66880472239637" lon="8.652165865633465"><ele>13.0</ele><time>2026-04-27T14:20:53.213Z</time></trkpt><trkpt lat="39.669041345778304" lon="8.652135561872017"><ele>13.0</ele><time>2026-04-27T14:20:54.213Z</time></trkpt><trkpt lat="39.66927727543907" lon="8.652105484265807"><ele>13.0</ele><time>2026-04-27T14:20:55.213Z</time></trkpt><trkpt lat="39.66951618791234" lon="8.652073602340064"><ele>12.5</ele><time>2026-04-27T14:20:56.213Z</time></trkpt><trkpt lat="39.66975519763071" lon="8.652048911253505"><ele>12.0</ele><time>2026-04-27T14:20:57.213Z</time></trkpt><trkpt lat="39.66999275021952" lon="8.652028863192252"><ele>12.0</ele><time>2026-04-27T14:20:58.213Z</time></trkpt><trkpt lat="39.67022874415221" lon="8.65201107950585"><ele>12.0</ele><time>2026-04-27T14:20:59.213Z</time></trkpt><trkpt lat="39.6704605758215" lon="8.651989655948356"><ele>12.0</ele><time>2026-04-27T14:21:00.213Z</time></trkpt><trkpt lat="39.67069875306829" lon="8.65196433253688"><ele>12.0</ele><time>2026-04-27T14:21:01.213Z</time></trkpt><trkpt lat="39.67093668955386" lon="8.651935769993832"><ele>12.0</ele><time>2026-04-27T14:21:02.213Z</time></trkpt><trkpt lat="39.6711752870185" lon="8.651908369302747"><ele>12.0</ele><time>2026-04-27T14:21:03.213Z</time></trkpt><trkpt lat="39.67141946059953" lon="8.651882670457745"><ele>12.0</ele><time>2026-04-27T14:21:04.213Z</time></trkpt><trkpt lat="39.67166545282861" lon="8.651855494890764"><ele>12.0</ele><time>2026-04-27T14:21:05.213Z</time></trkpt><trkpt lat="39.67190875520343" lon="8.6518337591022"><ele>11.5</ele><time>2026-04-27T14:21:06.213Z</time></trkpt><trkpt lat="39.672142481960975" lon="8.651813889392065"><ele>11.0</ele><time>2026-04-27T14:21:07.213Z</time></trkpt><trkpt lat="39.672377794156276" lon="8.651786384978221"><ele>11.0</ele><time>2026-04-27T14:21:08.213Z</time></trkpt><trkpt lat="39.672607383553995" lon="8.65175946551564"><ele>11.0</ele><time>2026-04-27T14:21:09.213Z</time></trkpt><trkpt lat="39.67283701568934" lon="8.651734046062728"><ele>11.5</ele><time>2026-04-27T14:21:10.213Z</time></trkpt><trkpt lat="39.67306830897628" lon="8.651711235803377"><ele>12.0</ele><time>2026-04-27T14:21:11.213Z</time></trkpt><trkpt lat="39.67330330552278" lon="8.651688136408367"><ele>12.0</ele><time>2026-04-27T14:21:12.213Z</time></trkpt><trkpt lat="39.6735314660087" lon="8.65166452848096"><ele>12.0</ele><time>2026-04-27T14:21:13.213Z</time></trkpt><trkpt lat="39.67376052529238" lon="8.65164281922752"><ele>12.333333333333332</ele><time>2026-04-27T14:21:14.213Z</time></trkpt><trkpt lat="39.67398567819505" lon="8.65162182633325"><ele>12.666666666666666</ele><time>2026-04-27T14:21:15.213Z</time></trkpt><trkpt lat="39.674206428690134" lon="8.65159891181867"><ele>13.0</ele><time>2026-04-27T14:21:16.213Z</time></trkpt><trkpt lat="39.67442431669052" lon="8.65157637363801"><ele>12.333333333333332</ele><time>2026-04-27T14:21:17.213Z</time></trkpt><trkpt lat="39.67464191744038" lon="8.651552790836327"><ele>11.666666666666666</ele><time>2026-04-27T14:21:18.213Z</time></trkpt><trkpt lat="39.674857925254884" lon="8.651530004960284"><ele>11.0</ele><time>2026-04-27T14:21:19.214Z</time></trkpt><trkpt lat="39.67507515735636" lon="8.651508154698671"><ele>11.333333333333332</ele><time>2026-04-27T14:21:20.214Z</time></trkpt><trkpt lat="39.67528870872664" lon="8.65148654513527"><ele>11.666666666666666</ele><time>2026-04-27T14:21:21.214Z</time></trkpt><trkpt lat="39.67550189361523" lon="8.651460670643226"><ele>12.0</ele><time>2026-04-27T14:21:22.214Z</time></trkpt><trkpt lat="39.675713011501486" lon="8.651438248721655"><ele>12.0</ele><time>2026-04-27T14:21:23.214Z</time></trkpt><trkpt lat="39.675927650504825" lon="8.651417573563535"><ele>12.0</ele><time>2026-04-27T14:21:24.214Z</time></trkpt><trkpt lat="39.67614434235343" lon="8.651393396026332"><ele>12.0</ele><time>2026-04-27T14:21:25.214Z</time></trkpt><trkpt lat="39.676357020765394" lon="8.651370061426023"><ele>12.666666666666668</ele><time>2026-04-27T14:21:26.214Z</time></trkpt><trkpt lat="39.676572838355554" lon="8.6513523011221"><ele>13.333333333333334</ele><time>2026-04-27T14:21:27.214Z</time></trkpt><trkpt lat="39.67679022705917" lon="8.651335759337949"><ele>14.0</ele><time>2026-04-27T14:21:28.214Z</time></trkpt><trkpt lat="39.6770091408896" lon="8.65131142924419"><ele>14.0</ele><time>2026-04-27T14:21:29.214Z</time></trkpt><trkpt lat="39.67722153507971" lon="8.651278999798468"><ele>14.0</ele><time>2026-04-27T14:21:30.214Z</time></trkpt><trkpt lat="39.67742820081019" lon="8.651253661057128"><ele>14.0</ele><time>2026-04-27T14:21:31.214Z</time></trkpt><trkpt lat="39.677618714790555" lon="8.651229314861782"><ele>14.333333333333334</ele><time>2026-04-27T14:21:32.214Z</time></trkpt><trkpt lat="39.67780152648866" lon="8.651208153144948"><ele>14.666666666666668</ele><time>2026-04-27T14:21:33.214Z</time></trkpt><trkpt lat="39.67797262208091" lon="8.65119455674054"><ele>15.0</ele><time>2026-04-27T14:21:34.214Z</time></trkpt><trkpt lat="39.678129026724676" lon="8.651184907781365"><ele>15.0</ele><time>2026-04-27T14:21:35.214Z</time></trkpt><trkpt lat="39.678275534391425" lon="8.651172570914312"><ele>15.0</ele><time>2026-04-27T14:21:36.214Z</time></trkpt><trkpt lat="39.678412146187945" lon="8.651156800727541"><ele>15.0</ele><time>2026-04-27T14:21:37.214Z</time></trkpt><trkpt lat="39.67853210014905" lon="8.651142406188528"><ele>15.0</ele><time>2026-04-27T14:21:38.214Z</time></trkpt><trkpt lat="39.67864064163118" lon="8.651124863598527"><ele>15.0</ele><time>2026-04-27T14:21:39.214Z</time></trkpt><trkpt lat="39.67874385097729" lon="8.65110473358626"><ele>15.0</ele><time>2026-04-27T14:21:40.214Z</time></trkpt><trkpt lat="39.67883561598912" lon="8.651078929571101"><ele>15.0</ele><time>2026-04-27T14:21:41.214Z</time></trkpt><trkpt lat="39.67892254840058" lon="8.651090911938738"><ele>15.0</ele><time>2026-04-27T14:21:42.214Z</time></trkpt><trkpt lat="39.679006345284606" lon="8.651152671166624"><ele>15.0</ele><time>2026-04-27T14:21:43.214Z</time></trkpt><trkpt lat="39.67909335375565" lon="8.651189799738463"><ele>15.0</ele><time>2026-04-27T14:21:44.214Z</time></trkpt><trkpt lat="39.679176273739145" lon="8.651165965719215"><ele>15.0</ele><time>2026-04-27T14:21:45.214Z</time></trkpt><trkpt lat="39.67924815783485" lon="8.651087028176699"><ele>15.0</ele><time>2026-04-27T14:21:46.214Z</time></trkpt><trkpt lat="39.679310268829106" lon="8.650989206212692"><ele>15.0</ele><time>2026-04-27T14:21:47.214Z</time></trkpt><trkpt lat="39.67938584670074" lon="8.650915398873721"><ele>15.0</ele><time>2026-04-27T14:21:48.214Z</time></trkpt><trkpt lat="39.67948350204973" lon="8.65086946739659"><ele>15.25</ele><time>2026-04-27T14:21:49.214Z</time></trkpt><trkpt lat="39.6795884252338" lon="8.650809562678585"><ele>15.5</ele><time>2026-04-27T14:21:50.214Z</time></trkpt><trkpt lat="39.67969099807532" lon="8.65074033103341"><ele>15.75</ele><time>2026-04-27T14:21:51.214Z</time></trkpt><trkpt lat="39.67979542998403" lon="8.650667779667296"><ele>16.0</ele><time>2026-04-27T14:21:52.214Z</time></trkpt><trkpt lat="39.67989755100933" lon="8.650585849554263"><ele>16.0</ele><time>2026-04-27T14:21:53.214Z</time></trkpt><trkpt lat="39.67999983188002" lon="8.650497629558288"><ele>16.0</ele><time>2026-04-27T14:21:54.214Z</time></trkpt><trkpt lat="39.68010162120946" lon="8.65040101656005"><ele>16.0</ele><time>2026-04-27T14:21:55.214Z</time></trkpt><trkpt lat="39.68020215667806" lon="8.650295842775355"><ele>16.0</ele><time>2026-04-27T14:21:56.214Z</time></trkpt><trkpt lat="39.680304314398" lon="8.650188886417167"><ele>16.0</ele><time>2026-04-27T14:21:57.216Z</time></trkpt><trkpt lat="39.68040920857538" lon="8.65008653794106"><ele>16.0</ele><time>2026-04-27T14:21:58.215Z</time></trkpt><trkpt lat="39.68051748346307" lon="8.649979163945227"><ele>16.0</ele><time>2026-04-27T14:21:59.215Z</time></trkpt><trkpt lat="39.680624772594975" lon="8.649869236863683"><ele>16.0</ele><time>2026-04-27T14:22:00.216Z</time></trkpt><trkpt lat="39.68073218290422" lon="8.649752806597906"><ele>16.0</ele><time>2026-04-27T14:22:01.216Z</time></trkpt><trkpt lat="39.68084372296416" lon="8.64963602869406"><ele>16.0</ele><time>2026-04-27T14:22:02.216Z</time></trkpt><trkpt lat="39.68095858110696" lon="8.649526479241219"><ele>16.0</ele><time>2026-04-27T14:22:03.215Z</time></trkpt><trkpt lat="39.681072045172876" lon="8.649415339811505"><ele>16.0</ele><time>2026-04-27T14:22:04.216Z</time></trkpt><trkpt lat="39.681182583381506" lon="8.649299621661562"><ele>16.0</ele><time>2026-04-27T14:22:05.216Z</time></trkpt><trkpt lat="39.681296319319195" lon="8.649183851712737"><ele>16.0</ele><time>2026-04-27T14:22:06.216Z</time></trkpt><trkpt lat="39.68141283739919" lon="8.649061989675372"><ele>16.0</ele><time>2026-04-27T14:22:07.215Z</time></trkpt><trkpt lat="39.68152605684658" lon="8.648950862467322"><ele>16.0</ele><time>2026-04-27T14:22:08.215Z</time></trkpt><trkpt lat="39.68163418006516" lon="8.648837497034402"><ele>16.0</ele><time>2026-04-27T14:22:09.216Z</time></trkpt><trkpt lat="39.681751015316" lon="8.648724885397185"><ele>16.0</ele><time>2026-04-27T14:22:10.216Z</time></trkpt><trkpt lat="39.681860756450526" lon="8.648619398163575"><ele>16.0</ele><time>2026-04-27T14:22:11.216Z</time></trkpt><trkpt lat="39.68196039594881" lon="8.648504536431874"><ele>16.0</ele><time>2026-04-27T14:22:12.216Z</time></trkpt><trkpt lat="39.68205659791424" lon="8.648399802625276"><ele>16.0</ele><time>2026-04-27T14:22:13.216Z</time></trkpt><trkpt lat="39.68215567113165" lon="8.648298175336839"><ele>16.0</ele><time>2026-04-27T14:22:14.216Z</time></trkpt><trkpt lat="39.682254151053975" lon="8.648194759631968"><ele>16.0</ele><time>2026-04-27T14:22:15.216Z</time></trkpt><trkpt lat="39.68234757749778" lon="8.648097479295924"><ele>16.0</ele><time>2026-04-27T14:22:16.216Z</time></trkpt><trkpt lat="39.68243860866471" lon="8.64800006270294"><ele>16.0</ele><time>2026-04-27T14:22:17.216Z</time></trkpt><trkpt lat="39.682530932476155" lon="8.647911234090685"><ele>16.0</ele><time>2026-04-27T14:22:18.216Z</time></trkpt><trkpt lat="39.6826228192435" lon="8.647823642437144"><ele>16.0</ele><time>2026-04-27T14:22:19.216Z</time></trkpt><trkpt lat="39.682713218595396" lon="8.647734304610816"><ele>16.0</ele><time>2026-04-27T14:22:20.216Z</time></trkpt><trkpt lat="39.682800977483375" lon="8.647651470060902"><ele>16.2</ele><time>2026-04-27T14:22:21.216Z</time></trkpt><trkpt lat="39.68289498152046" lon="8.64756662027456"><ele>16.400000000000002</ele><time>2026-04-27T14:22:22.216Z</time></trkpt><trkpt lat="39.68298939702649" lon="8.647476785727738"><ele>16.6</ele><time>2026-04-27T14:22:23.216Z</time></trkpt><trkpt lat="39.683075891670974" lon="8.647390674306912"><ele>16.8</ele><time>2026-04-27T14:22:24.216Z</time></trkpt><trkpt lat="39.68316317588268" lon="8.647309474007137"><ele>17.0</ele><time>2026-04-27T14:22:25.216Z</time></trkpt><trkpt lat="39.68323947003122" lon="8.647218427529282"><ele>17.0</ele><time>2026-04-27T14:22:26.216Z</time></trkpt><trkpt lat="39.68331938829737" lon="8.647128634788075"><ele>17.0</ele><time>2026-04-27T14:22:27.216Z</time></trkpt><trkpt lat="39.683411402596825" lon="8.647038038616842"><ele>17.0</ele><time>2026-04-27T14:22:28.216Z</time></trkpt><trkpt lat="39.68350710825431" lon="8.646946101581982"><ele>17.0</ele><time>2026-04-27T14:22:29.216Z</time></trkpt><trkpt lat="39.68360218032975" lon="8.646853335703995"><ele>16.75</ele><time>2026-04-27T14:22:30.216Z</time></trkpt><trkpt lat="39.6836974015452" lon="8.646758138209893"><ele>16.5</ele><time>2026-04-27T14:22:31.216Z</time></trkpt><trkpt lat="39.68379326328089" lon="8.646664750772471"><ele>16.25</ele><time>2026-04-27T14:22:32.216Z</time></trkpt><trkpt lat="39.68388279063061" lon="8.64656144712265"><ele>16.0</ele><time>2026-04-27T14:22:33.216Z</time></trkpt><trkpt lat="39.68396425018564" lon="8.646449656047741"><ele>16.0</ele><time>2026-04-27T14:22:34.216Z</time></trkpt><trkpt lat="39.684034196032776" lon="8.646332420209864"><ele>16.0</ele><time>2026-04-27T14:22:35.216Z</time></trkpt><trkpt lat="39.68409046261376" lon="8.646210529424165"><ele>16.0</ele><time>2026-04-27T14:22:36.216Z</time></trkpt><trkpt lat="39.68413643596405" lon="8.646089122433049"><ele>16.0</ele><time>2026-04-27T14:22:37.216Z</time></trkpt><trkpt lat="39.68417334675313" lon="8.645980101360765"><ele>16.0</ele><time>2026-04-27T14:22:38.216Z</time></trkpt><trkpt lat="39.68420887596236" lon="8.645888620832743"><ele>15.600000000000001</ele><time>2026-04-27T14:22:39.216Z</time></trkpt><trkpt lat="39.684274067379505" lon="8.645813832348772"><ele>15.200000000000001</ele><time>2026-04-27T14:22:41.216Z</time></trkpt><trkpt lat="39.68437575949183" lon="8.645895919282147"><ele>14.799999999999999</ele><time>2026-04-27T14:22:43.216Z</time></trkpt><trkpt lat="39.68442940477301" lon="8.645973756034019"><ele>14.399999999999999</ele><time>2026-04-27T14:22:44.216Z</time></trkpt><trkpt lat="39.68449028981673" lon="8.6460391689546"><ele>14.0</ele><time>2026-04-27T14:22:45.216Z</time></trkpt><trkpt lat="39.68455847253338" lon="8.646105093130778"><ele>14.2</ele><time>2026-04-27T14:22:46.216Z</time></trkpt><trkpt lat="39.68462432055098" lon="8.646188865803131"><ele>14.399999999999999</ele><time>2026-04-27T14:22:47.216Z</time></trkpt><trkpt lat="39.68468107254904" lon="8.646282207574442"><ele>14.6</ele><time>2026-04-27T14:22:48.216Z</time></trkpt><trkpt lat="39.68473375966078" lon="8.646380401811394"><ele>14.8</ele><time>2026-04-27T14:22:49.216Z</time></trkpt><trkpt lat="39.684789528887926" lon="8.646474761804592"><ele>15.0</ele><time>2026-04-27T14:22:50.216Z</time></trkpt><trkpt lat="39.68484119638335" lon="8.646568739639289"><ele>15.0</ele><time>2026-04-27T14:22:51.216Z</time></trkpt><trkpt lat="39.68489941632644" lon="8.646664602687727"><ele>15.0</ele><time>2026-04-27T14:22:52.216Z</time></trkpt><trkpt lat="39.684961426603245" lon="8.646759643544167"><ele>15.0</ele><time>2026-04-27T14:22:53.216Z</time></trkpt><trkpt lat="39.68502033634591" lon="8.646851874435"><ele>15.0</ele><time>2026-04-27T14:22:54.216Z</time></trkpt><trkpt lat="39.68506717896056" lon="8.646932033320505"><ele>15.0</ele><time>2026-04-27T14:22:55.216Z</time></trkpt><trkpt lat="39.685097058837876" lon="8.647007289123655"><ele>15.0</ele><time>2026-04-27T14:22:56.216Z</time></trkpt><trkpt lat="39.685156150994324" lon="8.647100513452722"><ele>15.0</ele><time>2026-04-27T14:22:58.216Z</time></trkpt><trkpt lat="39.68520140029819" lon="8.647159089125028"><ele>15.0</ele><time>2026-04-27T14:23:00.216Z</time></trkpt><trkpt lat="39.685251808864706" lon="8.647239462570067"><ele>15.0</ele><time>2026-04-27T14:23:03.216Z</time></trkpt><trkpt lat="39.68530972174732" lon="8.647291784404185"><ele>15.0</ele><time>2026-04-27T14:28:13.223Z</time></trkpt><trkpt lat="39.68535510056659" lon="8.647360421710358"><ele>15.0</ele><time>2026-04-27T14:28:15.225Z</time></trkpt><trkpt lat="39.68541580910928" lon="8.647455541759452"><ele>15.0</ele><time>2026-04-27T14:28:17.224Z</time></trkpt><trkpt lat="39.685483164938034" lon="8.647569345174439"><ele>15.0</ele><time>2026-04-27T14:28:19.224Z</time></trkpt><trkpt lat="39.685553053971134" lon="8.647682929775375"><ele>15.0</ele><time>2026-04-27T14:28:21.224Z</time></trkpt><trkpt lat="39.68562600452706" lon="8.647807808835553"><ele>15.0</ele><time>2026-04-27T14:28:23.224Z</time></trkpt><trkpt lat="39.685667460667" lon="8.647871783085824"><ele>15.0</ele><time>2026-04-27T14:28:24.224Z</time></trkpt><trkpt lat="39.685714347285746" lon="8.647944545601554"><ele>15.0</ele><time>2026-04-27T14:28:25.224Z</time></trkpt><trkpt lat="39.68576170968882" lon="8.648016475865003"><ele>15.0</ele><time>2026-04-27T14:28:26.224Z</time></trkpt><trkpt lat="39.685805102717964" lon="8.648101599024146"><ele>15.0</ele><time>2026-04-27T14:28:27.225Z</time></trkpt><trkpt lat="39.685850534904596" lon="8.648189365225077"><ele>15.0</ele><time>2026-04-27T14:28:28.224Z</time></trkpt><trkpt lat="39.68590203286691" lon="8.648277288179909"><ele>15.0</ele><time>2026-04-27T14:28:29.224Z</time></trkpt><trkpt lat="39.68595754723643" lon="8.648362136556086"><ele>15.0</ele><time>2026-04-27T14:28:30.224Z</time></trkpt><trkpt lat="39.68601408173343" lon="8.648447127706296"><ele>15.0</ele><time>2026-04-27T14:28:31.224Z</time></trkpt><trkpt lat="39.68606804387238" lon="8.648540242812908"><ele>15.0</ele><time>2026-04-27T14:28:32.224Z</time></trkpt><trkpt lat="39.68612151143648" lon="8.64863242110998"><ele>15.6</ele><time>2026-04-27T14:28:33.224Z</time></trkpt><trkpt lat="39.68617629954598" lon="8.648723434725381"><ele>16.2</ele><time>2026-04-27T14:28:34.224Z</time></trkpt><trkpt lat="39.68622125858059" lon="8.648808189700366"><ele>16.8</ele><time>2026-04-27T14:28:35.224Z</time></trkpt><trkpt lat="39.686258249600215" lon="8.648884208817185"><ele>17.4</ele><time>2026-04-27T14:28:36.225Z</time></trkpt><trkpt lat="39.68630351212175" lon="8.649021393028363"><ele>18.0</ele><time>2026-04-27T14:28:38.225Z</time></trkpt><trkpt lat="39.68633422577821" lon="8.649182573094373"><ele>18.000000000000004</ele><time>2026-04-27T14:28:40.225Z</time></trkpt><trkpt lat="39.68634620879643" lon="8.649270222533032"><ele>18.0</ele><time>2026-04-27T14:28:41.225Z</time></trkpt><trkpt lat="39.68635313785517" lon="8.649363301958669"><ele>18.0</ele><time>2026-04-27T14:28:42.225Z</time></trkpt><trkpt lat="39.68635721043297" lon="8.649459739035736"><ele>18.0</ele><time>2026-04-27T14:28:43.225Z</time></trkpt><trkpt lat="39.68636438456165" lon="8.649557276264463"><ele>18.0</ele><time>2026-04-27T14:28:44.225Z</time></trkpt><trkpt lat="39.68636983104558" lon="8.64965194521147"><ele>18.000000000000004</ele><time>2026-04-27T14:28:45.225Z</time></trkpt><trkpt lat="39.68637179840988" lon="8.649744298043307"><ele>18.0</ele><time>2026-04-27T14:28:46.225Z</time></trkpt><trkpt lat="39.68637347012464" lon="8.649835549704173"><ele>18.142857142857146</ele><time>2026-04-27T14:28:47.225Z</time></trkpt><trkpt lat="39.686375422454276" lon="8.649923969864837"><ele>18.285714285714285</ele><time>2026-04-27T14:28:48.225Z</time></trkpt><trkpt lat="39.68637732526026" lon="8.650012883260187"><ele>18.42857142857143</ele><time>2026-04-27T14:28:49.225Z</time></trkpt><trkpt lat="39.68637729271292" lon="8.65010246384966"><ele>18.571428571428573</ele><time>2026-04-27T14:28:50.225Z</time></trkpt><trkpt lat="39.686379652417294" lon="8.650193063557383"><ele>18.714285714285715</ele><time>2026-04-27T14:28:51.225Z</time></trkpt><trkpt lat="39.68638064738667" lon="8.650282232870378"><ele>18.857142857142858</ele><time>2026-04-27T14:28:52.225Z</time></trkpt><trkpt lat="39.68638205739624" lon="8.650372470251517"><ele>19.0</ele><time>2026-04-27T14:28:53.225Z</time></trkpt><trkpt lat="39.68638387880989" lon="8.650462050805974"><ele>18.666666666666664</ele><time>2026-04-27T14:28:54.225Z</time></trkpt><trkpt lat="39.68638573138024" lon="8.650553002653636"><ele>18.333333333333332</ele><time>2026-04-27T14:28:55.225Z</time></trkpt><trkpt lat="39.686385213393905" lon="8.650648995092167"><ele>18.0</ele><time>2026-04-27T14:28:56.225Z</time></trkpt><trkpt lat="39.686390836732016" lon="8.650753422890137"><ele>17.666666666666668</ele><time>2026-04-27T14:28:57.225Z</time></trkpt><trkpt lat="39.68639189797214" lon="8.650869199260086"><ele>17.333333333333336</ele><time>2026-04-27T14:28:58.225Z</time></trkpt><trkpt lat="39.68639116129413" lon="8.650990291137294"><ele>17.0</ele><time>2026-04-27T14:28:59.225Z</time></trkpt><trkpt lat="39.686397746741726" lon="8.65111559392414"><ele>17.4</ele><time>2026-04-27T14:29:00.225Z</time></trkpt><trkpt lat="39.68639847609516" lon="8.651241338578686"><ele>17.799999999999997</ele><time>2026-04-27T14:29:01.225Z</time></trkpt><trkpt lat="39.6863987742538" lon="8.651369117716035"><ele>18.2</ele><time>2026-04-27T14:29:02.225Z</time></trkpt><trkpt lat="39.68640095957221" lon="8.651497931983323"><ele>18.599999999999998</ele><time>2026-04-27T14:29:03.225Z</time></trkpt><trkpt lat="39.68640323127478" lon="8.651627958475826"><ele>19.0</ele><time>2026-04-27T14:29:04.225Z</time></trkpt><trkpt lat="39.68640430850384" lon="8.651757028551215"><ele>19.0</ele><time>2026-04-27T14:29:05.225Z</time></trkpt><trkpt lat="39.68640669065709" lon="8.65189223465851"><ele>19.0</ele><time>2026-04-27T14:29:06.225Z</time></trkpt><trkpt lat="39.68640884410758" lon="8.65202634377998"><ele>19.0</ele><time>2026-04-27T14:29:07.225Z</time></trkpt><trkpt lat="39.68641364899152" lon="8.652163554351983"><ele>19.0</ele><time>2026-04-27T14:29:08.225Z</time></trkpt><trkpt lat="39.68641571226354" lon="8.652300147907981"><ele>19.0</ele><time>2026-04-27T14:29:09.225Z</time></trkpt><trkpt lat="39.68641722582809" lon="8.652436243386544"><ele>18.8</ele><time>2026-04-27T14:29:10.225Z</time></trkpt><trkpt lat="39.68642013327785" lon="8.652572835357578"><ele>18.599999999999998</ele><time>2026-04-27T14:29:11.225Z</time></trkpt><trkpt lat="39.686423101398354" lon="8.652714106955127"><ele>18.4</ele><time>2026-04-27T14:29:12.225Z</time></trkpt><trkpt lat="39.68642606300754" lon="8.65285095499883"><ele>18.2</ele><time>2026-04-27T14:29:13.225Z</time></trkpt><trkpt lat="39.68643108833037" lon="8.65299778440991"><ele>18.0</ele><time>2026-04-27T14:29:14.225Z</time></trkpt><trkpt lat="39.686434265862964" lon="8.653139211720427"><ele>18.0</ele><time>2026-04-27T14:29:15.225Z</time></trkpt><trkpt lat="39.68643737223025" lon="8.653282674208825"><ele>18.0</ele><time>2026-04-27T14:29:16.225Z</time></trkpt><trkpt lat="39.68643895305304" lon="8.653431630760995"><ele>18.0</ele><time>2026-04-27T14:29:17.225Z</time></trkpt><trkpt lat="39.686439806969624" lon="8.653575910234801"><ele>18.0</ele><time>2026-04-27T14:29:18.225Z</time></trkpt><trkpt lat="39.686444938927906" lon="8.653722949395346"><ele>18.0</ele><time>2026-04-27T14:29:19.225Z</time></trkpt><trkpt lat="39.68645014147141" lon="8.653888609879392"><ele>18.0</ele><time>2026-04-27T14:29:20.225Z</time></trkpt><trkpt lat="39.68645690106298" lon="8.65406442901273"><ele>18.0</ele><time>2026-04-27T14:29:21.225Z</time></trkpt><trkpt lat="39.68646505920364" lon="8.65424975408476"><ele>18.0</ele><time>2026-04-27T14:29:22.225Z</time></trkpt><trkpt lat="39.68647318148434" lon="8.654440051719218"><ele>18.0</ele><time>2026-04-27T14:29:23.225Z</time></trkpt><trkpt lat="39.68648498600961" lon="8.65464177352488"><ele>18.333333333333332</ele><time>2026-04-27T14:29:24.225Z</time></trkpt><trkpt lat="39.686488416502215" lon="8.654853379519455"><ele>18.666666666666664</ele><time>2026-04-27T14:29:25.225Z</time></trkpt><trkpt lat="39.68648728421446" lon="8.655079718689878"><ele>19.0</ele><time>2026-04-27T14:29:26.225Z</time></trkpt><trkpt lat="39.686480415520876" lon="8.655313793676314"><ele>19.333333333333332</ele><time>2026-04-27T14:29:27.225Z</time></trkpt><trkpt lat="39.68648462171941" lon="8.655554083043194"><ele>19.666666666666668</ele><time>2026-04-27T14:29:28.225Z</time></trkpt><trkpt lat="39.686494766534686" lon="8.655808196249225"><ele>20.0</ele><time>2026-04-27T14:29:29.225Z</time></trkpt><trkpt lat="39.6865036101387" lon="8.65607342029079"><ele>19.333333333333336</ele><time>2026-04-27T14:29:30.225Z</time></trkpt><trkpt lat="39.68651165850936" lon="8.656337570663503"><ele>18.666666666666668</ele><time>2026-04-27T14:29:31.225Z</time></trkpt><trkpt lat="39.68651694059619" lon="8.656613678195077"><ele>18.0</ele><time>2026-04-27T14:29:32.225Z</time></trkpt><trkpt lat="39.68652345040279" lon="8.656898099404877"><ele>18.0</ele><time>2026-04-27T14:29:33.225Z</time></trkpt><trkpt lat="39.68653311472064" lon="8.657191957626873"><ele>18.0</ele><time>2026-04-27T14:29:34.225Z</time></trkpt><trkpt lat="39.68653862879911" lon="8.657486396534047"><ele>17.0</ele><time>2026-04-27T14:29:35.225Z</time></trkpt><trkpt lat="39.6865406705719" lon="8.657792983272723"><ele>16.0</ele><time>2026-04-27T14:29:36.225Z</time></trkpt><trkpt lat="39.68654477668529" lon="8.658101843465191"><ele>16.0</ele><time>2026-04-27T14:29:37.225Z</time></trkpt><trkpt lat="39.686549935078574" lon="8.658415931633225"><ele>16.0</ele><time>2026-04-27T14:29:38.225Z</time></trkpt><trkpt lat="39.686557541821806" lon="8.658738918771428"><ele>15.5</ele><time>2026-04-27T14:29:39.225Z</time></trkpt><trkpt lat="39.68656756599344" lon="8.659063882676646"><ele>15.0</ele><time>2026-04-27T14:29:40.225Z</time></trkpt><trkpt lat="39.68657549951136" lon="8.65939389535848"><ele>16.5</ele><time>2026-04-27T14:29:41.225Z</time></trkpt><trkpt lat="39.68657748694366" lon="8.65971904048112"><ele>18.0</ele><time>2026-04-27T14:29:42.225Z</time></trkpt><trkpt lat="39.686586463949496" lon="8.660043680179331"><ele>18.5</ele><time>2026-04-27T14:29:43.225Z</time></trkpt><trkpt lat="39.68659786041275" lon="8.660374540881273"><ele>19.0</ele><time>2026-04-27T14:29:44.225Z</time></trkpt><trkpt lat="39.68660142251311" lon="8.660708057693597"><ele>19.0</ele><time>2026-04-27T14:29:45.225Z</time></trkpt><trkpt lat="39.68660696739675" lon="8.661039712354711"><ele>19.0</ele><time>2026-04-27T14:29:46.225Z</time></trkpt><trkpt lat="39.686613363840955" lon="8.66137050052025"><ele>18.5</ele><time>2026-04-27T14:29:47.225Z</time></trkpt><trkpt lat="39.686620847730325" lon="8.661705796418357"><ele>18.0</ele><time>2026-04-27T14:29:48.225Z</time></trkpt><trkpt lat="39.686629752216525" lon="8.662039764342227"><ele>16.5</ele><time>2026-04-27T14:29:49.226Z</time></trkpt><trkpt lat="39.68663471188222" lon="8.662371532929066"><ele>15.0</ele><time>2026-04-27T14:29:50.226Z</time></trkpt><trkpt lat="39.68664005391804" lon="8.662704383164895"><ele>16.5</ele><time>2026-04-27T14:29:51.226Z</time></trkpt><trkpt lat="39.6866486813888" lon="8.663038388721581"><ele>18.0</ele><time>2026-04-27T14:29:52.226Z</time></trkpt><trkpt lat="39.68665501921417" lon="8.663370157286918"><ele>18.5</ele><time>2026-04-27T14:29:53.226Z</time></trkpt><trkpt lat="39.68666498701099" lon="8.663704986732531"><ele>19.0</ele><time>2026-04-27T14:29:54.226Z</time></trkpt><trkpt lat="39.686673359244715" lon="8.664040186146012"><ele>19.0</ele><time>2026-04-27T14:29:55.226Z</time></trkpt><trkpt lat="39.686678845120454" lon="8.664373358524927"><ele>19.0</ele><time>2026-04-27T14:29:56.226Z</time></trkpt><trkpt lat="39.6866788062852" lon="8.66470736115831"><ele>18.5</ele><time>2026-04-27T14:29:57.226Z</time></trkpt><trkpt lat="39.68668295316392" lon="8.66503376764414"><ele>18.0</ele><time>2026-04-27T14:29:58.226Z</time></trkpt><trkpt lat="39.6866911413915" lon="8.665365168738678"><ele>18.0</ele><time>2026-04-27T14:29:59.226Z</time></trkpt><trkpt lat="39.68669876727636" lon="8.66570012496851"><ele>18.0</ele><time>2026-04-27T14:30:00.226Z</time></trkpt><trkpt lat="39.686703878795214" lon="8.666034306491618"><ele>18.0</ele><time>2026-04-27T14:30:01.226Z</time></trkpt><trkpt lat="39.68670824904972" lon="8.66636648431985"><ele>18.0</ele><time>2026-04-27T14:30:02.226Z</time></trkpt><trkpt lat="39.68671474620949" lon="8.666697604024817"><ele>18.5</ele><time>2026-04-27T14:30:03.226Z</time></trkpt><trkpt lat="39.686720333623946" lon="8.667030506693479"><ele>19.0</ele><time>2026-04-27T14:30:04.226Z</time></trkpt><trkpt lat="39.686729483902795" lon="8.667366864936724"><ele>19.0</ele><time>2026-04-27T14:30:05.226Z</time></trkpt><trkpt lat="39.686734607550775" lon="8.667700787088629"><ele>19.0</ele><time>2026-04-27T14:30:06.226Z</time></trkpt><trkpt lat="39.68673920502917" lon="8.668039950278246"><ele>19.0</ele><time>2026-04-27T14:30:07.226Z</time></trkpt><trkpt lat="39.686745456973405" lon="8.668377441933321"><ele>19.0</ele><time>2026-04-27T14:30:08.226Z</time></trkpt><trkpt lat="39.686748692363125" lon="8.668709224482479"><ele>19.0</ele><time>2026-04-27T14:30:09.226Z</time></trkpt><trkpt lat="39.686751448480855" lon="8.669033312013525"><ele>19.0</ele><time>2026-04-27T14:30:10.226Z</time></trkpt><trkpt lat="39.68675817379341" lon="8.669361930035107"><ele>19.5</ele><time>2026-04-27T14:30:11.226Z</time></trkpt><trkpt lat="39.68676730422987" lon="8.669692765041262"><ele>20.0</ele><time>2026-04-27T14:30:12.226Z</time></trkpt><trkpt lat="39.68677618207603" lon="8.670022564456712"><ele>21.0</ele><time>2026-04-27T14:30:13.226Z</time></trkpt><trkpt lat="39.686786444339" lon="8.670355570299158"><ele>22.0</ele><time>2026-04-27T14:30:14.226Z</time></trkpt><trkpt lat="39.686794557490984" lon="8.67069260310305"><ele>22.0</ele><time>2026-04-27T14:30:15.226Z</time></trkpt><trkpt lat="39.686806447264885" lon="8.671031708920493"><ele>22.0</ele><time>2026-04-27T14:30:16.226Z</time></trkpt><trkpt lat="39.68681539447079" lon="8.671370013301562"><ele>21.0</ele><time>2026-04-27T14:30:17.226Z</time></trkpt><trkpt lat="39.686823280055016" lon="8.671713048465097"><ele>20.0</ele><time>2026-04-27T14:30:18.226Z</time></trkpt><trkpt lat="39.6868267973736" lon="8.672049981742704"><ele>20.0</ele><time>2026-04-27T14:30:19.226Z</time></trkpt><trkpt lat="39.68683294481935" lon="8.672384304677967"><ele>20.0</ele><time>2026-04-27T14:30:20.226Z</time></trkpt><trkpt lat="39.686838489994784" lon="8.672721296356004"><ele>20.0</ele><time>2026-04-27T14:30:21.227Z</time></trkpt><trkpt lat="39.68684463723653" lon="8.673062262490719"><ele>20.0</ele><time>2026-04-27T14:30:22.227Z</time></trkpt><trkpt lat="39.686853967617374" lon="8.673402984872405"><ele>20.5</ele><time>2026-04-27T14:30:23.227Z</time></trkpt><trkpt lat="39.68685761050644" lon="8.673745664040734"><ele>21.0</ele><time>2026-04-27T14:30:24.227Z</time></trkpt><trkpt lat="39.68686561870295" lon="8.674084089742681"><ele>21.0</ele><time>2026-04-27T14:30:25.227Z</time></trkpt><trkpt lat="39.68687164940126" lon="8.674423800901268"><ele>21.0</ele><time>2026-04-27T14:30:26.227Z</time></trkpt><trkpt lat="39.686875654237376" lon="8.674760466984866"><ele>22.0</ele><time>2026-04-27T14:30:27.228Z</time></trkpt><trkpt lat="39.68688220386364" lon="8.67508825286612"><ele>23.0</ele><time>2026-04-27T14:30:28.228Z</time></trkpt><trkpt lat="39.68689084836108" lon="8.675417316772059"><ele>23.0</ele><time>2026-04-27T14:30:29.228Z</time></trkpt><trkpt lat="39.68689786505" lon="8.675750654560382"><ele>23.0</ele><time>2026-04-27T14:30:30.227Z</time></trkpt><trkpt lat="39.68690535938109" lon="8.676086866441203"><ele>22.5</ele><time>2026-04-27T14:30:31.228Z</time></trkpt><trkpt lat="39.68691299319962" lon="8.676423099087618"><ele>22.0</ele><time>2026-04-27T14:30:32.228Z</time></trkpt><trkpt lat="39.68691936057307" lon="8.676755845659047"><ele>22.0</ele><time>2026-04-27T14:30:33.227Z</time></trkpt><trkpt lat="39.68692361997613" lon="8.677089489699418"><ele>22.0</ele><time>2026-04-27T14:30:34.227Z</time></trkpt><trkpt lat="39.68692959264139" lon="8.677421816062868"><ele>22.0</ele><time>2026-04-27T14:30:35.227Z</time></trkpt><trkpt lat="39.686937594959716" lon="8.677755461235968"><ele>22.0</ele><time>2026-04-27T14:30:36.227Z</time></trkpt><trkpt lat="39.68694807838247" lon="8.678093856429951"><ele>22.0</ele><time>2026-04-27T14:30:37.227Z</time></trkpt><trkpt lat="39.68695793449176" lon="8.678430327899736"><ele>22.0</ele><time>2026-04-27T14:30:38.227Z</time></trkpt><trkpt lat="39.68696487050063" lon="8.67876960147043"><ele>21.5</ele><time>2026-04-27T14:30:39.227Z</time></trkpt><trkpt lat="39.68696944504329" lon="8.679108206577041"><ele>21.0</ele><time>2026-04-27T14:30:40.227Z</time></trkpt><trkpt lat="39.6869772430635" lon="8.679442652982695"><ele>20.5</ele><time>2026-04-27T14:30:41.227Z</time></trkpt><trkpt lat="39.68698899635537" lon="8.679779106206249"><ele>20.0</ele><time>2026-04-27T14:30:42.227Z</time></trkpt><trkpt lat="39.68699831646205" lon="8.680116487750162"><ele>20.0</ele><time>2026-04-27T14:30:43.227Z</time></trkpt><trkpt lat="39.687003003752324" lon="8.680456639302239"><ele>20.0</ele><time>2026-04-27T14:30:44.227Z</time></trkpt><trkpt lat="39.687008943197924" lon="8.680793851323765"><ele>20.0</ele><time>2026-04-27T14:30:45.227Z</time></trkpt><trkpt lat="39.68701560953792" lon="8.681129604973368"><ele>20.0</ele><time>2026-04-27T14:30:46.227Z</time></trkpt><trkpt lat="39.687023249233775" lon="8.681465241096136"><ele>20.0</ele><time>2026-04-27T14:30:47.227Z</time></trkpt><trkpt lat="39.687034702455946" lon="8.681805696548436"><ele>20.0</ele><time>2026-04-27T14:30:48.227Z</time></trkpt><trkpt lat="39.68704128256415" lon="8.682147177641266"><ele>20.5</ele><time>2026-04-27T14:30:49.227Z</time></trkpt><trkpt lat="39.6870491260299" lon="8.682488572884111"><ele>21.0</ele><time>2026-04-27T14:30:50.227Z</time></trkpt><trkpt lat="39.68705894981047" lon="8.682834292723726"><ele>21.0</ele><time>2026-04-27T14:30:51.227Z</time></trkpt><trkpt lat="39.68706900949601" lon="8.68318396724614"><ele>21.0</ele><time>2026-04-27T14:30:52.227Z</time></trkpt><trkpt lat="39.68707610835747" lon="8.683521749302912"><ele>21.0</ele><time>2026-04-27T14:30:53.227Z</time></trkpt><trkpt lat="39.6870851546247" lon="8.683855138687054"><ele>21.0</ele><time>2026-04-27T14:30:54.227Z</time></trkpt><trkpt lat="39.68709483937416" lon="8.684194732029225"><ele>20.5</ele><time>2026-04-27T14:30:55.227Z</time></trkpt><trkpt lat="39.6871040393304" lon="8.684535914866442"><ele>20.0</ele><time>2026-04-27T14:30:56.227Z</time></trkpt><trkpt lat="39.687109951713886" lon="8.684878507928746"><ele>20.0</ele><time>2026-04-27T14:30:57.227Z</time></trkpt><trkpt lat="39.68711577245042" lon="8.685219686387189"><ele>20.0</ele><time>2026-04-27T14:30:58.227Z</time></trkpt><trkpt lat="39.68712303413553" lon="8.685562026645043"><ele>20.5</ele><time>2026-04-27T14:30:59.227Z</time></trkpt><trkpt lat="39.68713220862549" lon="8.685903953603354"><ele>21.0</ele><time>2026-04-27T14:31:00.227Z</time></trkpt><trkpt lat="39.68714219746018" lon="8.686240676084523"><ele>21.0</ele><time>2026-04-27T14:31:01.227Z</time></trkpt><trkpt lat="39.68715096334301" lon="8.686574033976456"><ele>21.0</ele><time>2026-04-27T14:31:02.227Z</time></trkpt><trkpt lat="39.68715667241079" lon="8.68690828904512"><ele>22.0</ele><time>2026-04-27T14:31:03.227Z</time></trkpt><trkpt lat="39.687163895678985" lon="8.687248001126646"><ele>23.0</ele><time>2026-04-27T14:31:04.227Z</time></trkpt><trkpt lat="39.6871704442392" lon="8.68758731439184"><ele>22.0</ele><time>2026-04-27T14:31:05.227Z</time></trkpt><trkpt lat="39.687174290134294" lon="8.687924611492871"><ele>21.0</ele><time>2026-04-27T14:31:06.227Z</time></trkpt><trkpt lat="39.6871823267901" lon="8.688261806160304"><ele>21.5</ele><time>2026-04-27T14:31:07.227Z</time></trkpt><trkpt lat="39.68718174769859" lon="8.6886181677098"><ele>22.0</ele><time>2026-04-27T14:31:08.227Z</time></trkpt><trkpt lat="39.687176808435005" lon="8.689004262056269"><ele>22.0</ele><time>2026-04-27T14:31:09.227Z</time></trkpt><trkpt lat="39.687179527741236" lon="8.689422466583848"><ele>22.0</ele><time>2026-04-27T14:31:10.227Z</time></trkpt><trkpt lat="39.68746139275376" lon="8.68940740393025"><ele>22.0</ele><time>2026-04-27T14:31:11.227Z</time></trkpt><trkpt lat="39.687592723852674" lon="8.689657578019563"><ele>22.0</ele><time>2026-04-27T14:31:12.227Z</time></trkpt><trkpt lat="39.687744880271396" lon="8.689891077033277"><ele>22.0</ele><time>2026-04-27T14:31:13.227Z</time></trkpt><trkpt lat="39.68790798037837" lon="8.690116380842202"><ele>22.0</ele><time>2026-04-27T14:31:14.227Z</time></trkpt><trkpt lat="39.688066589155206" lon="8.690332600633903"><ele>22.333333333333332</ele><time>2026-04-27T14:31:15.227Z</time></trkpt><trkpt lat="39.68820337928031" lon="8.690534779883635"><ele>22.666666666666668</ele><time>2026-04-27T14:31:16.227Z</time></trkpt><trkpt lat="39.68833196665614" lon="8.690729436929361"><ele>23.0</ele><time>2026-04-27T14:31:17.227Z</time></trkpt><trkpt lat="39.68845621138259" lon="8.690909456383398"><ele>23.0</ele><time>2026-04-27T14:31:18.227Z</time></trkpt><trkpt lat="39.68857499773834" lon="8.691087117374243"><ele>23.0</ele><time>2026-04-27T14:31:19.227Z</time></trkpt><trkpt lat="39.68869273449004" lon="8.691263518622506"><ele>23.0</ele><time>2026-04-27T14:31:20.227Z</time></trkpt><trkpt lat="39.68881229920685" lon="8.69143604820933"><ele>23.0</ele><time>2026-04-27T14:31:21.227Z</time></trkpt><trkpt lat="39.688938020695936" lon="8.691616442760129"><ele>23.0</ele><time>2026-04-27T14:31:22.227Z</time></trkpt><trkpt lat="39.68906305253016" lon="8.69179943872549"><ele>23.0</ele><time>2026-04-27T14:31:23.227Z</time></trkpt><trkpt lat="39.689189924204946" lon="8.691985310199545"><ele>23.0</ele><time>2026-04-27T14:31:24.228Z</time></trkpt><trkpt lat="39.68930893382358" lon="8.692194744090003"><ele>23.0</ele><time>2026-04-27T14:31:25.228Z</time></trkpt><trkpt lat="39.68941498142495" lon="8.692423366285622"><ele>23.0</ele><time>2026-04-27T14:31:26.228Z</time></trkpt><trkpt lat="39.68950196359155" lon="8.692663529128923"><ele>23.0</ele><time>2026-04-27T14:31:27.228Z</time></trkpt><trkpt lat="39.68958691015125" lon="8.692916999928729"><ele>23.0</ele><time>2026-04-27T14:31:28.228Z</time></trkpt><trkpt lat="39.68967509550592" lon="8.693174588420323"><ele>23.0</ele><time>2026-04-27T14:31:29.228Z</time></trkpt><trkpt lat="39.68976615092352" lon="8.693432956450101"><ele>22.5</ele><time>2026-04-27T14:31:30.228Z</time></trkpt><trkpt lat="39.68985694148999" lon="8.693700831943138"><ele>22.0</ele><time>2026-04-27T14:31:31.228Z</time></trkpt><trkpt lat="39.689952687746846" lon="8.6939717362934"><ele>22.0</ele><time>2026-04-27T14:31:32.228Z</time></trkpt><trkpt lat="39.69005029590686" lon="8.694245755291389"><ele>22.0</ele><time>2026-04-27T14:31:33.228Z</time></trkpt><trkpt lat="39.69014877805292" lon="8.694515224986452"><ele>22.0</ele><time>2026-04-27T14:31:34.228Z</time></trkpt><trkpt lat="39.69024744594015" lon="8.694801343240142"><ele>22.0</ele><time>2026-04-27T14:31:35.228Z</time></trkpt><trkpt lat="39.69034347108485" lon="8.695071391556807"><ele>21.5</ele><time>2026-04-27T14:31:36.228Z</time></trkpt><trkpt lat="39.69044013736386" lon="8.695342386063677"><ele>21.0</ele><time>2026-04-27T14:31:37.228Z</time></trkpt><trkpt lat="39.690541257600316" lon="8.695614528827427"><ele>21.0</ele><time>2026-04-27T14:31:38.228Z</time></trkpt><trkpt lat="39.69064173006447" lon="8.695882447468131"><ele>21.0</ele><time>2026-04-27T14:31:39.228Z</time></trkpt><trkpt lat="39.690741974406116" lon="8.696153072798133"><ele>22.0</ele><time>2026-04-27T14:31:40.228Z</time></trkpt><trkpt lat="39.69084111337331" lon="8.696424186455284"><ele>23.0</ele><time>2026-04-27T14:31:41.228Z</time></trkpt><trkpt lat="39.690940820572074" lon="8.696694542990354"><ele>22.5</ele><time>2026-04-27T14:31:42.228Z</time></trkpt><trkpt lat="39.691040994907404" lon="8.69696763556978"><ele>22.0</ele><time>2026-04-27T14:31:43.228Z</time></trkpt><trkpt lat="39.691143506530956" lon="8.697244184705346"><ele>21.5</ele><time>2026-04-27T14:31:44.228Z</time></trkpt><trkpt lat="39.69124731746724" lon="8.697514818213996"><ele>21.0</ele><time>2026-04-27T14:31:45.228Z</time></trkpt><trkpt lat="39.69135186632069" lon="8.697787652292519"><ele>21.0</ele><time>2026-04-27T14:31:46.228Z</time></trkpt><trkpt lat="39.691447863150835" lon="8.698058028083388"><ele>21.0</ele><time>2026-04-27T14:31:47.228Z</time></trkpt><trkpt lat="39.69154073810258" lon="8.698317416610976"><ele>21.0</ele><time>2026-04-27T14:31:48.228Z</time></trkpt><trkpt lat="39.691627865421154" lon="8.698554123521475"><ele>21.666666666666668</ele><time>2026-04-27T14:31:49.228Z</time></trkpt><trkpt lat="39.69170996438547" lon="8.698789818693324"><ele>22.333333333333336</ele><time>2026-04-27T14:31:50.228Z</time></trkpt><trkpt lat="39.69179025095152" lon="8.699005994357623"><ele>23.0</ele><time>2026-04-27T14:31:51.228Z</time></trkpt><trkpt lat="39.69186311181076" lon="8.699223378679532"><ele>22.0</ele><time>2026-04-27T14:31:52.228Z</time></trkpt><trkpt lat="39.69193894836771" lon="8.699449303051601"><ele>21.0</ele><time>2026-04-27T14:31:53.228Z</time></trkpt><trkpt lat="39.69201825339907" lon="8.699681413316977"><ele>20.0</ele><time>2026-04-27T14:31:54.228Z</time></trkpt><trkpt lat="39.6921060983197" lon="8.699913545814718"><ele>20.0</ele><time>2026-04-27T14:31:55.228Z</time></trkpt><trkpt lat="39.69218900534214" lon="8.70015418471717"><ele>20.0</ele><time>2026-04-27T14:31:56.228Z</time></trkpt><trkpt lat="39.692275942539915" lon="8.700396434591642"><ele>20.0</ele><time>2026-04-27T14:31:57.228Z</time></trkpt><trkpt lat="39.69236532658852" lon="8.700643139173316"><ele>20.333333333333336</ele><time>2026-04-27T14:31:58.228Z</time></trkpt><trkpt lat="39.692451128749134" lon="8.700897757574351"><ele>20.666666666666668</ele><time>2026-04-27T14:31:59.228Z</time></trkpt><trkpt lat="39.69254046197939" lon="8.701146603820948"><ele>21.0</ele><time>2026-04-27T14:32:00.228Z</time></trkpt><trkpt lat="39.69262506737199" lon="8.701399345146745"><ele>21.666666666666668</ele><time>2026-04-27T14:32:01.228Z</time></trkpt><trkpt lat="39.692712742235265" lon="8.70164942344979"><ele>22.333333333333336</ele><time>2026-04-27T14:32:02.228Z</time></trkpt><trkpt lat="39.69280259791396" lon="8.701900300163716"><ele>23.0</ele><time>2026-04-27T14:32:03.228Z</time></trkpt><trkpt lat="39.692890765160584" lon="8.70214647292881"><ele>23.333333333333336</ele><time>2026-04-27T14:32:04.228Z</time></trkpt><trkpt lat="39.69297564706045" lon="8.702387655871288"><ele>23.666666666666668</ele><time>2026-04-27T14:32:05.228Z</time></trkpt><trkpt lat="39.69306127015056" lon="8.702627661460095"><ele>24.0</ele><time>2026-04-27T14:32:06.228Z</time></trkpt><trkpt lat="39.69314659375662" lon="8.702853304962344"><ele>24.0</ele><time>2026-04-27T14:32:07.228Z</time></trkpt><trkpt lat="39.693233379288436" lon="8.703078596815224"><ele>24.0</ele><time>2026-04-27T14:32:08.228Z</time></trkpt><trkpt lat="39.69331603222982" lon="8.703290475347778"><ele>24.0</ele><time>2026-04-27T14:32:09.228Z</time></trkpt><trkpt lat="39.693395985919054" lon="8.703503536354317"><ele>24.333333333333336</ele><time>2026-04-27T14:32:10.228Z</time></trkpt><trkpt lat="39.69347666825171" lon="8.703720785608429"><ele>24.666666666666668</ele><time>2026-04-27T14:32:11.228Z</time></trkpt><trkpt lat="39.69356038247077" lon="8.70393501859346"><ele>25.0</ele><time>2026-04-27T14:32:12.228Z</time></trkpt><trkpt lat="39.693641926959" lon="8.704141714881976"><ele>25.0</ele><time>2026-04-27T14:32:13.228Z</time></trkpt><trkpt lat="39.69372032747871" lon="8.704331927924676"><ele>25.0</ele><time>2026-04-27T14:32:14.228Z</time></trkpt><trkpt lat="39.693791545496616" lon="8.704514592658667"><ele>25.0</ele><time>2026-04-27T14:32:15.228Z</time></trkpt><trkpt lat="39.693859298187945" lon="8.704693110820587"><ele>25.4</ele><time>2026-04-27T14:32:16.228Z</time></trkpt><trkpt lat="39.69391627103299" lon="8.704858012793752"><ele>25.8</ele><time>2026-04-27T14:32:17.228Z</time></trkpt><trkpt lat="39.69396566385231" lon="8.704998445526456"><ele>26.200000000000003</ele><time>2026-04-27T14:32:18.228Z</time></trkpt><trkpt lat="39.69399626401941" lon="8.705127898057116"><ele>26.6</ele><time>2026-04-27T14:32:19.228Z</time></trkpt><trkpt lat="39.69400412937367" lon="8.705235873630846"><ele>27.0</ele><time>2026-04-27T14:32:20.228Z</time></trkpt><trkpt lat="39.69401168651948" lon="8.70531734677127"><ele>27.200000000000003</ele><time>2026-04-27T14:32:21.228Z</time></trkpt><trkpt lat="39.69402947330846" lon="8.705400438366208"><ele>27.400000000000002</ele><time>2026-04-27T14:32:23.228Z</time></trkpt><trkpt lat="39.69397565525374" lon="8.705505877221855"><ele>27.599999999999998</ele><time>2026-04-27T14:32:49.231Z</time></trkpt><trkpt lat="39.69391208944124" lon="8.705571504414811"><ele>27.799999999999997</ele><time>2026-04-27T14:32:50.231Z</time></trkpt><trkpt lat="39.693827270873385" lon="8.705653488560646"><ele>28.0</ele><time>2026-04-27T14:32:51.231Z</time></trkpt><trkpt lat="39.69373375482312" lon="8.705740795776398"><ele>28.0</ele><time>2026-04-27T14:32:52.231Z</time></trkpt><trkpt lat="39.69364229942458" lon="8.705833534605663"><ele>27.999999999999996</ele><time>2026-04-27T14:32:53.231Z</time></trkpt><trkpt lat="39.69355929881538" lon="8.7059224550097"><ele>27.999999999999996</ele><time>2026-04-27T14:32:54.231Z</time></trkpt><trkpt lat="39.69347884067063" lon="8.706002720557164"><ele>28.0</ele><time>2026-04-27T14:32:55.231Z</time></trkpt><trkpt lat="39.69340626600601" lon="8.706076736090097"><ele>28.0</ele><time>2026-04-27T14:32:56.231Z</time></trkpt><trkpt lat="39.693348994209735" lon="8.70616670161067"><ele>27.799999999999997</ele><time>2026-04-27T14:32:57.231Z</time></trkpt><trkpt lat="39.69335280070888" lon="8.706264142450125"><ele>27.599999999999998</ele><time>2026-04-27T14:32:58.231Z</time></trkpt><trkpt lat="39.69338509276378" lon="8.706354435476715"><ele>27.400000000000002</ele><time>2026-04-27T14:32:59.231Z</time></trkpt><trkpt lat="39.693446903277604" lon="8.706443614955843"><ele>27.200000000000003</ele><time>2026-04-27T14:33:00.231Z</time></trkpt><trkpt lat="39.69352335347406" lon="8.706532259931294"><ele>27.0</ele><time>2026-04-27T14:33:01.231Z</time></trkpt><trkpt lat="39.693599089809965" lon="8.70665348084544"><ele>27.5</ele><time>2026-04-27T14:33:02.231Z</time></trkpt><trkpt lat="39.69365057749755" lon="8.7067892774325"><ele>28.0</ele><time>2026-04-27T14:33:03.231Z</time></trkpt><trkpt lat="39.69370575811972" lon="8.70695813385205"><ele>28.5</ele><time>2026-04-27T14:33:04.231Z</time></trkpt><trkpt lat="39.69376326127931" lon="8.707128958317096"><ele>29.0</ele><time>2026-04-27T14:33:05.231Z</time></trkpt><trkpt lat="39.69382239695156" lon="8.707313481960902"><ele>29.666666666666664</ele><time>2026-04-27T14:33:06.231Z</time></trkpt><trkpt lat="39.69389344861154" lon="8.707505643653077"><ele>30.333333333333336</ele><time>2026-04-27T14:33:07.231Z</time></trkpt><trkpt lat="39.693969425390556" lon="8.707701095697105"><ele>31.0</ele><time>2026-04-27T14:33:08.231Z</time></trkpt><trkpt lat="39.69404054902974" lon="8.70790500506435"><ele>31.333333333333336</ele><time>2026-04-27T14:33:09.231Z</time></trkpt><trkpt lat="39.694114144205955" lon="8.708116032430302"><ele>31.666666666666664</ele><time>2026-04-27T14:33:10.231Z</time></trkpt><trkpt lat="39.69419099958184" lon="8.708334590529994"><ele>32.0</ele><time>2026-04-27T14:33:11.231Z</time></trkpt><trkpt lat="39.6942735733329" lon="8.708563704661467"><ele>32.666666666666664</ele><time>2026-04-27T14:33:12.231Z</time></trkpt><trkpt lat="39.69435370202565" lon="8.708791492454612"><ele>33.333333333333336</ele><time>2026-04-27T14:33:13.231Z</time></trkpt><trkpt lat="39.69443799189329" lon="8.709025441794369"><ele>34.0</ele><time>2026-04-27T14:33:14.231Z</time></trkpt><trkpt lat="39.69451869238235" lon="8.709262742731669"><ele>35.0</ele><time>2026-04-27T14:33:15.231Z</time></trkpt><trkpt lat="39.69460559518835" lon="8.709508182621391"><ele>36.0</ele><time>2026-04-27T14:33:16.231Z</time></trkpt><trkpt lat="39.69469748443488" lon="8.709754837002325"><ele>37.0</ele><time>2026-04-27T14:33:17.231Z</time></trkpt><trkpt lat="39.694789592907455" lon="8.710007208284853"><ele>37.0</ele><time>2026-04-27T14:33:18.231Z</time></trkpt><trkpt lat="39.694880358221724" lon="8.710261426354924"><ele>37.0</ele><time>2026-04-27T14:33:19.231Z</time></trkpt><trkpt lat="39.69496998288613" lon="8.710521195226614"><ele>37.0</ele><time>2026-04-27T14:33:20.231Z</time></trkpt><trkpt lat="39.695055125201044" lon="8.71077962637542"><ele>37.0</ele><time>2026-04-27T14:33:21.231Z</time></trkpt><trkpt lat="39.69513829304895" lon="8.711040426089356"><ele>37.0</ele><time>2026-04-27T14:33:22.231Z</time></trkpt><trkpt lat="39.69521474830275" lon="8.711306335882544"><ele>37.0</ele><time>2026-04-27T14:33:23.231Z</time></trkpt><trkpt lat="39.69529006335879" lon="8.711585397301748"><ele>37.5</ele><time>2026-04-27T14:33:24.231Z</time></trkpt><trkpt lat="39.6953621557302" lon="8.711865987949508"><ele>38.0</ele><time>2026-04-27T14:33:25.231Z</time></trkpt><trkpt lat="39.695428781204555" lon="8.712150030223425"><ele>38.5</ele><time>2026-04-27T14:33:26.231Z</time></trkpt><trkpt lat="39.695491622966664" lon="8.71244004259251"><ele>39.0</ele><time>2026-04-27T14:33:27.231Z</time></trkpt><trkpt lat="39.69554978663291" lon="8.712727471938093"><ele>38.5</ele><time>2026-04-27T14:33:28.231Z</time></trkpt><trkpt lat="39.69560572494229" lon="8.713013998807803"><ele>38.0</ele><time>2026-04-27T14:33:29.231Z</time></trkpt><trkpt lat="39.69566165361634" lon="8.713310137420441"><ele>38.5</ele><time>2026-04-27T14:33:30.231Z</time></trkpt><trkpt lat="39.69571373732232" lon="8.713602877550295"><ele>39.0</ele><time>2026-04-27T14:33:31.231Z</time></trkpt><trkpt lat="39.695771310451455" lon="8.713899308496142"><ele>39.0</ele><time>2026-04-27T14:33:32.231Z</time></trkpt><trkpt lat="39.695830820471635" lon="8.714193588169445"><ele>39.0</ele><time>2026-04-27T14:33:33.231Z</time></trkpt><trkpt lat="39.69588429234909" lon="8.714477468049028"><ele>39.5</ele><time>2026-04-27T14:33:34.231Z</time></trkpt><trkpt lat="39.69593965891538" lon="8.714761519175271"><ele>40.0</ele><time>2026-04-27T14:33:35.231Z</time></trkpt><trkpt lat="39.69599319454504" lon="8.715044971247528"><ele>40.0</ele><time>2026-04-27T14:33:36.231Z</time></trkpt><trkpt lat="39.6960457574799" lon="8.71532861130121"><ele>40.0</ele><time>2026-04-27T14:33:37.232Z</time></trkpt><trkpt lat="39.69609668984745" lon="8.715608181641276"><ele>40.0</ele><time>2026-04-27T14:33:38.232Z</time></trkpt><trkpt lat="39.69614755676016" lon="8.71588735105302"><ele>39.333333333333336</ele><time>2026-04-27T14:33:39.232Z</time></trkpt><trkpt lat="39.69619806728553" lon="8.716167901012916"><ele>38.666666666666664</ele><time>2026-04-27T14:33:40.232Z</time></trkpt><trkpt lat="39.696248569429066" lon="8.716456610983007"><ele>38.0</ele><time>2026-04-27T14:33:41.232Z</time></trkpt><trkpt lat="39.69629939319616" lon="8.716745695139368"><ele>38.5</ele><time>2026-04-27T14:33:42.232Z</time></trkpt><trkpt lat="39.696351719259155" lon="8.717040857231375"><ele>39.0</ele><time>2026-04-27T14:33:43.232Z</time></trkpt><trkpt lat="39.69640430533974" lon="8.717333062669569"><ele>39.0</ele><time>2026-04-27T14:33:44.232Z</time></trkpt><trkpt lat="39.696465000355104" lon="8.717621611374666"><ele>39.0</ele><time>2026-04-27T14:33:45.232Z</time></trkpt><trkpt lat="39.696524140640086" lon="8.717921320717505"><ele>39.5</ele><time>2026-04-27T14:33:46.232Z</time></trkpt><trkpt lat="39.69657725772753" lon="8.718219858102866"><ele>40.0</ele><time>2026-04-27T14:33:47.232Z</time></trkpt><trkpt lat="39.69662689722553" lon="8.718523931651907"><ele>39.5</ele><time>2026-04-27T14:33:48.232Z</time></trkpt><trkpt lat="39.696677632498655" lon="8.718812822830664"><ele>39.0</ele><time>2026-04-27T14:33:49.232Z</time></trkpt><trkpt lat="39.696734849899094" lon="8.719118751839982"><ele>39.0</ele><time>2026-04-27T14:33:50.232Z</time></trkpt><trkpt lat="39.69678959932739" lon="8.719419419794164"><ele>39.0</ele><time>2026-04-27T14:33:51.232Z</time></trkpt><trkpt lat="39.69684131993379" lon="8.719719161678599"><ele>39.0</ele><time>2026-04-27T14:33:52.232Z</time></trkpt><trkpt lat="39.69689943164923" lon="8.720011601932914"><ele>39.0</ele><time>2026-04-27T14:33:53.232Z</time></trkpt><trkpt lat="39.69695354111253" lon="8.720308299746742"><ele>39.5</ele><time>2026-04-27T14:33:54.232Z</time></trkpt><trkpt lat="39.69700482697647" lon="8.72060285287351"><ele>40.0</ele><time>2026-04-27T14:33:55.232Z</time></trkpt><trkpt lat="39.69705530204317" lon="8.720897818729407"><ele>40.5</ele><time>2026-04-27T14:33:56.232Z</time></trkpt><trkpt lat="39.69711260149844" lon="8.721191250219993"><ele>41.0</ele><time>2026-04-27T14:33:57.232Z</time></trkpt><trkpt lat="39.697171763182276" lon="8.721488378876304"><ele>41.0</ele><time>2026-04-27T14:33:58.232Z</time></trkpt><trkpt lat="39.69723115434986" lon="8.72178861077633"><ele>41.0</ele><time>2026-04-27T14:33:59.232Z</time></trkpt><trkpt lat="39.69728758481238" lon="8.722090656548154"><ele>42.0</ele><time>2026-04-27T14:34:00.232Z</time></trkpt><trkpt lat="39.697339461417194" lon="8.722391942957954"><ele>43.0</ele><time>2026-04-27T14:34:01.232Z</time></trkpt><trkpt lat="39.69739238967349" lon="8.722688286994028"><ele>42.5</ele><time>2026-04-27T14:34:02.232Z</time></trkpt><trkpt lat="39.69744846345559" lon="8.722983954816334"><ele>42.0</ele><time>2026-04-27T14:34:03.232Z</time></trkpt><trkpt lat="39.697504880581455" lon="8.723272900683423"><ele>42.0</ele><time>2026-04-27T14:34:04.232Z</time></trkpt><trkpt lat="39.697562915410906" lon="8.723562810915192"><ele>42.0</ele><time>2026-04-27T14:34:05.232Z</time></trkpt><trkpt lat="39.69761862287182" lon="8.723854292549317"><ele>43.0</ele><time>2026-04-27T14:34:06.232Z</time></trkpt><trkpt lat="39.69766323204779" lon="8.724151390610245"><ele>44.0</ele><time>2026-04-27T14:34:07.232Z</time></trkpt><trkpt lat="39.6977129189956" lon="8.724436308102247"><ele>44.0</ele><time>2026-04-27T14:34:08.232Z</time></trkpt><trkpt lat="39.6977681144035" lon="8.724718243614962"><ele>44.0</ele><time>2026-04-27T14:34:09.232Z</time></trkpt><trkpt lat="39.69782600324665" lon="8.725014023566468"><ele>45.0</ele><time>2026-04-27T14:34:10.232Z</time></trkpt><trkpt lat="39.69787569888055" lon="8.72530636044223"><ele>46.0</ele><time>2026-04-27T14:34:11.232Z</time></trkpt><trkpt lat="39.69792699004997" lon="8.725596965359454"><ele>46.0</ele><time>2026-04-27T14:34:12.232Z</time></trkpt><trkpt lat="39.69798193420902" lon="8.725883756332632"><ele>46.0</ele><time>2026-04-27T14:34:13.232Z</time></trkpt><trkpt lat="39.698034596412505" lon="8.726170644877621"><ele>46.5</ele><time>2026-04-27T14:34:14.232Z</time></trkpt><trkpt lat="39.69808787556723" lon="8.726459217886957"><ele>47.0</ele><time>2026-04-27T14:34:15.232Z</time></trkpt><trkpt lat="39.69814236554406" lon="8.726745578918635"><ele>47.5</ele><time>2026-04-27T14:34:16.232Z</time></trkpt><trkpt lat="39.69819090835877" lon="8.727034523568372"><ele>48.0</ele><time>2026-04-27T14:34:17.232Z</time></trkpt><trkpt lat="39.69824308240957" lon="8.727324584797017"><ele>48.0</ele><time>2026-04-27T14:34:18.232Z</time></trkpt><trkpt lat="39.69829923048526" lon="8.727617893904082"><ele>48.0</ele><time>2026-04-27T14:34:19.232Z</time></trkpt><trkpt lat="39.69835056359755" lon="8.727913170661811"><ele>48.5</ele><time>2026-04-27T14:34:20.232Z</time></trkpt><trkpt lat="39.69840340455745" lon="8.728208609781513"><ele>49.0</ele><time>2026-04-27T14:34:21.232Z</time></trkpt><trkpt lat="39.69846028531961" lon="8.72850324399568"><ele>49.5</ele><time>2026-04-27T14:34:22.232Z</time></trkpt><trkpt lat="39.698514623023165" lon="8.728805242022291"><ele>50.0</ele><time>2026-04-27T14:34:23.232Z</time></trkpt><trkpt lat="39.69857131731171" lon="8.729107107165953"><ele>51.0</ele><time>2026-04-27T14:34:24.232Z</time></trkpt><trkpt lat="39.69862517306751" lon="8.729412124152278"><ele>52.0</ele><time>2026-04-27T14:34:25.232Z</time></trkpt><trkpt lat="39.698680030843846" lon="8.729718625347488"><ele>52.0</ele><time>2026-04-27T14:34:26.232Z</time></trkpt><trkpt lat="39.69873686009392" lon="8.730025639298978"><ele>52.0</ele><time>2026-04-27T14:34:27.232Z</time></trkpt><trkpt lat="39.698795993428575" lon="8.730338569294148"><ele>54.0</ele><time>2026-04-27T14:34:28.232Z</time></trkpt><trkpt lat="39.69885395484606" lon="8.73065202901847"><ele>56.0</ele><time>2026-04-27T14:34:29.232Z</time></trkpt><trkpt lat="39.698907859886454" lon="8.730967541725843"><ele>56.5</ele><time>2026-04-27T14:34:30.232Z</time></trkpt><trkpt lat="39.69896125577329" lon="8.731285411948564"><ele>57.0</ele><time>2026-04-27T14:34:31.232Z</time></trkpt><trkpt lat="39.69901603916762" lon="8.731601175074925"><ele>58.0</ele><time>2026-04-27T14:34:32.232Z</time></trkpt><trkpt lat="39.69907262158915" lon="8.731918207900357"><ele>59.0</ele><time>2026-04-27T14:34:33.233Z</time></trkpt><trkpt lat="39.699128759412474" lon="8.732235245024482"><ele>59.0</ele><time>2026-04-27T14:34:34.232Z</time></trkpt><trkpt lat="39.699188496977044" lon="8.732549623166927"><ele>59.0</ele><time>2026-04-27T14:34:35.232Z</time></trkpt><trkpt lat="39.699247889747056" lon="8.732865821512085"><ele>61.0</ele><time>2026-04-27T14:34:36.233Z</time></trkpt><trkpt lat="39.699306750022075" lon="8.733185752360173"><ele>63.0</ele><time>2026-04-27T14:34:37.233Z</time></trkpt><trkpt lat="39.69936297907979" lon="8.733503394059854"><ele>64.0</ele><time>2026-04-27T14:34:38.233Z</time></trkpt><trkpt lat="39.699419961645006" lon="8.733816979103942"><ele>65.0</ele><time>2026-04-27T14:34:39.233Z</time></trkpt><trkpt lat="39.69947833840388" lon="8.734130146311852"><ele>67.0</ele><time>2026-04-27T14:34:40.233Z</time></trkpt><trkpt lat="39.6995380190013" lon="8.734441733346715"><ele>69.0</ele><time>2026-04-27T14:34:41.233Z</time></trkpt><trkpt lat="39.69959877548525" lon="8.734757674819525"><ele>69.0</ele><time>2026-04-27T14:34:42.233Z</time></trkpt><trkpt lat="39.69965616116099" lon="8.735077555682825"><ele>69.0</ele><time>2026-04-27T14:34:43.233Z</time></trkpt><trkpt lat="39.699714528794445" lon="8.735397642957256"><ele>70.0</ele><time>2026-04-27T14:34:44.233Z</time></trkpt><trkpt lat="39.699774264737016" lon="8.735716706307699"><ele>71.0</ele><time>2026-04-27T14:34:45.234Z</time></trkpt><trkpt lat="39.69983053165142" lon="8.736039780959183"><ele>72.5</ele><time>2026-04-27T14:34:46.233Z</time></trkpt><trkpt lat="39.699890377027984" lon="8.736364492811516"><ele>74.0</ele><time>2026-04-27T14:34:47.233Z</time></trkpt><trkpt lat="39.69995256035186" lon="8.73668537867789"><ele>75.5</ele><time>2026-04-27T14:34:48.233Z</time></trkpt><trkpt lat="39.70001239975244" lon="8.737006562411064"><ele>77.0</ele><time>2026-04-27T14:34:49.233Z</time></trkpt><trkpt lat="39.70007222733421" lon="8.737328074884521"><ele>77.0</ele><time>2026-04-27T14:34:50.233Z</time></trkpt><trkpt lat="39.700130974902926" lon="8.737644602915879"><ele>77.0</ele><time>2026-04-27T14:34:51.233Z</time></trkpt><trkpt lat="39.70018932533591" lon="8.737963631005785"><ele>79.0</ele><time>2026-04-27T14:34:52.233Z</time></trkpt><trkpt lat="39.70024383435429" lon="8.738282389959858"><ele>81.0</ele><time>2026-04-27T14:34:53.233Z</time></trkpt><trkpt lat="39.70030196023426" lon="8.73860305033927"><ele>83.0</ele><time>2026-04-27T14:34:54.233Z</time></trkpt><trkpt lat="39.70035970811252" lon="8.738921525705598"><ele>85.0</ele><time>2026-04-27T14:34:55.233Z</time></trkpt><trkpt lat="39.700419008312764" lon="8.739237290947123"><ele>87.0</ele><time>2026-04-27T14:34:56.233Z</time></trkpt><trkpt lat="39.70046832088725" lon="8.739547189679081"><ele>89.0</ele><time>2026-04-27T14:34:57.233Z</time></trkpt><trkpt lat="39.7005241645587" lon="8.739861730615852"><ele>89.0</ele><time>2026-04-27T14:34:58.233Z</time></trkpt><trkpt lat="39.70058299720507" lon="8.740180819031675"><ele>89.0</ele><time>2026-04-27T14:34:59.233Z</time></trkpt><trkpt lat="39.70063751223166" lon="8.740501111606294"><ele>90.5</ele><time>2026-04-27T14:35:00.233Z</time></trkpt><trkpt lat="39.700684916656854" lon="8.740823977474554"><ele>92.0</ele><time>2026-04-27T14:35:01.233Z</time></trkpt><trkpt lat="39.700724261787194" lon="8.741149115955299"><ele>94.0</ele><time>2026-04-27T14:35:02.233Z</time></trkpt><trkpt lat="39.700763958266876" lon="8.741471783158866"><ele>96.0</ele><time>2026-04-27T14:35:03.233Z</time></trkpt><trkpt lat="39.70080918771772" lon="8.74179197777494"><ele>98.0</ele><time>2026-04-27T14:35:04.233Z</time></trkpt><trkpt lat="39.70085247670311" lon="8.74211367310258"><ele>100.0</ele><time>2026-04-27T14:35:05.233Z</time></trkpt><trkpt lat="39.70089567469231" lon="8.742435559322267"><ele>102.0</ele><time>2026-04-27T14:35:06.233Z</time></trkpt><trkpt lat="39.700934288362454" lon="8.74273475771646"><ele>104.0</ele><time>2026-04-27T14:35:07.233Z</time></trkpt><trkpt lat="39.70095751684555" lon="8.743006992578481"><ele>106.0</ele><time>2026-04-27T14:35:08.233Z</time></trkpt><trkpt lat="39.70093098010342" lon="8.743253556802518"><ele>106.0</ele><time>2026-04-27T14:35:09.233Z</time></trkpt><trkpt lat="39.70084634077657" lon="8.743498910800996"><ele>106.0</ele><time>2026-04-27T14:35:10.233Z</time></trkpt><trkpt lat="39.7007176185011" lon="8.743734166058534"><ele>106.0</ele><time>2026-04-27T14:35:11.233Z</time></trkpt><trkpt lat="39.700572830465426" lon="8.743967828098922"><ele>112.0</ele><time>2026-04-27T14:35:12.233Z</time></trkpt><trkpt lat="39.70045020908124" lon="8.744222136009496"><ele>118.0</ele><time>2026-04-27T14:35:13.233Z</time></trkpt><trkpt lat="39.70036664847801" lon="8.744505407626962"><ele>124.0</ele><time>2026-04-27T14:35:14.233Z</time></trkpt><trkpt lat="39.700316455550734" lon="8.744801748358213"><ele>130.0</ele><time>2026-04-27T14:35:15.233Z</time></trkpt><trkpt lat="39.70029862579805" lon="8.745110657453443"><ele>131.0</ele><time>2026-04-27T14:35:16.233Z</time></trkpt><trkpt lat="39.700306897833705" lon="8.745425977743256"><ele>132.0</ele><time>2026-04-27T14:35:17.233Z</time></trkpt><trkpt lat="39.700355662574054" lon="8.745741577042574"><ele>130.0</ele><time>2026-04-27T14:35:18.233Z</time></trkpt><trkpt lat="39.700433751086535" lon="8.746047254867449"><ele>128.0</ele><time>2026-04-27T14:35:19.233Z</time></trkpt><trkpt lat="39.70054826535491" lon="8.746329598042266"><ele>128.0</ele><time>2026-04-27T14:35:20.233Z</time></trkpt><trkpt lat="39.700681513022225" lon="8.746588257572698"><ele>128.0</ele><time>2026-04-27T14:35:21.233Z</time></trkpt><trkpt lat="39.700827469934914" lon="8.746839301234473"><ele>127.0</ele><time>2026-04-27T14:35:22.233Z</time></trkpt><trkpt lat="39.700971806222256" lon="8.747101206333022"><ele>126.0</ele><time>2026-04-27T14:35:23.233Z</time></trkpt><trkpt lat="39.701110923797586" lon="8.747365503304744"><ele>131.0</ele><time>2026-04-27T14:35:24.233Z</time></trkpt><trkpt lat="39.701247744522995" lon="8.747627938819953"><ele>136.0</ele><time>2026-04-27T14:35:25.233Z</time></trkpt><trkpt lat="39.70139380309002" lon="8.747895589267827"><ele>136.0</ele><time>2026-04-27T14:35:26.233Z</time></trkpt><trkpt lat="39.70154182003705" lon="8.748157035762677"><ele>136.0</ele><time>2026-04-27T14:35:27.233Z</time></trkpt><trkpt lat="39.70170125142539" lon="8.748406550500583"><ele>134.5</ele><time>2026-04-27T14:35:28.233Z</time></trkpt><trkpt lat="39.70187151884575" lon="8.748634556285742"><ele>133.0</ele><time>2026-04-27T14:35:29.233Z</time></trkpt><trkpt lat="39.702052154235645" lon="8.748839674543882"><ele>140.0</ele><time>2026-04-27T14:35:30.233Z</time></trkpt><trkpt lat="39.70222380785465" lon="8.749047585499671"><ele>147.0</ele><time>2026-04-27T14:35:31.233Z</time></trkpt><trkpt lat="39.70235760226045" lon="8.749294410014446"><ele>145.5</ele><time>2026-04-27T14:35:32.233Z</time></trkpt><trkpt lat="39.70245507067333" lon="8.749569438223745"><ele>144.0</ele><time>2026-04-27T14:35:33.233Z</time></trkpt><trkpt lat="39.70252236696776" lon="8.749847873550427"><ele>144.0</ele><time>2026-04-27T14:35:34.233Z</time></trkpt><trkpt lat="39.702629910469476" lon="8.750081799774312"><ele>144.0</ele><time>2026-04-27T14:35:35.233Z</time></trkpt><trkpt lat="39.70278548181471" lon="8.750281350104556"><ele>144.0</ele><time>2026-04-27T14:35:36.233Z</time></trkpt><trkpt lat="39.702956062946264" lon="8.7504517814459"><ele>147.66666666666666</ele><time>2026-04-27T14:35:37.233Z</time></trkpt><trkpt lat="39.70312739425098" lon="8.750617087458432"><ele>151.33333333333331</ele><time>2026-04-27T14:35:38.233Z</time></trkpt><trkpt lat="39.703294781286324" lon="8.750796233306884"><ele>155.0</ele><time>2026-04-27T14:35:39.233Z</time></trkpt><trkpt lat="39.703449053989374" lon="8.750992747491589"><ele>155.66666666666666</ele><time>2026-04-27T14:35:40.233Z</time></trkpt><trkpt lat="39.7035752661662" lon="8.751214753203653"><ele>156.33333333333334</ele><time>2026-04-27T14:35:41.233Z</time></trkpt><trkpt lat="39.70367193384929" lon="8.751434203081088"><ele>157.0</ele><time>2026-04-27T14:35:42.233Z</time></trkpt><trkpt lat="39.70373638164545" lon="8.751652751931283"><ele>158.66666666666669</ele><time>2026-04-27T14:35:43.233Z</time></trkpt><trkpt lat="39.703739574750905" lon="8.751860069860395"><ele>160.33333333333334</ele><time>2026-04-27T14:35:44.233Z</time></trkpt><trkpt lat="39.703689948830025" lon="8.75204676177635"><ele>162.0</ele><time>2026-04-27T14:35:45.233Z</time></trkpt><trkpt lat="39.70358852176385" lon="8.752210672692147"><ele>161.33333333333334</ele><time>2026-04-27T14:35:46.233Z</time></trkpt><trkpt lat="39.703435747023974" lon="8.752321841258626"><ele>160.66666666666669</ele><time>2026-04-27T14:35:47.233Z</time></trkpt><trkpt lat="39.703265933071215" lon="8.752425543923286"><ele>160.0</ele><time>2026-04-27T14:35:48.233Z</time></trkpt><trkpt lat="39.703085533140914" lon="8.752539361889049"><ele>160.0</ele><time>2026-04-27T14:35:49.233Z</time></trkpt><trkpt lat="39.70290100487207" lon="8.752656647241105"><ele>160.0</ele><time>2026-04-27T14:35:50.233Z</time></trkpt><trkpt lat="39.702726827537404" lon="8.75277409329075"><ele>160.0</ele><time>2026-04-27T14:35:51.233Z</time></trkpt><trkpt lat="39.702577413018695" lon="8.752879053416413"><ele>162.33333333333334</ele><time>2026-04-27T14:35:52.233Z</time></trkpt><trkpt lat="39.702437027461805" lon="8.752975083653142"><ele>164.66666666666666</ele><time>2026-04-27T14:35:53.233Z</time></trkpt><trkpt lat="39.702288129515075" lon="8.753061110190934"><ele>167.0</ele><time>2026-04-27T14:35:54.234Z</time></trkpt><trkpt lat="39.70216143149978" lon="8.753142353661666"><ele>167.0</ele><time>2026-04-27T14:35:55.234Z</time></trkpt><trkpt lat="39.7020769263745" lon="8.753268659748674"><ele>167.0</ele><time>2026-04-27T14:35:56.234Z</time></trkpt><trkpt lat="39.70206267157615" lon="8.753436162486315"><ele>167.0</ele><time>2026-04-27T14:35:57.234Z</time></trkpt><trkpt lat="39.70211017045896" lon="8.753604811660463"><ele>167.0</ele><time>2026-04-27T14:35:58.234Z</time></trkpt><trkpt lat="39.70223090294975" lon="8.753754858189838"><ele>168.0</ele><time>2026-04-27T14:35:59.234Z</time></trkpt><trkpt lat="39.70241164993951" lon="8.753845433772884"><ele>169.0</ele><time>2026-04-27T14:36:00.234Z</time></trkpt><trkpt lat="39.702634531753496" lon="8.7539000548672"><ele>170.0</ele><time>2026-04-27T14:36:01.234Z</time></trkpt><trkpt lat="39.70286871334" lon="8.753947524719843"><ele>172.0</ele><time>2026-04-27T14:36:02.234Z</time></trkpt><trkpt lat="39.7030930556937" lon="8.754007845097389"><ele>174.0</ele><time>2026-04-27T14:36:03.234Z</time></trkpt><trkpt lat="39.703313659797274" lon="8.754075318964958"><ele>174.0</ele><time>2026-04-27T14:36:04.234Z</time></trkpt><trkpt lat="39.703532027343925" lon="8.75413211491263"><ele>174.0</ele><time>2026-04-27T14:36:05.234Z</time></trkpt><trkpt lat="39.70374981226901" lon="8.754171566566631"><ele>174.0</ele><time>2026-04-27T14:36:06.234Z</time></trkpt><trkpt lat="39.70396593069027" lon="8.75419036016615"><ele>174.66666666666666</ele><time>2026-04-27T14:36:07.234Z</time></trkpt><trkpt lat="39.70418225768342" lon="8.754197181254376"><ele>175.33333333333331</ele><time>2026-04-27T14:36:08.234Z</time></trkpt><trkpt lat="39.704394584523335" lon="8.754205442540195"><ele>176.0</ele><time>2026-04-27T14:36:09.234Z</time></trkpt><trkpt lat="39.70460233638006" lon="8.754219517385412"><ele>177.0</ele><time>2026-04-27T14:36:10.234Z</time></trkpt><trkpt lat="39.70481000780395" lon="8.754230202673243"><ele>178.0</ele><time>2026-04-27T14:36:11.234Z</time></trkpt><trkpt lat="39.7050100669908" lon="8.754238767249698"><ele>179.0</ele><time>2026-04-27T14:36:12.234Z</time></trkpt><trkpt lat="39.70520251591936" lon="8.754248273573783"><ele>180.33333333333331</ele><time>2026-04-27T14:36:13.234Z</time></trkpt><trkpt lat="39.70539198797541" lon="8.754238539067964"><ele>181.66666666666666</ele><time>2026-04-27T14:36:14.234Z</time></trkpt><trkpt lat="39.70557706581616" lon="8.754205781648421"><ele>183.0</ele><time>2026-04-27T14:36:15.234Z</time></trkpt><trkpt lat="39.70575593907932" lon="8.754167294937465"><ele>183.0</ele><time>2026-04-27T14:36:16.234Z</time></trkpt><trkpt lat="39.70593504242084" lon="8.754134294304073"><ele>183.0</ele><time>2026-04-27T14:36:17.234Z</time></trkpt><trkpt lat="39.70610673949114" lon="8.754105019590371"><ele>183.0</ele><time>2026-04-27T14:36:18.234Z</time></trkpt><trkpt lat="39.70626273281309" lon="8.754085184890455"><ele>184.75</ele><time>2026-04-27T14:36:19.234Z</time></trkpt><trkpt lat="39.70640421471983" lon="8.754091846415017"><ele>186.5</ele><time>2026-04-27T14:36:20.234Z</time></trkpt><trkpt lat="39.70651698376248" lon="8.754177440157093"><ele>188.25</ele><time>2026-04-27T14:36:21.234Z</time></trkpt><trkpt lat="39.70659936042867" lon="8.754332221037249"><ele>190.0</ele><time>2026-04-27T14:36:22.234Z</time></trkpt><trkpt lat="39.70662843810348" lon="8.754522036892968"><ele>190.0</ele><time>2026-04-27T14:36:23.234Z</time></trkpt><trkpt lat="39.70665087280259" lon="8.754726559377769"><ele>190.0</ele><time>2026-04-27T14:36:24.234Z</time></trkpt><trkpt lat="39.706706307601465" lon="8.754927218864443"><ele>190.0</ele><time>2026-04-27T14:36:25.234Z</time></trkpt><trkpt lat="39.70680869290022" lon="8.755121684097357"><ele>191.0</ele><time>2026-04-27T14:36:26.234Z</time></trkpt><trkpt lat="39.70692155079003" lon="8.755308177005626"><ele>192.0</ele><time>2026-04-27T14:36:27.234Z</time></trkpt><trkpt lat="39.70704601118725" lon="8.755470684861494"><ele>193.0</ele><time>2026-04-27T14:36:28.234Z</time></trkpt><trkpt lat="39.70719960831168" lon="8.755593636388072"><ele>193.0</ele><time>2026-04-27T14:36:29.234Z</time></trkpt><trkpt lat="39.70738062816934" lon="8.755671823158604"><ele>193.0</ele><time>2026-04-27T14:36:30.234Z</time></trkpt><trkpt lat="39.70757240852257" lon="8.75573245626422"><ele>193.0</ele><time>2026-04-27T14:36:31.234Z</time></trkpt><trkpt lat="39.70776374283513" lon="8.755781256603568"><ele>195.33333333333331</ele><time>2026-04-27T14:36:32.234Z</time></trkpt><trkpt lat="39.707957984514486" lon="8.755809578387026"><ele>197.66666666666669</ele><time>2026-04-27T14:36:33.234Z</time></trkpt><trkpt lat="39.70815675812905" lon="8.755793704264084"><ele>200.0</ele><time>2026-04-27T14:36:34.234Z</time></trkpt><trkpt lat="39.70835393195565" lon="8.755735075901041"><ele>200.0</ele><time>2026-04-27T14:36:35.234Z</time></trkpt><trkpt lat="39.70853567013041" lon="8.755607498011763"><ele>200.0</ele><time>2026-04-27T14:36:36.234Z</time></trkpt><trkpt lat="39.70870567871759" lon="8.755448646425432"><ele>200.0</ele><time>2026-04-27T14:36:37.234Z</time></trkpt><trkpt lat="39.70887712767599" lon="8.755296997353186"><ele>203.33333333333334</ele><time>2026-04-27T14:36:38.234Z</time></trkpt><trkpt lat="39.70905143631975" lon="8.75518264019734"><ele>206.66666666666669</ele><time>2026-04-27T14:36:39.236Z</time></trkpt><trkpt lat="39.709222891223405" lon="8.755113483252755"><ele>210.0</ele><time>2026-04-27T14:36:40.236Z</time></trkpt><trkpt lat="39.70940275670566" lon="8.755089277149365"><ele>210.66666666666669</ele><time>2026-04-27T14:36:41.236Z</time></trkpt><trkpt lat="39.70958738429192" lon="8.755088560834063"><ele>211.33333333333334</ele><time>2026-04-27T14:36:42.235Z</time></trkpt><trkpt lat="39.70976937455656" lon="8.75509951487761"><ele>212.0</ele><time>2026-04-27T14:36:43.236Z</time></trkpt><trkpt lat="39.70994791309696" lon="8.75513280234437"><ele>211.0</ele><time>2026-04-27T14:36:44.236Z</time></trkpt><trkpt lat="39.710115868869416" lon="8.7552348963445"><ele>210.0</ele><time>2026-04-27T14:36:45.236Z</time></trkpt><trkpt lat="39.71026722917168" lon="8.755380139206453"><ele>209.0</ele><time>2026-04-27T14:36:46.236Z</time></trkpt><trkpt lat="39.710403150354345" lon="8.755549054228146"><ele>211.33333333333334</ele><time>2026-04-27T14:36:47.236Z</time></trkpt><trkpt lat="39.71054288480386" lon="8.75571867682104"><ele>213.66666666666669</ele><time>2026-04-27T14:36:48.235Z</time></trkpt><trkpt lat="39.71068523211687" lon="8.755894965581907"><ele>216.0</ele><time>2026-04-27T14:36:49.235Z</time></trkpt><trkpt lat="39.710836617666104" lon="8.756065968559781"><ele>216.0</ele><time>2026-04-27T14:36:50.235Z</time></trkpt><trkpt lat="39.71099173460432" lon="8.756239018940104"><ele>216.0</ele><time>2026-04-27T14:36:51.236Z</time></trkpt><trkpt lat="39.71115791524993" lon="8.756403458085705"><ele>216.0</ele><time>2026-04-27T14:36:52.236Z</time></trkpt><trkpt lat="39.71134774301687" lon="8.756541390278388"><ele>219.66666666666669</ele><time>2026-04-27T14:36:53.236Z</time></trkpt><trkpt lat="39.71154978455424" lon="8.75664920396836"><ele>223.33333333333334</ele><time>2026-04-27T14:36:54.236Z</time></trkpt><trkpt lat="39.711757828939305" lon="8.756726203153438"><ele>227.0</ele><time>2026-04-27T14:36:55.236Z</time></trkpt><trkpt lat="39.711975312785164" lon="8.756786767278689"><ele>225.5</ele><time>2026-04-27T14:36:56.236Z</time></trkpt><trkpt lat="39.71219468968324" lon="8.75685273828449"><ele>224.0</ele><time>2026-04-27T14:36:57.236Z</time></trkpt><trkpt lat="39.71241400029911" lon="8.756925697521629"><ele>224.0</ele><time>2026-04-27T14:36:58.236Z</time></trkpt><trkpt lat="39.7126382216188" lon="8.756997158743538"><ele>224.0</ele><time>2026-04-27T14:36:59.236Z</time></trkpt><trkpt lat="39.71286835066347" lon="8.757070384285882"><ele>229.0</ele><time>2026-04-27T14:37:00.236Z</time></trkpt><trkpt lat="39.7130977850366" lon="8.75714292716048"><ele>234.0</ele><time>2026-04-27T14:37:01.236Z</time></trkpt><trkpt lat="39.71332639836319" lon="8.757233151245726"><ele>234.0</ele><time>2026-04-27T14:37:02.236Z</time></trkpt><trkpt lat="39.7135447394858" lon="8.757349566536854"><ele>234.0</ele><time>2026-04-27T14:37:03.236Z</time></trkpt><trkpt lat="39.71375984604498" lon="8.757473273380436"><ele>236.0</ele><time>2026-04-27T14:37:04.236Z</time></trkpt><trkpt lat="39.7139759937865" lon="8.757602274995419"><ele>238.0</ele><time>2026-04-27T14:37:05.236Z</time></trkpt><trkpt lat="39.71418761402058" lon="8.75773606282841"><ele>238.0</ele><time>2026-04-27T14:37:06.236Z</time></trkpt><trkpt lat="39.714382161048796" lon="8.757903881148852"><ele>238.0</ele><time>2026-04-27T14:37:07.236Z</time></trkpt><trkpt lat="39.71456254203608" lon="8.758095962249927"><ele>242.66666666666666</ele><time>2026-04-27T14:37:08.236Z</time></trkpt><trkpt lat="39.71474035045032" lon="8.758267189083966"><ele>247.33333333333331</ele><time>2026-04-27T14:37:09.236Z</time></trkpt><trkpt lat="39.714930413201564" lon="8.758393321819822"><ele>252.0</ele><time>2026-04-27T14:37:10.236Z</time></trkpt><trkpt lat="39.71512472923589" lon="8.75849177888122"><ele>255.0</ele><time>2026-04-27T14:37:11.236Z</time></trkpt><trkpt lat="39.715313104837556" lon="8.758568764580321"><ele>258.0</ele><time>2026-04-27T14:37:12.236Z</time></trkpt><trkpt lat="39.715488519674714" lon="8.758623717690513"><ele>261.0</ele><time>2026-04-27T14:37:13.236Z</time></trkpt><trkpt lat="39.7156500290679" lon="8.75869813718495"><ele>261.0</ele><time>2026-04-27T14:37:14.236Z</time></trkpt><trkpt lat="39.715763809914826" lon="8.758839398631345"><ele>261.0</ele><time>2026-04-27T14:37:15.236Z</time></trkpt><trkpt lat="39.71584422187508" lon="8.759034008308097"><ele>261.0</ele><time>2026-04-27T14:37:16.236Z</time></trkpt><trkpt lat="39.71588472041501" lon="8.759265622008238"><ele>261.0</ele><time>2026-04-27T14:37:17.236Z</time></trkpt><trkpt lat="39.715889556891916" lon="8.759524899542878"><ele>261.0</ele><time>2026-04-27T14:37:18.236Z</time></trkpt><trkpt lat="39.71590184094254" lon="8.75978782450224"><ele>261.0</ele><time>2026-04-27T14:37:19.236Z</time></trkpt><trkpt lat="39.71593580520775" lon="8.760059117963074"><ele>260.3333333333333</ele><time>2026-04-27T14:37:20.236Z</time></trkpt><trkpt lat="39.71597817195238" lon="8.760325429846466"><ele>259.66666666666663</ele><time>2026-04-27T14:37:21.236Z</time></trkpt><trkpt lat="39.7160531063163" lon="8.760553475252074"><ele>259.0</ele><time>2026-04-27T14:37:22.236Z</time></trkpt><trkpt lat="39.716158797218924" lon="8.760698809499488"><ele>261.75</ele><time>2026-04-27T14:37:23.236Z</time></trkpt><trkpt lat="39.71627342695623" lon="8.760737355059618"><ele>264.5</ele><time>2026-04-27T14:37:24.236Z</time></trkpt><trkpt lat="39.71638883634075" lon="8.760689509324056"><ele>267.25</ele><time>2026-04-27T14:37:25.236Z</time></trkpt><trkpt lat="39.716520670373185" lon="8.760577212484943"><ele>270.0</ele><time>2026-04-27T14:37:26.236Z</time></trkpt><trkpt lat="39.71667080771868" lon="8.76050156002123"><ele>272.0</ele><time>2026-04-27T14:37:27.236Z</time></trkpt><trkpt lat="39.71714790769178" lon="8.760392292943193"><ele>272.0</ele><time>2026-04-27T14:37:28.237Z</time></trkpt><trkpt lat="39.717362570398876" lon="8.76029855114537"><ele>272.0</ele><time>2026-04-27T14:37:29.237Z</time></trkpt><trkpt lat="39.71758700552615" lon="8.760197504841685"><ele>277.5</ele><time>2026-04-27T14:37:30.237Z</time></trkpt><trkpt lat="39.7178029085085" lon="8.760103795291501"><ele>283.0</ele><time>2026-04-27T14:37:31.237Z</time></trkpt><trkpt lat="39.71802816221005" lon="8.76005122797243"><ele>283.0</ele><time>2026-04-27T14:37:32.237Z</time></trkpt><trkpt lat="39.71826113050949" lon="8.760047230291402"><ele>283.0</ele><time>2026-04-27T14:37:33.237Z</time></trkpt><trkpt lat="39.71850435110783" lon="8.760071982275043"><ele>285.0</ele><time>2026-04-27T14:37:34.237Z</time></trkpt><trkpt lat="39.71876471538281" lon="8.760079535213936"><ele>287.0</ele><time>2026-04-27T14:37:35.237Z</time></trkpt><trkpt lat="39.71902048757312" lon="8.760069598458728"><ele>287.0</ele><time>2026-04-27T14:37:36.237Z</time></trkpt><trkpt lat="39.71927687774805" lon="8.76007151737025"><ele>287.0</ele><time>2026-04-27T14:37:37.237Z</time></trkpt><trkpt lat="39.719540221269376" lon="8.760088975914725"><ele>290.0</ele><time>2026-04-27T14:37:38.237Z</time></trkpt><trkpt lat="39.71980165102192" lon="8.760096555941505"><ele>293.0</ele><time>2026-04-27T14:37:39.237Z</time></trkpt><trkpt lat="39.720058934468554" lon="8.760103822714628"><ele>297.0</ele><time>2026-04-27T14:37:40.237Z</time></trkpt><trkpt lat="39.72031678059846" lon="8.760103569133591"><ele>301.0</ele><time>2026-04-27T14:37:41.237Z</time></trkpt><trkpt lat="39.7205734535534" lon="8.760121861910653"><ele>301.0</ele><time>2026-04-27T14:37:42.237Z</time></trkpt><trkpt lat="39.72082153889917" lon="8.760169119237565"><ele>301.0</ele><time>2026-04-27T14:37:43.237Z</time></trkpt><trkpt lat="39.72105945851254" lon="8.760220637075593"><ele>299.66666666666663</ele><time>2026-04-27T14:37:44.237Z</time></trkpt><trkpt lat="39.72125966597154" lon="8.760293774375672"><ele>298.3333333333333</ele><time>2026-04-27T14:37:45.237Z</time></trkpt><trkpt lat="39.72144987356716" lon="8.760410527960735"><ele>297.0</ele><time>2026-04-27T14:37:46.237Z</time></trkpt><trkpt lat="39.72158103824035" lon="8.760590270526542"><ele>297.0</ele><time>2026-04-27T14:37:47.237Z</time></trkpt><trkpt lat="39.721645805946316" lon="8.760818868433413"><ele>297.0</ele><time>2026-04-27T14:37:48.237Z</time></trkpt><trkpt lat="39.72166297603349" lon="8.761062765829436"><ele>297.0</ele><time>2026-04-27T14:37:49.237Z</time></trkpt><trkpt lat="39.72172751261724" lon="8.761246140371702"><ele>296.3333333333333</ele><time>2026-04-27T14:37:50.237Z</time></trkpt><trkpt lat="39.72187280858227" lon="8.761372206927513"><ele>295.66666666666663</ele><time>2026-04-27T14:37:51.237Z</time></trkpt><trkpt lat="39.72209520067683" lon="8.761391635054244"><ele>295.0</ele><time>2026-04-27T14:37:52.237Z</time></trkpt><trkpt lat="39.722327246574416" lon="8.761383070960377"><ele>295.0</ele><time>2026-04-27T14:37:53.237Z</time></trkpt><trkpt lat="39.7225433621401" lon="8.761463826364281"><ele>295.0</ele><time>2026-04-27T14:37:54.237Z</time></trkpt><trkpt lat="39.722719412686914" lon="8.761619144819392"><ele>295.0</ele><time>2026-04-27T14:37:55.237Z</time></trkpt><trkpt lat="39.72286473251521" lon="8.76178644766465"><ele>293.0</ele><time>2026-04-27T14:37:56.237Z</time></trkpt><trkpt lat="39.723001557659764" lon="8.761891314111939"><ele>291.0</ele><time>2026-04-27T14:37:57.237Z</time></trkpt><trkpt lat="39.723157994566606" lon="8.761955528834527"><ele>289.0</ele><time>2026-04-27T14:37:58.237Z</time></trkpt><trkpt lat="39.723338782937454" lon="8.76195701143657"><ele>289.0</ele><time>2026-04-27T14:37:59.237Z</time></trkpt><trkpt lat="39.72353943509931" lon="8.761893818511325"><ele>289.0</ele><time>2026-04-27T14:38:00.237Z</time></trkpt><trkpt lat="39.72374813518489" lon="8.761794677912526"><ele>289.0</ele><time>2026-04-27T14:38:01.237Z</time></trkpt><trkpt lat="39.7239699545975" lon="8.761733052787356"><ele>296.5</ele><time>2026-04-27T14:38:02.237Z</time></trkpt><trkpt lat="39.724199768807956" lon="8.76169697059167"><ele>304.0</ele><time>2026-04-27T14:38:03.237Z</time></trkpt><trkpt lat="39.724437974595254" lon="8.76169482454526"><ele>305.0</ele><time>2026-04-27T14:38:04.237Z</time></trkpt><trkpt lat="39.72468877993069" lon="8.76172766342885"><ele>306.0</ele><time>2026-04-27T14:38:05.237Z</time></trkpt><trkpt lat="39.72494373294039" lon="8.761780187771874"><ele>306.0</ele><time>2026-04-27T14:38:06.237Z</time></trkpt><trkpt lat="39.725199243240795" lon="8.761820038776907"><ele>306.0</ele><time>2026-04-27T14:38:07.237Z</time></trkpt><trkpt lat="39.725458697742276" lon="8.761834398632878"><ele>306.5</ele><time>2026-04-27T14:38:08.237Z</time></trkpt><trkpt lat="39.72571829496459" lon="8.761858400357324"><ele>307.0</ele><time>2026-04-27T14:38:09.237Z</time></trkpt><trkpt lat="39.72597672186683" lon="8.76188096800938"><ele>306.5</ele><time>2026-04-27T14:38:10.237Z</time></trkpt><trkpt lat="39.72622811042621" lon="8.761890227822715"><ele>306.0</ele><time>2026-04-27T14:38:11.237Z</time></trkpt><trkpt lat="39.726470212431835" lon="8.761852637188452"><ele>306.0</ele><time>2026-04-27T14:38:12.237Z</time></trkpt><trkpt lat="39.726700380512504" lon="8.76175670151722"><ele>306.0</ele><time>2026-04-27T14:38:13.237Z</time></trkpt><trkpt lat="39.726927997244964" lon="8.76162896117693"><ele>301.5</ele><time>2026-04-27T14:38:14.237Z</time></trkpt><trkpt lat="39.72716428425791" lon="8.761511379316"><ele>297.0</ele><time>2026-04-27T14:38:15.237Z</time></trkpt><trkpt lat="39.72740611230189" lon="8.761397799871704"><ele>297.0</ele><time>2026-04-27T14:38:16.237Z</time></trkpt><trkpt lat="39.72765060816611" lon="8.76128712899252"><ele>297.0</ele><time>2026-04-27T14:38:17.237Z</time></trkpt><trkpt lat="39.727898448680165" lon="8.761169915858801"><ele>290.5</ele><time>2026-04-27T14:38:18.237Z</time></trkpt><trkpt lat="39.72814495878624" lon="8.761040368761558"><ele>284.0</ele><time>2026-04-27T14:38:19.237Z</time></trkpt><trkpt lat="39.728390950695356" lon="8.76088831967796"><ele>289.0</ele><time>2026-04-27T14:38:20.237Z</time></trkpt><trkpt lat="39.728628240879885" lon="8.760711428393392"><ele>294.0</ele><time>2026-04-27T14:38:21.237Z</time></trkpt><trkpt lat="39.728861963780616" lon="8.760520351385306"><ele>294.0</ele><time>2026-04-27T14:38:22.237Z</time></trkpt><trkpt lat="39.729099881724416" lon="8.76033468728507"><ele>294.0</ele><time>2026-04-27T14:38:23.237Z</time></trkpt><trkpt lat="39.72934084160863" lon="8.760168359870052"><ele>302.0</ele><time>2026-04-27T14:38:24.237Z</time></trkpt><trkpt lat="39.72958616051546" lon="8.760042159674118"><ele>310.0</ele><time>2026-04-27T14:38:25.237Z</time></trkpt><trkpt lat="39.72983546248164" lon="8.759952251264838"><ele>310.0</ele><time>2026-04-27T14:38:26.237Z</time></trkpt><trkpt lat="39.730086004027584" lon="8.759900795603295"><ele>310.0</ele><time>2026-04-27T14:38:27.237Z</time></trkpt><trkpt lat="39.73034646224573" lon="8.759904613423975"><ele>312.0</ele><time>2026-04-27T14:38:28.237Z</time></trkpt><trkpt lat="39.730605496971144" lon="8.759935971085351"><ele>314.0</ele><time>2026-04-27T14:38:29.237Z</time></trkpt><trkpt lat="39.73086389316583" lon="8.759986075597288"><ele>319.0</ele><time>2026-04-27T14:38:30.237Z</time></trkpt><trkpt lat="39.73112861469462" lon="8.76002705706573"><ele>324.0</ele><time>2026-04-27T14:38:31.237Z</time></trkpt><trkpt lat="39.731393942199546" lon="8.760077342515634"><ele>324.0</ele><time>2026-04-27T14:38:32.237Z</time></trkpt><trkpt lat="39.73165090674078" lon="8.760158130940557"><ele>324.0</ele><time>2026-04-27T14:38:33.237Z</time></trkpt><trkpt lat="39.7319029532936" lon="8.760272627117887"><ele>318.5</ele><time>2026-04-27T14:38:34.237Z</time></trkpt><trkpt lat="39.73213801949945" lon="8.760430235704463"><ele>313.0</ele><time>2026-04-27T14:38:35.237Z</time></trkpt><trkpt lat="39.732374087016474" lon="8.760605790097054"><ele>313.0</ele><time>2026-04-27T14:38:36.237Z</time></trkpt><trkpt lat="39.73260571589107" lon="8.760788192723568"><ele>313.0</ele><time>2026-04-27T14:38:37.237Z</time></trkpt><trkpt lat="39.732824819601895" lon="8.76099370430263"><ele>316.0</ele><time>2026-04-27T14:38:38.237Z</time></trkpt><trkpt lat="39.733024394708934" lon="8.761234366954941"><ele>319.0</ele><time>2026-04-27T14:38:39.237Z</time></trkpt><trkpt lat="39.73320889201264" lon="8.761495679365947"><ele>319.0</ele><time>2026-04-27T14:38:40.238Z</time></trkpt><trkpt lat="39.733381842441254" lon="8.761767666679937"><ele>319.0</ele><time>2026-04-27T14:38:41.238Z</time></trkpt><trkpt lat="39.73355982885248" lon="8.762042960163445"><ele>322.5</ele><time>2026-04-27T14:38:42.238Z</time></trkpt><trkpt lat="39.73373151632033" lon="8.762323321249225"><ele>326.0</ele><time>2026-04-27T14:38:43.238Z</time></trkpt><trkpt lat="39.73390845444512" lon="8.76260045328607"><ele>320.0</ele><time>2026-04-27T14:38:44.238Z</time></trkpt><trkpt lat="39.7340827438458" lon="8.762889785758425"><ele>314.0</ele><time>2026-04-27T14:38:45.239Z</time></trkpt><trkpt lat="39.73424810938171" lon="8.763165168602804"><ele>313.0</ele><time>2026-04-27T14:38:46.238Z</time></trkpt><trkpt lat="39.734403104350434" lon="8.763412332077397"><ele>312.0</ele><time>2026-04-27T14:38:47.238Z</time></trkpt><trkpt lat="39.734576413892206" lon="8.763633560373801"><ele>312.0</ele><time>2026-04-27T14:38:48.238Z</time></trkpt><trkpt lat="39.734771893836424" lon="8.763845832248492"><ele>312.0</ele><time>2026-04-27T14:38:49.238Z</time></trkpt><trkpt lat="39.734993058265495" lon="8.764032983265722"><ele>312.0</ele><time>2026-04-27T14:38:50.238Z</time></trkpt><trkpt lat="39.735211383121914" lon="8.764217352435436"><ele>312.0</ele><time>2026-04-27T14:38:51.239Z</time></trkpt><trkpt lat="39.735417126880904" lon="8.764400586792208"><ele>313.3333333333333</ele><time>2026-04-27T14:38:52.238Z</time></trkpt><trkpt lat="39.73560725589328" lon="8.764577842394349"><ele>314.66666666666663</ele><time>2026-04-27T14:38:53.238Z</time></trkpt><trkpt lat="39.73576772436421" lon="8.764764264166045"><ele>316.0</ele><time>2026-04-27T14:38:54.239Z</time></trkpt><trkpt lat="39.73586642871417" lon="8.765024400507516"><ele>314.0</ele><time>2026-04-27T14:38:55.239Z</time></trkpt><trkpt lat="39.73589119316203" lon="8.765339984081551"><ele>312.0</ele><time>2026-04-27T14:38:56.239Z</time></trkpt><trkpt lat="39.73588311096515" lon="8.765671929008048"><ele>312.0</ele><time>2026-04-27T14:38:57.239Z</time></trkpt><trkpt lat="39.73588618617865" lon="8.765964074245755"><ele>312.0</ele><time>2026-04-27T14:38:58.239Z</time></trkpt><trkpt lat="39.735901818196815" lon="8.766244661604446"><ele>312.0</ele><time>2026-04-27T14:38:59.239Z</time></trkpt><trkpt lat="39.735929926387946" lon="8.766537935799745"><ele>309.5</ele><time>2026-04-27T14:39:00.239Z</time></trkpt><trkpt lat="39.73598297067225" lon="8.76684532589672"><ele>307.0</ele><time>2026-04-27T14:39:01.239Z</time></trkpt><trkpt lat="39.736081994333766" lon="8.767129754684824"><ele>315.0</ele><time>2026-04-27T14:39:02.239Z</time></trkpt><trkpt lat="39.73621369424657" lon="8.76739694758022"><ele>323.0</ele><time>2026-04-27T14:39:03.239Z</time></trkpt><trkpt lat="39.736353958638716" lon="8.767648043176562"><ele>319.0</ele><time>2026-04-27T14:39:04.239Z</time></trkpt><trkpt lat="39.736448504738036" lon="8.767919802843496"><ele>315.0</ele><time>2026-04-27T14:39:05.239Z</time></trkpt><trkpt lat="39.73648139314425" lon="8.768203168705126"><ele>315.0</ele><time>2026-04-27T14:39:06.239Z</time></trkpt><trkpt lat="39.73649928244033" lon="8.76844008980573"><ele>315.0</ele><time>2026-04-27T14:39:07.239Z</time></trkpt><trkpt lat="39.736566028191454" lon="8.768634667500836"><ele>315.0</ele><time>2026-04-27T14:39:08.239Z</time></trkpt><trkpt lat="39.736672665956895" lon="8.768791419663751"><ele>313.6666666666667</ele><time>2026-04-27T14:39:09.239Z</time></trkpt><trkpt lat="39.7368427597641" lon="8.768869951937841"><ele>312.33333333333337</ele><time>2026-04-27T14:39:10.239Z</time></trkpt><trkpt lat="39.73704499137079" lon="8.768896916326536"><ele>311.0</ele><time>2026-04-27T14:39:11.239Z</time></trkpt><trkpt lat="39.73727697118332" lon="8.768878957946486"><ele>311.0</ele><time>2026-04-27T14:39:12.239Z</time></trkpt><trkpt lat="39.73748155818826" lon="8.76886153152755"><ele>311.0</ele><time>2026-04-27T14:39:13.239Z</time></trkpt><trkpt lat="39.73764907953294" lon="8.768825889318869"><ele>311.0</ele><time>2026-04-27T14:39:14.239Z</time></trkpt><trkpt lat="39.73780645899067" lon="8.768699213585576"><ele>310.0</ele><time>2026-04-27T14:39:15.239Z</time></trkpt><trkpt lat="39.73794509273597" lon="8.768507751045547"><ele>309.0</ele><time>2026-04-27T14:39:16.239Z</time></trkpt><trkpt lat="39.73804331688797" lon="8.768259599239373"><ele>308.0</ele><time>2026-04-27T14:39:17.239Z</time></trkpt><trkpt lat="39.73809768877377" lon="8.767971676552001"><ele>308.0</ele><time>2026-04-27T14:39:18.239Z</time></trkpt><trkpt lat="39.73812412139088" lon="8.767706534198464"><ele>308.0</ele><time>2026-04-27T14:39:19.239Z</time></trkpt><trkpt lat="39.738205257163514" lon="8.767494717355156"><ele>308.0</ele><time>2026-04-27T14:39:20.239Z</time></trkpt><trkpt lat="39.73833917366324" lon="8.767346669825603"><ele>309.6666666666667</ele><time>2026-04-27T14:39:21.239Z</time></trkpt><trkpt lat="39.738496215782284" lon="8.76725969340425"><ele>311.3333333333333</ele><time>2026-04-27T14:39:22.239Z</time></trkpt><trkpt lat="39.73865209598076" lon="8.76721833285817"><ele>313.0</ele><time>2026-04-27T14:39:23.239Z</time></trkpt><trkpt lat="39.73880576866242" lon="8.767192832315638"><ele>313.0</ele><time>2026-04-27T14:39:24.239Z</time></trkpt><trkpt lat="39.73895471189036" lon="8.767117699308459"><ele>313.0</ele><time>2026-04-27T14:39:25.239Z</time></trkpt><trkpt lat="39.739097601599006" lon="8.76699150195764"><ele>313.0</ele><time>2026-04-27T14:39:26.239Z</time></trkpt><trkpt lat="39.73924431694242" lon="8.766876029877942"><ele>318.66666666666663</ele><time>2026-04-27T14:39:27.239Z</time></trkpt><trkpt lat="39.739421332293794" lon="8.766799375314838"><ele>324.3333333333333</ele><time>2026-04-27T14:39:28.239Z</time></trkpt><trkpt lat="39.739616297630576" lon="8.766752761789256"><ele>330.0</ele><time>2026-04-27T14:39:29.239Z</time></trkpt><trkpt lat="39.73981677349618" lon="8.766701596122724"><ele>330.0</ele><time>2026-04-27T14:39:30.239Z</time></trkpt><trkpt lat="39.74002179660723" lon="8.766654220823105"><ele>330.0</ele><time>2026-04-27T14:39:31.239Z</time></trkpt><trkpt lat="39.74023620575001" lon="8.766611028150846"><ele>330.0</ele><time>2026-04-27T14:39:32.239Z</time></trkpt><trkpt lat="39.74045169492067" lon="8.76657468213094"><ele>328.5</ele><time>2026-04-27T14:39:33.239Z</time></trkpt><trkpt lat="39.740680389945034" lon="8.766546226275045"><ele>327.0</ele><time>2026-04-27T14:39:34.239Z</time></trkpt><trkpt lat="39.74090124002235" lon="8.766521090507531"><ele>328.3333333333333</ele><time>2026-04-27T14:39:35.239Z</time></trkpt><trkpt lat="39.741123427552466" lon="8.766531616692522"><ele>329.66666666666663</ele><time>2026-04-27T14:39:36.239Z</time></trkpt><trkpt lat="39.74134521350226" lon="8.766590903749771"><ele>331.0</ele><time>2026-04-27T14:39:37.239Z</time></trkpt><trkpt lat="39.741563992861934" lon="8.766732385767337"><ele>330.5</ele><time>2026-04-27T14:39:38.239Z</time></trkpt><trkpt lat="39.74178309022182" lon="8.766870646745582"><ele>330.0</ele><time>2026-04-27T14:39:39.239Z</time></trkpt><trkpt lat="39.742016678753444" lon="8.766980174375067"><ele>330.0</ele><time>2026-04-27T14:39:40.239Z</time></trkpt><trkpt lat="39.742249817579506" lon="8.76707746313348"><ele>330.0</ele><time>2026-04-27T14:39:41.239Z</time></trkpt><trkpt lat="39.74247860462453" lon="8.76716815279335"><ele>330.0</ele><time>2026-04-27T14:39:42.239Z</time></trkpt><trkpt lat="39.74270280124618" lon="8.767257029886428"><ele>330.0</ele><time>2026-04-27T14:39:43.239Z</time></trkpt><trkpt lat="39.74291473005229" lon="8.76733923608203"><ele>333.6666666666667</ele><time>2026-04-27T14:39:44.239Z</time></trkpt><trkpt lat="39.74310458515249" lon="8.767416730224841"><ele>337.33333333333337</ele><time>2026-04-27T14:39:45.239Z</time></trkpt><trkpt lat="39.743276856044595" lon="8.767485636280703"><ele>341.0</ele><time>2026-04-27T14:39:46.239Z</time></trkpt><trkpt lat="39.74343665329272" lon="8.767541719900857"><ele>341.75</ele><time>2026-04-27T14:39:47.239Z</time></trkpt><trkpt lat="39.74358739712993" lon="8.767563649009231"><ele>342.5</ele><time>2026-04-27T14:39:48.239Z</time></trkpt><trkpt lat="39.743733009165865" lon="8.767531012637889"><ele>343.25</ele><time>2026-04-27T14:39:49.239Z</time></trkpt><trkpt lat="39.743865281233404" lon="8.767459126144027"><ele>344.0</ele><time>2026-04-27T14:39:50.239Z</time></trkpt><trkpt lat="39.74398722079848" lon="8.767378025187377"><ele>344.0</ele><time>2026-04-27T14:39:51.239Z</time></trkpt><trkpt lat="39.74409510013922" lon="8.767305403984276"><ele>344.0</ele><time>2026-04-27T14:39:52.239Z</time></trkpt><trkpt lat="39.744202362290096" lon="8.767254833180155"><ele>344.0</ele><time>2026-04-27T14:39:53.24Z</time></trkpt><trkpt lat="39.74430469804727" lon="8.767266946755784"><ele>344.0</ele><time>2026-04-27T14:39:54.24Z</time></trkpt><trkpt lat="39.74437775430667" lon="8.767375180840732"><ele>344.0</ele><time>2026-04-27T14:39:55.24Z</time></trkpt><trkpt lat="39.74441949136425" lon="8.767521927153696"><ele>346.5</ele><time>2026-04-27T14:39:56.24Z</time></trkpt><trkpt lat="39.74442844179132" lon="8.767686493694946"><ele>349.0</ele><time>2026-04-27T14:39:57.24Z</time></trkpt><trkpt lat="39.74444556289522" lon="8.767844568172347"><ele>351.5</ele><time>2026-04-27T14:39:58.24Z</time></trkpt><trkpt lat="39.744469025987286" lon="8.767989041195268"><ele>354.0</ele><time>2026-04-27T14:39:59.24Z</time></trkpt><trkpt lat="39.74450128200885" lon="8.768126233819363"><ele>354.0</ele><time>2026-04-27T14:40:00.24Z</time></trkpt><trkpt lat="39.744530912287274" lon="8.768270201779526"><ele>354.0</ele><time>2026-04-27T14:40:01.24Z</time></trkpt><trkpt lat="39.744558777106846" lon="8.768401418259561"><ele>354.0</ele><time>2026-04-27T14:40:02.24Z</time></trkpt><trkpt lat="39.74457186709995" lon="8.768548314076401"><ele>354.0</ele><time>2026-04-27T14:40:03.24Z</time></trkpt><trkpt lat="39.74458419353035" lon="8.768692690071786"><ele>354.0</ele><time>2026-04-27T14:40:04.24Z</time></trkpt><trkpt lat="39.74461225831137" lon="8.76883444601951"><ele>353.0</ele><time>2026-04-27T14:40:05.24Z</time></trkpt><trkpt lat="39.74465429148995" lon="8.768970276185547"><ele>352.0</ele><time>2026-04-27T14:40:06.24Z</time></trkpt><trkpt lat="39.744702478304234" lon="8.769109117428291"><ele>351.0</ele><time>2026-04-27T14:40:07.24Z</time></trkpt><trkpt lat="39.74475476148234" lon="8.769237240423225"><ele>350.0</ele><time>2026-04-27T14:40:08.24Z</time></trkpt><trkpt lat="39.744825204333814" lon="8.76934326190372"><ele>349.0</ele><time>2026-04-27T14:40:09.24Z</time></trkpt><trkpt lat="39.74490433786247" lon="8.769419019806799"><ele>348.0</ele><time>2026-04-27T14:40:10.24Z</time></trkpt><trkpt lat="39.74499678980551" lon="8.769463652313991"><ele>347.0</ele><time>2026-04-27T14:40:11.24Z</time></trkpt><trkpt lat="39.745083387333594" lon="8.769496137276839"><ele>346.0</ele><time>2026-04-27T14:40:12.24Z</time></trkpt><trkpt lat="39.74516359998733" lon="8.76952056201627"><ele>345.0</ele><time>2026-04-27T14:40:13.24Z</time></trkpt><trkpt lat="39.74522858429025" lon="8.769559408660779"><ele>344.0</ele><time>2026-04-27T14:40:14.24Z</time></trkpt><trkpt lat="39.74530810194207" lon="8.769687038385046"><ele>344.6666666666667</ele><time>2026-04-27T14:40:16.24Z</time></trkpt><trkpt lat="39.74532482035598" lon="8.769774494527475"><ele>345.33333333333337</ele><time>2026-04-27T14:40:17.24Z</time></trkpt><trkpt lat="39.74533891036347" lon="8.76986977932453"><ele>346.0</ele><time>2026-04-27T14:40:18.24Z</time></trkpt><trkpt lat="39.74535884097737" lon="8.769978181230615"><ele>346.6666666666667</ele><time>2026-04-27T14:40:19.24Z</time></trkpt><trkpt lat="39.74537946323923" lon="8.770078710920597"><ele>347.3333333333333</ele><time>2026-04-27T14:40:20.24Z</time></trkpt><trkpt lat="39.745401696023364" lon="8.770185589569026"><ele>348.0</ele><time>2026-04-27T14:40:21.24Z</time></trkpt><trkpt lat="39.74543493577456" lon="8.770286843579791"><ele>348.0</ele><time>2026-04-27T14:40:22.24Z</time></trkpt><trkpt lat="39.7454939574513" lon="8.770373966212732"><ele>348.0</ele><time>2026-04-27T14:40:23.24Z</time></trkpt><trkpt lat="39.74556070749029" lon="8.770444584432212"><ele>348.0</ele><time>2026-04-27T14:40:24.24Z</time></trkpt><trkpt lat="39.745626176140604" lon="8.770522733285524"><ele>348.0</ele><time>2026-04-27T14:40:25.24Z</time></trkpt><trkpt lat="39.74569625947994" lon="8.770604581855737"><ele>348.0</ele><time>2026-04-27T14:40:26.24Z</time></trkpt><trkpt lat="39.74576024248969" lon="8.770692931181118"><ele>348.0</ele><time>2026-04-27T14:40:27.24Z</time></trkpt><trkpt lat="39.74583297936612" lon="8.770773763178294"><ele>348.0</ele><time>2026-04-27T14:40:28.24Z</time></trkpt><trkpt lat="39.74590777971734" lon="8.770841865841765"><ele>348.0</ele><time>2026-04-27T14:40:29.24Z</time></trkpt><trkpt lat="39.745986730908804" lon="8.770858675430945"><ele>348.0</ele><time>2026-04-27T14:40:30.24Z</time></trkpt><trkpt lat="39.746073600561374" lon="8.770833396355025"><ele>348.0</ele><time>2026-04-27T14:40:31.24Z</time></trkpt><trkpt lat="39.74613738022723" lon="8.77077035819083"><ele>348.0</ele><time>2026-04-27T14:40:32.24Z</time></trkpt><trkpt lat="39.74625389434306" lon="8.770767479961842"><ele>348.79999999999995</ele><time>2026-04-27T14:40:34.24Z</time></trkpt><trkpt lat="39.746333870642026" lon="8.770804618965661"><ele>349.6</ele><time>2026-04-27T14:40:35.24Z</time></trkpt><trkpt lat="39.74640966663568" lon="8.77086937570035"><ele>350.4</ele><time>2026-04-27T14:40:36.24Z</time></trkpt><trkpt lat="39.746496258769824" lon="8.770932963806905"><ele>351.20000000000005</ele><time>2026-04-27T14:40:37.24Z</time></trkpt><trkpt lat="39.746587571526916" lon="8.770994173897892"><ele>352.0</ele><time>2026-04-27T14:40:38.24Z</time></trkpt><trkpt lat="39.746676213641514" lon="8.771058946369724"><ele>352.0</ele><time>2026-04-27T14:40:39.24Z</time></trkpt><trkpt lat="39.74678059505396" lon="8.771109699734387"><ele>352.0</ele><time>2026-04-27T14:40:40.24Z</time></trkpt><trkpt lat="39.74686318279352" lon="8.771183008867137"><ele>352.0</ele><time>2026-04-27T14:40:41.24Z</time></trkpt><trkpt lat="39.74692092856209" lon="8.771283455611155"><ele>352.0</ele><time>2026-04-27T14:40:42.24Z</time></trkpt><trkpt lat="39.7469482741764" lon="8.771390917946658"><ele>352.0</ele><time>2026-04-27T14:40:43.24Z</time></trkpt><trkpt lat="39.74697045378813" lon="8.771504388831358"><ele>351.8</ele><time>2026-04-27T14:40:44.24Z</time></trkpt><trkpt lat="39.74698703639012" lon="8.77161876431778"><ele>351.6</ele><time>2026-04-27T14:40:45.24Z</time></trkpt><trkpt lat="39.747000442790046" lon="8.77174205878514"><ele>351.40000000000003</ele><time>2026-04-27T14:40:46.24Z</time></trkpt><trkpt lat="39.74701398778335" lon="8.771861738821242"><ele>351.20000000000005</ele><time>2026-04-27T14:40:47.24Z</time></trkpt><trkpt lat="39.74704317220369" lon="8.771976977412995"><ele>351.0</ele><time>2026-04-27T14:40:48.24Z</time></trkpt><trkpt lat="39.74710272815271" lon="8.77206478209141"><ele>351.0</ele><time>2026-04-27T14:40:49.24Z</time></trkpt><trkpt lat="39.74718047738368" lon="8.772133133593266"><ele>351.0</ele><time>2026-04-27T14:40:50.24Z</time></trkpt><trkpt lat="39.747270933044064" lon="8.772168673256187"><ele>351.0</ele><time>2026-04-27T14:40:51.242Z</time></trkpt><trkpt lat="39.747363702421175" lon="8.772202856412488"><ele>351.0</ele><time>2026-04-27T14:40:52.242Z</time></trkpt><trkpt lat="39.74746247355077" lon="8.772251375586887"><ele>351.0</ele><time>2026-04-27T14:40:53.242Z</time></trkpt><trkpt lat="39.74756363752144" lon="8.772300748150016"><ele>351.0</ele><time>2026-04-27T14:40:54.242Z</time></trkpt><trkpt lat="39.74767232752207" lon="8.772357071164143"><ele>351.0</ele><time>2026-04-27T14:40:55.242Z</time></trkpt><trkpt lat="39.74779175756062" lon="8.77240679165449"><ele>351.0</ele><time>2026-04-27T14:40:56.242Z</time></trkpt><trkpt lat="39.74791369378013" lon="8.772473128754891"><ele>351.0</ele><time>2026-04-27T14:40:57.242Z</time></trkpt><trkpt lat="39.748049414379786" lon="8.772537982755178"><ele>353.6666666666667</ele><time>2026-04-27T14:40:58.241Z</time></trkpt><trkpt lat="39.74820001365343" lon="8.772597187201185"><ele>356.33333333333337</ele><time>2026-04-27T14:40:59.241Z</time></trkpt><trkpt lat="39.748358527201724" lon="8.772666893930646"><ele>359.0</ele><time>2026-04-27T14:41:00.242Z</time></trkpt><trkpt lat="39.74852150415886" lon="8.77273729868629"><ele>357.33333333333337</ele><time>2026-04-27T14:41:01.241Z</time></trkpt><trkpt lat="39.74869358371956" lon="8.7728119262942"><ele>355.6666666666667</ele><time>2026-04-27T14:41:02.241Z</time></trkpt><trkpt lat="39.74886966039759" lon="8.77288551172019"><ele>354.0</ele><time>2026-04-27T14:41:03.242Z</time></trkpt><trkpt lat="39.74902601961286" lon="8.772966196240903"><ele>354.0</ele><time>2026-04-27T14:41:04.241Z</time></trkpt><trkpt lat="39.74915953648545" lon="8.773087086358606"><ele>354.0</ele><time>2026-04-27T14:41:05.241Z</time></trkpt><trkpt lat="39.74925951542404" lon="8.77324105843692"><ele>354.0</ele><time>2026-04-27T14:41:06.241Z</time></trkpt><trkpt lat="39.749310273240354" lon="8.77342167085917"><ele>355.3333333333333</ele><time>2026-04-27T14:41:07.241Z</time></trkpt><trkpt lat="39.749302714486426" lon="8.7736135827683"><ele>356.66666666666663</ele><time>2026-04-27T14:41:08.241Z</time></trkpt><trkpt lat="39.749241519848" lon="8.773798365372945"><ele>358.0</ele><time>2026-04-27T14:41:09.241Z</time></trkpt><trkpt lat="39.7491626177448" lon="8.773982841472952"><ele>358.0</ele><time>2026-04-27T14:41:10.241Z</time></trkpt><trkpt lat="39.74907570504683" lon="8.774176064076205"><ele>358.0</ele><time>2026-04-27T14:41:11.241Z</time></trkpt><trkpt lat="39.748975538390745" lon="8.774360361726679"><ele>358.0</ele><time>2026-04-27T14:41:12.241Z</time></trkpt><trkpt lat="39.74886672810875" lon="8.77452529808511"><ele>358.66666666666663</ele><time>2026-04-27T14:41:13.241Z</time></trkpt><trkpt lat="39.74876853335198" lon="8.774686614602464"><ele>359.3333333333333</ele><time>2026-04-27T14:41:14.241Z</time></trkpt><trkpt lat="39.74873364960942" lon="8.774897253705335"><ele>360.0</ele><time>2026-04-27T14:41:15.241Z</time></trkpt><trkpt lat="39.748768214011236" lon="8.77512768911481"><ele>354.6666666666667</ele><time>2026-04-27T14:41:16.241Z</time></trkpt><trkpt lat="39.74885952076623" lon="8.775332975509508"><ele>349.33333333333337</ele><time>2026-04-27T14:41:17.241Z</time></trkpt><trkpt lat="39.74899685383307" lon="8.775456690948813"><ele>344.0</ele><time>2026-04-27T14:41:18.241Z</time></trkpt><trkpt lat="39.74919413138709" lon="8.775526800953203"><ele>344.0</ele><time>2026-04-27T14:41:19.241Z</time></trkpt><trkpt lat="39.7493681741703" lon="8.775625252090975"><ele>344.0</ele><time>2026-04-27T14:41:20.241Z</time></trkpt><trkpt lat="39.74961258425346" lon="8.775683784930694"><ele>344.0</ele><time>2026-04-27T14:41:21.241Z</time></trkpt><trkpt lat="39.749815542886175" lon="8.775823142779881"><ele>347.0</ele><time>2026-04-27T14:41:22.241Z</time></trkpt><trkpt lat="39.74996352585818" lon="8.775987921056778"><ele>350.0</ele><time>2026-04-27T14:41:23.241Z</time></trkpt><trkpt lat="39.7500549329205" lon="8.776217935730271"><ele>353.0</ele><time>2026-04-27T14:41:24.241Z</time></trkpt><trkpt lat="39.750066822610286" lon="8.776513573837542"><ele>353.0</ele><time>2026-04-27T14:41:25.241Z</time></trkpt><trkpt lat="39.75007984109974" lon="8.776770046918239"><ele>353.0</ele><time>2026-04-27T14:41:26.241Z</time></trkpt><trkpt lat="39.750139959655684" lon="8.776975617137673"><ele>353.0</ele><time>2026-04-27T14:41:27.241Z</time></trkpt><trkpt lat="39.7502587908473" lon="8.777098280440116"><ele>348.0</ele><time>2026-04-27T14:41:28.241Z</time></trkpt><trkpt lat="39.75043927504573" lon="8.777120538235721"><ele>343.0</ele><time>2026-04-27T14:41:29.241Z</time></trkpt><trkpt lat="39.75064479152591" lon="8.776960612672632"><ele>338.0</ele><time>2026-04-27T14:41:30.241Z</time></trkpt><trkpt lat="39.75091954503162" lon="8.7769464022003"><ele>335.5</ele><time>2026-04-27T14:41:31.242Z</time></trkpt><trkpt lat="39.75117105571737" lon="8.777043297904997"><ele>333.0</ele><time>2026-04-27T14:41:32.242Z</time></trkpt><trkpt lat="39.75140722117625" lon="8.777130823328125"><ele>333.0</ele><time>2026-04-27T14:41:33.242Z</time></trkpt><trkpt lat="39.751647647292565" lon="8.77719926070394"><ele>333.0</ele><time>2026-04-27T14:41:34.242Z</time></trkpt><trkpt lat="39.75187086321212" lon="8.777260012174562"><ele>331.6666666666667</ele><time>2026-04-27T14:41:35.242Z</time></trkpt><trkpt lat="39.75209743664834" lon="8.777306720160086"><ele>330.33333333333337</ele><time>2026-04-27T14:41:36.242Z</time></trkpt><trkpt lat="39.75229961026878" lon="8.777255111144122"><ele>329.0</ele><time>2026-04-27T14:41:37.242Z</time></trkpt><trkpt lat="39.75250130202984" lon="8.777096196743212"><ele>327.5</ele><time>2026-04-27T14:41:38.242Z</time></trkpt><trkpt lat="39.75275947950322" lon="8.777026540417753"><ele>326.0</ele><time>2026-04-27T14:41:39.242Z</time></trkpt><trkpt lat="39.753009522124664" lon="8.777065089388588"><ele>326.0</ele><time>2026-04-27T14:41:40.242Z</time></trkpt><trkpt lat="39.75324962346983" lon="8.777123252547913"><ele>326.0</ele><time>2026-04-27T14:41:41.242Z</time></trkpt><trkpt lat="39.75348249576655" lon="8.777161115648719"><ele>330.0</ele><time>2026-04-27T14:41:42.242Z</time></trkpt><trkpt lat="39.75368152118887" lon="8.777176753236757"><ele>334.0</ele><time>2026-04-27T14:41:43.242Z</time></trkpt><trkpt lat="39.75388831765698" lon="8.777213512684314"><ele>338.0</ele><time>2026-04-27T14:41:44.242Z</time></trkpt><trkpt lat="39.754058603389225" lon="8.777279429526597"><ele>338.0</ele><time>2026-04-27T14:41:45.242Z</time></trkpt><trkpt lat="39.75419593817521" lon="8.777397667927426"><ele>338.0</ele><time>2026-04-27T14:41:46.242Z</time></trkpt><trkpt lat="39.754256579495106" lon="8.777550331600915"><ele>338.0</ele><time>2026-04-27T14:41:47.242Z</time></trkpt><trkpt lat="39.75426730663816" lon="8.77776948836615"><ele>337.0</ele><time>2026-04-27T14:41:48.242Z</time></trkpt><trkpt lat="39.75421422634153" lon="8.777990877917322"><ele>336.0</ele><time>2026-04-27T14:41:49.242Z</time></trkpt><trkpt lat="39.75416681228636" lon="8.778182161724855"><ele>335.0</ele><time>2026-04-27T14:41:50.242Z</time></trkpt><trkpt lat="39.75410907516874" lon="8.77837962336991"><ele>333.0</ele><time>2026-04-27T14:41:51.242Z</time></trkpt><trkpt lat="39.75409653494214" lon="8.778589812920636"><ele>331.0</ele><time>2026-04-27T14:41:52.242Z</time></trkpt><trkpt lat="39.75415531333721" lon="8.778817878483311"><ele>329.0</ele><time>2026-04-27T14:41:53.242Z</time></trkpt><trkpt lat="39.75423336335348" lon="8.779049197362962"><ele>329.0</ele><time>2026-04-27T14:41:54.242Z</time></trkpt><trkpt lat="39.754294635897466" lon="8.779283334112515"><ele>329.0</ele><time>2026-04-27T14:41:55.242Z</time></trkpt><trkpt lat="39.754340703220564" lon="8.77950346823771"><ele>329.0</ele><time>2026-04-27T14:41:56.242Z</time></trkpt><trkpt lat="39.754390625637605" lon="8.77969257077219"><ele>328.33333333333337</ele><time>2026-04-27T14:41:57.242Z</time></trkpt><trkpt lat="39.75445414621504" lon="8.779852266109163"><ele>327.6666666666667</ele><time>2026-04-27T14:41:58.242Z</time></trkpt><trkpt lat="39.75457509091275" lon="8.779973964101861"><ele>327.0</ele><time>2026-04-27T14:41:59.242Z</time></trkpt><trkpt lat="39.75473954011855" lon="8.780038463900663"><ele>327.0</ele><time>2026-04-27T14:42:00.242Z</time></trkpt><trkpt lat="39.754936086836814" lon="8.780026026086032"><ele>327.0</ele><time>2026-04-27T14:42:01.242Z</time></trkpt><trkpt lat="39.755141990172945" lon="8.779993368730674"><ele>327.0</ele><time>2026-04-27T14:42:02.242Z</time></trkpt><trkpt lat="39.75535628747681" lon="8.779962237978813"><ele>326.6666666666667</ele><time>2026-04-27T14:42:03.242Z</time></trkpt><trkpt lat="39.75556999075704" lon="8.779896145706607"><ele>326.33333333333337</ele><time>2026-04-27T14:42:04.242Z</time></trkpt><trkpt lat="39.755756455385246" lon="8.779889818644142"><ele>326.0</ele><time>2026-04-27T14:42:05.242Z</time></trkpt><trkpt lat="39.75593584995853" lon="8.779992943988123"><ele>331.0</ele><time>2026-04-27T14:42:06.242Z</time></trkpt><trkpt lat="39.75611466827921" lon="8.78016630646985"><ele>336.0</ele><time>2026-04-27T14:42:07.242Z</time></trkpt><trkpt lat="39.75628027996586" lon="8.780374793442611"><ele>328.6666666666667</ele><time>2026-04-27T14:42:08.242Z</time></trkpt><trkpt lat="39.75642570068867" lon="8.780616944757176"><ele>321.33333333333337</ele><time>2026-04-27T14:42:09.242Z</time></trkpt><trkpt lat="39.756576874159215" lon="8.780799479432456"><ele>314.0</ele><time>2026-04-27T14:42:10.242Z</time></trkpt><trkpt lat="39.75673875116948" lon="8.780896764847355"><ele>311.6666666666667</ele><time>2026-04-27T14:42:11.242Z</time></trkpt><trkpt lat="39.75688661026921" lon="8.780878938729163"><ele>309.3333333333333</ele><time>2026-04-27T14:42:12.242Z</time></trkpt><trkpt lat="39.75704031742495" lon="8.780761076100141"><ele>307.0</ele><time>2026-04-27T14:42:13.242Z</time></trkpt><trkpt lat="39.75721704211863" lon="8.780601807147425"><ele>307.0</ele><time>2026-04-27T14:42:14.242Z</time></trkpt><trkpt lat="39.75740014669497" lon="8.780448913537288"><ele>307.0</ele><time>2026-04-27T14:42:15.242Z</time></trkpt><trkpt lat="39.757565595565445" lon="8.780309202407075"><ele>307.0</ele><time>2026-04-27T14:42:16.242Z</time></trkpt><trkpt lat="39.757720490281194" lon="8.780212550088523"><ele>308.3333333333333</ele><time>2026-04-27T14:42:17.242Z</time></trkpt><trkpt lat="39.75789027821672" lon="8.780204935187829"><ele>309.6666666666667</ele><time>2026-04-27T14:42:18.242Z</time></trkpt><trkpt lat="39.75807499644128" lon="8.780325949622853"><ele>311.0</ele><time>2026-04-27T14:42:19.242Z</time></trkpt><trkpt lat="39.758227579840906" lon="8.780544053022798"><ele>311.0</ele><time>2026-04-27T14:42:20.242Z</time></trkpt><trkpt lat="39.7583612082886" lon="8.780802332009822"><ele>311.0</ele><time>2026-04-27T14:42:21.242Z</time></trkpt><trkpt lat="39.75850613949581" lon="8.781017941827137"><ele>311.0</ele><time>2026-04-27T14:42:22.242Z</time></trkpt><trkpt lat="39.75865832972356" lon="8.781181140820374"><ele>311.0</ele><time>2026-04-27T14:42:23.242Z</time></trkpt><trkpt lat="39.75879037002432" lon="8.781327117741009"><ele>311.0</ele><time>2026-04-27T14:42:24.242Z</time></trkpt><trkpt lat="39.75884924214461" lon="8.781500735531566"><ele>311.0</ele><time>2026-04-27T14:42:25.242Z</time></trkpt><trkpt lat="39.758845031598" lon="8.78170486338175"><ele>311.0</ele><time>2026-04-27T14:42:26.242Z</time></trkpt><trkpt lat="39.75888752304832" lon="8.78189370993854"><ele>311.0</ele><time>2026-04-27T14:42:27.242Z</time></trkpt><trkpt lat="39.759038079180606" lon="8.782042172942278"><ele>303.5</ele><time>2026-04-27T14:42:28.242Z</time></trkpt><trkpt lat="39.75925580896045" lon="8.782093163846282"><ele>296.0</ele><time>2026-04-27T14:42:29.242Z</time></trkpt><trkpt lat="39.75951244485733" lon="8.782069455971962"><ele>296.0</ele><time>2026-04-27T14:42:30.242Z</time></trkpt><trkpt lat="39.75980209550042" lon="8.782006577399137"><ele>296.0</ele><time>2026-04-27T14:42:31.242Z</time></trkpt><trkpt lat="39.76010072462463" lon="8.781948299339934"><ele>299.5</ele><time>2026-04-27T14:42:32.242Z</time></trkpt><trkpt lat="39.760360059245784" lon="8.781908316237613"><ele>303.0</ele><time>2026-04-27T14:42:33.242Z</time></trkpt><trkpt lat="39.760573970462616" lon="8.781888395651682"><ele>303.0</ele><time>2026-04-27T14:42:34.242Z</time></trkpt><trkpt lat="39.76075518380145" lon="8.78192796940249"><ele>303.0</ele><time>2026-04-27T14:42:35.242Z</time></trkpt><trkpt lat="39.76092425904374" lon="8.782064096499727"><ele>303.0</ele><time>2026-04-27T14:42:36.242Z</time></trkpt><trkpt lat="39.7610941311176" lon="8.782233918515928"><ele>304.0</ele><time>2026-04-27T14:42:37.242Z</time></trkpt><trkpt lat="39.761288190731364" lon="8.78230765938323"><ele>305.0</ele><time>2026-04-27T14:42:38.242Z</time></trkpt><trkpt lat="39.76152184955449" lon="8.782257758713614"><ele>306.0</ele><time>2026-04-27T14:42:39.242Z</time></trkpt><trkpt lat="39.76178322120543" lon="8.782161101515037"><ele>305.5</ele><time>2026-04-27T14:42:40.242Z</time></trkpt><trkpt lat="39.76204135823105" lon="8.782071030618887"><ele>305.0</ele><time>2026-04-27T14:42:41.242Z</time></trkpt><trkpt lat="39.7622363332557" lon="8.782013677361526"><ele>305.0</ele><time>2026-04-27T14:42:42.242Z</time></trkpt><trkpt lat="39.76237921600614" lon="8.781988591022976"><ele>305.0</ele><time>2026-04-27T14:42:43.242Z</time></trkpt><trkpt lat="39.7624995595427" lon="8.781988779883072"><ele>305.0</ele><time>2026-04-27T14:42:44.243Z</time></trkpt><trkpt lat="39.76262276374777" lon="8.782084685319171"><ele>305.0</ele><time>2026-04-27T14:42:45.243Z</time></trkpt><trkpt lat="39.76272852843577" lon="8.782283832793574"><ele>308.0</ele><time>2026-04-27T14:42:46.243Z</time></trkpt><trkpt lat="39.76279979557286" lon="8.782529534153587"><ele>311.0</ele><time>2026-04-27T14:42:47.243Z</time></trkpt><trkpt lat="39.76279845344258" lon="8.782793129472365"><ele>314.0</ele><time>2026-04-27T14:42:48.243Z</time></trkpt><trkpt lat="39.76271952779749" lon="8.783067660475922"><ele>316.5</ele><time>2026-04-27T14:42:49.243Z</time></trkpt><trkpt lat="39.76261196123138" lon="8.783360135200516"><ele>319.0</ele><time>2026-04-27T14:42:50.243Z</time></trkpt><trkpt lat="39.76251574968683" lon="8.783653410480095"><ele>319.0</ele><time>2026-04-27T14:42:51.243Z</time></trkpt><trkpt lat="39.7624317564996" lon="8.783925513016921"><ele>319.0</ele><time>2026-04-27T14:42:52.243Z</time></trkpt><trkpt lat="39.76232588502692" lon="8.784166559703115"><ele>319.0</ele><time>2026-04-27T14:42:53.243Z</time></trkpt><trkpt lat="39.7621902992436" lon="8.784405490409911"><ele>320.3333333333333</ele><time>2026-04-27T14:42:54.243Z</time></trkpt><trkpt lat="39.76205254700478" lon="8.78463879088097"><ele>321.6666666666667</ele><time>2026-04-27T14:42:55.243Z</time></trkpt><trkpt lat="39.761944991842334" lon="8.784876704513888"><ele>323.0</ele><time>2026-04-27T14:42:56.243Z</time></trkpt><trkpt lat="39.761864055259736" lon="8.785089874407038"><ele>317.6666666666667</ele><time>2026-04-27T14:42:57.244Z</time></trkpt><trkpt lat="39.76183222225144" lon="8.785297583259496"><ele>312.3333333333333</ele><time>2026-04-27T14:42:58.244Z</time></trkpt><trkpt lat="39.761870391743635" lon="8.785519491760981"><ele>307.0</ele><time>2026-04-27T14:42:59.244Z</time></trkpt><trkpt lat="39.761994011804475" lon="8.785715216908965"><ele>307.0</ele><time>2026-04-27T14:43:00.244Z</time></trkpt><trkpt lat="39.76219687714677" lon="8.785860031964974"><ele>307.0</ele><time>2026-04-27T14:43:01.244Z</time></trkpt><trkpt lat="39.762423688811225" lon="8.785983325376117"><ele>307.0</ele><time>2026-04-27T14:43:02.244Z</time></trkpt><trkpt lat="39.76262519468149" lon="8.786083019395694"><ele>307.0</ele><time>2026-04-27T14:43:03.244Z</time></trkpt><trkpt lat="39.76281677350156" lon="8.786103295153818"><ele>307.0</ele><time>2026-04-27T14:43:04.244Z</time></trkpt><trkpt lat="39.763000227102644" lon="8.786066643485876"><ele>307.0</ele><time>2026-04-27T14:43:05.244Z</time></trkpt><trkpt lat="39.76313498389029" lon="8.786077484768187"><ele>307.0</ele><time>2026-04-27T14:43:06.244Z</time></trkpt><trkpt lat="39.76322955904841" lon="8.786210156903934"><ele>307.0</ele><time>2026-04-27T14:43:07.244Z</time></trkpt><trkpt lat="39.763271114876346" lon="8.78642008168755"><ele>307.0</ele><time>2026-04-27T14:43:08.244Z</time></trkpt><trkpt lat="39.76323435111108" lon="8.786660326585494"><ele>310.0</ele><time>2026-04-27T14:43:09.244Z</time></trkpt><trkpt lat="39.76311634670601" lon="8.786917508559267"><ele>313.0</ele><time>2026-04-27T14:43:10.244Z</time></trkpt><trkpt lat="39.76298431894046" lon="8.78718890522947"><ele>313.0</ele><time>2026-04-27T14:43:11.244Z</time></trkpt><trkpt lat="39.762847022326994" lon="8.787441095598448"><ele>313.0</ele><time>2026-04-27T14:43:12.244Z</time></trkpt><trkpt lat="39.76268064789834" lon="8.78764706937889"><ele>305.5</ele><time>2026-04-27T14:43:13.244Z</time></trkpt><trkpt lat="39.762468523668495" lon="8.787781067042701"><ele>298.0</ele><time>2026-04-27T14:43:14.244Z</time></trkpt><trkpt lat="39.76224871990007" lon="8.787865225291666"><ele>298.0</ele><time>2026-04-27T14:43:15.244Z</time></trkpt><trkpt lat="39.76204002681979" lon="8.787867834954083"><ele>298.0</ele><time>2026-04-27T14:43:16.244Z</time></trkpt><trkpt lat="39.76186157177599" lon="8.78786630773462"><ele>298.0</ele><time>2026-04-27T14:43:17.244Z</time></trkpt><trkpt lat="39.76172232830019" lon="8.78793270078923"><ele>293.0</ele><time>2026-04-27T14:43:18.244Z</time></trkpt><trkpt lat="39.761621904308896" lon="8.788085247949834"><ele>288.0</ele><time>2026-04-27T14:43:19.244Z</time></trkpt><trkpt lat="39.76157553447021" lon="8.788299223469846"><ele>283.0</ele><time>2026-04-27T14:43:20.244Z</time></trkpt><trkpt lat="39.761625998956475" lon="8.788539868731114"><ele>281.0</ele><time>2026-04-27T14:43:21.244Z</time></trkpt><trkpt lat="39.76175317049977" lon="8.788756043720845"><ele>279.0</ele><time>2026-04-27T14:43:22.244Z</time></trkpt><trkpt lat="39.76190601434107" lon="8.78894973419683"><ele>277.0</ele><time>2026-04-27T14:43:23.245Z</time></trkpt><trkpt lat="39.762022896711045" lon="8.78915246265545"><ele>282.66666666666663</ele><time>2026-04-27T14:43:24.245Z</time></trkpt><trkpt lat="39.762084286315265" lon="8.789373458516911"><ele>288.3333333333333</ele><time>2026-04-27T14:43:25.245Z</time></trkpt><trkpt lat="39.76205315683356" lon="8.789619526466083"><ele>294.0</ele><time>2026-04-27T14:43:26.245Z</time></trkpt><trkpt lat="39.76192171762363" lon="8.789901233271198"><ele>286.5</ele><time>2026-04-27T14:43:27.245Z</time></trkpt><trkpt lat="39.76175272780254" lon="8.7901868715128"><ele>279.0</ele><time>2026-04-27T14:43:28.245Z</time></trkpt><trkpt lat="39.7616051982689" lon="8.79039983620521"><ele>279.0</ele><time>2026-04-27T14:43:29.245Z</time></trkpt><trkpt lat="39.76146107228341" lon="8.790539674295825"><ele>279.0</ele><time>2026-04-27T14:43:30.245Z</time></trkpt><trkpt lat="39.761343453441" lon="8.79066918441644"><ele>279.0</ele><time>2026-04-27T14:43:31.245Z</time></trkpt><trkpt lat="39.761283032877984" lon="8.790844773504476"><ele>275.6666666666667</ele><time>2026-04-27T14:43:32.245Z</time></trkpt><trkpt lat="39.76128004465124" lon="8.791070735287043"><ele>272.33333333333337</ele><time>2026-04-27T14:43:33.245Z</time></trkpt><trkpt lat="39.7613759056767" lon="8.791329072774912"><ele>269.0</ele><time>2026-04-27T14:43:34.245Z</time></trkpt><trkpt lat="39.76152892111403" lon="8.791566939973153"><ele>269.0</ele><time>2026-04-27T14:43:35.245Z</time></trkpt><trkpt lat="39.76170307058745" lon="8.791780017150634"><ele>269.0</ele><time>2026-04-27T14:43:36.245Z</time></trkpt><trkpt lat="39.761836903101965" lon="8.791990212310942"><ele>269.0</ele><time>2026-04-27T14:43:37.245Z</time></trkpt><trkpt lat="39.761900575470854" lon="8.792239270568741"><ele>271.33333333333337</ele><time>2026-04-27T14:43:38.245Z</time></trkpt><trkpt lat="39.761890769546156" lon="8.792522047113742"><ele>273.6666666666667</ele><time>2026-04-27T14:43:39.245Z</time></trkpt><trkpt lat="39.761847069101826" lon="8.792798814129073"><ele>276.0</ele><time>2026-04-27T14:43:40.245Z</time></trkpt><trkpt lat="39.76181587099233" lon="8.793061298921211"><ele>269.3333333333333</ele><time>2026-04-27T14:43:41.245Z</time></trkpt><trkpt lat="39.761847784236345" lon="8.793326878380201"><ele>262.66666666666663</ele><time>2026-04-27T14:43:42.245Z</time></trkpt><trkpt lat="39.76192550855913" lon="8.793580523504918"><ele>256.0</ele><time>2026-04-27T14:43:43.245Z</time></trkpt><trkpt lat="39.76198634581334" lon="8.793799092615567"><ele>256.0</ele><time>2026-04-27T14:43:44.245Z</time></trkpt><trkpt lat="39.76197168299732" lon="8.794050387179032"><ele>256.0</ele><time>2026-04-27T14:43:45.245Z</time></trkpt><trkpt lat="39.76184325300476" lon="8.794322030021027"><ele>256.0</ele><time>2026-04-27T14:43:46.245Z</time></trkpt><trkpt lat="39.761654826453004" lon="8.794545534834642"><ele>254.5</ele><time>2026-04-27T14:43:47.245Z</time></trkpt><trkpt lat="39.76144475964021" lon="8.794719564792027"><ele>253.0</ele><time>2026-04-27T14:43:48.245Z</time></trkpt><trkpt lat="39.76126192901162" lon="8.794880173446524"><ele>253.0</ele><time>2026-04-27T14:43:49.245Z</time></trkpt><trkpt lat="39.76113817597506" lon="8.795103889480245"><ele>253.0</ele><time>2026-04-27T14:43:50.245Z</time></trkpt><trkpt lat="39.76105158895269" lon="8.795409010224677"><ele>247.66666666666666</ele><time>2026-04-27T14:43:51.245Z</time></trkpt><trkpt lat="39.760988281853585" lon="8.795715524459306"><ele>242.33333333333331</ele><time>2026-04-27T14:43:52.245Z</time></trkpt><trkpt lat="39.76094596022475" lon="8.795975430599011"><ele>237.0</ele><time>2026-04-27T14:43:53.245Z</time></trkpt><trkpt lat="39.76093182503786" lon="8.796206875346368"><ele>237.0</ele><time>2026-04-27T14:43:54.245Z</time></trkpt><trkpt lat="39.760988320312414" lon="8.796429821509664"><ele>237.0</ele><time>2026-04-27T14:43:55.245Z</time></trkpt><trkpt lat="39.7611185267333" lon="8.796665466371028"><ele>237.0</ele><time>2026-04-27T14:43:56.245Z</time></trkpt><trkpt lat="39.76126573401191" lon="8.796887473927631"><ele>233.66666666666669</ele><time>2026-04-27T14:43:57.245Z</time></trkpt><trkpt lat="39.761386615479914" lon="8.797068808567083"><ele>230.33333333333334</ele><time>2026-04-27T14:43:58.245Z</time></trkpt><trkpt lat="39.76151089168081" lon="8.797205281336835"><ele>227.0</ele><time>2026-04-27T14:43:59.245Z</time></trkpt><trkpt lat="39.761647800313995" lon="8.797279931128834"><ele>227.0</ele><time>2026-04-27T14:44:00.245Z</time></trkpt><trkpt lat="39.76180766898262" lon="8.797269993646262"><ele>227.0</ele><time>2026-04-27T14:44:01.245Z</time></trkpt><trkpt lat="39.761996678517896" lon="8.797143658146805"><ele>227.0</ele><time>2026-04-27T14:44:02.245Z</time></trkpt><trkpt lat="39.76218667942117" lon="8.796931707155375"><ele>225.0</ele><time>2026-04-27T14:44:03.245Z</time></trkpt><trkpt lat="39.76239288430897" lon="8.796740207812675"><ele>223.0</ele><time>2026-04-27T14:44:04.245Z</time></trkpt><trkpt lat="39.76257690576975" lon="8.796581532948226"><ele>222.0</ele><time>2026-04-27T14:44:05.245Z</time></trkpt><trkpt lat="39.762749441776975" lon="8.796469748302412"><ele>221.0</ele><time>2026-04-27T14:44:06.245Z</time></trkpt><trkpt lat="39.76295376669631" lon="8.796427347679556"><ele>220.0</ele><time>2026-04-27T14:44:07.245Z</time></trkpt><trkpt lat="39.763158766163734" lon="8.79648474760923"><ele>220.0</ele><time>2026-04-27T14:44:08.245Z</time></trkpt><trkpt lat="39.76336874908008" lon="8.796576530144746"><ele>220.0</ele><time>2026-04-27T14:44:09.245Z</time></trkpt><trkpt lat="39.763482635241736" lon="8.796925615033622"><ele>222.5</ele><time>2026-04-27T14:44:10.245Z</time></trkpt><trkpt lat="39.763620639192304" lon="8.797215842300663"><ele>225.0</ele><time>2026-04-27T14:44:11.245Z</time></trkpt><trkpt lat="39.76377843167764" lon="8.797449710918956"><ele>225.0</ele><time>2026-04-27T14:44:12.245Z</time></trkpt><trkpt lat="39.76393232695093" lon="8.797667183420167"><ele>225.0</ele><time>2026-04-27T14:44:13.245Z</time></trkpt><trkpt lat="39.76405986714161" lon="8.797861464756732"><ele>225.0</ele><time>2026-04-27T14:44:14.245Z</time></trkpt><trkpt lat="39.764179911006984" lon="8.798044309489317"><ele>224.66666666666669</ele><time>2026-04-27T14:44:15.245Z</time></trkpt><trkpt lat="39.764288453894856" lon="8.798210394578733"><ele>224.33333333333334</ele><time>2026-04-27T14:44:16.245Z</time></trkpt><trkpt lat="39.76440830496912" lon="8.798395772044211"><ele>224.0</ele><time>2026-04-27T14:44:17.245Z</time></trkpt><trkpt lat="39.76452649752052" lon="8.798582048697977"><ele>222.66666666666669</ele><time>2026-04-27T14:44:18.245Z</time></trkpt><trkpt lat="39.76464732364618" lon="8.798768093660295"><ele>221.33333333333331</ele><time>2026-04-27T14:44:19.245Z</time></trkpt><trkpt lat="39.764760474988286" lon="8.798961858487536"><ele>220.0</ele><time>2026-04-27T14:44:20.245Z</time></trkpt><trkpt lat="39.76485813310191" lon="8.799178653538268"><ele>218.33333333333331</ele><time>2026-04-27T14:44:21.245Z</time></trkpt><trkpt lat="39.76493109075035" lon="8.799400726896483"><ele>216.66666666666669</ele><time>2026-04-27T14:44:22.245Z</time></trkpt><trkpt lat="39.76502739980413" lon="8.799589947923426"><ele>215.0</ele><time>2026-04-27T14:44:23.245Z</time></trkpt><trkpt lat="39.76513646000321" lon="8.799701503807983"><ele>214.0</ele><time>2026-04-27T14:44:24.245Z</time></trkpt><trkpt lat="39.765282124000585" lon="8.799787394252876"><ele>213.0</ele><time>2026-04-27T14:44:25.245Z</time></trkpt><trkpt lat="39.76542337352931" lon="8.79986523619203"><ele>212.0</ele><time>2026-04-27T14:44:26.245Z</time></trkpt><trkpt lat="39.76556697328503" lon="8.79994033758447"><ele>212.0</ele><time>2026-04-27T14:44:27.245Z</time></trkpt><trkpt lat="39.76570336149854" lon="8.800018920462813"><ele>212.0</ele><time>2026-04-27T14:44:28.245Z</time></trkpt><trkpt lat="39.76584016733883" lon="8.800099776377197"><ele>212.0</ele><time>2026-04-27T14:44:29.245Z</time></trkpt><trkpt lat="39.76597898575013" lon="8.800188406277233"><ele>211.75</ele><time>2026-04-27T14:44:30.245Z</time></trkpt><trkpt lat="39.766102080409986" lon="8.800271505085616"><ele>211.5</ele><time>2026-04-27T14:44:31.245Z</time></trkpt><trkpt lat="39.766214629034586" lon="8.800363773783483"><ele>211.25</ele><time>2026-04-27T14:44:32.245Z</time></trkpt><trkpt lat="39.766321797683986" lon="8.800489092582366"><ele>211.0</ele><time>2026-04-27T14:44:33.245Z</time></trkpt><trkpt lat="39.7664055113479" lon="8.800642156293847"><ele>211.0</ele><time>2026-04-27T14:44:34.245Z</time></trkpt><trkpt lat="39.76647641881223" lon="8.800792951353591"><ele>211.0</ele><time>2026-04-27T14:44:35.245Z</time></trkpt><trkpt lat="39.766539424817466" lon="8.80094314092282"><ele>211.0</ele><time>2026-04-27T14:44:36.246Z</time></trkpt><trkpt lat="39.76654211842127" lon="8.801090487401002"><ele>211.0</ele><time>2026-04-27T14:44:37.246Z</time></trkpt><trkpt lat="39.76648772550683" lon="8.80122958877922"><ele>209.75</ele><time>2026-04-27T14:44:38.246Z</time></trkpt><trkpt lat="39.766396619679504" lon="8.801357871089573"><ele>208.5</ele><time>2026-04-27T14:44:39.246Z</time></trkpt><trkpt lat="39.76628974800564" lon="8.801472124930829"><ele>207.25</ele><time>2026-04-27T14:44:40.246Z</time></trkpt><trkpt lat="39.766167793526336" lon="8.801632099071298"><ele>206.0</ele><time>2026-04-27T14:44:41.246Z</time></trkpt><trkpt lat="39.766027231981326" lon="8.801822179669674"><ele>208.33333333333334</ele><time>2026-04-27T14:44:42.246Z</time></trkpt><trkpt lat="39.76590182206559" lon="8.802044308128062"><ele>210.66666666666669</ele><time>2026-04-27T14:44:43.245Z</time></trkpt><trkpt lat="39.765798065528244" lon="8.802291885264504"><ele>213.0</ele><time>2026-04-27T14:44:44.245Z</time></trkpt><trkpt lat="39.76570096643105" lon="8.802547469522615"><ele>215.0</ele><time>2026-04-27T14:44:45.245Z</time></trkpt><trkpt lat="39.765605893855735" lon="8.80281687957548"><ele>217.0</ele><time>2026-04-27T14:44:46.245Z</time></trkpt><trkpt lat="39.76549881808699" lon="8.803086057268755"><ele>217.0</ele><time>2026-04-27T14:44:47.245Z</time></trkpt><trkpt lat="39.76543052741454" lon="8.803347149215046"><ele>217.0</ele><time>2026-04-27T14:44:48.245Z</time></trkpt><trkpt lat="39.765442943639826" lon="8.803660345313045"><ele>216.0</ele><time>2026-04-27T14:44:49.245Z</time></trkpt><trkpt lat="39.765522926130124" lon="8.804065618461536"><ele>215.0</ele><time>2026-04-27T14:44:50.245Z</time></trkpt><trkpt lat="39.76561561752219" lon="8.804455962320056"><ele>212.5</ele><time>2026-04-27T14:44:51.245Z</time></trkpt><trkpt lat="39.765693072253974" lon="8.804808744534347"><ele>210.0</ele><time>2026-04-27T14:44:52.245Z</time></trkpt><trkpt lat="39.76579785172747" lon="8.805153175075402"><ele>211.5</ele><time>2026-04-27T14:44:53.245Z</time></trkpt><trkpt lat="39.76595314794349" lon="8.805489717855913"><ele>213.0</ele><time>2026-04-27T14:44:54.245Z</time></trkpt><trkpt lat="39.76612417629067" lon="8.805790783185198"><ele>205.5</ele><time>2026-04-27T14:44:55.245Z</time></trkpt><trkpt lat="39.76628620665872" lon="8.806023838673099"><ele>198.0</ele><time>2026-04-27T14:44:56.245Z</time></trkpt><trkpt lat="39.76646181887718" lon="8.806201791722303"><ele>198.0</ele><time>2026-04-27T14:44:57.245Z</time></trkpt><trkpt lat="39.76670189749179" lon="8.80629573630152"><ele>198.0</ele><time>2026-04-27T14:44:58.245Z</time></trkpt><trkpt lat="39.76696395074754" lon="8.806376048502935"><ele>203.0</ele><time>2026-04-27T14:44:59.245Z</time></trkpt><trkpt lat="39.767229638878725" lon="8.80644633671301"><ele>208.0</ele><time>2026-04-27T14:45:00.245Z</time></trkpt><trkpt lat="39.76748185194217" lon="8.806518928542397"><ele>209.33333333333331</ele><time>2026-04-27T14:45:01.245Z</time></trkpt><trkpt lat="39.76770708657225" lon="8.806605790611075"><ele>210.66666666666669</ele><time>2026-04-27T14:45:02.245Z</time></trkpt><trkpt lat="39.767904669755715" lon="8.80671448125252"><ele>212.0</ele><time>2026-04-27T14:45:03.246Z</time></trkpt><trkpt lat="39.768089363439856" lon="8.806872751515078"><ele>212.0</ele><time>2026-04-27T14:45:04.246Z</time></trkpt><trkpt lat="39.76824343315424" lon="8.807082323097012"><ele>212.0</ele><time>2026-04-27T14:45:05.246Z</time></trkpt><trkpt lat="39.768365124734224" lon="8.807322059291948"><ele>212.0</ele><time>2026-04-27T14:45:06.246Z</time></trkpt><trkpt lat="39.76846518064114" lon="8.80756071292483"><ele>212.33333333333334</ele><time>2026-04-27T14:45:07.246Z</time></trkpt><trkpt lat="39.768546735540866" lon="8.807802505816877"><ele>212.66666666666669</ele><time>2026-04-27T14:45:08.246Z</time></trkpt><trkpt lat="39.76862230894633" lon="8.808030409422576"><ele>213.0</ele><time>2026-04-27T14:45:09.246Z</time></trkpt><trkpt lat="39.76869802570405" lon="8.808257256803003"><ele>210.0</ele><time>2026-04-27T14:45:10.246Z</time></trkpt><trkpt lat="39.76877468571946" lon="8.808493614012766"><ele>207.0</ele><time>2026-04-27T14:45:11.246Z</time></trkpt><trkpt lat="39.768861696469564" lon="8.808729559551184"><ele>204.0</ele><time>2026-04-27T14:45:12.246Z</time></trkpt><trkpt lat="39.76894897784098" lon="8.808966147586284"><ele>204.0</ele><time>2026-04-27T14:45:13.246Z</time></trkpt><trkpt lat="39.76902789166647" lon="8.8092026162589"><ele>204.0</ele><time>2026-04-27T14:45:14.246Z</time></trkpt><trkpt lat="39.769100069911104" lon="8.80941196578493"><ele>204.0</ele><time>2026-04-27T14:45:15.246Z</time></trkpt><trkpt lat="39.76916770051971" lon="8.809600298113898"><ele>203.0</ele><time>2026-04-27T14:45:16.246Z</time></trkpt><trkpt lat="39.76923426790365" lon="8.8097748039687"><ele>202.0</ele><time>2026-04-27T14:45:17.246Z</time></trkpt><trkpt lat="39.769292022960414" lon="8.809951847142909"><ele>201.0</ele><time>2026-04-27T14:45:18.246Z</time></trkpt><trkpt lat="39.769355979611454" lon="8.81012036037859"><ele>200.0</ele><time>2026-04-27T14:45:19.246Z</time></trkpt><trkpt lat="39.76941541382591" lon="8.810302340768601"><ele>199.75</ele><time>2026-04-27T14:45:20.246Z</time></trkpt><trkpt lat="39.76946002201604" lon="8.810465396145263"><ele>199.5</ele><time>2026-04-27T14:45:21.246Z</time></trkpt><trkpt lat="39.769519499291135" lon="8.810625148806215"><ele>199.25</ele><time>2026-04-27T14:45:22.246Z</time></trkpt><trkpt lat="39.76957353246648" lon="8.810790271388047"><ele>199.0</ele><time>2026-04-27T14:45:23.246Z</time></trkpt><trkpt lat="39.76962985138788" lon="8.810954637054346"><ele>198.39999999999998</ele><time>2026-04-27T14:45:24.246Z</time></trkpt><trkpt lat="39.769692323424145" lon="8.811119852677153"><ele>197.8</ele><time>2026-04-27T14:45:25.246Z</time></trkpt><trkpt lat="39.76976811281602" lon="8.811249679393327"><ele>197.2</ele><time>2026-04-27T14:45:26.246Z</time></trkpt><trkpt lat="39.76982448456879" lon="8.811325044878009"><ele>196.60000000000002</ele><time>2026-04-27T14:45:27.246Z</time></trkpt><trkpt lat="39.76987410054305" lon="8.811387797775156"><ele>196.0</ele><time>2026-04-27T14:45:28.246Z</time></trkpt><trkpt lat="39.76991724865832" lon="8.811456521444274"><ele>196.0</ele><time>2026-04-27T14:45:29.246Z</time></trkpt><trkpt lat="39.76989200854939" lon="8.811540048555946"><ele>196.0</ele><time>2026-04-27T14:45:30.247Z</time></trkpt><trkpt lat="39.76982974161156" lon="8.81164555132308"><ele>196.0</ele><time>2026-04-27T14:45:31.247Z</time></trkpt><trkpt lat="39.769774727084254" lon="8.811752277513756"><ele>196.0</ele><time>2026-04-27T14:45:32.247Z</time></trkpt><trkpt lat="39.76975746315894" lon="8.811881731880373"><ele>196.0</ele><time>2026-04-27T14:45:33.247Z</time></trkpt><trkpt lat="39.769776779334535" lon="8.812028991962746"><ele>195.25</ele><time>2026-04-27T14:45:34.247Z</time></trkpt><trkpt lat="39.769791783140654" lon="8.812176752892958"><ele>194.5</ele><time>2026-04-27T14:45:35.247Z</time></trkpt><trkpt lat="39.76980465527192" lon="8.812324531976762"><ele>193.75</ele><time>2026-04-27T14:45:36.247Z</time></trkpt><trkpt lat="39.769815809536475" lon="8.81248322323316"><ele>193.0</ele><time>2026-04-27T14:45:37.247Z</time></trkpt><trkpt lat="39.76984449295385" lon="8.81264065484573"><ele>192.75</ele><time>2026-04-27T14:45:38.247Z</time></trkpt><trkpt lat="39.7699024871779" lon="8.812776383475383"><ele>192.5</ele><time>2026-04-27T14:45:39.247Z</time></trkpt><trkpt lat="39.769978295613114" lon="8.812892140430643"><ele>192.25</ele><time>2026-04-27T14:45:40.247Z</time></trkpt><trkpt lat="39.77007042822023" lon="8.812986732070721"><ele>192.0</ele><time>2026-04-27T14:45:41.247Z</time></trkpt><trkpt lat="39.77015992251787" lon="8.813062016818954"><ele>192.8</ele><time>2026-04-27T14:45:42.247Z</time></trkpt><trkpt lat="39.770250427573636" lon="8.813122772966054"><ele>193.6</ele><time>2026-04-27T14:45:43.247Z</time></trkpt><trkpt lat="39.77033058204565" lon="8.813193208009206"><ele>194.4</ele><time>2026-04-27T14:45:44.247Z</time></trkpt><trkpt lat="39.77039804451211" lon="8.813286014755091"><ele>195.20000000000002</ele><time>2026-04-27T14:45:45.247Z</time></trkpt><trkpt lat="39.770449507241786" lon="8.813393540901691"><ele>196.0</ele><time>2026-04-27T14:45:46.247Z</time></trkpt><trkpt lat="39.770455627582635" lon="8.813521524284985"><ele>196.16666666666666</ele><time>2026-04-27T14:45:47.247Z</time></trkpt><trkpt lat="39.77041635499517" lon="8.813622656766464"><ele>196.33333333333331</ele><time>2026-04-27T14:45:48.247Z</time></trkpt><trkpt lat="39.77037721584978" lon="8.813708243534727"><ele>196.5</ele><time>2026-04-27T14:45:49.247Z</time></trkpt><trkpt lat="39.77031546014256" lon="8.813819991217482"><ele>196.66666666666669</ele><time>2026-04-27T14:45:51.247Z</time></trkpt><trkpt lat="39.7703438253822" lon="8.813901823724857"><ele>196.83333333333334</ele><time>2026-04-27T14:45:53.247Z</time></trkpt><trkpt lat="39.77043857511529" lon="8.81390507319073"><ele>197.0</ele><time>2026-04-27T14:45:55.247Z</time></trkpt><trkpt lat="39.77051891929219" lon="8.813890314235163"><ele>197.0</ele><time>2026-04-27T14:45:56.247Z</time></trkpt><trkpt lat="39.77060743554955" lon="8.813869447054527"><ele>197.0</ele><time>2026-04-27T14:45:57.247Z</time></trkpt><trkpt lat="39.7707124340716" lon="8.81386204864008"><ele>197.0</ele><time>2026-04-27T14:45:58.247Z</time></trkpt><trkpt lat="39.77080025599547" lon="8.813850039286775"><ele>197.0</ele><time>2026-04-27T14:45:59.247Z</time></trkpt><trkpt lat="39.77088708337081" lon="8.813842176844604"><ele>197.0</ele><time>2026-04-27T14:46:00.247Z</time></trkpt><trkpt lat="39.77098267936661" lon="8.81383528054668"><ele>198.0</ele><time>2026-04-27T14:46:01.247Z</time></trkpt><trkpt lat="39.77108082343157" lon="8.813835018331556"><ele>199.0</ele><time>2026-04-27T14:46:02.247Z</time></trkpt><trkpt lat="39.771181976819605" lon="8.81385436590466"><ele>200.0</ele><time>2026-04-27T14:46:03.247Z</time></trkpt><trkpt lat="39.77126288442155" lon="8.813917342329473"><ele>201.0</ele><time>2026-04-27T14:46:04.247Z</time></trkpt><trkpt lat="39.77130676213911" lon="8.81401188900269"><ele>202.0</ele><time>2026-04-27T14:46:05.247Z</time></trkpt><trkpt lat="39.77129801067004" lon="8.8141413069449"><ele>202.0</ele><time>2026-04-27T14:46:06.247Z</time></trkpt><trkpt lat="39.77127488829953" lon="8.814278499019915"><ele>202.0</ele><time>2026-04-27T14:46:07.247Z</time></trkpt><trkpt lat="39.7712171297816" lon="8.814402327386524"><ele>202.0</ele><time>2026-04-27T14:46:08.247Z</time></trkpt><trkpt lat="39.77118694326865" lon="8.814508238903159"><ele>202.0</ele><time>2026-04-27T14:46:09.247Z</time></trkpt><trkpt lat="39.77120814878233" lon="8.814608141690902"><ele>202.0</ele><time>2026-04-27T14:46:10.247Z</time></trkpt><trkpt lat="39.77127623923419" lon="8.81468983270052"><ele>205.25</ele><time>2026-04-27T14:46:11.247Z</time></trkpt><trkpt lat="39.77136279218276" lon="8.814730190584637"><ele>208.5</ele><time>2026-04-27T14:46:12.247Z</time></trkpt><trkpt lat="39.77147474862266" lon="8.81468247486376"><ele>211.75</ele><time>2026-04-27T14:46:13.247Z</time></trkpt><trkpt lat="39.77159000120822" lon="8.814597051509596"><ele>215.0</ele><time>2026-04-27T14:46:14.247Z</time></trkpt><trkpt lat="39.7716850819895" lon="8.814511324685292"><ele>215.0</ele><time>2026-04-27T14:46:15.247Z</time></trkpt><trkpt lat="39.771803120669105" lon="8.814433403322369"><ele>215.0</ele><time>2026-04-27T14:46:16.247Z</time></trkpt><trkpt lat="39.77192362825775" lon="8.81437486622751"><ele>215.0</ele><time>2026-04-27T14:46:17.247Z</time></trkpt><trkpt lat="39.772058684419264" lon="8.814383294011071"><ele>215.0</ele><time>2026-04-27T14:46:18.247Z</time></trkpt><trkpt lat="39.77219776099047" lon="8.814433184823308"><ele>216.66666666666669</ele><time>2026-04-27T14:46:19.247Z</time></trkpt><trkpt lat="39.772342331623925" lon="8.814508128405514"><ele>218.33333333333331</ele><time>2026-04-27T14:46:20.247Z</time></trkpt><trkpt lat="39.77249366238645" lon="8.814590481595692"><ele>220.0</ele><time>2026-04-27T14:46:21.247Z</time></trkpt><trkpt lat="39.772635130770716" lon="8.814643828385845"><ele>220.0</ele><time>2026-04-27T14:46:22.247Z</time></trkpt><trkpt lat="39.77275855504423" lon="8.814661345843861"><ele>220.0</ele><time>2026-04-27T14:46:23.247Z</time></trkpt><trkpt lat="39.77287419641148" lon="8.81465542519311"><ele>220.0</ele><time>2026-04-27T14:46:24.247Z</time></trkpt><trkpt lat="39.77297479477076" lon="8.8146505781083"><ele>220.0</ele><time>2026-04-27T14:46:25.247Z</time></trkpt><trkpt lat="39.77305640912161" lon="8.814651146851281"><ele>220.0</ele><time>2026-04-27T14:46:26.247Z</time></trkpt><trkpt lat="39.77313218441863" lon="8.814638853252605"><ele>219.99999999999997</ele><time>2026-04-27T14:46:27.247Z</time></trkpt><trkpt lat="39.773205262970436" lon="8.814625892537954"><ele>220.0</ele><time>2026-04-27T14:46:28.247Z</time></trkpt><trkpt lat="39.77327729660367" lon="8.814630245574534"><ele>220.0</ele><time>2026-04-27T14:46:29.247Z</time></trkpt><trkpt lat="39.7733504763017" lon="8.814638520469142"><ele>220.0</ele><time>2026-04-27T14:46:30.247Z</time></trkpt><trkpt lat="39.773420992304" lon="8.814651666279495"><ele>220.0</ele><time>2026-04-27T14:46:31.247Z</time></trkpt><trkpt lat="39.77348883435751" lon="8.814676601048662"><ele>219.99999999999997</ele><time>2026-04-27T14:46:32.247Z</time></trkpt><trkpt lat="39.773557500843964" lon="8.814708636224436"><ele>220.0</ele><time>2026-04-27T14:46:33.247Z</time></trkpt><trkpt lat="39.773633287281406" lon="8.814758902117772"><ele>219.2</ele><time>2026-04-27T14:46:34.247Z</time></trkpt><trkpt lat="39.77370475175492" lon="8.81481218759262"><ele>218.4</ele><time>2026-04-27T14:46:35.247Z</time></trkpt><trkpt lat="39.773780657502584" lon="8.814869453373722"><ele>217.60000000000002</ele><time>2026-04-27T14:46:36.247Z</time></trkpt><trkpt lat="39.77385908153051" lon="8.814931465469224"><ele>216.8</ele><time>2026-04-27T14:46:37.247Z</time></trkpt><trkpt lat="39.77394984319104" lon="8.814985222066925"><ele>216.0</ele><time>2026-04-27T14:46:38.247Z</time></trkpt><trkpt lat="39.77405165642423" lon="8.815042978731924"><ele>216.0</ele><time>2026-04-27T14:46:39.247Z</time></trkpt><trkpt lat="39.77416795323472" lon="8.815085703380273"><ele>216.0</ele><time>2026-04-27T14:46:40.247Z</time></trkpt><trkpt lat="39.77428804559314" lon="8.815117365506023"><ele>216.0</ele><time>2026-04-27T14:46:41.247Z</time></trkpt><trkpt lat="39.77443249567779" lon="8.81512472692463"><ele>216.0</ele><time>2026-04-27T14:46:42.247Z</time></trkpt><trkpt lat="39.77457551229003" lon="8.815104306631019"><ele>213.66666666666669</ele><time>2026-04-27T14:46:43.248Z</time></trkpt><trkpt lat="39.77470942818636" lon="8.81503813507853"><ele>211.33333333333334</ele><time>2026-04-27T14:46:44.248Z</time></trkpt><trkpt lat="39.77484604190685" lon="8.814946194304305"><ele>209.0</ele><time>2026-04-27T14:46:45.248Z</time></trkpt><trkpt lat="39.7749833871492" lon="8.814847572902728"><ele>209.0</ele><time>2026-04-27T14:46:46.248Z</time></trkpt><trkpt lat="39.77512685555004" lon="8.814785566987"><ele>209.0</ele><time>2026-04-27T14:46:47.248Z</time></trkpt><trkpt lat="39.775267343290075" lon="8.814765576649744"><ele>209.0</ele><time>2026-04-27T14:46:48.248Z</time></trkpt><trkpt lat="39.77540202209914" lon="8.814761307356028"><ele>209.0</ele><time>2026-04-27T14:46:49.248Z</time></trkpt><trkpt lat="39.77552650983168" lon="8.814783003731545"><ele>209.75</ele><time>2026-04-27T14:46:50.248Z</time></trkpt><trkpt lat="39.7756375895364" lon="8.814855876481941"><ele>210.5</ele><time>2026-04-27T14:46:51.248Z</time></trkpt><trkpt lat="39.775693112712" lon="8.81501327389945"><ele>211.25</ele><time>2026-04-27T14:46:52.248Z</time></trkpt><trkpt lat="39.77566155526701" lon="8.815154926495218"><ele>212.0</ele><time>2026-04-27T14:46:53.248Z</time></trkpt><trkpt lat="39.77556026474041" lon="8.815253195697627"><ele>213.66666666666669</ele><time>2026-04-27T14:46:54.248Z</time></trkpt><trkpt lat="39.77541872488511" lon="8.815324404465683"><ele>215.33333333333331</ele><time>2026-04-27T14:46:55.248Z</time></trkpt><trkpt lat="39.77529318169687" lon="8.815445737257752"><ele>217.0</ele><time>2026-04-27T14:46:56.248Z</time></trkpt><trkpt lat="39.77519651574512" lon="8.815641027464883"><ele>212.66666666666666</ele><time>2026-04-27T14:46:57.248Z</time></trkpt><trkpt lat="39.7751396385496" lon="8.815883296079804"><ele>208.33333333333331</ele><time>2026-04-27T14:46:58.248Z</time></trkpt><trkpt lat="39.77512722494104" lon="8.816146632191236"><ele>204.0</ele><time>2026-04-27T14:46:59.248Z</time></trkpt><trkpt lat="39.77514948407489" lon="8.816389909432994"><ele>204.0</ele><time>2026-04-27T14:47:00.248Z</time></trkpt><trkpt lat="39.775153375943354" lon="8.81659879523138"><ele>204.0</ele><time>2026-04-27T14:47:01.248Z</time></trkpt><trkpt lat="39.775215105528915" lon="8.81677448494928"><ele>204.0</ele><time>2026-04-27T14:47:02.248Z</time></trkpt><trkpt lat="39.77532825748599" lon="8.81691366196989"><ele>204.0</ele><time>2026-04-27T14:47:03.248Z</time></trkpt><trkpt lat="39.77545084433935" lon="8.81703579632511"><ele>204.0</ele><time>2026-04-27T14:47:04.248Z</time></trkpt><trkpt lat="39.77552131791156" lon="8.81716243593106"><ele>204.0</ele><time>2026-04-27T14:47:05.248Z</time></trkpt><trkpt lat="39.775518728962716" lon="8.817315909787341"><ele>204.0</ele><time>2026-04-27T14:47:06.248Z</time></trkpt><trkpt lat="39.7754403631771" lon="8.817455950669823"><ele>204.0</ele><time>2026-04-27T14:47:07.248Z</time></trkpt><trkpt lat="39.77530610532397" lon="8.817545150543914"><ele>204.0</ele><time>2026-04-27T14:47:08.248Z</time></trkpt><trkpt lat="39.77513434332884" lon="8.817601364060208"><ele>204.0</ele><time>2026-04-27T14:47:09.248Z</time></trkpt><trkpt lat="39.77494949251182" lon="8.817704203918517"><ele>207.0</ele><time>2026-04-27T14:47:10.249Z</time></trkpt><trkpt lat="39.774781358752776" lon="8.817864276379591"><ele>210.0</ele><time>2026-04-27T14:47:11.249Z</time></trkpt><trkpt lat="39.77463945559899" lon="8.818097227738791"><ele>213.0</ele><time>2026-04-27T14:47:12.248Z</time></trkpt><trkpt lat="39.77450741189577" lon="8.818372502874643"><ele>207.5</ele><time>2026-04-27T14:47:13.249Z</time></trkpt><trkpt lat="39.77435093945263" lon="8.818666703727612"><ele>202.0</ele><time>2026-04-27T14:47:14.249Z</time></trkpt><trkpt lat="39.77420210155138" lon="8.818947614126113"><ele>202.0</ele><time>2026-04-27T14:47:15.249Z</time></trkpt><trkpt lat="39.774077093240905" lon="8.819186111257336"><ele>202.0</ele><time>2026-04-27T14:47:16.248Z</time></trkpt><trkpt lat="39.773974921934936" lon="8.8193877431321"><ele>202.0</ele><time>2026-04-27T14:47:17.248Z</time></trkpt><trkpt lat="39.77388813978891" lon="8.819582530420634"><ele>201.33333333333331</ele><time>2026-04-27T14:47:18.248Z</time></trkpt><trkpt lat="39.77386218397855" lon="8.819787973689813"><ele>200.66666666666669</ele><time>2026-04-27T14:47:19.248Z</time></trkpt><trkpt lat="39.773901574390834" lon="8.820006991612491"><ele>200.0</ele><time>2026-04-27T14:47:20.248Z</time></trkpt><trkpt lat="39.7739984709436" lon="8.820229946884163"><ele>196.5</ele><time>2026-04-27T14:47:21.249Z</time></trkpt><trkpt lat="39.77414207502389" lon="8.820488995983393"><ele>193.0</ele><time>2026-04-27T14:47:22.248Z</time></trkpt><trkpt lat="39.77428477771779" lon="8.82078242078551"><ele>193.5</ele><time>2026-04-27T14:47:23.248Z</time></trkpt><trkpt lat="39.7744311892713" lon="8.821082538664287"><ele>194.0</ele><time>2026-04-27T14:47:24.248Z</time></trkpt><trkpt lat="39.7745756879418" lon="8.821383278693947"><ele>194.0</ele><time>2026-04-27T14:47:25.248Z</time></trkpt><trkpt lat="39.77471584908282" lon="8.821666811530296"><ele>194.0</ele><time>2026-04-27T14:47:26.248Z</time></trkpt><trkpt lat="39.77485623804482" lon="8.821953793932675"><ele>190.5</ele><time>2026-04-27T14:47:27.248Z</time></trkpt><trkpt lat="39.774996596442975" lon="8.822237378165514"><ele>187.0</ele><time>2026-04-27T14:47:28.248Z</time></trkpt><trkpt lat="39.77513327763169" lon="8.822517070114797"><ele>189.5</ele><time>2026-04-27T14:47:29.248Z</time></trkpt><trkpt lat="39.775270478322305" lon="8.822798086064722"><ele>192.0</ele><time>2026-04-27T14:47:30.248Z</time></trkpt><trkpt lat="39.77540559071402" lon="8.823071950273395"><ele>192.0</ele><time>2026-04-27T14:47:31.248Z</time></trkpt><trkpt lat="39.77553910563264" lon="8.8233301928658"><ele>192.0</ele><time>2026-04-27T14:47:32.248Z</time></trkpt><trkpt lat="39.77566316259344" lon="8.823581363843438"><ele>193.33333333333331</ele><time>2026-04-27T14:47:33.248Z</time></trkpt><trkpt lat="39.77575982799899" lon="8.82383750197886"><ele>194.66666666666666</ele><time>2026-04-27T14:47:34.248Z</time></trkpt><trkpt lat="39.775798467500714" lon="8.824099935076944"><ele>196.0</ele><time>2026-04-27T14:47:35.248Z</time></trkpt><trkpt lat="39.77579629453803" lon="8.824329481472406"><ele>196.0</ele><time>2026-04-27T14:47:36.248Z</time></trkpt><trkpt lat="39.77575170444038" lon="8.82450634430545"><ele>196.0</ele><time>2026-04-27T14:47:37.248Z</time></trkpt><trkpt lat="39.77565422302184" lon="8.824673591497053"><ele>196.0</ele><time>2026-04-27T14:47:38.248Z</time></trkpt><trkpt lat="39.775529255285726" lon="8.82484356933549"><ele>196.0</ele><time>2026-04-27T14:47:39.248Z</time></trkpt><trkpt lat="39.775377655762085" lon="8.825038391185648"><ele>196.0</ele><time>2026-04-27T14:47:40.248Z</time></trkpt><trkpt lat="39.775232472030055" lon="8.82525584348026"><ele>196.0</ele><time>2026-04-27T14:47:41.248Z</time></trkpt><trkpt lat="39.775082509138215" lon="8.825498976492588"><ele>196.0</ele><time>2026-04-27T14:47:42.248Z</time></trkpt><trkpt lat="39.774957474089675" lon="8.825771242146267"><ele>196.0</ele><time>2026-04-27T14:47:43.248Z</time></trkpt><trkpt lat="39.7748696347771" lon="8.826048845411202"><ele>196.0</ele><time>2026-04-27T14:47:44.248Z</time></trkpt><trkpt lat="39.7748102846984" lon="8.826307937222925"><ele>196.0</ele><time>2026-04-27T14:47:45.248Z</time></trkpt><trkpt lat="39.77480086372533" lon="8.826559673775186"><ele>196.0</ele><time>2026-04-27T14:47:46.249Z</time></trkpt><trkpt lat="39.77484502193905" lon="8.82682755460056"><ele>192.5</ele><time>2026-04-27T14:47:47.249Z</time></trkpt><trkpt lat="39.774922242114236" lon="8.827113217616661"><ele>189.0</ele><time>2026-04-27T14:47:48.249Z</time></trkpt><trkpt lat="39.77499755490512" lon="8.827409429255281"><ele>190.0</ele><time>2026-04-27T14:47:49.249Z</time></trkpt><trkpt lat="39.77504561614846" lon="8.827655878688708"><ele>191.0</ele><time>2026-04-27T14:47:50.249Z</time></trkpt><trkpt lat="39.77510541826428" lon="8.827852541703132"><ele>192.0</ele><time>2026-04-27T14:47:51.249Z</time></trkpt><trkpt lat="39.77521995994128" lon="8.828009575403536"><ele>192.0</ele><time>2026-04-27T14:47:52.249Z</time></trkpt><trkpt lat="39.775393385540866" lon="8.828129990429556"><ele>192.0</ele><time>2026-04-27T14:47:53.249Z</time></trkpt><trkpt lat="39.7756260454279" lon="8.828205142512466"><ele>192.0</ele><time>2026-04-27T14:47:54.249Z</time></trkpt><trkpt lat="39.775820962313155" lon="8.828314599708412"><ele>192.0</ele><time>2026-04-27T14:47:55.249Z</time></trkpt><trkpt lat="39.775973397976934" lon="8.82846177206873"><ele>192.0</ele><time>2026-04-27T14:47:56.249Z</time></trkpt><trkpt lat="39.776075354295095" lon="8.82866695539082"><ele>192.0</ele><time>2026-04-27T14:47:57.249Z</time></trkpt><trkpt lat="39.776125179880154" lon="8.82891973289818"><ele>193.33333333333331</ele><time>2026-04-27T14:47:58.249Z</time></trkpt><trkpt lat="39.77613618529509" lon="8.829176101100545"><ele>194.66666666666666</ele><time>2026-04-27T14:47:59.249Z</time></trkpt><trkpt lat="39.77619558333564" lon="8.829394808489456"><ele>196.0</ele><time>2026-04-27T14:48:00.249Z</time></trkpt><trkpt lat="39.77632025670031" lon="8.82960141003098"><ele>192.0</ele><time>2026-04-27T14:48:01.249Z</time></trkpt><trkpt lat="39.77652850183504" lon="8.829773827333156"><ele>188.0</ele><time>2026-04-27T14:48:02.249Z</time></trkpt><trkpt lat="39.776704877553335" lon="8.829985580950462"><ele>187.0</ele><time>2026-04-27T14:48:03.249Z</time></trkpt><trkpt lat="39.77687803964559" lon="8.830207020995852"><ele>186.0</ele><time>2026-04-27T14:48:04.249Z</time></trkpt><trkpt lat="39.77705308657203" lon="8.830440736448047"><ele>186.0</ele><time>2026-04-27T14:48:05.249Z</time></trkpt><trkpt lat="39.77723138848728" lon="8.830673052461531"><ele>186.0</ele><time>2026-04-27T14:48:06.249Z</time></trkpt><trkpt lat="39.77740877156421" lon="8.83090406085886"><ele>183.5</ele><time>2026-04-27T14:48:07.249Z</time></trkpt><trkpt lat="39.77758823943127" lon="8.8311414221972"><ele>181.0</ele><time>2026-04-27T14:48:08.249Z</time></trkpt><trkpt lat="39.77778022504584" lon="8.831391652518382"><ele>181.0</ele><time>2026-04-27T14:48:09.249Z</time></trkpt><trkpt lat="39.77796183957272" lon="8.831648372182125"><ele>181.0</ele><time>2026-04-27T14:48:10.249Z</time></trkpt><trkpt lat="39.778146179073" lon="8.83188576516503"><ele>178.5</ele><time>2026-04-27T14:48:11.249Z</time></trkpt><trkpt lat="39.77831986091718" lon="8.832109513439399"><ele>176.0</ele><time>2026-04-27T14:48:12.249Z</time></trkpt><trkpt lat="39.77848464972331" lon="8.832330122845338"><ele>176.0</ele><time>2026-04-27T14:48:13.249Z</time></trkpt><trkpt lat="39.778656764629" lon="8.832558607428224"><ele>176.0</ele><time>2026-04-27T14:48:14.249Z</time></trkpt><trkpt lat="39.77883567818117" lon="8.832800142526636"><ele>176.0</ele><time>2026-04-27T14:48:15.249Z</time></trkpt><trkpt lat="39.779009774648046" lon="8.833043714401944"><ele>176.0</ele><time>2026-04-27T14:48:16.249Z</time></trkpt><trkpt lat="39.779172629492884" lon="8.833271312294938"><ele>176.0</ele><time>2026-04-27T14:48:17.249Z</time></trkpt><trkpt lat="39.77933177033501" lon="8.833468088237574"><ele>176.0</ele><time>2026-04-27T14:48:18.249Z</time></trkpt><trkpt lat="39.77949961365223" lon="8.83361008617972"><ele>176.0</ele><time>2026-04-27T14:48:19.249Z</time></trkpt><trkpt lat="39.77970166933141" lon="8.833680616467007"><ele>172.5</ele><time>2026-04-27T14:48:20.249Z</time></trkpt><trkpt lat="39.77993121874248" lon="8.833669975031459"><ele>169.0</ele><time>2026-04-27T14:48:21.249Z</time></trkpt><trkpt lat="39.780160869663696" lon="8.833597782319234"><ele>170.5</ele><time>2026-04-27T14:48:22.249Z</time></trkpt><trkpt lat="39.78040429548401" lon="8.833506423400237"><ele>172.0</ele><time>2026-04-27T14:48:23.249Z</time></trkpt><trkpt lat="39.78065690937383" lon="8.833418920007361"><ele>172.0</ele><time>2026-04-27T14:48:24.249Z</time></trkpt><trkpt lat="39.780903927024475" lon="8.833338303909125"><ele>172.0</ele><time>2026-04-27T14:48:25.249Z</time></trkpt><trkpt lat="39.78114150947774" lon="8.833258429104239"><ele>170.0</ele><time>2026-04-27T14:48:26.249Z</time></trkpt><trkpt lat="39.78136045475447" lon="8.833182132867378"><ele>168.0</ele><time>2026-04-27T14:48:27.249Z</time></trkpt><trkpt lat="39.78157041670815" lon="8.833105830386971"><ele>166.0</ele><time>2026-04-27T14:48:28.249Z</time></trkpt><trkpt lat="39.78177300494798" lon="8.833028898970621"><ele>165.33333333333334</ele><time>2026-04-27T14:48:29.249Z</time></trkpt><trkpt lat="39.78195033505251" lon="8.832956074944633"><ele>164.66666666666666</ele><time>2026-04-27T14:48:30.249Z</time></trkpt><trkpt lat="39.78211476262697" lon="8.832889249076846"><ele>164.0</ele><time>2026-04-27T14:48:31.249Z</time></trkpt><trkpt lat="39.78227561029852" lon="8.832838062221175"><ele>164.0</ele><time>2026-04-27T14:48:32.249Z</time></trkpt><trkpt lat="39.782423166220426" lon="8.832846700345884"><ele>164.0</ele><time>2026-04-27T14:48:33.249Z</time></trkpt><trkpt lat="39.78254592642574" lon="8.83293619818141"><ele>164.0</ele><time>2026-04-27T14:48:34.249Z</time></trkpt><trkpt lat="39.78261999615726" lon="8.833122247968442"><ele>164.0</ele><time>2026-04-27T14:48:35.249Z</time></trkpt><trkpt lat="39.78264926826214" lon="8.833350091392784"><ele>164.66666666666666</ele><time>2026-04-27T14:48:36.249Z</time></trkpt><trkpt lat="39.782663557884305" lon="8.833605924790215"><ele>165.33333333333334</ele><time>2026-04-27T14:48:37.249Z</time></trkpt><trkpt lat="39.782681798960304" lon="8.833872055185687"><ele>166.0</ele><time>2026-04-27T14:48:38.249Z</time></trkpt><trkpt lat="39.78268874540474" lon="8.83412157109903"><ele>167.0</ele><time>2026-04-27T14:48:39.249Z</time></trkpt><trkpt lat="39.78264139561468" lon="8.834362373204137"><ele>168.0</ele><time>2026-04-27T14:48:40.249Z</time></trkpt><trkpt lat="39.78254779131044" lon="8.834596126603406"><ele>169.0</ele><time>2026-04-27T14:48:41.249Z</time></trkpt><trkpt lat="39.78244447252549" lon="8.834846933926693"><ele>169.0</ele><time>2026-04-27T14:48:42.249Z</time></trkpt><trkpt lat="39.78237479237679" lon="8.835137331046397"><ele>169.0</ele><time>2026-04-27T14:48:43.249Z</time></trkpt><trkpt lat="39.782314695744226" lon="8.835458849144871"><ele>170.5</ele><time>2026-04-27T14:48:44.249Z</time></trkpt><trkpt lat="39.782249533876225" lon="8.835784504345732"><ele>172.0</ele><time>2026-04-27T14:48:45.249Z</time></trkpt><trkpt lat="39.78219448452482" lon="8.836074463014459"><ele>173.66666666666669</ele><time>2026-04-27T14:48:46.249Z</time></trkpt><trkpt lat="39.78215259265254" lon="8.836327296201528"><ele>175.33333333333334</ele><time>2026-04-27T14:48:47.249Z</time></trkpt><trkpt lat="39.78216063927113" lon="8.836542654135936"><ele>177.0</ele><time>2026-04-27T14:48:48.249Z</time></trkpt><trkpt lat="39.78222079955581" lon="8.836751712680654"><ele>176.33333333333334</ele><time>2026-04-27T14:48:49.249Z</time></trkpt><trkpt lat="39.78234153683854" lon="8.836948929169077"><ele>175.66666666666669</ele><time>2026-04-27T14:48:50.249Z</time></trkpt><trkpt lat="39.78252791135416" lon="8.837113171007443"><ele>175.0</ele><time>2026-04-27T14:48:51.249Z</time></trkpt><trkpt lat="39.78275138619395" lon="8.837252727519695"><ele>177.33333333333334</ele><time>2026-04-27T14:48:52.249Z</time></trkpt><trkpt lat="39.78296530216606" lon="8.83739103392178"><ele>179.66666666666666</ele><time>2026-04-27T14:48:53.249Z</time></trkpt><trkpt lat="39.78313581033824" lon="8.83749432269776"><ele>182.0</ele><time>2026-04-27T14:48:54.249Z</time></trkpt><trkpt lat="39.78326935183196" lon="8.837547014747189"><ele>182.0</ele><time>2026-04-27T14:48:55.249Z</time></trkpt><trkpt lat="39.78340915368579" lon="8.83752008885658"><ele>182.0</ele><time>2026-04-27T14:48:56.249Z</time></trkpt><trkpt lat="39.78354715583431" lon="8.837471906892354"><ele>182.0</ele><time>2026-04-27T14:48:57.249Z</time></trkpt><trkpt lat="39.7836514678874" lon="8.837478474187735"><ele>182.0</ele><time>2026-04-27T14:48:58.249Z</time></trkpt><trkpt lat="39.78373261324066" lon="8.837562019380341"><ele>185.33333333333331</ele><time>2026-04-27T14:48:59.25Z</time></trkpt><trkpt lat="39.78377665817502" lon="8.837748214138301"><ele>188.66666666666666</ele><time>2026-04-27T14:49:00.25Z</time></trkpt><trkpt lat="39.783748735251606" lon="8.837928479852874"><ele>192.0</ele><time>2026-04-27T14:49:01.25Z</time></trkpt><trkpt lat="39.78364604942633" lon="8.838087472505888"><ele>190.66666666666666</ele><time>2026-04-27T14:49:02.25Z</time></trkpt><trkpt lat="39.783497073166224" lon="8.838207365603363"><ele>189.33333333333331</ele><time>2026-04-27T14:49:03.25Z</time></trkpt><trkpt lat="39.78337545835547" lon="8.838376922792664"><ele>188.0</ele><time>2026-04-27T14:49:04.25Z</time></trkpt><trkpt lat="39.7833152979987" lon="8.838610341073126"><ele>188.0</ele><time>2026-04-27T14:49:05.25Z</time></trkpt><trkpt lat="39.783302709544486" lon="8.838834029859031"><ele>188.0</ele><time>2026-04-27T14:49:06.25Z</time></trkpt><trkpt lat="39.78334595952152" lon="8.83903692198164"><ele>188.0</ele><time>2026-04-27T14:49:07.25Z</time></trkpt><trkpt lat="39.78344800198443" lon="8.839248300620756"><ele>189.66666666666666</ele><time>2026-04-27T14:49:08.25Z</time></trkpt><trkpt lat="39.78357844330475" lon="8.839434885292187"><ele>191.33333333333331</ele><time>2026-04-27T14:49:09.25Z</time></trkpt><trkpt lat="39.78374371103888" lon="8.839514308147862"><ele>193.0</ele><time>2026-04-27T14:49:10.25Z</time></trkpt><trkpt lat="39.78394682322067" lon="8.839547720969598"><ele>193.0</ele><time>2026-04-27T14:49:11.25Z</time></trkpt><trkpt lat="39.78414988630734" lon="8.839583631119895"><ele>193.0</ele><time>2026-04-27T14:49:12.25Z</time></trkpt><trkpt lat="39.78432944136556" lon="8.839703987128145"><ele>193.0</ele><time>2026-04-27T14:49:13.25Z</time></trkpt><trkpt lat="39.78445183212498" lon="8.839906760369484"><ele>194.0</ele><time>2026-04-27T14:49:14.25Z</time></trkpt><trkpt lat="39.78454615070294" lon="8.840150556907243"><ele>195.0</ele><time>2026-04-27T14:49:15.252Z</time></trkpt><trkpt lat="39.78464701580588" lon="8.840418608845962"><ele>196.0</ele><time>2026-04-27T14:49:16.251Z</time></trkpt><trkpt lat="39.784769011406645" lon="8.840678639655145"><ele>196.0</ele><time>2026-04-27T14:49:17.251Z</time></trkpt><trkpt lat="39.784905882097334" lon="8.840940640628277"><ele>196.0</ele><time>2026-04-27T14:49:18.252Z</time></trkpt><trkpt lat="39.785021643196586" lon="8.84117297513324"><ele>195.66666666666666</ele><time>2026-04-27T14:49:19.251Z</time></trkpt><trkpt lat="39.785129386720136" lon="8.841379524610634"><ele>195.33333333333331</ele><time>2026-04-27T14:49:20.251Z</time></trkpt><trkpt lat="39.785226292087124" lon="8.841597171078886"><ele>195.0</ele><time>2026-04-27T14:49:21.251Z</time></trkpt><trkpt lat="39.7853110735588" lon="8.84176521433647"><ele>193.5</ele><time>2026-04-27T14:49:22.251Z</time></trkpt><trkpt lat="39.78535511435114" lon="8.841908496191273"><ele>192.0</ele><time>2026-04-27T14:49:23.251Z</time></trkpt><trkpt lat="39.78535396170833" lon="8.842057451519581"><ele>190.5</ele><time>2026-04-27T14:49:24.251Z</time></trkpt><trkpt lat="39.78525740216921" lon="8.842210627435644"><ele>189.0</ele><time>2026-04-27T14:49:25.251Z</time></trkpt><trkpt lat="39.78509946832757" lon="8.84235456778438"><ele>189.0</ele><time>2026-04-27T14:49:26.251Z</time></trkpt><trkpt lat="39.784932362432365" lon="8.842513555303228"><ele>189.0</ele><time>2026-04-27T14:49:27.252Z</time></trkpt><trkpt lat="39.7847770245666" lon="8.842668994593744"><ele>189.0</ele><time>2026-04-27T14:49:28.251Z</time></trkpt><trkpt lat="39.784639074657136" lon="8.842805318868558"><ele>188.25</ele><time>2026-04-27T14:49:29.251Z</time></trkpt><trkpt lat="39.7845122363931" lon="8.842895951688224"><ele>187.5</ele><time>2026-04-27T14:49:30.251Z</time></trkpt><trkpt lat="39.784392966114396" lon="8.842988262438777"><ele>186.75</ele><time>2026-04-27T14:49:31.251Z</time></trkpt><trkpt lat="39.78433250895286" lon="8.843151668894077"><ele>186.0</ele><time>2026-04-27T14:49:32.251Z</time></trkpt><trkpt lat="39.78432850587517" lon="8.84337872685691"><ele>187.0</ele><time>2026-04-27T14:49:33.251Z</time></trkpt><trkpt lat="39.78435564881845" lon="8.843563621039838"><ele>188.0</ele><time>2026-04-27T14:49:34.251Z</time></trkpt><trkpt lat="39.784336187642204" lon="8.84369191062214"><ele>189.0</ele><time>2026-04-27T14:49:35.251Z</time></trkpt><trkpt lat="39.78424872200068" lon="8.843767837737355"><ele>190.0</ele><time>2026-04-27T14:49:36.251Z</time></trkpt><trkpt lat="39.78411783240015" lon="8.84380622053256"><ele>190.0</ele><time>2026-04-27T14:49:37.251Z</time></trkpt><trkpt lat="39.78399243261442" lon="8.843872117382295"><ele>190.0</ele><time>2026-04-27T14:49:38.251Z</time></trkpt><trkpt lat="39.78392122045014" lon="8.84400224148156"><ele>190.0</ele><time>2026-04-27T14:49:39.251Z</time></trkpt><trkpt lat="39.78393782838337" lon="8.844160905739928"><ele>190.0</ele><time>2026-04-27T14:49:40.251Z</time></trkpt><trkpt lat="39.784051482232776" lon="8.844313917118672"><ele>191.0</ele><time>2026-04-27T14:49:41.251Z</time></trkpt><trkpt lat="39.784204708503495" lon="8.844467842163171"><ele>192.0</ele><time>2026-04-27T14:49:42.251Z</time></trkpt><trkpt lat="39.784318793583715" lon="8.844660781476756"><ele>193.0</ele><time>2026-04-27T14:49:43.252Z</time></trkpt><trkpt lat="39.78434684266977" lon="8.844885077995725"><ele>193.0</ele><time>2026-04-27T14:49:44.252Z</time></trkpt><trkpt lat="39.78430260540236" lon="8.84510089122836"><ele>193.0</ele><time>2026-04-27T14:49:45.252Z</time></trkpt><trkpt lat="39.78425387729459" lon="8.84527293884862"><ele>193.0</ele><time>2026-04-27T14:49:46.252Z</time></trkpt><trkpt lat="39.784290307706655" lon="8.845450214126629"><ele>194.66666666666666</ele><time>2026-04-27T14:49:47.252Z</time></trkpt><trkpt lat="39.78444733755178" lon="8.845582340298222"><ele>196.33333333333331</ele><time>2026-04-27T14:49:48.252Z</time></trkpt><trkpt lat="39.78467100317168" lon="8.84566600108331"><ele>198.0</ele><time>2026-04-27T14:49:49.252Z</time></trkpt><trkpt lat="39.78490210607115" lon="8.845751245995716"><ele>198.0</ele><time>2026-04-27T14:49:50.252Z</time></trkpt><trkpt lat="39.785100177764804" lon="8.845844589697446"><ele>198.0</ele><time>2026-04-27T14:49:51.252Z</time></trkpt><trkpt lat="39.785262996420826" lon="8.845968980236757"><ele>198.0</ele><time>2026-04-27T14:49:52.252Z</time></trkpt><trkpt lat="39.785382113075954" lon="8.846092279508033"><ele>199.2</ele><time>2026-04-27T14:49:53.252Z</time></trkpt><trkpt lat="39.78547533965051" lon="8.846195736558782"><ele>200.4</ele><time>2026-04-27T14:49:54.252Z</time></trkpt><trkpt lat="39.78555539213479" lon="8.846274214746952"><ele>201.6</ele><time>2026-04-27T14:49:55.252Z</time></trkpt><trkpt lat="39.785624341824615" lon="8.846344405329358"><ele>202.79999999999998</ele><time>2026-04-27T14:49:56.252Z</time></trkpt><trkpt lat="39.785685679244104" lon="8.846435848036228"><ele>204.0</ele><time>2026-04-27T14:49:57.252Z</time></trkpt><trkpt lat="39.78573970334369" lon="8.846566340355556"><ele>204.0</ele><time>2026-04-27T14:49:58.252Z</time></trkpt><trkpt lat="39.78575492147503" lon="8.846755229237056"><ele>204.0</ele><time>2026-04-27T14:49:59.252Z</time></trkpt><trkpt lat="39.785729763151345" lon="8.846982127004873"><ele>204.0</ele><time>2026-04-27T14:50:00.252Z</time></trkpt><trkpt lat="39.78567105608173" lon="8.847234997820175"><ele>205.33333333333331</ele><time>2026-04-27T14:50:01.252Z</time></trkpt><trkpt lat="39.78561157027069" lon="8.847503779688337"><ele>206.66666666666666</ele><time>2026-04-27T14:50:02.252Z</time></trkpt><trkpt lat="39.785562942823866" lon="8.847794845454356"><ele>208.0</ele><time>2026-04-27T14:50:03.252Z</time></trkpt><trkpt lat="39.78551657662219" lon="8.848102680965534"><ele>210.0</ele><time>2026-04-27T14:50:04.252Z</time></trkpt><trkpt lat="39.78546519119152" lon="8.848415031398082"><ele>212.0</ele><time>2026-04-27T14:50:05.252Z</time></trkpt><trkpt lat="39.78541013910087" lon="8.848735293180084"><ele>213.0</ele><time>2026-04-27T14:50:06.252Z</time></trkpt><trkpt lat="39.78535866178929" lon="8.849064109719622"><ele>214.0</ele><time>2026-04-27T14:50:07.252Z</time></trkpt><trkpt lat="39.78532733417565" lon="8.849398546625187"><ele>215.0</ele><time>2026-04-27T14:50:08.252Z</time></trkpt><trkpt lat="39.78531559372265" lon="8.849737019580113"><ele>216.0</ele><time>2026-04-27T14:50:09.252Z</time></trkpt><trkpt lat="39.78530681893811" lon="8.850069457373207"><ele>217.0</ele><time>2026-04-27T14:50:10.252Z</time></trkpt><trkpt lat="39.78529479472701" lon="8.850383707722347"><ele>218.0</ele><time>2026-04-27T14:50:11.252Z</time></trkpt><trkpt lat="39.78528764140891" lon="8.850674336593002"><ele>218.0</ele><time>2026-04-27T14:50:12.252Z</time></trkpt><trkpt lat="39.78530674841139" lon="8.850946865822296"><ele>218.0</ele><time>2026-04-27T14:50:13.252Z</time></trkpt><trkpt lat="39.78537343801395" lon="8.851217751478051"><ele>218.0</ele><time>2026-04-27T14:50:14.252Z</time></trkpt><trkpt lat="39.785499817395056" lon="8.851465804712088"><ele>219.0</ele><time>2026-04-27T14:50:15.252Z</time></trkpt><trkpt lat="39.78567572228436" lon="8.851680955959642"><ele>220.0</ele><time>2026-04-27T14:50:16.252Z</time></trkpt><trkpt lat="39.78588407374668" lon="8.851867060837382"><ele>220.0</ele><time>2026-04-27T14:50:17.252Z</time></trkpt><trkpt lat="39.78609278339196" lon="8.852056526866296"><ele>220.0</ele><time>2026-04-27T14:50:18.252Z</time></trkpt><trkpt lat="39.786290242105466" lon="8.852259760762731"><ele>220.0</ele><time>2026-04-27T14:50:19.252Z</time></trkpt><trkpt lat="39.786491019846224" lon="8.85246956346898"><ele>220.0</ele><time>2026-04-27T14:50:20.252Z</time></trkpt><trkpt lat="39.786677438716325" lon="8.852669457125442"><ele>216.5</ele><time>2026-04-27T14:50:21.252Z</time></trkpt><trkpt lat="39.78685679540075" lon="8.852855702484911"><ele>213.0</ele><time>2026-04-27T14:50:22.252Z</time></trkpt><trkpt lat="39.787049760030314" lon="8.853025214811172"><ele>213.0</ele><time>2026-04-27T14:50:23.252Z</time></trkpt><trkpt lat="39.78726742659406" lon="8.853145918449545"><ele>213.0</ele><time>2026-04-27T14:50:24.252Z</time></trkpt><trkpt lat="39.78750217823665" lon="8.853216871884339"><ele>212.5</ele><time>2026-04-27T14:50:25.252Z</time></trkpt><trkpt lat="39.78774099281579" lon="8.85325297222277"><ele>212.0</ele><time>2026-04-27T14:50:26.252Z</time></trkpt><trkpt lat="39.78796867708737" lon="8.853294157042093"><ele>212.0</ele><time>2026-04-27T14:50:27.252Z</time></trkpt><trkpt lat="39.788185968267456" lon="8.853352164200171"><ele>212.0</ele><time>2026-04-27T14:50:28.252Z</time></trkpt><trkpt lat="39.78838413721909" lon="8.85341183544"><ele>212.0</ele><time>2026-04-27T14:50:29.252Z</time></trkpt><trkpt lat="39.78858893662534" lon="8.853455592079134"><ele>213.0</ele><time>2026-04-27T14:50:30.252Z</time></trkpt><trkpt lat="39.78879793166319" lon="8.853509294462908"><ele>214.0</ele><time>2026-04-27T14:50:31.252Z</time></trkpt><trkpt lat="39.78900577750161" lon="8.853559376886976"><ele>215.0</ele><time>2026-04-27T14:50:32.252Z</time></trkpt><trkpt lat="39.78920847215507" lon="8.85362044279639"><ele>216.66666666666669</ele><time>2026-04-27T14:50:33.252Z</time></trkpt><trkpt lat="39.78938402274223" lon="8.853717473462583"><ele>218.33333333333331</ele><time>2026-04-27T14:50:34.252Z</time></trkpt><trkpt lat="39.7895321635934" lon="8.853839373208952"><ele>220.0</ele><time>2026-04-27T14:50:35.252Z</time></trkpt><trkpt lat="39.78965836532314" lon="8.85396884862355"><ele>220.0</ele><time>2026-04-27T14:50:36.252Z</time></trkpt><trkpt lat="39.7897704535934" lon="8.854102147858049"><ele>220.0</ele><time>2026-04-27T14:50:37.252Z</time></trkpt><trkpt lat="39.78986587892969" lon="8.854226332882686"><ele>220.0</ele><time>2026-04-27T14:50:38.252Z</time></trkpt><trkpt lat="39.789950172224614" lon="8.854332904814708"><ele>220.0</ele><time>2026-04-27T14:50:39.252Z</time></trkpt><trkpt lat="39.79003266629008" lon="8.854428627122664"><ele>219.8</ele><time>2026-04-27T14:50:40.252Z</time></trkpt><trkpt lat="39.79011118356124" lon="8.854518270926615"><ele>219.6</ele><time>2026-04-27T14:50:41.252Z</time></trkpt><trkpt lat="39.79018711600568" lon="8.854601186495382"><ele>219.39999999999998</ele><time>2026-04-27T14:50:42.252Z</time></trkpt><trkpt lat="39.790263953890744" lon="8.854683746845083"><ele>219.2</ele><time>2026-04-27T14:50:43.252Z</time></trkpt><trkpt lat="39.790332085294544" lon="8.85477172064393"><ele>219.0</ele><time>2026-04-27T14:50:44.252Z</time></trkpt><trkpt lat="39.7904039759465" lon="8.85486518589439"><ele>218.39999999999998</ele><time>2026-04-27T14:50:45.252Z</time></trkpt><trkpt lat="39.79048978517652" lon="8.854939618637944"><ele>217.79999999999998</ele><time>2026-04-27T14:50:46.252Z</time></trkpt><trkpt lat="39.79058315658971" lon="8.854988644093751"><ele>217.20000000000002</ele><time>2026-04-27T14:50:47.252Z</time></trkpt><trkpt lat="39.790694459302536" lon="8.855016437300593"><ele>216.60000000000002</ele><time>2026-04-27T14:50:48.252Z</time></trkpt><trkpt lat="39.79081251991895" lon="8.855030547048175"><ele>216.0</ele><time>2026-04-27T14:50:49.252Z</time></trkpt><trkpt lat="39.79094121282137" lon="8.85503032941215"><ele>216.0</ele><time>2026-04-27T14:50:50.252Z</time></trkpt><trkpt lat="39.79106397460358" lon="8.855052838116396"><ele>216.0</ele><time>2026-04-27T14:50:51.252Z</time></trkpt><trkpt lat="39.79117447232989" lon="8.855066244111887"><ele>216.0</ele><time>2026-04-27T14:50:52.252Z</time></trkpt><trkpt lat="39.79127931360098" lon="8.855047490288607"><ele>216.0</ele><time>2026-04-27T14:50:53.252Z</time></trkpt><trkpt lat="39.79139316281303" lon="8.855029301006265"><ele>216.0</ele><time>2026-04-27T14:50:54.252Z</time></trkpt><trkpt lat="39.7915050378888" lon="8.855021694450715"><ele>216.00000000000003</ele><time>2026-04-27T14:50:55.252Z</time></trkpt><trkpt lat="39.79161074286679" lon="8.85501304684912"><ele>216.00000000000003</ele><time>2026-04-27T14:50:56.253Z</time></trkpt><trkpt lat="39.791718725431515" lon="8.855041221495133"><ele>216.0</ele><time>2026-04-27T14:50:57.253Z</time></trkpt><trkpt lat="39.791833517396995" lon="8.855088276418686"><ele>216.0</ele><time>2026-04-27T14:50:58.253Z</time></trkpt><trkpt lat="39.79195050215014" lon="8.85516520288681"><ele>215.5</ele><time>2026-04-27T14:50:59.253Z</time></trkpt><trkpt lat="39.79205426065082" lon="8.855269309349527"><ele>215.0</ele><time>2026-04-27T14:51:00.253Z</time></trkpt><trkpt lat="39.79213797250586" lon="8.855414056954833"><ele>214.5</ele><time>2026-04-27T14:51:01.253Z</time></trkpt><trkpt lat="39.79221888324628" lon="8.85555736086696"><ele>214.0</ele><time>2026-04-27T14:51:02.253Z</time></trkpt><trkpt lat="39.79230445557948" lon="8.855695068918367"><ele>214.0</ele><time>2026-04-27T14:51:03.253Z</time></trkpt><trkpt lat="39.79239364047557" lon="8.855828632310882"><ele>214.0</ele><time>2026-04-27T14:51:04.253Z</time></trkpt><trkpt lat="39.79247692289177" lon="8.855966281516615"><ele>214.0</ele><time>2026-04-27T14:51:05.253Z</time></trkpt><trkpt lat="39.792568480516636" lon="8.856102894492782"><ele>214.0</ele><time>2026-04-27T14:51:06.253Z</time></trkpt><trkpt lat="39.7926546210985" lon="8.856232475681912"><ele>214.25</ele><time>2026-04-27T14:51:07.253Z</time></trkpt><trkpt lat="39.79274409462137" lon="8.856370331027177"><ele>214.5</ele><time>2026-04-27T14:51:08.253Z</time></trkpt><trkpt lat="39.79283297700471" lon="8.856497822897099"><ele>214.75</ele><time>2026-04-27T14:51:09.253Z</time></trkpt><trkpt lat="39.79292161024219" lon="8.856638159424946"><ele>215.0</ele><time>2026-04-27T14:51:10.253Z</time></trkpt><trkpt lat="39.7930089325993" lon="8.856776657169966"><ele>216.0</ele><time>2026-04-27T14:51:11.253Z</time></trkpt><trkpt lat="39.79309976670669" lon="8.856913428602335"><ele>217.0</ele><time>2026-04-27T14:51:12.253Z</time></trkpt><trkpt lat="39.79318551745189" lon="8.857061583917544"><ele>218.0</ele><time>2026-04-27T14:51:13.253Z</time></trkpt><trkpt lat="39.79326586165767" lon="8.857208900068295"><ele>219.0</ele><time>2026-04-27T14:51:14.253Z</time></trkpt><trkpt lat="39.79335912426602" lon="8.857350423142794"><ele>219.0</ele><time>2026-04-27T14:51:15.253Z</time></trkpt><trkpt lat="39.793454469088374" lon="8.857485435938607"><ele>219.0</ele><time>2026-04-27T14:51:16.253Z</time></trkpt><trkpt lat="39.7935521482541" lon="8.857631049387578"><ele>219.0</ele><time>2026-04-27T14:51:17.253Z</time></trkpt><trkpt lat="39.793642397695066" lon="8.857780030612815"><ele>219.0</ele><time>2026-04-27T14:51:18.253Z</time></trkpt><trkpt lat="39.793735417150806" lon="8.857922962308079"><ele>219.5</ele><time>2026-04-27T14:51:19.253Z</time></trkpt><trkpt lat="39.7938326407036" lon="8.858067892111048"><ele>220.0</ele><time>2026-04-27T14:51:20.253Z</time></trkpt><trkpt lat="39.7939319801207" lon="8.858204921050028"><ele>220.5</ele><time>2026-04-27T14:51:21.254Z</time></trkpt><trkpt lat="39.794028594039155" lon="8.85835620375275"><ele>221.0</ele><time>2026-04-27T14:51:22.254Z</time></trkpt><trkpt lat="39.79412242712259" lon="8.85850283247416"><ele>221.0</ele><time>2026-04-27T14:51:23.254Z</time></trkpt><trkpt lat="39.794218382578514" lon="8.858654503902216"><ele>221.0</ele><time>2026-04-27T14:51:24.253Z</time></trkpt><trkpt lat="39.79431510097428" lon="8.858808552050858"><ele>221.0</ele><time>2026-04-27T14:51:25.253Z</time></trkpt><trkpt lat="39.79441026087243" lon="8.858963267517062"><ele>220.66666666666669</ele><time>2026-04-27T14:51:26.253Z</time></trkpt><trkpt lat="39.79452232950217" lon="8.859122625836312"><ele>220.33333333333331</ele><time>2026-04-27T14:51:27.254Z</time></trkpt><trkpt lat="39.79462960656452" lon="8.85929819963837"><ele>220.0</ele><time>2026-04-27T14:51:28.253Z</time></trkpt><trkpt lat="39.79473612367159" lon="8.859470601342142"><ele>219.33333333333331</ele><time>2026-04-27T14:51:29.253Z</time></trkpt><trkpt lat="39.79484907989671" lon="8.859651612286306"><ele>218.66666666666669</ele><time>2026-04-27T14:51:30.253Z</time></trkpt><trkpt lat="39.794961051208666" lon="8.859821018805723"><ele>218.0</ele><time>2026-04-27T14:51:31.254Z</time></trkpt><trkpt lat="39.79507273573022" lon="8.859998972135486"><ele>218.33333333333334</ele><time>2026-04-27T14:51:32.254Z</time></trkpt><trkpt lat="39.79519538298537" lon="8.860189443467359"><ele>218.66666666666669</ele><time>2026-04-27T14:51:33.253Z</time></trkpt><trkpt lat="39.79532111698771" lon="8.860383964029552"><ele>219.0</ele><time>2026-04-27T14:51:34.253Z</time></trkpt><trkpt lat="39.795453245991126" lon="8.860585191187122"><ele>219.0</ele><time>2026-04-27T14:51:35.253Z</time></trkpt><trkpt lat="39.79558390678402" lon="8.860785213652983"><ele>219.0</ele><time>2026-04-27T14:51:36.253Z</time></trkpt><trkpt lat="39.79571469077139" lon="8.860991243339644"><ele>219.0</ele><time>2026-04-27T14:51:37.253Z</time></trkpt><trkpt lat="39.795847612767794" lon="8.861198166795068"><ele>218.66666666666669</ele><time>2026-04-27T14:51:38.253Z</time></trkpt><trkpt lat="39.79598110656608" lon="8.861402062049804"><ele>218.33333333333334</ele><time>2026-04-27T14:51:39.253Z</time></trkpt><trkpt lat="39.79611740445514" lon="8.861617603091293"><ele>218.0</ele><time>2026-04-27T14:51:40.253Z</time></trkpt><trkpt lat="39.796256035274105" lon="8.861830577797965"><ele>218.0</ele><time>2026-04-27T14:51:41.253Z</time></trkpt><trkpt lat="39.796399167927994" lon="8.862053170558992"><ele>218.0</ele><time>2026-04-27T14:51:42.253Z</time></trkpt><trkpt lat="39.79654496957992" lon="8.862282734823628"><ele>218.0</ele><time>2026-04-27T14:51:43.253Z</time></trkpt><trkpt lat="39.79669678624597" lon="8.8625174897416"><ele>218.0</ele><time>2026-04-27T14:51:44.253Z</time></trkpt><trkpt lat="39.796852020824815" lon="8.862758740689673"><ele>219.0</ele><time>2026-04-27T14:51:45.253Z</time></trkpt><trkpt lat="39.79701058757671" lon="8.863004657665634"><ele>220.0</ele><time>2026-04-27T14:51:46.253Z</time></trkpt><trkpt lat="39.79717059579164" lon="8.863247055909174"><ele>219.5</ele><time>2026-04-27T14:51:47.253Z</time></trkpt><trkpt lat="39.797331929623915" lon="8.863490143736929"><ele>219.0</ele><time>2026-04-27T14:51:48.254Z</time></trkpt><trkpt lat="39.79749600556376" lon="8.863743930764235"><ele>219.0</ele><time>2026-04-27T14:51:49.254Z</time></trkpt><trkpt lat="39.79766090488668" lon="8.863994876859584"><ele>219.0</ele><time>2026-04-27T14:51:50.254Z</time></trkpt><trkpt lat="39.79782370104364" lon="8.864243779919528"><ele>221.0</ele><time>2026-04-27T14:51:51.254Z</time></trkpt><trkpt lat="39.79798755014015" lon="8.864495952265392"><ele>223.0</ele><time>2026-04-27T14:51:52.254Z</time></trkpt><trkpt lat="39.798150399786934" lon="8.864748298441087"><ele>223.0</ele><time>2026-04-27T14:51:53.254Z</time></trkpt><trkpt lat="39.79831093505012" lon="8.865000907194343"><ele>223.0</ele><time>2026-04-27T14:51:54.254Z</time></trkpt><trkpt lat="39.7984699770515" lon="8.865252325491227"><ele>225.0</ele><time>2026-04-27T14:51:55.254Z</time></trkpt><trkpt lat="39.79863204647734" lon="8.86549925511364"><ele>227.0</ele><time>2026-04-27T14:51:56.254Z</time></trkpt><trkpt lat="39.7987915353206" lon="8.865748758193485"><ele>226.0</ele><time>2026-04-27T14:51:57.254Z</time></trkpt><trkpt lat="39.798951239937686" lon="8.865995704468425"><ele>225.0</ele><time>2026-04-27T14:51:58.254Z</time></trkpt><trkpt lat="39.79911045567633" lon="8.866242712055584"><ele>225.0</ele><time>2026-04-27T14:51:59.254Z</time></trkpt><trkpt lat="39.79926929905076" lon="8.86648778170393"><ele>225.0</ele><time>2026-04-27T14:52:00.254Z</time></trkpt><trkpt lat="39.799428000802045" lon="8.866732423913557"><ele>227.0</ele><time>2026-04-27T14:52:01.254Z</time></trkpt><trkpt lat="39.799585830865254" lon="8.866977008427362"><ele>229.0</ele><time>2026-04-27T14:52:02.254Z</time></trkpt><trkpt lat="39.79974828815176" lon="8.867227229438914"><ele>229.0</ele><time>2026-04-27T14:52:03.254Z</time></trkpt><trkpt lat="39.79991126114533" lon="8.867477148731703"><ele>229.0</ele><time>2026-04-27T14:52:04.254Z</time></trkpt><trkpt lat="39.800065297151754" lon="8.867733918860074"><ele>230.5</ele><time>2026-04-27T14:52:05.254Z</time></trkpt><trkpt lat="39.80021270945138" lon="8.868000889600886"><ele>232.0</ele><time>2026-04-27T14:52:06.254Z</time></trkpt><trkpt lat="39.80033890760931" lon="8.868284702903752"><ele>233.5</ele><time>2026-04-27T14:52:07.254Z</time></trkpt><trkpt lat="39.800450127285984" lon="8.868579987126981"><ele>235.0</ele><time>2026-04-27T14:52:08.254Z</time></trkpt><trkpt lat="39.800542274263876" lon="8.868898262642151"><ele>235.0</ele><time>2026-04-27T14:52:09.254Z</time></trkpt><trkpt lat="39.800609750767975" lon="8.86922305080016"><ele>235.0</ele><time>2026-04-27T14:52:10.254Z</time></trkpt><trkpt lat="39.800660055094255" lon="8.869555921408969"><ele>235.5</ele><time>2026-04-27T14:52:11.254Z</time></trkpt><trkpt lat="39.800690298671725" lon="8.869891781066457"><ele>236.0</ele><time>2026-04-27T14:52:12.254Z</time></trkpt><trkpt lat="39.80071257319526" lon="8.870230018657578"><ele>237.0</ele><time>2026-04-27T14:52:13.254Z</time></trkpt><trkpt lat="39.800740013824175" lon="8.870561586200617"><ele>238.0</ele><time>2026-04-27T14:52:14.254Z</time></trkpt><trkpt lat="39.800769694938445" lon="8.87088997010937"><ele>240.0</ele><time>2026-04-27T14:52:15.254Z</time></trkpt><trkpt lat="39.80080118542213" lon="8.871216558022713"><ele>242.0</ele><time>2026-04-27T14:52:16.254Z</time></trkpt><trkpt lat="39.80082808463738" lon="8.87154290414066"><ele>240.5</ele><time>2026-04-27T14:52:17.254Z</time></trkpt><trkpt lat="39.80086345752919" lon="8.871864124846061"><ele>239.0</ele><time>2026-04-27T14:52:18.254Z</time></trkpt><trkpt lat="39.800916178959355" lon="8.87217996044861"><ele>239.0</ele><time>2026-04-27T14:52:19.254Z</time></trkpt><trkpt lat="39.80099116796548" lon="8.87249082534322"><ele>239.0</ele><time>2026-04-27T14:52:20.254Z</time></trkpt><trkpt lat="39.80108641225631" lon="8.872806381304335"><ele>239.0</ele><time>2026-04-27T14:52:21.254Z</time></trkpt><trkpt lat="39.801204933340635" lon="8.873118482828536"><ele>239.0</ele><time>2026-04-27T14:52:22.254Z</time></trkpt><trkpt lat="39.80134602803088" lon="8.873410061899015"><ele>238.5</ele><time>2026-04-27T14:52:23.254Z</time></trkpt><trkpt lat="39.80150832316954" lon="8.873679986450545"><ele>238.0</ele><time>2026-04-27T14:52:24.254Z</time></trkpt><trkpt lat="39.8016888513361" lon="8.87393892075197"><ele>241.0</ele><time>2026-04-27T14:52:25.254Z</time></trkpt><trkpt lat="39.801876268190455" lon="8.874195182310814"><ele>244.0</ele><time>2026-04-27T14:52:26.254Z</time></trkpt><trkpt lat="39.802064448587615" lon="8.874454352660013"><ele>244.0</ele><time>2026-04-27T14:52:27.254Z</time></trkpt><trkpt lat="39.802245416629766" lon="8.874712937112378"><ele>244.0</ele><time>2026-04-27T14:52:28.254Z</time></trkpt><trkpt lat="39.80242788413653" lon="8.874971479603278"><ele>243.5</ele><time>2026-04-27T14:52:29.254Z</time></trkpt><trkpt lat="39.802608937142246" lon="8.875233663550864"><ele>243.0</ele><time>2026-04-27T14:52:30.254Z</time></trkpt><trkpt lat="39.80278807332392" lon="8.87548748486543"><ele>242.5</ele><time>2026-04-27T14:52:31.254Z</time></trkpt><trkpt lat="39.802967734762134" lon="8.875735670955182"><ele>242.0</ele><time>2026-04-27T14:52:32.254Z</time></trkpt><trkpt lat="39.80315102571583" lon="8.875980190699591"><ele>242.0</ele><time>2026-04-27T14:52:33.254Z</time></trkpt><trkpt lat="39.80333351432987" lon="8.876220141239344"><ele>242.0</ele><time>2026-04-27T14:52:34.254Z</time></trkpt><trkpt lat="39.803511932393725" lon="8.876458862703714"><ele>245.0</ele><time>2026-04-27T14:52:35.254Z</time></trkpt><trkpt lat="39.803691773448996" lon="8.876700973897526"><ele>248.0</ele><time>2026-04-27T14:52:36.254Z</time></trkpt><trkpt lat="39.803870312418034" lon="8.876945114712498"><ele>248.0</ele><time>2026-04-27T14:52:37.254Z</time></trkpt><trkpt lat="39.80405048964076" lon="8.877194410481863"><ele>248.0</ele><time>2026-04-27T14:52:38.254Z</time></trkpt><trkpt lat="39.80422757908251" lon="8.877437447503068"><ele>249.5</ele><time>2026-04-27T14:52:39.254Z</time></trkpt><trkpt lat="39.804405119412785" lon="8.877687170479632"><ele>251.0</ele><time>2026-04-27T14:52:40.254Z</time></trkpt><trkpt lat="39.8045864395539" lon="8.877936955584046"><ele>251.0</ele><time>2026-04-27T14:52:41.254Z</time></trkpt><trkpt lat="39.80476716686365" lon="8.878186805751033"><ele>251.0</ele><time>2026-04-27T14:52:42.254Z</time></trkpt><trkpt lat="39.80494958037172" lon="8.878441029466927"><ele>252.5</ele><time>2026-04-27T14:52:43.254Z</time></trkpt><trkpt lat="39.80513134261645" lon="8.87869889294094"><ele>254.0</ele><time>2026-04-27T14:52:44.254Z</time></trkpt><trkpt lat="39.80531008598505" lon="8.878950997415446"><ele>252.0</ele><time>2026-04-27T14:52:45.254Z</time></trkpt><trkpt lat="39.80548978083032" lon="8.879198345104951"><ele>250.0</ele><time>2026-04-27T14:52:46.254Z</time></trkpt><trkpt lat="39.80567343739518" lon="8.879447810914385"><ele>250.0</ele><time>2026-04-27T14:52:47.254Z</time></trkpt><trkpt lat="39.80585768793625" lon="8.879697244856564"><ele>250.0</ele><time>2026-04-27T14:52:48.254Z</time></trkpt><trkpt lat="39.80604318549787" lon="8.879946377846164"><ele>246.0</ele><time>2026-04-27T14:52:49.254Z</time></trkpt><trkpt lat="39.806221565190015" lon="8.880196774277985"><ele>242.0</ele><time>2026-04-27T14:52:50.254Z</time></trkpt><trkpt lat="39.80640354338701" lon="8.880445065714724"><ele>242.0</ele><time>2026-04-27T14:52:51.254Z</time></trkpt><trkpt lat="39.80658563781926" lon="8.880693247106223"><ele>242.0</ele><time>2026-04-27T14:52:52.254Z</time></trkpt><trkpt lat="39.806763788641454" lon="8.880938379873719"><ele>241.0</ele><time>2026-04-27T14:52:53.254Z</time></trkpt><trkpt lat="39.80693776910101" lon="8.88117970325112"><ele>240.0</ele><time>2026-04-27T14:52:54.254Z</time></trkpt><trkpt lat="39.80711280964249" lon="8.881416995829666"><ele>240.0</ele><time>2026-04-27T14:52:55.254Z</time></trkpt><trkpt lat="39.80728684359969" lon="8.88164754252081"><ele>240.0</ele><time>2026-04-27T14:52:56.254Z</time></trkpt><trkpt lat="39.807460763714936" lon="8.881877115418023"><ele>242.0</ele><time>2026-04-27T14:52:57.254Z</time></trkpt><trkpt lat="39.807625064386684" lon="8.882103989904166"><ele>244.0</ele><time>2026-04-27T14:52:58.254Z</time></trkpt><trkpt lat="39.80777815503234" lon="8.88231455560526"><ele>242.33333333333331</ele><time>2026-04-27T14:52:59.254Z</time></trkpt><trkpt lat="39.80791350237205" lon="8.882506095984908"><ele>240.66666666666669</ele><time>2026-04-27T14:53:00.254Z</time></trkpt><trkpt lat="39.80803434606837" lon="8.882683624788665"><ele>239.0</ele><time>2026-04-27T14:53:01.255Z</time></trkpt><trkpt lat="39.80814548800095" lon="8.882837997031244"><ele>239.0</ele><time>2026-04-27T14:53:02.255Z</time></trkpt><trkpt lat="39.80823467342282" lon="8.882973523401395"><ele>239.0</ele><time>2026-04-27T14:53:03.255Z</time></trkpt><trkpt lat="39.80831927999422" lon="8.88311652788009"><ele>239.0</ele><time>2026-04-27T14:53:04.255Z</time></trkpt><trkpt lat="39.808389855536355" lon="8.883259485469853"><ele>239.0</ele><time>2026-04-27T14:53:05.255Z</time></trkpt><trkpt lat="39.80845410723898" lon="8.883399144327027"><ele>236.25</ele><time>2026-04-27T14:53:06.255Z</time></trkpt><trkpt lat="39.80851517001724" lon="8.883539256464323"><ele>233.5</ele><time>2026-04-27T14:53:07.255Z</time></trkpt><trkpt lat="39.808572795531326" lon="8.883684312980524"><ele>230.75</ele><time>2026-04-27T14:53:08.255Z</time></trkpt><trkpt lat="39.80862428712264" lon="8.883843660228697"><ele>228.0</ele><time>2026-04-27T14:53:09.255Z</time></trkpt><trkpt lat="39.80867104897583" lon="8.8840159860999"><ele>228.0</ele><time>2026-04-27T14:53:10.255Z</time></trkpt><trkpt lat="39.80871448673653" lon="8.884201933145293"><ele>228.0</ele><time>2026-04-27T14:53:11.255Z</time></trkpt><trkpt lat="39.80874209084276" lon="8.884405920246136"><ele>228.0</ele><time>2026-04-27T14:53:12.255Z</time></trkpt><trkpt lat="39.808760421559555" lon="8.884609944264913"><ele>227.33333333333331</ele><time>2026-04-27T14:53:13.255Z</time></trkpt><trkpt lat="39.80877701317484" lon="8.884817753242151"><ele>226.66666666666666</ele><time>2026-04-27T14:53:14.255Z</time></trkpt><trkpt lat="39.808784853277565" lon="8.885029476210914"><ele>226.0</ele><time>2026-04-27T14:53:15.255Z</time></trkpt><trkpt lat="39.80877936474073" lon="8.885244655994633"><ele>225.0</ele><time>2026-04-27T14:53:16.255Z</time></trkpt><trkpt lat="39.80876110459224" lon="8.885446550465042"><ele>224.0</ele><time>2026-04-27T14:53:17.255Z</time></trkpt><trkpt lat="39.808743320147705" lon="8.885642089878806"><ele>223.0</ele><time>2026-04-27T14:53:18.255Z</time></trkpt><trkpt lat="39.80871545336928" lon="8.885832814518887"><ele>224.0</ele><time>2026-04-27T14:53:19.255Z</time></trkpt><trkpt lat="39.80867522544196" lon="8.886030539394921"><ele>225.0</ele><time>2026-04-27T14:53:20.255Z</time></trkpt><trkpt lat="39.808628725462086" lon="8.88623168702298"><ele>226.0</ele><time>2026-04-27T14:53:21.255Z</time></trkpt><trkpt lat="39.80857583727336" lon="8.88643858882336"><ele>226.0</ele><time>2026-04-27T14:53:22.255Z</time></trkpt><trkpt lat="39.80852077881199" lon="8.886650561383217"><ele>226.0</ele><time>2026-04-27T14:53:23.255Z</time></trkpt><trkpt lat="39.80846428260529" lon="8.886858915380305"><ele>226.0</ele><time>2026-04-27T14:53:24.255Z</time></trkpt><trkpt lat="39.8084104959857" lon="8.887056725234123"><ele>226.66666666666666</ele><time>2026-04-27T14:53:25.255Z</time></trkpt><trkpt lat="39.808360900530644" lon="8.88725866221812"><ele>227.33333333333331</ele><time>2026-04-27T14:53:26.255Z</time></trkpt><trkpt lat="39.808313280401684" lon="8.887463514282546"><ele>228.0</ele><time>2026-04-27T14:53:27.256Z</time></trkpt><trkpt lat="39.808261779294135" lon="8.887666582917504"><ele>226.33333333333331</ele><time>2026-04-27T14:53:28.256Z</time></trkpt><trkpt lat="39.808206299489214" lon="8.887868510306498"><ele>224.66666666666666</ele><time>2026-04-27T14:53:29.256Z</time></trkpt><trkpt lat="39.808150837600465" lon="8.88807045514991"><ele>223.0</ele><time>2026-04-27T14:53:30.256Z</time></trkpt><trkpt lat="39.80809949182388" lon="8.8882712827253"><ele>222.66666666666666</ele><time>2026-04-27T14:53:31.256Z</time></trkpt><trkpt lat="39.80805060945808" lon="8.888474301898443"><ele>222.33333333333331</ele><time>2026-04-27T14:53:32.256Z</time></trkpt><trkpt lat="39.80800304021742" lon="8.888680979913875"><ele>222.0</ele><time>2026-04-27T14:53:33.257Z</time></trkpt><trkpt lat="39.80796100944848" lon="8.888893009717423"><ele>222.0</ele><time>2026-04-27T14:53:34.256Z</time></trkpt><trkpt lat="39.807925238574065" lon="8.889112129615736"><ele>222.0</ele><time>2026-04-27T14:53:35.256Z</time></trkpt><trkpt lat="39.80790208039763" lon="8.889337568026711"><ele>222.0</ele><time>2026-04-27T14:53:36.257Z</time></trkpt><trkpt lat="39.80788717256388" lon="8.889563158294678"><ele>221.33333333333331</ele><time>2026-04-27T14:53:37.256Z</time></trkpt><trkpt lat="39.807881244628724" lon="8.88979173783217"><ele>220.66666666666666</ele><time>2026-04-27T14:53:38.256Z</time></trkpt><trkpt lat="39.807885793596334" lon="8.890021603459175"><ele>220.0</ele><time>2026-04-27T14:53:39.257Z</time></trkpt><trkpt lat="39.80790124505076" lon="8.89025498366165"><ele>220.0</ele><time>2026-04-27T14:53:40.256Z</time></trkpt><trkpt lat="39.80792527532214" lon="8.890489215621416"><ele>220.0</ele><time>2026-04-27T14:53:41.256Z</time></trkpt><trkpt lat="39.80795690343987" lon="8.890728249219677"><ele>220.0</ele><time>2026-04-27T14:53:42.256Z</time></trkpt><trkpt lat="39.807993213972985" lon="8.89097379353352"><ele>219.0</ele><time>2026-04-27T14:53:43.256Z</time></trkpt><trkpt lat="39.808023662530566" lon="8.891227115667693"><ele>218.0</ele><time>2026-04-27T14:53:44.256Z</time></trkpt><trkpt lat="39.80805171114164" lon="8.89147852169668"><ele>217.0</ele><time>2026-04-27T14:53:45.256Z</time></trkpt><trkpt lat="39.80807539600872" lon="8.891731926602288"><ele>215.66666666666666</ele><time>2026-04-27T14:53:46.256Z</time></trkpt><trkpt lat="39.80810030047568" lon="8.891989411771025"><ele>214.33333333333331</ele><time>2026-04-27T14:53:47.256Z</time></trkpt><trkpt lat="39.80812461245784" lon="8.892243264603032"><ele>213.0</ele><time>2026-04-27T14:53:48.256Z</time></trkpt><trkpt lat="39.80814741382617" lon="8.89249259411937"><ele>213.0</ele><time>2026-04-27T14:53:49.256Z</time></trkpt><trkpt lat="39.80816533569595" lon="8.892740940301286"><ele>213.0</ele><time>2026-04-27T14:53:50.256Z</time></trkpt><trkpt lat="39.808187794328056" lon="8.892982269427579"><ele>213.0</ele><time>2026-04-27T14:53:51.256Z</time></trkpt><trkpt lat="39.80819635574855" lon="8.893221915540957"><ele>212.66666666666669</ele><time>2026-04-27T14:53:52.256Z</time></trkpt><trkpt lat="39.80822039808938" lon="8.893456592272251"><ele>212.33333333333334</ele><time>2026-04-27T14:53:53.256Z</time></trkpt><trkpt lat="39.808277656446705" lon="8.893680842071138"><ele>212.0</ele><time>2026-04-27T14:53:54.256Z</time></trkpt><trkpt lat="39.80831748788984" lon="8.89390976912017"><ele>212.0</ele><time>2026-04-27T14:53:55.256Z</time></trkpt><trkpt lat="39.80837350987485" lon="8.89414348915673"><ele>212.0</ele><time>2026-04-27T14:53:56.256Z</time></trkpt><trkpt lat="39.80844087535635" lon="8.894388798234756"><ele>212.0</ele><time>2026-04-27T14:53:57.256Z</time></trkpt><trkpt lat="39.80851409332657" lon="8.894624528626824"><ele>211.66666666666669</ele><time>2026-04-27T14:53:58.256Z</time></trkpt><trkpt lat="39.808595376917125" lon="8.894868649952194"><ele>211.33333333333331</ele><time>2026-04-27T14:53:59.256Z</time></trkpt><trkpt lat="39.80868257327525" lon="8.895087861312575"><ele>211.0</ele><time>2026-04-27T14:54:00.256Z</time></trkpt><trkpt lat="39.80878447851437" lon="8.895274889695834"><ele>212.0</ele><time>2026-04-27T14:54:01.256Z</time></trkpt><trkpt lat="39.80891807188316" lon="8.895462914238134"><ele>213.0</ele><time>2026-04-27T14:54:02.256Z</time></trkpt><trkpt lat="39.809066206183275" lon="8.895665765587662"><ele>214.0</ele><time>2026-04-27T14:54:03.256Z</time></trkpt><trkpt lat="39.80922761909593" lon="8.895879759635589"><ele>213.5</ele><time>2026-04-27T14:54:04.256Z</time></trkpt><trkpt lat="39.80938564787754" lon="8.896098142150336"><ele>213.0</ele><time>2026-04-27T14:54:05.256Z</time></trkpt><trkpt lat="39.809558951425956" lon="8.896322416814886"><ele>213.0</ele><time>2026-04-27T14:54:06.256Z</time></trkpt><trkpt lat="39.80973059051869" lon="8.89656713426964"><ele>213.0</ele><time>2026-04-27T14:54:07.256Z</time></trkpt><trkpt lat="39.8098862385268" lon="8.896791794464308"><ele>213.33333333333331</ele><time>2026-04-27T14:54:08.256Z</time></trkpt><trkpt lat="39.81001261522114" lon="8.897024204288998"><ele>213.66666666666666</ele><time>2026-04-27T14:54:09.256Z</time></trkpt><trkpt lat="39.81012391964932" lon="8.897262354315414"><ele>214.0</ele><time>2026-04-27T14:54:10.256Z</time></trkpt><trkpt lat="39.810159934122574" lon="8.897505177142554"><ele>217.5</ele><time>2026-04-27T14:54:11.256Z</time></trkpt><trkpt lat="39.80986230766461" lon="8.897850090468145"><ele>221.0</ele><time>2026-04-27T14:54:12.256Z</time></trkpt><trkpt lat="39.80992808290714" lon="8.898101949392068"><ele>221.0</ele><time>2026-04-27T14:54:13.256Z</time></trkpt><trkpt lat="39.80998192199426" lon="8.89835882990785"><ele>221.0</ele><time>2026-04-27T14:54:14.256Z</time></trkpt><trkpt lat="39.8100204590662" lon="8.898615335232549"><ele>221.0</ele><time>2026-04-27T14:54:15.256Z</time></trkpt><trkpt lat="39.81003636495648" lon="8.898879336149081"><ele>221.0</ele><time>2026-04-27T14:54:16.256Z</time></trkpt><trkpt lat="39.81003869108997" lon="8.899144050246932"><ele>221.0</ele><time>2026-04-27T14:54:17.256Z</time></trkpt><trkpt lat="39.810034186206124" lon="8.899405509521475"><ele>221.0</ele><time>2026-04-27T14:54:18.256Z</time></trkpt><trkpt lat="39.810022221128406" lon="8.899665867337701"><ele>221.66666666666669</ele><time>2026-04-27T14:54:19.257Z</time></trkpt><trkpt lat="39.81000277375244" lon="8.89992430492537"><ele>222.33333333333331</ele><time>2026-04-27T14:54:20.257Z</time></trkpt><trkpt lat="39.80998025083641" lon="8.900177275771668"><ele>223.0</ele><time>2026-04-27T14:54:21.257Z</time></trkpt><trkpt lat="39.809957519674946" lon="8.900424751467261"><ele>223.33333333333331</ele><time>2026-04-27T14:54:22.257Z</time></trkpt><trkpt lat="39.809937362926426" lon="8.900674691307191"><ele>223.66666666666669</ele><time>2026-04-27T14:54:23.257Z</time></trkpt><trkpt lat="39.80991751259388" lon="8.900927245411449"><ele>224.0</ele><time>2026-04-27T14:54:24.257Z</time></trkpt><trkpt lat="39.80989188975101" lon="8.901181991688345"><ele>224.0</ele><time>2026-04-27T14:54:25.257Z</time></trkpt><trkpt lat="39.80986856043221" lon="8.90143913310708"><ele>224.0</ele><time>2026-04-27T14:54:26.257Z</time></trkpt><trkpt lat="39.80984696926127" lon="8.901699475866701"><ele>224.0</ele><time>2026-04-27T14:54:27.257Z</time></trkpt><trkpt lat="39.80982656469029" lon="8.901960747157958"><ele>223.66666666666669</ele><time>2026-04-27T14:54:28.257Z</time></trkpt><trkpt lat="39.809807256987234" lon="8.902219416598555"><ele>223.33333333333331</ele><time>2026-04-27T14:54:29.257Z</time></trkpt><trkpt lat="39.809784484400815" lon="8.902477649189084"><ele>223.0</ele><time>2026-04-27T14:54:30.257Z</time></trkpt><trkpt lat="39.809763842624164" lon="8.90273555522997"><ele>224.0</ele><time>2026-04-27T14:54:31.257Z</time></trkpt><trkpt lat="39.80973736781643" lon="8.902993379870885"><ele>225.0</ele><time>2026-04-27T14:54:32.257Z</time></trkpt><trkpt lat="39.80971496809754" lon="8.903256983078048"><ele>226.0</ele><time>2026-04-27T14:54:33.257Z</time></trkpt><trkpt lat="39.8096951591496" lon="8.903524119456893"><ele>228.0</ele><time>2026-04-27T14:54:34.257Z</time></trkpt><trkpt lat="39.80966612568768" lon="8.903788171256062"><ele>230.0</ele><time>2026-04-27T14:54:35.257Z</time></trkpt><trkpt lat="39.80964151490561" lon="8.904046915467946"><ele>232.0</ele><time>2026-04-27T14:54:36.257Z</time></trkpt><trkpt lat="39.80962089784872" lon="8.904302918664854"><ele>233.0</ele><time>2026-04-27T14:54:37.257Z</time></trkpt><trkpt lat="39.809605180265144" lon="8.904552975153319"><ele>234.0</ele><time>2026-04-27T14:54:38.257Z</time></trkpt><trkpt lat="39.80959625414248" lon="8.904805089766718"><ele>235.0</ele><time>2026-04-27T14:54:39.257Z</time></trkpt><trkpt lat="39.80960583032308" lon="8.905061231380575"><ele>234.0</ele><time>2026-04-27T14:54:40.257Z</time></trkpt><trkpt lat="39.80963618303596" lon="8.905320806106866"><ele>233.0</ele><time>2026-04-27T14:54:41.257Z</time></trkpt><trkpt lat="39.8096826605541" lon="8.905578757645635"><ele>232.0</ele><time>2026-04-27T14:54:42.257Z</time></trkpt><trkpt lat="39.809746289908226" lon="8.905832023901034"><ele>231.33333333333331</ele><time>2026-04-27T14:54:43.257Z</time></trkpt><trkpt lat="39.80982618583972" lon="8.906079904364514"><ele>230.66666666666669</ele><time>2026-04-27T14:54:44.257Z</time></trkpt><trkpt lat="39.80991366952048" lon="8.90631984312274"><ele>230.0</ele><time>2026-04-27T14:54:45.257Z</time></trkpt><trkpt lat="39.8100109954485" lon="8.906560469432016"><ele>229.66666666666669</ele><time>2026-04-27T14:54:46.257Z</time></trkpt><trkpt lat="39.81012578765003" lon="8.906781692119159"><ele>229.33333333333331</ele><time>2026-04-27T14:54:47.257Z</time></trkpt><trkpt lat="39.810261944257675" lon="8.906988086610344"><ele>229.0</ele><time>2026-04-27T14:54:48.257Z</time></trkpt><trkpt lat="39.810411422261915" lon="8.907177141364611"><ele>230.0</ele><time>2026-04-27T14:54:49.257Z</time></trkpt><trkpt lat="39.81057181735993" lon="8.90736397826163"><ele>231.0</ele><time>2026-04-27T14:54:50.257Z</time></trkpt><trkpt lat="39.81073717722424" lon="8.907531723516243"><ele>232.0</ele><time>2026-04-27T14:54:51.257Z</time></trkpt><trkpt lat="39.810905563254344" lon="8.907711164773541"><ele>232.0</ele><time>2026-04-27T14:54:52.257Z</time></trkpt><trkpt lat="39.811072165019546" lon="8.90789384195393"><ele>232.0</ele><time>2026-04-27T14:54:53.257Z</time></trkpt><trkpt lat="39.811240496744325" lon="8.908075914055924"><ele>232.0</ele><time>2026-04-27T14:54:54.257Z</time></trkpt><trkpt lat="39.811408255053564" lon="8.908257868679136"><ele>230.66666666666666</ele><time>2026-04-27T14:54:55.257Z</time></trkpt><trkpt lat="39.81157733419504" lon="8.90844430460738"><ele>229.33333333333331</ele><time>2026-04-27T14:54:56.257Z</time></trkpt><trkpt lat="39.8117469609128" lon="8.908625982898547"><ele>228.0</ele><time>2026-04-27T14:54:57.257Z</time></trkpt><trkpt lat="39.81191904031861" lon="8.908805894161853"><ele>227.33333333333331</ele><time>2026-04-27T14:54:58.257Z</time></trkpt><trkpt lat="39.81208858723011" lon="8.908992247210533"><ele>226.66666666666666</ele><time>2026-04-27T14:54:59.257Z</time></trkpt><trkpt lat="39.812260463650276" lon="8.909184560380009"><ele>226.0</ele><time>2026-04-27T14:55:00.257Z</time></trkpt><trkpt lat="39.81243324340379" lon="8.909375568503867"><ele>225.0</ele><time>2026-04-27T14:55:01.257Z</time></trkpt><trkpt lat="39.81260898627209" lon="8.909570160318466"><ele>224.0</ele><time>2026-04-27T14:55:02.257Z</time></trkpt><trkpt lat="39.812787132064734" lon="8.909763554100278"><ele>221.5</ele><time>2026-04-27T14:55:03.257Z</time></trkpt><trkpt lat="39.812958629414965" lon="8.909954925620557"><ele>219.0</ele><time>2026-04-27T14:55:04.257Z</time></trkpt><trkpt lat="39.81313202065551" lon="8.910155364490581"><ele>218.5</ele><time>2026-04-27T14:55:05.257Z</time></trkpt><trkpt lat="39.81330523533989" lon="8.91034971557171"><ele>218.0</ele><time>2026-04-27T14:55:06.257Z</time></trkpt><trkpt lat="39.813479079574556" lon="8.910546642589265"><ele>215.0</ele><time>2026-04-27T14:55:07.257Z</time></trkpt><trkpt lat="39.81365611870066" lon="8.910744888769955"><ele>212.0</ele><time>2026-04-27T14:55:08.257Z</time></trkpt><trkpt lat="39.81383435151893" lon="8.910939335436643"><ele>212.0</ele><time>2026-04-27T14:55:09.257Z</time></trkpt><trkpt lat="39.81401859252056" lon="8.911135382974726"><ele>212.0</ele><time>2026-04-27T14:55:10.257Z</time></trkpt><trkpt lat="39.81419868628058" lon="8.911330323324199"><ele>209.5</ele><time>2026-04-27T14:55:11.257Z</time></trkpt><trkpt lat="39.81437995448592" lon="8.911527424229698"><ele>207.0</ele><time>2026-04-27T14:55:12.257Z</time></trkpt><trkpt lat="39.8145587701266" lon="8.911729054859645"><ele>208.0</ele><time>2026-04-27T14:55:13.257Z</time></trkpt><trkpt lat="39.81473655575927" lon="8.91193296549906"><ele>209.0</ele><time>2026-04-27T14:55:14.257Z</time></trkpt><trkpt lat="39.81491076707894" lon="8.912139658146305"><ele>209.0</ele><time>2026-04-27T14:55:15.257Z</time></trkpt><trkpt lat="39.81508924122451" lon="8.912342811085272"><ele>209.0</ele><time>2026-04-27T14:55:16.257Z</time></trkpt><trkpt lat="39.815264432041204" lon="8.912539951211375"><ele>209.0</ele><time>2026-04-27T14:55:17.257Z</time></trkpt><trkpt lat="39.8154510965281" lon="8.912733211850457"><ele>209.0</ele><time>2026-04-27T14:55:18.257Z</time></trkpt><trkpt lat="39.81563643838185" lon="8.912928732955608"><ele>209.0</ele><time>2026-04-27T14:55:19.257Z</time></trkpt><trkpt lat="39.81582113187355" lon="8.913119761933645"><ele>209.0</ele><time>2026-04-27T14:55:20.257Z</time></trkpt><trkpt lat="39.815999289629985" lon="8.91331407129333"><ele>207.0</ele><time>2026-04-27T14:55:21.257Z</time></trkpt><trkpt lat="39.81618128177735" lon="8.913511825781104"><ele>205.0</ele><time>2026-04-27T14:55:22.257Z</time></trkpt><trkpt lat="39.81635800837863" lon="8.913711526096316"><ele>205.0</ele><time>2026-04-27T14:55:23.257Z</time></trkpt><trkpt lat="39.816540382147714" lon="8.913914955693846"><ele>205.0</ele><time>2026-04-27T14:55:24.257Z</time></trkpt><trkpt lat="39.81672676764327" lon="8.914118519374215"><ele>205.5</ele><time>2026-04-27T14:55:25.257Z</time></trkpt><trkpt lat="39.81691300788387" lon="8.91432301239423"><ele>206.0</ele><time>2026-04-27T14:55:26.257Z</time></trkpt><trkpt lat="39.81709904625018" lon="8.91453009482029"><ele>206.0</ele><time>2026-04-27T14:55:27.257Z</time></trkpt><trkpt lat="39.81728586226178" lon="8.914737485751454"><ele>206.0</ele><time>2026-04-27T14:55:28.257Z</time></trkpt><trkpt lat="39.817470662754474" lon="8.91494152403901"><ele>207.5</ele><time>2026-04-27T14:55:29.257Z</time></trkpt><trkpt lat="39.81765304078891" lon="8.915144908595032"><ele>209.0</ele><time>2026-04-27T14:55:30.257Z</time></trkpt><trkpt lat="39.817833247844405" lon="8.915345482796422"><ele>209.0</ele><time>2026-04-27T14:55:31.257Z</time></trkpt><trkpt lat="39.81800645271245" lon="8.915549492162437"><ele>209.0</ele><time>2026-04-27T14:55:32.258Z</time></trkpt><trkpt lat="39.81817723061868" lon="8.915774433258232"><ele>208.0</ele><time>2026-04-27T14:55:33.259Z</time></trkpt><trkpt lat="39.818327197657865" lon="8.916008370015955"><ele>207.0</ele><time>2026-04-27T14:55:34.258Z</time></trkpt><trkpt lat="39.81847562719511" lon="8.916251837682928"><ele>207.5</ele><time>2026-04-27T14:55:35.258Z</time></trkpt><trkpt lat="39.81861758975546" lon="8.916494916175681"><ele>208.0</ele><time>2026-04-27T14:55:36.259Z</time></trkpt><trkpt lat="39.81875974844384" lon="8.916739151918668"><ele>208.0</ele><time>2026-04-27T14:55:37.258Z</time></trkpt><trkpt lat="39.81890032816458" lon="8.91698061799526"><ele>208.0</ele><time>2026-04-27T14:55:38.258Z</time></trkpt><trkpt lat="39.81903207788404" lon="8.917208268190432"><ele>208.0</ele><time>2026-04-27T14:55:39.259Z</time></trkpt><trkpt lat="39.81915786577341" lon="8.917418566942626"><ele>208.0</ele><time>2026-04-27T14:55:40.258Z</time></trkpt><trkpt lat="39.819272916091776" lon="8.917608278192796"><ele>208.0</ele><time>2026-04-27T14:55:41.258Z</time></trkpt><trkpt lat="39.819384831205525" lon="8.917788738237688"><ele>209.0</ele><time>2026-04-27T14:55:42.259Z</time></trkpt><trkpt lat="39.81948579881658" lon="8.917943306428086"><ele>210.0</ele><time>2026-04-27T14:55:43.259Z</time></trkpt><trkpt lat="39.81956918049164" lon="8.918077612557436"><ele>211.0</ele><time>2026-04-27T14:55:44.259Z</time></trkpt><trkpt lat="39.81964261391302" lon="8.918197161401356"><ele>212.0</ele><time>2026-04-27T14:55:45.259Z</time></trkpt><trkpt lat="39.81969872639751" lon="8.91829120181819"><ele>212.00000000000003</ele><time>2026-04-27T14:55:46.259Z</time></trkpt><trkpt lat="39.819752263018906" lon="8.918357252191147"><ele>212.0</ele><time>2026-04-27T14:55:47.259Z</time></trkpt><trkpt lat="39.81981906599228" lon="8.918369452433526"><ele>212.0</ele><time>2026-04-27T14:55:48.259Z</time></trkpt><trkpt lat="39.81988723084821" lon="8.918343567491885"><ele>212.0</ele><time>2026-04-27T14:55:49.259Z</time></trkpt><trkpt lat="39.81995494066696" lon="8.918275442766097"><ele>212.00000000000003</ele><time>2026-04-27T14:55:50.259Z</time></trkpt><trkpt lat="39.8200182231859" lon="8.91818307185605"><ele>212.0</ele><time>2026-04-27T14:55:51.259Z</time></trkpt><trkpt lat="39.82010526072883" lon="8.918115598914998"><ele>212.75</ele><time>2026-04-27T14:55:52.259Z</time></trkpt><trkpt lat="39.82021355722616" lon="8.918077920227985"><ele>213.5</ele><time>2026-04-27T14:55:53.259Z</time></trkpt><trkpt lat="39.82034301272475" lon="8.91806404521818"><ele>214.25</ele><time>2026-04-27T14:55:54.259Z</time></trkpt><trkpt lat="39.82048956801193" lon="8.918038618264196"><ele>215.0</ele><time>2026-04-27T14:55:55.259Z</time></trkpt><trkpt lat="39.82064119859277" lon="8.918003678334"><ele>215.0</ele><time>2026-04-27T14:55:56.259Z</time></trkpt><trkpt lat="39.82080215806386" lon="8.917969848877888"><ele>215.0</ele><time>2026-04-27T14:55:57.26Z</time></trkpt><trkpt lat="39.82096834960172" lon="8.917926606725715"><ele>215.0</ele><time>2026-04-27T14:55:58.26Z</time></trkpt><trkpt lat="39.82114023233489" lon="8.91788174900029"><ele>214.33333333333334</ele><time>2026-04-27T14:55:59.26Z</time></trkpt><trkpt lat="39.8213232877632" lon="8.917835705919595"><ele>213.66666666666669</ele><time>2026-04-27T14:56:00.26Z</time></trkpt><trkpt lat="39.821509149523855" lon="8.917788707431011"><ele>213.0</ele><time>2026-04-27T14:56:01.26Z</time></trkpt><trkpt lat="39.82169654692082" lon="8.917737874077694"><ele>214.0</ele><time>2026-04-27T14:56:02.26Z</time></trkpt><trkpt lat="39.821889128724735" lon="8.917687948126078"><ele>215.0</ele><time>2026-04-27T14:56:03.26Z</time></trkpt><trkpt lat="39.82208399827686" lon="8.917643478506037"><ele>216.0</ele><time>2026-04-27T14:56:04.26Z</time></trkpt><trkpt lat="39.82228057577295" lon="8.917601256199196"><ele>216.0</ele><time>2026-04-27T14:56:05.26Z</time></trkpt><trkpt lat="39.82247621249082" lon="8.917552355736893"><ele>216.0</ele><time>2026-04-27T14:56:06.26Z</time></trkpt><trkpt lat="39.822670868530324" lon="8.917496913485882"><ele>216.0</ele><time>2026-04-27T14:56:07.26Z</time></trkpt><trkpt lat="39.82286957310331" lon="8.917442899224579"><ele>216.0</ele><time>2026-04-27T14:56:08.26Z</time></trkpt><trkpt lat="39.8230700610886" lon="8.917393425134366"><ele>216.0</ele><time>2026-04-27T14:56:09.26Z</time></trkpt><trkpt lat="39.82327116235012" lon="8.917347821243602"><ele>216.0</ele><time>2026-04-27T14:56:10.26Z</time></trkpt><trkpt lat="39.82347648235982" lon="8.917313890845215"><ele>215.66666666666669</ele><time>2026-04-27T14:56:11.26Z</time></trkpt><trkpt lat="39.82368053149764" lon="8.917301253679849"><ele>215.33333333333334</ele><time>2026-04-27T14:56:12.26Z</time></trkpt><trkpt lat="39.823887992010015" lon="8.917320391406044"><ele>215.0</ele><time>2026-04-27T14:56:13.26Z</time></trkpt><trkpt lat="39.824094468085164" lon="8.917359843889681"><ele>215.0</ele><time>2026-04-27T14:56:14.26Z</time></trkpt><trkpt lat="39.82429433104152" lon="8.917412976920131"><ele>215.0</ele><time>2026-04-27T14:56:15.26Z</time></trkpt><trkpt lat="39.82449489028725" lon="8.917456937567684"><ele>215.0</ele><time>2026-04-27T14:56:16.26Z</time></trkpt><trkpt lat="39.82469423244988" lon="8.917495135078266"><ele>214.66666666666669</ele><time>2026-04-27T14:56:17.26Z</time></trkpt><trkpt lat="39.824899441733265" lon="8.917516026136562"><ele>214.33333333333331</ele><time>2026-04-27T14:56:18.26Z</time></trkpt><trkpt lat="39.82510875447572" lon="8.917504768137457"><ele>214.0</ele><time>2026-04-27T14:56:19.26Z</time></trkpt><trkpt lat="39.825316643218315" lon="8.917458878076399"><ele>214.0</ele><time>2026-04-27T14:56:20.26Z</time></trkpt><trkpt lat="39.825526411997195" lon="8.917392091298183"><ele>214.0</ele><time>2026-04-27T14:56:21.26Z</time></trkpt><trkpt lat="39.825735238725336" lon="8.917321247829326"><ele>214.0</ele><time>2026-04-27T14:56:22.26Z</time></trkpt><trkpt lat="39.82594498465258" lon="8.917264839747975"><ele>214.33333333333331</ele><time>2026-04-27T14:56:23.26Z</time></trkpt><trkpt lat="39.82615591463818" lon="8.917206242470433"><ele>214.66666666666669</ele><time>2026-04-27T14:56:24.26Z</time></trkpt><trkpt lat="39.82636001878373" lon="8.91714036795146"><ele>215.0</ele><time>2026-04-27T14:56:25.26Z</time></trkpt><trkpt lat="39.82656627109673" lon="8.91706743224854"><ele>215.0</ele><time>2026-04-27T14:56:26.26Z</time></trkpt><trkpt lat="39.826773345112315" lon="8.917009359865244"><ele>215.0</ele><time>2026-04-27T14:56:27.26Z</time></trkpt><trkpt lat="39.826982587167784" lon="8.916955521007186"><ele>215.0</ele><time>2026-04-27T14:56:28.26Z</time></trkpt><trkpt lat="39.82718834114738" lon="8.9168997569249"><ele>215.66666666666669</ele><time>2026-04-27T14:56:29.26Z</time></trkpt><trkpt lat="39.827393341054055" lon="8.916839050398137"><ele>216.33333333333331</ele><time>2026-04-27T14:56:30.26Z</time></trkpt><trkpt lat="39.82759883734416" lon="8.916779642588361"><ele>217.0</ele><time>2026-04-27T14:56:31.26Z</time></trkpt><trkpt lat="39.827799277986074" lon="8.916722313829231"><ele>217.0</ele><time>2026-04-27T14:56:32.26Z</time></trkpt><trkpt lat="39.828005077815384" lon="8.916660959309532"><ele>217.0</ele><time>2026-04-27T14:56:33.26Z</time></trkpt><trkpt lat="39.82821168971065" lon="8.916605090902989"><ele>217.0</ele><time>2026-04-27T14:56:34.26Z</time></trkpt><trkpt lat="39.82842380808467" lon="8.916548114579681"><ele>216.33333333333331</ele><time>2026-04-27T14:56:35.26Z</time></trkpt><trkpt lat="39.82863402467943" lon="8.916526877884339"><ele>215.66666666666669</ele><time>2026-04-27T14:56:36.26Z</time></trkpt><trkpt lat="39.82883963909669" lon="8.916574541436312"><ele>215.0</ele><time>2026-04-27T14:56:37.26Z</time></trkpt><trkpt lat="39.82903276011205" lon="8.916665561021773"><ele>216.66666666666669</ele><time>2026-04-27T14:56:38.26Z</time></trkpt><trkpt lat="39.82922235441106" lon="8.916775270523654"><ele>218.33333333333331</ele><time>2026-04-27T14:56:39.26Z</time></trkpt><trkpt lat="39.82941381192636" lon="8.916894994025334"><ele>220.0</ele><time>2026-04-27T14:56:40.26Z</time></trkpt><trkpt lat="39.82961115792119" lon="8.917009433813229"><ele>216.66666666666666</ele><time>2026-04-27T14:56:41.26Z</time></trkpt><trkpt lat="39.82981397920474" lon="8.917119809839708"><ele>213.33333333333331</ele><time>2026-04-27T14:56:42.26Z</time></trkpt><trkpt lat="39.83002807515954" lon="8.917206281730952"><ele>210.0</ele><time>2026-04-27T14:56:43.26Z</time></trkpt><trkpt lat="39.83025167592042" lon="8.917240781567383"><ele>208.5</ele><time>2026-04-27T14:56:44.26Z</time></trkpt><trkpt lat="39.83047985950593" lon="8.917209379661957"><ele>207.0</ele><time>2026-04-27T14:56:45.26Z</time></trkpt><trkpt lat="39.83070337527648" lon="8.917177232913293"><ele>207.0</ele><time>2026-04-27T14:56:46.26Z</time></trkpt><trkpt lat="39.83092762151015" lon="8.917151970955775"><ele>207.0</ele><time>2026-04-27T14:56:47.26Z</time></trkpt><trkpt lat="39.83116071124223" lon="8.91713333646416"><ele>205.5</ele><time>2026-04-27T14:56:48.26Z</time></trkpt><trkpt lat="39.831390341465884" lon="8.917113285769389"><ele>204.0</ele><time>2026-04-27T14:56:49.26Z</time></trkpt><trkpt lat="39.831625606395754" lon="8.91711695422085"><ele>200.5</ele><time>2026-04-27T14:56:50.26Z</time></trkpt><trkpt lat="39.831849555034026" lon="8.917150581967508"><ele>197.0</ele><time>2026-04-27T14:56:51.26Z</time></trkpt><trkpt lat="39.832075697434014" lon="8.917206192502588"><ele>197.0</ele><time>2026-04-27T14:56:52.26Z</time></trkpt><trkpt lat="39.83229543128277" lon="8.91727986544931"><ele>197.0</ele><time>2026-04-27T14:56:53.26Z</time></trkpt><trkpt lat="39.832520313380805" lon="8.917354037853807"><ele>196.0</ele><time>2026-04-27T14:56:54.26Z</time></trkpt><trkpt lat="39.83273872326217" lon="8.917423963330682"><ele>195.0</ele><time>2026-04-27T14:56:55.26Z</time></trkpt><trkpt lat="39.83296185649475" lon="8.917489843683066"><ele>196.0</ele><time>2026-04-27T14:56:56.26Z</time></trkpt><trkpt lat="39.83318997180725" lon="8.917570771621314"><ele>197.0</ele><time>2026-04-27T14:56:57.26Z</time></trkpt><trkpt lat="39.833416612089195" lon="8.917646454691543"><ele>196.5</ele><time>2026-04-27T14:56:58.26Z</time></trkpt><trkpt lat="39.83364356134514" lon="8.917720911109372"><ele>196.0</ele><time>2026-04-27T14:56:59.26Z</time></trkpt><trkpt lat="39.83387211809894" lon="8.917787881098194"><ele>196.0</ele><time>2026-04-27T14:57:00.26Z</time></trkpt><trkpt lat="39.834101623053975" lon="8.917855829344083"><ele>196.0</ele><time>2026-04-27T14:57:01.26Z</time></trkpt><trkpt lat="39.834335047344595" lon="8.917928730857508"><ele>196.0</ele><time>2026-04-27T14:57:02.26Z</time></trkpt><trkpt lat="39.83456964617178" lon="8.918000144410145"><ele>196.0</ele><time>2026-04-27T14:57:03.26Z</time></trkpt><trkpt lat="39.83480850399968" lon="8.918075526308737"><ele>196.0</ele><time>2026-04-27T14:57:04.26Z</time></trkpt><trkpt lat="39.83504616995294" lon="8.918171397344901"><ele>196.0</ele><time>2026-04-27T14:57:05.26Z</time></trkpt><trkpt lat="39.83527347791206" lon="8.91829705278255"><ele>197.5</ele><time>2026-04-27T14:57:06.26Z</time></trkpt><trkpt lat="39.83548368022435" lon="8.918461037750827"><ele>199.0</ele><time>2026-04-27T14:57:07.26Z</time></trkpt><trkpt lat="39.835682471034026" lon="8.918636403400601"><ele>199.0</ele><time>2026-04-27T14:57:08.26Z</time></trkpt><trkpt lat="39.835881598444075" lon="8.918807208073815"><ele>199.0</ele><time>2026-04-27T14:57:09.26Z</time></trkpt><trkpt lat="39.83608556384603" lon="8.918976409137105"><ele>200.0</ele><time>2026-04-27T14:57:10.261Z</time></trkpt><trkpt lat="39.8362919720123" lon="8.919144171866764"><ele>201.0</ele><time>2026-04-27T14:57:11.261Z</time></trkpt><trkpt lat="39.836498764926056" lon="8.919311890493697"><ele>201.0</ele><time>2026-04-27T14:57:12.261Z</time></trkpt><trkpt lat="39.83670935167452" lon="8.919481056936865"><ele>201.0</ele><time>2026-04-27T14:57:13.261Z</time></trkpt><trkpt lat="39.83692036967006" lon="8.919653607973359"><ele>197.0</ele><time>2026-04-27T14:57:14.261Z</time></trkpt><trkpt lat="39.837129432391045" lon="8.919828208912273"><ele>193.0</ele><time>2026-04-27T14:57:15.261Z</time></trkpt><trkpt lat="39.8373373847999" lon="8.920001138831065"><ele>192.0</ele><time>2026-04-27T14:57:16.261Z</time></trkpt><trkpt lat="39.83754224539993" lon="8.920178423799342"><ele>191.0</ele><time>2026-04-27T14:57:17.261Z</time></trkpt><trkpt lat="39.83774558660251" lon="8.9203641134141"><ele>191.0</ele><time>2026-04-27T14:57:18.261Z</time></trkpt><trkpt lat="39.837941221998435" lon="8.920564009778975"><ele>191.0</ele><time>2026-04-27T14:57:19.261Z</time></trkpt><trkpt lat="39.83813134451319" lon="8.920770674765782"><ele>190.5</ele><time>2026-04-27T14:57:20.261Z</time></trkpt><trkpt lat="39.83832114648694" lon="8.920977291397364"><ele>190.0</ele><time>2026-04-27T14:57:21.261Z</time></trkpt><trkpt lat="39.8385104242175" lon="8.921190254959736"><ele>190.0</ele><time>2026-04-27T14:57:22.261Z</time></trkpt><trkpt lat="39.83870144022664" lon="8.921404116212715"><ele>190.0</ele><time>2026-04-27T14:57:23.261Z</time></trkpt><trkpt lat="39.838895864018646" lon="8.921614611585957"><ele>191.5</ele><time>2026-04-27T14:57:24.261Z</time></trkpt><trkpt lat="39.8390907824032" lon="8.92181703827818"><ele>193.0</ele><time>2026-04-27T14:57:25.261Z</time></trkpt><trkpt lat="39.839291618087934" lon="8.922003243780598"><ele>193.5</ele><time>2026-04-27T14:57:26.261Z</time></trkpt><trkpt lat="39.83950239679562" lon="8.922164608897809"><ele>194.0</ele><time>2026-04-27T14:57:27.261Z</time></trkpt><trkpt lat="39.83972056111848" lon="8.922307254858511"><ele>194.0</ele><time>2026-04-27T14:57:28.261Z</time></trkpt><trkpt lat="39.83994570248088" lon="8.922446531780903"><ele>194.0</ele><time>2026-04-27T14:57:29.261Z</time></trkpt><trkpt lat="39.84017062745926" lon="8.922590363027945"><ele>198.0</ele><time>2026-04-27T14:57:30.261Z</time></trkpt><trkpt lat="39.840397109090084" lon="8.922737088096133"><ele>202.0</ele><time>2026-04-27T14:57:31.261Z</time></trkpt><trkpt lat="39.84061898491166" lon="8.922883770587909"><ele>202.0</ele><time>2026-04-27T14:57:32.261Z</time></trkpt><trkpt lat="39.84083978686012" lon="8.923024948449337"><ele>202.0</ele><time>2026-04-27T14:57:33.261Z</time></trkpt><trkpt lat="39.841059894051995" lon="8.92316925666987"><ele>203.5</ele><time>2026-04-27T14:57:34.261Z</time></trkpt><trkpt lat="39.84127651925457" lon="8.923311794916899"><ele>205.0</ele><time>2026-04-27T14:57:35.261Z</time></trkpt><trkpt lat="39.84148709252208" lon="8.923451381878936"><ele>206.5</ele><time>2026-04-27T14:57:36.261Z</time></trkpt><trkpt lat="39.84170321171257" lon="8.923591782191226"><ele>208.0</ele><time>2026-04-27T14:57:37.261Z</time></trkpt><trkpt lat="39.84191416647618" lon="8.92371743091473"><ele>210.0</ele><time>2026-04-27T14:57:38.261Z</time></trkpt><trkpt lat="39.842124403728214" lon="8.923797938808463"><ele>212.0</ele><time>2026-04-27T14:57:39.262Z</time></trkpt><trkpt lat="39.84235201349328" lon="8.923819003098396"><ele>214.0</ele><time>2026-04-27T14:57:40.261Z</time></trkpt><trkpt lat="39.84258239384532" lon="8.923781241622587"><ele>219.5</ele><time>2026-04-27T14:57:41.261Z</time></trkpt><trkpt lat="39.842807731203465" lon="8.923708210457367"><ele>225.0</ele><time>2026-04-27T14:57:42.262Z</time></trkpt><trkpt lat="39.84303454105007" lon="8.923632561653172"><ele>225.0</ele><time>2026-04-27T14:57:43.261Z</time></trkpt><trkpt lat="39.84326382257595" lon="8.923569090241273"><ele>225.0</ele><time>2026-04-27T14:57:44.261Z</time></trkpt><trkpt lat="39.84349488419197" lon="8.9235067093397"><ele>223.5</ele><time>2026-04-27T14:57:45.261Z</time></trkpt><trkpt lat="39.84372676468626" lon="8.9234431925211"><ele>222.0</ele><time>2026-04-27T14:57:46.261Z</time></trkpt><trkpt lat="39.843957717423976" lon="8.923382484349037"><ele>222.0</ele><time>2026-04-27T14:57:47.261Z</time></trkpt><trkpt lat="39.84418762087595" lon="8.923331732505373"><ele>222.0</ele><time>2026-04-27T14:57:48.262Z</time></trkpt><trkpt lat="39.84441203101251" lon="8.923320579300803"><ele>223.66666666666669</ele><time>2026-04-27T14:57:49.261Z</time></trkpt><trkpt lat="39.84463269635968" lon="8.923374433055944"><ele>225.33333333333334</ele><time>2026-04-27T14:57:50.261Z</time></trkpt><trkpt lat="39.84483967033198" lon="8.923468337546653"><ele>227.0</ele><time>2026-04-27T14:57:51.261Z</time></trkpt><trkpt lat="39.845030071873865" lon="8.923600751179567"><ele>227.0</ele><time>2026-04-27T14:57:52.261Z</time></trkpt><trkpt lat="39.845200544037674" lon="8.923784798864226"><ele>227.0</ele><time>2026-04-27T14:57:53.261Z</time></trkpt><trkpt lat="39.845343979616416" lon="8.92401174322708"><ele>227.0</ele><time>2026-04-27T14:57:54.261Z</time></trkpt><trkpt lat="39.84545049291437" lon="8.924270230639236"><ele>227.66666666666669</ele><time>2026-04-27T14:57:55.261Z</time></trkpt><trkpt lat="39.84553009155474" lon="8.924537231074524"><ele>228.33333333333331</ele><time>2026-04-27T14:57:56.261Z</time></trkpt><trkpt lat="39.84557533009461" lon="8.924817013849465"><ele>229.0</ele><time>2026-04-27T14:57:57.261Z</time></trkpt><trkpt lat="39.84562466206491" lon="8.925084637562332"><ele>230.0</ele><time>2026-04-27T14:57:58.261Z</time></trkpt><trkpt lat="39.84571008851979" lon="8.925330073690187"><ele>231.0</ele><time>2026-04-27T14:57:59.261Z</time></trkpt><trkpt lat="39.84582787401345" lon="8.925527553340125"><ele>232.0</ele><time>2026-04-27T14:58:00.261Z</time></trkpt><trkpt lat="39.845980036327276" lon="8.925676379133007"><ele>232.0</ele><time>2026-04-27T14:58:01.261Z</time></trkpt><trkpt lat="39.846160675677375" lon="8.9257873607515"><ele>232.0</ele><time>2026-04-27T14:58:02.261Z</time></trkpt><trkpt lat="39.84635159436017" lon="8.925900313873553"><ele>232.0</ele><time>2026-04-27T14:58:03.261Z</time></trkpt><trkpt lat="39.846520920554006" lon="8.926062276620017"><ele>232.0</ele><time>2026-04-27T14:58:04.261Z</time></trkpt><trkpt lat="39.84665724146499" lon="8.926256659041233"><ele>232.0</ele><time>2026-04-27T14:58:05.261Z</time></trkpt><trkpt lat="39.84675586568902" lon="8.926496057311603"><ele>232.0</ele><time>2026-04-27T14:58:06.261Z</time></trkpt><trkpt lat="39.84683017787278" lon="8.926752192397487"><ele>232.0</ele><time>2026-04-27T14:58:07.261Z</time></trkpt><trkpt lat="39.84689877779299" lon="8.927005041991977"><ele>232.0</ele><time>2026-04-27T14:58:08.261Z</time></trkpt><trkpt lat="39.84699132312434" lon="8.927236816641132"><ele>232.0</ele><time>2026-04-27T14:58:09.261Z</time></trkpt><trkpt lat="39.84711206638589" lon="8.927460926991273"><ele>234.33333333333331</ele><time>2026-04-27T14:58:10.261Z</time></trkpt><trkpt lat="39.84725219644057" lon="8.927680109238983"><ele>236.66666666666669</ele><time>2026-04-27T14:58:11.261Z</time></trkpt><trkpt lat="39.84739966149146" lon="8.927899152601762"><ele>239.0</ele><time>2026-04-27T14:58:12.261Z</time></trkpt><trkpt lat="39.84754445613324" lon="8.928109486357855"><ele>237.33333333333334</ele><time>2026-04-27T14:58:13.261Z</time></trkpt><trkpt lat="39.84770194045169" lon="8.928285748028168"><ele>235.66666666666669</ele><time>2026-04-27T14:58:14.261Z</time></trkpt><trkpt lat="39.84788241549106" lon="8.928411667179187"><ele>234.0</ele><time>2026-04-27T14:58:15.261Z</time></trkpt><trkpt lat="39.84807266847138" lon="8.928501795652402"><ele>237.66666666666669</ele><time>2026-04-27T14:58:16.261Z</time></trkpt><trkpt lat="39.84827644567782" lon="8.928547758616556"><ele>241.33333333333334</ele><time>2026-04-27T14:58:17.261Z</time></trkpt><trkpt lat="39.84849004263589" lon="8.928547121624815"><ele>245.0</ele><time>2026-04-27T14:58:18.261Z</time></trkpt><trkpt lat="39.8486991396076" lon="8.92848685443867"><ele>244.0</ele><time>2026-04-27T14:58:19.261Z</time></trkpt><trkpt lat="39.84890308091912" lon="8.928378589056992"><ele>243.0</ele><time>2026-04-27T14:58:20.261Z</time></trkpt><trkpt lat="39.849101775607785" lon="8.928247966273066"><ele>242.0</ele><time>2026-04-27T14:58:21.261Z</time></trkpt><trkpt lat="39.84930563159838" lon="8.928120118044237"><ele>247.0</ele><time>2026-04-27T14:58:22.261Z</time></trkpt><trkpt lat="39.84951161775228" lon="8.927993473480122"><ele>252.0</ele><time>2026-04-27T14:58:23.261Z</time></trkpt><trkpt lat="39.84971590553239" lon="8.9278649287229"><ele>252.0</ele><time>2026-04-27T14:58:24.261Z</time></trkpt><trkpt lat="39.84992563074841" lon="8.927751307358568"><ele>252.0</ele><time>2026-04-27T14:58:25.261Z</time></trkpt><trkpt lat="39.85014376384764" lon="8.927659913987803"><ele>255.5</ele><time>2026-04-27T14:58:26.261Z</time></trkpt><trkpt lat="39.85036446814883" lon="8.92759979159279"><ele>259.0</ele><time>2026-04-27T14:58:27.261Z</time></trkpt><trkpt lat="39.85058768649859" lon="8.927570865364514"><ele>253.5</ele><time>2026-04-27T14:58:28.261Z</time></trkpt><trkpt lat="39.850816588811526" lon="8.927542087305252"><ele>248.0</ele><time>2026-04-27T14:58:29.261Z</time></trkpt><trkpt lat="39.85104090131058" lon="8.927501081388463"><ele>248.0</ele><time>2026-04-27T14:58:30.261Z</time></trkpt><trkpt lat="39.8512689364205" lon="8.927458908092902"><ele>248.0</ele><time>2026-04-27T14:58:31.261Z</time></trkpt><trkpt lat="39.851502385681975" lon="8.927424547328918"><ele>248.0</ele><time>2026-04-27T14:58:32.261Z</time></trkpt><trkpt lat="39.85173615515177" lon="8.927387762942491"><ele>248.0</ele><time>2026-04-27T14:58:33.261Z</time></trkpt><trkpt lat="39.85196995521188" lon="8.927359265211129"><ele>248.5</ele><time>2026-04-27T14:58:34.261Z</time></trkpt><trkpt lat="39.85220375509817" lon="8.927340596150058"><ele>249.0</ele><time>2026-04-27T14:58:35.261Z</time></trkpt><trkpt lat="39.852434228755115" lon="8.927346999628417"><ele>245.5</ele><time>2026-04-27T14:58:36.261Z</time></trkpt><trkpt lat="39.852662820128145" lon="8.927388032758873"><ele>242.0</ele><time>2026-04-27T14:58:37.261Z</time></trkpt><trkpt lat="39.85288806384125" lon="8.927451288075346"><ele>242.0</ele><time>2026-04-27T14:58:38.261Z</time></trkpt><trkpt lat="39.853113866587655" lon="8.927538145902911"><ele>242.0</ele><time>2026-04-27T14:58:39.261Z</time></trkpt><trkpt lat="39.853333684197615" lon="8.927660209369568"><ele>239.0</ele><time>2026-04-27T14:58:40.261Z</time></trkpt><trkpt lat="39.85354903526044" lon="8.927810367810897"><ele>236.0</ele><time>2026-04-27T14:58:41.261Z</time></trkpt><trkpt lat="39.85375244197208" lon="8.927986791486608"><ele>236.0</ele><time>2026-04-27T14:58:42.261Z</time></trkpt><trkpt lat="39.853954110363745" lon="8.928172960630935"><ele>236.0</ele><time>2026-04-27T14:58:43.261Z</time></trkpt><trkpt lat="39.85415061136061" lon="8.928364953899047"><ele>234.0</ele><time>2026-04-27T14:58:44.261Z</time></trkpt><trkpt lat="39.854346808521505" lon="8.928545798306706"><ele>232.0</ele><time>2026-04-27T14:58:45.261Z</time></trkpt><trkpt lat="39.85452958964946" lon="8.928720060649576"><ele>232.0</ele><time>2026-04-27T14:58:46.261Z</time></trkpt><trkpt lat="39.85470193155373" lon="8.928887728123652"><ele>232.0</ele><time>2026-04-27T14:58:47.261Z</time></trkpt><trkpt lat="39.85485491662423" lon="8.929041507726781"><ele>232.0</ele><time>2026-04-27T14:58:48.262Z</time></trkpt><trkpt lat="39.85496957477557" lon="8.929215228527845"><ele>231.0</ele><time>2026-04-27T14:58:49.262Z</time></trkpt><trkpt lat="39.85502492310912" lon="8.929416475639446"><ele>230.0</ele><time>2026-04-27T14:58:50.262Z</time></trkpt><trkpt lat="39.85504110889333" lon="8.929625794489256"><ele>229.0</ele><time>2026-04-27T14:58:51.262Z</time></trkpt><trkpt lat="39.85500237550957" lon="8.929832193474004"><ele>229.0</ele><time>2026-04-27T14:58:52.262Z</time></trkpt><trkpt lat="39.85491677228861" lon="8.930015160238694"><ele>229.0</ele><time>2026-04-27T14:58:53.262Z</time></trkpt><trkpt lat="39.854791222128746" lon="8.93018545563887"><ele>229.0</ele><time>2026-04-27T14:58:54.262Z</time></trkpt><trkpt lat="39.85462682974466" lon="8.930327181679742"><ele>225.66666666666666</ele><time>2026-04-27T14:58:55.262Z</time></trkpt><trkpt lat="39.8544751010371" lon="8.930491762332776"><ele>222.33333333333331</ele><time>2026-04-27T14:58:56.262Z</time></trkpt><trkpt lat="39.85435995986984" lon="8.93068747739769"><ele>219.0</ele><time>2026-04-27T14:58:57.262Z</time></trkpt><trkpt lat="39.8542883717708" lon="8.93090321490598"><ele>220.0</ele><time>2026-04-27T14:58:58.262Z</time></trkpt><trkpt lat="39.854262134526564" lon="8.931133818894935"><ele>221.0</ele><time>2026-04-27T14:58:59.262Z</time></trkpt><trkpt lat="39.85427086878303" lon="8.931372753794234"><ele>222.0</ele><time>2026-04-27T14:59:00.262Z</time></trkpt><trkpt lat="39.85428667026686" lon="8.931614840557936"><ele>219.0</ele><time>2026-04-27T14:59:01.262Z</time></trkpt><trkpt lat="39.85427999800143" lon="8.931860551815006"><ele>216.0</ele><time>2026-04-27T14:59:02.262Z</time></trkpt><trkpt lat="39.85424533130258" lon="8.932107513413905"><ele>213.0</ele><time>2026-04-27T14:59:03.262Z</time></trkpt><trkpt lat="39.85416841650051" lon="8.932322743513865"><ele>213.0</ele><time>2026-04-27T14:59:04.262Z</time></trkpt><trkpt lat="39.854069294396176" lon="8.9325230639934"><ele>213.0</ele><time>2026-04-27T14:59:05.262Z</time></trkpt><trkpt lat="39.85394284002238" lon="8.932700092472992"><ele>213.0</ele><time>2026-04-27T14:59:06.262Z</time></trkpt><trkpt lat="39.85378819627622" lon="8.932847715324504"><ele>211.66666666666669</ele><time>2026-04-27T14:59:07.262Z</time></trkpt><trkpt lat="39.85361112370666" lon="8.932946165669714"><ele>210.33333333333334</ele><time>2026-04-27T14:59:08.262Z</time></trkpt><trkpt lat="39.85342742749187" lon="8.93300756998155"><ele>209.0</ele><time>2026-04-27T14:59:09.262Z</time></trkpt><trkpt lat="39.85324529403822" lon="8.933075048154459"><ele>209.0</ele><time>2026-04-27T14:59:10.262Z</time></trkpt><trkpt lat="39.85307808087493" lon="8.933154806014905"><ele>209.0</ele><time>2026-04-27T14:59:11.262Z</time></trkpt><trkpt lat="39.85293128193815" lon="8.933267770122498"><ele>209.0</ele><time>2026-04-27T14:59:12.262Z</time></trkpt><trkpt lat="39.852834506558466" lon="8.93343398529456"><ele>207.0</ele><time>2026-04-27T14:59:13.262Z</time></trkpt><trkpt lat="39.852769854151305" lon="8.933621144323876"><ele>205.0</ele><time>2026-04-27T14:59:14.262Z</time></trkpt><trkpt lat="39.85275142485926" lon="8.933817993459218"><ele>203.0</ele><time>2026-04-27T14:59:15.262Z</time></trkpt><trkpt lat="39.85278061313963" lon="8.934017479393393"><ele>203.0</ele><time>2026-04-27T14:59:16.262Z</time></trkpt><trkpt lat="39.852856373364745" lon="8.934210661535802"><ele>203.0</ele><time>2026-04-27T14:59:17.262Z</time></trkpt><trkpt lat="39.85297658708561" lon="8.93437716263427"><ele>203.0</ele><time>2026-04-27T14:59:18.262Z</time></trkpt><trkpt lat="39.85313952006314" lon="8.934487073013647"><ele>207.0</ele><time>2026-04-27T14:59:19.262Z</time></trkpt><trkpt lat="39.85333412483217" lon="8.93452920911787"><ele>211.0</ele><time>2026-04-27T14:59:20.262Z</time></trkpt><trkpt lat="39.85353763797436" lon="8.93454191135052"><ele>215.0</ele><time>2026-04-27T14:59:21.262Z</time></trkpt><trkpt lat="39.85374331797743" lon="8.93450953744772"><ele>215.66666666666669</ele><time>2026-04-27T14:59:22.262Z</time></trkpt><trkpt lat="39.85394734698417" lon="8.934428573835742"><ele>216.33333333333331</ele><time>2026-04-27T14:59:23.262Z</time></trkpt><trkpt lat="39.854146471939174" lon="8.934304530971287"><ele>217.0</ele><time>2026-04-27T14:59:24.262Z</time></trkpt><trkpt lat="39.85435029515098" lon="8.934168131204729"><ele>213.0</ele><time>2026-04-27T14:59:25.262Z</time></trkpt><trkpt lat="39.85455610133067" lon="8.934033468063285"><ele>209.0</ele><time>2026-04-27T14:59:26.262Z</time></trkpt><trkpt lat="39.85475746159228" lon="8.933889820217736"><ele>209.0</ele><time>2026-04-27T14:59:27.262Z</time></trkpt><trkpt lat="39.85496403069913" lon="8.933760771297816"><ele>209.0</ele><time>2026-04-27T14:59:28.262Z</time></trkpt><trkpt lat="39.8551711545617" lon="8.933631193487054"><ele>206.0</ele><time>2026-04-27T14:59:29.262Z</time></trkpt><trkpt lat="39.85537523620007" lon="8.933506245094925"><ele>203.0</ele><time>2026-04-27T14:59:30.262Z</time></trkpt><trkpt lat="39.85558065857472" lon="8.933379952348188"><ele>203.0</ele><time>2026-04-27T14:59:31.262Z</time></trkpt><trkpt lat="39.8557887899616" lon="8.933269032518165"><ele>203.0</ele><time>2026-04-27T14:59:32.262Z</time></trkpt><trkpt lat="39.856002041971074" lon="8.933175285778868"><ele>205.66666666666669</ele><time>2026-04-27T14:59:33.262Z</time></trkpt><trkpt lat="39.85621645151946" lon="8.933084591811875"><ele>208.33333333333331</ele><time>2026-04-27T14:59:34.262Z</time></trkpt><trkpt lat="39.856431741843764" lon="8.933004296303995"><ele>211.0</ele><time>2026-04-27T14:59:35.262Z</time></trkpt><trkpt lat="39.85665570643504" lon="8.932943466220536"><ele>215.0</ele><time>2026-04-27T14:59:36.262Z</time></trkpt><trkpt lat="39.85688040451554" lon="8.932880448529076"><ele>219.0</ele><time>2026-04-27T14:59:37.262Z</time></trkpt><trkpt lat="39.857110000627706" lon="8.932818091078818"><ele>219.0</ele><time>2026-04-27T14:59:38.262Z</time></trkpt><trkpt lat="39.857342806456906" lon="8.932747670421133"><ele>219.0</ele><time>2026-04-27T14:59:39.262Z</time></trkpt><trkpt lat="39.85757461980931" lon="8.932672412179857"><ele>215.0</ele><time>2026-04-27T14:59:40.262Z</time></trkpt><trkpt lat="39.85780341667095" lon="8.932601422710045"><ele>211.0</ele><time>2026-04-27T14:59:41.262Z</time></trkpt><trkpt lat="39.858027524723234" lon="8.932561122081756"><ele>211.0</ele><time>2026-04-27T14:59:42.262Z</time></trkpt><trkpt lat="39.858237894692834" lon="8.932581365977853"><ele>211.0</ele><time>2026-04-27T14:59:43.262Z</time></trkpt><trkpt lat="39.85843755101613" lon="8.932656734167677"><ele>211.0</ele><time>2026-04-27T14:59:44.262Z</time></trkpt><trkpt lat="39.85863176804164" lon="8.93277850859506"><ele>206.33333333333331</ele><time>2026-04-27T14:59:45.263Z</time></trkpt><trkpt lat="39.85881850312859" lon="8.932918599410732"><ele>201.66666666666669</ele><time>2026-04-27T14:59:46.263Z</time></trkpt><trkpt lat="39.8590012052133" lon="8.933068303096842"><ele>197.0</ele><time>2026-04-27T14:59:47.263Z</time></trkpt><trkpt lat="39.85917280734998" lon="8.933228655787426"><ele>190.0</ele><time>2026-04-27T14:59:48.264Z</time></trkpt><trkpt lat="39.859307203738766" lon="8.933414185167965"><ele>183.0</ele><time>2026-04-27T14:59:49.264Z</time></trkpt><trkpt lat="39.85940712331079" lon="8.933616965060537"><ele>176.0</ele><time>2026-04-27T14:59:50.264Z</time></trkpt><trkpt lat="39.85948292849462" lon="8.93383472674745"><ele>176.0</ele><time>2026-04-27T14:59:51.264Z</time></trkpt><trkpt lat="39.85952689932164" lon="8.9340719916127"><ele>176.0</ele><time>2026-04-27T14:59:52.264Z</time></trkpt><trkpt lat="39.859536017615" lon="8.934312203077758"><ele>176.0</ele><time>2026-04-27T14:59:53.264Z</time></trkpt><trkpt lat="39.85951173821125" lon="8.934556488141572"><ele>175.66666666666666</ele><time>2026-04-27T14:59:54.264Z</time></trkpt><trkpt lat="39.85945705311372" lon="8.934799160040098"><ele>175.33333333333334</ele><time>2026-04-27T14:59:55.263Z</time></trkpt><trkpt lat="39.85935384295583" lon="8.935021237980878"><ele>175.0</ele><time>2026-04-27T14:59:56.263Z</time></trkpt><trkpt lat="39.859235382822064" lon="8.93522950660655"><ele>180.0</ele><time>2026-04-27T14:59:57.263Z</time></trkpt><trkpt lat="39.85913767099226" lon="8.935441818319756"><ele>185.0</ele><time>2026-04-27T14:59:58.263Z</time></trkpt><trkpt lat="39.85909584222831" lon="8.935670328811687"><ele>190.0</ele><time>2026-04-27T14:59:59.263Z</time></trkpt><trkpt lat="39.859126907533216" lon="8.9359134543583"><ele>190.66666666666669</ele><time>2026-04-27T15:00:00.263Z</time></trkpt><trkpt lat="39.859195915759784" lon="8.936151234485042"><ele>191.33333333333334</ele><time>2026-04-27T15:00:01.263Z</time></trkpt><trkpt lat="39.85928934631902" lon="8.936388135027391"><ele>192.0</ele><time>2026-04-27T15:00:02.263Z</time></trkpt><trkpt lat="39.85938534017231" lon="8.936619402648272"><ele>187.25</ele><time>2026-04-27T15:00:03.263Z</time></trkpt><trkpt lat="39.85945952715031" lon="8.936812820618881"><ele>182.5</ele><time>2026-04-27T15:00:04.263Z</time></trkpt><trkpt lat="39.85951055675154" lon="8.93698230349693"><ele>177.75</ele><time>2026-04-27T15:00:05.263Z</time></trkpt><trkpt lat="39.859536526819774" lon="8.937154307489697"><ele>173.0</ele><time>2026-04-27T15:00:06.263Z</time></trkpt><trkpt lat="39.85953438275903" lon="8.937334086519702"><ele>173.0</ele><time>2026-04-27T15:00:07.263Z</time></trkpt><trkpt lat="39.859518879972946" lon="8.937508636916458"><ele>173.0</ele><time>2026-04-27T15:00:08.263Z</time></trkpt><trkpt lat="39.85948333107015" lon="8.937690358486021"><ele>173.0</ele><time>2026-04-27T15:00:09.263Z</time></trkpt><trkpt lat="39.85941877673273" lon="8.937881615150141"><ele>173.0</ele><time>2026-04-27T15:00:10.263Z</time></trkpt><trkpt lat="39.85932702040736" lon="8.938069353038351"><ele>174.66666666666666</ele><time>2026-04-27T15:00:11.264Z</time></trkpt><trkpt lat="39.85921060239556" lon="8.938249283380692"><ele>176.33333333333334</ele><time>2026-04-27T15:00:12.264Z</time></trkpt><trkpt lat="39.8590831102273" lon="8.938415002638402"><ele>178.0</ele><time>2026-04-27T15:00:13.264Z</time></trkpt><trkpt lat="39.8589441555006" lon="8.93857878216153"><ele>178.0</ele><time>2026-04-27T15:00:14.264Z</time></trkpt><trkpt lat="39.85882328005664" lon="8.938742507802141"><ele>178.0</ele><time>2026-04-27T15:00:15.264Z</time></trkpt><trkpt lat="39.858740125124754" lon="8.93891770383175"><ele>178.0</ele><time>2026-04-27T15:00:16.264Z</time></trkpt><trkpt lat="39.85870119956064" lon="8.93911009614944"><ele>179.0</ele><time>2026-04-27T15:00:17.264Z</time></trkpt><trkpt lat="39.85871764802846" lon="8.939297460100088"><ele>180.0</ele><time>2026-04-27T15:00:18.264Z</time></trkpt><trkpt lat="39.85877128757504" lon="8.939474765870017"><ele>181.0</ele><time>2026-04-27T15:00:19.264Z</time></trkpt><trkpt lat="39.8588747101042" lon="8.939618786067706"><ele>182.0</ele><time>2026-04-27T15:00:20.264Z</time></trkpt><trkpt lat="39.85899784116873" lon="8.939724884580636"><ele>182.0</ele><time>2026-04-27T15:00:21.264Z</time></trkpt><trkpt lat="39.859146358033755" lon="8.939768698279488"><ele>182.0</ele><time>2026-04-27T15:00:22.264Z</time></trkpt><trkpt lat="39.85929449360703" lon="8.939734243137037"><ele>182.0</ele><time>2026-04-27T15:00:23.264Z</time></trkpt><trkpt lat="39.85942767394872" lon="8.939627307279931"><ele>183.66666666666666</ele><time>2026-04-27T15:00:24.264Z</time></trkpt><trkpt lat="39.859536722692546" lon="8.939457816455029"><ele>185.33333333333334</ele><time>2026-04-27T15:00:25.264Z</time></trkpt><trkpt lat="39.85962257797453" lon="8.93926729002422"><ele>187.0</ele><time>2026-04-27T15:00:26.264Z</time></trkpt><trkpt lat="39.85970409311103" lon="8.939076103727462"><ele>187.0</ele><time>2026-04-27T15:00:27.264Z</time></trkpt><trkpt lat="39.85979919266484" lon="8.938892542215957"><ele>187.0</ele><time>2026-04-27T15:00:28.264Z</time></trkpt><trkpt lat="39.859914257475275" lon="8.938733194485009"><ele>187.0</ele><time>2026-04-27T15:00:29.264Z</time></trkpt><trkpt lat="39.86005117463043" lon="8.938590844563027"><ele>185.66666666666669</ele><time>2026-04-27T15:00:30.264Z</time></trkpt><trkpt lat="39.860204341542946" lon="8.93846624949921"><ele>184.33333333333334</ele><time>2026-04-27T15:00:31.264Z</time></trkpt><trkpt lat="39.8603564567827" lon="8.938340746522487"><ele>183.0</ele><time>2026-04-27T15:00:32.264Z</time></trkpt><trkpt lat="39.860518553410074" lon="8.938221368908913"><ele>183.0</ele><time>2026-04-27T15:00:33.264Z</time></trkpt><trkpt lat="39.86069223743214" lon="8.938134380904451"><ele>183.0</ele><time>2026-04-27T15:00:34.264Z</time></trkpt><trkpt lat="39.86087198128005" lon="8.938089701579104"><ele>183.0</ele><time>2026-04-27T15:00:35.264Z</time></trkpt><trkpt lat="39.86106095924765" lon="8.938085160124343"><ele>182.33333333333334</ele><time>2026-04-27T15:00:36.264Z</time></trkpt><trkpt lat="39.86125205081381" lon="8.938110413096874"><ele>181.66666666666669</ele><time>2026-04-27T15:00:37.264Z</time></trkpt><trkpt lat="39.86143808582185" lon="8.93817648907857"><ele>181.0</ele><time>2026-04-27T15:00:38.264Z</time></trkpt><trkpt lat="39.86161451719944" lon="8.938286058804884"><ele>182.0</ele><time>2026-04-27T15:00:39.264Z</time></trkpt><trkpt lat="39.86178265090061" lon="8.938436115902325"><ele>183.0</ele><time>2026-04-27T15:00:40.264Z</time></trkpt><trkpt lat="39.861930200417255" lon="8.938620034416282"><ele>184.0</ele><time>2026-04-27T15:00:41.264Z</time></trkpt><trkpt lat="39.86206895695785" lon="8.938829212041602"><ele>184.0</ele><time>2026-04-27T15:00:42.264Z</time></trkpt><trkpt lat="39.86221367072063" lon="8.939030820756464"><ele>184.0</ele><time>2026-04-27T15:00:43.264Z</time></trkpt><trkpt lat="39.86237508030086" lon="8.939209055957852"><ele>184.0</ele><time>2026-04-27T15:00:44.264Z</time></trkpt><trkpt lat="39.86255207762872" lon="8.939376314197736"><ele>183.66666666666669</ele><time>2026-04-27T15:00:45.264Z</time></trkpt><trkpt lat="39.86273755806642" lon="8.939517073510961"><ele>183.33333333333334</ele><time>2026-04-27T15:00:46.264Z</time></trkpt><trkpt lat="39.86292941968581" lon="8.939654713417955"><ele>183.0</ele><time>2026-04-27T15:00:47.264Z</time></trkpt><trkpt lat="39.863118075773556" lon="8.939786248773544"><ele>183.0</ele><time>2026-04-27T15:00:48.264Z</time></trkpt><trkpt lat="39.86330493633695" lon="8.939924187745689"><ele>183.0</ele><time>2026-04-27T15:00:49.264Z</time></trkpt><trkpt lat="39.86348683518314" lon="8.940062886932143"><ele>183.0</ele><time>2026-04-27T15:00:50.264Z</time></trkpt><trkpt lat="39.86367809007882" lon="8.94017494380056"><ele>185.0</ele><time>2026-04-27T15:00:51.264Z</time></trkpt><trkpt lat="39.863848350414024" lon="8.940336365772117"><ele>187.0</ele><time>2026-04-27T15:00:52.264Z</time></trkpt><trkpt lat="39.86399306293231" lon="8.940545950871863"><ele>189.0</ele><time>2026-04-27T15:00:53.264Z</time></trkpt><trkpt lat="39.86410793242839" lon="8.94078673715122"><ele>189.0</ele><time>2026-04-27T15:00:54.264Z</time></trkpt><trkpt lat="39.86419475790294" lon="8.941049840452894"><ele>189.0</ele><time>2026-04-27T15:00:55.264Z</time></trkpt><trkpt lat="39.864271188566995" lon="8.94131888988195"><ele>189.0</ele><time>2026-04-27T15:00:56.264Z</time></trkpt><trkpt lat="39.86436626793909" lon="8.941574585018847"><ele>191.66666666666669</ele><time>2026-04-27T15:00:57.264Z</time></trkpt><trkpt lat="39.86447025698084" lon="8.941814677830875"><ele>194.33333333333334</ele><time>2026-04-27T15:00:58.264Z</time></trkpt><trkpt lat="39.86458723916263" lon="8.942006309902585"><ele>197.0</ele><time>2026-04-27T15:00:59.264Z</time></trkpt><trkpt lat="39.8647408702357" lon="8.942147871862314"><ele>197.0</ele><time>2026-04-27T15:01:00.264Z</time></trkpt><trkpt lat="39.86492068147485" lon="8.942252800865894"><ele>197.0</ele><time>2026-04-27T15:01:01.264Z</time></trkpt><trkpt lat="39.86512219212336" lon="8.942322819974198"><ele>197.0</ele><time>2026-04-27T15:01:02.264Z</time></trkpt><trkpt lat="39.865325719880545" lon="8.942386462777218"><ele>200.0</ele><time>2026-04-27T15:01:03.264Z</time></trkpt><trkpt lat="39.86553321272408" lon="8.942462436910983"><ele>203.0</ele><time>2026-04-27T15:01:04.264Z</time></trkpt><trkpt lat="39.86574234801681" lon="8.942538957455008"><ele>206.0</ele><time>2026-04-27T15:01:05.264Z</time></trkpt><trkpt lat="39.86595004217624" lon="8.942617148998764"><ele>206.0</ele><time>2026-04-27T15:01:06.264Z</time></trkpt><trkpt lat="39.866159205589334" lon="8.942693161991858"><ele>206.0</ele><time>2026-04-27T15:01:07.264Z</time></trkpt><trkpt lat="39.86636886140231" lon="8.942793954728966"><ele>206.0</ele><time>2026-04-27T15:01:08.264Z</time></trkpt><trkpt lat="39.86655901060829" lon="8.942932308395333"><ele>206.0</ele><time>2026-04-27T15:01:09.264Z</time></trkpt><trkpt lat="39.866738353985596" lon="8.943095147038655"><ele>206.0</ele><time>2026-04-27T15:01:10.264Z</time></trkpt><trkpt lat="39.86691570206085" lon="8.943250052233639"><ele>206.0</ele><time>2026-04-27T15:01:11.264Z</time></trkpt><trkpt lat="39.86708052829963" lon="8.94340497724161"><ele>207.33333333333334</ele><time>2026-04-27T15:01:12.264Z</time></trkpt><trkpt lat="39.86723895735493" lon="8.943554890808443"><ele>208.66666666666669</ele><time>2026-04-27T15:01:13.264Z</time></trkpt><trkpt lat="39.86739231390222" lon="8.943685631640324"><ele>210.0</ele><time>2026-04-27T15:01:14.264Z</time></trkpt><trkpt lat="39.86754374753374" lon="8.943801869914862"><ele>211.66666666666669</ele><time>2026-04-27T15:01:15.264Z</time></trkpt><trkpt lat="39.86769193957358" lon="8.94389608255962"><ele>213.33333333333334</ele><time>2026-04-27T15:01:16.264Z</time></trkpt><trkpt lat="39.867842151748185" lon="8.94396986394689"><ele>215.0</ele><time>2026-04-27T15:01:17.264Z</time></trkpt><trkpt lat="39.867987341635434" lon="8.944024961107239"><ele>215.0</ele><time>2026-04-27T15:01:18.264Z</time></trkpt><trkpt lat="39.868126557182414" lon="8.944071424207285"><ele>215.0</ele><time>2026-04-27T15:01:19.264Z</time></trkpt><trkpt lat="39.8682580847759" lon="8.944112749040002"><ele>215.0</ele><time>2026-04-27T15:01:20.264Z</time></trkpt><trkpt lat="39.868381284015335" lon="8.944157379549425"><ele>215.0</ele><time>2026-04-27T15:01:21.264Z</time></trkpt><trkpt lat="39.868494255224185" lon="8.94418263133204"><ele>214.8</ele><time>2026-04-27T15:01:22.264Z</time></trkpt><trkpt lat="39.86859159159026" lon="8.944212344215721"><ele>214.6</ele><time>2026-04-27T15:01:23.264Z</time></trkpt><trkpt lat="39.86867805806831" lon="8.94423641902396"><ele>214.39999999999998</ele><time>2026-04-27T15:01:24.265Z</time></trkpt><trkpt lat="39.8687625051008" lon="8.944264597663517"><ele>214.2</ele><time>2026-04-27T15:01:25.265Z</time></trkpt><trkpt lat="39.868856509362494" lon="8.944284216660032"><ele>214.0</ele><time>2026-04-27T15:01:26.265Z</time></trkpt><trkpt lat="39.86896263214917" lon="8.944303892524761"><ele>214.0</ele><time>2026-04-27T15:01:27.265Z</time></trkpt><trkpt lat="39.86907938820313" lon="8.94431047740777"><ele>214.0</ele><time>2026-04-27T15:01:28.265Z</time></trkpt><trkpt lat="39.869202183471245" lon="8.944312735399778"><ele>214.0</ele><time>2026-04-27T15:01:29.265Z</time></trkpt><trkpt lat="39.86933527004965" lon="8.944302651436194"><ele>214.0</ele><time>2026-04-27T15:01:30.265Z</time></trkpt><trkpt lat="39.869469340323505" lon="8.9442621765536"><ele>214.75</ele><time>2026-04-27T15:01:31.265Z</time></trkpt><trkpt lat="39.86960271860909" lon="8.944215882910958"><ele>215.5</ele><time>2026-04-27T15:01:32.265Z</time></trkpt><trkpt lat="39.86974123962276" lon="8.944171944675308"><ele>216.25</ele><time>2026-04-27T15:01:33.265Z</time></trkpt><trkpt lat="39.86988244376934" lon="8.944130489268604"><ele>217.0</ele><time>2026-04-27T15:01:34.265Z</time></trkpt><trkpt lat="39.8700239464238" lon="8.944085513272432"><ele>218.25</ele><time>2026-04-27T15:01:35.265Z</time></trkpt><trkpt lat="39.870163971107864" lon="8.94404567823658"><ele>219.5</ele><time>2026-04-27T15:01:36.265Z</time></trkpt><trkpt lat="39.870297111906105" lon="8.944013174114202"><ele>220.75</ele><time>2026-04-27T15:01:37.265Z</time></trkpt><trkpt lat="39.870419994662804" lon="8.943987312218564"><ele>222.0</ele><time>2026-04-27T15:01:38.265Z</time></trkpt><trkpt lat="39.87052912742307" lon="8.943980141121814"><ele>222.0</ele><time>2026-04-27T15:01:39.265Z</time></trkpt><trkpt lat="39.87062111134298" lon="8.944022076908476"><ele>222.0</ele><time>2026-04-27T15:01:40.265Z</time></trkpt><trkpt lat="39.870692376170155" lon="8.944143484457852"><ele>222.0</ele><time>2026-04-27T15:01:41.265Z</time></trkpt><trkpt lat="39.870730385705286" lon="8.944293972987108"><ele>222.0</ele><time>2026-04-27T15:01:42.265Z</time></trkpt><trkpt lat="39.870760087743875" lon="8.944440284417709"><ele>222.39999999999998</ele><time>2026-04-27T15:01:43.265Z</time></trkpt><trkpt lat="39.870795754999065" lon="8.94458111058067"><ele>222.79999999999998</ele><time>2026-04-27T15:01:44.265Z</time></trkpt><trkpt lat="39.87083222363055" lon="8.944720222066332"><ele>223.2</ele><time>2026-04-27T15:01:45.265Z</time></trkpt><trkpt lat="39.87086397479469" lon="8.944856377132904"><ele>223.6</ele><time>2026-04-27T15:01:46.265Z</time></trkpt><trkpt lat="39.87089374112268" lon="8.94499313427149"><ele>224.0</ele><time>2026-04-27T15:01:47.265Z</time></trkpt><trkpt lat="39.870925336885" lon="8.945123755596516"><ele>226.0</ele><time>2026-04-27T15:01:48.265Z</time></trkpt><trkpt lat="39.87095218173824" lon="8.945258116283473"><ele>227.99999999999997</ele><time>2026-04-27T15:01:49.265Z</time></trkpt><trkpt lat="39.870971337025466" lon="8.94539333994081"><ele>229.99999999999997</ele><time>2026-04-27T15:01:50.265Z</time></trkpt><trkpt lat="39.87100064449795" lon="8.945532809874976"><ele>232.0</ele><time>2026-04-27T15:01:51.266Z</time></trkpt><trkpt lat="39.871023621730494" lon="8.94567900414623"><ele>234.0</ele><time>2026-04-27T15:01:52.266Z</time></trkpt><trkpt lat="39.871039377842806" lon="8.945822873525199"><ele>233.6</ele><time>2026-04-27T15:01:53.266Z</time></trkpt><trkpt lat="39.87106624515316" lon="8.945966812311578"><ele>233.2</ele><time>2026-04-27T15:01:54.266Z</time></trkpt><trkpt lat="39.87109688364066" lon="8.946098673737232"><ele>232.79999999999998</ele><time>2026-04-27T15:01:55.266Z</time></trkpt><trkpt lat="39.8711503263473" lon="8.946210611288157"><ele>232.39999999999998</ele><time>2026-04-27T15:01:56.266Z</time></trkpt><trkpt lat="39.87122087364527" lon="8.946315908798399"><ele>232.0</ele><time>2026-04-27T15:01:57.267Z</time></trkpt><trkpt lat="39.871304812739545" lon="8.946407966038143"><ele>232.0</ele><time>2026-04-27T15:01:58.266Z</time></trkpt><trkpt lat="39.871414507016155" lon="8.94647204498374"><ele>232.0</ele><time>2026-04-27T15:01:59.266Z</time></trkpt><trkpt lat="39.87150956691304" lon="8.946536848916956"><ele>232.0</ele><time>2026-04-27T15:02:00.267Z</time></trkpt><trkpt lat="39.87161043227359" lon="8.94658407047043"><ele>232.0</ele><time>2026-04-27T15:02:01.266Z</time></trkpt><trkpt lat="39.87171410990887" lon="8.946612058930075"><ele>232.0</ele><time>2026-04-27T15:02:02.266Z</time></trkpt><trkpt lat="39.871824903239634" lon="8.94662930963223"><ele>232.6</ele><time>2026-04-27T15:02:03.266Z</time></trkpt><trkpt lat="39.871943942705215" lon="8.946621526718465"><ele>233.2</ele><time>2026-04-27T15:02:04.266Z</time></trkpt><trkpt lat="39.87205892167119" lon="8.94663191509387"><ele>233.8</ele><time>2026-04-27T15:02:05.266Z</time></trkpt><trkpt lat="39.87216844062932" lon="8.946648414447873"><ele>234.4</ele><time>2026-04-27T15:02:06.266Z</time></trkpt><trkpt lat="39.872257706237896" lon="8.946670668017838"><ele>235.0</ele><time>2026-04-27T15:02:07.266Z</time></trkpt><trkpt lat="39.87234491235013" lon="8.946703068377916"><ele>235.6</ele><time>2026-04-27T15:02:08.266Z</time></trkpt><trkpt lat="39.87241368005871" lon="8.946718857206076"><ele>236.2</ele><time>2026-04-27T15:02:09.266Z</time></trkpt><trkpt lat="39.87250820420579" lon="8.946743305277822"><ele>236.8</ele><time>2026-04-27T15:02:11.266Z</time></trkpt><trkpt lat="39.872591405174056" lon="8.94677675877252"><ele>237.4</ele><time>2026-04-27T15:02:13.266Z</time></trkpt><trkpt lat="39.87266921542894" lon="8.94689067233648"><ele>238.0</ele><time>2026-04-27T15:02:15.266Z</time></trkpt><trkpt lat="39.87270496743823" lon="8.946993073992061"><ele>237.99999999999997</ele><time>2026-04-27T15:02:16.266Z</time></trkpt><trkpt lat="39.87274236786411" lon="8.947105094220985"><ele>238.0</ele><time>2026-04-27T15:02:17.266Z</time></trkpt><trkpt lat="39.87277928970091" lon="8.94721157963782"><ele>238.0</ele><time>2026-04-27T15:02:18.266Z</time></trkpt><trkpt lat="39.87281879699238" lon="8.947311073457474"><ele>238.0</ele><time>2026-04-27T15:02:19.266Z</time></trkpt><trkpt lat="39.87285249659132" lon="8.947405235603359"><ele>237.99999999999997</ele><time>2026-04-27T15:02:20.266Z</time></trkpt><trkpt lat="39.872892207157015" lon="8.947505414015213"><ele>238.0</ele><time>2026-04-27T15:02:21.266Z</time></trkpt><trkpt lat="39.87295496145824" lon="8.947606824558385"><ele>238.0</ele><time>2026-04-27T15:02:22.266Z</time></trkpt><trkpt lat="39.873040539553934" lon="8.947690809149776"><ele>238.0</ele><time>2026-04-27T15:02:23.266Z</time></trkpt><trkpt lat="39.873142939160566" lon="8.947742187730782"><ele>238.0</ele><time>2026-04-27T15:02:24.266Z</time></trkpt><trkpt lat="39.87325557952681" lon="8.947761140854205"><ele>238.0</ele><time>2026-04-27T15:02:25.266Z</time></trkpt><trkpt lat="39.873368789862546" lon="8.947764482066018"><ele>238.0</ele><time>2026-04-27T15:02:26.266Z</time></trkpt><trkpt lat="39.8734778639509" lon="8.947789427100851"><ele>238.0</ele><time>2026-04-27T15:02:27.266Z</time></trkpt><trkpt lat="39.873582778897216" lon="8.947800245204581"><ele>238.0</ele><time>2026-04-27T15:02:28.266Z</time></trkpt><trkpt lat="39.873685188296356" lon="8.947764063261532"><ele>238.0</ele><time>2026-04-27T15:02:29.266Z</time></trkpt><trkpt lat="39.87378118611946" lon="8.9476839306068"><ele>238.0</ele><time>2026-04-27T15:02:30.266Z</time></trkpt><trkpt lat="39.87386849734798" lon="8.947568845687224"><ele>238.0</ele><time>2026-04-27T15:02:31.266Z</time></trkpt><trkpt lat="39.87396035282108" lon="8.947447091034727"><ele>238.0</ele><time>2026-04-27T15:02:32.266Z</time></trkpt><trkpt lat="39.87406173702509" lon="8.94732683380042"><ele>238.0</ele><time>2026-04-27T15:02:33.266Z</time></trkpt><trkpt lat="39.8741565390433" lon="8.947211168936606"><ele>238.0</ele><time>2026-04-27T15:02:34.266Z</time></trkpt><trkpt lat="39.8742551617226" lon="8.947100881156274"><ele>237.0</ele><time>2026-04-27T15:02:35.266Z</time></trkpt><trkpt lat="39.87435554861516" lon="8.946984452727804"><ele>236.0</ele><time>2026-04-27T15:02:36.266Z</time></trkpt><trkpt lat="39.87445723810956" lon="8.946864005333317"><ele>235.0</ele><time>2026-04-27T15:02:37.266Z</time></trkpt><trkpt lat="39.87456044560541" lon="8.946748502041943"><ele>234.0</ele><time>2026-04-27T15:02:38.267Z</time></trkpt><trkpt lat="39.87466683205742" lon="8.94661538371459"><ele>234.0</ele><time>2026-04-27T15:02:39.267Z</time></trkpt><trkpt lat="39.87477117818919" lon="8.94647358083177"><ele>234.0</ele><time>2026-04-27T15:02:40.267Z</time></trkpt><trkpt lat="39.87487829813721" lon="8.946327597242647"><ele>234.0</ele><time>2026-04-27T15:02:41.267Z</time></trkpt><trkpt lat="39.87497545523353" lon="8.946172908491075"><ele>234.0</ele><time>2026-04-27T15:02:42.267Z</time></trkpt><trkpt lat="39.87507747997328" lon="8.94600936573127"><ele>234.0</ele><time>2026-04-27T15:02:43.267Z</time></trkpt><trkpt lat="39.87516918089239" lon="8.94584288868013"><ele>234.0</ele><time>2026-04-27T15:02:44.267Z</time></trkpt><trkpt lat="39.875267191603065" lon="8.945681076058266"><ele>234.33333333333331</ele><time>2026-04-27T15:02:45.267Z</time></trkpt><trkpt lat="39.87535124294089" lon="8.94550267948024"><ele>234.66666666666666</ele><time>2026-04-27T15:02:46.267Z</time></trkpt><trkpt lat="39.875425171794845" lon="8.94531399002984"><ele>235.0</ele><time>2026-04-27T15:02:47.267Z</time></trkpt><trkpt lat="39.87549651909061" lon="8.94511770283733"><ele>235.66666666666666</ele><time>2026-04-27T15:02:48.267Z</time></trkpt><trkpt lat="39.87557248662876" lon="8.944919873368345"><ele>236.33333333333331</ele><time>2026-04-27T15:02:49.267Z</time></trkpt><trkpt lat="39.8756528213949" lon="8.944716643273464"><ele>237.0</ele><time>2026-04-27T15:02:50.267Z</time></trkpt><trkpt lat="39.87573625741079" lon="8.944509445403497"><ele>237.0</ele><time>2026-04-27T15:02:51.267Z</time></trkpt><trkpt lat="39.87583164545488" lon="8.944300568669222"><ele>237.0</ele><time>2026-04-27T15:02:52.267Z</time></trkpt><trkpt lat="39.875937702142814" lon="8.944084167571706"><ele>237.0</ele><time>2026-04-27T15:02:53.267Z</time></trkpt><trkpt lat="39.8760515273861" lon="8.943866457593126"><ele>234.66666666666669</ele><time>2026-04-27T15:02:54.267Z</time></trkpt><trkpt lat="39.87617596653197" lon="8.943659122454298"><ele>232.33333333333334</ele><time>2026-04-27T15:02:55.267Z</time></trkpt><trkpt lat="39.87630188821924" lon="8.943446669302789"><ele>230.0</ele><time>2026-04-27T15:02:56.267Z</time></trkpt><trkpt lat="39.87642699901776" lon="8.943230860095241"><ele>228.0</ele><time>2026-04-27T15:02:57.267Z</time></trkpt><trkpt lat="39.876547907643406" lon="8.943011079702375"><ele>226.0</ele><time>2026-04-27T15:02:58.267Z</time></trkpt><trkpt lat="39.8766570165178" lon="8.942778813343862"><ele>224.0</ele><time>2026-04-27T15:02:59.267Z</time></trkpt><trkpt lat="39.876746101561785" lon="8.942533442108033"><ele>221.33333333333334</ele><time>2026-04-27T15:03:00.267Z</time></trkpt><trkpt lat="39.87681540007377" lon="8.942276849260812"><ele>218.66666666666669</ele><time>2026-04-27T15:03:01.267Z</time></trkpt><trkpt lat="39.876871168099925" lon="8.942016794212067"><ele>216.0</ele><time>2026-04-27T15:03:02.267Z</time></trkpt><trkpt lat="39.87692452774556" lon="8.94175548660507"><ele>215.66666666666669</ele><time>2026-04-27T15:03:03.267Z</time></trkpt><trkpt lat="39.876976148931476" lon="8.941496590352557"><ele>215.33333333333334</ele><time>2026-04-27T15:03:04.267Z</time></trkpt><trkpt lat="39.87703327828174" lon="8.94124065843378"><ele>215.0</ele><time>2026-04-27T15:03:05.267Z</time></trkpt><trkpt lat="39.8770937530708" lon="8.940988461350292"><ele>215.0</ele><time>2026-04-27T15:03:06.267Z</time></trkpt><trkpt lat="39.87716213434978" lon="8.940744440788263"><ele>215.0</ele><time>2026-04-27T15:03:07.267Z</time></trkpt><trkpt lat="39.87724883220984" lon="8.940509204112765"><ele>215.0</ele><time>2026-04-27T15:03:08.267Z</time></trkpt><trkpt lat="39.877359737935805" lon="8.940290319381166"><ele>215.0</ele><time>2026-04-27T15:03:09.267Z</time></trkpt><trkpt lat="39.87748917892037" lon="8.94008827531098"><ele>215.0</ele><time>2026-04-27T15:03:10.267Z</time></trkpt><trkpt lat="39.87763918024943" lon="8.939902661118346"><ele>215.0</ele><time>2026-04-27T15:03:11.267Z</time></trkpt><trkpt lat="39.877807171530016" lon="8.939736847957246"><ele>215.33333333333334</ele><time>2026-04-27T15:03:12.267Z</time></trkpt><trkpt lat="39.877986192287004" lon="8.939587708514113"><ele>215.66666666666669</ele><time>2026-04-27T15:03:13.267Z</time></trkpt><trkpt lat="39.87817089987039" lon="8.93943589626492"><ele>216.0</ele><time>2026-04-27T15:03:14.267Z</time></trkpt><trkpt lat="39.87835563734039" lon="8.939277957458081"><ele>216.5</ele><time>2026-04-27T15:03:15.267Z</time></trkpt><trkpt lat="39.87854448171424" lon="8.939117957237361"><ele>217.0</ele><time>2026-04-27T15:03:16.267Z</time></trkpt><trkpt lat="39.87873725780614" lon="8.938956811397995"><ele>217.0</ele><time>2026-04-27T15:03:17.267Z</time></trkpt><trkpt lat="39.87892955279901" lon="8.93879237752161"><ele>217.0</ele><time>2026-04-27T15:03:18.267Z</time></trkpt><trkpt lat="39.87912143209273" lon="8.93863005350577"><ele>216.5</ele><time>2026-04-27T15:03:19.267Z</time></trkpt><trkpt lat="39.879316839561255" lon="8.93846306941973"><ele>216.0</ele><time>2026-04-27T15:03:20.267Z</time></trkpt><trkpt lat="39.87951022360992" lon="8.938294791757956"><ele>216.0</ele><time>2026-04-27T15:03:21.267Z</time></trkpt><trkpt lat="39.87970201412894" lon="8.938128272654629"><ele>216.0</ele><time>2026-04-27T15:03:22.267Z</time></trkpt><trkpt lat="39.87989130276614" lon="8.93796205838657"><ele>216.0</ele><time>2026-04-27T15:03:23.267Z</time></trkpt><trkpt lat="39.88007632142199" lon="8.937802020318832"><ele>216.0</ele><time>2026-04-27T15:03:24.267Z</time></trkpt><trkpt lat="39.880246109784856" lon="8.937617737747997"><ele>216.0</ele><time>2026-04-27T15:03:25.267Z</time></trkpt><trkpt lat="39.88039984650945" lon="8.93740886209203"><ele>217.0</ele><time>2026-04-27T15:03:26.267Z</time></trkpt><trkpt lat="39.88053521899267" lon="8.93717714754856"><ele>218.0</ele><time>2026-04-27T15:03:27.267Z</time></trkpt><trkpt lat="39.88065579110925" lon="8.936925082164278"><ele>219.0</ele><time>2026-04-27T15:03:28.267Z</time></trkpt><trkpt lat="39.880765901359766" lon="8.936660906383677"><ele>220.0</ele><time>2026-04-27T15:03:29.267Z</time></trkpt><trkpt lat="39.880866207467314" lon="8.93639141327591"><ele>219.5</ele><time>2026-04-27T15:03:30.267Z</time></trkpt><trkpt lat="39.880969480520974" lon="8.936124530298232"><ele>219.0</ele><time>2026-04-27T15:03:31.267Z</time></trkpt><trkpt lat="39.88107982728757" lon="8.935858610337881"><ele>218.0</ele><time>2026-04-27T15:03:32.267Z</time></trkpt><trkpt lat="39.881193126050654" lon="8.935602296193814"><ele>217.0</ele><time>2026-04-27T15:03:33.267Z</time></trkpt><trkpt lat="39.88130707742327" lon="8.935348153031693"><ele>217.0</ele><time>2026-04-27T15:03:34.267Z</time></trkpt><trkpt lat="39.88141976696231" lon="8.935093960069079"><ele>217.0</ele><time>2026-04-27T15:03:35.267Z</time></trkpt><trkpt lat="39.88153662124525" lon="8.934849279577666"><ele>217.0</ele><time>2026-04-27T15:03:36.267Z</time></trkpt><trkpt lat="39.881660373644934" lon="8.934616848279417"><ele>217.66666666666666</ele><time>2026-04-27T15:03:37.267Z</time></trkpt><trkpt lat="39.88178212180887" lon="8.934393652143862"><ele>218.33333333333331</ele><time>2026-04-27T15:03:38.267Z</time></trkpt><trkpt lat="39.88190560979748" lon="8.93418821538233"><ele>219.0</ele><time>2026-04-27T15:03:39.267Z</time></trkpt><trkpt lat="39.88205318934109" lon="8.934005248178924"><ele>219.0</ele><time>2026-04-27T15:03:40.267Z</time></trkpt><trkpt lat="39.8822239036838" lon="8.933855909925331"><ele>219.0</ele><time>2026-04-27T15:03:41.267Z</time></trkpt><trkpt lat="39.88240814653457" lon="8.933734628744768"><ele>219.0</ele><time>2026-04-27T15:03:42.267Z</time></trkpt><trkpt lat="39.88260601025837" lon="8.933650499320716"><ele>218.66666666666669</ele><time>2026-04-27T15:03:43.267Z</time></trkpt><trkpt lat="39.882802144324" lon="8.933586128498186"><ele>218.33333333333334</ele><time>2026-04-27T15:03:44.267Z</time></trkpt><trkpt lat="39.88299525027034" lon="8.93352231078304"><ele>218.0</ele><time>2026-04-27T15:03:45.267Z</time></trkpt><trkpt lat="39.88319513487223" lon="8.933478266644043"><ele>218.0</ele><time>2026-04-27T15:03:46.267Z</time></trkpt><trkpt lat="39.883390751434675" lon="8.933474923900702"><ele>218.0</ele><time>2026-04-27T15:03:47.267Z</time></trkpt><trkpt lat="39.88357856713709" lon="8.933517436179125"><ele>218.0</ele><time>2026-04-27T15:03:48.267Z</time></trkpt><trkpt lat="39.88376331418919" lon="8.933610593992872"><ele>218.66666666666669</ele><time>2026-04-27T15:03:49.267Z</time></trkpt><trkpt lat="39.883952051861485" lon="8.933718235503818"><ele>219.33333333333331</ele><time>2026-04-27T15:03:50.267Z</time></trkpt><trkpt lat="39.88414579872517" lon="8.933828180881122"><ele>220.0</ele><time>2026-04-27T15:03:51.268Z</time></trkpt><trkpt lat="39.884332069288654" lon="8.93393352461417"><ele>223.66666666666666</ele><time>2026-04-27T15:03:52.268Z</time></trkpt><trkpt lat="39.88450193475877" lon="8.934030941191528"><ele>227.33333333333331</ele><time>2026-04-27T15:03:53.268Z</time></trkpt><trkpt lat="39.88465835385299" lon="8.934115821159775"><ele>231.0</ele><time>2026-04-27T15:03:54.268Z</time></trkpt><trkpt lat="39.88481322844092" lon="8.934201880862132"><ele>226.0</ele><time>2026-04-27T15:03:55.268Z</time></trkpt><trkpt lat="39.88497270760213" lon="8.93428825111464"><ele>221.0</ele><time>2026-04-27T15:03:56.268Z</time></trkpt><trkpt lat="39.88514313799855" lon="8.93437724875344"><ele>216.0</ele><time>2026-04-27T15:03:57.269Z</time></trkpt><trkpt lat="39.8853230984263" lon="8.934459454615611"><ele>216.0</ele><time>2026-04-27T15:03:58.269Z</time></trkpt><trkpt lat="39.88551015052061" lon="8.934533355203959"><ele>216.0</ele><time>2026-04-27T15:03:59.269Z</time></trkpt><trkpt lat="39.8856990011434" lon="8.934550285229482"><ele>216.0</ele><time>2026-04-27T15:04:00.269Z</time></trkpt><trkpt lat="39.88588845171826" lon="8.934613725749452"><ele>217.0</ele><time>2026-04-27T15:04:01.268Z</time></trkpt><trkpt lat="39.8860739825564" lon="8.934681252538017"><ele>218.0</ele><time>2026-04-27T15:04:02.268Z</time></trkpt><trkpt lat="39.886259904513324" lon="8.934744545729306"><ele>219.0</ele><time>2026-04-27T15:04:03.269Z</time></trkpt><trkpt lat="39.88644583741164" lon="8.93480356563204"><ele>219.0</ele><time>2026-04-27T15:04:04.269Z</time></trkpt><trkpt lat="39.88663386101783" lon="8.934863972446756"><ele>219.0</ele><time>2026-04-27T15:04:05.269Z</time></trkpt><trkpt lat="39.88682015473181" lon="8.934925152791239"><ele>219.0</ele><time>2026-04-27T15:04:06.269Z</time></trkpt><trkpt lat="39.887003443560175" lon="8.934989771384325"><ele>210.0</ele><time>2026-04-27T15:04:07.269Z</time></trkpt><trkpt lat="39.88717261745473" lon="8.935059142486088"><ele>201.0</ele><time>2026-04-27T15:04:08.269Z</time></trkpt><trkpt lat="39.88733155990064" lon="8.935114695166522"><ele>192.0</ele><time>2026-04-27T15:04:09.269Z</time></trkpt><trkpt lat="39.887484191496604" lon="8.935112273308809"><ele>196.66666666666669</ele><time>2026-04-27T15:04:10.269Z</time></trkpt><trkpt lat="39.887619856688666" lon="8.935021858408817"><ele>201.33333333333334</ele><time>2026-04-27T15:04:11.269Z</time></trkpt><trkpt lat="39.887732242163914" lon="8.934880758132142"><ele>206.0</ele><time>2026-04-27T15:04:12.269Z</time></trkpt><trkpt lat="39.88781608800595" lon="8.934696124146711"><ele>206.0</ele><time>2026-04-27T15:04:13.269Z</time></trkpt><trkpt lat="39.88789906288597" lon="8.934509091700106"><ele>206.0</ele><time>2026-04-27T15:04:14.269Z</time></trkpt><trkpt lat="39.8880272301769" lon="8.93436740676069"><ele>206.0</ele><time>2026-04-27T15:04:15.269Z</time></trkpt><trkpt lat="39.88818543382553" lon="8.934284040485217"><ele>206.0</ele><time>2026-04-27T15:04:16.269Z</time></trkpt><trkpt lat="39.88836442984378" lon="8.934248070747682"><ele>206.0</ele><time>2026-04-27T15:04:17.269Z</time></trkpt><trkpt lat="39.88855906236843" lon="8.93424896088732"><ele>206.0</ele><time>2026-04-27T15:04:18.269Z</time></trkpt><trkpt lat="39.88874860407273" lon="8.934249119702052"><ele>205.0</ele><time>2026-04-27T15:04:19.269Z</time></trkpt><trkpt lat="39.888936275399914" lon="8.934236542804067"><ele>204.0</ele><time>2026-04-27T15:04:20.269Z</time></trkpt><trkpt lat="39.88911345024971" lon="8.93423505222447"><ele>203.0</ele><time>2026-04-27T15:04:21.269Z</time></trkpt><trkpt lat="39.889286555009754" lon="8.934282306681455"><ele>207.33333333333334</ele><time>2026-04-27T15:04:22.269Z</time></trkpt><trkpt lat="39.889459575896375" lon="8.934440698100545"><ele>211.66666666666669</ele><time>2026-04-27T15:04:23.269Z</time></trkpt><trkpt lat="39.889601647494125" lon="8.934577711471793"><ele>216.0</ele><time>2026-04-27T15:04:24.269Z</time></trkpt><trkpt lat="39.889709924822604" lon="8.934753428811353"><ele>216.0</ele><time>2026-04-27T15:04:25.269Z</time></trkpt><trkpt lat="39.88979182151866" lon="8.934956112819139"><ele>216.0</ele><time>2026-04-27T15:04:26.269Z</time></trkpt><trkpt lat="39.88984022465631" lon="8.935176220143678"><ele>216.0</ele><time>2026-04-27T15:04:27.269Z</time></trkpt><trkpt lat="39.88986781203345" lon="8.935394770071568"><ele>211.33333333333331</ele><time>2026-04-27T15:04:28.269Z</time></trkpt><trkpt lat="39.88991105254449" lon="8.935598593488024"><ele>206.66666666666666</ele><time>2026-04-27T15:04:29.269Z</time></trkpt><trkpt lat="39.889992069479646" lon="8.935762817761946"><ele>202.0</ele><time>2026-04-27T15:04:30.269Z</time></trkpt><trkpt lat="39.89011470604074" lon="8.9358819403689"><ele>200.66666666666666</ele><time>2026-04-27T15:04:31.269Z</time></trkpt><trkpt lat="39.89026293115183" lon="8.935927081612512"><ele>199.33333333333331</ele><time>2026-04-27T15:04:32.269Z</time></trkpt><trkpt lat="39.89042078046512" lon="8.935895822149332"><ele>198.0</ele><time>2026-04-27T15:04:33.269Z</time></trkpt><trkpt lat="39.89058858840812" lon="8.935791826294414"><ele>198.0</ele><time>2026-04-27T15:04:34.269Z</time></trkpt><trkpt lat="39.890762714760406" lon="8.93564991804581"><ele>198.0</ele><time>2026-04-27T15:04:35.269Z</time></trkpt><trkpt lat="39.89092805519073" lon="8.93551573064976"><ele>198.0</ele><time>2026-04-27T15:04:36.269Z</time></trkpt><trkpt lat="39.891074347982624" lon="8.93536095771466"><ele>192.33333333333334</ele><time>2026-04-27T15:04:37.269Z</time></trkpt><trkpt lat="39.89118367382689" lon="8.935155759011153"><ele>186.66666666666669</ele><time>2026-04-27T15:04:38.269Z</time></trkpt><trkpt lat="39.89126301323414" lon="8.93492345512578"><ele>181.0</ele><time>2026-04-27T15:04:39.269Z</time></trkpt><trkpt lat="39.89135398130934" lon="8.934689208968535"><ele>181.0</ele><time>2026-04-27T15:04:40.269Z</time></trkpt><trkpt lat="39.89147055144968" lon="8.934469520145893"><ele>181.0</ele><time>2026-04-27T15:04:41.269Z</time></trkpt><trkpt lat="39.89156995276715" lon="8.93425978566331"><ele>181.0</ele><time>2026-04-27T15:04:42.269Z</time></trkpt><trkpt lat="39.89167226807096" lon="8.93407064358725"><ele>179.66666666666669</ele><time>2026-04-27T15:04:43.269Z</time></trkpt><trkpt lat="39.89176935694537" lon="8.933889504586084"><ele>178.33333333333334</ele><time>2026-04-27T15:04:44.269Z</time></trkpt><trkpt lat="39.89190492616079" lon="8.933749995779879"><ele>177.0</ele><time>2026-04-27T15:04:45.269Z</time></trkpt><trkpt lat="39.892037670014496" lon="8.933653171312328"><ele>177.0</ele><time>2026-04-27T15:04:46.269Z</time></trkpt><trkpt lat="39.89220899670364" lon="8.933590450395988"><ele>177.0</ele><time>2026-04-27T15:04:47.269Z</time></trkpt><trkpt lat="39.89237589084717" lon="8.933556107528256"><ele>177.0</ele><time>2026-04-27T15:04:48.269Z</time></trkpt><trkpt lat="39.89254236576031" lon="8.933536990104159"><ele>172.66666666666666</ele><time>2026-04-27T15:04:49.269Z</time></trkpt><trkpt lat="39.89271020933303" lon="8.933502181823744"><ele>168.33333333333331</ele><time>2026-04-27T15:04:50.269Z</time></trkpt><trkpt lat="39.892880448510546" lon="8.933454638087158"><ele>164.0</ele><time>2026-04-27T15:04:51.269Z</time></trkpt><trkpt lat="39.89306134864094" lon="8.933411429803039"><ele>168.33333333333331</ele><time>2026-04-27T15:04:52.269Z</time></trkpt><trkpt lat="39.8932363437268" lon="8.933382221204464"><ele>172.66666666666666</ele><time>2026-04-27T15:04:53.269Z</time></trkpt><trkpt lat="39.89341712427615" lon="8.933342125720623"><ele>177.0</ele><time>2026-04-27T15:04:54.269Z</time></trkpt><trkpt lat="39.893605142670175" lon="8.93329989697053"><ele>177.0</ele><time>2026-04-27T15:04:55.269Z</time></trkpt><trkpt lat="39.89379249636434" lon="8.933254736825111"><ele>177.0</ele><time>2026-04-27T15:04:56.269Z</time></trkpt><trkpt lat="39.89397562969005" lon="8.933212089428576"><ele>177.0</ele><time>2026-04-27T15:04:57.269Z</time></trkpt><trkpt lat="39.89415671834609" lon="8.933174281540797"><ele>176.0</ele><time>2026-04-27T15:04:58.269Z</time></trkpt><trkpt lat="39.89433418688291" lon="8.933131028645915"><ele>175.0</ele><time>2026-04-27T15:04:59.269Z</time></trkpt><trkpt lat="39.894509549498196" lon="8.933089914179419"><ele>174.0</ele><time>2026-04-27T15:05:00.269Z</time></trkpt><trkpt lat="39.89468078629379" lon="8.933062540310315"><ele>174.0</ele><time>2026-04-27T15:05:01.269Z</time></trkpt><trkpt lat="39.894861267989654" lon="8.933061955340836"><ele>174.0</ele><time>2026-04-27T15:05:02.269Z</time></trkpt><trkpt lat="39.895038812450785" lon="8.93310025437595"><ele>174.0</ele><time>2026-04-27T15:05:03.269Z</time></trkpt><trkpt lat="39.895211315957475" lon="8.933181058081344"><ele>173.66666666666666</ele><time>2026-04-27T15:05:04.269Z</time></trkpt><trkpt lat="39.89537946705569" lon="8.933285598319834"><ele>173.33333333333331</ele><time>2026-04-27T15:05:05.269Z</time></trkpt><trkpt lat="39.8955428864742" lon="8.933401239514483"><ele>173.0</ele><time>2026-04-27T15:05:06.269Z</time></trkpt><trkpt lat="39.89569523075462" lon="8.933552412078974"><ele>173.0</ele><time>2026-04-27T15:05:07.269Z</time></trkpt><trkpt lat="39.895832412812574" lon="8.93372689079241"><ele>173.0</ele><time>2026-04-27T15:05:08.269Z</time></trkpt><trkpt lat="39.89593638253508" lon="8.933912554335302"><ele>173.0</ele><time>2026-04-27T15:05:09.269Z</time></trkpt><trkpt lat="39.89601828307107" lon="8.934083768339653"><ele>169.4</ele><time>2026-04-27T15:05:10.269Z</time></trkpt><trkpt lat="39.896082329657155" lon="8.934218622902502"><ele>165.8</ele><time>2026-04-27T15:05:11.269Z</time></trkpt><trkpt lat="39.896140831955805" lon="8.934309127339642"><ele>162.2</ele><time>2026-04-27T15:05:12.27Z</time></trkpt><trkpt lat="39.896220748149695" lon="8.934332075207843"><ele>158.6</ele><time>2026-04-27T15:05:13.27Z</time></trkpt><trkpt lat="39.89630505521762" lon="8.934306327308116"><ele>155.0</ele><time>2026-04-27T15:05:14.27Z</time></trkpt><trkpt lat="39.89637246852324" lon="8.934209463447372"><ele>153.2</ele><time>2026-04-27T15:05:15.27Z</time></trkpt><trkpt lat="39.89640597675414" lon="8.934094535962334"><ele>151.4</ele><time>2026-04-27T15:05:16.27Z</time></trkpt><trkpt lat="39.89638212331506" lon="8.933958993866858"><ele>149.6</ele><time>2026-04-27T15:05:17.27Z</time></trkpt><trkpt lat="39.89630623954468" lon="8.933833085845453"><ele>147.8</ele><time>2026-04-27T15:05:18.27Z</time></trkpt><trkpt lat="39.896220179470056" lon="8.933715885247596"><ele>146.0</ele><time>2026-04-27T15:05:19.27Z</time></trkpt><trkpt lat="39.89612740760052" lon="8.9335899436832"><ele>146.0</ele><time>2026-04-27T15:05:20.27Z</time></trkpt><trkpt lat="39.896024108425" lon="8.933450051074018"><ele>146.0</ele><time>2026-04-27T15:05:21.27Z</time></trkpt><trkpt lat="39.895923385394354" lon="8.933283638091169"><ele>146.0</ele><time>2026-04-27T15:05:22.27Z</time></trkpt><trkpt lat="39.89582912260382" lon="8.93311186786273"><ele>150.33333333333331</ele><time>2026-04-27T15:05:23.27Z</time></trkpt><trkpt lat="39.89572468598829" lon="8.932946518078838"><ele>154.66666666666666</ele><time>2026-04-27T15:05:24.27Z</time></trkpt><trkpt lat="39.89563042111604" lon="8.932777485487662"><ele>159.0</ele><time>2026-04-27T15:05:25.27Z</time></trkpt><trkpt lat="39.895536093141345" lon="8.932610979012761"><ele>152.33333333333334</ele><time>2026-04-27T15:05:26.27Z</time></trkpt><trkpt lat="39.89543612531039" lon="8.932444756164875"><ele>145.66666666666669</ele><time>2026-04-27T15:05:27.27Z</time></trkpt><trkpt lat="39.89532656605543" lon="8.932298943923135"><ele>139.0</ele><time>2026-04-27T15:05:28.27Z</time></trkpt><trkpt lat="39.895191057678005" lon="8.932190975330787"><ele>144.33333333333334</ele><time>2026-04-27T15:05:29.27Z</time></trkpt><trkpt lat="39.895026457824436" lon="8.932131957590922"><ele>149.66666666666666</ele><time>2026-04-27T15:05:30.27Z</time></trkpt><trkpt lat="39.89485157554512" lon="8.932117802458919"><ele>155.0</ele><time>2026-04-27T15:05:31.27Z</time></trkpt><trkpt lat="39.89467942021242" lon="8.932118085212426"><ele>155.0</ele><time>2026-04-27T15:05:32.27Z</time></trkpt><trkpt lat="39.89450236801144" lon="8.93209682348601"><ele>155.0</ele><time>2026-04-27T15:05:33.27Z</time></trkpt><trkpt lat="39.89432601317746" lon="8.932063259652905"><ele>155.0</ele><time>2026-04-27T15:05:34.27Z</time></trkpt><trkpt lat="39.89415024657519" lon="8.932038080073436"><ele>155.66666666666666</ele><time>2026-04-27T15:05:35.27Z</time></trkpt><trkpt lat="39.89398021689703" lon="8.932002766048248"><ele>156.33333333333334</ele><time>2026-04-27T15:05:36.27Z</time></trkpt><trkpt lat="39.89382438938563" lon="8.931919207565242"><ele>157.0</ele><time>2026-04-27T15:05:37.27Z</time></trkpt><trkpt lat="39.893673952664244" lon="8.931810504747686"><ele>153.33333333333334</ele><time>2026-04-27T15:05:38.27Z</time></trkpt><trkpt lat="39.893541018769334" lon="8.931653377412408"><ele>149.66666666666666</ele><time>2026-04-27T15:05:39.27Z</time></trkpt><trkpt lat="39.89342529142268" lon="8.931485791794254"><ele>146.0</ele><time>2026-04-27T15:05:40.27Z</time></trkpt><trkpt lat="39.893308411234386" lon="8.931310274051521"><ele>146.0</ele><time>2026-04-27T15:05:41.27Z</time></trkpt><trkpt lat="39.8931853102731" lon="8.931142739803843"><ele>146.0</ele><time>2026-04-27T15:05:42.27Z</time></trkpt><trkpt lat="39.89305641647904" lon="8.930980532643485"><ele>146.0</ele><time>2026-04-27T15:05:43.27Z</time></trkpt><trkpt lat="39.89293425094113" lon="8.93081825398243"><ele>140.5</ele><time>2026-04-27T15:05:44.27Z</time></trkpt><trkpt lat="39.89281902766365" lon="8.930670532987318"><ele>135.0</ele><time>2026-04-27T15:05:45.27Z</time></trkpt><trkpt lat="39.892725068793936" lon="8.930537080310769"><ele>129.5</ele><time>2026-04-27T15:05:46.27Z</time></trkpt><trkpt lat="39.8926758101463" lon="8.930426940638416"><ele>124.0</ele><time>2026-04-27T15:05:47.27Z</time></trkpt><trkpt lat="39.892680143408036" lon="8.9303254795644"><ele>124.0</ele><time>2026-04-27T15:05:48.27Z</time></trkpt><trkpt lat="39.892736979974664" lon="8.930213475524727"><ele>124.0</ele><time>2026-04-27T15:05:49.27Z</time></trkpt><trkpt lat="39.892831743585646" lon="8.930157655796043"><ele>124.0</ele><time>2026-04-27T15:05:50.27Z</time></trkpt><trkpt lat="39.89294192698867" lon="8.930207846054362"><ele>124.0</ele><time>2026-04-27T15:05:51.27Z</time></trkpt><trkpt lat="39.893025753597186" lon="8.930349942535418"><ele>124.0</ele><time>2026-04-27T15:05:52.27Z</time></trkpt><trkpt lat="39.893082790464724" lon="8.930512893455937"><ele>124.0</ele><time>2026-04-27T15:05:53.27Z</time></trkpt><trkpt lat="39.89313377088772" lon="8.930696144742015"><ele>124.0</ele><time>2026-04-27T15:05:54.27Z</time></trkpt><trkpt lat="39.89320329200822" lon="8.930837117097076"><ele>124.0</ele><time>2026-04-27T15:05:55.27Z</time></trkpt><trkpt lat="39.8932984754177" lon="8.930957476469553"><ele>126.0</ele><time>2026-04-27T15:05:56.27Z</time></trkpt><trkpt lat="39.893414557793285" lon="8.931041262334658"><ele>128.0</ele><time>2026-04-27T15:05:57.27Z</time></trkpt><trkpt lat="39.89354984980243" lon="8.93112389058857"><ele>130.0</ele><time>2026-04-27T15:05:58.27Z</time></trkpt><trkpt lat="39.8937154417992" lon="8.931209066940548"><ele>130.0</ele><time>2026-04-27T15:05:59.27Z</time></trkpt><trkpt lat="39.89387874873255" lon="8.931296823679622"><ele>130.0</ele><time>2026-04-27T15:06:00.27Z</time></trkpt><trkpt lat="39.894030139633806" lon="8.93136934347968"><ele>130.0</ele><time>2026-04-27T15:06:01.27Z</time></trkpt><trkpt lat="39.89417713507389" lon="8.931408924877045"><ele>129.33333333333334</ele><time>2026-04-27T15:06:02.27Z</time></trkpt><trkpt lat="39.89434194695366" lon="8.931371607013599"><ele>128.66666666666666</ele><time>2026-04-27T15:06:03.272Z</time></trkpt><trkpt lat="39.89450998442566" lon="8.931323840437809"><ele>128.0</ele><time>2026-04-27T15:06:04.271Z</time></trkpt><trkpt lat="39.894676838480706" lon="8.931281926137077"><ele>128.0</ele><time>2026-04-27T15:06:05.271Z</time></trkpt><trkpt lat="39.894844541649064" lon="8.931274406835216"><ele>128.0</ele><time>2026-04-27T15:06:06.272Z</time></trkpt><trkpt lat="39.895014902840934" lon="8.93130755798402"><ele>128.0</ele><time>2026-04-27T15:06:07.272Z</time></trkpt><trkpt lat="39.89517653579522" lon="8.93138152628709"><ele>123.0</ele><time>2026-04-27T15:06:08.272Z</time></trkpt><trkpt lat="39.895348456706564" lon="8.931477777885428"><ele>118.0</ele><time>2026-04-27T15:06:09.272Z</time></trkpt><trkpt lat="39.89551843491163" lon="8.931561691304184"><ele>113.0</ele><time>2026-04-27T15:06:10.271Z</time></trkpt><trkpt lat="39.89569254304191" lon="8.931641423353007"><ele>113.0</ele><time>2026-04-27T15:06:11.271Z</time></trkpt><trkpt lat="39.89587117298165" lon="8.931716675096999"><ele>113.0</ele><time>2026-04-27T15:06:12.272Z</time></trkpt><trkpt lat="39.896051889808014" lon="8.931787235202401"><ele>113.0</ele><time>2026-04-27T15:06:13.272Z</time></trkpt><trkpt lat="39.8962387842832" lon="8.931825159574863"><ele>112.0</ele><time>2026-04-27T15:06:14.272Z</time></trkpt><trkpt lat="39.89642843365857" lon="8.931809220552232"><ele>111.0</ele><time>2026-04-27T15:06:15.272Z</time></trkpt><trkpt lat="39.896616275672145" lon="8.93177506578784"><ele>110.0</ele><time>2026-04-27T15:06:16.271Z</time></trkpt><trkpt lat="39.89679181418204" lon="8.931749269020083"><ele>110.0</ele><time>2026-04-27T15:06:17.271Z</time></trkpt><trkpt lat="39.89696121857812" lon="8.931730610308664"><ele>110.0</ele><time>2026-04-27T15:06:18.271Z</time></trkpt><trkpt lat="39.89711006333665" lon="8.931723940181582"><ele>110.0</ele><time>2026-04-27T15:06:19.271Z</time></trkpt><trkpt lat="39.89723706798448" lon="8.931746715311505"><ele>110.0</ele><time>2026-04-27T15:06:20.271Z</time></trkpt><trkpt lat="39.89732582260656" lon="8.9318461546345"><ele>110.0</ele><time>2026-04-27T15:06:21.271Z</time></trkpt><trkpt lat="39.89738630144672" lon="8.93200385830653"><ele>110.0</ele><time>2026-04-27T15:06:22.271Z</time></trkpt><trkpt lat="39.897425625080345" lon="8.932192812649154"><ele>110.0</ele><time>2026-04-27T15:06:23.271Z</time></trkpt><trkpt lat="39.89747818884099" lon="8.932340992747521"><ele>110.0</ele><time>2026-04-27T15:06:24.271Z</time></trkpt><trkpt lat="39.89758315981016" lon="8.93242116817046"><ele>114.0</ele><time>2026-04-27T15:06:25.271Z</time></trkpt><trkpt lat="39.89773345327373" lon="8.932429957316762"><ele>118.0</ele><time>2026-04-27T15:06:26.271Z</time></trkpt><trkpt lat="39.89788838849775" lon="8.93239221410741"><ele>122.0</ele><time>2026-04-27T15:06:27.272Z</time></trkpt><trkpt lat="39.898034259555075" lon="8.932364371747848"><ele>122.0</ele><time>2026-04-27T15:06:28.272Z</time></trkpt><trkpt lat="39.898136040633766" lon="8.932306046572393"><ele>122.0</ele><time>2026-04-27T15:06:29.272Z</time></trkpt><trkpt lat="39.89818505547604" lon="8.932157707404016"><ele>122.0</ele><time>2026-04-27T15:06:30.272Z</time></trkpt><trkpt lat="39.89818825971538" lon="8.93196534899522"><ele>122.0</ele><time>2026-04-27T15:06:31.272Z</time></trkpt><trkpt lat="39.89817215740575" lon="8.931779217356397"><ele>121.33333333333333</ele><time>2026-04-27T15:06:32.272Z</time></trkpt><trkpt lat="39.898121118240866" lon="8.931585661680613"><ele>120.66666666666666</ele><time>2026-04-27T15:06:33.272Z</time></trkpt><trkpt lat="39.898049384310205" lon="8.931409224178847"><ele>120.0</ele><time>2026-04-27T15:06:34.272Z</time></trkpt><trkpt lat="39.897969126985934" lon="8.931233472659473"><ele>120.0</ele><time>2026-04-27T15:06:35.272Z</time></trkpt><trkpt lat="39.89790321019602" lon="8.93106667841912"><ele>120.0</ele><time>2026-04-27T15:06:36.272Z</time></trkpt><trkpt lat="39.89785955410401" lon="8.93089276608226"><ele>120.0</ele><time>2026-04-27T15:06:37.272Z</time></trkpt><trkpt lat="39.89786768592798" lon="8.930709227168592"><ele>120.0</ele><time>2026-04-27T15:06:38.272Z</time></trkpt><trkpt lat="39.8979241889994" lon="8.930532730656896"><ele>121.0</ele><time>2026-04-27T15:06:39.272Z</time></trkpt><trkpt lat="39.897996337443594" lon="8.930381104599492"><ele>122.0</ele><time>2026-04-27T15:06:40.272Z</time></trkpt><trkpt lat="39.89807755375664" lon="8.930304337444973"><ele>123.0</ele><time>2026-04-27T15:06:41.272Z</time></trkpt><trkpt lat="39.89816627261677" lon="8.930312225093745"><ele>124.0</ele><time>2026-04-27T15:06:42.272Z</time></trkpt><trkpt lat="39.898234879065086" lon="8.9303866694879"><ele>125.0</ele><time>2026-04-27T15:06:43.272Z</time></trkpt><trkpt lat="39.89826389279071" lon="8.930521651210592"><ele>125.0</ele><time>2026-04-27T15:06:44.272Z</time></trkpt><trkpt lat="39.89823635017172" lon="8.930669963637808"><ele>125.0</ele><time>2026-04-27T15:06:45.272Z</time></trkpt><trkpt lat="39.89818140276734" lon="8.930803897541887"><ele>125.0</ele><time>2026-04-27T15:06:46.272Z</time></trkpt><trkpt lat="39.898150795960234" lon="8.930944728479671"><ele>125.0</ele><time>2026-04-27T15:06:47.272Z</time></trkpt><trkpt lat="39.898180340325965" lon="8.931072819375892"><ele>125.0</ele><time>2026-04-27T15:06:48.272Z</time></trkpt><trkpt lat="39.89825968867179" lon="8.93118743249182"><ele>123.75</ele><time>2026-04-27T15:06:49.272Z</time></trkpt><trkpt lat="39.8983647998544" lon="8.931289482413089"><ele>122.5</ele><time>2026-04-27T15:06:50.272Z</time></trkpt><trkpt lat="39.898452443633055" lon="8.931429333954066"><ele>121.25</ele><time>2026-04-27T15:06:51.272Z</time></trkpt><trkpt lat="39.89850131182015" lon="8.931595929763331"><ele>120.0</ele><time>2026-04-27T15:06:52.272Z</time></trkpt><trkpt lat="39.898504165460366" lon="8.931777015979746"><ele>131.5</ele><time>2026-04-27T15:06:53.272Z</time></trkpt><trkpt lat="39.89845286829415" lon="8.931950241666598"><ele>143.0</ele><time>2026-04-27T15:06:54.272Z</time></trkpt><trkpt lat="39.898426933168025" lon="8.932134711190974"><ele>154.5</ele><time>2026-04-27T15:06:55.272Z</time></trkpt><trkpt lat="39.89843384183791" lon="8.932339583175194"><ele>166.0</ele><time>2026-04-27T15:06:56.272Z</time></trkpt><trkpt lat="39.898466822327535" lon="8.932551134161098"><ele>167.0</ele><time>2026-04-27T15:06:57.272Z</time></trkpt><trkpt lat="39.89849018636257" lon="8.932773721586182"><ele>168.0</ele><time>2026-04-27T15:06:58.272Z</time></trkpt><trkpt lat="39.89850038960012" lon="8.933007430169395"><ele>169.0</ele><time>2026-04-27T15:06:59.272Z</time></trkpt><trkpt lat="39.898495096436186" lon="8.933244559432817"><ele>164.0</ele><time>2026-04-27T15:07:00.272Z</time></trkpt><trkpt lat="39.898505310551776" lon="8.933473201045393"><ele>159.0</ele><time>2026-04-27T15:07:01.272Z</time></trkpt><trkpt lat="39.89853376448257" lon="8.933693187219607"><ele>154.0</ele><time>2026-04-27T15:07:02.272Z</time></trkpt><trkpt lat="39.8985576889393" lon="8.933885348238771"><ele>154.0</ele><time>2026-04-27T15:07:03.272Z</time></trkpt><trkpt lat="39.898578734014926" lon="8.934024880117523"><ele>154.0</ele><time>2026-04-27T15:07:04.272Z</time></trkpt><trkpt lat="39.89863534084046" lon="8.934115435115636"><ele>154.0</ele><time>2026-04-27T15:07:05.272Z</time></trkpt><trkpt lat="39.89871537934539" lon="8.93413809870502"><ele>154.0</ele><time>2026-04-27T15:07:06.272Z</time></trkpt><trkpt lat="39.898783127439984" lon="8.934086470407877"><ele>154.0</ele><time>2026-04-27T15:07:07.272Z</time></trkpt><trkpt lat="39.898811741962376" lon="8.93398526613756"><ele>154.0</ele><time>2026-04-27T15:07:08.272Z</time></trkpt><trkpt lat="39.898787603009296" lon="8.933847820521192"><ele>154.0</ele><time>2026-04-27T15:07:09.272Z</time></trkpt><trkpt lat="39.89873016830141" lon="8.93370693101567"><ele>154.0</ele><time>2026-04-27T15:07:10.272Z</time></trkpt><trkpt lat="39.89870039881317" lon="8.933529050414545"><ele>154.0</ele><time>2026-04-27T15:07:11.272Z</time></trkpt><trkpt lat="39.89870374781189" lon="8.933340638433696"><ele>154.0</ele><time>2026-04-27T15:07:12.272Z</time></trkpt><trkpt lat="39.89872563542121" lon="8.933147873478443"><ele>157.0</ele><time>2026-04-27T15:07:13.272Z</time></trkpt><trkpt lat="39.898752465872235" lon="8.932965455775173"><ele>160.0</ele><time>2026-04-27T15:07:14.272Z</time></trkpt><trkpt lat="39.89876950773835" lon="8.932789572744634"><ele>163.0</ele><time>2026-04-27T15:07:15.272Z</time></trkpt><trkpt lat="39.89878776451479" lon="8.932610297945732"><ele>166.0</ele><time>2026-04-27T15:07:16.272Z</time></trkpt><trkpt lat="39.898811467991216" lon="8.932437967780665"><ele>166.0</ele><time>2026-04-27T15:07:17.272Z</time></trkpt><trkpt lat="39.89885209010848" lon="8.93227234916816"><ele>166.0</ele><time>2026-04-27T15:07:18.272Z</time></trkpt><trkpt lat="39.898924556693366" lon="8.932125703470243"><ele>166.0</ele><time>2026-04-27T15:07:19.272Z</time></trkpt><trkpt lat="39.89901427204921" lon="8.931995956112948"><ele>166.0</ele><time>2026-04-27T15:07:20.272Z</time></trkpt><trkpt lat="39.899101491096985" lon="8.931880135006809"><ele>166.0</ele><time>2026-04-27T15:07:21.272Z</time></trkpt><trkpt lat="39.89918653611445" lon="8.931806172870186"><ele>166.0</ele><time>2026-04-27T15:07:22.272Z</time></trkpt><trkpt lat="39.8992747063729" lon="8.931803856745612"><ele>166.0</ele><time>2026-04-27T15:07:23.272Z</time></trkpt><trkpt lat="39.89933722083345" lon="8.931868239917502"><ele>166.0</ele><time>2026-04-27T15:07:24.272Z</time></trkpt><trkpt lat="39.8993556430381" lon="8.9319722579287"><ele>166.0</ele><time>2026-04-27T15:07:25.272Z</time></trkpt><trkpt lat="39.899314179822525" lon="8.932075046197216"><ele>166.0</ele><time>2026-04-27T15:07:26.272Z</time></trkpt><trkpt lat="39.89922551350186" lon="8.932153156891646"><ele>166.0</ele><time>2026-04-27T15:07:27.272Z</time></trkpt><trkpt lat="39.89913415903717" lon="8.932229880910445"><ele>166.0</ele><time>2026-04-27T15:07:28.272Z</time></trkpt><trkpt lat="39.89904766480124" lon="8.932336449834963"><ele>166.0</ele><time>2026-04-27T15:07:29.272Z</time></trkpt><trkpt lat="39.89898356578525" lon="8.93247798498884"><ele>166.0</ele><time>2026-04-27T15:07:30.272Z</time></trkpt><trkpt lat="39.89896951718668" lon="8.9326536481599"><ele>166.75</ele><time>2026-04-27T15:07:31.272Z</time></trkpt><trkpt lat="39.89898008072339" lon="8.932818193693677"><ele>167.5</ele><time>2026-04-27T15:07:32.272Z</time></trkpt><trkpt lat="39.89899271285584" lon="8.932990249642888"><ele>168.25</ele><time>2026-04-27T15:07:33.272Z</time></trkpt><trkpt lat="39.899002472935905" lon="8.93316994609739"><ele>169.0</ele><time>2026-04-27T15:07:34.272Z</time></trkpt><trkpt lat="39.89900949036341" lon="8.93335514176404"><ele>165.25</ele><time>2026-04-27T15:07:35.272Z</time></trkpt><trkpt lat="39.899029835966985" lon="8.933539020445947"><ele>161.5</ele><time>2026-04-27T15:07:36.272Z</time></trkpt><trkpt lat="39.89907717567314" lon="8.933697661838321"><ele>157.75</ele><time>2026-04-27T15:07:37.272Z</time></trkpt><trkpt lat="39.899146146350766" lon="8.93381814271844"><ele>154.0</ele><time>2026-04-27T15:07:38.272Z</time></trkpt><trkpt lat="39.89924465212088" lon="8.9338741960377"><ele>154.25</ele><time>2026-04-27T15:07:39.272Z</time></trkpt><trkpt lat="39.89935893835503" lon="8.933856255965875"><ele>154.5</ele><time>2026-04-27T15:07:40.273Z</time></trkpt><trkpt lat="39.89947408777484" lon="8.933789768204695"><ele>154.75</ele><time>2026-04-27T15:07:41.273Z</time></trkpt><trkpt lat="39.89960233460075" lon="8.933713434480701"><ele>155.0</ele><time>2026-04-27T15:07:42.273Z</time></trkpt><trkpt lat="39.89972471056687" lon="8.93365426881316"><ele>155.0</ele><time>2026-04-27T15:07:43.273Z</time></trkpt><trkpt lat="39.8998311523437" lon="8.933594088833482"><ele>155.0</ele><time>2026-04-27T15:07:44.273Z</time></trkpt><trkpt lat="39.89989887361177" lon="8.933490012180956"><ele>155.0</ele><time>2026-04-27T15:07:45.273Z</time></trkpt><trkpt lat="39.89991698199248" lon="8.933350372982394"><ele>155.0</ele><time>2026-04-27T15:07:46.273Z</time></trkpt><trkpt lat="39.899894810845204" lon="8.933189052909496"><ele>160.0</ele><time>2026-04-27T15:07:47.273Z</time></trkpt><trkpt lat="39.899867262829574" lon="8.933022614354561"><ele>165.0</ele><time>2026-04-27T15:07:48.273Z</time></trkpt><trkpt lat="39.89988496277635" lon="8.932858444667879"><ele>170.0</ele><time>2026-04-27T15:07:49.273Z</time></trkpt><trkpt lat="39.89996280946906" lon="8.932721759447006"><ele>175.0</ele><time>2026-04-27T15:07:50.273Z</time></trkpt><trkpt lat="39.900076001872776" lon="8.932636696421124"><ele>172.0</ele><time>2026-04-27T15:07:51.273Z</time></trkpt><trkpt lat="39.900208496036214" lon="8.93259466634186"><ele>169.0</ele><time>2026-04-27T15:07:52.273Z</time></trkpt><trkpt lat="39.900350200978174" lon="8.932551810444618"><ele>166.0</ele><time>2026-04-27T15:07:53.273Z</time></trkpt><trkpt lat="39.90049378003851" lon="8.932504938903636"><ele>163.0</ele><time>2026-04-27T15:07:54.273Z</time></trkpt><trkpt lat="39.90064405957298" lon="8.932483564529097"><ele>170.25</ele><time>2026-04-27T15:07:55.273Z</time></trkpt><trkpt lat="39.90079161228841" lon="8.932474742173124"><ele>177.5</ele><time>2026-04-27T15:07:56.273Z</time></trkpt><trkpt lat="39.9009381406145" lon="8.932480385222282"><ele>184.75</ele><time>2026-04-27T15:07:57.273Z</time></trkpt><trkpt lat="39.9010822615574" lon="8.932505208696979"><ele>192.0</ele><time>2026-04-27T15:07:58.273Z</time></trkpt><trkpt lat="39.90122623426565" lon="8.932526640434014"><ele>192.0</ele><time>2026-04-27T15:07:59.273Z</time></trkpt><trkpt lat="39.90136831376606" lon="8.932536727393382"><ele>192.0</ele><time>2026-04-27T15:08:00.273Z</time></trkpt><trkpt lat="39.90151038046216" lon="8.932522903315608"><ele>192.0</ele><time>2026-04-27T15:08:01.273Z</time></trkpt><trkpt lat="39.90165329749009" lon="8.93246762880886"><ele>192.0</ele><time>2026-04-27T15:08:02.273Z</time></trkpt><trkpt lat="39.90178411970218" lon="8.932364617556699"><ele>188.0</ele><time>2026-04-27T15:08:03.273Z</time></trkpt><trkpt lat="39.90190701466023" lon="8.932232878004063"><ele>184.0</ele><time>2026-04-27T15:08:04.273Z</time></trkpt><trkpt lat="39.902018035870626" lon="8.932077632060947"><ele>180.0</ele><time>2026-04-27T15:08:05.273Z</time></trkpt><trkpt lat="39.902127503344545" lon="8.931909874801828"><ele>180.0</ele><time>2026-04-27T15:08:06.273Z</time></trkpt><trkpt lat="39.902242058416896" lon="8.931745503840377"><ele>180.0</ele><time>2026-04-27T15:08:07.273Z</time></trkpt><trkpt lat="39.90236707765965" lon="8.931581925838172"><ele>180.0</ele><time>2026-04-27T15:08:08.273Z</time></trkpt><trkpt lat="39.902500937020484" lon="8.931429467029684"><ele>186.0</ele><time>2026-04-27T15:08:09.275Z</time></trkpt><trkpt lat="39.90264281861346" lon="8.931282564167793"><ele>192.0</ele><time>2026-04-27T15:08:10.275Z</time></trkpt><trkpt lat="39.90279105651723" lon="8.931150435145678"><ele>198.0</ele><time>2026-04-27T15:08:11.275Z</time></trkpt><trkpt lat="39.90293773247736" lon="8.931031949528474"><ele>198.0</ele><time>2026-04-27T15:08:12.275Z</time></trkpt><trkpt lat="39.90308547555057" lon="8.930927134144309"><ele>198.0</ele><time>2026-04-27T15:08:13.275Z</time></trkpt><trkpt lat="39.90322898154534" lon="8.930834140082856"><ele>198.0</ele><time>2026-04-27T15:08:14.275Z</time></trkpt><trkpt lat="39.903337742736156" lon="8.93070600714226"><ele>202.66666666666669</ele><time>2026-04-27T15:08:15.274Z</time></trkpt><trkpt lat="39.9034238388275" lon="8.930533802394086"><ele>207.33333333333334</ele><time>2026-04-27T15:08:16.274Z</time></trkpt><trkpt lat="39.90350115027911" lon="8.930350804907558"><ele>212.0</ele><time>2026-04-27T15:08:17.274Z</time></trkpt><trkpt lat="39.903586671808625" lon="8.930185373085282"><ele>212.0</ele><time>2026-04-27T15:08:18.275Z</time></trkpt><trkpt lat="39.903704210726964" lon="8.930072908104206"><ele>212.0</ele><time>2026-04-27T15:08:19.274Z</time></trkpt><trkpt lat="39.9038466800522" lon="8.93000806107192"><ele>212.0</ele><time>2026-04-27T15:08:20.274Z</time></trkpt><trkpt lat="39.90400184836702" lon="8.929972107134649"><ele>216.33333333333334</ele><time>2026-04-27T15:08:21.275Z</time></trkpt><trkpt lat="39.904167809948675" lon="8.929960217979007"><ele>220.66666666666669</ele><time>2026-04-27T15:08:22.275Z</time></trkpt><trkpt lat="39.904333085286176" lon="8.929962449743659"><ele>225.0</ele><time>2026-04-27T15:08:23.275Z</time></trkpt><trkpt lat="39.90449090808292" lon="8.929994934842702"><ele>225.66666666666669</ele><time>2026-04-27T15:08:24.275Z</time></trkpt><trkpt lat="39.90464488093382" lon="8.930058874284244"><ele>226.33333333333334</ele><time>2026-04-27T15:08:25.275Z</time></trkpt><trkpt lat="39.90476544472693" lon="8.930175558473005"><ele>227.0</ele><time>2026-04-27T15:08:26.275Z</time></trkpt><trkpt lat="39.904868126068045" lon="8.930301289455633"><ele>227.0</ele><time>2026-04-27T15:08:27.275Z</time></trkpt><trkpt lat="39.90496834429164" lon="8.930379802837738"><ele>227.0</ele><time>2026-04-27T15:08:28.275Z</time></trkpt><trkpt lat="39.905061868741186" lon="8.930404102037532"><ele>227.0</ele><time>2026-04-27T15:08:29.275Z</time></trkpt><trkpt lat="39.905143446225374" lon="8.930357879881054"><ele>227.0</ele><time>2026-04-27T15:08:30.275Z</time></trkpt><trkpt lat="39.90519825577465" lon="8.930261656254858"><ele>227.0</ele><time>2026-04-27T15:08:31.275Z</time></trkpt><trkpt lat="39.905210531996104" lon="8.930130420656035"><ele>229.25</ele><time>2026-04-27T15:08:32.275Z</time></trkpt><trkpt lat="39.90515871559158" lon="8.929998955570076"><ele>231.5</ele><time>2026-04-27T15:08:33.275Z</time></trkpt><trkpt lat="39.9050584503465" lon="8.929894659082267"><ele>233.75</ele><time>2026-04-27T15:08:34.275Z</time></trkpt><trkpt lat="39.90493146960456" lon="8.92983514417912"><ele>236.0</ele><time>2026-04-27T15:08:35.275Z</time></trkpt><trkpt lat="39.904777483965724" lon="8.929822980124637"><ele>236.0</ele><time>2026-04-27T15:08:36.275Z</time></trkpt><trkpt lat="39.904639146194704" lon="8.929756198419398"><ele>236.0</ele><time>2026-04-27T15:08:37.275Z</time></trkpt><trkpt lat="39.904489858006876" lon="8.929690806650333"><ele>236.0</ele><time>2026-04-27T15:08:38.275Z</time></trkpt><trkpt lat="39.904342275860074" lon="8.92961187769095"><ele>232.33333333333334</ele><time>2026-04-27T15:08:39.275Z</time></trkpt><trkpt lat="39.90419379483456" lon="8.929533446885728"><ele>228.66666666666669</ele><time>2026-04-27T15:08:40.275Z</time></trkpt><trkpt lat="39.90404285200586" lon="8.929469178047968"><ele>225.0</ele><time>2026-04-27T15:08:41.275Z</time></trkpt><trkpt lat="39.90388879256371" lon="8.929437069509886"><ele>225.0</ele><time>2026-04-27T15:08:42.275Z</time></trkpt><trkpt lat="39.903742207206925" lon="8.92944671584835"><ele>225.0</ele><time>2026-04-27T15:08:43.275Z</time></trkpt><trkpt lat="39.90362016071001" lon="8.929467323810522"><ele>225.0</ele><time>2026-04-27T15:08:44.275Z</time></trkpt><trkpt lat="39.90352906893264" lon="8.929431953667729"><ele>225.0</ele><time>2026-04-27T15:08:45.275Z</time></trkpt><trkpt lat="39.90346856803619" lon="8.929334210403667"><ele>228.2</ele><time>2026-04-27T15:08:46.275Z</time></trkpt><trkpt lat="39.90345968960986" lon="8.929207917457731"><ele>231.4</ele><time>2026-04-27T15:08:47.275Z</time></trkpt><trkpt lat="39.90350595175345" lon="8.92909422064692"><ele>234.60000000000002</ele><time>2026-04-27T15:08:48.275Z</time></trkpt><trkpt lat="39.90359598744354" lon="8.929039945395491"><ele>237.8</ele><time>2026-04-27T15:08:49.275Z</time></trkpt><trkpt lat="39.9037015133421" lon="8.92905516416487"><ele>241.0</ele><time>2026-04-27T15:08:50.275Z</time></trkpt><trkpt lat="39.90381958780961" lon="8.929087093509438"><ele>241.0</ele><time>2026-04-27T15:08:51.275Z</time></trkpt><trkpt lat="39.903947355602874" lon="8.929113060012545"><ele>241.0</ele><time>2026-04-27T15:08:52.275Z</time></trkpt><trkpt lat="39.904077521509215" lon="8.929128941628449"><ele>241.0</ele><time>2026-04-27T15:08:53.275Z</time></trkpt><trkpt lat="39.904220267455415" lon="8.929144477005979"><ele>241.0</ele><time>2026-04-27T15:08:54.275Z</time></trkpt><trkpt lat="39.90436637166711" lon="8.929163324838306"><ele>242.66666666666666</ele><time>2026-04-27T15:08:55.275Z</time></trkpt><trkpt lat="39.904515341223345" lon="8.929183349655265"><ele>244.33333333333331</ele><time>2026-04-27T15:08:56.275Z</time></trkpt><trkpt lat="39.90466289310082" lon="8.929197246522033"><ele>246.0</ele><time>2026-04-27T15:08:57.275Z</time></trkpt><trkpt lat="39.904815878881365" lon="8.929195975303964"><ele>246.0</ele><time>2026-04-27T15:08:58.275Z</time></trkpt><trkpt lat="39.90497666047456" lon="8.92918305180537"><ele>246.0</ele><time>2026-04-27T15:08:59.275Z</time></trkpt><trkpt lat="39.90513941521558" lon="8.9291617358114"><ele>246.0</ele><time>2026-04-27T15:09:00.275Z</time></trkpt><trkpt lat="39.905307992829115" lon="8.929138765396965"><ele>249.0</ele><time>2026-04-27T15:09:01.275Z</time></trkpt><trkpt lat="39.90547874710807" lon="8.929118615860816"><ele>252.0</ele><time>2026-04-27T15:09:02.275Z</time></trkpt><trkpt lat="39.90564994623027" lon="8.929108663008579"><ele>255.0</ele><time>2026-04-27T15:09:03.275Z</time></trkpt><trkpt lat="39.90581927548755" lon="8.929120882689164"><ele>256.3333333333333</ele><time>2026-04-27T15:09:04.275Z</time></trkpt><trkpt lat="39.90598591608277" lon="8.929155859852797"><ele>257.66666666666663</ele><time>2026-04-27T15:09:05.275Z</time></trkpt><trkpt lat="39.906147898240036" lon="8.92921473078665"><ele>259.0</ele><time>2026-04-27T15:09:06.275Z</time></trkpt><trkpt lat="39.90630984593312" lon="8.92928935397759"><ele>259.0</ele><time>2026-04-27T15:09:07.276Z</time></trkpt><trkpt lat="39.90646781864202" lon="8.929374225072227"><ele>259.0</ele><time>2026-04-27T15:09:08.276Z</time></trkpt><trkpt lat="39.90663031602562" lon="8.929458822430984"><ele>259.0</ele><time>2026-04-27T15:09:09.276Z</time></trkpt><trkpt lat="39.90679654597428" lon="8.929542864075055"><ele>261.3333333333333</ele><time>2026-04-27T15:09:10.276Z</time></trkpt><trkpt lat="39.90696253606358" lon="8.929624093878035"><ele>263.6666666666667</ele><time>2026-04-27T15:09:11.276Z</time></trkpt><trkpt lat="39.90712937364608" lon="8.92970772373903"><ele>266.0</ele><time>2026-04-27T15:09:12.276Z</time></trkpt><trkpt lat="39.90729777897308" lon="8.92979224063622"><ele>266.0</ele><time>2026-04-27T15:09:13.276Z</time></trkpt><trkpt lat="39.90746701312973" lon="8.929878829208683"><ele>266.0</ele><time>2026-04-27T15:09:14.276Z</time></trkpt><trkpt lat="39.90764035206402" lon="8.92996192646228"><ele>266.0</ele><time>2026-04-27T15:09:15.276Z</time></trkpt><trkpt lat="39.90781522359598" lon="8.930047496444393"><ele>268.6666666666667</ele><time>2026-04-27T15:09:16.276Z</time></trkpt><trkpt lat="39.90798828670226" lon="8.930140526704212"><ele>271.3333333333333</ele><time>2026-04-27T15:09:17.276Z</time></trkpt><trkpt lat="39.90815804014027" lon="8.930238930405062"><ele>274.0</ele><time>2026-04-27T15:09:18.276Z</time></trkpt><trkpt lat="39.908325502994515" lon="8.930322659475284"><ele>276.0</ele><time>2026-04-27T15:09:19.276Z</time></trkpt><trkpt lat="39.908492333329946" lon="8.930391410876386"><ele>278.0</ele><time>2026-04-27T15:09:20.276Z</time></trkpt><trkpt lat="39.9086614019244" lon="8.930437475611594"><ele>280.0</ele><time>2026-04-27T15:09:21.276Z</time></trkpt><trkpt lat="39.90883594765314" lon="8.930478345627183"><ele>280.0</ele><time>2026-04-27T15:09:22.276Z</time></trkpt><trkpt lat="39.90900141385781" lon="8.930528231685058"><ele>280.0</ele><time>2026-04-27T15:09:23.276Z</time></trkpt><trkpt lat="39.90915954786052" lon="8.930609150161562"><ele>280.0</ele><time>2026-04-27T15:09:24.276Z</time></trkpt><trkpt lat="39.90930819389045" lon="8.930720280309794"><ele>278.3333333333333</ele><time>2026-04-27T15:09:25.276Z</time></trkpt><trkpt lat="39.909447475817025" lon="8.93084012617002"><ele>276.6666666666667</ele><time>2026-04-27T15:09:26.276Z</time></trkpt><trkpt lat="39.90957374992819" lon="8.930975243148948"><ele>275.0</ele><time>2026-04-27T15:09:27.276Z</time></trkpt><trkpt lat="39.90966110300403" lon="8.931132628805493"><ele>278.5</ele><time>2026-04-27T15:09:28.276Z</time></trkpt><trkpt lat="39.90970659305415" lon="8.931308510585971"><ele>282.0</ele><time>2026-04-27T15:09:29.276Z</time></trkpt><trkpt lat="39.909702432432404" lon="8.931497877588713"><ele>285.5</ele><time>2026-04-27T15:09:30.276Z</time></trkpt><trkpt lat="39.90967197327275" lon="8.931692081628983"><ele>289.0</ele><time>2026-04-27T15:09:31.276Z</time></trkpt><trkpt lat="39.909631224280986" lon="8.931892010197835"><ele>291.66666666666663</ele><time>2026-04-27T15:09:32.276Z</time></trkpt><trkpt lat="39.90959635932903" lon="8.932094837682502"><ele>294.3333333333333</ele><time>2026-04-27T15:09:33.276Z</time></trkpt><trkpt lat="39.909556546630526" lon="8.93230461498215"><ele>297.0</ele><time>2026-04-27T15:09:34.276Z</time></trkpt><trkpt lat="39.90951070780994" lon="8.932519127952107"><ele>298.3333333333333</ele><time>2026-04-27T15:09:35.276Z</time></trkpt><trkpt lat="39.90946362746508" lon="8.932731397088578"><ele>299.66666666666663</ele><time>2026-04-27T15:09:36.276Z</time></trkpt><trkpt lat="39.90942531235201" lon="8.932938775758075"><ele>301.0</ele><time>2026-04-27T15:09:37.276Z</time></trkpt><trkpt lat="39.90940494459704" lon="8.933135494164626"><ele>301.0</ele><time>2026-04-27T15:09:38.276Z</time></trkpt><trkpt lat="39.909423978826865" lon="8.93330977658313"><ele>301.0</ele><time>2026-04-27T15:09:39.276Z</time></trkpt><trkpt lat="39.909487919371166" lon="8.933465390228253"><ele>301.0</ele><time>2026-04-27T15:09:40.276Z</time></trkpt><trkpt lat="39.90958823425684" lon="8.933594645769414"><ele>301.0</ele><time>2026-04-27T15:09:41.276Z</time></trkpt><trkpt lat="39.90971388095577" lon="8.933686878830674"><ele>304.0</ele><time>2026-04-27T15:09:42.276Z</time></trkpt><trkpt lat="39.90985849803341" lon="8.933752980455433"><ele>307.0</ele><time>2026-04-27T15:09:43.276Z</time></trkpt><trkpt lat="39.91000895366123" lon="8.933813192954549"><ele>310.0</ele><time>2026-04-27T15:09:44.276Z</time></trkpt><trkpt lat="39.91016368791484" lon="8.93387678787439"><ele>311.5</ele><time>2026-04-27T15:09:45.276Z</time></trkpt><trkpt lat="39.91031362000869" lon="8.933932138803941"><ele>313.0</ele><time>2026-04-27T15:09:46.276Z</time></trkpt><trkpt lat="39.910449605761" lon="8.933944202580003"><ele>314.5</ele><time>2026-04-27T15:09:47.276Z</time></trkpt><trkpt lat="39.91057556899514" lon="8.933890310858303"><ele>316.0</ele><time>2026-04-27T15:09:48.276Z</time></trkpt><trkpt lat="39.910701024150164" lon="8.933798018430515"><ele>316.0</ele><time>2026-04-27T15:09:49.276Z</time></trkpt><trkpt lat="39.91083333098849" lon="8.933695732530735"><ele>316.0</ele><time>2026-04-27T15:09:50.276Z</time></trkpt><trkpt lat="39.91097939609966" lon="8.933631672997931"><ele>316.0</ele><time>2026-04-27T15:09:51.276Z</time></trkpt><trkpt lat="39.911125955428574" lon="8.93361915797694"><ele>317.0</ele><time>2026-04-27T15:09:52.276Z</time></trkpt><trkpt lat="39.91127399930936" lon="8.933647184708084"><ele>318.0</ele><time>2026-04-27T15:09:53.276Z</time></trkpt><trkpt lat="39.911421745706825" lon="8.933718471199175"><ele>319.0</ele><time>2026-04-27T15:09:54.276Z</time></trkpt><trkpt lat="39.91156746882124" lon="8.933827472165925"><ele>319.0</ele><time>2026-04-27T15:09:55.276Z</time></trkpt><trkpt lat="39.91171526048877" lon="8.933938591231172"><ele>319.0</ele><time>2026-04-27T15:09:56.276Z</time></trkpt><trkpt lat="39.91186700773594" lon="8.93405506609683"><ele>319.0</ele><time>2026-04-27T15:09:57.276Z</time></trkpt><trkpt lat="39.91202156619354" lon="8.934176964819946"><ele>322.0</ele><time>2026-04-27T15:09:58.276Z</time></trkpt><trkpt lat="39.912181721112155" lon="8.934299087819385"><ele>325.0</ele><time>2026-04-27T15:09:59.276Z</time></trkpt><trkpt lat="39.91234250606912" lon="8.934424271012723"><ele>328.0</ele><time>2026-04-27T15:10:00.276Z</time></trkpt><trkpt lat="39.91250768759146" lon="8.934554200206634"><ele>329.66666666666663</ele><time>2026-04-27T15:10:01.276Z</time></trkpt><trkpt lat="39.912672721392845" lon="8.934683833396099"><ele>331.3333333333333</ele><time>2026-04-27T15:10:02.276Z</time></trkpt><trkpt lat="39.912840563677804" lon="8.934812255208001"><ele>333.0</ele><time>2026-04-27T15:10:03.276Z</time></trkpt><trkpt lat="39.913009838544276" lon="8.934933815556645"><ele>334.3333333333333</ele><time>2026-04-27T15:10:04.276Z</time></trkpt><trkpt lat="39.913181412730175" lon="8.935057291287393"><ele>335.66666666666663</ele><time>2026-04-27T15:10:05.276Z</time></trkpt><trkpt lat="39.913357917414515" lon="8.935182452352597"><ele>337.0</ele><time>2026-04-27T15:10:06.276Z</time></trkpt><trkpt lat="39.91353556083138" lon="8.935313935932964"><ele>337.3333333333333</ele><time>2026-04-27T15:10:07.276Z</time></trkpt><trkpt lat="39.91371486005572" lon="8.935443572172991"><ele>337.6666666666667</ele><time>2026-04-27T15:10:08.276Z</time></trkpt><trkpt lat="39.91389164064093" lon="8.935567113920085"><ele>338.0</ele><time>2026-04-27T15:10:09.276Z</time></trkpt><trkpt lat="39.9140709173603" lon="8.935692266974167"><ele>339.6666666666667</ele><time>2026-04-27T15:10:10.276Z</time></trkpt><trkpt lat="39.91425369386486" lon="8.935817262403356"><ele>341.3333333333333</ele><time>2026-04-27T15:10:11.276Z</time></trkpt><trkpt lat="39.914436940544945" lon="8.935946168979322"><ele>343.0</ele><time>2026-04-27T15:10:12.276Z</time></trkpt><trkpt lat="39.91462091933482" lon="8.936079410713553"><ele>343.66666666666663</ele><time>2026-04-27T15:10:13.276Z</time></trkpt><trkpt lat="39.914802819553486" lon="8.936209127575156"><ele>344.3333333333333</ele><time>2026-04-27T15:10:14.276Z</time></trkpt><trkpt lat="39.91498267737811" lon="8.936338343655118"><ele>345.0</ele><time>2026-04-27T15:10:15.277Z</time></trkpt><trkpt lat="39.91516237857486" lon="8.936469750654023"><ele>346.6666666666667</ele><time>2026-04-27T15:10:16.277Z</time></trkpt><trkpt lat="39.91534098399774" lon="8.936597654081494"><ele>348.33333333333337</ele><time>2026-04-27T15:10:17.277Z</time></trkpt><trkpt lat="39.915517692274854" lon="8.936724070795824"><ele>350.0</ele><time>2026-04-27T15:10:18.278Z</time></trkpt><trkpt lat="39.91569454276299" lon="8.936856914036811"><ele>351.6666666666667</ele><time>2026-04-27T15:10:19.277Z</time></trkpt><trkpt lat="39.91586518287839" lon="8.93698506628842"><ele>353.3333333333333</ele><time>2026-04-27T15:10:20.277Z</time></trkpt><trkpt lat="39.91603298068003" lon="8.937102477685228"><ele>355.0</ele><time>2026-04-27T15:10:21.278Z</time></trkpt><trkpt lat="39.9161904501204" lon="8.93723030852389"><ele>357.3333333333333</ele><time>2026-04-27T15:10:22.278Z</time></trkpt><trkpt lat="39.91631698151051" lon="8.93739415701192"><ele>359.6666666666667</ele><time>2026-04-27T15:10:23.278Z</time></trkpt><trkpt lat="39.91641248494061" lon="8.937595542045125"><ele>362.0</ele><time>2026-04-27T15:10:24.277Z</time></trkpt><trkpt lat="39.91648561132476" lon="8.937815296589127"><ele>363.0</ele><time>2026-04-27T15:10:25.277Z</time></trkpt><trkpt lat="39.916518889332245" lon="8.938051585819979"><ele>364.0</ele><time>2026-04-27T15:10:26.277Z</time></trkpt><trkpt lat="39.91653140650444" lon="8.938290928454785"><ele>365.0</ele><time>2026-04-27T15:10:27.277Z</time></trkpt><trkpt lat="39.91650613437021" lon="8.9385329439479"><ele>367.0</ele><time>2026-04-27T15:10:28.277Z</time></trkpt><trkpt lat="39.91643298573397" lon="8.938761272125177"><ele>369.0</ele><time>2026-04-27T15:10:29.277Z</time></trkpt><trkpt lat="39.9163291496555" lon="8.93897351662992"><ele>371.0</ele><time>2026-04-27T15:10:30.277Z</time></trkpt><trkpt lat="39.91620670391829" lon="8.939169607466216"><ele>372.0</ele><time>2026-04-27T15:10:31.277Z</time></trkpt><trkpt lat="39.91608379587221" lon="8.939357249836936"><ele>373.0</ele><time>2026-04-27T15:10:32.277Z</time></trkpt><trkpt lat="39.91596505623374" lon="8.939546400531047"><ele>374.0</ele><time>2026-04-27T15:10:33.277Z</time></trkpt><trkpt lat="39.91584585372925" lon="8.939735720411292"><ele>374.0</ele><time>2026-04-27T15:10:34.277Z</time></trkpt><trkpt lat="39.915740334541674" lon="8.939905201291838"><ele>374.0</ele><time>2026-04-27T15:10:35.277Z</time></trkpt><trkpt lat="39.915674300311125" lon="8.940040741628547"><ele>374.0</ele><time>2026-04-27T15:10:36.277Z</time></trkpt><trkpt lat="39.91563726425975" lon="8.94017824731461"><ele>374.0</ele><time>2026-04-27T15:10:37.277Z</time></trkpt><trkpt lat="39.915631074723166" lon="8.940325131012976"><ele>376.25</ele><time>2026-04-27T15:10:38.277Z</time></trkpt><trkpt lat="39.915685280532244" lon="8.940460389476808"><ele>378.5</ele><time>2026-04-27T15:10:39.277Z</time></trkpt><trkpt lat="39.9157878266191" lon="8.940573059174126"><ele>380.75</ele><time>2026-04-27T15:10:40.277Z</time></trkpt><trkpt lat="39.915914107102274" lon="8.940633904234293"><ele>383.0</ele><time>2026-04-27T15:10:41.278Z</time></trkpt><trkpt lat="39.91605406171784" lon="8.940606512034112"><ele>385.0</ele><time>2026-04-27T15:10:42.278Z</time></trkpt><trkpt lat="39.916169139704124" lon="8.94048043260969"><ele>387.0</ele><time>2026-04-27T15:10:43.278Z</time></trkpt><trkpt lat="39.91626521739675" lon="8.940350195444305"><ele>389.0</ele><time>2026-04-27T15:10:44.278Z</time></trkpt><trkpt lat="39.91638102932378" lon="8.940252632306999"><ele>391.0</ele><time>2026-04-27T15:10:45.278Z</time></trkpt><trkpt lat="39.91649146390004" lon="8.94024709294858"><ele>391.0</ele><time>2026-04-27T15:10:46.278Z</time></trkpt><trkpt lat="39.91660535034709" lon="8.940309961756228"><ele>391.0</ele><time>2026-04-27T15:10:47.278Z</time></trkpt><trkpt lat="39.916696504432146" lon="8.940415040164298"><ele>391.0</ele><time>2026-04-27T15:10:48.278Z</time></trkpt><trkpt lat="39.91675467912885" lon="8.940561720874332"><ele>391.0</ele><time>2026-04-27T15:10:49.278Z</time></trkpt><trkpt lat="39.91676550296584" lon="8.94072366116286"><ele>392.0</ele><time>2026-04-27T15:10:50.278Z</time></trkpt><trkpt lat="39.916724674460454" lon="8.940888041595153"><ele>393.0</ele><time>2026-04-27T15:10:51.278Z</time></trkpt><trkpt lat="39.916645834844395" lon="8.941034932858194"><ele>394.0</ele><time>2026-04-27T15:10:52.278Z</time></trkpt><trkpt lat="39.91656590680525" lon="8.941191690598862"><ele>395.0</ele><time>2026-04-27T15:10:53.278Z</time></trkpt><trkpt lat="39.91649539516819" lon="8.941350261272385"><ele>395.0</ele><time>2026-04-27T15:10:54.278Z</time></trkpt><trkpt lat="39.91643708682108" lon="8.941509060559547"><ele>395.0</ele><time>2026-04-27T15:10:55.278Z</time></trkpt><trkpt lat="39.91640858840388" lon="8.941685237547146"><ele>395.0</ele><time>2026-04-27T15:10:56.278Z</time></trkpt><trkpt lat="39.916409901559206" lon="8.941872794177833"><ele>395.0</ele><time>2026-04-27T15:10:57.278Z</time></trkpt><trkpt lat="39.91644685179688" lon="8.942061779546455"><ele>395.3333333333333</ele><time>2026-04-27T15:10:58.278Z</time></trkpt><trkpt lat="39.91651176519564" lon="8.942240129540178"><ele>395.66666666666663</ele><time>2026-04-27T15:10:59.278Z</time></trkpt><trkpt lat="39.91660716518616" lon="8.942396463291182"><ele>396.0</ele><time>2026-04-27T15:11:00.278Z</time></trkpt><trkpt lat="39.91672439486848" lon="8.942533241251304"><ele>397.66666666666663</ele><time>2026-04-27T15:11:01.278Z</time></trkpt><trkpt lat="39.91685433530679" lon="8.942658872057123"><ele>399.3333333333333</ele><time>2026-04-27T15:11:02.278Z</time></trkpt><trkpt lat="39.916993167069194" lon="8.942783587061415"><ele>401.0</ele><time>2026-04-27T15:11:03.278Z</time></trkpt><trkpt lat="39.91712991438308" lon="8.942900486222541"><ele>401.0</ele><time>2026-04-27T15:11:04.278Z</time></trkpt><trkpt lat="39.91727168350332" lon="8.94301963678975"><ele>401.0</ele><time>2026-04-27T15:11:05.278Z</time></trkpt><trkpt lat="39.91741824348408" lon="8.943147482462624"><ele>401.0</ele><time>2026-04-27T15:11:06.278Z</time></trkpt><trkpt lat="39.91756987736202" lon="8.943281831900853"><ele>400.3333333333333</ele><time>2026-04-27T15:11:07.278Z</time></trkpt><trkpt lat="39.91772686095938" lon="8.943420043185993"><ele>399.66666666666663</ele><time>2026-04-27T15:11:08.278Z</time></trkpt><trkpt lat="39.91788560105083" lon="8.94355580042346"><ele>399.0</ele><time>2026-04-27T15:11:09.278Z</time></trkpt><trkpt lat="39.918050112901554" lon="8.943692366976242"><ele>399.0</ele><time>2026-04-27T15:11:10.278Z</time></trkpt><trkpt lat="39.91821648653357" lon="8.94383214058004"><ele>399.0</ele><time>2026-04-27T15:11:11.278Z</time></trkpt><trkpt lat="39.91838163584801" lon="8.943971727144282"><ele>399.0</ele><time>2026-04-27T15:11:12.278Z</time></trkpt><trkpt lat="39.91855139833059" lon="8.944112655081117"><ele>399.0</ele><time>2026-04-27T15:11:13.278Z</time></trkpt><trkpt lat="39.91871955645006" lon="8.944257357617781"><ele>399.0</ele><time>2026-04-27T15:11:14.278Z</time></trkpt><trkpt lat="39.91887811346952" lon="8.944429866964338"><ele>399.0</ele><time>2026-04-27T15:11:15.278Z</time></trkpt><trkpt lat="39.91901991561776" lon="8.944622034203912"><ele>399.0</ele><time>2026-04-27T15:11:16.278Z</time></trkpt><trkpt lat="39.91914743539431" lon="8.944823776321195"><ele>399.0</ele><time>2026-04-27T15:11:17.278Z</time></trkpt><trkpt lat="39.919282149928925" lon="8.945013598119008"><ele>399.0</ele><time>2026-04-27T15:11:18.278Z</time></trkpt><trkpt lat="39.919430149997744" lon="8.94517920932117"><ele>399.33333333333337</ele><time>2026-04-27T15:11:19.278Z</time></trkpt><trkpt lat="39.91959195240457" lon="8.945331083668048"><ele>399.6666666666667</ele><time>2026-04-27T15:11:20.278Z</time></trkpt><trkpt lat="39.91975912891204" lon="8.94547272421033"><ele>400.0</ele><time>2026-04-27T15:11:21.278Z</time></trkpt><trkpt lat="39.91992863872513" lon="8.945607872527853"><ele>400.0</ele><time>2026-04-27T15:11:22.278Z</time></trkpt><trkpt lat="39.920088523333504" lon="8.945760075810071"><ele>400.0</ele><time>2026-04-27T15:11:23.278Z</time></trkpt><trkpt lat="39.92023688603677" lon="8.945933243052156"><ele>400.0</ele><time>2026-04-27T15:11:24.278Z</time></trkpt><trkpt lat="39.92039024565895" lon="8.946107840819682"><ele>400.0</ele><time>2026-04-27T15:11:25.278Z</time></trkpt><trkpt lat="39.92054612368189" lon="8.946283918052492"><ele>400.0</ele><time>2026-04-27T15:11:26.278Z</time></trkpt><trkpt lat="39.92070334847663" lon="8.946463089546759"><ele>400.0</ele><time>2026-04-27T15:11:27.278Z</time></trkpt><trkpt lat="39.9208636786928" lon="8.946646771050151"><ele>399.33333333333337</ele><time>2026-04-27T15:11:28.278Z</time></trkpt><trkpt lat="39.921024401053074" lon="8.946833841897586"><ele>398.66666666666663</ele><time>2026-04-27T15:11:29.278Z</time></trkpt><trkpt lat="39.92118412334838" lon="8.9470201054673"><ele>398.0</ele><time>2026-04-27T15:11:30.278Z</time></trkpt><trkpt lat="39.92133280321583" lon="8.947209180858094"><ele>398.0</ele><time>2026-04-27T15:11:31.278Z</time></trkpt><trkpt lat="39.921471894085606" lon="8.94741240851241"><ele>398.0</ele><time>2026-04-27T15:11:32.278Z</time></trkpt><trkpt lat="39.921598225908966" lon="8.947624585325407"><ele>398.0</ele><time>2026-04-27T15:11:33.278Z</time></trkpt><trkpt lat="39.921725383820124" lon="8.947837712372873"><ele>398.66666666666663</ele><time>2026-04-27T15:11:34.278Z</time></trkpt><trkpt lat="39.921858438842115" lon="8.948046216631353"><ele>399.33333333333337</ele><time>2026-04-27T15:11:35.278Z</time></trkpt><trkpt lat="39.92200270349705" lon="8.948245632876493"><ele>400.0</ele><time>2026-04-27T15:11:36.278Z</time></trkpt><trkpt lat="39.92215529362687" lon="8.94843179905881"><ele>401.6666666666667</ele><time>2026-04-27T15:11:37.278Z</time></trkpt><trkpt lat="39.92231453896948" lon="8.948614115201153"><ele>403.33333333333337</ele><time>2026-04-27T15:11:38.278Z</time></trkpt><trkpt lat="39.922472348937596" lon="8.948796246496524"><ele>405.0</ele><time>2026-04-27T15:11:39.278Z</time></trkpt><trkpt lat="39.9226326394995" lon="8.948975116005801"><ele>406.0</ele><time>2026-04-27T15:11:40.278Z</time></trkpt><trkpt lat="39.922807198637315" lon="8.949122431440335"><ele>407.0</ele><time>2026-04-27T15:11:41.278Z</time></trkpt><trkpt lat="39.92299591144468" lon="8.949237602603322"><ele>408.0</ele><time>2026-04-27T15:11:42.278Z</time></trkpt><trkpt lat="39.92319066632721" lon="8.949334576910177"><ele>408.66666666666663</ele><time>2026-04-27T15:11:43.278Z</time></trkpt><trkpt lat="39.92338659684625" lon="8.949430248997055"><ele>409.3333333333333</ele><time>2026-04-27T15:11:44.278Z</time></trkpt><trkpt lat="39.92358551276144" lon="8.949530286578943"><ele>410.0</ele><time>2026-04-27T15:11:45.278Z</time></trkpt><trkpt lat="39.92378509130684" lon="8.949635522868519"><ele>408.3333333333333</ele><time>2026-04-27T15:11:46.278Z</time></trkpt><trkpt lat="39.923984536942235" lon="8.949739360473629"><ele>406.66666666666663</ele><time>2026-04-27T15:11:47.278Z</time></trkpt><trkpt lat="39.92418475166512" lon="8.949843393623562"><ele>405.0</ele><time>2026-04-27T15:11:48.278Z</time></trkpt><trkpt lat="39.92438045643384" lon="8.949939675068329"><ele>403.66666666666663</ele><time>2026-04-27T15:11:49.278Z</time></trkpt><trkpt lat="39.92458007108456" lon="8.950022666661383"><ele>402.3333333333333</ele><time>2026-04-27T15:11:50.278Z</time></trkpt><trkpt lat="39.92478323772348" lon="8.95007142141582"><ele>401.0</ele><time>2026-04-27T15:11:51.278Z</time></trkpt><trkpt lat="39.924993104283125" lon="8.950075254297747"><ele>400.3333333333333</ele><time>2026-04-27T15:11:52.278Z</time></trkpt><trkpt lat="39.92519357299655" lon="8.950034161135477"><ele>399.66666666666663</ele><time>2026-04-27T15:11:53.278Z</time></trkpt><trkpt lat="39.92538354901988" lon="8.949960339088161"><ele>399.0</ele><time>2026-04-27T15:11:54.279Z</time></trkpt><trkpt lat="39.9255675243921" lon="8.949857078523209"><ele>399.0</ele><time>2026-04-27T15:11:55.279Z</time></trkpt><trkpt lat="39.92575475457582" lon="8.94974233049417"><ele>399.0</ele><time>2026-04-27T15:11:56.279Z</time></trkpt><trkpt lat="39.925943622802095" lon="8.949630599492885"><ele>399.0</ele><time>2026-04-27T15:11:57.279Z</time></trkpt><trkpt lat="39.926132161028036" lon="8.949528288920963"><ele>400.0</ele><time>2026-04-27T15:11:58.279Z</time></trkpt><trkpt lat="39.92632157137534" lon="8.94943763389033"><ele>401.0</ele><time>2026-04-27T15:11:59.279Z</time></trkpt><trkpt lat="39.92651602841012" lon="8.949370545583665"><ele>402.0</ele><time>2026-04-27T15:12:00.279Z</time></trkpt><trkpt lat="39.926717000832596" lon="8.949323806952924"><ele>402.0</ele><time>2026-04-27T15:12:01.279Z</time></trkpt><trkpt lat="39.92692189900812" lon="8.949292443450142"><ele>402.0</ele><time>2026-04-27T15:12:02.279Z</time></trkpt><trkpt lat="39.927126247079464" lon="8.949266305004702"><ele>402.0</ele><time>2026-04-27T15:12:03.279Z</time></trkpt><trkpt lat="39.92733603982421" lon="8.949241261078996"><ele>402.0</ele><time>2026-04-27T15:12:04.279Z</time></trkpt><trkpt lat="39.92754647194886" lon="8.94921385344186"><ele>402.0</ele><time>2026-04-27T15:12:05.279Z</time></trkpt><trkpt lat="39.92775190347986" lon="8.949180969454513"><ele>402.0</ele><time>2026-04-27T15:12:06.279Z</time></trkpt><trkpt lat="39.92795792265954" lon="8.949166066169113"><ele>400.33333333333337</ele><time>2026-04-27T15:12:07.279Z</time></trkpt><trkpt lat="39.928162307064134" lon="8.949178232254337"><ele>398.6666666666667</ele><time>2026-04-27T15:12:08.279Z</time></trkpt><trkpt lat="39.92836651781206" lon="8.949207526213296"><ele>397.0</ele><time>2026-04-27T15:12:09.279Z</time></trkpt><trkpt lat="39.92857181808411" lon="8.949241297156547"><ele>401.33333333333337</ele><time>2026-04-27T15:12:10.279Z</time></trkpt><trkpt lat="39.92877960539946" lon="8.94926939117215"><ele>405.66666666666663</ele><time>2026-04-27T15:12:11.279Z</time></trkpt><trkpt lat="39.928985178355845" lon="8.949285078190263"><ele>410.0</ele><time>2026-04-27T15:12:12.279Z</time></trkpt><trkpt lat="39.92918929433803" lon="8.949272650599857"><ele>410.66666666666663</ele><time>2026-04-27T15:12:13.279Z</time></trkpt><trkpt lat="39.929389370609314" lon="8.949234834097382"><ele>411.33333333333337</ele><time>2026-04-27T15:12:14.279Z</time></trkpt><trkpt lat="39.929588947964746" lon="8.94918124633621"><ele>412.0</ele><time>2026-04-27T15:12:15.279Z</time></trkpt><trkpt lat="39.92978929560392" lon="8.949131556906835"><ele>408.33333333333337</ele><time>2026-04-27T15:12:16.279Z</time></trkpt><trkpt lat="39.929993490983655" lon="8.949098848068918"><ele>404.66666666666663</ele><time>2026-04-27T15:12:17.279Z</time></trkpt><trkpt lat="39.93019730260111" lon="8.949082894793333"><ele>401.0</ele><time>2026-04-27T15:12:18.279Z</time></trkpt><trkpt lat="39.93040189551324" lon="8.949079957978194"><ele>400.3333333333333</ele><time>2026-04-27T15:12:19.279Z</time></trkpt><trkpt lat="39.93060659058064" lon="8.949081405861122"><ele>399.66666666666663</ele><time>2026-04-27T15:12:20.279Z</time></trkpt><trkpt lat="39.93080501167494" lon="8.949081126241868"><ele>399.0</ele><time>2026-04-27T15:12:21.28Z</time></trkpt><trkpt lat="39.9309929618379" lon="8.949104313733224"><ele>399.0</ele><time>2026-04-27T15:12:22.28Z</time></trkpt><trkpt lat="39.931176495958645" lon="8.949164474855742"><ele>399.0</ele><time>2026-04-27T15:12:23.28Z</time></trkpt><trkpt lat="39.93135535678072" lon="8.949254893940271"><ele>399.0</ele><time>2026-04-27T15:12:24.28Z</time></trkpt><trkpt lat="39.93152522761839" lon="8.9493776782269"><ele>399.0</ele><time>2026-04-27T15:12:25.28Z</time></trkpt><trkpt lat="39.93169384692988" lon="8.94952143210753"><ele>399.0</ele><time>2026-04-27T15:12:26.28Z</time></trkpt><trkpt lat="39.9318579549396" lon="8.94966655961986"><ele>399.0</ele><time>2026-04-27T15:12:27.28Z</time></trkpt><trkpt lat="39.93202678767015" lon="8.949817098197293"><ele>398.66666666666663</ele><time>2026-04-27T15:12:28.28Z</time></trkpt><trkpt lat="39.93219043399766" lon="8.949968226164033"><ele>398.3333333333333</ele><time>2026-04-27T15:12:29.28Z</time></trkpt><trkpt lat="39.932353786741665" lon="8.950121143728799"><ele>398.0</ele><time>2026-04-27T15:12:30.28Z</time></trkpt><trkpt lat="39.932521638690076" lon="8.950272156765703"><ele>396.3333333333333</ele><time>2026-04-27T15:12:31.28Z</time></trkpt><trkpt lat="39.93268983827211" lon="8.950418731439632"><ele>394.66666666666663</ele><time>2026-04-27T15:12:32.28Z</time></trkpt><trkpt lat="39.93285264196351" lon="8.950559321304443"><ele>393.0</ele><time>2026-04-27T15:12:33.28Z</time></trkpt><trkpt lat="39.933000650129834" lon="8.950690344065316"><ele>393.0</ele><time>2026-04-27T15:12:34.28Z</time></trkpt><trkpt lat="39.93312629371313" lon="8.950821574559548"><ele>393.0</ele><time>2026-04-27T15:12:35.28Z</time></trkpt><trkpt lat="39.93321695468847" lon="8.95097870872676"><ele>393.0</ele><time>2026-04-27T15:12:36.28Z</time></trkpt><trkpt lat="39.933281364485644" lon="8.951164391905568"><ele>392.0</ele><time>2026-04-27T15:12:37.28Z</time></trkpt><trkpt lat="39.93331455675372" lon="8.951370045786529"><ele>391.0</ele><time>2026-04-27T15:12:38.28Z</time></trkpt><trkpt lat="39.93331947870512" lon="8.951591690594745"><ele>390.0</ele><time>2026-04-27T15:12:39.28Z</time></trkpt><trkpt lat="39.93332284472319" lon="8.95182738725217"><ele>389.66666666666663</ele><time>2026-04-27T15:12:40.28Z</time></trkpt><trkpt lat="39.93332839652849" lon="8.95207373814341"><ele>389.3333333333333</ele><time>2026-04-27T15:12:41.28Z</time></trkpt><trkpt lat="39.93332916631327" lon="8.952330972873174"><ele>389.0</ele><time>2026-04-27T15:12:42.28Z</time></trkpt><trkpt lat="39.93333217726784" lon="8.952594556013363"><ele>387.3333333333333</ele><time>2026-04-27T15:12:43.28Z</time></trkpt><trkpt lat="39.933327674625446" lon="8.952866635430134"><ele>385.66666666666663</ele><time>2026-04-27T15:12:44.28Z</time></trkpt><trkpt lat="39.93331644295265" lon="8.953142122552729"><ele>384.0</ele><time>2026-04-27T15:12:45.28Z</time></trkpt><trkpt lat="39.93329642369727" lon="8.953423450298489"><ele>382.0</ele><time>2026-04-27T15:12:46.28Z</time></trkpt><trkpt lat="39.93328190800134" lon="8.953691287089226"><ele>380.0</ele><time>2026-04-27T15:12:47.28Z</time></trkpt><trkpt lat="39.9332728341227" lon="8.953948846262229"><ele>378.0</ele><time>2026-04-27T15:12:48.28Z</time></trkpt><trkpt lat="39.9332607437445" lon="8.954206096451532"><ele>377.6666666666667</ele><time>2026-04-27T15:12:49.28Z</time></trkpt><trkpt lat="39.93324650994222" lon="8.954453897620704"><ele>377.33333333333337</ele><time>2026-04-27T15:12:50.28Z</time></trkpt><trkpt lat="39.93323148009784" lon="8.954692980437418"><ele>377.0</ele><time>2026-04-27T15:12:51.28Z</time></trkpt><trkpt lat="39.933202141460924" lon="8.954919847486373"><ele>377.0</ele><time>2026-04-27T15:12:52.28Z</time></trkpt><trkpt lat="39.9331461555338" lon="8.955142013354678"><ele>377.0</ele><time>2026-04-27T15:12:53.28Z</time></trkpt><trkpt lat="39.933074293383214" lon="8.955359785734231"><ele>377.0</ele><time>2026-04-27T15:12:54.28Z</time></trkpt><trkpt lat="39.932984560073166" lon="8.955566799950587"><ele>377.0</ele><time>2026-04-27T15:12:55.28Z</time></trkpt><trkpt lat="39.93288790456788" lon="8.955759959571768"><ele>377.0</ele><time>2026-04-27T15:12:56.28Z</time></trkpt><trkpt lat="39.93278377869967" lon="8.955917287839009"><ele>377.0</ele><time>2026-04-27T15:12:57.28Z</time></trkpt><trkpt lat="39.93269509697107" lon="8.956043613814769"><ele>379.0</ele><time>2026-04-27T15:12:58.28Z</time></trkpt><trkpt lat="39.9326424421499" lon="8.956165974622555"><ele>381.0</ele><time>2026-04-27T15:12:59.28Z</time></trkpt><trkpt lat="39.932632865592524" lon="8.956288914677595"><ele>383.0</ele><time>2026-04-27T15:13:00.28Z</time></trkpt><trkpt lat="39.93268164001848" lon="8.956413230082998"><ele>385.0</ele><time>2026-04-27T15:13:01.28Z</time></trkpt><trkpt lat="39.932761964913595" lon="8.956512451329804"><ele>387.0</ele><time>2026-04-27T15:13:02.28Z</time></trkpt><trkpt lat="39.932866748909" lon="8.956555255661222"><ele>387.0</ele><time>2026-04-27T15:13:03.28Z</time></trkpt><trkpt lat="39.93297975208583" lon="8.956539104418324"><ele>387.0</ele><time>2026-04-27T15:13:04.28Z</time></trkpt><trkpt lat="39.93309065097307" lon="8.956456174535509"><ele>387.0</ele><time>2026-04-27T15:13:05.28Z</time></trkpt><trkpt lat="39.933199485116035" lon="8.956342692818179"><ele>387.0</ele><time>2026-04-27T15:13:06.28Z</time></trkpt><trkpt lat="39.93331666006124" lon="8.956233472527826"><ele>387.33333333333337</ele><time>2026-04-27T15:13:07.28Z</time></trkpt><trkpt lat="39.93344341402554" lon="8.956121101394352"><ele>387.6666666666667</ele><time>2026-04-27T15:13:08.28Z</time></trkpt><trkpt lat="39.93357195168199" lon="8.955982769682006"><ele>388.0</ele><time>2026-04-27T15:13:09.28Z</time></trkpt><trkpt lat="39.9336918553713" lon="8.955813219939234"><ele>388.0</ele><time>2026-04-27T15:13:10.28Z</time></trkpt><trkpt lat="39.93379388222769" lon="8.955617175713165"><ele>388.0</ele><time>2026-04-27T15:13:11.28Z</time></trkpt><trkpt lat="39.93387368442004" lon="8.955391320503983"><ele>388.0</ele><time>2026-04-27T15:13:12.28Z</time></trkpt><trkpt lat="39.9339295024083" lon="8.955146135286281"><ele>386.0</ele><time>2026-04-27T15:13:13.28Z</time></trkpt><trkpt lat="39.933972397479124" lon="8.954883519706984"><ele>384.0</ele><time>2026-04-27T15:13:14.28Z</time></trkpt><trkpt lat="39.93401140624812" lon="8.954611609766541"><ele>382.0</ele><time>2026-04-27T15:13:15.28Z</time></trkpt><trkpt lat="39.934048264310086" lon="8.954335740483353"><ele>379.66666666666663</ele><time>2026-04-27T15:13:16.28Z</time></trkpt><trkpt lat="39.93409565624546" lon="8.954051648723153"><ele>377.3333333333333</ele><time>2026-04-27T15:13:17.28Z</time></trkpt><trkpt lat="39.93415422720311" lon="8.953766853730954"><ele>375.0</ele><time>2026-04-27T15:13:18.28Z</time></trkpt><trkpt lat="39.9342148717039" lon="8.953478880792268"><ele>382.0</ele><time>2026-04-27T15:13:19.28Z</time></trkpt><trkpt lat="39.934270342883224" lon="8.953189956360651"><ele>389.0</ele><time>2026-04-27T15:13:20.28Z</time></trkpt><trkpt lat="39.93432813805575" lon="8.952899484416129"><ele>389.0</ele><time>2026-04-27T15:13:21.28Z</time></trkpt><trkpt lat="39.93437772516094" lon="8.952611213252966"><ele>389.0</ele><time>2026-04-27T15:13:22.28Z</time></trkpt><trkpt lat="39.93442909631552" lon="8.952329358915312"><ele>389.0</ele><time>2026-04-27T15:13:23.28Z</time></trkpt><trkpt lat="39.93447919020711" lon="8.952046180684093"><ele>386.0</ele><time>2026-04-27T15:13:24.28Z</time></trkpt><trkpt lat="39.934524752926706" lon="8.95177329455078"><ele>383.0</ele><time>2026-04-27T15:13:25.28Z</time></trkpt><trkpt lat="39.93456894226192" lon="8.951514173971322"><ele>380.0</ele><time>2026-04-27T15:13:26.28Z</time></trkpt><trkpt lat="39.93460927444678" lon="8.95126850744147"><ele>377.0</ele><time>2026-04-27T15:13:27.28Z</time></trkpt><trkpt lat="39.93465397878239" lon="8.95103854467507"><ele>374.0</ele><time>2026-04-27T15:13:28.28Z</time></trkpt><trkpt lat="39.93471408778598" lon="8.950822772701196"><ele>371.0</ele><time>2026-04-27T15:13:29.28Z</time></trkpt><trkpt lat="39.93480323888349" lon="8.950627057129399"><ele>372.6666666666667</ele><time>2026-04-27T15:13:30.281Z</time></trkpt><trkpt lat="39.934898768163094" lon="8.950428667644477"><ele>374.3333333333333</ele><time>2026-04-27T15:13:31.281Z</time></trkpt><trkpt lat="39.935012815612254" lon="8.95023423143009"><ele>376.0</ele><time>2026-04-27T15:13:32.281Z</time></trkpt><trkpt lat="39.935125686718" lon="8.950050252823745"><ele>370.0</ele><time>2026-04-27T15:13:33.281Z</time></trkpt><trkpt lat="39.93524588556128" lon="8.949875647974512"><ele>364.0</ele><time>2026-04-27T15:13:34.281Z</time></trkpt><trkpt lat="39.93537847604757" lon="8.949728525381493"><ele>358.0</ele><time>2026-04-27T15:13:35.281Z</time></trkpt><trkpt lat="39.9355417789416" lon="8.94961063102464"><ele>358.0</ele><time>2026-04-27T15:13:36.281Z</time></trkpt><trkpt lat="39.9357076821867" lon="8.94949565245466"><ele>358.0</ele><time>2026-04-27T15:13:37.281Z</time></trkpt><trkpt lat="39.93588413732959" lon="8.949377780626818"><ele>358.0</ele><time>2026-04-27T15:13:38.281Z</time></trkpt><trkpt lat="39.936062307353374" lon="8.949285959145806"><ele>352.3333333333333</ele><time>2026-04-27T15:13:39.281Z</time></trkpt><trkpt lat="39.936253402578366" lon="8.949201126665118"><ele>346.6666666666667</ele><time>2026-04-27T15:13:40.281Z</time></trkpt><trkpt lat="39.93643929359933" lon="8.949103894278496"><ele>341.0</ele><time>2026-04-27T15:13:41.281Z</time></trkpt><trkpt lat="39.93662814439888" lon="8.949016792697215"><ele>342.0</ele><time>2026-04-27T15:13:42.281Z</time></trkpt><trkpt lat="39.93681822135098" lon="8.948960245070284"><ele>343.0</ele><time>2026-04-27T15:13:43.281Z</time></trkpt><trkpt lat="39.937010073535376" lon="8.948926577926718"><ele>344.0</ele><time>2026-04-27T15:13:44.281Z</time></trkpt><trkpt lat="39.937205236960146" lon="8.948913316195268"><ele>344.0</ele><time>2026-04-27T15:13:45.281Z</time></trkpt><trkpt lat="39.937399553476624" lon="8.94892589190807"><ele>344.0</ele><time>2026-04-27T15:13:46.281Z</time></trkpt><trkpt lat="39.93759422406683" lon="8.948954909224385"><ele>344.0</ele><time>2026-04-27T15:13:47.281Z</time></trkpt><trkpt lat="39.93778903591188" lon="8.948996220943556"><ele>343.33333333333337</ele><time>2026-04-27T15:13:48.281Z</time></trkpt><trkpt lat="39.93798313701036" lon="8.949039615453007"><ele>342.6666666666667</ele><time>2026-04-27T15:13:49.281Z</time></trkpt><trkpt lat="39.9381720682297" lon="8.949075854104288"><ele>342.0</ele><time>2026-04-27T15:13:50.281Z</time></trkpt><trkpt lat="39.93836302454934" lon="8.94911097801018"><ele>341.3333333333333</ele><time>2026-04-27T15:13:51.281Z</time></trkpt><trkpt lat="39.93855000588506" lon="8.949167371271514"><ele>340.66666666666663</ele><time>2026-04-27T15:13:52.281Z</time></trkpt><trkpt lat="39.93873563962015" lon="8.949255670833656"><ele>340.0</ele><time>2026-04-27T15:13:53.281Z</time></trkpt><trkpt lat="39.938904307815896" lon="8.949372604727438"><ele>340.0</ele><time>2026-04-27T15:13:54.281Z</time></trkpt><trkpt lat="39.939071705774744" lon="8.949503491397795"><ele>340.0</ele><time>2026-04-27T15:13:55.281Z</time></trkpt><trkpt lat="39.9392373904454" lon="8.949636208487222"><ele>340.0</ele><time>2026-04-27T15:13:56.281Z</time></trkpt><trkpt lat="39.939391218049785" lon="8.949777580773864"><ele>340.0</ele><time>2026-04-27T15:13:57.281Z</time></trkpt><trkpt lat="39.93952025133366" lon="8.94994709146632"><ele>340.0</ele><time>2026-04-27T15:13:58.281Z</time></trkpt><trkpt lat="39.93963540148422" lon="8.950130946395827"><ele>340.0</ele><time>2026-04-27T15:13:59.281Z</time></trkpt><trkpt lat="39.939748933889454" lon="8.950319127262148"><ele>341.5</ele><time>2026-04-27T15:14:00.281Z</time></trkpt><trkpt lat="39.939845946016895" lon="8.9504889009432"><ele>343.0</ele><time>2026-04-27T15:14:01.281Z</time></trkpt><trkpt lat="39.93991719254133" lon="8.950654843578743"><ele>344.5</ele><time>2026-04-27T15:14:02.281Z</time></trkpt><trkpt lat="39.939967914476014" lon="8.950817575346283"><ele>346.0</ele><time>2026-04-27T15:14:03.281Z</time></trkpt><trkpt lat="39.94000111579012" lon="8.950960349698677"><ele>347.0</ele><time>2026-04-27T15:14:04.281Z</time></trkpt><trkpt lat="39.94002383540914" lon="8.95107690808595"><ele>348.0</ele><time>2026-04-27T15:14:05.281Z</time></trkpt><trkpt lat="39.94004284670858" lon="8.95116917618526"><ele>349.0</ele><time>2026-04-27T15:14:06.281Z</time></trkpt><trkpt lat="39.9401081960187" lon="8.951296941242074"><ele>350.0</ele><time>2026-04-27T15:14:08.281Z</time></trkpt><trkpt lat="39.940198511069454" lon="8.951377138059794"><ele>351.0</ele><time>2026-04-27T15:14:10.281Z</time></trkpt><trkpt lat="39.94031941098252" lon="8.951395679067593"><ele>352.20000000000005</ele><time>2026-04-27T15:14:12.281Z</time></trkpt><trkpt lat="39.94040119233906" lon="8.951359086347075"><ele>353.40000000000003</ele><time>2026-04-27T15:14:13.281Z</time></trkpt><trkpt lat="39.94049658937963" lon="8.951293488306485"><ele>354.6</ele><time>2026-04-27T15:14:14.281Z</time></trkpt><trkpt lat="39.94060297616285" lon="8.951219662660213"><ele>355.8</ele><time>2026-04-27T15:14:15.281Z</time></trkpt><trkpt lat="39.94070159411414" lon="8.951157993033442"><ele>357.0</ele><time>2026-04-27T15:14:16.281Z</time></trkpt><trkpt lat="39.94081157302" lon="8.951085367849599"><ele>356.75</ele><time>2026-04-27T15:14:17.281Z</time></trkpt><trkpt lat="39.94092912108937" lon="8.95100053085181"><ele>356.5</ele><time>2026-04-27T15:14:18.281Z</time></trkpt><trkpt lat="39.941049257781096" lon="8.950910910354889"><ele>356.25</ele><time>2026-04-27T15:14:19.281Z</time></trkpt><trkpt lat="39.94117062806687" lon="8.950815271799625"><ele>356.0</ele><time>2026-04-27T15:14:20.281Z</time></trkpt><trkpt lat="39.941281220527735" lon="8.95072208958005"><ele>356.0</ele><time>2026-04-27T15:14:21.281Z</time></trkpt><trkpt lat="39.94139383510908" lon="8.950623121200977"><ele>356.0</ele><time>2026-04-27T15:14:22.281Z</time></trkpt><trkpt lat="39.941505135066144" lon="8.950506394569212"><ele>356.0</ele><time>2026-04-27T15:14:23.281Z</time></trkpt><trkpt lat="39.94161110391338" lon="8.95037235116153"><ele>356.0</ele><time>2026-04-27T15:14:24.281Z</time></trkpt><trkpt lat="39.94171879094412" lon="8.950226104168832"><ele>357.0</ele><time>2026-04-27T15:14:25.281Z</time></trkpt><trkpt lat="39.94183587852107" lon="8.950076177978652"><ele>358.0</ele><time>2026-04-27T15:14:26.281Z</time></trkpt><trkpt lat="39.94195918741612" lon="8.949929646610371"><ele>359.0</ele><time>2026-04-27T15:14:27.283Z</time></trkpt><trkpt lat="39.942076454344324" lon="8.949802227550745"><ele>359.0</ele><time>2026-04-27T15:14:28.283Z</time></trkpt><trkpt lat="39.94220119287248" lon="8.949692652457776"><ele>359.0</ele><time>2026-04-27T15:14:29.283Z</time></trkpt><trkpt lat="39.94233842583163" lon="8.949602383986312"><ele>359.0</ele><time>2026-04-27T15:14:30.283Z</time></trkpt><trkpt lat="39.94249083669267" lon="8.949529674950575"><ele>360.6666666666667</ele><time>2026-04-27T15:14:31.283Z</time></trkpt><trkpt lat="39.94264818525973" lon="8.949472268779854"><ele>362.3333333333333</ele><time>2026-04-27T15:14:32.283Z</time></trkpt><trkpt lat="39.94280964688527" lon="8.94942712625456"><ele>364.0</ele><time>2026-04-27T15:14:33.283Z</time></trkpt><trkpt lat="39.94297988075318" lon="8.949412937699236"><ele>364.0</ele><time>2026-04-27T15:14:34.283Z</time></trkpt><trkpt lat="39.943154172188834" lon="8.949420191083387"><ele>364.0</ele><time>2026-04-27T15:14:35.283Z</time></trkpt><trkpt lat="39.943330476892804" lon="8.949444390032305"><ele>364.0</ele><time>2026-04-27T15:14:36.283Z</time></trkpt><trkpt lat="39.94350974555757" lon="8.949467819018636"><ele>366.0</ele><time>2026-04-27T15:14:37.283Z</time></trkpt><trkpt lat="39.943692556399505" lon="8.949482650871515"><ele>368.0</ele><time>2026-04-27T15:14:38.283Z</time></trkpt><trkpt lat="39.94387972081403" lon="8.949478086851126"><ele>370.0</ele><time>2026-04-27T15:14:39.283Z</time></trkpt><trkpt lat="39.94406784685043" lon="8.94945176791795"><ele>372.0</ele><time>2026-04-27T15:14:40.283Z</time></trkpt><trkpt lat="39.94425930929548" lon="8.949412170973767"><ele>374.0</ele><time>2026-04-27T15:14:41.283Z</time></trkpt><trkpt lat="39.94445207407212" lon="8.949357441825963"><ele>376.0</ele><time>2026-04-27T15:14:42.283Z</time></trkpt><trkpt lat="39.94464459797694" lon="8.949296142059442"><ele>376.0</ele><time>2026-04-27T15:14:43.283Z</time></trkpt><trkpt lat="39.94483662253771" lon="8.94923802106463"><ele>376.0</ele><time>2026-04-27T15:14:44.283Z</time></trkpt><trkpt lat="39.94502134386714" lon="8.949183165696823"><ele>376.0</ele><time>2026-04-27T15:14:45.284Z</time></trkpt><trkpt lat="39.94519864178637" lon="8.949124351479247"><ele>375.66666666666663</ele><time>2026-04-27T15:14:46.284Z</time></trkpt><trkpt lat="39.94537166392517" lon="8.949044160870871"><ele>375.3333333333333</ele><time>2026-04-27T15:14:47.284Z</time></trkpt><trkpt lat="39.94552337580945" lon="8.948926852581087"><ele>375.0</ele><time>2026-04-27T15:14:48.284Z</time></trkpt><trkpt lat="39.94565971633801" lon="8.948776611457907"><ele>375.0</ele><time>2026-04-27T15:14:49.284Z</time></trkpt><trkpt lat="39.94579492167612" lon="8.948615059512722"><ele>375.0</ele><time>2026-04-27T15:14:50.284Z</time></trkpt><trkpt lat="39.94592740102878" lon="8.94844911700343"><ele>375.0</ele><time>2026-04-27T15:14:51.284Z</time></trkpt><trkpt lat="39.94605807179712" lon="8.948282904057722"><ele>375.0</ele><time>2026-04-27T15:14:52.284Z</time></trkpt><trkpt lat="39.94618952181925" lon="8.948116250546864"><ele>375.0</ele><time>2026-04-27T15:14:53.284Z</time></trkpt><trkpt lat="39.9463200964039" lon="8.947953182739973"><ele>375.0</ele><time>2026-04-27T15:14:54.284Z</time></trkpt><trkpt lat="39.94645133048944" lon="8.947784510335401"><ele>375.0</ele><time>2026-04-27T15:14:55.284Z</time></trkpt><trkpt lat="39.94657885106004" lon="8.947628915304902"><ele>375.0</ele><time>2026-04-27T15:14:56.284Z</time></trkpt><trkpt lat="39.94670439301383" lon="8.94747247265646"><ele>375.0</ele><time>2026-04-27T15:14:57.284Z</time></trkpt><trkpt lat="39.94682188813218" lon="8.947332168251558"><ele>374.6666666666667</ele><time>2026-04-27T15:14:58.284Z</time></trkpt><trkpt lat="39.946944998049794" lon="8.94717162107917"><ele>374.33333333333337</ele><time>2026-04-27T15:14:59.284Z</time></trkpt><trkpt lat="39.94706861955944" lon="8.947009489053375"><ele>374.0</ele><time>2026-04-27T15:15:00.284Z</time></trkpt><trkpt lat="39.94718385445172" lon="8.94686209779249"><ele>374.0</ele><time>2026-04-27T15:15:01.284Z</time></trkpt><trkpt lat="39.94729450639068" lon="8.946721735483091"><ele>374.0</ele><time>2026-04-27T15:15:02.284Z</time></trkpt><trkpt lat="39.94739853553882" lon="8.946588390159667"><ele>374.0</ele><time>2026-04-27T15:15:03.284Z</time></trkpt><trkpt lat="39.94749820806227" lon="8.946461792748629"><ele>374.0</ele><time>2026-04-27T15:15:04.284Z</time></trkpt><trkpt lat="39.947593518563686" lon="8.946343821349927"><ele>374.5</ele><time>2026-04-27T15:15:05.284Z</time></trkpt><trkpt lat="39.94768472909461" lon="8.94623085049343"><ele>375.0</ele><time>2026-04-27T15:15:06.284Z</time></trkpt><trkpt lat="39.947766755242824" lon="8.946120566118916"><ele>375.5</ele><time>2026-04-27T15:15:07.284Z</time></trkpt><trkpt lat="39.94784666119465" lon="8.94601742612215"><ele>376.0</ele><time>2026-04-27T15:15:08.284Z</time></trkpt><trkpt lat="39.947934250218836" lon="8.945941032050836"><ele>376.0</ele><time>2026-04-27T15:15:09.284Z</time></trkpt><trkpt lat="39.94802444696889" lon="8.945894175638227"><ele>376.0</ele><time>2026-04-27T15:15:10.284Z</time></trkpt><trkpt lat="39.94812251664351" lon="8.945857945817426"><ele>376.0</ele><time>2026-04-27T15:15:11.284Z</time></trkpt><trkpt lat="39.94822468283712" lon="8.945831522847454"><ele>376.0</ele><time>2026-04-27T15:15:12.284Z</time></trkpt><trkpt lat="39.9483313594282" lon="8.94583246454461"><ele>376.0</ele><time>2026-04-27T15:15:13.284Z</time></trkpt><trkpt lat="39.94843774141052" lon="8.945864678521177"><ele>377.0</ele><time>2026-04-27T15:15:14.284Z</time></trkpt><trkpt lat="39.948533659696025" lon="8.94592538888805"><ele>378.0</ele><time>2026-04-27T15:15:15.284Z</time></trkpt><trkpt lat="39.948626922181695" lon="8.945999034200272"><ele>379.0</ele><time>2026-04-27T15:15:16.284Z</time></trkpt><trkpt lat="39.94872164591592" lon="8.946077788794723"><ele>380.0</ele><time>2026-04-27T15:15:17.284Z</time></trkpt><trkpt lat="39.948814816970696" lon="8.946152299625792"><ele>381.0</ele><time>2026-04-27T15:15:18.284Z</time></trkpt><trkpt lat="39.94891313515406" lon="8.946224919531126"><ele>381.0</ele><time>2026-04-27T15:15:19.284Z</time></trkpt><trkpt lat="39.9490098592428" lon="8.946304376871845"><ele>381.0</ele><time>2026-04-27T15:15:20.284Z</time></trkpt><trkpt lat="39.94909279196841" lon="8.946407822433084"><ele>381.0</ele><time>2026-04-27T15:15:21.284Z</time></trkpt><trkpt lat="39.949171780967745" lon="8.946468877721166"><ele>381.0</ele><time>2026-04-27T15:15:22.284Z</time></trkpt><trkpt lat="39.94924544521399" lon="8.946523594857682"><ele>381.0</ele><time>2026-04-27T15:15:23.284Z</time></trkpt><trkpt lat="39.949311898620564" lon="8.946570360652316"><ele>381.6666666666667</ele><time>2026-04-27T15:15:24.284Z</time></trkpt><trkpt lat="39.949374181708606" lon="8.946608664777019"><ele>382.33333333333337</ele><time>2026-04-27T15:15:25.284Z</time></trkpt><trkpt lat="39.94943892993992" lon="8.946644268495401"><ele>383.0</ele><time>2026-04-27T15:15:26.284Z</time></trkpt><trkpt lat="39.94950692946717" lon="8.946704929148227"><ele>383.6666666666667</ele><time>2026-04-27T15:15:27.284Z</time></trkpt><trkpt lat="39.94957829646614" lon="8.946764827945362"><ele>384.33333333333337</ele><time>2026-04-27T15:15:28.284Z</time></trkpt><trkpt lat="39.949650364048075" lon="8.94682116424256"><ele>385.0</ele><time>2026-04-27T15:15:29.284Z</time></trkpt><trkpt lat="39.94972447856726" lon="8.946880561292197"><ele>385.1666666666667</ele><time>2026-04-27T15:15:30.284Z</time></trkpt><trkpt lat="39.94980166513638" lon="8.946935254001371"><ele>385.33333333333337</ele><time>2026-04-27T15:15:31.284Z</time></trkpt><trkpt lat="39.94987579889815" lon="8.946995240671916"><ele>385.5</ele><time>2026-04-27T15:15:32.284Z</time></trkpt><trkpt lat="39.94995113111445" lon="8.947056407352141"><ele>385.66666666666663</ele><time>2026-04-27T15:15:33.284Z</time></trkpt><trkpt lat="39.95003193607426" lon="8.947110466184128"><ele>385.8333333333333</ele><time>2026-04-27T15:15:34.284Z</time></trkpt><trkpt lat="39.95010419020624" lon="8.947163773779264"><ele>386.0</ele><time>2026-04-27T15:15:35.284Z</time></trkpt><trkpt lat="39.95017698949057" lon="8.947214343607678"><ele>386.8</ele><time>2026-04-27T15:15:36.284Z</time></trkpt><trkpt lat="39.9502570337098" lon="8.947279597204895"><ele>387.6</ele><time>2026-04-27T15:15:37.284Z</time></trkpt><trkpt lat="39.9503370063341" lon="8.94734192948341"><ele>388.4</ele><time>2026-04-27T15:15:38.284Z</time></trkpt><trkpt lat="39.95041798072117" lon="8.947403438825773"><ele>389.2</ele><time>2026-04-27T15:15:39.284Z</time></trkpt><trkpt lat="39.950500799755105" lon="8.947470691467533"><ele>390.0</ele><time>2026-04-27T15:15:40.284Z</time></trkpt><trkpt lat="39.950589600192465" lon="8.947533534925867"><ele>390.2</ele><time>2026-04-27T15:15:41.284Z</time></trkpt><trkpt lat="39.95067783215197" lon="8.947594277156501"><ele>390.4</ele><time>2026-04-27T15:15:42.284Z</time></trkpt><trkpt lat="39.95076719122722" lon="8.947664366033573"><ele>390.6</ele><time>2026-04-27T15:15:43.284Z</time></trkpt><trkpt lat="39.95085582516163" lon="8.947750317535233"><ele>390.8</ele><time>2026-04-27T15:15:44.284Z</time></trkpt><trkpt lat="39.950949962527865" lon="8.947819088163728"><ele>391.0</ele><time>2026-04-27T15:15:45.284Z</time></trkpt><trkpt lat="39.951047109919855" lon="8.947890717362974"><ele>391.8</ele><time>2026-04-27T15:15:46.284Z</time></trkpt><trkpt lat="39.95113982970395" lon="8.947960655275802"><ele>392.6</ele><time>2026-04-27T15:15:47.284Z</time></trkpt><trkpt lat="39.95124082038721" lon="8.948028731789963"><ele>393.4</ele><time>2026-04-27T15:15:48.284Z</time></trkpt><trkpt lat="39.9513390953356" lon="8.948096651849166"><ele>394.2</ele><time>2026-04-27T15:15:49.284Z</time></trkpt><trkpt lat="39.95143212924313" lon="8.948172071592042"><ele>395.0</ele><time>2026-04-27T15:15:50.284Z</time></trkpt><trkpt lat="39.95152975099029" lon="8.948242659331116"><ele>395.0</ele><time>2026-04-27T15:15:51.284Z</time></trkpt><trkpt lat="39.951627554617275" lon="8.948314695742864"><ele>395.0</ele><time>2026-04-27T15:15:52.284Z</time></trkpt><trkpt lat="39.951725121927666" lon="8.948388204684653"><ele>395.0</ele><time>2026-04-27T15:15:53.284Z</time></trkpt><trkpt lat="39.951819040650626" lon="8.948459415895616"><ele>395.0</ele><time>2026-04-27T15:15:54.284Z</time></trkpt><trkpt lat="39.951915641991214" lon="8.94853339367459"><ele>395.0</ele><time>2026-04-27T15:15:55.284Z</time></trkpt><trkpt lat="39.952014948801946" lon="8.948602462857293"><ele>395.5</ele><time>2026-04-27T15:15:56.284Z</time></trkpt><trkpt lat="39.95211253331552" lon="8.948676312056145"><ele>396.0</ele><time>2026-04-27T15:15:57.284Z</time></trkpt><trkpt lat="39.95221229730813" lon="8.948750738952832"><ele>396.5</ele><time>2026-04-27T15:15:58.285Z</time></trkpt><trkpt lat="39.952313571762836" lon="8.9488383106081"><ele>397.0</ele><time>2026-04-27T15:15:59.285Z</time></trkpt><trkpt lat="39.952419116251676" lon="8.948911428069849"><ele>397.0</ele><time>2026-04-27T15:16:00.285Z</time></trkpt><trkpt lat="39.95252316721252" lon="8.948994804190788"><ele>397.0</ele><time>2026-04-27T15:16:01.285Z</time></trkpt><trkpt lat="39.95262156295183" lon="8.94907016228684"><ele>397.0</ele><time>2026-04-27T15:16:02.285Z</time></trkpt><trkpt lat="39.952708603318875" lon="8.949133995448735"><ele>397.0</ele><time>2026-04-27T15:16:03.285Z</time></trkpt><trkpt lat="39.9527841868642" lon="8.949184425264278"><ele>397.0</ele><time>2026-04-27T15:16:04.285Z</time></trkpt><trkpt lat="39.952858307793434" lon="8.949220561121626"><ele>397.6</ele><time>2026-04-27T15:16:05.285Z</time></trkpt><trkpt lat="39.95293303103474" lon="8.94925561568973"><ele>398.20000000000005</ele><time>2026-04-27T15:16:06.285Z</time></trkpt><trkpt lat="39.95301275801209" lon="8.949284538710236"><ele>398.8</ele><time>2026-04-27T15:16:07.285Z</time></trkpt><trkpt lat="39.95310101046026" lon="8.949301263094025"><ele>399.4</ele><time>2026-04-27T15:16:08.285Z</time></trkpt><trkpt lat="39.95319643358034" lon="8.949308330391467"><ele>400.0</ele><time>2026-04-27T15:16:09.285Z</time></trkpt><trkpt lat="39.95329975335633" lon="8.94929807042196"><ele>399.8</ele><time>2026-04-27T15:16:10.285Z</time></trkpt><trkpt lat="39.9533994845659" lon="8.949276655033398"><ele>399.6</ele><time>2026-04-27T15:16:11.285Z</time></trkpt><trkpt lat="39.953503278335" lon="8.949229431952178"><ele>399.4</ele><time>2026-04-27T15:16:12.285Z</time></trkpt><trkpt lat="39.95360313174918" lon="8.949170780255614"><ele>399.2</ele><time>2026-04-27T15:16:13.285Z</time></trkpt><trkpt lat="39.95369870301858" lon="8.94910014077182"><ele>399.0</ele><time>2026-04-27T15:16:14.285Z</time></trkpt><trkpt lat="39.9537848801311" lon="8.949020339523761"><ele>399.0</ele><time>2026-04-27T15:16:15.285Z</time></trkpt><trkpt lat="39.95386439843696" lon="8.948934170075264"><ele>399.0</ele><time>2026-04-27T15:16:16.285Z</time></trkpt><trkpt lat="39.95395187992719" lon="8.948844319114636"><ele>399.0</ele><time>2026-04-27T15:16:17.285Z</time></trkpt><trkpt lat="39.95404266426487" lon="8.948760389274051"><ele>399.0</ele><time>2026-04-27T15:16:18.285Z</time></trkpt><trkpt lat="39.95412919850508" lon="8.948672398519937"><ele>399.0</ele><time>2026-04-27T15:16:19.285Z</time></trkpt><trkpt lat="39.9542146143954" lon="8.94859508255886"><ele>399.4</ele><time>2026-04-27T15:16:20.285Z</time></trkpt><trkpt lat="39.95429741779298" lon="8.948510163721526"><ele>399.79999999999995</ele><time>2026-04-27T15:16:21.285Z</time></trkpt><trkpt lat="39.95437623880674" lon="8.948421470741009"><ele>400.20000000000005</ele><time>2026-04-27T15:16:22.285Z</time></trkpt><trkpt lat="39.95445654150853" lon="8.948339649492429"><ele>400.6</ele><time>2026-04-27T15:16:23.285Z</time></trkpt><trkpt lat="39.954536113799904" lon="8.948259194088136"><ele>401.0</ele><time>2026-04-27T15:16:24.285Z</time></trkpt><trkpt lat="39.95460714227381" lon="8.948184237722097"><ele>400.6</ele><time>2026-04-27T15:16:25.285Z</time></trkpt><trkpt lat="39.95467728375516" lon="8.94811598584188"><ele>400.20000000000005</ele><time>2026-04-27T15:16:26.285Z</time></trkpt><trkpt lat="39.95473721839536" lon="8.948071305252531"><ele>399.79999999999995</ele><time>2026-04-27T15:16:27.285Z</time></trkpt><trkpt lat="39.95485441922364" lon="8.94803069627316"><ele>399.4</ele><time>2026-04-27T15:16:29.285Z</time></trkpt><trkpt lat="39.95496932867926" lon="8.948045422375863"><ele>399.0</ele><time>2026-04-27T15:16:31.285Z</time></trkpt><trkpt lat="39.955094171986346" lon="8.948089266592278"><ele>399.0</ele><time>2026-04-27T15:16:33.286Z</time></trkpt><trkpt lat="39.9551539877916" lon="8.94813301250579"><ele>399.0</ele><time>2026-04-27T15:16:34.285Z</time></trkpt><trkpt lat="39.95522432466329" lon="8.948185743150129"><ele>399.0</ele><time>2026-04-27T15:16:35.286Z</time></trkpt><trkpt lat="39.95530528841892" lon="8.948249141391685"><ele>399.0</ele><time>2026-04-27T15:16:36.286Z</time></trkpt><trkpt lat="39.9553991560058" lon="8.948321635438464"><ele>399.0</ele><time>2026-04-27T15:16:37.286Z</time></trkpt><trkpt lat="39.95550041245871" lon="8.94840566091781"><ele>400.0</ele><time>2026-04-27T15:16:38.286Z</time></trkpt><trkpt lat="39.955605176774554" lon="8.9485138805942"><ele>401.0</ele><time>2026-04-27T15:16:39.286Z</time></trkpt><trkpt lat="39.955721725269235" lon="8.948616820801426"><ele>402.0</ele><time>2026-04-27T15:16:40.286Z</time></trkpt><trkpt lat="39.95584409320099" lon="8.948730885654298"><ele>403.0</ele><time>2026-04-27T15:16:41.286Z</time></trkpt><trkpt lat="39.95597863037189" lon="8.948846603330752"><ele>403.33333333333337</ele><time>2026-04-27T15:16:42.286Z</time></trkpt><trkpt lat="39.95611322520497" lon="8.948962818100302"><ele>403.66666666666663</ele><time>2026-04-27T15:16:43.285Z</time></trkpt><trkpt lat="39.95625289723852" lon="8.949085896337069"><ele>404.0</ele><time>2026-04-27T15:16:44.285Z</time></trkpt><trkpt lat="39.95639752107485" lon="8.949210701472664"><ele>405.66666666666663</ele><time>2026-04-27T15:16:45.286Z</time></trkpt><trkpt lat="39.956542770686006" lon="8.949340266504118"><ele>407.33333333333337</ele><time>2026-04-27T15:16:46.286Z</time></trkpt><trkpt lat="39.956689034993204" lon="8.949475024954122"><ele>409.0</ele><time>2026-04-27T15:16:47.286Z</time></trkpt><trkpt lat="39.95684155817919" lon="8.949609242039323"><ele>409.0</ele><time>2026-04-27T15:16:48.286Z</time></trkpt><trkpt lat="39.95699336625043" lon="8.949743810532768"><ele>409.0</ele><time>2026-04-27T15:16:49.286Z</time></trkpt><trkpt lat="39.95714664015305" lon="8.949882665981141"><ele>409.0</ele><time>2026-04-27T15:16:50.286Z</time></trkpt><trkpt lat="39.95730274028422" lon="8.95001730262844"><ele>410.0</ele><time>2026-04-27T15:16:51.286Z</time></trkpt><trkpt lat="39.957461546044215" lon="8.950150977877142"><ele>411.0</ele><time>2026-04-27T15:16:52.286Z</time></trkpt><trkpt lat="39.95762134292616" lon="8.950289451313933"><ele>412.0</ele><time>2026-04-27T15:16:53.286Z</time></trkpt><trkpt lat="39.95778302709301" lon="8.9504302941062"><ele>412.6666666666667</ele><time>2026-04-27T15:16:54.286Z</time></trkpt><trkpt lat="39.95793890559025" lon="8.950569971107086"><ele>413.33333333333337</ele><time>2026-04-27T15:16:55.286Z</time></trkpt><trkpt lat="39.95809603736448" lon="8.950709764534302"><ele>414.0</ele><time>2026-04-27T15:16:56.286Z</time></trkpt><trkpt lat="39.95825276808747" lon="8.950843982581823"><ele>415.0</ele><time>2026-04-27T15:16:57.286Z</time></trkpt><trkpt lat="39.95841654926288" lon="8.950976372549524"><ele>416.0</ele><time>2026-04-27T15:16:58.286Z</time></trkpt><trkpt lat="39.95857754795851" lon="8.951121573718781"><ele>417.0</ele><time>2026-04-27T15:16:59.286Z</time></trkpt><trkpt lat="39.95873806765427" lon="8.95126790783317"><ele>417.0</ele><time>2026-04-27T15:17:00.286Z</time></trkpt><trkpt lat="39.958895973360136" lon="8.951415125170593"><ele>417.0</ele><time>2026-04-27T15:17:01.286Z</time></trkpt><trkpt lat="39.95905084819999" lon="8.951567175122985"><ele>417.0</ele><time>2026-04-27T15:17:02.286Z</time></trkpt><trkpt lat="39.95919765813389" lon="8.95174007443327"><ele>414.0</ele><time>2026-04-27T15:17:03.286Z</time></trkpt><trkpt lat="39.95933804418842" lon="8.951925277635628"><ele>411.0</ele><time>2026-04-27T15:17:04.286Z</time></trkpt><trkpt lat="39.959472929575156" lon="8.952123709701063"><ele>408.0</ele><time>2026-04-27T15:17:05.286Z</time></trkpt><trkpt lat="39.959605020988846" lon="8.952334299184656"><ele>409.66666666666663</ele><time>2026-04-27T15:17:06.286Z</time></trkpt><trkpt lat="39.95972815140742" lon="8.952566367403834"><ele>411.3333333333333</ele><time>2026-04-27T15:17:07.286Z</time></trkpt><trkpt lat="39.95984784514339" lon="8.952798972797078"><ele>413.0</ele><time>2026-04-27T15:17:08.286Z</time></trkpt><trkpt lat="39.959958861483216" lon="8.953047762869057"><ele>408.3333333333333</ele><time>2026-04-27T15:17:09.286Z</time></trkpt><trkpt lat="39.96006921699913" lon="8.95329651990451"><ele>403.66666666666663</ele><time>2026-04-27T15:17:10.286Z</time></trkpt><trkpt lat="39.96018573474254" lon="8.953545283193835"><ele>399.0</ele><time>2026-04-27T15:17:11.286Z</time></trkpt><trkpt lat="39.96030501902494" lon="8.953798395116136"><ele>399.0</ele><time>2026-04-27T15:17:12.286Z</time></trkpt><trkpt lat="39.960426558204716" lon="8.954064538391078"><ele>399.0</ele><time>2026-04-27T15:17:13.286Z</time></trkpt><trkpt lat="39.960549566146724" lon="8.954319573341845"><ele>402.0</ele><time>2026-04-27T15:17:14.286Z</time></trkpt><trkpt lat="39.96067130196684" lon="8.95457810518105"><ele>405.0</ele><time>2026-04-27T15:17:15.286Z</time></trkpt><trkpt lat="39.96079462924398" lon="8.954838061362317"><ele>401.5</ele><time>2026-04-27T15:17:16.287Z</time></trkpt><trkpt lat="39.96091898024063" lon="8.955102416569877"><ele>398.0</ele><time>2026-04-27T15:17:17.287Z</time></trkpt><trkpt lat="39.961042561199335" lon="8.955362557280845"><ele>398.0</ele><time>2026-04-27T15:17:18.287Z</time></trkpt><trkpt lat="39.961172756851624" lon="8.955623221742064"><ele>398.0</ele><time>2026-04-27T15:17:19.287Z</time></trkpt><trkpt lat="39.96129273300297" lon="8.955883885973554"><ele>402.5</ele><time>2026-04-27T15:17:20.287Z</time></trkpt><trkpt lat="39.96141472935864" lon="8.956141783950056"><ele>407.0</ele><time>2026-04-27T15:17:21.287Z</time></trkpt><trkpt lat="39.961532708866116" lon="8.95639168402345"><ele>407.0</ele><time>2026-04-27T15:17:22.287Z</time></trkpt><trkpt lat="39.96165875585428" lon="8.95664086420881"><ele>407.0</ele><time>2026-04-27T15:17:23.287Z</time></trkpt><trkpt lat="39.96178065421838" lon="8.956892873589487"><ele>403.0</ele><time>2026-04-27T15:17:24.287Z</time></trkpt><trkpt lat="39.96190499533848" lon="8.957157574733568"><ele>399.0</ele><time>2026-04-27T15:17:25.287Z</time></trkpt><trkpt lat="39.96202898214919" lon="8.9574232074539"><ele>403.5</ele><time>2026-04-27T15:17:26.287Z</time></trkpt><trkpt lat="39.9621559942171" lon="8.95769262845744"><ele>408.0</ele><time>2026-04-27T15:17:27.287Z</time></trkpt><trkpt lat="39.96228308876934" lon="8.957970527637853"><ele>408.0</ele><time>2026-04-27T15:17:28.287Z</time></trkpt><trkpt lat="39.96241466777877" lon="8.958243454467075"><ele>408.0</ele><time>2026-04-27T15:17:29.287Z</time></trkpt><trkpt lat="39.96254568088969" lon="8.958526878150536"><ele>408.5</ele><time>2026-04-27T15:17:30.287Z</time></trkpt><trkpt lat="39.9626771208488" lon="8.958791380568377"><ele>409.0</ele><time>2026-04-27T15:17:31.287Z</time></trkpt><trkpt lat="39.96280083006021" lon="8.959062957289538"><ele>412.0</ele><time>2026-04-27T15:17:32.287Z</time></trkpt><trkpt lat="39.96292802897436" lon="8.959325062068022"><ele>415.0</ele><time>2026-04-27T15:17:33.287Z</time></trkpt><trkpt lat="39.96305335081369" lon="8.959593706571859"><ele>415.0</ele><time>2026-04-27T15:17:34.287Z</time></trkpt><trkpt lat="39.963172898872486" lon="8.959849150012191"><ele>415.0</ele><time>2026-04-27T15:17:35.287Z</time></trkpt><trkpt lat="39.96328859843209" lon="8.960104803367628"><ele>412.0</ele><time>2026-04-27T15:17:36.287Z</time></trkpt><trkpt lat="39.96338789359911" lon="8.960370906320142"><ele>409.0</ele><time>2026-04-27T15:17:37.287Z</time></trkpt><trkpt lat="39.963479491862" lon="8.960654905948102"><ele>411.0</ele><time>2026-04-27T15:17:38.287Z</time></trkpt><trkpt lat="39.96355201727529" lon="8.960944120744486"><ele>413.0</ele><time>2026-04-27T15:17:39.287Z</time></trkpt><trkpt lat="39.96361263562292" lon="8.961242975807732"><ele>413.0</ele><time>2026-04-27T15:17:40.287Z</time></trkpt><trkpt lat="39.96367500492666" lon="8.961545625072441"><ele>413.0</ele><time>2026-04-27T15:17:41.287Z</time></trkpt><trkpt lat="39.96373750254708" lon="8.961856937922988"><ele>414.0</ele><time>2026-04-27T15:17:42.287Z</time></trkpt><trkpt lat="39.963799984231336" lon="8.96216455459209"><ele>415.0</ele><time>2026-04-27T15:17:43.287Z</time></trkpt><trkpt lat="39.963864845442004" lon="8.962468590413177"><ele>416.0</ele><time>2026-04-27T15:17:44.287Z</time></trkpt><trkpt lat="39.96393045918935" lon="8.96277295781865"><ele>417.0</ele><time>2026-04-27T15:17:45.287Z</time></trkpt><trkpt lat="39.96399054029357" lon="8.963073468015073"><ele>418.0</ele><time>2026-04-27T15:17:46.287Z</time></trkpt><trkpt lat="39.964041450631704" lon="8.963375664545332"><ele>419.0</ele><time>2026-04-27T15:17:47.287Z</time></trkpt><trkpt lat="39.9640749492917" lon="8.96367833742617"><ele>419.0</ele><time>2026-04-27T15:17:48.287Z</time></trkpt><trkpt lat="39.96408796097114" lon="8.9639799614654"><ele>419.0</ele><time>2026-04-27T15:17:49.287Z</time></trkpt><trkpt lat="39.964090765038186" lon="8.964273382787336"><ele>416.0</ele><time>2026-04-27T15:17:50.287Z</time></trkpt><trkpt lat="39.964107645136394" lon="8.96456866922941"><ele>413.0</ele><time>2026-04-27T15:17:51.287Z</time></trkpt><trkpt lat="39.96415152241339" lon="8.964861230842605"><ele>415.0</ele><time>2026-04-27T15:17:52.287Z</time></trkpt><trkpt lat="39.964223557147506" lon="8.965147907276403"><ele>417.0</ele><time>2026-04-27T15:17:53.287Z</time></trkpt><trkpt lat="39.96431449849482" lon="8.965428053540501"><ele>417.0</ele><time>2026-04-27T15:17:54.287Z</time></trkpt><trkpt lat="39.96440552013955" lon="8.965716113378953"><ele>417.0</ele><time>2026-04-27T15:17:55.287Z</time></trkpt><trkpt lat="39.96450138918724" lon="8.96600518286692"><ele>413.0</ele><time>2026-04-27T15:17:56.287Z</time></trkpt><trkpt lat="39.9645963897013" lon="8.966295198343202"><ele>409.0</ele><time>2026-04-27T15:17:57.287Z</time></trkpt><trkpt lat="39.96469147021794" lon="8.966588767300955"><ele>402.5</ele><time>2026-04-27T15:17:58.287Z</time></trkpt><trkpt lat="39.964789632192215" lon="8.966878825054279"><ele>396.0</ele><time>2026-04-27T15:17:59.287Z</time></trkpt><trkpt lat="39.96489074534948" lon="8.967160978918258"><ele>396.0</ele><time>2026-04-27T15:18:00.287Z</time></trkpt><trkpt lat="39.964994217246044" lon="8.967426514802318"><ele>396.0</ele><time>2026-04-27T15:18:01.287Z</time></trkpt><trkpt lat="39.965101452931464" lon="8.967679262343117"><ele>399.0</ele><time>2026-04-27T15:18:02.287Z</time></trkpt><trkpt lat="39.96521960862272" lon="8.967935916935627"><ele>402.0</ele><time>2026-04-27T15:18:03.287Z</time></trkpt><trkpt lat="39.96535006634229" lon="8.968194070900811"><ele>393.0</ele><time>2026-04-27T15:18:04.287Z</time></trkpt><trkpt lat="39.96548673662618" lon="8.968451011965367"><ele>384.0</ele><time>2026-04-27T15:18:05.287Z</time></trkpt><trkpt lat="39.96562408871648" lon="8.968710735870816"><ele>384.0</ele><time>2026-04-27T15:18:06.287Z</time></trkpt><trkpt lat="39.9657650738802" lon="8.968971610923052"><ele>384.0</ele><time>2026-04-27T15:18:07.287Z</time></trkpt><trkpt lat="39.96589946386073" lon="8.969221856658766"><ele>382.6666666666667</ele><time>2026-04-27T15:18:08.287Z</time></trkpt><trkpt lat="39.96602473504579" lon="8.969461174466222"><ele>381.33333333333337</ele><time>2026-04-27T15:18:09.287Z</time></trkpt><trkpt lat="39.966145820460135" lon="8.969688433742409"><ele>380.0</ele><time>2026-04-27T15:18:10.287Z</time></trkpt><trkpt lat="39.96627511234341" lon="8.969892525147735"><ele>375.33333333333337</ele><time>2026-04-27T15:18:11.287Z</time></trkpt><trkpt lat="39.96643814725777" lon="8.970049682962134"><ele>370.6666666666667</ele><time>2026-04-27T15:18:12.287Z</time></trkpt><trkpt lat="39.96661623366726" lon="8.97017146576609"><ele>366.0</ele><time>2026-04-27T15:18:13.287Z</time></trkpt><trkpt lat="39.96681861582992" lon="8.970248108946537"><ele>366.0</ele><time>2026-04-27T15:18:14.287Z</time></trkpt><trkpt lat="39.967041115201205" lon="8.970314644564327"><ele>366.0</ele><time>2026-04-27T15:18:15.287Z</time></trkpt><trkpt lat="39.96725057531235" lon="8.970418963732177"><ele>366.0</ele><time>2026-04-27T15:18:16.287Z</time></trkpt><trkpt lat="39.967435810004275" lon="8.97056224405265"><ele>366.0</ele><time>2026-04-27T15:18:17.287Z</time></trkpt><trkpt lat="39.967598873613696" lon="8.970730824956144"><ele>366.0</ele><time>2026-04-27T15:18:18.287Z</time></trkpt><trkpt lat="39.96774019832425" lon="8.970929808419982"><ele>368.6666666666667</ele><time>2026-04-27T15:18:19.287Z</time></trkpt><trkpt lat="39.96785630148756" lon="8.971151182081826"><ele>371.33333333333337</ele><time>2026-04-27T15:18:20.287Z</time></trkpt><trkpt lat="39.96793916926316" lon="8.971406269570942"><ele>374.0</ele><time>2026-04-27T15:18:21.287Z</time></trkpt><trkpt lat="39.96800003713196" lon="8.97168501335506"><ele>370.33333333333337</ele><time>2026-04-27T15:18:22.287Z</time></trkpt><trkpt lat="39.96804884208622" lon="8.971966036623218"><ele>366.6666666666667</ele><time>2026-04-27T15:18:23.287Z</time></trkpt><trkpt lat="39.96810851179004" lon="8.972236420703004"><ele>363.0</ele><time>2026-04-27T15:18:24.287Z</time></trkpt><trkpt lat="39.96820045339698" lon="8.97249006595711"><ele>366.0</ele><time>2026-04-27T15:18:25.287Z</time></trkpt><trkpt lat="39.96832874604295" lon="8.972717309878886"><ele>369.0</ele><time>2026-04-27T15:18:26.287Z</time></trkpt><trkpt lat="39.96848639474476" lon="8.972943087141767"><ele>369.0</ele><time>2026-04-27T15:18:27.287Z</time></trkpt><trkpt lat="39.968652719863364" lon="8.973169294068834"><ele>369.0</ele><time>2026-04-27T15:18:28.287Z</time></trkpt><trkpt lat="39.968813478616" lon="8.97339681993192"><ele>359.0</ele><time>2026-04-27T15:18:29.288Z</time></trkpt><trkpt lat="39.96895196754551" lon="8.973627360790921"><ele>349.0</ele><time>2026-04-27T15:18:30.288Z</time></trkpt><trkpt lat="39.96907980334605" lon="8.973888680224025"><ele>348.5</ele><time>2026-04-27T15:18:31.288Z</time></trkpt><trkpt lat="39.96919592373679" lon="8.974147251309198"><ele>348.0</ele><time>2026-04-27T15:18:32.288Z</time></trkpt><trkpt lat="39.969267886468664" lon="8.974433076468985"><ele>348.0</ele><time>2026-04-27T15:18:33.288Z</time></trkpt><trkpt lat="39.96931907958147" lon="8.974681132523802"><ele>348.0</ele><time>2026-04-27T15:18:34.288Z</time></trkpt><trkpt lat="39.969400346597155" lon="8.97490622390131"><ele>348.0</ele><time>2026-04-27T15:18:35.288Z</time></trkpt><trkpt lat="39.96951894791401" lon="8.97511067534587"><ele>343.0</ele><time>2026-04-27T15:18:36.288Z</time></trkpt><trkpt lat="39.96967293410284" lon="8.975263383394063"><ele>338.0</ele><time>2026-04-27T15:18:37.288Z</time></trkpt><trkpt lat="39.96984892328959" lon="8.97536506450962"><ele>333.0</ele><time>2026-04-27T15:18:38.288Z</time></trkpt><trkpt lat="39.970045801224785" lon="8.975410957196987"><ele>331.3333333333333</ele><time>2026-04-27T15:18:39.288Z</time></trkpt><trkpt lat="39.97024052579117" lon="8.97537682085208"><ele>329.66666666666663</ele><time>2026-04-27T15:18:40.288Z</time></trkpt><trkpt lat="39.970436333587685" lon="8.9754022103589"><ele>328.0</ele><time>2026-04-27T15:18:41.288Z</time></trkpt><trkpt lat="39.97062681179808" lon="8.975252604246169"><ele>328.0</ele><time>2026-04-27T15:18:42.288Z</time></trkpt><trkpt lat="39.97081411534389" lon="8.975091856866449"><ele>328.0</ele><time>2026-04-27T15:18:43.288Z</time></trkpt><trkpt lat="39.970997093379644" lon="8.974965377420741"><ele>328.0</ele><time>2026-04-27T15:18:44.288Z</time></trkpt><trkpt lat="39.971175809406475" lon="8.974887162462567"><ele>330.0</ele><time>2026-04-27T15:18:45.289Z</time></trkpt><trkpt lat="39.97135926805389" lon="8.97485579982354"><ele>332.0</ele><time>2026-04-27T15:18:46.288Z</time></trkpt><trkpt lat="39.97153454348457" lon="8.974903736807867"><ele>334.0</ele><time>2026-04-27T15:18:47.288Z</time></trkpt><trkpt lat="39.97170204901315" lon="8.975036616636796"><ele>334.66666666666663</ele><time>2026-04-27T15:18:48.288Z</time></trkpt><trkpt lat="39.97185587234381" lon="8.975211717452574"><ele>335.3333333333333</ele><time>2026-04-27T15:18:49.288Z</time></trkpt><trkpt lat="39.97197872383633" lon="8.975409957341704"><ele>336.0</ele><time>2026-04-27T15:18:50.288Z</time></trkpt><trkpt lat="39.972053288520364" lon="8.975644533116384"><ele>337.0</ele><time>2026-04-27T15:18:51.289Z</time></trkpt><trkpt lat="39.97206148037406" lon="8.975895604441831"><ele>338.0</ele><time>2026-04-27T15:18:52.289Z</time></trkpt><trkpt lat="39.97202034874391" lon="8.976138664688802"><ele>339.0</ele><time>2026-04-27T15:18:53.289Z</time></trkpt><trkpt lat="39.971946818862385" lon="8.976363217851974"><ele>339.0</ele><time>2026-04-27T15:18:54.289Z</time></trkpt><trkpt lat="39.97184151415109" lon="8.976553107392512"><ele>339.0</ele><time>2026-04-27T15:18:55.289Z</time></trkpt><trkpt lat="39.971716574906566" lon="8.976708155740338"><ele>339.0</ele><time>2026-04-27T15:18:56.289Z</time></trkpt><trkpt lat="39.97157732110431" lon="8.97683412457688"><ele>337.3333333333333</ele><time>2026-04-27T15:18:57.289Z</time></trkpt><trkpt lat="39.97143086618324" lon="8.976933329642634"><ele>335.66666666666663</ele><time>2026-04-27T15:18:58.289Z</time></trkpt><trkpt lat="39.971280613552636" lon="8.977045441849606"><ele>334.0</ele><time>2026-04-27T15:18:59.289Z</time></trkpt><trkpt lat="39.97112032236875" lon="8.977182360811208"><ele>334.0</ele><time>2026-04-27T15:19:00.289Z</time></trkpt><trkpt lat="39.97093959090255" lon="8.977312676571334"><ele>334.0</ele><time>2026-04-27T15:19:01.289Z</time></trkpt><trkpt lat="39.97075689572662" lon="8.977436003598742"><ele>334.0</ele><time>2026-04-27T15:19:02.289Z</time></trkpt><trkpt lat="39.97058526418393" lon="8.97755088395243"><ele>332.0</ele><time>2026-04-27T15:19:03.289Z</time></trkpt><trkpt lat="39.97039261801279" lon="8.977664811330104"><ele>330.0</ele><time>2026-04-27T15:19:04.289Z</time></trkpt><trkpt lat="39.97025642886034" lon="8.977774804496025"><ele>328.0</ele><time>2026-04-27T15:19:05.289Z</time></trkpt><trkpt lat="39.97013438842728" lon="8.977895133356387"><ele>328.0</ele><time>2026-04-27T15:19:06.289Z</time></trkpt><trkpt lat="39.9700392220544" lon="8.978039470299654"><ele>328.0</ele><time>2026-04-27T15:19:07.289Z</time></trkpt><trkpt lat="39.969959626127945" lon="8.978200460339265"><ele>328.0</ele><time>2026-04-27T15:19:08.289Z</time></trkpt><trkpt lat="39.9699034177094" lon="8.978379504419701"><ele>328.0</ele><time>2026-04-27T15:19:09.289Z</time></trkpt><trkpt lat="39.96986061238635" lon="8.978573673788427"><ele>323.3333333333333</ele><time>2026-04-27T15:19:10.289Z</time></trkpt><trkpt lat="39.96983560589376" lon="8.978772541996385"><ele>318.6666666666667</ele><time>2026-04-27T15:19:11.289Z</time></trkpt><trkpt lat="39.96982127967487" lon="8.978977422185759"><ele>314.0</ele><time>2026-04-27T15:19:12.289Z</time></trkpt><trkpt lat="39.96981571964659" lon="8.979191927298592"><ele>313.33333333333337</ele><time>2026-04-27T15:19:13.289Z</time></trkpt><trkpt lat="39.96984625471413" lon="8.979408107025431"><ele>312.6666666666667</ele><time>2026-04-27T15:19:14.289Z</time></trkpt><trkpt lat="39.969926781085796" lon="8.97964203699326"><ele>312.0</ele><time>2026-04-27T15:19:15.289Z</time></trkpt><trkpt lat="39.97001850073029" lon="8.979898319215334"><ele>315.0</ele><time>2026-04-27T15:19:16.29Z</time></trkpt><trkpt lat="39.97009798629188" lon="8.98018866496064"><ele>318.0</ele><time>2026-04-27T15:19:17.29Z</time></trkpt><trkpt lat="39.97015440315308" lon="8.980486464094563"><ele>318.0</ele><time>2026-04-27T15:19:18.29Z</time></trkpt><trkpt lat="39.97017266432132" lon="8.980797559541152"><ele>318.0</ele><time>2026-04-27T15:19:19.29Z</time></trkpt><trkpt lat="39.97017485494966" lon="8.981092345627609"><ele>314.3333333333333</ele><time>2026-04-27T15:19:20.29Z</time></trkpt><trkpt lat="39.9702062656196" lon="8.981388355050388"><ele>310.66666666666663</ele><time>2026-04-27T15:19:21.29Z</time></trkpt><trkpt lat="39.97026431529172" lon="8.981663833593228"><ele>307.0</ele><time>2026-04-27T15:19:22.29Z</time></trkpt><trkpt lat="39.97033982335029" lon="8.98191858896936"><ele>305.3333333333333</ele><time>2026-04-27T15:19:23.29Z</time></trkpt><trkpt lat="39.97042700189434" lon="8.982149036005296"><ele>303.6666666666667</ele><time>2026-04-27T15:19:24.29Z</time></trkpt><trkpt lat="39.970513467125635" lon="8.982348265151126"><ele>302.0</ele><time>2026-04-27T15:19:25.29Z</time></trkpt><trkpt lat="39.970623172924014" lon="8.982505434611141"><ele>304.0</ele><time>2026-04-27T15:19:26.29Z</time></trkpt><trkpt lat="39.97076131875975" lon="8.982614964090603"><ele>306.0</ele><time>2026-04-27T15:19:27.29Z</time></trkpt><trkpt lat="39.97092985008765" lon="8.982662685390752"><ele>308.0</ele><time>2026-04-27T15:19:28.29Z</time></trkpt><trkpt lat="39.971128675245936" lon="8.982619636872302"><ele>304.0</ele><time>2026-04-27T15:19:29.29Z</time></trkpt><trkpt lat="39.9713294536304" lon="8.982575289347709"><ele>300.0</ele><time>2026-04-27T15:19:30.29Z</time></trkpt><trkpt lat="39.971527423106515" lon="8.982552732577926"><ele>296.0</ele><time>2026-04-27T15:19:31.29Z</time></trkpt><trkpt lat="39.9717192950544" lon="8.98253331869121"><ele>290.0</ele><time>2026-04-27T15:19:32.29Z</time></trkpt><trkpt lat="39.97189980379615" lon="8.98252910547068"><ele>284.0</ele><time>2026-04-27T15:19:33.29Z</time></trkpt><trkpt lat="39.972075348000196" lon="8.982539926853118"><ele>278.0</ele><time>2026-04-27T15:19:34.29Z</time></trkpt><trkpt lat="39.97224043163558" lon="8.982579244071609"><ele>278.0</ele><time>2026-04-27T15:19:35.29Z</time></trkpt><trkpt lat="39.97240596234887" lon="8.982667300066352"><ele>278.0</ele><time>2026-04-27T15:19:36.29Z</time></trkpt><trkpt lat="39.97253944264254" lon="8.982821363722124"><ele>278.0</ele><time>2026-04-27T15:19:37.29Z</time></trkpt><trkpt lat="39.972634167310225" lon="8.983020525453789"><ele>277.33333333333337</ele><time>2026-04-27T15:19:38.29Z</time></trkpt><trkpt lat="39.97272428170091" lon="8.983243876526178"><ele>276.6666666666667</ele><time>2026-04-27T15:19:39.29Z</time></trkpt><trkpt lat="39.97283153840809" lon="8.9834502605477"><ele>276.0</ele><time>2026-04-27T15:19:40.29Z</time></trkpt><trkpt lat="39.97294522692795" lon="8.983651393277013"><ele>276.0</ele><time>2026-04-27T15:19:41.29Z</time></trkpt><trkpt lat="39.97306037850139" lon="8.983857998111114"><ele>276.0</ele><time>2026-04-27T15:19:42.29Z</time></trkpt><trkpt lat="39.97317747943839" lon="8.984057836767423"><ele>276.0</ele><time>2026-04-27T15:19:43.29Z</time></trkpt><trkpt lat="39.97329127025666" lon="8.984255303779792"><ele>278.3333333333333</ele><time>2026-04-27T15:19:44.29Z</time></trkpt><trkpt lat="39.9733908171135" lon="8.98443872179581"><ele>280.66666666666663</ele><time>2026-04-27T15:19:45.29Z</time></trkpt><trkpt lat="39.973469197691024" lon="8.984623532593046"><ele>283.0</ele><time>2026-04-27T15:19:46.29Z</time></trkpt><trkpt lat="39.9735316025591" lon="8.984823676904616"><ele>287.3333333333333</ele><time>2026-04-27T15:19:47.29Z</time></trkpt><trkpt lat="39.97357577710541" lon="8.985040401356567"><ele>291.6666666666667</ele><time>2026-04-27T15:19:48.29Z</time></trkpt><trkpt lat="39.97360148532385" lon="8.98527253633849"><ele>296.0</ele><time>2026-04-27T15:19:49.29Z</time></trkpt><trkpt lat="39.973613464486384" lon="8.985509193703637"><ele>296.0</ele><time>2026-04-27T15:19:50.29Z</time></trkpt><trkpt lat="39.97362025762011" lon="8.985748334554057"><ele>296.0</ele><time>2026-04-27T15:19:51.29Z</time></trkpt><trkpt lat="39.97363198668992" lon="8.985992830413393"><ele>296.0</ele><time>2026-04-27T15:19:52.29Z</time></trkpt><trkpt lat="39.97365653829752" lon="8.986242272777604"><ele>298.33333333333337</ele><time>2026-04-27T15:19:53.29Z</time></trkpt><trkpt lat="39.973679615747145" lon="8.986496281911485"><ele>300.6666666666667</ele><time>2026-04-27T15:19:54.29Z</time></trkpt><trkpt lat="39.97370126285414" lon="8.986751403147466"><ele>303.0</ele><time>2026-04-27T15:19:55.29Z</time></trkpt><trkpt lat="39.97372287892871" lon="8.987006658564642"><ele>304.0</ele><time>2026-04-27T15:19:56.29Z</time></trkpt><trkpt lat="39.9737414067943" lon="8.987269885050388"><ele>305.0</ele><time>2026-04-27T15:19:57.29Z</time></trkpt><trkpt lat="39.97376076324195" lon="8.987536383783178"><ele>306.0</ele><time>2026-04-27T15:19:58.29Z</time></trkpt><trkpt lat="39.97377914354813" lon="8.987804346441516"><ele>306.6666666666667</ele><time>2026-04-27T15:19:59.29Z</time></trkpt><trkpt lat="39.973785338844095" lon="8.98807331089882"><ele>307.33333333333337</ele><time>2026-04-27T15:20:00.29Z</time></trkpt><trkpt lat="39.973768443938965" lon="8.988341420774493"><ele>308.0</ele><time>2026-04-27T15:20:01.29Z</time></trkpt><trkpt lat="39.973690254774915" lon="8.988601488732664"><ele>307.6666666666667</ele><time>2026-04-27T15:20:02.29Z</time></trkpt><trkpt lat="39.9735784719445" lon="8.988833005187203"><ele>307.3333333333333</ele><time>2026-04-27T15:20:03.29Z</time></trkpt><trkpt lat="39.973455956515636" lon="8.989048199621665"><ele>307.0</ele><time>2026-04-27T15:20:04.29Z</time></trkpt><trkpt lat="39.97333799616973" lon="8.98927156867394"><ele>307.0</ele><time>2026-04-27T15:20:05.29Z</time></trkpt><trkpt lat="39.973251091052006" lon="8.989520383941045"><ele>307.0</ele><time>2026-04-27T15:20:06.29Z</time></trkpt><trkpt lat="39.97320806400442" lon="8.989801097302767"><ele>307.0</ele><time>2026-04-27T15:20:07.29Z</time></trkpt><trkpt lat="39.97319773860851" lon="8.990095084686976"><ele>310.0</ele><time>2026-04-27T15:20:08.29Z</time></trkpt><trkpt lat="39.973182194260076" lon="8.990383329267722"><ele>313.0</ele><time>2026-04-27T15:20:09.29Z</time></trkpt><trkpt lat="39.97316637309601" lon="8.99067510127137"><ele>316.0</ele><time>2026-04-27T15:20:10.29Z</time></trkpt><trkpt lat="39.973152924246186" lon="8.990970066803428"><ele>319.5</ele><time>2026-04-27T15:20:11.29Z</time></trkpt><trkpt lat="39.97313804608944" lon="8.991262067404904"><ele>323.0</ele><time>2026-04-27T15:20:12.29Z</time></trkpt><trkpt lat="39.97312831676853" lon="8.991561403042521"><ele>325.0</ele><time>2026-04-27T15:20:13.29Z</time></trkpt><trkpt lat="39.973066655233104" lon="8.99183458596478"><ele>327.0</ele><time>2026-04-27T15:20:14.29Z</time></trkpt><trkpt lat="39.97296814817444" lon="8.99207832849116"><ele>329.0</ele><time>2026-04-27T15:20:15.29Z</time></trkpt><trkpt lat="39.97289160128699" lon="8.992314028843749"><ele>328.6666666666667</ele><time>2026-04-27T15:20:16.29Z</time></trkpt><trkpt lat="39.972852622543215" lon="8.992561187177639"><ele>328.3333333333333</ele><time>2026-04-27T15:20:17.29Z</time></trkpt><trkpt lat="39.972864656473604" lon="8.992813147191752"><ele>328.0</ele><time>2026-04-27T15:20:18.29Z</time></trkpt><trkpt lat="39.972933835474116" lon="8.993068562820927"><ele>328.0</ele><time>2026-04-27T15:20:19.29Z</time></trkpt><trkpt lat="39.973041655140655" lon="8.993311700705014"><ele>328.0</ele><time>2026-04-27T15:20:20.29Z</time></trkpt><trkpt lat="39.9731936785899" lon="8.993515969300384"><ele>328.0</ele><time>2026-04-27T15:20:21.29Z</time></trkpt><trkpt lat="39.97335083989319" lon="8.99371335248065"><ele>331.3333333333333</ele><time>2026-04-27T15:20:22.29Z</time></trkpt><trkpt lat="39.97349180359737" lon="8.993931455079654"><ele>334.6666666666667</ele><time>2026-04-27T15:20:23.29Z</time></trkpt><trkpt lat="39.97362973066142" lon="8.994159830441205"><ele>338.0</ele><time>2026-04-27T15:20:24.29Z</time></trkpt><trkpt lat="39.97373426799978" lon="8.994405594066071"><ele>338.0</ele><time>2026-04-27T15:20:25.29Z</time></trkpt><trkpt lat="39.97378836502825" lon="8.99468041245893"><ele>338.0</ele><time>2026-04-27T15:20:26.29Z</time></trkpt><trkpt lat="39.97378927128538" lon="8.994974799791322"><ele>338.0</ele><time>2026-04-27T15:20:27.29Z</time></trkpt><trkpt lat="39.973796097692635" lon="8.995258557043247"><ele>338.0</ele><time>2026-04-27T15:20:28.29Z</time></trkpt><trkpt lat="39.97385132580074" lon="8.995533229712983"><ele>338.0</ele><time>2026-04-27T15:20:29.291Z</time></trkpt><trkpt lat="39.973958953332996" lon="8.995785299566151"><ele>338.0</ele><time>2026-04-27T15:20:30.291Z</time></trkpt><trkpt lat="39.97408386655424" lon="8.996030407820616"><ele>344.33333333333337</ele><time>2026-04-27T15:20:31.291Z</time></trkpt><trkpt lat="39.97420074253553" lon="8.996279721109818"><ele>350.6666666666667</ele><time>2026-04-27T15:20:32.291Z</time></trkpt><trkpt lat="39.97430829486887" lon="8.996533631360967"><ele>357.0</ele><time>2026-04-27T15:20:33.291Z</time></trkpt><trkpt lat="39.97441302697059" lon="8.996791261621262"><ele>357.0</ele><time>2026-04-27T15:20:34.291Z</time></trkpt><trkpt lat="39.97451641008186" lon="8.9970401661488"><ele>357.0</ele><time>2026-04-27T15:20:35.291Z</time></trkpt><trkpt lat="39.974617188458495" lon="8.997292647664974"><ele>357.0</ele><time>2026-04-27T15:20:36.291Z</time></trkpt><trkpt lat="39.97470117629339" lon="8.997556426678218"><ele>356.0</ele><time>2026-04-27T15:20:37.291Z</time></trkpt><trkpt lat="39.97476549100359" lon="8.99783234112569"><ele>355.0</ele><time>2026-04-27T15:20:38.291Z</time></trkpt><trkpt lat="39.97480168240688" lon="8.998108770195756"><ele>354.0</ele><time>2026-04-27T15:20:39.291Z</time></trkpt><trkpt lat="39.97479401543613" lon="8.99838540755354"><ele>350.6666666666667</ele><time>2026-04-27T15:20:40.291Z</time></trkpt><trkpt lat="39.97475423456442" lon="8.998663159731752"><ele>347.33333333333337</ele><time>2026-04-27T15:20:41.291Z</time></trkpt><trkpt lat="39.97470623309419" lon="8.998937573154473"><ele>344.0</ele><time>2026-04-27T15:20:42.291Z</time></trkpt><trkpt lat="39.974661538731645" lon="8.999219667865855"><ele>342.6666666666667</ele><time>2026-04-27T15:20:43.291Z</time></trkpt><trkpt lat="39.97461814253456" lon="8.99949758441429"><ele>341.3333333333333</ele><time>2026-04-27T15:20:44.291Z</time></trkpt><trkpt lat="39.97459217062351" lon="8.999780659888952"><ele>340.0</ele><time>2026-04-27T15:20:45.291Z</time></trkpt><trkpt lat="39.97459727442616" lon="9.000071483726202"><ele>340.0</ele><time>2026-04-27T15:20:46.292Z</time></trkpt><trkpt lat="39.974619375573496" lon="9.000364449617633"><ele>340.0</ele><time>2026-04-27T15:20:47.292Z</time></trkpt><trkpt lat="39.974668270906605" lon="9.000664027839067"><ele>336.5</ele><time>2026-04-27T15:20:48.292Z</time></trkpt><trkpt lat="39.974722174857824" lon="9.000973274048416"><ele>333.0</ele><time>2026-04-27T15:20:49.292Z</time></trkpt><trkpt lat="39.974777924672836" lon="9.001276925497049"><ele>333.0</ele><time>2026-04-27T15:20:50.292Z</time></trkpt><trkpt lat="39.97483432690017" lon="9.00158895443293"><ele>333.0</ele><time>2026-04-27T15:20:51.291Z</time></trkpt><trkpt lat="39.97488684194579" lon="9.001892193254129"><ele>327.5</ele><time>2026-04-27T15:20:52.291Z</time></trkpt><trkpt lat="39.974936804710524" lon="9.002186498673094"><ele>322.0</ele><time>2026-04-27T15:20:53.291Z</time></trkpt><trkpt lat="39.97498521401386" lon="9.002476212573796"><ele>320.0</ele><time>2026-04-27T15:20:54.292Z</time></trkpt><trkpt lat="39.975015317311275" lon="9.002775199882393"><ele>318.0</ele><time>2026-04-27T15:20:55.292Z</time></trkpt><trkpt lat="39.975029649921844" lon="9.003073210462148"><ele>318.0</ele><time>2026-04-27T15:20:56.292Z</time></trkpt><trkpt lat="39.975031213724584" lon="9.003379850702899"><ele>318.0</ele><time>2026-04-27T15:20:57.291Z</time></trkpt><trkpt lat="39.97503203527849" lon="9.00368940302853"><ele>318.0</ele><time>2026-04-27T15:20:58.291Z</time></trkpt><trkpt lat="39.97503588772562" lon="9.004001636018215"><ele>318.0</ele><time>2026-04-27T15:20:59.291Z</time></trkpt><trkpt lat="39.97503811925521" lon="9.004319636176106"><ele>314.5</ele><time>2026-04-27T15:21:00.291Z</time></trkpt><trkpt lat="39.97503885624072" lon="9.004627576583967"><ele>311.0</ele><time>2026-04-27T15:21:01.291Z</time></trkpt><trkpt lat="39.97503989194927" lon="9.004928840539693"><ele>307.5</ele><time>2026-04-27T15:21:02.291Z</time></trkpt><trkpt lat="39.97505436202292" lon="9.005228595453303"><ele>304.0</ele><time>2026-04-27T15:21:03.291Z</time></trkpt><trkpt lat="39.97506470038909" lon="9.005533336944351"><ele>302.0</ele><time>2026-04-27T15:21:04.291Z</time></trkpt><trkpt lat="39.97506509235848" lon="9.005828762161839"><ele>300.0</ele><time>2026-04-27T15:21:05.291Z</time></trkpt><trkpt lat="39.975069703644564" lon="9.006136585297305"><ele>300.0</ele><time>2026-04-27T15:21:06.291Z</time></trkpt><trkpt lat="39.9750714379999" lon="9.006442749134958"><ele>300.0</ele><time>2026-04-27T15:21:07.291Z</time></trkpt><trkpt lat="39.975079829326944" lon="9.00674563585053"><ele>302.5</ele><time>2026-04-27T15:21:08.291Z</time></trkpt><trkpt lat="39.97509193994988" lon="9.007041950653901"><ele>305.0</ele><time>2026-04-27T15:21:09.292Z</time></trkpt><trkpt lat="39.97512692016052" lon="9.007340988073242"><ele>308.5</ele><time>2026-04-27T15:21:10.292Z</time></trkpt><trkpt lat="39.975174918334815" lon="9.007640606661397"><ele>312.0</ele><time>2026-04-27T15:21:11.292Z</time></trkpt><trkpt lat="39.97523289485928" lon="9.00793261426343"><ele>312.0</ele><time>2026-04-27T15:21:12.292Z</time></trkpt><trkpt lat="39.97530941473974" lon="9.008209813722749"><ele>312.0</ele><time>2026-04-27T15:21:13.292Z</time></trkpt><trkpt lat="39.97541657740636" lon="9.008461775704822"><ele>312.0</ele><time>2026-04-27T15:21:14.292Z</time></trkpt><trkpt lat="39.97556090496652" lon="9.00868978370828"><ele>312.5</ele><time>2026-04-27T15:21:15.292Z</time></trkpt><trkpt lat="39.97573882473258" lon="9.00888491686597"><ele>313.0</ele><time>2026-04-27T15:21:16.292Z</time></trkpt><trkpt lat="39.97592648512407" lon="9.009079348386448"><ele>315.0</ele><time>2026-04-27T15:21:17.292Z</time></trkpt><trkpt lat="39.97610490917023" lon="9.009288403224637"><ele>317.0</ele><time>2026-04-27T15:21:18.292Z</time></trkpt><trkpt lat="39.97628341725299" lon="9.009507800596172"><ele>317.0</ele><time>2026-04-27T15:21:19.292Z</time></trkpt><trkpt lat="39.9764518897528" lon="9.009733313689512"><ele>317.0</ele><time>2026-04-27T15:21:20.292Z</time></trkpt><trkpt lat="39.97663144088174" lon="9.00995647115358"><ele>319.0</ele><time>2026-04-27T15:21:21.292Z</time></trkpt><trkpt lat="39.97680400609884" lon="9.01017852330135"><ele>321.0</ele><time>2026-04-27T15:21:22.292Z</time></trkpt><trkpt lat="39.976980115590024" lon="9.010398577380645"><ele>321.0</ele><time>2026-04-27T15:21:23.292Z</time></trkpt><trkpt lat="39.97715918363545" lon="9.01061721211913"><ele>321.0</ele><time>2026-04-27T15:21:24.292Z</time></trkpt><trkpt lat="39.977335800035675" lon="9.010835421900984"><ele>320.0</ele><time>2026-04-27T15:21:25.292Z</time></trkpt><trkpt lat="39.97750884637692" lon="9.011054213137706"><ele>319.0</ele><time>2026-04-27T15:21:26.292Z</time></trkpt><trkpt lat="39.97768076789293" lon="9.011269458464296"><ele>321.5</ele><time>2026-04-27T15:21:27.292Z</time></trkpt><trkpt lat="39.97785323592484" lon="9.011478837620013"><ele>324.0</ele><time>2026-04-27T15:21:28.292Z</time></trkpt><trkpt lat="39.9780232619789" lon="9.011691185492111"><ele>324.0</ele><time>2026-04-27T15:21:29.292Z</time></trkpt><trkpt lat="39.97817238534263" lon="9.01190838247062"><ele>324.0</ele><time>2026-04-27T15:21:30.292Z</time></trkpt><trkpt lat="39.97829506170496" lon="9.012145832834085"><ele>324.0</ele><time>2026-04-27T15:21:31.292Z</time></trkpt><trkpt lat="39.97838260101157" lon="9.01239810782155"><ele>325.3333333333333</ele><time>2026-04-27T15:21:32.292Z</time></trkpt><trkpt lat="39.978431059098774" lon="9.012675140315157"><ele>326.66666666666663</ele><time>2026-04-27T15:21:33.292Z</time></trkpt><trkpt lat="39.97845318844646" lon="9.01296777239968"><ele>328.0</ele><time>2026-04-27T15:21:34.292Z</time></trkpt><trkpt lat="39.978472518519254" lon="9.01326208631601"><ele>329.0</ele><time>2026-04-27T15:21:35.292Z</time></trkpt><trkpt lat="39.97851813035239" lon="9.013537663000061"><ele>330.0</ele><time>2026-04-27T15:21:36.292Z</time></trkpt><trkpt lat="39.978597179134304" lon="9.013805947137657"><ele>331.0</ele><time>2026-04-27T15:21:37.292Z</time></trkpt><trkpt lat="39.97870191401672" lon="9.014035408267304"><ele>331.0</ele><time>2026-04-27T15:21:38.292Z</time></trkpt><trkpt lat="39.97883263066501" lon="9.014209657605992"><ele>331.0</ele><time>2026-04-27T15:21:39.292Z</time></trkpt><trkpt lat="39.979008003496574" lon="9.01434508465476"><ele>331.0</ele><time>2026-04-27T15:21:40.292Z</time></trkpt><trkpt lat="39.979204354306525" lon="9.014461069423643"><ele>334.0</ele><time>2026-04-27T15:21:41.292Z</time></trkpt><trkpt lat="39.979371213695075" lon="9.014624715054328"><ele>337.0</ele><time>2026-04-27T15:21:42.292Z</time></trkpt><trkpt lat="39.97951179245477" lon="9.014840226683093"><ele>340.0</ele><time>2026-04-27T15:21:43.292Z</time></trkpt><trkpt lat="39.97959473060069" lon="9.01510371839836"><ele>340.3333333333333</ele><time>2026-04-27T15:21:44.292Z</time></trkpt><trkpt lat="39.97965755880739" lon="9.015375255155842"><ele>340.6666666666667</ele><time>2026-04-27T15:21:45.292Z</time></trkpt><trkpt lat="39.97970507970834" lon="9.015663247158198"><ele>341.0</ele><time>2026-04-27T15:21:46.292Z</time></trkpt><trkpt lat="39.97976782717925" lon="9.015948077344433"><ele>341.5</ele><time>2026-04-27T15:21:47.292Z</time></trkpt><trkpt lat="39.979838402167694" lon="9.016231194686823"><ele>342.0</ele><time>2026-04-27T15:21:48.292Z</time></trkpt><trkpt lat="39.97991360346974" lon="9.016520439215988"><ele>342.0</ele><time>2026-04-27T15:21:49.292Z</time></trkpt><trkpt lat="39.97998663049609" lon="9.016793645771857"><ele>342.0</ele><time>2026-04-27T15:21:50.292Z</time></trkpt><trkpt lat="39.980049192567705" lon="9.017039755322068"><ele>342.0</ele><time>2026-04-27T15:21:51.292Z</time></trkpt><trkpt lat="39.98011106293098" lon="9.017268042684405"><ele>350.3333333333333</ele><time>2026-04-27T15:21:52.292Z</time></trkpt><trkpt lat="39.9802078770074" lon="9.017459560047596"><ele>358.66666666666663</ele><time>2026-04-27T15:21:53.292Z</time></trkpt><trkpt lat="39.980343101964465" lon="9.017604333722165"><ele>367.0</ele><time>2026-04-27T15:21:54.292Z</time></trkpt><trkpt lat="39.98051990632487" lon="9.017713034278872"><ele>367.0</ele><time>2026-04-27T15:21:55.292Z</time></trkpt><trkpt lat="39.98066933496083" lon="9.017809363937557"><ele>367.0</ele><time>2026-04-27T15:21:56.292Z</time></trkpt><trkpt lat="39.98076794294978" lon="9.017944727081959"><ele>367.0</ele><time>2026-04-27T15:21:57.292Z</time></trkpt><trkpt lat="39.98081632709843" lon="9.018123996052761"><ele>364.3333333333333</ele><time>2026-04-27T15:21:58.292Z</time></trkpt><trkpt lat="39.98080411383586" lon="9.018339176832558"><ele>361.6666666666667</ele><time>2026-04-27T15:21:59.292Z</time></trkpt><trkpt lat="39.98074416738103" lon="9.018556056800954"><ele>359.0</ele><time>2026-04-27T15:22:00.292Z</time></trkpt><trkpt lat="39.980671665956464" lon="9.018775128277458"><ele>359.0</ele><time>2026-04-27T15:22:01.292Z</time></trkpt><trkpt lat="39.980586871616794" lon="9.018984829886417"><ele>359.0</ele><time>2026-04-27T15:22:02.292Z</time></trkpt><trkpt lat="39.98050830576569" lon="9.019189434221662"><ele>359.0</ele><time>2026-04-27T15:22:03.292Z</time></trkpt><trkpt lat="39.98047239199802" lon="9.019368306460636"><ele>359.0</ele><time>2026-04-27T15:22:04.292Z</time></trkpt><trkpt lat="39.98050814175634" lon="9.01954779088451"><ele>359.0</ele><time>2026-04-27T15:22:05.292Z</time></trkpt><trkpt lat="39.98062165816848" lon="9.01971598696686"><ele>359.0</ele><time>2026-04-27T15:22:06.292Z</time></trkpt><trkpt lat="39.98078758801947" lon="9.019854770668521"><ele>366.33333333333337</ele><time>2026-04-27T15:22:07.292Z</time></trkpt><trkpt lat="39.98098013168898" lon="9.019972335273714"><ele>373.6666666666667</ele><time>2026-04-27T15:22:08.292Z</time></trkpt><trkpt lat="39.98113654786765" lon="9.02011755005301"><ele>381.0</ele><time>2026-04-27T15:22:09.292Z</time></trkpt><trkpt lat="39.981225498136006" lon="9.020321589136588"><ele>381.0</ele><time>2026-04-27T15:22:10.292Z</time></trkpt><trkpt lat="39.981246312548066" lon="9.020573382482098"><ele>381.0</ele><time>2026-04-27T15:22:11.292Z</time></trkpt><trkpt lat="39.981241803153736" lon="9.020848855744218"><ele>381.0</ele><time>2026-04-27T15:22:12.292Z</time></trkpt><trkpt lat="39.981249857375175" lon="9.021112769569722"><ele>378.3333333333333</ele><time>2026-04-27T15:22:13.292Z</time></trkpt><trkpt lat="39.98127472916062" lon="9.021359846526195"><ele>375.66666666666663</ele><time>2026-04-27T15:22:14.292Z</time></trkpt><trkpt lat="39.981340208283626" lon="9.021594087173147"><ele>373.0</ele><time>2026-04-27T15:22:15.292Z</time></trkpt><trkpt lat="39.981457388865" lon="9.021812101719286"><ele>372.0</ele><time>2026-04-27T15:22:16.292Z</time></trkpt><trkpt lat="39.98160502613737" lon="9.02200348087603"><ele>371.0</ele><time>2026-04-27T15:22:17.292Z</time></trkpt><trkpt lat="39.98175502832811" lon="9.022193044951726"><ele>370.0</ele><time>2026-04-27T15:22:18.292Z</time></trkpt><trkpt lat="39.98185006155654" lon="9.022407378523448"><ele>375.0</ele><time>2026-04-27T15:22:19.292Z</time></trkpt><trkpt lat="39.98188285834754" lon="9.022668930815113"><ele>380.0</ele><time>2026-04-27T15:22:20.292Z</time></trkpt><trkpt lat="39.9819176331856" lon="9.022922599383255"><ele>385.0</ele><time>2026-04-27T15:22:21.292Z</time></trkpt><trkpt lat="39.982012481366034" lon="9.023138054258421"><ele>385.0</ele><time>2026-04-27T15:22:22.293Z</time></trkpt><trkpt lat="39.98215271611311" lon="9.02331364030174"><ele>385.0</ele><time>2026-04-27T15:22:23.293Z</time></trkpt><trkpt lat="39.982310845723404" lon="9.023496444018715"><ele>385.0</ele><time>2026-04-27T15:22:24.293Z</time></trkpt><trkpt lat="39.98247000350699" lon="9.023676467898852"><ele>387.6666666666667</ele><time>2026-04-27T15:22:25.293Z</time></trkpt><trkpt lat="39.98265590822039" lon="9.023799769740316"><ele>390.33333333333337</ele><time>2026-04-27T15:22:26.293Z</time></trkpt><trkpt lat="39.98285189886449" lon="9.023887800412115"><ele>393.0</ele><time>2026-04-27T15:22:27.293Z</time></trkpt><trkpt lat="39.98303178157987" lon="9.023981391060454"><ele>389.6666666666667</ele><time>2026-04-27T15:22:28.293Z</time></trkpt><trkpt lat="39.98315525042072" lon="9.024154919733096"><ele>386.33333333333337</ele><time>2026-04-27T15:22:29.293Z</time></trkpt><trkpt lat="39.98325124496478" lon="9.024368756430013"><ele>383.0</ele><time>2026-04-27T15:22:30.293Z</time></trkpt><trkpt lat="39.98333132239409" lon="9.024615234072689"><ele>389.0</ele><time>2026-04-27T15:22:31.293Z</time></trkpt><trkpt lat="39.98341429370214" lon="9.024871579548908"><ele>395.0</ele><time>2026-04-27T15:22:32.293Z</time></trkpt><trkpt lat="39.98350539909168" lon="9.025112606241068"><ele>401.0</ele><time>2026-04-27T15:22:33.293Z</time></trkpt><trkpt lat="39.983597594080926" lon="9.025355762669891"><ele>401.0</ele><time>2026-04-27T15:22:34.293Z</time></trkpt><trkpt lat="39.98368685047362" lon="9.025598204048734"><ele>401.0</ele><time>2026-04-27T15:22:35.293Z</time></trkpt><trkpt lat="39.98377447112925" lon="9.025838583873684"><ele>401.0</ele><time>2026-04-27T15:22:36.293Z</time></trkpt><trkpt lat="39.98386135384035" lon="9.026081841221782"><ele>399.66666666666663</ele><time>2026-04-27T15:22:37.293Z</time></trkpt><trkpt lat="39.98394014294681" lon="9.026323363326073"><ele>398.33333333333337</ele><time>2026-04-27T15:22:38.293Z</time></trkpt><trkpt lat="39.98401550962737" lon="9.02656903675662"><ele>397.0</ele><time>2026-04-27T15:22:39.293Z</time></trkpt><trkpt lat="39.98409748152953" lon="9.026812397430426"><ele>399.33333333333337</ele><time>2026-04-27T15:22:40.293Z</time></trkpt><trkpt lat="39.98418701228672" lon="9.027050347841303"><ele>401.66666666666663</ele><time>2026-04-27T15:22:41.293Z</time></trkpt><trkpt lat="39.98429294070739" lon="9.027285483447208"><ele>404.0</ele><time>2026-04-27T15:22:42.293Z</time></trkpt><trkpt lat="39.984406870785456" lon="9.027523324029653"><ele>404.0</ele><time>2026-04-27T15:22:43.293Z</time></trkpt><trkpt lat="39.98452422467049" lon="9.027765892487386"><ele>404.0</ele><time>2026-04-27T15:22:44.293Z</time></trkpt><trkpt lat="39.98463683033009" lon="9.027996470791066"><ele>404.0</ele><time>2026-04-27T15:22:45.293Z</time></trkpt><trkpt lat="39.98474294286216" lon="9.028209366874899"><ele>402.0</ele><time>2026-04-27T15:22:46.293Z</time></trkpt><trkpt lat="39.98484538072679" lon="9.028403878846657"><ele>400.0</ele><time>2026-04-27T15:22:47.293Z</time></trkpt><trkpt lat="39.98493887972946" lon="9.028584924037801"><ele>398.0</ele><time>2026-04-27T15:22:48.293Z</time></trkpt><trkpt lat="39.98502007052754" lon="9.02876677483483"><ele>401.0</ele><time>2026-04-27T15:22:49.293Z</time></trkpt><trkpt lat="39.9851142666412" lon="9.028947912330516"><ele>404.0</ele><time>2026-04-27T15:22:50.293Z</time></trkpt><trkpt lat="39.985197931264665" lon="9.02912466918727"><ele>407.0</ele><time>2026-04-27T15:22:51.294Z</time></trkpt><trkpt lat="39.98528057739018" lon="9.029293710257459"><ele>407.0</ele><time>2026-04-27T15:22:52.294Z</time></trkpt><trkpt lat="39.985377936484134" lon="9.029457804035982"><ele>407.0</ele><time>2026-04-27T15:22:53.294Z</time></trkpt><trkpt lat="39.985503053720194" lon="9.029626910599697"><ele>407.0</ele><time>2026-04-27T15:22:54.294Z</time></trkpt><trkpt lat="39.985642433819" lon="9.029799372711272"><ele>409.0</ele><time>2026-04-27T15:22:55.294Z</time></trkpt><trkpt lat="39.98578610166182" lon="9.029981377762683"><ele>411.0</ele><time>2026-04-27T15:22:56.294Z</time></trkpt><trkpt lat="39.985939321135554" lon="9.030174705913922"><ele>413.0</ele><time>2026-04-27T15:22:57.294Z</time></trkpt><trkpt lat="39.98609811896054" lon="9.030380553592611"><ele>413.0</ele><time>2026-04-27T15:22:58.294Z</time></trkpt><trkpt lat="39.986258409163746" lon="9.030593214406695"><ele>413.0</ele><time>2026-04-27T15:22:59.294Z</time></trkpt><trkpt lat="39.986415104189305" lon="9.030803996472683"><ele>414.66666666666663</ele><time>2026-04-27T15:23:00.295Z</time></trkpt><trkpt lat="39.98656643774707" lon="9.031007338043153"><ele>416.33333333333337</ele><time>2026-04-27T15:23:01.295Z</time></trkpt><trkpt lat="39.9867144705579" lon="9.031209603469721"><ele>418.0</ele><time>2026-04-27T15:23:02.295Z</time></trkpt><trkpt lat="39.98685877889502" lon="9.031405094679904"><ele>418.0</ele><time>2026-04-27T15:23:03.295Z</time></trkpt><trkpt lat="39.986997056072134" lon="9.031587504127339"><ele>418.0</ele><time>2026-04-27T15:23:04.294Z</time></trkpt><trkpt lat="39.98713518084879" lon="9.031760175011595"><ele>418.0</ele><time>2026-04-27T15:23:05.294Z</time></trkpt><trkpt lat="39.987269235014" lon="9.031923313644773"><ele>416.33333333333337</ele><time>2026-04-27T15:23:06.294Z</time></trkpt><trkpt lat="39.98739650642513" lon="9.032083947361373"><ele>414.66666666666663</ele><time>2026-04-27T15:23:07.294Z</time></trkpt><trkpt lat="39.987502376773904" lon="9.032246920622914"><ele>413.0</ele><time>2026-04-27T15:23:08.294Z</time></trkpt><trkpt lat="39.98759500119365" lon="9.032414877438162"><ele>416.3333333333333</ele><time>2026-04-27T15:23:09.294Z</time></trkpt><trkpt lat="39.98766580019031" lon="9.032594631896135"><ele>419.66666666666663</ele><time>2026-04-27T15:23:10.294Z</time></trkpt><trkpt lat="39.987750514183574" lon="9.032782744547989"><ele>423.0</ele><time>2026-04-27T15:23:11.294Z</time></trkpt><trkpt lat="39.98786912150294" lon="9.032922827234472"><ele>423.0</ele><time>2026-04-27T15:23:12.294Z</time></trkpt><trkpt lat="39.98800944540024" lon="9.033027404922434"><ele>423.0</ele><time>2026-04-27T15:23:13.294Z</time></trkpt><trkpt lat="39.98817643782915" lon="9.033074804788127"><ele>423.0</ele><time>2026-04-27T15:23:14.294Z</time></trkpt><trkpt lat="39.98835265195686" lon="9.033091613451061"><ele>428.66666666666663</ele><time>2026-04-27T15:23:15.294Z</time></trkpt><trkpt lat="39.98852647919953" lon="9.033101930932395"><ele>434.3333333333333</ele><time>2026-04-27T15:23:16.294Z</time></trkpt><trkpt lat="39.988677003341074" lon="9.033108229346528"><ele>440.0</ele><time>2026-04-27T15:23:17.295Z</time></trkpt><trkpt lat="39.988806956179154" lon="9.033119348066007"><ele>440.0</ele><time>2026-04-27T15:23:18.295Z</time></trkpt><trkpt lat="39.98891435398301" lon="9.033121267304125"><ele>440.0</ele><time>2026-04-27T15:23:19.295Z</time></trkpt><trkpt lat="39.98901628469896" lon="9.033131364714043"><ele>440.0</ele><time>2026-04-27T15:23:20.295Z</time></trkpt><trkpt lat="39.98911734561508" lon="9.033145347095596"><ele>440.0</ele><time>2026-04-27T15:23:21.295Z</time></trkpt><trkpt lat="39.989222122203145" lon="9.033156070214714"><ele>440.0</ele><time>2026-04-27T15:23:22.295Z</time></trkpt><trkpt lat="39.989326033850105" lon="9.033168056686083"><ele>439.8</ele><time>2026-04-27T15:23:23.295Z</time></trkpt><trkpt lat="39.98942261783664" lon="9.033177211179922"><ele>439.6</ele><time>2026-04-27T15:23:24.295Z</time></trkpt><trkpt lat="39.9895119350915" lon="9.033193202646396"><ele>439.4</ele><time>2026-04-27T15:23:25.295Z</time></trkpt><trkpt lat="39.989594300141064" lon="9.033234132189882"><ele>439.2</ele><time>2026-04-27T15:23:26.295Z</time></trkpt><trkpt lat="39.98965269969288" lon="9.033324856626852"><ele>439.0</ele><time>2026-04-27T15:23:27.295Z</time></trkpt><trkpt lat="39.989708821113155" lon="9.033429160453457"><ele>435.79999999999995</ele><time>2026-04-27T15:23:28.295Z</time></trkpt><trkpt lat="39.98971952389587" lon="9.033551614914847"><ele>432.59999999999997</ele><time>2026-04-27T15:23:29.295Z</time></trkpt><trkpt lat="39.98969810571933" lon="9.033675462720593"><ele>429.4</ele><time>2026-04-27T15:23:30.295Z</time></trkpt><trkpt lat="39.98962989796759" lon="9.033774787768595"><ele>426.2</ele><time>2026-04-27T15:23:31.295Z</time></trkpt><trkpt lat="39.98955514969882" lon="9.033846206022071"><ele>423.0</ele><time>2026-04-27T15:23:32.295Z</time></trkpt><trkpt lat="39.98948277469313" lon="9.033918018626613"><ele>423.0</ele><time>2026-04-27T15:23:33.295Z</time></trkpt><trkpt lat="39.98943048518037" lon="9.033994436948785"><ele>423.0</ele><time>2026-04-27T15:23:34.295Z</time></trkpt><trkpt lat="39.98938116754503" lon="9.034074499201763"><ele>423.0</ele><time>2026-04-27T15:23:35.295Z</time></trkpt><trkpt lat="39.98934103108712" lon="9.034152430042202"><ele>423.0</ele><time>2026-04-27T15:23:36.295Z</time></trkpt><trkpt lat="39.98930578395228" lon="9.034244692334333"><ele>423.0</ele><time>2026-04-27T15:23:37.295Z</time></trkpt><trkpt lat="39.989280343720075" lon="9.034323991297658"><ele>423.0</ele><time>2026-04-27T15:23:38.295Z</time></trkpt><trkpt lat="39.98924965311632" lon="9.034409308319681"><ele>423.0</ele><time>2026-04-27T15:23:39.295Z</time></trkpt><trkpt lat="39.98920099627663" lon="9.034499649576409"><ele>423.0</ele><time>2026-04-27T15:23:40.295Z</time></trkpt><trkpt lat="39.98913580832575" lon="9.034577228682515"><ele>423.0</ele><time>2026-04-27T15:23:41.295Z</time></trkpt><trkpt lat="39.98907386690481" lon="9.034644799012616"><ele>423.0</ele><time>2026-04-27T15:23:42.295Z</time></trkpt><trkpt lat="39.98900901269421" lon="9.034715594466855"><ele>423.0</ele><time>2026-04-27T15:23:43.295Z</time></trkpt><trkpt lat="39.988946879126125" lon="9.034792357658693"><ele>423.0</ele><time>2026-04-27T15:23:44.295Z</time></trkpt><trkpt lat="39.98888565303229" lon="9.034882301560652"><ele>423.0</ele><time>2026-04-27T15:23:45.295Z</time></trkpt><trkpt lat="39.988839169750726" lon="9.034983302823257"><ele>425.2</ele><time>2026-04-27T15:23:46.295Z</time></trkpt><trkpt lat="39.98881430305555" lon="9.035089434410796"><ele>427.4</ele><time>2026-04-27T15:23:47.295Z</time></trkpt><trkpt lat="39.988807240815525" lon="9.035202540936915"><ele>429.59999999999997</ele><time>2026-04-27T15:23:48.295Z</time></trkpt><trkpt lat="39.98882433048521" lon="9.035320675956411"><ele>431.79999999999995</ele><time>2026-04-27T15:23:49.295Z</time></trkpt><trkpt lat="39.988867636056135" lon="9.03543112957444"><ele>434.0</ele><time>2026-04-27T15:23:50.295Z</time></trkpt><trkpt lat="39.988931448442344" lon="9.035522020557053"><ele>433.99999999999994</ele><time>2026-04-27T15:23:51.295Z</time></trkpt><trkpt lat="39.98899844366992" lon="9.035603174111507"><ele>434.0</ele><time>2026-04-27T15:23:52.295Z</time></trkpt><trkpt lat="39.989058118457784" lon="9.03568079443341"><ele>434.0</ele><time>2026-04-27T15:23:53.295Z</time></trkpt><trkpt lat="39.98910880102073" lon="9.03575436123086"><ele>434.0</ele><time>2026-04-27T15:23:54.295Z</time></trkpt><trkpt lat="39.9891571348018" lon="9.035836728632681"><ele>433.99999999999994</ele><time>2026-04-27T15:23:55.295Z</time></trkpt><trkpt lat="39.98919446660021" lon="9.035938543293454"><ele>434.0</ele><time>2026-04-27T15:23:56.295Z</time></trkpt><trkpt lat="39.989204877624445" lon="9.03605547557939"><ele>435.0</ele><time>2026-04-27T15:23:57.295Z</time></trkpt><trkpt lat="39.98919484896175" lon="9.036186187672524"><ele>436.0</ele><time>2026-04-27T15:23:58.295Z</time></trkpt><trkpt lat="39.98917422984528" lon="9.036316263447114"><ele>437.0</ele><time>2026-04-27T15:23:59.295Z</time></trkpt><trkpt lat="39.98916502574888" lon="9.036441194600622"><ele>438.0</ele><time>2026-04-27T15:24:00.295Z</time></trkpt><trkpt lat="39.98917089245167" lon="9.03656278231205"><ele>439.0</ele><time>2026-04-27T15:24:01.295Z</time></trkpt><trkpt lat="39.98919844541233" lon="9.036682702709914"><ele>444.0</ele><time>2026-04-27T15:24:02.295Z</time></trkpt><trkpt lat="39.98924314984884" lon="9.036793859311867"><ele>449.0</ele><time>2026-04-27T15:24:03.295Z</time></trkpt><trkpt lat="39.98931578657883" lon="9.036885413564834"><ele>454.0</ele><time>2026-04-27T15:24:04.295Z</time></trkpt><trkpt lat="39.989454632880715" lon="9.036978749649228"><ele>459.0</ele><time>2026-04-27T15:24:05.295Z</time></trkpt><trkpt lat="39.989587702293576" lon="9.037061697859098"><ele>459.0</ele><time>2026-04-27T15:24:06.295Z</time></trkpt><trkpt lat="39.989682924651" lon="9.037116830153709"><ele>459.0</ele><time>2026-04-27T15:24:07.295Z</time></trkpt><trkpt lat="39.98976029182387" lon="9.037174782916894"><ele>459.0</ele><time>2026-04-27T15:24:08.295Z</time></trkpt><trkpt lat="39.989828574013316" lon="9.037256119895796"><ele>459.0</ele><time>2026-04-27T15:24:09.295Z</time></trkpt><trkpt lat="39.98988111755036" lon="9.037358735137664"><ele>459.0</ele><time>2026-04-27T15:24:10.295Z</time></trkpt><trkpt lat="39.989917973139434" lon="9.037469184081376"><ele>457.6</ele><time>2026-04-27T15:24:11.295Z</time></trkpt><trkpt lat="39.98994650604652" lon="9.037579656956634"><ele>456.2</ele><time>2026-04-27T15:24:12.295Z</time></trkpt><trkpt lat="39.989988090221736" lon="9.037686402502999"><ele>454.80000000000007</ele><time>2026-04-27T15:24:13.295Z</time></trkpt><trkpt lat="39.99004969013462" lon="9.037775749839115"><ele>453.40000000000003</ele><time>2026-04-27T15:24:14.295Z</time></trkpt><trkpt lat="39.99012477945096" lon="9.037851568879512"><ele>452.0</ele><time>2026-04-27T15:24:15.295Z</time></trkpt><trkpt lat="39.99020329639861" lon="9.037906895982454"><ele>455.5</ele><time>2026-04-27T15:24:16.295Z</time></trkpt><trkpt lat="39.99031145820767" lon="9.037951550837441"><ele>459.0</ele><time>2026-04-27T15:24:17.295Z</time></trkpt><trkpt lat="39.99045726638385" lon="9.038014349685048"><ele>462.5</ele><time>2026-04-27T15:24:18.295Z</time></trkpt><trkpt lat="39.990617773022194" lon="9.038053709367377"><ele>466.0</ele><time>2026-04-27T15:24:19.295Z</time></trkpt><trkpt lat="39.990770351830236" lon="9.038083044420254"><ele>467.6666666666667</ele><time>2026-04-27T15:24:20.295Z</time></trkpt><trkpt lat="39.990923113368055" lon="9.038161722041934"><ele>469.33333333333337</ele><time>2026-04-27T15:24:21.295Z</time></trkpt><trkpt lat="39.9910557925474" lon="9.03829417305524"><ele>471.0</ele><time>2026-04-27T15:24:22.295Z</time></trkpt><trkpt lat="39.99116427884668" lon="9.038447527481113"><ele>473.66666666666663</ele><time>2026-04-27T15:24:23.295Z</time></trkpt><trkpt lat="39.9912348160943" lon="9.038631126826413"><ele>476.3333333333333</ele><time>2026-04-27T15:24:24.295Z</time></trkpt><trkpt lat="39.99128480310488" lon="9.038836623758753"><ele>479.0</ele><time>2026-04-27T15:24:25.295Z</time></trkpt><trkpt lat="39.99133794227521" lon="9.039049862811066"><ele>477.66666666666663</ele><time>2026-04-27T15:24:26.295Z</time></trkpt><trkpt lat="39.991396778065535" lon="9.039267658319952"><ele>476.33333333333337</ele><time>2026-04-27T15:24:27.295Z</time></trkpt><trkpt lat="39.991458258331946" lon="9.03947518215384"><ele>475.0</ele><time>2026-04-27T15:24:28.295Z</time></trkpt><trkpt lat="39.991534917917626" lon="9.03964568883304"><ele>475.0</ele><time>2026-04-27T15:24:29.295Z</time></trkpt><trkpt lat="39.99164503445978" lon="9.039800804909577"><ele>475.0</ele><time>2026-04-27T15:24:30.296Z</time></trkpt><trkpt lat="39.991781596743174" lon="9.039935608142772"><ele>475.0</ele><time>2026-04-27T15:24:31.296Z</time></trkpt><trkpt lat="39.99193587754011" lon="9.04006089766214"><ele>478.0</ele><time>2026-04-27T15:24:32.296Z</time></trkpt><trkpt lat="39.992101146307185" lon="9.040178299327172"><ele>481.0</ele><time>2026-04-27T15:24:33.296Z</time></trkpt><trkpt lat="39.99226748592017" lon="9.040274692456743"><ele>484.0</ele><time>2026-04-27T15:24:34.296Z</time></trkpt><trkpt lat="39.992435753303766" lon="9.040368809099045"><ele>485.25</ele><time>2026-04-27T15:24:35.296Z</time></trkpt><trkpt lat="39.99259148759715" lon="9.040456799270702"><ele>486.5</ele><time>2026-04-27T15:24:36.296Z</time></trkpt><trkpt lat="39.99271270066414" lon="9.040540317517216"><ele>487.75</ele><time>2026-04-27T15:24:37.296Z</time></trkpt><trkpt lat="39.99278279447164" lon="9.04067502757499"><ele>489.0</ele><time>2026-04-27T15:24:38.296Z</time></trkpt><trkpt lat="39.992786629910924" lon="9.040839443989304"><ele>489.0</ele><time>2026-04-27T15:24:39.296Z</time></trkpt><trkpt lat="39.99271619778832" lon="9.040991854749207"><ele>489.0</ele><time>2026-04-27T15:24:40.296Z</time></trkpt><trkpt lat="39.99260548312301" lon="9.041118656648418"><ele>489.0</ele><time>2026-04-27T15:24:41.296Z</time></trkpt><trkpt lat="39.992498326065075" lon="9.041247965830216"><ele>489.0</ele><time>2026-04-27T15:24:42.296Z</time></trkpt><trkpt lat="39.99241577943439" lon="9.041420508176765"><ele>486.66666666666663</ele><time>2026-04-27T15:24:43.296Z</time></trkpt><trkpt lat="39.99237042449481" lon="9.041624618254554"><ele>484.3333333333333</ele><time>2026-04-27T15:24:44.296Z</time></trkpt><trkpt lat="39.992329628413714" lon="9.041845696309952"><ele>482.0</ele><time>2026-04-27T15:24:45.296Z</time></trkpt><trkpt lat="39.99228764163251" lon="9.042069415738434"><ele>482.0</ele><time>2026-04-27T15:24:46.296Z</time></trkpt><trkpt lat="39.99226050031331" lon="9.042281831117448"><ele>482.0</ele><time>2026-04-27T15:24:47.296Z</time></trkpt><trkpt lat="39.99226396886898" lon="9.042485094514806"><ele>482.0</ele><time>2026-04-27T15:24:48.296Z</time></trkpt><trkpt lat="39.99231961528064" lon="9.042685438499547"><ele>484.66666666666663</ele><time>2026-04-27T15:24:49.296Z</time></trkpt><trkpt lat="39.99241946982301" lon="9.042871138905925"><ele>487.33333333333337</ele><time>2026-04-27T15:24:50.296Z</time></trkpt><trkpt lat="39.99254769013353" lon="9.043048695517243"><ele>490.0</ele><time>2026-04-27T15:24:51.296Z</time></trkpt><trkpt lat="39.9926706507897" lon="9.043234473088106"><ele>496.6666666666667</ele><time>2026-04-27T15:24:52.296Z</time></trkpt><trkpt lat="39.99280749937627" lon="9.04341194920941"><ele>503.33333333333337</ele><time>2026-04-27T15:24:53.296Z</time></trkpt><trkpt lat="39.99293219579668" lon="9.043582694245806"><ele>510.0</ele><time>2026-04-27T15:24:54.296Z</time></trkpt><trkpt lat="39.99304783314858" lon="9.043762169203989"><ele>510.0</ele><time>2026-04-27T15:24:55.296Z</time></trkpt><trkpt lat="39.99312398111893" lon="9.043963312977167"><ele>510.0</ele><time>2026-04-27T15:24:56.296Z</time></trkpt><trkpt lat="39.993168292383594" lon="9.044194366614912"><ele>510.0</ele><time>2026-04-27T15:24:57.297Z</time></trkpt><trkpt lat="39.99318073002731" lon="9.044444020323942"><ele>508.0</ele><time>2026-04-27T15:24:58.297Z</time></trkpt><trkpt lat="39.99321152340328" lon="9.04466701895095"><ele>506.0</ele><time>2026-04-27T15:24:59.297Z</time></trkpt><trkpt lat="39.99325044311519" lon="9.044887888120506"><ele>504.0</ele><time>2026-04-27T15:25:00.297Z</time></trkpt><trkpt lat="39.993280738065636" lon="9.045129528187836"><ele>504.0</ele><time>2026-04-27T15:25:01.297Z</time></trkpt><trkpt lat="39.993308504057296" lon="9.04536672112326"><ele>504.0</ele><time>2026-04-27T15:25:02.297Z</time></trkpt><trkpt lat="39.99335088346705" lon="9.045596685930608"><ele>504.0</ele><time>2026-04-27T15:25:03.298Z</time></trkpt><trkpt lat="39.9934232146048" lon="9.045808571695812"><ele>503.66666666666663</ele><time>2026-04-27T15:25:04.298Z</time></trkpt><trkpt lat="39.99352217627676" lon="9.04600899447346"><ele>503.3333333333333</ele><time>2026-04-27T15:25:05.298Z</time></trkpt><trkpt lat="39.9936348729664" lon="9.046194523220422"><ele>503.0</ele><time>2026-04-27T15:25:06.297Z</time></trkpt><trkpt lat="39.993747020541605" lon="9.046374901813255"><ele>503.0</ele><time>2026-04-27T15:25:07.297Z</time></trkpt><trkpt lat="39.99384388670157" lon="9.04655489832584"><ele>503.0</ele><time>2026-04-27T15:25:08.297Z</time></trkpt><trkpt lat="39.99390371407474" lon="9.04674045644473"><ele>503.0</ele><time>2026-04-27T15:25:09.297Z</time></trkpt><trkpt lat="39.99393388721837" lon="9.046941354654617"><ele>503.3333333333333</ele><time>2026-04-27T15:25:10.298Z</time></trkpt><trkpt lat="39.99395654244521" lon="9.047145157943767"><ele>503.66666666666663</ele><time>2026-04-27T15:25:11.298Z</time></trkpt><trkpt lat="39.99398008517949" lon="9.047360876250991"><ele>504.0</ele><time>2026-04-27T15:25:12.298Z</time></trkpt><trkpt lat="39.99401829498281" lon="9.04758214346065"><ele>504.0</ele><time>2026-04-27T15:25:13.298Z</time></trkpt><trkpt lat="39.99404107914251" lon="9.047815336902813"><ele>504.0</ele><time>2026-04-27T15:25:14.298Z</time></trkpt><trkpt lat="39.99408280576998" lon="9.048050034590508"><ele>504.0</ele><time>2026-04-27T15:25:15.298Z</time></trkpt><trkpt lat="39.99416651216104" lon="9.048256005670599"><ele>505.33333333333337</ele><time>2026-04-27T15:25:16.298Z</time></trkpt><trkpt lat="39.99429168746823" lon="9.048446520392769"><ele>506.6666666666667</ele><time>2026-04-27T15:25:17.298Z</time></trkpt><trkpt lat="39.99440415050275" lon="9.048670237351736"><ele>508.0</ele><time>2026-04-27T15:25:18.298Z</time></trkpt><trkpt lat="39.99448154070854" lon="9.048894274448768"><ele>508.0</ele><time>2026-04-27T15:25:19.298Z</time></trkpt><trkpt lat="39.9945505196255" lon="9.049115225697445"><ele>508.0</ele><time>2026-04-27T15:25:20.298Z</time></trkpt><trkpt lat="39.99462400135334" lon="9.049339166700909"><ele>508.0</ele><time>2026-04-27T15:25:21.298Z</time></trkpt><trkpt lat="39.99469926261173" lon="9.04956541803285"><ele>507.33333333333337</ele><time>2026-04-27T15:25:22.298Z</time></trkpt><trkpt lat="39.99477503647334" lon="9.049792541634291"><ele>506.66666666666663</ele><time>2026-04-27T15:25:23.298Z</time></trkpt><trkpt lat="39.99485060780747" lon="9.050021419963736"><ele>506.0</ele><time>2026-04-27T15:25:24.298Z</time></trkpt><trkpt lat="39.9949358607029" lon="9.050249696652255"><ele>507.66666666666663</ele><time>2026-04-27T15:25:25.298Z</time></trkpt><trkpt lat="39.99503035577682" lon="9.050481728651608"><ele>509.33333333333337</ele><time>2026-04-27T15:25:26.298Z</time></trkpt><trkpt lat="39.99512395307742" lon="9.050710153506348"><ele>511.0</ele><time>2026-04-27T15:25:27.298Z</time></trkpt><trkpt lat="39.995217514478234" lon="9.050941421199031"><ele>511.0</ele><time>2026-04-27T15:25:28.298Z</time></trkpt><trkpt lat="39.9953116276092" lon="9.051166811301798"><ele>511.0</ele><time>2026-04-27T15:25:29.298Z</time></trkpt><trkpt lat="39.99539272015323" lon="9.051385136572483"><ele>511.0</ele><time>2026-04-27T15:25:30.298Z</time></trkpt><trkpt lat="39.99546045929016" lon="9.051589859282654"><ele>511.0</ele><time>2026-04-27T15:25:31.298Z</time></trkpt><trkpt lat="39.99546488350456" lon="9.051809903007491"><ele>511.0</ele><time>2026-04-27T15:25:32.298Z</time></trkpt><trkpt lat="39.995418664582" lon="9.05200829650843"><ele>511.0</ele><time>2026-04-27T15:25:33.298Z</time></trkpt><trkpt lat="39.99531909021302" lon="9.0521715509983"><ele>511.0</ele><time>2026-04-27T15:25:34.298Z</time></trkpt><trkpt lat="39.99517251666432" lon="9.05227871979389"><ele>511.0</ele><time>2026-04-27T15:25:35.298Z</time></trkpt><trkpt lat="39.99501796639169" lon="9.05237617967543"><ele>511.0</ele><time>2026-04-27T15:25:36.298Z</time></trkpt><trkpt lat="39.9948667089222" lon="9.052463722525586"><ele>510.33333333333337</ele><time>2026-04-27T15:25:37.298Z</time></trkpt><trkpt lat="39.99470304815889" lon="9.052488360939948"><ele>509.66666666666663</ele><time>2026-04-27T15:25:38.298Z</time></trkpt><trkpt lat="39.9945275787868" lon="9.05243274555599"><ele>509.0</ele><time>2026-04-27T15:25:39.298Z</time></trkpt><trkpt lat="39.994363940113864" lon="9.05235229813092"><ele>510.3333333333333</ele><time>2026-04-27T15:25:40.298Z</time></trkpt><trkpt lat="39.99421557258497" lon="9.05231098209212"><ele>511.66666666666663</ele><time>2026-04-27T15:25:41.298Z</time></trkpt><trkpt lat="39.994078271452835" lon="9.052350588449157"><ele>513.0</ele><time>2026-04-27T15:25:42.298Z</time></trkpt><trkpt lat="39.993939669586155" lon="9.052471697583934"><ele>513.0</ele><time>2026-04-27T15:25:43.298Z</time></trkpt><trkpt lat="39.99380254170657" lon="9.052634687152375"><ele>513.0</ele><time>2026-04-27T15:25:44.298Z</time></trkpt><trkpt lat="39.99366442651034" lon="9.05279067787857"><ele>513.0</ele><time>2026-04-27T15:25:45.298Z</time></trkpt><trkpt lat="39.99355883955667" lon="9.052975440336569"><ele>513.0</ele><time>2026-04-27T15:25:46.298Z</time></trkpt><trkpt lat="39.9934651864315" lon="9.053188559953744"><ele>513.0</ele><time>2026-04-27T15:25:47.298Z</time></trkpt><trkpt lat="39.99337223355155" lon="9.053405857800746"><ele>513.0</ele><time>2026-04-27T15:25:48.298Z</time></trkpt><trkpt lat="39.99326400628543" lon="9.053643185912899"><ele>515.3333333333334</ele><time>2026-04-27T15:25:49.298Z</time></trkpt><trkpt lat="39.9931878422063" lon="9.05388587572892"><ele>517.6666666666667</ele><time>2026-04-27T15:25:50.298Z</time></trkpt><trkpt lat="39.993147355035084" lon="9.054140891057086"><ele>520.0</ele><time>2026-04-27T15:25:51.298Z</time></trkpt><trkpt lat="39.99312002131663" lon="9.054409881167606"><ele>521.6666666666667</ele><time>2026-04-27T15:25:52.298Z</time></trkpt><trkpt lat="39.99309446949353" lon="9.054669035872852"><ele>523.3333333333334</ele><time>2026-04-27T15:25:53.298Z</time></trkpt><trkpt lat="39.99305517961462" lon="9.054931394970195"><ele>525.0</ele><time>2026-04-27T15:25:54.298Z</time></trkpt><trkpt lat="39.99301315137265" lon="9.055200750957486"><ele>526.0</ele><time>2026-04-27T15:25:55.298Z</time></trkpt><trkpt lat="39.99296949692096" lon="9.055462827824341"><ele>527.0</ele><time>2026-04-27T15:25:56.298Z</time></trkpt><trkpt lat="39.99292250081104" lon="9.05571799284497"><ele>528.0</ele><time>2026-04-27T15:25:57.298Z</time></trkpt><trkpt lat="39.99287476094449" lon="9.055983286098385"><ele>528.0</ele><time>2026-04-27T15:25:58.298Z</time></trkpt><trkpt lat="39.99283019178332" lon="9.056256518495351"><ele>528.0</ele><time>2026-04-27T15:25:59.298Z</time></trkpt><trkpt lat="39.992785550486076" lon="9.056531557538081"><ele>528.0</ele><time>2026-04-27T15:26:00.298Z</time></trkpt><trkpt lat="39.99274268399304" lon="9.056816553565834"><ele>529.6666666666666</ele><time>2026-04-27T15:26:01.298Z</time></trkpt><trkpt lat="39.99269752896604" lon="9.05709945435886"><ele>531.3333333333333</ele><time>2026-04-27T15:26:02.298Z</time></trkpt><trkpt lat="39.992651604377826" lon="9.05738585017238"><ele>533.0</ele><time>2026-04-27T15:26:03.298Z</time></trkpt><trkpt lat="39.99259975896671" lon="9.057674480060328"><ele>534.3333333333333</ele><time>2026-04-27T15:26:04.298Z</time></trkpt><trkpt lat="39.992549559741775" lon="9.057956927714358"><ele>535.6666666666666</ele><time>2026-04-27T15:26:05.298Z</time></trkpt><trkpt lat="39.99250792645862" lon="9.05822306972022"><ele>537.0</ele><time>2026-04-27T15:26:06.299Z</time></trkpt><trkpt lat="39.9924734586488" lon="9.058478137197028"><ele>533.3333333333334</ele><time>2026-04-27T15:26:07.299Z</time></trkpt><trkpt lat="39.992441022329444" lon="9.058727293845754"><ele>529.6666666666667</ele><time>2026-04-27T15:26:08.299Z</time></trkpt><trkpt lat="39.99241067904216" lon="9.058955445336728"><ele>526.0</ele><time>2026-04-27T15:26:09.299Z</time></trkpt><trkpt lat="39.99235971285729" lon="9.05913737547892"><ele>526.0</ele><time>2026-04-27T15:26:10.299Z</time></trkpt><trkpt lat="39.992266422864226" lon="9.05926799092894"><ele>526.0</ele><time>2026-04-27T15:26:11.299Z</time></trkpt><trkpt lat="39.99213126970162" lon="9.059323462708997"><ele>526.0</ele><time>2026-04-27T15:26:12.299Z</time></trkpt><trkpt lat="39.99197413111608" lon="9.059288368160425"><ele>526.0</ele><time>2026-04-27T15:26:13.299Z</time></trkpt><trkpt lat="39.99181848554828" lon="9.05921510294825"><ele>524.0</ele><time>2026-04-27T15:26:14.299Z</time></trkpt><trkpt lat="39.991654769757545" lon="9.05916730359819"><ele>522.0</ele><time>2026-04-27T15:26:15.299Z</time></trkpt><trkpt lat="39.991487308151086" lon="9.059131062111902"><ele>520.0</ele><time>2026-04-27T15:26:16.299Z</time></trkpt><trkpt lat="39.99131556859906" lon="9.059120015050347"><ele>520.0</ele><time>2026-04-27T15:26:17.299Z</time></trkpt><trkpt lat="39.99114140891598" lon="9.059118965337909"><ele>520.0</ele><time>2026-04-27T15:26:18.299Z</time></trkpt><trkpt lat="39.99096141361708" lon="9.05910838328381"><ele>520.0</ele><time>2026-04-27T15:26:19.299Z</time></trkpt><trkpt lat="39.990785075688834" lon="9.059136543701982"><ele>519.0</ele><time>2026-04-27T15:26:20.299Z</time></trkpt><trkpt lat="39.99063305137873" lon="9.05924084083466"><ele>518.0</ele><time>2026-04-27T15:26:21.299Z</time></trkpt><trkpt lat="39.990480841483176" lon="9.059397154306899"><ele>517.0</ele><time>2026-04-27T15:26:22.299Z</time></trkpt><trkpt lat="39.99033457316959" lon="9.059556203663695"><ele>517.0</ele><time>2026-04-27T15:26:23.299Z</time></trkpt><trkpt lat="39.990160237472274" lon="9.059692129837755"><ele>517.0</ele><time>2026-04-27T15:26:24.299Z</time></trkpt><trkpt lat="39.98995047124523" lon="9.059798951545355"><ele>517.0</ele><time>2026-04-27T15:26:25.299Z</time></trkpt><trkpt lat="39.989769961694186" lon="9.059920743881555"><ele>516.6666666666667</ele><time>2026-04-27T15:26:26.299Z</time></trkpt><trkpt lat="39.989593374713934" lon="9.060018936675858"><ele>516.3333333333334</ele><time>2026-04-27T15:26:27.299Z</time></trkpt><trkpt lat="39.98942831422582" lon="9.060098363028658"><ele>516.0</ele><time>2026-04-27T15:26:28.299Z</time></trkpt><trkpt lat="39.989296245490024" lon="9.060205987502362"><ele>516.0</ele><time>2026-04-27T15:26:29.299Z</time></trkpt><trkpt lat="39.98920577229552" lon="9.060371762568105"><ele>516.0</ele><time>2026-04-27T15:26:30.299Z</time></trkpt><trkpt lat="39.98915175368886" lon="9.060578542164082"><ele>516.0</ele><time>2026-04-27T15:26:31.299Z</time></trkpt><trkpt lat="39.98913076256847" lon="9.060785563492438"><ele>516.6666666666666</ele><time>2026-04-27T15:26:32.299Z</time></trkpt><trkpt lat="39.98916498201765" lon="9.060985438115516"><ele>517.3333333333333</ele><time>2026-04-27T15:26:33.299Z</time></trkpt><trkpt lat="39.98925336832089" lon="9.061151431872254"><ele>518.0</ele><time>2026-04-27T15:26:34.299Z</time></trkpt><trkpt lat="39.98938810543854" lon="9.061312512908584"><ele>518.0</ele><time>2026-04-27T15:26:35.299Z</time></trkpt><trkpt lat="39.989538851569" lon="9.06148866050712"><ele>518.0</ele><time>2026-04-27T15:26:36.299Z</time></trkpt><trkpt lat="39.98968557143943" lon="9.061681276021496"><ele>518.0</ele><time>2026-04-27T15:26:37.299Z</time></trkpt><trkpt lat="39.98981162309798" lon="9.061903566995811"><ele>516.6666666666666</ele><time>2026-04-27T15:26:38.299Z</time></trkpt><trkpt lat="39.98991814637393" lon="9.062147717746642"><ele>515.3333333333334</ele><time>2026-04-27T15:26:39.299Z</time></trkpt><trkpt lat="39.98999849622689" lon="9.06241590786736"><ele>514.0</ele><time>2026-04-27T15:26:40.299Z</time></trkpt><trkpt lat="39.99007964057463" lon="9.06267784947428"><ele>514.0</ele><time>2026-04-27T15:26:41.299Z</time></trkpt><trkpt lat="39.99014809065558" lon="9.062927992897098"><ele>514.0</ele><time>2026-04-27T15:26:42.299Z</time></trkpt><trkpt lat="39.99021518811402" lon="9.063155577436092"><ele>514.0</ele><time>2026-04-27T15:26:43.299Z</time></trkpt><trkpt lat="39.99026610238414" lon="9.063363119074396"><ele>513.6666666666667</ele><time>2026-04-27T15:26:44.299Z</time></trkpt><trkpt lat="39.99025580848622" lon="9.063575624029854"><ele>513.3333333333334</ele><time>2026-04-27T15:26:45.299Z</time></trkpt><trkpt lat="39.99019215068624" lon="9.063774847580314"><ele>513.0</ele><time>2026-04-27T15:26:46.299Z</time></trkpt><trkpt lat="39.99008176742724" lon="9.063959265672372"><ele>508.66666666666663</ele><time>2026-04-27T15:26:47.299Z</time></trkpt><trkpt lat="39.98994744410146" lon="9.064135583388733"><ele>504.3333333333333</ele><time>2026-04-27T15:26:48.299Z</time></trkpt><trkpt lat="39.98981359433341" lon="9.064305653045079"><ele>500.0</ele><time>2026-04-27T15:26:49.299Z</time></trkpt><trkpt lat="39.98970658198672" lon="9.064497458618789"><ele>500.0</ele><time>2026-04-27T15:26:50.299Z</time></trkpt><trkpt lat="39.989651670451096" lon="9.064705717107776"><ele>500.0</ele><time>2026-04-27T15:26:51.299Z</time></trkpt><trkpt lat="39.98963693821084" lon="9.064933741137079"><ele>500.0</ele><time>2026-04-27T15:26:52.299Z</time></trkpt><trkpt lat="39.98961432640936" lon="9.065160551195591"><ele>499.66666666666663</ele><time>2026-04-27T15:26:53.299Z</time></trkpt><trkpt lat="39.98954161798222" lon="9.065351189123101"><ele>499.33333333333337</ele><time>2026-04-27T15:26:54.299Z</time></trkpt><trkpt lat="39.989456821136706" lon="9.065517438539452"><ele>499.0</ele><time>2026-04-27T15:26:55.299Z</time></trkpt><trkpt lat="39.98942458611446" lon="9.065691128482891"><ele>499.33333333333337</ele><time>2026-04-27T15:26:56.299Z</time></trkpt><trkpt lat="39.98946491015497" lon="9.065872638563254"><ele>499.66666666666663</ele><time>2026-04-27T15:26:57.299Z</time></trkpt><trkpt lat="39.98957538290638" lon="9.066017679127768"><ele>500.0</ele><time>2026-04-27T15:26:58.299Z</time></trkpt><trkpt lat="39.98970097506029" lon="9.066150136566991"><ele>500.0</ele><time>2026-04-27T15:26:59.299Z</time></trkpt><trkpt lat="39.98976369133585" lon="9.066328707838103"><ele>500.0</ele><time>2026-04-27T15:27:00.299Z</time></trkpt><trkpt lat="39.98975724639271" lon="9.06653068882551"><ele>500.0</ele><time>2026-04-27T15:27:01.299Z</time></trkpt><trkpt lat="39.989704608944045" lon="9.066746823625872"><ele>501.0</ele><time>2026-04-27T15:27:02.299Z</time></trkpt><trkpt lat="39.98963799293546" lon="9.066959376653012"><ele>502.0</ele><time>2026-04-27T15:27:03.3Z</time></trkpt><trkpt lat="39.989533057561566" lon="9.067135375762444"><ele>503.0</ele><time>2026-04-27T15:27:04.3Z</time></trkpt><trkpt lat="39.98943406780442" lon="9.067281444315698"><ele>504.0</ele><time>2026-04-27T15:27:05.3Z</time></trkpt><trkpt lat="39.98940088395664" lon="9.067448466744793"><ele>505.0</ele><time>2026-04-27T15:27:06.3Z</time></trkpt><trkpt lat="39.98942774132999" lon="9.06763022023991"><ele>506.0</ele><time>2026-04-27T15:27:07.3Z</time></trkpt><trkpt lat="39.98951843884697" lon="9.067782970321389"><ele>507.0</ele><time>2026-04-27T15:27:08.3Z</time></trkpt><trkpt lat="39.98966169740587" lon="9.06786419407044"><ele>507.0</ele><time>2026-04-27T15:27:09.3Z</time></trkpt><trkpt lat="39.98982776642624" lon="9.067889798709084"><ele>507.0</ele><time>2026-04-27T15:27:10.3Z</time></trkpt><trkpt lat="39.9899867795809" lon="9.067913138403625"><ele>507.0</ele><time>2026-04-27T15:27:11.3Z</time></trkpt><trkpt lat="39.99013122517318" lon="9.06796832572472"><ele>507.0</ele><time>2026-04-27T15:27:12.3Z</time></trkpt><trkpt lat="39.99024560370498" lon="9.068058006991683"><ele>507.0</ele><time>2026-04-27T15:27:13.301Z</time></trkpt><trkpt lat="39.9903304778931" lon="9.068191440676305"><ele>507.0</ele><time>2026-04-27T15:27:14.301Z</time></trkpt><trkpt lat="39.990377516538565" lon="9.068368826289872"><ele>507.0</ele><time>2026-04-27T15:27:15.3Z</time></trkpt><trkpt lat="39.990396751148424" lon="9.0685687772499"><ele>509.0</ele><time>2026-04-27T15:27:16.3Z</time></trkpt><trkpt lat="39.99040380668695" lon="9.06877918689095"><ele>511.0</ele><time>2026-04-27T15:27:17.3Z</time></trkpt><trkpt lat="39.99042307549175" lon="9.068988187447333"><ele>513.0</ele><time>2026-04-27T15:27:18.3Z</time></trkpt><trkpt lat="39.99045317232627" lon="9.069199190312377"><ele>514.3333333333334</ele><time>2026-04-27T15:27:19.3Z</time></trkpt><trkpt lat="39.99049460648432" lon="9.069408280506684"><ele>515.6666666666667</ele><time>2026-04-27T15:27:20.3Z</time></trkpt><trkpt lat="39.99054340963863" lon="9.06961687019912"><ele>517.0</ele><time>2026-04-27T15:27:21.3Z</time></trkpt><trkpt lat="39.99058818217196" lon="9.069822287111643"><ele>517.5</ele><time>2026-04-27T15:27:22.3Z</time></trkpt><trkpt lat="39.990657339057414" lon="9.069992873475977"><ele>518.0</ele><time>2026-04-27T15:27:23.3Z</time></trkpt><trkpt lat="39.990772953764704" lon="9.070106299440162"><ele>518.5</ele><time>2026-04-27T15:27:24.3Z</time></trkpt><trkpt lat="39.99090155018388" lon="9.07021439599552"><ele>519.0</ele><time>2026-04-27T15:27:25.3Z</time></trkpt><trkpt lat="39.99103004511265" lon="9.070334957711097"><ele>519.0</ele><time>2026-04-27T15:27:26.3Z</time></trkpt><trkpt lat="39.9911575896141" lon="9.07046804195798"><ele>519.0</ele><time>2026-04-27T15:27:27.3Z</time></trkpt><trkpt lat="39.99126967033682" lon="9.07061846075181"><ele>519.0</ele><time>2026-04-27T15:27:28.3Z</time></trkpt><trkpt lat="39.99133561167675" lon="9.070812057587736"><ele>520.6666666666666</ele><time>2026-04-27T15:27:29.3Z</time></trkpt><trkpt lat="39.991372225771244" lon="9.071017937146202"><ele>522.3333333333333</ele><time>2026-04-27T15:27:30.3Z</time></trkpt><trkpt lat="39.99141659968341" lon="9.07122651320772"><ele>524.0</ele><time>2026-04-27T15:27:31.3Z</time></trkpt><trkpt lat="39.99150313536694" lon="9.07141979647036"><ele>524.0</ele><time>2026-04-27T15:27:32.3Z</time></trkpt><trkpt lat="39.99160916455328" lon="9.07159370652811"><ele>524.0</ele><time>2026-04-27T15:27:33.3Z</time></trkpt><trkpt lat="39.99172280573372" lon="9.071755918362586"><ele>524.0</ele><time>2026-04-27T15:27:34.3Z</time></trkpt><trkpt lat="39.99183388749464" lon="9.071912273031263"><ele>525.0</ele><time>2026-04-27T15:27:35.3Z</time></trkpt><trkpt lat="39.99193812886871" lon="9.07207054172312"><ele>526.0</ele><time>2026-04-27T15:27:36.3Z</time></trkpt><trkpt lat="39.99202866838461" lon="9.072236133795242"><ele>527.0</ele><time>2026-04-27T15:27:37.3Z</time></trkpt><trkpt lat="39.992100999687665" lon="9.072416526456147"><ele>529.0</ele><time>2026-04-27T15:27:38.3Z</time></trkpt><trkpt lat="39.992163753827946" lon="9.072602884711335"><ele>531.0</ele><time>2026-04-27T15:27:39.3Z</time></trkpt><trkpt lat="39.99223112497541" lon="9.072798055500447"><ele>533.0</ele><time>2026-04-27T15:27:40.3Z</time></trkpt><trkpt lat="39.99232782993725" lon="9.07296293977339"><ele>533.0</ele><time>2026-04-27T15:27:41.301Z</time></trkpt><trkpt lat="39.992443000591905" lon="9.07310046701793"><ele>533.0</ele><time>2026-04-27T15:27:42.301Z</time></trkpt><trkpt lat="39.99256673591616" lon="9.07323259152927"><ele>533.0</ele><time>2026-04-27T15:27:43.301Z</time></trkpt><trkpt lat="39.99266630199977" lon="9.073382229735467"><ele>532.25</ele><time>2026-04-27T15:27:44.301Z</time></trkpt><trkpt lat="39.99273000563872" lon="9.073553061254602"><ele>531.5</ele><time>2026-04-27T15:27:45.301Z</time></trkpt><trkpt lat="39.992750355617" lon="9.073742761264702"><ele>530.75</ele><time>2026-04-27T15:27:46.301Z</time></trkpt><trkpt lat="39.992759057261964" lon="9.073943471956742"><ele>530.0</ele><time>2026-04-27T15:27:47.301Z</time></trkpt><trkpt lat="39.99279572820942" lon="9.074134512934123"><ele>533.0</ele><time>2026-04-27T15:27:48.301Z</time></trkpt><trkpt lat="39.992881060037796" lon="9.074298178482241"><ele>536.0</ele><time>2026-04-27T15:27:49.301Z</time></trkpt><trkpt lat="39.99300933938069" lon="9.07440717358739"><ele>539.0</ele><time>2026-04-27T15:27:50.301Z</time></trkpt><trkpt lat="39.99315935900673" lon="9.074475088061066"><ele>539.0</ele><time>2026-04-27T15:27:51.301Z</time></trkpt><trkpt lat="39.99331585115297" lon="9.074531812887566"><ele>539.0</ele><time>2026-04-27T15:27:52.301Z</time></trkpt><trkpt lat="39.99344392644602" lon="9.074633964638542"><ele>539.0</ele><time>2026-04-27T15:27:53.301Z</time></trkpt><trkpt lat="39.99352767316705" lon="9.074779358783363"><ele>538.75</ele><time>2026-04-27T15:27:54.301Z</time></trkpt><trkpt lat="39.993549813772475" lon="9.07494867402525"><ele>538.5</ele><time>2026-04-27T15:27:55.301Z</time></trkpt><trkpt lat="39.993541060314755" lon="9.075111784697622"><ele>538.25</ele><time>2026-04-27T15:27:56.301Z</time></trkpt><trkpt lat="39.99351973168899" lon="9.075274773249468"><ele>538.0</ele><time>2026-04-27T15:27:57.301Z</time></trkpt><trkpt lat="39.993494312310396" lon="9.075437136165776"><ele>538.0</ele><time>2026-04-27T15:27:58.301Z</time></trkpt><trkpt lat="39.99345248402053" lon="9.075575295483612"><ele>538.0</ele><time>2026-04-27T15:27:59.301Z</time></trkpt><trkpt lat="39.99338836740202" lon="9.075690392064216"><ele>538.0</ele><time>2026-04-27T15:28:00.301Z</time></trkpt><trkpt lat="39.99330590905877" lon="9.075781569469873"><ele>538.0</ele><time>2026-04-27T15:28:01.301Z</time></trkpt><trkpt lat="39.99322259366645" lon="9.075863119468577"><ele>538.0</ele><time>2026-04-27T15:28:02.301Z</time></trkpt><trkpt lat="39.99314957181581" lon="9.075945264896703"><ele>540.8333333333334</ele><time>2026-04-27T15:28:03.301Z</time></trkpt><trkpt lat="39.99308856133812" lon="9.076034388724128"><ele>543.6666666666667</ele><time>2026-04-27T15:28:04.301Z</time></trkpt><trkpt lat="39.99304170321528" lon="9.076124360359902"><ele>546.5</ele><time>2026-04-27T15:28:05.301Z</time></trkpt><trkpt lat="39.993006107575816" lon="9.076215640118543"><ele>549.3333333333334</ele><time>2026-04-27T15:28:06.301Z</time></trkpt><trkpt lat="39.992981480601486" lon="9.07629848303094"><ele>552.1666666666666</ele><time>2026-04-27T15:28:07.301Z</time></trkpt><trkpt lat="39.99295345052625" lon="9.076395720066207"><ele>555.0</ele><time>2026-04-27T15:28:09.301Z</time></trkpt><trkpt lat="39.99296433798056" lon="9.076498923239615"><ele>555.0</ele><time>2026-04-27T15:28:26.301Z</time></trkpt><trkpt lat="39.993043945353165" lon="9.076574082106763"><ele>555.0</ele><time>2026-04-27T15:28:28.301Z</time></trkpt><trkpt lat="39.993103247245536" lon="9.07661162716516"><ele>555.0</ele><time>2026-04-27T15:28:29.301Z</time></trkpt><trkpt lat="39.993171078136854" lon="9.076644411495955"><ele>555.0</ele><time>2026-04-27T15:28:30.301Z</time></trkpt><trkpt lat="39.99323737129546" lon="9.07667742357308"><ele>555.0</ele><time>2026-04-27T15:28:31.301Z</time></trkpt><trkpt lat="39.99330456771752" lon="9.076708249367952"><ele>555.0</ele><time>2026-04-27T15:28:32.301Z</time></trkpt><trkpt lat="39.993369297033624" lon="9.076754028960364"><ele>554.6666666666666</ele><time>2026-04-27T15:28:33.301Z</time></trkpt><trkpt lat="39.99344035471632" lon="9.076804952822668"><ele>554.3333333333334</ele><time>2026-04-27T15:28:34.301Z</time></trkpt><trkpt lat="39.99351797990811" lon="9.07685724171923"><ele>554.0</ele><time>2026-04-27T15:28:35.301Z</time></trkpt><trkpt lat="39.993596950417476" lon="9.076922721697928"><ele>553.6666666666667</ele><time>2026-04-27T15:28:36.301Z</time></trkpt><trkpt lat="39.9936726124067" lon="9.07699617886492"><ele>553.3333333333334</ele><time>2026-04-27T15:28:37.301Z</time></trkpt><trkpt lat="39.993747670194914" lon="9.077067372160299"><ele>553.0</ele><time>2026-04-27T15:28:38.301Z</time></trkpt><trkpt lat="39.99382180572028" lon="9.077140451528692"><ele>553.0</ele><time>2026-04-27T15:28:39.301Z</time></trkpt><trkpt lat="39.993896906997946" lon="9.077207576359603"><ele>553.0</ele><time>2026-04-27T15:28:40.301Z</time></trkpt><trkpt lat="39.99396860073923" lon="9.07728607007749"><ele>553.0</ele><time>2026-04-27T15:28:41.301Z</time></trkpt><trkpt lat="39.99404294680514" lon="9.077362249820109"><ele>553.0</ele><time>2026-04-27T15:28:42.301Z</time></trkpt><trkpt lat="39.994112636669904" lon="9.077440900747636"><ele>553.0</ele><time>2026-04-27T15:28:43.301Z</time></trkpt><trkpt lat="39.994184071556084" lon="9.077522039243835"><ele>553.8</ele><time>2026-04-27T15:28:44.301Z</time></trkpt><trkpt lat="39.994264878020545" lon="9.077585399057266"><ele>554.5999999999999</ele><time>2026-04-27T15:28:45.301Z</time></trkpt><trkpt lat="39.99435267474423" lon="9.077626406860631"><ele>555.4000000000001</ele><time>2026-04-27T15:28:46.301Z</time></trkpt><trkpt lat="39.99444751356585" lon="9.077636395610778"><ele>556.2</ele><time>2026-04-27T15:28:47.301Z</time></trkpt><trkpt lat="39.99454462358511" lon="9.077619282554947"><ele>557.0</ele><time>2026-04-27T15:28:48.301Z</time></trkpt><trkpt lat="39.9946354784484" lon="9.077589805835352"><ele>557.0</ele><time>2026-04-27T15:28:49.301Z</time></trkpt><trkpt lat="39.994727632812896" lon="9.077547934010141"><ele>557.0</ele><time>2026-04-27T15:28:50.301Z</time></trkpt><trkpt lat="39.99482776675662" lon="9.077513352841102"><ele>557.0</ele><time>2026-04-27T15:28:51.301Z</time></trkpt><trkpt lat="39.99493221879585" lon="9.077478732962431"><ele>557.0</ele><time>2026-04-27T15:28:52.301Z</time></trkpt><trkpt lat="39.99503563762767" lon="9.077443696871311"><ele>557.0</ele><time>2026-04-27T15:28:53.301Z</time></trkpt><trkpt lat="39.995152614471536" lon="9.077404873669298"><ele>556.5</ele><time>2026-04-27T15:28:54.302Z</time></trkpt><trkpt lat="39.99527067107962" lon="9.077383654428486"><ele>556.0</ele><time>2026-04-27T15:28:55.302Z</time></trkpt><trkpt lat="39.995393901561144" lon="9.07738336965406"><ele>555.5</ele><time>2026-04-27T15:28:56.302Z</time></trkpt><trkpt lat="39.99551728907629" lon="9.077418315374171"><ele>555.0</ele><time>2026-04-27T15:28:57.302Z</time></trkpt><trkpt lat="39.99564338966299" lon="9.077457804771965"><ele>555.0</ele><time>2026-04-27T15:28:58.302Z</time></trkpt><trkpt lat="39.995773817741465" lon="9.07749780252828"><ele>555.0</ele><time>2026-04-27T15:28:59.302Z</time></trkpt><trkpt lat="39.9959065498258" lon="9.077536675543785"><ele>555.0</ele><time>2026-04-27T15:29:00.302Z</time></trkpt><trkpt lat="39.9960442400401" lon="9.077577232889569"><ele>555.0</ele><time>2026-04-27T15:29:01.302Z</time></trkpt><trkpt lat="39.996179221829244" lon="9.077621992776255"><ele>554.75</ele><time>2026-04-27T15:29:02.302Z</time></trkpt><trkpt lat="39.99631752679471" lon="9.07765457533054"><ele>554.5</ele><time>2026-04-27T15:29:03.302Z</time></trkpt><trkpt lat="39.996455090386476" lon="9.077666053949295"><ele>554.25</ele><time>2026-04-27T15:29:04.302Z</time></trkpt><trkpt lat="39.99659278128791" lon="9.077658175851928"><ele>554.0</ele><time>2026-04-27T15:29:05.302Z</time></trkpt><trkpt lat="39.9967366580367" lon="9.0776593764398"><ele>553.5</ele><time>2026-04-27T15:29:06.302Z</time></trkpt><trkpt lat="39.99687455317946" lon="9.077685376678799"><ele>553.0</ele><time>2026-04-27T15:29:07.302Z</time></trkpt><trkpt lat="39.997008064288224" lon="9.07774837066042"><ele>552.5</ele><time>2026-04-27T15:29:08.302Z</time></trkpt><trkpt lat="39.99713104907239" lon="9.077833903423693"><ele>552.0</ele><time>2026-04-27T15:29:09.304Z</time></trkpt><trkpt lat="39.99724507022383" lon="9.077934665140207"><ele>552.0</ele><time>2026-04-27T15:29:10.303Z</time></trkpt><trkpt lat="39.997371551605475" lon="9.07802472144193"><ele>552.0</ele><time>2026-04-27T15:29:11.303Z</time></trkpt><trkpt lat="39.99751126102062" lon="9.078112757973711"><ele>552.0</ele><time>2026-04-27T15:29:12.303Z</time></trkpt><trkpt lat="39.99765541377959" lon="9.07819394923519"><ele>552.3333333333334</ele><time>2026-04-27T15:29:13.303Z</time></trkpt><trkpt lat="39.99780268462613" lon="9.078275268383699"><ele>552.6666666666667</ele><time>2026-04-27T15:29:14.303Z</time></trkpt><trkpt lat="39.99795040718214" lon="9.078353400199486"><ele>553.0</ele><time>2026-04-27T15:29:15.304Z</time></trkpt><trkpt lat="39.9980980265247" lon="9.078432985156562"><ele>553.0</ele><time>2026-04-27T15:29:16.304Z</time></trkpt><trkpt lat="39.998248771428464" lon="9.078510684294109"><ele>553.0</ele><time>2026-04-27T15:29:17.304Z</time></trkpt><trkpt lat="39.998396045354106" lon="9.078599037503604"><ele>553.0</ele><time>2026-04-27T15:29:18.304Z</time></trkpt><trkpt lat="39.998549700469724" lon="9.078680080413703"><ele>552.3333333333334</ele><time>2026-04-27T15:29:19.303Z</time></trkpt><trkpt lat="39.99870267255262" lon="9.078750812976361"><ele>551.6666666666666</ele><time>2026-04-27T15:29:20.303Z</time></trkpt><trkpt lat="39.99886093855336" lon="9.078830162320498"><ele>551.0</ele><time>2026-04-27T15:29:21.303Z</time></trkpt><trkpt lat="39.99901982370181" lon="9.07891670982259"><ele>552.0</ele><time>2026-04-27T15:29:22.304Z</time></trkpt><trkpt lat="39.99918129705351" lon="9.079002955238265"><ele>553.0</ele><time>2026-04-27T15:29:23.304Z</time></trkpt><trkpt lat="39.99934592990707" lon="9.079089429010464"><ele>554.0</ele><time>2026-04-27T15:29:24.304Z</time></trkpt><trkpt lat="39.99950372689978" lon="9.079166721779272"><ele>555.0</ele><time>2026-04-27T15:29:25.304Z</time></trkpt><trkpt lat="39.99966216659333" lon="9.079245093851023"><ele>556.0</ele><time>2026-04-27T15:29:26.304Z</time></trkpt><trkpt lat="39.99982625113117" lon="9.079335961007418"><ele>557.0</ele><time>2026-04-27T15:29:27.304Z</time></trkpt><trkpt lat="39.99998895489726" lon="9.079422577475386"><ele>557.0</ele><time>2026-04-27T15:29:28.304Z</time></trkpt><trkpt lat="40.0001515382374" lon="9.079508576685697"><ele>557.0</ele><time>2026-04-27T15:29:29.304Z</time></trkpt><trkpt lat="40.00031760972382" lon="9.07959892337183"><ele>557.0</ele><time>2026-04-27T15:29:30.304Z</time></trkpt><trkpt lat="40.00047749118902" lon="9.079683486159306"><ele>557.0</ele><time>2026-04-27T15:29:31.304Z</time></trkpt><trkpt lat="40.000639355365834" lon="9.079767128086058"><ele>557.0</ele><time>2026-04-27T15:29:32.304Z</time></trkpt><trkpt lat="40.000795449317906" lon="9.079851999027905"><ele>557.0</ele><time>2026-04-27T15:29:33.304Z</time></trkpt><trkpt lat="40.00094207607412" lon="9.079936033819294"><ele>557.0</ele><time>2026-04-27T15:29:34.304Z</time></trkpt><trkpt lat="40.00107525334733" lon="9.080048871197837"><ele>557.0</ele><time>2026-04-27T15:29:35.304Z</time></trkpt><trkpt lat="40.001176246942784" lon="9.080225058305066"><ele>557.0</ele><time>2026-04-27T15:29:36.304Z</time></trkpt><trkpt lat="40.00126541911008" lon="9.080423555441863"><ele>557.0</ele><time>2026-04-27T15:29:37.304Z</time></trkpt><trkpt lat="40.00134818281142" lon="9.080636623359185"><ele>557.0</ele><time>2026-04-27T15:29:38.304Z</time></trkpt><trkpt lat="40.001433301202894" lon="9.08085864500643"><ele>557.0</ele><time>2026-04-27T15:29:39.304Z</time></trkpt><trkpt lat="40.001521183685384" lon="9.081081138968125"><ele>556.3333333333333</ele><time>2026-04-27T15:29:40.304Z</time></trkpt><trkpt lat="40.00161932936657" lon="9.081279737772626"><ele>555.6666666666666</ele><time>2026-04-27T15:29:41.304Z</time></trkpt><trkpt lat="40.00174264373048" lon="9.081419938323645"><ele>555.0</ele><time>2026-04-27T15:29:42.304Z</time></trkpt><trkpt lat="40.001903728421766" lon="9.081486170060883"><ele>555.0</ele><time>2026-04-27T15:29:43.304Z</time></trkpt><trkpt lat="40.00208582895493" lon="9.08150326385015"><ele>555.0</ele><time>2026-04-27T15:29:44.304Z</time></trkpt><trkpt lat="40.00226971423738" lon="9.081508901786975"><ele>555.0</ele><time>2026-04-27T15:29:45.304Z</time></trkpt><trkpt lat="40.00245831588744" lon="9.081526529128737"><ele>553.0</ele><time>2026-04-27T15:29:46.304Z</time></trkpt><trkpt lat="40.002645552498514" lon="9.081545108471142"><ele>551.0</ele><time>2026-04-27T15:29:47.304Z</time></trkpt><trkpt lat="40.00283177508247" lon="9.081562745498182"><ele>549.0</ele><time>2026-04-27T15:29:48.304Z</time></trkpt><trkpt lat="40.00301359421291" lon="9.081591070787988"><ele>551.0</ele><time>2026-04-27T15:29:49.304Z</time></trkpt><trkpt lat="40.003188183793796" lon="9.081678554641512"><ele>553.0</ele><time>2026-04-27T15:29:50.304Z</time></trkpt><trkpt lat="40.003348003586765" lon="9.08180893055469"><ele>555.0</ele><time>2026-04-27T15:29:51.304Z</time></trkpt><trkpt lat="40.00349182091859" lon="9.081970687214977"><ele>555.0</ele><time>2026-04-27T15:29:52.304Z</time></trkpt><trkpt lat="40.00361968526441" lon="9.082132733198574"><ele>555.0</ele><time>2026-04-27T15:29:53.304Z</time></trkpt><trkpt lat="40.003765407420616" lon="9.082223636376025"><ele>555.0</ele><time>2026-04-27T15:29:54.304Z</time></trkpt><trkpt lat="40.00393546706517" lon="9.082232895222736"><ele>555.0</ele><time>2026-04-27T15:29:55.304Z</time></trkpt><trkpt lat="40.00411609095048" lon="9.082204210476185"><ele>555.0</ele><time>2026-04-27T15:29:56.304Z</time></trkpt><trkpt lat="40.00431545303198" lon="9.082186925350856"><ele>555.0</ele><time>2026-04-27T15:29:57.304Z</time></trkpt><trkpt lat="40.00450738345891" lon="9.082170038897676"><ele>554.3333333333334</ele><time>2026-04-27T15:29:58.304Z</time></trkpt><trkpt lat="40.00469912647072" lon="9.082147713564309"><ele>553.6666666666667</ele><time>2026-04-27T15:29:59.304Z</time></trkpt><trkpt lat="40.00489130562148" lon="9.082126551675312"><ele>553.0</ele><time>2026-04-27T15:30:00.304Z</time></trkpt><trkpt lat="40.00508392098526" lon="9.08210359949503"><ele>555.0</ele><time>2026-04-27T15:30:01.304Z</time></trkpt><trkpt lat="40.00527199464116" lon="9.082082313794455"><ele>557.0</ele><time>2026-04-27T15:30:02.304Z</time></trkpt><trkpt lat="40.00545860068795" lon="9.082063568697171"><ele>559.0</ele><time>2026-04-27T15:30:03.304Z</time></trkpt><trkpt lat="40.005642436141976" lon="9.082058315476399"><ele>559.0</ele><time>2026-04-27T15:30:04.304Z</time></trkpt><trkpt lat="40.00582524582875" lon="9.082077426476914"><ele>559.0</ele><time>2026-04-27T15:30:05.304Z</time></trkpt><trkpt lat="40.00600923220573" lon="9.082107842552578"><ele>559.0</ele><time>2026-04-27T15:30:06.304Z</time></trkpt><trkpt lat="40.006197369782" lon="9.082139515508008"><ele>559.6666666666667</ele><time>2026-04-27T15:30:07.304Z</time></trkpt><trkpt lat="40.006387339976904" lon="9.082157088322436"><ele>560.3333333333334</ele><time>2026-04-27T15:30:08.304Z</time></trkpt><trkpt lat="40.0065782912759" lon="9.082152980875264"><ele>561.0</ele><time>2026-04-27T15:30:09.304Z</time></trkpt><trkpt lat="40.00676729029921" lon="9.082120281430992"><ele>561.6666666666666</ele><time>2026-04-27T15:30:10.304Z</time></trkpt><trkpt lat="40.00695757808253" lon="9.082087613634911"><ele>562.3333333333333</ele><time>2026-04-27T15:30:11.304Z</time></trkpt><trkpt lat="40.007151746068125" lon="9.08205736557574"><ele>563.0</ele><time>2026-04-27T15:30:12.304Z</time></trkpt><trkpt lat="40.00734522060757" lon="9.082024865554667"><ele>565.0</ele><time>2026-04-27T15:30:13.304Z</time></trkpt><trkpt lat="40.00754031841783" lon="9.081989295171535"><ele>567.0</ele><time>2026-04-27T15:30:14.304Z</time></trkpt><trkpt lat="40.00772457222204" lon="9.081904628698112"><ele>569.0</ele><time>2026-04-27T15:30:15.304Z</time></trkpt><trkpt lat="40.00789717252051" lon="9.08177412396732"><ele>569.0</ele><time>2026-04-27T15:30:16.304Z</time></trkpt><trkpt lat="40.008064712412406" lon="9.081627017998699"><ele>569.0</ele><time>2026-04-27T15:30:17.304Z</time></trkpt><trkpt lat="40.008233327595235" lon="9.08147936450765"><ele>569.0</ele><time>2026-04-27T15:30:18.304Z</time></trkpt><trkpt lat="40.00839898160035" lon="9.08134258673856"><ele>572.0</ele><time>2026-04-27T15:30:19.304Z</time></trkpt><trkpt lat="40.00854609269768" lon="9.081207997511038"><ele>575.0</ele><time>2026-04-27T15:30:20.304Z</time></trkpt><trkpt lat="40.00868395264945" lon="9.081086167159196"><ele>578.0</ele><time>2026-04-27T15:30:21.304Z</time></trkpt><trkpt lat="40.00881800568084" lon="9.080974753331857"><ele>578.0</ele><time>2026-04-27T15:30:22.304Z</time></trkpt><trkpt lat="40.008948261803106" lon="9.08087650819921"><ele>578.0</ele><time>2026-04-27T15:30:23.304Z</time></trkpt><trkpt lat="40.009086373430804" lon="9.08079650633123"><ele>578.0</ele><time>2026-04-27T15:30:24.304Z</time></trkpt><trkpt lat="40.009220773670826" lon="9.080743136972965"><ele>578.0</ele><time>2026-04-27T15:30:25.304Z</time></trkpt><trkpt lat="40.009348823137586" lon="9.080704372129903"><ele>578.0</ele><time>2026-04-27T15:30:26.304Z</time></trkpt><trkpt lat="40.00946778531295" lon="9.08067455740443"><ele>578.0</ele><time>2026-04-27T15:30:27.304Z</time></trkpt><trkpt lat="40.00958281175471" lon="9.080653699828655"><ele>578.0</ele><time>2026-04-27T15:30:28.304Z</time></trkpt><trkpt lat="40.00969384362948" lon="9.080667066408063"><ele>578.0</ele><time>2026-04-27T15:30:29.304Z</time></trkpt><trkpt lat="40.00978955265572" lon="9.080737411510752"><ele>580.0</ele><time>2026-04-27T15:30:30.304Z</time></trkpt><trkpt lat="40.009871127905036" lon="9.080840989387479"><ele>582.0</ele><time>2026-04-27T15:30:31.304Z</time></trkpt><trkpt lat="40.00994675094893" lon="9.080959811958959"><ele>584.0</ele><time>2026-04-27T15:30:32.304Z</time></trkpt><trkpt lat="40.010027496362454" lon="9.081090887558968"><ele>586.0</ele><time>2026-04-27T15:30:33.305Z</time></trkpt><trkpt lat="40.01011011384378" lon="9.08122367925131"><ele>586.0</ele><time>2026-04-27T15:30:34.305Z</time></trkpt><trkpt lat="40.01019336915071" lon="9.081353724283902"><ele>586.0</ele><time>2026-04-27T15:30:35.305Z</time></trkpt><trkpt lat="40.01027412550371" lon="9.081477560746443"><ele>586.0</ele><time>2026-04-27T15:30:36.305Z</time></trkpt><trkpt lat="40.010344964888674" lon="9.081605046757467"><ele>586.0</ele><time>2026-04-27T15:30:37.305Z</time></trkpt><trkpt lat="40.01041086215703" lon="9.081721169641654"><ele>589.0</ele><time>2026-04-27T15:30:38.305Z</time></trkpt><trkpt lat="40.01047986888542" lon="9.081835189690613"><ele>592.0</ele><time>2026-04-27T15:30:39.305Z</time></trkpt><trkpt lat="40.01056500483256" lon="9.081947252421143"><ele>595.0</ele><time>2026-04-27T15:30:40.305Z</time></trkpt><trkpt lat="40.01067467808248" lon="9.082030632955494"><ele>598.0</ele><time>2026-04-27T15:30:41.305Z</time></trkpt><trkpt lat="40.0108100580699" lon="9.082085380724704"><ele>596.25</ele><time>2026-04-27T15:30:42.305Z</time></trkpt><trkpt lat="40.01094947477216" lon="9.08212124004159"><ele>594.5</ele><time>2026-04-27T15:30:43.305Z</time></trkpt><trkpt lat="40.01108572451373" lon="9.082132475468454"><ele>592.75</ele><time>2026-04-27T15:30:44.305Z</time></trkpt><trkpt lat="40.011218317388725" lon="9.082181003867145"><ele>591.0</ele><time>2026-04-27T15:30:45.305Z</time></trkpt><trkpt lat="40.011339768235054" lon="9.08220560745152"><ele>591.0</ele><time>2026-04-27T15:30:46.305Z</time></trkpt><trkpt lat="40.011459036898074" lon="9.082221119446746"><ele>591.0</ele><time>2026-04-27T15:30:47.305Z</time></trkpt><trkpt lat="40.01159545051361" lon="9.082222332209358"><ele>591.0</ele><time>2026-04-27T15:30:48.305Z</time></trkpt><trkpt lat="40.01172842019075" lon="9.082204401773554"><ele>591.0</ele><time>2026-04-27T15:30:49.305Z</time></trkpt><trkpt lat="40.01185065095941" lon="9.082167292012223"><ele>591.5</ele><time>2026-04-27T15:30:50.305Z</time></trkpt><trkpt lat="40.011968995330925" lon="9.082147452875219"><ele>592.0</ele><time>2026-04-27T15:30:51.305Z</time></trkpt><trkpt lat="40.01208141665632" lon="9.082183854863601"><ele>592.5</ele><time>2026-04-27T15:30:52.305Z</time></trkpt><trkpt lat="40.01218603666494" lon="9.082244428791503"><ele>593.0</ele><time>2026-04-27T15:30:53.305Z</time></trkpt><trkpt lat="40.01228161595224" lon="9.08229335966144"><ele>593.0</ele><time>2026-04-27T15:30:54.305Z</time></trkpt><trkpt lat="40.012373134414226" lon="9.082315150160756"><ele>593.0</ele><time>2026-04-27T15:30:55.305Z</time></trkpt><trkpt lat="40.01246035283544" lon="9.082289798708063"><ele>593.0</ele><time>2026-04-27T15:30:56.305Z</time></trkpt><trkpt lat="40.012546740195525" lon="9.08226365098064"><ele>593.0</ele><time>2026-04-27T15:30:57.305Z</time></trkpt><trkpt lat="40.012640474111706" lon="9.082251749503344"><ele>593.0</ele><time>2026-04-27T15:30:58.305Z</time></trkpt><trkpt lat="40.01273393482528" lon="9.082272246107866"><ele>594.4</ele><time>2026-04-27T15:30:59.305Z</time></trkpt><trkpt lat="40.01282110569637" lon="9.082331947857698"><ele>595.8</ele><time>2026-04-27T15:31:00.305Z</time></trkpt><trkpt lat="40.01289931042146" lon="9.08242413596616"><ele>597.2</ele><time>2026-04-27T15:31:01.305Z</time></trkpt><trkpt lat="40.01297681228822" lon="9.082519248454531"><ele>598.6</ele><time>2026-04-27T15:31:02.305Z</time></trkpt><trkpt lat="40.01305533638562" lon="9.082606826776766"><ele>600.0</ele><time>2026-04-27T15:31:03.305Z</time></trkpt><trkpt lat="40.01313682074708" lon="9.082690990357937"><ele>600.0</ele><time>2026-04-27T15:31:04.305Z</time></trkpt><trkpt lat="40.01322075444091" lon="9.082777927604498"><ele>600.0</ele><time>2026-04-27T15:31:05.305Z</time></trkpt><trkpt lat="40.01331183863674" lon="9.08286231393803"><ele>600.0</ele><time>2026-04-27T15:31:06.305Z</time></trkpt><trkpt lat="40.01341402447369" lon="9.082932685446071"><ele>600.0</ele><time>2026-04-27T15:31:07.305Z</time></trkpt><trkpt lat="40.01354135160167" lon="9.082973167134927"><ele>600.0</ele><time>2026-04-27T15:31:08.305Z</time></trkpt><trkpt lat="40.01369114547055" lon="9.082982190281273"><ele>600.0</ele><time>2026-04-27T15:31:09.305Z</time></trkpt><trkpt lat="40.01385911860068" lon="9.082966052114665"><ele>600.0</ele><time>2026-04-27T15:31:10.305Z</time></trkpt><trkpt lat="40.014036320382594" lon="9.082931220315848"><ele>600.6666666666666</ele><time>2026-04-27T15:31:11.305Z</time></trkpt><trkpt lat="40.01420300344743" lon="9.082877803076732"><ele>601.3333333333333</ele><time>2026-04-27T15:31:12.305Z</time></trkpt><trkpt lat="40.014354789013495" lon="9.082794127343192"><ele>602.0</ele><time>2026-04-27T15:31:13.305Z</time></trkpt><trkpt lat="40.01448748394169" lon="9.082696459188615"><ele>602.0</ele><time>2026-04-27T15:31:14.305Z</time></trkpt><trkpt lat="40.014604956673324" lon="9.082614187476537"><ele>602.0</ele><time>2026-04-27T15:31:15.307Z</time></trkpt><trkpt lat="40.01470866514379" lon="9.082541066690972"><ele>602.0</ele><time>2026-04-27T15:31:16.306Z</time></trkpt><trkpt lat="40.01481823245887" lon="9.082504518137828"><ele>602.0</ele><time>2026-04-27T15:31:17.306Z</time></trkpt><trkpt lat="40.01492714567984" lon="9.082502979001104"><ele>602.2</ele><time>2026-04-27T15:31:18.307Z</time></trkpt><trkpt lat="40.01502420418335" lon="9.082535789436957"><ele>602.4000000000001</ele><time>2026-04-27T15:31:19.306Z</time></trkpt><trkpt lat="40.01510920642671" lon="9.082590765799294"><ele>602.5999999999999</ele><time>2026-04-27T15:31:20.306Z</time></trkpt><trkpt lat="40.015182725838564" lon="9.082684794591914"><ele>602.8</ele><time>2026-04-27T15:31:21.306Z</time></trkpt><trkpt lat="40.01525673826403" lon="9.082800249463629"><ele>603.0</ele><time>2026-04-27T15:31:22.307Z</time></trkpt><trkpt lat="40.015335918680016" lon="9.08292128113516"><ele>603.0</ele><time>2026-04-27T15:31:23.307Z</time></trkpt><trkpt lat="40.0154152735633" lon="9.083048899085437"><ele>603.0</ele><time>2026-04-27T15:31:24.306Z</time></trkpt><trkpt lat="40.01549840746033" lon="9.083175847686375"><ele>603.0</ele><time>2026-04-27T15:31:25.307Z</time></trkpt><trkpt lat="40.01558429125178" lon="9.083292542260631"><ele>603.0</ele><time>2026-04-27T15:31:26.307Z</time></trkpt><trkpt lat="40.015667088238466" lon="9.083402391370633"><ele>603.5</ele><time>2026-04-27T15:31:27.306Z</time></trkpt><trkpt lat="40.01573975416879" lon="9.083526118361537"><ele>604.0</ele><time>2026-04-27T15:31:28.306Z</time></trkpt><trkpt lat="40.01579834039103" lon="9.083678866901046"><ele>604.5</ele><time>2026-04-27T15:31:29.306Z</time></trkpt><trkpt lat="40.015840579408824" lon="9.08385427656872"><ele>605.0</ele><time>2026-04-27T15:31:30.306Z</time></trkpt><trkpt lat="40.015871920043544" lon="9.08404193309876"><ele>606.75</ele><time>2026-04-27T15:31:31.306Z</time></trkpt><trkpt lat="40.01590502836145" lon="9.08423049038798"><ele>608.5</ele><time>2026-04-27T15:31:32.306Z</time></trkpt><trkpt lat="40.01594097310501" lon="9.084419109419102"><ele>610.25</ele><time>2026-04-27T15:31:33.306Z</time></trkpt><trkpt lat="40.01597122715753" lon="9.08461011866296"><ele>612.0</ele><time>2026-04-27T15:31:34.306Z</time></trkpt><trkpt lat="40.01600074624763" lon="9.084803068870356"><ele>612.6666666666666</ele><time>2026-04-27T15:31:35.306Z</time></trkpt><trkpt lat="40.016021646821656" lon="9.085001868561028"><ele>613.3333333333333</ele><time>2026-04-27T15:31:36.306Z</time></trkpt><trkpt lat="40.016036500755526" lon="9.085206564598915"><ele>614.0</ele><time>2026-04-27T15:31:37.306Z</time></trkpt><trkpt lat="40.016032061213544" lon="9.085423172181802"><ele>614.0</ele><time>2026-04-27T15:31:38.306Z</time></trkpt><trkpt lat="40.01602347263769" lon="9.085647134268177"><ele>614.0</ele><time>2026-04-27T15:31:39.306Z</time></trkpt><trkpt lat="40.01602727002318" lon="9.085880219079282"><ele>614.0</ele><time>2026-04-27T15:31:40.306Z</time></trkpt><trkpt lat="40.01606753337373" lon="9.086136718950444"><ele>616.3333333333333</ele><time>2026-04-27T15:31:41.306Z</time></trkpt><trkpt lat="40.01614928129818" lon="9.086387442942232"><ele>618.6666666666666</ele><time>2026-04-27T15:31:42.306Z</time></trkpt><trkpt lat="40.01624173346076" lon="9.086619188943162"><ele>621.0</ele><time>2026-04-27T15:31:43.307Z</time></trkpt><trkpt lat="40.01628610611735" lon="9.086906881202017"><ele>623.3333333333334</ele><time>2026-04-27T15:31:44.307Z</time></trkpt><trkpt lat="40.0163029569026" lon="9.087207937117052"><ele>625.6666666666667</ele><time>2026-04-27T15:31:45.307Z</time></trkpt><trkpt lat="40.016343268161144" lon="9.087487137496533"><ele>628.0</ele><time>2026-04-27T15:31:46.307Z</time></trkpt><trkpt lat="40.01640660274699" lon="9.087758418910127"><ele>629.6666666666667</ele><time>2026-04-27T15:31:47.307Z</time></trkpt><trkpt lat="40.01650115243979" lon="9.088013148446128"><ele>631.3333333333334</ele><time>2026-04-27T15:31:48.307Z</time></trkpt><trkpt lat="40.01661265615098" lon="9.088254007086924"><ele>633.0</ele><time>2026-04-27T15:31:49.307Z</time></trkpt><trkpt lat="40.01668589471863" lon="9.088517245335177"><ele>629.3333333333334</ele><time>2026-04-27T15:31:50.307Z</time></trkpt><trkpt lat="40.01674313454444" lon="9.08879455523854"><ele>625.6666666666667</ele><time>2026-04-27T15:31:51.307Z</time></trkpt><trkpt lat="40.016798794218204" lon="9.089077748904971"><ele>622.0</ele><time>2026-04-27T15:31:52.307Z</time></trkpt><trkpt lat="40.01685356625465" lon="9.089366255346276"><ele>622.0</ele><time>2026-04-27T15:31:53.307Z</time></trkpt><trkpt lat="40.01690891974433" lon="9.089662872560774"><ele>622.0</ele><time>2026-04-27T15:31:54.307Z</time></trkpt><trkpt lat="40.01696192058128" lon="9.089955027989635"><ele>624.0</ele><time>2026-04-27T15:31:55.307Z</time></trkpt><trkpt lat="40.01701627729365" lon="9.090245595888208"><ele>626.0</ele><time>2026-04-27T15:31:56.307Z</time></trkpt><trkpt lat="40.01707582267456" lon="9.090524881574549"><ele>628.0</ele><time>2026-04-27T15:31:57.307Z</time></trkpt><trkpt lat="40.01713517957941" lon="9.09080093345748"><ele>630.0</ele><time>2026-04-27T15:31:58.307Z</time></trkpt><trkpt lat="40.01719375399432" lon="9.09107185881078"><ele>632.0</ele><time>2026-04-27T15:31:59.307Z</time></trkpt><trkpt lat="40.0172591198046" lon="9.091342544390994"><ele>633.6666666666666</ele><time>2026-04-27T15:32:00.307Z</time></trkpt><trkpt lat="40.01731660952706" lon="9.091612825551298"><ele>635.3333333333334</ele><time>2026-04-27T15:32:01.307Z</time></trkpt><trkpt lat="40.0173642882444" lon="9.091896691930215"><ele>637.0</ele><time>2026-04-27T15:32:02.307Z</time></trkpt><trkpt lat="40.0174012889581" lon="9.092151646112558"><ele>637.0</ele><time>2026-04-27T15:32:03.307Z</time></trkpt><trkpt lat="40.01745262083708" lon="9.092386448173967"><ele>637.0</ele><time>2026-04-27T15:32:04.307Z</time></trkpt><trkpt lat="40.01750483025581" lon="9.092591220798255"><ele>637.0</ele><time>2026-04-27T15:32:05.307Z</time></trkpt><trkpt lat="40.01754373525552" lon="9.092764213760981"><ele>633.5</ele><time>2026-04-27T15:32:06.307Z</time></trkpt><trkpt lat="40.01760935891322" lon="9.092901902717168"><ele>630.0</ele><time>2026-04-27T15:32:07.307Z</time></trkpt><trkpt lat="40.01772847148267" lon="9.09298538013077"><ele>626.5</ele><time>2026-04-27T15:32:08.307Z</time></trkpt><trkpt lat="40.017879182467944" lon="9.093014283539409"><ele>623.0</ele><time>2026-04-27T15:32:09.307Z</time></trkpt><trkpt lat="40.018020533114736" lon="9.093042497800464"><ele>623.0</ele><time>2026-04-27T15:32:10.307Z</time></trkpt><trkpt lat="40.01812050435893" lon="9.093176060862659"><ele>623.0</ele><time>2026-04-27T15:32:11.307Z</time></trkpt><trkpt lat="40.01818404664296" lon="9.093344959265535"><ele>623.0</ele><time>2026-04-27T15:32:12.307Z</time></trkpt><trkpt lat="40.01819578393762" lon="9.093515533894758"><ele>623.0</ele><time>2026-04-27T15:32:13.307Z</time></trkpt><trkpt lat="40.018201689010326" lon="9.093694108310313"><ele>623.1999999999999</ele><time>2026-04-27T15:32:14.307Z</time></trkpt><trkpt lat="40.018230444359055" lon="9.093834607918996"><ele>623.4</ele><time>2026-04-27T15:32:15.307Z</time></trkpt><trkpt lat="40.018253421963536" lon="9.093945683900142"><ele>623.5999999999999</ele><time>2026-04-27T15:32:16.307Z</time></trkpt><trkpt lat="40.0182702977289" lon="9.094033642364622"><ele>623.8</ele><time>2026-04-27T15:32:17.307Z</time></trkpt><trkpt lat="40.01834445140488" lon="9.094156594011073"><ele>624.0</ele><time>2026-04-27T15:32:19.307Z</time></trkpt><trkpt lat="40.01841587285446" lon="9.094241827445357"><ele>624.25</ele><time>2026-04-27T15:32:20.307Z</time></trkpt><trkpt lat="40.018470097926034" lon="9.094383486841519"><ele>624.5</ele><time>2026-04-27T15:32:21.307Z</time></trkpt><trkpt lat="40.018518695040534" lon="9.094555820096392"><ele>624.75</ele><time>2026-04-27T15:32:22.307Z</time></trkpt><trkpt lat="40.018554178601285" lon="9.094755683764161"><ele>625.0</ele><time>2026-04-27T15:32:23.307Z</time></trkpt><trkpt lat="40.01858069531376" lon="9.094950319278198"><ele>625.0</ele><time>2026-04-27T15:32:24.307Z</time></trkpt><trkpt lat="40.01863137550779" lon="9.09514312709361"><ele>625.0</ele><time>2026-04-27T15:32:25.307Z</time></trkpt><trkpt lat="40.01871387811624" lon="9.095328830730022"><ele>625.0</ele><time>2026-04-27T15:32:26.307Z</time></trkpt><trkpt lat="40.018808454384526" lon="9.095519136343656"><ele>625.0</ele><time>2026-04-27T15:32:27.307Z</time></trkpt><trkpt lat="40.018891670259414" lon="9.095712528023798"><ele>625.0</ele><time>2026-04-27T15:32:28.307Z</time></trkpt><trkpt lat="40.01899140020252" lon="9.095885194620072"><ele>625.0</ele><time>2026-04-27T15:32:29.307Z</time></trkpt><trkpt lat="40.01910335576465" lon="9.096014590200241"><ele>625.5</ele><time>2026-04-27T15:32:30.307Z</time></trkpt><trkpt lat="40.019174718337936" lon="9.096165245419783"><ele>626.0</ele><time>2026-04-27T15:32:31.307Z</time></trkpt><trkpt lat="40.01916916101733" lon="9.096353444084782"><ele>626.5</ele><time>2026-04-27T15:32:32.307Z</time></trkpt><trkpt lat="40.019126974432574" lon="9.096545850235762"><ele>627.0</ele><time>2026-04-27T15:32:33.307Z</time></trkpt><trkpt lat="40.01910184843679" lon="9.09675588249279"><ele>628.3333333333334</ele><time>2026-04-27T15:32:34.307Z</time></trkpt><trkpt lat="40.01912790567188" lon="9.096956656594216"><ele>629.6666666666667</ele><time>2026-04-27T15:32:35.307Z</time></trkpt><trkpt lat="40.01918061422557" lon="9.097161165750661"><ele>631.0</ele><time>2026-04-27T15:32:36.307Z</time></trkpt><trkpt lat="40.01924002181197" lon="9.097365955056583"><ele>633.6666666666667</ele><time>2026-04-27T15:32:37.307Z</time></trkpt><trkpt lat="40.019293776245995" lon="9.09756115150993"><ele>636.3333333333334</ele><time>2026-04-27T15:32:38.307Z</time></trkpt><trkpt lat="40.019358081578154" lon="9.097741189173606"><ele>639.0</ele><time>2026-04-27T15:32:39.307Z</time></trkpt><trkpt lat="40.01944184285507" lon="9.097901440900177"><ele>639.0</ele><time>2026-04-27T15:32:40.307Z</time></trkpt><trkpt lat="40.019539699991334" lon="9.098030345741023"><ele>639.0</ele><time>2026-04-27T15:32:41.307Z</time></trkpt><trkpt lat="40.01964782037736" lon="9.098131177803772"><ele>639.0</ele><time>2026-04-27T15:32:42.307Z</time></trkpt><trkpt lat="40.019754366211345" lon="9.098220106819344"><ele>639.0</ele><time>2026-04-27T15:32:43.307Z</time></trkpt><trkpt lat="40.01986607419234" lon="9.09829826617507"><ele>639.5</ele><time>2026-04-27T15:32:44.307Z</time></trkpt><trkpt lat="40.01998190700266" lon="9.098376465667494"><ele>640.0</ele><time>2026-04-27T15:32:45.307Z</time></trkpt><trkpt lat="40.0200952009409" lon="9.09845921798791"><ele>640.5</ele><time>2026-04-27T15:32:46.307Z</time></trkpt><trkpt lat="40.02020599042191" lon="9.098536435315063"><ele>641.0</ele><time>2026-04-27T15:32:47.307Z</time></trkpt><trkpt lat="40.02031792433605" lon="9.098607648743906"><ele>643.0</ele><time>2026-04-27T15:32:48.307Z</time></trkpt><trkpt lat="40.02042733638881" lon="9.098675036037875"><ele>645.0</ele><time>2026-04-27T15:32:49.307Z</time></trkpt><trkpt lat="40.02053105064651" lon="9.09874467807679"><ele>647.0</ele><time>2026-04-27T15:32:50.307Z</time></trkpt><trkpt lat="40.020634562674445" lon="9.098818824733007"><ele>649.0</ele><time>2026-04-27T15:32:51.307Z</time></trkpt><trkpt lat="40.02073658042804" lon="9.098891932102097"><ele>650.0</ele><time>2026-04-27T15:32:52.307Z</time></trkpt><trkpt lat="40.02083896915263" lon="9.098958224486768"><ele>651.0</ele><time>2026-04-27T15:32:53.307Z</time></trkpt><trkpt lat="40.020939144128505" lon="9.099025112534077"><ele>652.0</ele><time>2026-04-27T15:32:54.307Z</time></trkpt><trkpt lat="40.02103332062971" lon="9.099086749255274"><ele>653.0</ele><time>2026-04-27T15:32:55.307Z</time></trkpt><trkpt lat="40.02111933075929" lon="9.099147830917044"><ele>654.0</ele><time>2026-04-27T15:32:56.308Z</time></trkpt><trkpt lat="40.021198748437065" lon="9.099200861616604"><ele>654.0</ele><time>2026-04-27T15:32:57.308Z</time></trkpt><trkpt lat="40.02127072539957" lon="9.099256235263134"><ele>654.0</ele><time>2026-04-27T15:32:58.308Z</time></trkpt><trkpt lat="40.02134599414742" lon="9.099308236515842"><ele>654.0</ele><time>2026-04-27T15:32:59.308Z</time></trkpt><trkpt lat="40.02142159173036" lon="9.099359546430179"><ele>654.0</ele><time>2026-04-27T15:33:00.308Z</time></trkpt><trkpt lat="40.02150383673355" lon="9.099408618682713"><ele>654.0</ele><time>2026-04-27T15:33:01.308Z</time></trkpt><trkpt lat="40.02158521815953" lon="9.09945862098269"><ele>654.0</ele><time>2026-04-27T15:33:02.308Z</time></trkpt><trkpt lat="40.021666467383696" lon="9.09951653220857"><ele>654.8333333333334</ele><time>2026-04-27T15:33:03.308Z</time></trkpt><trkpt lat="40.021744721916434" lon="9.099579456135853"><ele>655.6666666666666</ele><time>2026-04-27T15:33:04.308Z</time></trkpt><trkpt lat="40.021822039148134" lon="9.099628008249557"><ele>656.5</ele><time>2026-04-27T15:33:05.308Z</time></trkpt><trkpt lat="40.021893987605914" lon="9.099685677744432"><ele>657.3333333333333</ele><time>2026-04-27T15:33:06.308Z</time></trkpt><trkpt lat="40.02197756943617" lon="9.09973549429662"><ele>658.1666666666666</ele><time>2026-04-27T15:33:07.308Z</time></trkpt><trkpt lat="40.02205450334527" lon="9.09978192875712"><ele>659.0</ele><time>2026-04-27T15:33:08.308Z</time></trkpt><trkpt lat="40.022127184419304" lon="9.09981976669406"><ele>659.0</ele><time>2026-04-27T15:33:09.308Z</time></trkpt><trkpt lat="40.02218958364669" lon="9.099860498868606"><ele>659.0</ele><time>2026-04-27T15:33:10.308Z</time></trkpt><trkpt lat="40.022252490289425" lon="9.09990335855294"><ele>659.0</ele><time>2026-04-27T15:33:11.308Z</time></trkpt><trkpt lat="40.02231811987934" lon="9.099940755954194"><ele>659.0</ele><time>2026-04-27T15:33:12.308Z</time></trkpt><trkpt lat="40.0223772888857" lon="9.099974969575053"><ele>659.0</ele><time>2026-04-27T15:33:13.308Z</time></trkpt><trkpt lat="40.02243310787858" lon="9.100013498082074"><ele>659.0</ele><time>2026-04-27T15:33:14.308Z</time></trkpt><trkpt lat="40.02250461640518" lon="9.100071279922863"><ele>659.0</ele><time>2026-04-27T15:33:16.308Z</time></trkpt><trkpt lat="40.02255728717573" lon="9.100118700262348"><ele>658.8000000000001</ele><time>2026-04-27T15:33:18.308Z</time></trkpt><trkpt lat="40.022613000159346" lon="9.100157438666029"><ele>658.6</ele><time>2026-04-27T15:33:21.309Z</time></trkpt><trkpt lat="40.02269113639186" lon="9.100208133383454"><ele>658.4</ele><time>2026-04-27T15:33:23.309Z</time></trkpt><trkpt lat="40.022795770218956" lon="9.100266646852749"><ele>658.2</ele><time>2026-04-27T15:33:25.309Z</time></trkpt><trkpt lat="40.02290524444971" lon="9.10032586517604"><ele>658.0</ele><time>2026-04-27T15:33:27.31Z</time></trkpt><trkpt lat="40.02297174704981" lon="9.100362449575854"><ele>658.0</ele><time>2026-04-27T15:33:28.309Z</time></trkpt><trkpt lat="40.02303847760365" lon="9.100408368170907"><ele>658.0</ele><time>2026-04-27T15:33:29.31Z</time></trkpt><trkpt lat="40.02311354586034" lon="9.10045878904588"><ele>658.0</ele><time>2026-04-27T15:33:30.309Z</time></trkpt><trkpt lat="40.02319398722846" lon="9.100513159579549"><ele>658.0</ele><time>2026-04-27T15:33:31.309Z</time></trkpt><trkpt lat="40.02327229294067" lon="9.100561151327025"><ele>658.0</ele><time>2026-04-27T15:33:32.309Z</time></trkpt><trkpt lat="40.02335658114955" lon="9.100611510773309"><ele>658.0</ele><time>2026-04-27T15:33:33.309Z</time></trkpt><trkpt lat="40.02343529371179" lon="9.10066132911028"><ele>658.5999999999999</ele><time>2026-04-27T15:33:34.31Z</time></trkpt><trkpt lat="40.023517099561474" lon="9.100711487456358"><ele>659.1999999999999</ele><time>2026-04-27T15:33:35.31Z</time></trkpt><trkpt lat="40.02360080359878" lon="9.100764500013282"><ele>659.8</ele><time>2026-04-27T15:33:36.31Z</time></trkpt><trkpt lat="40.02368618103146" lon="9.100829390376127"><ele>660.4</ele><time>2026-04-27T15:33:37.31Z</time></trkpt><trkpt lat="40.0237707540576" lon="9.10089026835976"><ele>661.0</ele><time>2026-04-27T15:33:38.31Z</time></trkpt><trkpt lat="40.023857948781846" lon="9.100939925878958"><ele>661.0</ele><time>2026-04-27T15:33:39.31Z</time></trkpt><trkpt lat="40.0239370428487" lon="9.100996233023265"><ele>661.0</ele><time>2026-04-27T15:33:40.31Z</time></trkpt><trkpt lat="40.024011026909676" lon="9.101045095336247"><ele>661.0</ele><time>2026-04-27T15:33:41.31Z</time></trkpt><trkpt lat="40.02407747943736" lon="9.101085097028001"><ele>661.0</ele><time>2026-04-27T15:33:42.31Z</time></trkpt><trkpt lat="40.024167194953336" lon="9.101152303518052"><ele>661.0</ele><time>2026-04-27T15:33:44.31Z</time></trkpt><trkpt lat="40.02419671853" lon="9.101227870677734"><ele>661.0</ele><time>2026-04-27T15:34:02.31Z</time></trkpt><trkpt lat="40.02426420227138" lon="9.101251091890903"><ele>662.5999999999999</ele><time>2026-04-27T15:34:04.31Z</time></trkpt><trkpt lat="40.024370330340645" lon="9.101312397766984"><ele>664.2</ele><time>2026-04-27T15:34:06.31Z</time></trkpt><trkpt lat="40.0244369184063" lon="9.101361841423092"><ele>665.8</ele><time>2026-04-27T15:34:07.31Z</time></trkpt><trkpt lat="40.02451811944412" lon="9.101401498842952"><ele>667.4000000000001</ele><time>2026-04-27T15:34:08.31Z</time></trkpt><trkpt lat="40.02460904085905" lon="9.101432419853571"><ele>669.0</ele><time>2026-04-27T15:34:09.31Z</time></trkpt><trkpt lat="40.02469060629999" lon="9.101457128156662"><ele>669.0</ele><time>2026-04-27T15:34:10.31Z</time></trkpt><trkpt lat="40.02477492546431" lon="9.101467292535135"><ele>669.0</ele><time>2026-04-27T15:34:11.31Z</time></trkpt><trkpt lat="40.02486017028893" lon="9.101445231159534"><ele>669.0</ele><time>2026-04-27T15:34:12.31Z</time></trkpt><trkpt lat="40.02494292389709" lon="9.10139823104788"><ele>669.0</ele><time>2026-04-27T15:34:13.31Z</time></trkpt><trkpt lat="40.02502702577226" lon="9.10134660484302"><ele>669.0</ele><time>2026-04-27T15:34:14.31Z</time></trkpt><trkpt lat="40.02511321337326" lon="9.101292603329465"><ele>670.8000000000001</ele><time>2026-04-27T15:34:15.31Z</time></trkpt><trkpt lat="40.02520018100077" lon="9.101244832185946"><ele>672.6</ele><time>2026-04-27T15:34:16.31Z</time></trkpt><trkpt lat="40.02528442894953" lon="9.101195595071365"><ele>674.4</ele><time>2026-04-27T15:34:17.31Z</time></trkpt><trkpt lat="40.025373947192435" lon="9.101161559598456"><ele>676.2</ele><time>2026-04-27T15:34:18.31Z</time></trkpt><trkpt lat="40.025466700767026" lon="9.101144087204695"><ele>678.0</ele><time>2026-04-27T15:34:19.31Z</time></trkpt><trkpt lat="40.02555590708958" lon="9.101150382230193"><ele>678.0</ele><time>2026-04-27T15:34:20.31Z</time></trkpt><trkpt lat="40.025645103053954" lon="9.101181438179788"><ele>678.0</ele><time>2026-04-27T15:34:21.31Z</time></trkpt><trkpt lat="40.025725523575986" lon="9.101250613084924"><ele>678.0</ele><time>2026-04-27T15:34:22.31Z</time></trkpt><trkpt lat="40.02579498160955" lon="9.101335855874858"><ele>678.0</ele><time>2026-04-27T15:34:23.31Z</time></trkpt><trkpt lat="40.02586380651911" lon="9.101433805089686"><ele>678.0</ele><time>2026-04-27T15:34:24.31Z</time></trkpt><trkpt lat="40.02592216181738" lon="9.101535295575871"><ele>677.8333333333334</ele><time>2026-04-27T15:34:25.31Z</time></trkpt><trkpt lat="40.02596290760519" lon="9.101630258103441"><ele>677.6666666666666</ele><time>2026-04-27T15:34:26.31Z</time></trkpt><trkpt lat="40.02598478127287" lon="9.101729888258395"><ele>677.5</ele><time>2026-04-27T15:34:27.31Z</time></trkpt><trkpt lat="40.025993202719036" lon="9.101835040828615"><ele>677.3333333333333</ele><time>2026-04-27T15:34:28.31Z</time></trkpt><trkpt lat="40.02599342229872" lon="9.10194261876069"><ele>677.1666666666666</ele><time>2026-04-27T15:34:29.31Z</time></trkpt><trkpt lat="40.025992729412906" lon="9.102046368220272"><ele>677.0</ele><time>2026-04-27T15:34:30.31Z</time></trkpt><trkpt lat="40.0259913125184" lon="9.102161818654707"><ele>677.0</ele><time>2026-04-27T15:34:31.31Z</time></trkpt><trkpt lat="40.025986882103645" lon="9.102272377026457"><ele>677.0</ele><time>2026-04-27T15:34:32.31Z</time></trkpt><trkpt lat="40.02598423955745" lon="9.10238454478272"><ele>677.0</ele><time>2026-04-27T15:34:33.31Z</time></trkpt><trkpt lat="40.02598257908919" lon="9.102479083974266"><ele>677.0</ele><time>2026-04-27T15:34:34.31Z</time></trkpt><trkpt lat="40.02604718562301" lon="9.102598038877316"><ele>677.0</ele><time>2026-04-27T15:34:36.31Z</time></trkpt><trkpt lat="40.026189613564256" lon="9.102622772823295"><ele>677.5</ele><time>2026-04-27T15:34:38.31Z</time></trkpt><trkpt lat="40.02625959527929" lon="9.102670815307684"><ele>678.0</ele><time>2026-04-27T15:34:39.31Z</time></trkpt><trkpt lat="40.02632049586331" lon="9.102731218087783"><ele>678.5</ele><time>2026-04-27T15:34:40.311Z</time></trkpt><trkpt lat="40.02636250255017" lon="9.102824310505271"><ele>679.0</ele><time>2026-04-27T15:34:41.311Z</time></trkpt><trkpt lat="40.0263951957512" lon="9.102925719538195"><ele>679.5</ele><time>2026-04-27T15:34:42.311Z</time></trkpt><trkpt lat="40.026441285415025" lon="9.103026781160985"><ele>680.0</ele><time>2026-04-27T15:34:43.311Z</time></trkpt><trkpt lat="40.02648504991936" lon="9.103124405171759"><ele>680.0</ele><time>2026-04-27T15:34:44.311Z</time></trkpt><trkpt lat="40.02652595803469" lon="9.103221292327017"><ele>680.0</ele><time>2026-04-27T15:34:45.311Z</time></trkpt><trkpt lat="40.02656713467711" lon="9.103310262637224"><ele>680.0</ele><time>2026-04-27T15:34:46.311Z</time></trkpt><trkpt lat="40.026609288929876" lon="9.103402247037163"><ele>680.0</ele><time>2026-04-27T15:34:47.311Z</time></trkpt><trkpt lat="40.02665185468423" lon="9.103490420494085"><ele>680.0</ele><time>2026-04-27T15:34:48.311Z</time></trkpt><trkpt lat="40.026692356511816" lon="9.103577702188293"><ele>680.0</ele><time>2026-04-27T15:34:49.311Z</time></trkpt><trkpt lat="40.026749520073416" lon="9.10366481794698"><ele>681.3333333333333</ele><time>2026-04-27T15:34:50.311Z</time></trkpt><trkpt lat="40.02680820257492" lon="9.103733477153813"><ele>682.6666666666666</ele><time>2026-04-27T15:34:51.311Z</time></trkpt><trkpt lat="40.02687941881555" lon="9.10379294795656"><ele>684.0</ele><time>2026-04-27T15:34:52.311Z</time></trkpt><trkpt lat="40.0269545855759" lon="9.10385302423594"><ele>685.3333333333334</ele><time>2026-04-27T15:34:53.311Z</time></trkpt><trkpt lat="40.02703497215242" lon="9.103902070743851"><ele>686.6666666666667</ele><time>2026-04-27T15:34:54.311Z</time></trkpt><trkpt lat="40.027119907579745" lon="9.103927311021748"><ele>688.0</ele><time>2026-04-27T15:34:55.311Z</time></trkpt><trkpt lat="40.02720386608309" lon="9.10393724448054"><ele>688.0</ele><time>2026-04-27T15:34:56.311Z</time></trkpt><trkpt lat="40.027281187263675" lon="9.103922907642957"><ele>688.0</ele><time>2026-04-27T15:34:57.311Z</time></trkpt><trkpt lat="40.02736150718428" lon="9.103902255545407"><ele>688.0</ele><time>2026-04-27T15:34:58.311Z</time></trkpt><trkpt lat="40.027430411114494" lon="9.103890058276072"><ele>688.0</ele><time>2026-04-27T15:34:59.311Z</time></trkpt><trkpt lat="40.027543642339914" lon="9.103879640285806"><ele>688.0</ele><time>2026-04-27T15:35:01.311Z</time></trkpt><trkpt lat="40.027664795315175" lon="9.103860455710882"><ele>689.8333333333334</ele><time>2026-04-27T15:35:03.311Z</time></trkpt><trkpt lat="40.02773622446526" lon="9.103859469483234"><ele>691.6666666666667</ele><time>2026-04-27T15:35:04.311Z</time></trkpt><trkpt lat="40.02781428108488" lon="9.103867920548872"><ele>693.5</ele><time>2026-04-27T15:35:05.311Z</time></trkpt><trkpt lat="40.02789554982877" lon="9.10388445985894"><ele>695.3333333333334</ele><time>2026-04-27T15:35:06.311Z</time></trkpt><trkpt lat="40.02798023175765" lon="9.103903011036639"><ele>697.1666666666666</ele><time>2026-04-27T15:35:07.311Z</time></trkpt><trkpt lat="40.02806424220711" lon="9.103930370702725"><ele>699.0</ele><time>2026-04-27T15:35:08.311Z</time></trkpt><trkpt lat="40.02814020594511" lon="9.103958349046025"><ele>699.0</ele><time>2026-04-27T15:35:09.311Z</time></trkpt><trkpt lat="40.02821916227965" lon="9.103986726353892"><ele>699.0</ele><time>2026-04-27T15:35:10.311Z</time></trkpt><trkpt lat="40.028303856452915" lon="9.104015656997278"><ele>699.0</ele><time>2026-04-27T15:35:11.311Z</time></trkpt><trkpt lat="40.028379109642934" lon="9.10406355669045"><ele>699.0</ele><time>2026-04-27T15:35:12.311Z</time></trkpt><trkpt lat="40.02843924618756" lon="9.104141605959963"><ele>699.0</ele><time>2026-04-27T15:35:13.311Z</time></trkpt><trkpt lat="40.02847804962404" lon="9.104239289120082"><ele>699.0</ele><time>2026-04-27T15:35:14.311Z</time></trkpt><trkpt lat="40.02848898378727" lon="9.104352636818144"><ele>699.6666666666666</ele><time>2026-04-27T15:35:15.311Z</time></trkpt><trkpt lat="40.02844734589579" lon="9.104457106279812"><ele>700.3333333333334</ele><time>2026-04-27T15:35:16.311Z</time></trkpt><trkpt lat="40.028424057960656" lon="9.104557935024209"><ele>701.0</ele><time>2026-04-27T15:35:17.311Z</time></trkpt><trkpt lat="40.02841050678564" lon="9.104645499122961"><ele>701.6666666666667</ele><time>2026-04-27T15:35:18.311Z</time></trkpt><trkpt lat="40.02842288565573" lon="9.104736317608522"><ele>702.3333333333334</ele><time>2026-04-27T15:35:19.311Z</time></trkpt><trkpt lat="40.02846352037363" lon="9.104829063490909"><ele>703.0</ele><time>2026-04-27T15:35:20.311Z</time></trkpt><trkpt lat="40.028513486186725" lon="9.10493062693371"><ele>703.0</ele><time>2026-04-27T15:35:21.311Z</time></trkpt><trkpt lat="40.02858659191472" lon="9.105010496509339"><ele>703.0</ele><time>2026-04-27T15:35:22.311Z</time></trkpt><trkpt lat="40.028668331873256" lon="9.105077162147662"><ele>703.0</ele><time>2026-04-27T15:35:23.311Z</time></trkpt><trkpt lat="40.02873722436036" lon="9.10517994408497"><ele>703.0</ele><time>2026-04-27T15:35:24.311Z</time></trkpt><trkpt lat="40.028791809555244" lon="9.105296886242979"><ele>703.0</ele><time>2026-04-27T15:35:25.311Z</time></trkpt><trkpt lat="40.02881686168419" lon="9.105438776296488"><ele>703.0</ele><time>2026-04-27T15:35:26.311Z</time></trkpt><trkpt lat="40.028827435738314" lon="9.105588138624112"><ele>703.0</ele><time>2026-04-27T15:35:27.312Z</time></trkpt><trkpt lat="40.028840371209874" lon="9.105734183463248"><ele>703.0</ele><time>2026-04-27T15:35:28.312Z</time></trkpt><trkpt lat="40.02886113222266" lon="9.105884111225047"><ele>703.0</ele><time>2026-04-27T15:35:29.312Z</time></trkpt><trkpt lat="40.02888772161169" lon="9.106031520295314"><ele>703.0</ele><time>2026-04-27T15:35:30.312Z</time></trkpt><trkpt lat="40.02894132814498" lon="9.10616548715909"><ele>703.0</ele><time>2026-04-27T15:35:31.312Z</time></trkpt><trkpt lat="40.0290162607261" lon="9.106289651010416"><ele>703.0</ele><time>2026-04-27T15:35:32.312Z</time></trkpt><trkpt lat="40.0290921890063" lon="9.10641016241803"><ele>703.0</ele><time>2026-04-27T15:35:33.313Z</time></trkpt><trkpt lat="40.02915549256004" lon="9.106542872067742"><ele>706.0</ele><time>2026-04-27T15:35:34.313Z</time></trkpt><trkpt lat="40.029207667398076" lon="9.10668435662927"><ele>709.0</ele><time>2026-04-27T15:35:35.313Z</time></trkpt><trkpt lat="40.02926074409182" lon="9.106828332470432"><ele>712.0</ele><time>2026-04-27T15:35:36.312Z</time></trkpt><trkpt lat="40.02933231117939" lon="9.106952607679665"><ele>715.0</ele><time>2026-04-27T15:35:37.312Z</time></trkpt><trkpt lat="40.02942827179873" lon="9.107046456095977"><ele>715.0</ele><time>2026-04-27T15:35:38.312Z</time></trkpt><trkpt lat="40.0295299755232" lon="9.107128647439996"><ele>715.0</ele><time>2026-04-27T15:35:39.312Z</time></trkpt><trkpt lat="40.02960650217805" lon="9.107241167737087"><ele>715.0</ele><time>2026-04-27T15:35:40.312Z</time></trkpt><trkpt lat="40.02962865400046" lon="9.107380052555236"><ele>715.0</ele><time>2026-04-27T15:35:41.312Z</time></trkpt><trkpt lat="40.02960331136679" lon="9.107522391842139"><ele>715.25</ele><time>2026-04-27T15:35:42.312Z</time></trkpt><trkpt lat="40.02954036829955" lon="9.107643697964647"><ele>715.5</ele><time>2026-04-27T15:35:43.312Z</time></trkpt><trkpt lat="40.02947069242135" lon="9.107773775192873"><ele>715.75</ele><time>2026-04-27T15:35:44.312Z</time></trkpt><trkpt lat="40.029423346942984" lon="9.107930293462552"><ele>716.0</ele><time>2026-04-27T15:35:45.312Z</time></trkpt><trkpt lat="40.02941165646612" lon="9.108098389005571"><ele>717.5</ele><time>2026-04-27T15:35:46.312Z</time></trkpt><trkpt lat="40.02943492552153" lon="9.1082791522021"><ele>719.0</ele><time>2026-04-27T15:35:47.312Z</time></trkpt><trkpt lat="40.0294840589581" lon="9.108465322188094"><ele>720.5</ele><time>2026-04-27T15:35:48.312Z</time></trkpt><trkpt lat="40.02953442275183" lon="9.108645690144225"><ele>722.0</ele><time>2026-04-27T15:35:49.312Z</time></trkpt><trkpt lat="40.02958303712192" lon="9.108820476245446"><ele>722.0</ele><time>2026-04-27T15:35:50.312Z</time></trkpt><trkpt lat="40.02959977766395" lon="9.108993354829783"><ele>722.0</ele><time>2026-04-27T15:35:51.312Z</time></trkpt><trkpt lat="40.02954595250589" lon="9.109150493081692"><ele>722.0</ele><time>2026-04-27T15:35:52.312Z</time></trkpt><trkpt lat="40.02944556524053" lon="9.10925519432664"><ele>722.0</ele><time>2026-04-27T15:35:53.312Z</time></trkpt><trkpt lat="40.0293192220083" lon="9.109282443099737"><ele>721.5</ele><time>2026-04-27T15:35:54.312Z</time></trkpt><trkpt lat="40.0291805482692" lon="9.109252076391858"><ele>721.0</ele><time>2026-04-27T15:35:55.312Z</time></trkpt><trkpt lat="40.02903435530146" lon="9.109238317765543"><ele>720.5</ele><time>2026-04-27T15:35:56.312Z</time></trkpt><trkpt lat="40.028901957926124" lon="9.10931653468355"><ele>720.0</ele><time>2026-04-27T15:35:57.312Z</time></trkpt><trkpt lat="40.02881082708438" lon="9.109462975957118"><ele>720.0</ele><time>2026-04-27T15:35:58.312Z</time></trkpt><trkpt lat="40.028738844371944" lon="9.10965280593738"><ele>720.0</ele><time>2026-04-27T15:35:59.312Z</time></trkpt><trkpt lat="40.02866099188278" lon="9.109853975764846"><ele>720.0</ele><time>2026-04-27T15:36:00.312Z</time></trkpt><trkpt lat="40.02855504051018" lon="9.110027711615913"><ele>723.5</ele><time>2026-04-27T15:36:01.312Z</time></trkpt><trkpt lat="40.02845564696422" lon="9.110166387057665"><ele>727.0</ele><time>2026-04-27T15:36:02.312Z</time></trkpt><trkpt lat="40.028404383231575" lon="9.11030629663997"><ele>730.5</ele><time>2026-04-27T15:36:03.312Z</time></trkpt><trkpt lat="40.02843788143779" lon="9.110456464213758"><ele>734.0</ele><time>2026-04-27T15:36:04.312Z</time></trkpt><trkpt lat="40.02852690803553" lon="9.110559343006651"><ele>734.0</ele><time>2026-04-27T15:36:05.312Z</time></trkpt><trkpt lat="40.02864137077109" lon="9.110567626946185"><ele>734.0</ele><time>2026-04-27T15:36:06.312Z</time></trkpt><trkpt lat="40.028751950963816" lon="9.110594691360747"><ele>734.0</ele><time>2026-04-27T15:36:07.312Z</time></trkpt><trkpt lat="40.0288574306549" lon="9.11067872025122"><ele>734.0</ele><time>2026-04-27T15:36:08.312Z</time></trkpt><trkpt lat="40.02892538970183" lon="9.110818868456962"><ele>734.3333333333333</ele><time>2026-04-27T15:36:09.312Z</time></trkpt><trkpt lat="40.028995067272824" lon="9.11100968794072"><ele>734.6666666666666</ele><time>2026-04-27T15:36:10.312Z</time></trkpt><trkpt lat="40.02906495885651" lon="9.111207854608905"><ele>735.0</ele><time>2026-04-27T15:36:11.312Z</time></trkpt><trkpt lat="40.02911541998273" lon="9.111425285935633"><ele>734.6666666666666</ele><time>2026-04-27T15:36:12.312Z</time></trkpt><trkpt lat="40.02909920723725" lon="9.111650495020031"><ele>734.3333333333333</ele><time>2026-04-27T15:36:13.312Z</time></trkpt><trkpt lat="40.0290261515295" lon="9.11184585546001"><ele>734.0</ele><time>2026-04-27T15:36:14.312Z</time></trkpt><trkpt lat="40.028936334317905" lon="9.112005568726312"><ele>734.0</ele><time>2026-04-27T15:36:15.312Z</time></trkpt><trkpt lat="40.028901985833194" lon="9.112179398410543"><ele>734.0</ele><time>2026-04-27T15:36:16.312Z</time></trkpt><trkpt lat="40.02893810759711" lon="9.112350510229444"><ele>734.0</ele><time>2026-04-27T15:36:17.312Z</time></trkpt><trkpt lat="40.02903224482572" lon="9.112493717259301"><ele>734.0</ele><time>2026-04-27T15:36:18.312Z</time></trkpt><trkpt lat="40.02916567807004" lon="9.112625240647455"><ele>738.75</ele><time>2026-04-27T15:36:19.312Z</time></trkpt><trkpt lat="40.02929758889832" lon="9.112662877757732"><ele>743.5</ele><time>2026-04-27T15:36:20.312Z</time></trkpt><trkpt lat="40.02940713151808" lon="9.112599873081354"><ele>748.25</ele><time>2026-04-27T15:36:21.312Z</time></trkpt><trkpt lat="40.02948637402611" lon="9.112458951394554"><ele>753.0</ele><time>2026-04-27T15:36:22.312Z</time></trkpt><trkpt lat="40.029492999370184" lon="9.112257348687631"><ele>753.5</ele><time>2026-04-27T15:36:23.312Z</time></trkpt><trkpt lat="40.02945129471923" lon="9.11206522701927"><ele>754.0</ele><time>2026-04-27T15:36:24.312Z</time></trkpt><trkpt lat="40.029481301669115" lon="9.111894736722663"><ele>754.5</ele><time>2026-04-27T15:36:25.312Z</time></trkpt><trkpt lat="40.02961478249386" lon="9.111779909971496"><ele>755.0</ele><time>2026-04-27T15:36:26.312Z</time></trkpt><trkpt lat="40.02975446193267" lon="9.111740114823366"><ele>755.0</ele><time>2026-04-27T15:36:27.312Z</time></trkpt><trkpt lat="40.02991036714209" lon="9.111760331875017"><ele>755.0</ele><time>2026-04-27T15:36:28.312Z</time></trkpt><trkpt lat="40.030052693972856" lon="9.111849037786673"><ele>755.0</ele><time>2026-04-27T15:36:29.313Z</time></trkpt><trkpt lat="40.03016735846969" lon="9.111995683407299"><ele>757.25</ele><time>2026-04-27T15:36:30.313Z</time></trkpt><trkpt lat="40.03026206483007" lon="9.112154973710943"><ele>759.5</ele><time>2026-04-27T15:36:31.313Z</time></trkpt><trkpt lat="40.03033231601784" lon="9.112318575100085"><ele>761.75</ele><time>2026-04-27T15:36:32.313Z</time></trkpt><trkpt lat="40.030389519371084" lon="9.112486017497242"><ele>764.0</ele><time>2026-04-27T15:36:33.313Z</time></trkpt><trkpt lat="40.03041871599855" lon="9.112666054959993"><ele>764.0</ele><time>2026-04-27T15:36:34.313Z</time></trkpt><trkpt lat="40.030434262467466" lon="9.11284052164811"><ele>764.0</ele><time>2026-04-27T15:36:35.313Z</time></trkpt><trkpt lat="40.03045052487585" lon="9.112990268319017"><ele>764.0</ele><time>2026-04-27T15:36:36.313Z</time></trkpt><trkpt lat="40.03048062084771" lon="9.113127365041521"><ele>764.0</ele><time>2026-04-27T15:36:37.313Z</time></trkpt><trkpt lat="40.03053955703501" lon="9.113246805668608"><ele>762.5</ele><time>2026-04-27T15:36:38.313Z</time></trkpt><trkpt lat="40.03062212746078" lon="9.113352847833376"><ele>761.0</ele><time>2026-04-27T15:36:39.313Z</time></trkpt><trkpt lat="40.030720496074515" lon="9.113449920272448"><ele>759.5</ele><time>2026-04-27T15:36:40.313Z</time></trkpt><trkpt lat="40.030823106720604" lon="9.113549775622966"><ele>758.0</ele><time>2026-04-27T15:36:41.313Z</time></trkpt><trkpt lat="40.03093296884736" lon="9.113625588219133"><ele>764.0</ele><time>2026-04-27T15:36:42.313Z</time></trkpt><trkpt lat="40.03105217766334" lon="9.113689418795381"><ele>770.0</ele><time>2026-04-27T15:36:43.313Z</time></trkpt><trkpt lat="40.031171854530776" lon="9.113738503668824"><ele>776.0</ele><time>2026-04-27T15:36:44.313Z</time></trkpt><trkpt lat="40.03128112371538" lon="9.113782905873856"><ele>782.0</ele><time>2026-04-27T15:36:45.313Z</time></trkpt><trkpt lat="40.03135828340898" lon="9.113863740919406"><ele>782.0</ele><time>2026-04-27T15:36:46.313Z</time></trkpt><trkpt lat="40.03137715649451" lon="9.113985080464762"><ele>782.0</ele><time>2026-04-27T15:36:47.313Z</time></trkpt><trkpt lat="40.03135362573364" lon="9.11411593181163"><ele>782.0</ele><time>2026-04-27T15:36:48.313Z</time></trkpt><trkpt lat="40.03131719736106" lon="9.114251620420863"><ele>782.0</ele><time>2026-04-27T15:36:49.313Z</time></trkpt><trkpt lat="40.03125323017156" lon="9.114368394046275"><ele>782.0</ele><time>2026-04-27T15:36:50.313Z</time></trkpt><trkpt lat="40.031156739201116" lon="9.11443250922233"><ele>781.4000000000001</ele><time>2026-04-27T15:36:51.313Z</time></trkpt><trkpt lat="40.03106881701451" lon="9.114472076670886"><ele>780.8000000000001</ele><time>2026-04-27T15:36:52.313Z</time></trkpt><trkpt lat="40.03097995137454" lon="9.11451585895967"><ele>780.2</ele><time>2026-04-27T15:36:54.313Z</time></trkpt><trkpt lat="40.03098340040492" lon="9.114611331961054"><ele>779.6</ele><time>2026-04-27T15:36:58.313Z</time></trkpt><trkpt lat="40.031091776058325" lon="9.114525839842914"><ele>779.0</ele><time>2026-04-27T15:37:00.313Z</time></trkpt><trkpt lat="40.03116382267723" lon="9.114463103791746"><ele>779.0</ele><time>2026-04-27T15:37:01.313Z</time></trkpt><trkpt lat="40.03124728508219" lon="9.114404901583079"><ele>779.0</ele><time>2026-04-27T15:37:02.313Z</time></trkpt><trkpt lat="40.031315015890584" lon="9.11432148900844"><ele>779.0</ele><time>2026-04-27T15:37:03.313Z</time></trkpt><trkpt lat="40.0313523991416" lon="9.114194950103364"><ele>779.0</ele><time>2026-04-27T15:37:04.313Z</time></trkpt><trkpt lat="40.03137322714659" lon="9.114052769078299"><ele>779.0</ele><time>2026-04-27T15:37:05.313Z</time></trkpt><trkpt lat="40.031389134443195" lon="9.113912183420585"><ele>779.6</ele><time>2026-04-27T15:37:06.313Z</time></trkpt><trkpt lat="40.031347926109305" lon="9.113799131856698"><ele>780.2</ele><time>2026-04-27T15:37:07.313Z</time></trkpt><trkpt lat="40.031257535406425" lon="9.113728860010072"><ele>780.8000000000001</ele><time>2026-04-27T15:37:08.313Z</time></trkpt><trkpt lat="40.03115193934231" lon="9.113694002110883"><ele>781.4000000000001</ele><time>2026-04-27T15:37:09.313Z</time></trkpt><trkpt lat="40.03103463904301" lon="9.11366242875977"><ele>782.0</ele><time>2026-04-27T15:37:10.313Z</time></trkpt><trkpt lat="40.03092495468702" lon="9.11359713123469"><ele>782.0</ele><time>2026-04-27T15:37:11.313Z</time></trkpt><trkpt lat="40.03082014571587" lon="9.113520455769976"><ele>782.0</ele><time>2026-04-27T15:37:12.313Z</time></trkpt><trkpt lat="40.030714676641956" lon="9.113421070829247"><ele>782.0</ele><time>2026-04-27T15:37:13.313Z</time></trkpt><trkpt lat="40.03061122387896" lon="9.113317261701768"><ele>782.0</ele><time>2026-04-27T15:37:14.313Z</time></trkpt><trkpt lat="40.0305200372642" lon="9.113189285561631"><ele>777.5</ele><time>2026-04-27T15:37:15.313Z</time></trkpt><trkpt lat="40.030466465314205" lon="9.113027159960044"><ele>773.0</ele><time>2026-04-27T15:37:16.313Z</time></trkpt><trkpt lat="40.03045935018388" lon="9.11284072218417"><ele>768.5</ele><time>2026-04-27T15:37:17.313Z</time></trkpt><trkpt lat="40.03044002419943" lon="9.112663054484452"><ele>764.0</ele><time>2026-04-27T15:37:18.313Z</time></trkpt><trkpt lat="40.03039840206993" lon="9.112470730557414"><ele>765.25</ele><time>2026-04-27T15:37:19.313Z</time></trkpt><trkpt lat="40.030337758028026" lon="9.112296949648643"><ele>766.5</ele><time>2026-04-27T15:37:20.313Z</time></trkpt><trkpt lat="40.03025465335863" lon="9.112135000747266"><ele>767.75</ele><time>2026-04-27T15:37:21.313Z</time></trkpt><trkpt lat="40.03016640865584" lon="9.111995266876871"><ele>769.0</ele><time>2026-04-27T15:37:22.313Z</time></trkpt><trkpt lat="40.03006650844759" lon="9.111868036744736"><ele>765.5</ele><time>2026-04-27T15:37:23.313Z</time></trkpt><trkpt lat="40.02997114033151" lon="9.111754018771217"><ele>762.0</ele><time>2026-04-27T15:37:24.313Z</time></trkpt><trkpt lat="40.02988637214949" lon="9.111645310339647"><ele>758.5</ele><time>2026-04-27T15:37:25.313Z</time></trkpt><trkpt lat="40.029829955022095" lon="9.111522823978417"><ele>755.0</ele><time>2026-04-27T15:37:26.313Z</time></trkpt><trkpt lat="40.02981382326002" lon="9.111387667606918"><ele>754.25</ele><time>2026-04-27T15:37:27.313Z</time></trkpt><trkpt lat="40.029834109278916" lon="9.111255014325913"><ele>753.5</ele><time>2026-04-27T15:37:28.313Z</time></trkpt><trkpt lat="40.029899790596644" lon="9.111128438621245"><ele>752.75</ele><time>2026-04-27T15:37:29.313Z</time></trkpt><trkpt lat="40.030000035532986" lon="9.111021158699888"><ele>752.0</ele><time>2026-04-27T15:37:30.313Z</time></trkpt><trkpt lat="40.03011235411599" lon="9.110920754897073"><ele>752.25</ele><time>2026-04-27T15:37:31.313Z</time></trkpt><trkpt lat="40.0302313909135" lon="9.110813423672646"><ele>752.5</ele><time>2026-04-27T15:37:32.313Z</time></trkpt><trkpt lat="40.03035308603149" lon="9.110703843270558"><ele>752.75</ele><time>2026-04-27T15:37:33.315Z</time></trkpt><trkpt lat="40.03048435478655" lon="9.110594980519165"><ele>753.0</ele><time>2026-04-27T15:37:34.315Z</time></trkpt><trkpt lat="40.030612484034066" lon="9.11047404888698"><ele>753.0</ele><time>2026-04-27T15:37:35.315Z</time></trkpt><trkpt lat="40.03073594578366" lon="9.110335380623019"><ele>753.0</ele><time>2026-04-27T15:37:36.315Z</time></trkpt><trkpt lat="40.0308430122644" lon="9.110171753049626"><ele>753.0</ele><time>2026-04-27T15:37:37.315Z</time></trkpt><trkpt lat="40.03093883023272" lon="9.109989346765303"><ele>756.6666666666666</ele><time>2026-04-27T15:37:38.315Z</time></trkpt><trkpt lat="40.031030406705455" lon="9.109792578572705"><ele>760.3333333333333</ele><time>2026-04-27T15:37:39.315Z</time></trkpt><trkpt lat="40.03111651039967" lon="9.109586866558464"><ele>764.0</ele><time>2026-04-27T15:37:40.315Z</time></trkpt><trkpt lat="40.03120043601074" lon="9.109371291477675"><ele>764.0</ele><time>2026-04-27T15:37:41.315Z</time></trkpt><trkpt lat="40.031275673369954" lon="9.109148240639795"><ele>764.0</ele><time>2026-04-27T15:37:42.315Z</time></trkpt><trkpt lat="40.03133986874685" lon="9.108917572488515"><ele>764.0</ele><time>2026-04-27T15:37:43.315Z</time></trkpt><trkpt lat="40.03141042670772" lon="9.108685290747765"><ele>763.0</ele><time>2026-04-27T15:37:44.315Z</time></trkpt><trkpt lat="40.03149210893398" lon="9.108467371636623"><ele>762.0</ele><time>2026-04-27T15:37:45.315Z</time></trkpt><trkpt lat="40.03160396529787" lon="9.108282183456673"><ele>761.0</ele><time>2026-04-27T15:37:46.315Z</time></trkpt><trkpt lat="40.031735906826" lon="9.108126943335089"><ele>765.6666666666666</ele><time>2026-04-27T15:37:47.315Z</time></trkpt><trkpt lat="40.03187404302563" lon="9.107973774568324"><ele>770.3333333333333</ele><time>2026-04-27T15:37:48.315Z</time></trkpt><trkpt lat="40.031998779382675" lon="9.107815154767323"><ele>775.0</ele><time>2026-04-27T15:37:49.315Z</time></trkpt><trkpt lat="40.032087767262624" lon="9.107609153205054"><ele>774.6666666666666</ele><time>2026-04-27T15:37:50.315Z</time></trkpt><trkpt lat="40.032143152493894" lon="9.107382501756847"><ele>774.3333333333333</ele><time>2026-04-27T15:37:51.315Z</time></trkpt><trkpt lat="40.03218128150265" lon="9.107140916720885"><ele>774.0</ele><time>2026-04-27T15:37:52.315Z</time></trkpt><trkpt lat="40.03221881005364" lon="9.106882152934748"><ele>774.0</ele><time>2026-04-27T15:37:53.315Z</time></trkpt><trkpt lat="40.032244569825934" lon="9.106640016784342"><ele>774.0</ele><time>2026-04-27T15:37:54.315Z</time></trkpt><trkpt lat="40.0322283321418" lon="9.106412400543556"><ele>774.0</ele><time>2026-04-27T15:37:55.315Z</time></trkpt><trkpt lat="40.03216131255123" lon="9.10618451882634"><ele>776.6666666666667</ele><time>2026-04-27T15:37:56.315Z</time></trkpt><trkpt lat="40.03208417728877" lon="9.105955400028812"><ele>779.3333333333334</ele><time>2026-04-27T15:37:57.315Z</time></trkpt><trkpt lat="40.03202262006278" lon="9.10574093541071"><ele>782.0</ele><time>2026-04-27T15:37:58.315Z</time></trkpt><trkpt lat="40.032013445813774" lon="9.10552607089882"><ele>782.0</ele><time>2026-04-27T15:37:59.315Z</time></trkpt><trkpt lat="40.032052203018964" lon="9.105300535268915"><ele>782.0</ele><time>2026-04-27T15:38:00.315Z</time></trkpt><trkpt lat="40.032146920876" lon="9.10510071849529"><ele>782.0</ele><time>2026-04-27T15:38:01.315Z</time></trkpt><trkpt lat="40.03228118390726" lon="9.104923124977836"><ele>786.0</ele><time>2026-04-27T15:38:02.315Z</time></trkpt><trkpt lat="40.0324399142856" lon="9.104763756259596"><ele>790.0</ele><time>2026-04-27T15:38:03.315Z</time></trkpt><trkpt lat="40.03260777374571" lon="9.104602807047103"><ele>794.0</ele><time>2026-04-27T15:38:04.315Z</time></trkpt><trkpt lat="40.032751047448805" lon="9.104406613935925"><ele>794.0</ele><time>2026-04-27T15:38:05.315Z</time></trkpt><trkpt lat="40.032847457727684" lon="9.104153537324077"><ele>794.0</ele><time>2026-04-27T15:38:06.315Z</time></trkpt><trkpt lat="40.032898949351875" lon="9.103874389552963"><ele>794.0</ele><time>2026-04-27T15:38:07.315Z</time></trkpt><trkpt lat="40.03297463653157" lon="9.103621198399548"><ele>793.3333333333334</ele><time>2026-04-27T15:38:08.315Z</time></trkpt><trkpt lat="40.03309790024065" lon="9.103419644971002"><ele>792.6666666666667</ele><time>2026-04-27T15:38:09.315Z</time></trkpt><trkpt lat="40.033198300585255" lon="9.10319776747252"><ele>792.0</ele><time>2026-04-27T15:38:10.315Z</time></trkpt><trkpt lat="40.033261951396945" lon="9.10298715101671"><ele>792.0</ele><time>2026-04-27T15:38:11.315Z</time></trkpt><trkpt lat="40.033265613727266" lon="9.102746492908636"><ele>792.0</ele><time>2026-04-27T15:38:12.315Z</time></trkpt><trkpt lat="40.033204656569396" lon="9.102529658756023"><ele>792.0</ele><time>2026-04-27T15:38:13.315Z</time></trkpt><trkpt lat="40.03341772789381" lon="9.102528692349297"><ele>790.6666666666667</ele><time>2026-04-27T15:38:14.315Z</time></trkpt><trkpt lat="40.03329502279716" lon="9.102344692478242"><ele>789.3333333333334</ele><time>2026-04-27T15:38:15.315Z</time></trkpt><trkpt lat="40.033211410276664" lon="9.102148236688025"><ele>788.0</ele><time>2026-04-27T15:38:16.315Z</time></trkpt><trkpt lat="40.033214016511565" lon="9.101919322605049"><ele>788.0</ele><time>2026-04-27T15:38:17.315Z</time></trkpt><trkpt lat="40.03328928502055" lon="9.101707957139856"><ele>788.0</ele><time>2026-04-27T15:38:18.315Z</time></trkpt><trkpt lat="40.033421872877405" lon="9.101543452562384"><ele>788.0</ele><time>2026-04-27T15:38:19.315Z</time></trkpt><trkpt lat="40.03353046349307" lon="9.10137505718695"><ele>797.6666666666667</ele><time>2026-04-27T15:38:20.315Z</time></trkpt><trkpt lat="40.033583972133016" lon="9.101155367034"><ele>807.3333333333333</ele><time>2026-04-27T15:38:21.315Z</time></trkpt><trkpt lat="40.033571550431375" lon="9.100909703663635"><ele>817.0</ele><time>2026-04-27T15:38:22.315Z</time></trkpt><trkpt lat="40.03355609571785" lon="9.100664744754905"><ele>819.3333333333333</ele><time>2026-04-27T15:38:23.315Z</time></trkpt><trkpt lat="40.03355824812766" lon="9.100429063584073"><ele>821.6666666666667</ele><time>2026-04-27T15:38:24.315Z</time></trkpt><trkpt lat="40.03359260249347" lon="9.10021135021724"><ele>824.0</ele><time>2026-04-27T15:38:25.315Z</time></trkpt><trkpt lat="40.03367331079764" lon="9.100025649661417"><ele>827.6666666666667</ele><time>2026-04-27T15:38:26.315Z</time></trkpt><trkpt lat="40.03378997245714" lon="9.099866777343372"><ele>831.3333333333333</ele><time>2026-04-27T15:38:27.315Z</time></trkpt><trkpt lat="40.03392371105068" lon="9.099710464542628"><ele>835.0</ele><time>2026-04-27T15:38:28.315Z</time></trkpt><trkpt lat="40.034049306009095" lon="9.099553157232872"><ele>833.75</ele><time>2026-04-27T15:38:29.315Z</time></trkpt><trkpt lat="40.03417419568497" lon="9.099423036335502"><ele>832.5</ele><time>2026-04-27T15:38:30.315Z</time></trkpt><trkpt lat="40.034282671737046" lon="9.099292309077391"><ele>831.25</ele><time>2026-04-27T15:38:31.315Z</time></trkpt><trkpt lat="40.03438977035243" lon="9.099176718102374"><ele>830.0</ele><time>2026-04-27T15:38:32.315Z</time></trkpt><trkpt lat="40.03449046950409" lon="9.0990536667922"><ele>829.6666666666667</ele><time>2026-04-27T15:38:33.315Z</time></trkpt><trkpt lat="40.03460051512493" lon="9.098902198162047"><ele>829.3333333333333</ele><time>2026-04-27T15:38:34.315Z</time></trkpt><trkpt lat="40.03473697936262" lon="9.098731876589435"><ele>829.0</ele><time>2026-04-27T15:38:35.315Z</time></trkpt><trkpt lat="40.03489568467252" lon="9.09855273163863"><ele>826.6666666666666</ele><time>2026-04-27T15:38:36.315Z</time></trkpt><trkpt lat="40.03506236307244" lon="9.098374278619584"><ele>824.3333333333333</ele><time>2026-04-27T15:38:37.315Z</time></trkpt><trkpt lat="40.03523512937217" lon="9.098176878076272"><ele>822.0</ele><time>2026-04-27T15:38:38.315Z</time></trkpt><trkpt lat="40.03540168039681" lon="9.09796433167963"><ele>822.0</ele><time>2026-04-27T15:38:39.315Z</time></trkpt><trkpt lat="40.03556002782127" lon="9.097759605760587"><ele>822.0</ele><time>2026-04-27T15:38:40.315Z</time></trkpt><trkpt lat="40.03570894086015" lon="9.097573343954057"><ele>822.0</ele><time>2026-04-27T15:38:41.315Z</time></trkpt><trkpt lat="40.035865426148455" lon="9.09740373690622"><ele>821.6666666666667</ele><time>2026-04-27T15:38:42.315Z</time></trkpt><trkpt lat="40.036046645777866" lon="9.097277883851211"><ele>821.3333333333334</ele><time>2026-04-27T15:38:43.315Z</time></trkpt><trkpt lat="40.036248003838416" lon="9.09718422245962"><ele>821.0</ele><time>2026-04-27T15:38:44.315Z</time></trkpt><trkpt lat="40.036447921889675" lon="9.097106260381139"><ele>820.3333333333334</ele><time>2026-04-27T15:38:45.315Z</time></trkpt><trkpt lat="40.03664869704723" lon="9.097023806925417"><ele>819.6666666666667</ele><time>2026-04-27T15:38:46.315Z</time></trkpt><trkpt lat="40.03682268626221" lon="9.096927046547508"><ele>819.0</ele><time>2026-04-27T15:38:47.316Z</time></trkpt><trkpt lat="40.03697054914956" lon="9.096820921360687"><ele>819.0</ele><time>2026-04-27T15:38:48.316Z</time></trkpt><trkpt lat="40.03707290139526" lon="9.096653948092532"><ele>819.0</ele><time>2026-04-27T15:38:49.316Z</time></trkpt><trkpt lat="40.03712825442196" lon="9.096410497815008"><ele>819.0</ele><time>2026-04-27T15:38:50.316Z</time></trkpt><trkpt lat="40.03715937767786" lon="9.0961408450657"><ele>816.6666666666667</ele><time>2026-04-27T15:38:51.316Z</time></trkpt><trkpt lat="40.03719401724484" lon="9.095901861933013"><ele>814.3333333333334</ele><time>2026-04-27T15:38:52.316Z</time></trkpt><trkpt lat="40.03726971135552" lon="9.095697445547112"><ele>812.0</ele><time>2026-04-27T15:38:53.316Z</time></trkpt><trkpt lat="40.03740126319811" lon="9.095534973957033"><ele>808.6666666666667</ele><time>2026-04-27T15:38:54.316Z</time></trkpt><trkpt lat="40.03758041551712" lon="9.095400817033672"><ele>805.3333333333333</ele><time>2026-04-27T15:38:55.316Z</time></trkpt><trkpt lat="40.03775134855853" lon="9.095261425400219"><ele>802.0</ele><time>2026-04-27T15:38:56.316Z</time></trkpt><trkpt lat="40.03790515397683" lon="9.095121871211045"><ele>802.0</ele><time>2026-04-27T15:38:57.316Z</time></trkpt><trkpt lat="40.03804756660058" lon="9.094985593615101"><ele>802.0</ele><time>2026-04-27T15:38:58.316Z</time></trkpt><trkpt lat="40.03814997141874" lon="9.094818826818985"><ele>802.0</ele><time>2026-04-27T15:38:59.316Z</time></trkpt><trkpt lat="40.038210396906734" lon="9.094616469872282"><ele>799.3333333333333</ele><time>2026-04-27T15:39:00.316Z</time></trkpt><trkpt lat="40.03821456888268" lon="9.094371205848365"><ele>796.6666666666667</ele><time>2026-04-27T15:39:01.316Z</time></trkpt><trkpt lat="40.0382054620995" lon="9.094108910108897"><ele>794.0</ele><time>2026-04-27T15:39:02.316Z</time></trkpt><trkpt lat="40.03820792255951" lon="9.093851913357653"><ele>792.3333333333334</ele><time>2026-04-27T15:39:03.316Z</time></trkpt><trkpt lat="40.0382189887026" lon="9.093601451157"><ele>790.6666666666667</ele><time>2026-04-27T15:39:04.316Z</time></trkpt><trkpt lat="40.03823153102992" lon="9.093358226270125"><ele>789.0</ele><time>2026-04-27T15:39:05.316Z</time></trkpt><trkpt lat="40.03827565493248" lon="9.093134801244892"><ele>787.6666666666667</ele><time>2026-04-27T15:39:06.316Z</time></trkpt><trkpt lat="40.03838993048743" lon="9.092939189614581"><ele>786.3333333333334</ele><time>2026-04-27T15:39:07.316Z</time></trkpt><trkpt lat="40.038546406720734" lon="9.092763402466415"><ele>785.0</ele><time>2026-04-27T15:39:08.316Z</time></trkpt><trkpt lat="40.03870151109389" lon="9.0925825103626"><ele>782.25</ele><time>2026-04-27T15:39:09.316Z</time></trkpt><trkpt lat="40.038833523944824" lon="9.092410093194102"><ele>779.5</ele><time>2026-04-27T15:39:10.316Z</time></trkpt><trkpt lat="40.038933010238516" lon="9.092267831977809"><ele>776.75</ele><time>2026-04-27T15:39:11.316Z</time></trkpt><trkpt lat="40.03896458054389" lon="9.092140758239163"><ele>774.0</ele><time>2026-04-27T15:39:12.316Z</time></trkpt><trkpt lat="40.038924343516236" lon="9.091965528486371"><ele>774.0</ele><time>2026-04-27T15:39:13.316Z</time></trkpt><trkpt lat="40.038809294247805" lon="9.091811115051835"><ele>774.0</ele><time>2026-04-27T15:39:14.316Z</time></trkpt><trkpt lat="40.0386562055934" lon="9.091729227614678"><ele>774.0</ele><time>2026-04-27T15:39:15.316Z</time></trkpt><trkpt lat="40.038506456499796" lon="9.091771185106516"><ele>774.0</ele><time>2026-04-27T15:39:16.316Z</time></trkpt><trkpt lat="40.03837555721967" lon="9.091922635425986"><ele>774.0</ele><time>2026-04-27T15:39:17.316Z</time></trkpt><trkpt lat="40.03827170816314" lon="9.09211522438148"><ele>774.0</ele><time>2026-04-27T15:39:18.316Z</time></trkpt><trkpt lat="40.03818208594708" lon="9.092321639502986"><ele>774.6666666666667</ele><time>2026-04-27T15:39:19.316Z</time></trkpt><trkpt lat="40.03807538739749" lon="9.092507781271774"><ele>775.3333333333334</ele><time>2026-04-27T15:39:20.316Z</time></trkpt><trkpt lat="40.03796512235218" lon="9.092679449262624"><ele>776.0</ele><time>2026-04-27T15:39:21.316Z</time></trkpt><trkpt lat="40.03786251333662" lon="9.092816372150454"><ele>776.0</ele><time>2026-04-27T15:39:22.316Z</time></trkpt><trkpt lat="40.03775493593246" lon="9.092898461517816"><ele>776.0</ele><time>2026-04-27T15:39:23.316Z</time></trkpt><trkpt lat="40.03762019823536" lon="9.092864477397407"><ele>776.0</ele><time>2026-04-27T15:39:24.316Z</time></trkpt><trkpt lat="40.037496708662125" lon="9.09274866749045"><ele>776.0</ele><time>2026-04-27T15:39:25.316Z</time></trkpt><trkpt lat="40.037412927797966" lon="9.092567629010336"><ele>779.0</ele><time>2026-04-27T15:39:26.316Z</time></trkpt><trkpt lat="40.037366949271835" lon="9.09234736339817"><ele>782.0</ele><time>2026-04-27T15:39:27.316Z</time></trkpt><trkpt lat="40.03735533062847" lon="9.09212255910118"><ele>785.0</ele><time>2026-04-27T15:39:28.316Z</time></trkpt><trkpt lat="40.03738329901188" lon="9.091896873246856"><ele>785.0</ele><time>2026-04-27T15:39:29.316Z</time></trkpt><trkpt lat="40.03746875229928" lon="9.09168346255497"><ele>785.0</ele><time>2026-04-27T15:39:30.316Z</time></trkpt><trkpt lat="40.03760311127086" lon="9.091499080193797"><ele>785.0</ele><time>2026-04-27T15:39:31.316Z</time></trkpt><trkpt lat="40.03771573695193" lon="9.091295452248255"><ele>784.6666666666667</ele><time>2026-04-27T15:39:32.316Z</time></trkpt><trkpt lat="40.03782277010326" lon="9.09108351229643"><ele>784.3333333333333</ele><time>2026-04-27T15:39:33.316Z</time></trkpt><trkpt lat="40.03791913061393" lon="9.090859601385759"><ele>784.0</ele><time>2026-04-27T15:39:34.316Z</time></trkpt><trkpt lat="40.03802864392983" lon="9.090642819324549"><ele>784.0</ele><time>2026-04-27T15:39:35.316Z</time></trkpt><trkpt lat="40.03813156420319" lon="9.090424829558266"><ele>784.0</ele><time>2026-04-27T15:39:36.316Z</time></trkpt><trkpt lat="40.038234571152685" lon="9.090199953581465"><ele>784.0</ele><time>2026-04-27T15:39:37.316Z</time></trkpt><trkpt lat="40.03835358223626" lon="9.089990120518719"><ele>779.6666666666666</ele><time>2026-04-27T15:39:38.316Z</time></trkpt><trkpt lat="40.03846976138789" lon="9.089779631034466"><ele>775.3333333333333</ele><time>2026-04-27T15:39:39.318Z</time></trkpt><trkpt lat="40.03860293582791" lon="9.089592937025223"><ele>771.0</ele><time>2026-04-27T15:39:40.318Z</time></trkpt><trkpt lat="40.03872350198223" lon="9.089412582945108"><ele>771.0</ele><time>2026-04-27T15:39:41.318Z</time></trkpt><trkpt lat="40.03885369117367" lon="9.089255859892019"><ele>771.0</ele><time>2026-04-27T15:39:42.318Z</time></trkpt><trkpt lat="40.03901282575218" lon="9.089167292484815"><ele>771.0</ele><time>2026-04-27T15:39:43.318Z</time></trkpt><trkpt lat="40.03922386602363" lon="9.089126292304186"><ele>771.6666666666667</ele><time>2026-04-27T15:39:44.318Z</time></trkpt><trkpt lat="40.03944198181689" lon="9.089115783346184"><ele>772.3333333333334</ele><time>2026-04-27T15:39:45.318Z</time></trkpt><trkpt lat="40.03964758073567" lon="9.089079360337402"><ele>773.0</ele><time>2026-04-27T15:39:46.318Z</time></trkpt><trkpt lat="40.0398584376259" lon="9.089038082934664"><ele>771.6666666666667</ele><time>2026-04-27T15:39:47.318Z</time></trkpt><trkpt lat="40.04006818542534" lon="9.08899323514384"><ele>770.3333333333333</ele><time>2026-04-27T15:39:48.318Z</time></trkpt><trkpt lat="40.04025525588817" lon="9.088963054732488"><ele>769.0</ele><time>2026-04-27T15:39:49.318Z</time></trkpt><trkpt lat="40.04044824020351" lon="9.088918998454858"><ele>769.0</ele><time>2026-04-27T15:39:50.318Z</time></trkpt><trkpt lat="40.04064187452062" lon="9.08885185341788"><ele>769.0</ele><time>2026-04-27T15:39:51.318Z</time></trkpt><trkpt lat="40.040829702069864" lon="9.088737678850526"><ele>769.0</ele><time>2026-04-27T15:39:52.318Z</time></trkpt><trkpt lat="40.04100211756979" lon="9.08859124470084"><ele>766.6666666666666</ele><time>2026-04-27T15:39:53.318Z</time></trkpt><trkpt lat="40.0411562257852" lon="9.088459298313365"><ele>764.3333333333333</ele><time>2026-04-27T15:39:54.318Z</time></trkpt><trkpt lat="40.04127822047872" lon="9.088330733176711"><ele>762.0</ele><time>2026-04-27T15:39:55.318Z</time></trkpt><trkpt lat="40.04136047003796" lon="9.088185603565018"><ele>762.0</ele><time>2026-04-27T15:39:56.318Z</time></trkpt><trkpt lat="40.04139119278641" lon="9.0879871912847"><ele>762.0</ele><time>2026-04-27T15:39:57.318Z</time></trkpt><trkpt lat="40.041378489769784" lon="9.08776697214603"><ele>762.0</ele><time>2026-04-27T15:39:58.318Z</time></trkpt><trkpt lat="40.04144051445521" lon="9.087569030577894"><ele>762.0</ele><time>2026-04-27T15:39:59.318Z</time></trkpt><trkpt lat="40.04159240398727" lon="9.087461079125406"><ele>762.0</ele><time>2026-04-27T15:40:00.318Z</time></trkpt><trkpt lat="40.04176722294957" lon="9.087367876681943"><ele>762.0</ele><time>2026-04-27T15:40:01.318Z</time></trkpt><trkpt lat="40.04195117197497" lon="9.08727242192821"><ele>760.0</ele><time>2026-04-27T15:40:02.318Z</time></trkpt><trkpt lat="40.042117274111234" lon="9.08722379705783"><ele>758.0</ele><time>2026-04-27T15:40:03.318Z</time></trkpt><trkpt lat="40.042305943574625" lon="9.087244499789623"><ele>756.0</ele><time>2026-04-27T15:40:04.318Z</time></trkpt><trkpt lat="40.04247451863778" lon="9.087258511203883"><ele>745.3333333333334</ele><time>2026-04-27T15:40:05.318Z</time></trkpt><trkpt lat="40.04261218608792" lon="9.087195773926117"><ele>734.6666666666667</ele><time>2026-04-27T15:40:06.318Z</time></trkpt><trkpt lat="40.042714643239854" lon="9.087050036425643"><ele>724.0</ele><time>2026-04-27T15:40:07.318Z</time></trkpt><trkpt lat="40.0427875794176" lon="9.08685862953381"><ele>724.0</ele><time>2026-04-27T15:40:08.318Z</time></trkpt><trkpt lat="40.042803460090205" lon="9.086604269003203"><ele>724.0</ele><time>2026-04-27T15:40:09.318Z</time></trkpt><trkpt lat="40.04280054826504" lon="9.086345627910411"><ele>724.0</ele><time>2026-04-27T15:40:10.318Z</time></trkpt><trkpt lat="40.04286022075635" lon="9.086095653311487"><ele>728.3333333333334</ele><time>2026-04-27T15:40:11.318Z</time></trkpt><trkpt lat="40.04298283898411" lon="9.08588418885716"><ele>732.6666666666666</ele><time>2026-04-27T15:40:12.318Z</time></trkpt><trkpt lat="40.043103240619665" lon="9.085665420026995"><ele>737.0</ele><time>2026-04-27T15:40:13.318Z</time></trkpt><trkpt lat="40.04321838046232" lon="9.085441272671462"><ele>736.0</ele><time>2026-04-27T15:40:14.318Z</time></trkpt><trkpt lat="40.04333045754712" lon="9.085205657519298"><ele>735.0</ele><time>2026-04-27T15:40:15.318Z</time></trkpt><trkpt lat="40.043455497050665" lon="9.084971701975862"><ele>734.0</ele><time>2026-04-27T15:40:16.318Z</time></trkpt><trkpt lat="40.043571925747784" lon="9.084741412643933"><ele>734.0</ele><time>2026-04-27T15:40:17.318Z</time></trkpt><trkpt lat="40.04368272934586" lon="9.084515333876391"><ele>734.0</ele><time>2026-04-27T15:40:18.318Z</time></trkpt><trkpt lat="40.043793790336885" lon="9.084312307621428"><ele>734.0</ele><time>2026-04-27T15:40:19.318Z</time></trkpt><trkpt lat="40.04393554692909" lon="9.08415941992239"><ele>731.3333333333333</ele><time>2026-04-27T15:40:20.318Z</time></trkpt><trkpt lat="40.04410562730932" lon="9.084040232641504"><ele>728.6666666666666</ele><time>2026-04-27T15:40:21.318Z</time></trkpt><trkpt lat="40.04431216223742" lon="9.08395070423923"><ele>726.0</ele><time>2026-04-27T15:40:22.318Z</time></trkpt><trkpt lat="40.044525034952585" lon="9.083869436516247"><ele>726.0</ele><time>2026-04-27T15:40:23.318Z</time></trkpt><trkpt lat="40.04473068088985" lon="9.083789369711463"><ele>726.0</ele><time>2026-04-27T15:40:24.318Z</time></trkpt><trkpt lat="40.044939458302224" lon="9.083715752998788"><ele>726.0</ele><time>2026-04-27T15:40:25.318Z</time></trkpt><trkpt lat="40.04515547502022" lon="9.083639208096214"><ele>720.3333333333334</ele><time>2026-04-27T15:40:26.318Z</time></trkpt><trkpt lat="40.045354718317405" lon="9.083585791284374"><ele>714.6666666666667</ele><time>2026-04-27T15:40:27.318Z</time></trkpt><trkpt lat="40.04555102882965" lon="9.083559751472286"><ele>709.0</ele><time>2026-04-27T15:40:28.318Z</time></trkpt><trkpt lat="40.045734111940654" lon="9.083553942093552"><ele>702.6666666666667</ele><time>2026-04-27T15:40:29.318Z</time></trkpt><trkpt lat="40.04588688975053" lon="9.083548467630393"><ele>696.3333333333334</ele><time>2026-04-27T15:40:30.318Z</time></trkpt><trkpt lat="40.04601552918484" lon="9.08345748649052"><ele>690.0</ele><time>2026-04-27T15:40:31.318Z</time></trkpt><trkpt lat="40.04611162249336" lon="9.083284538747202"><ele>689.6666666666666</ele><time>2026-04-27T15:40:32.318Z</time></trkpt><trkpt lat="40.04619649414644" lon="9.083061971680532"><ele>689.3333333333333</ele><time>2026-04-27T15:40:33.318Z</time></trkpt><trkpt lat="40.04629776243424" lon="9.0828323412784"><ele>689.0</ele><time>2026-04-27T15:40:34.318Z</time></trkpt><trkpt lat="40.04637118839481" lon="9.082635477795389"><ele>689.0</ele><time>2026-04-27T15:40:35.318Z</time></trkpt><trkpt lat="40.04638818310451" lon="9.082435983737943"><ele>689.0</ele><time>2026-04-27T15:40:36.318Z</time></trkpt><trkpt lat="40.04632801581683" lon="9.082239341675383"><ele>689.0</ele><time>2026-04-27T15:40:37.318Z</time></trkpt><trkpt lat="40.046217604701596" lon="9.082086610189162"><ele>685.5</ele><time>2026-04-27T15:40:38.318Z</time></trkpt><trkpt lat="40.04613160676267" lon="9.081936429749735"><ele>682.0</ele><time>2026-04-27T15:40:39.318Z</time></trkpt><trkpt lat="40.04613248022593" lon="9.081769697262128"><ele>678.5</ele><time>2026-04-27T15:40:40.318Z</time></trkpt><trkpt lat="40.04621064852321" lon="9.081610790292878"><ele>675.0</ele><time>2026-04-27T15:40:41.318Z</time></trkpt><trkpt lat="40.046342535609725" lon="9.081512747166693"><ele>674.6666666666666</ele><time>2026-04-27T15:40:42.318Z</time></trkpt><trkpt lat="40.046497798562754" lon="9.081513462214163"><ele>674.3333333333333</ele><time>2026-04-27T15:40:43.318Z</time></trkpt><trkpt lat="40.04665425104524" lon="9.081598443988863"><ele>674.0</ele><time>2026-04-27T15:40:44.318Z</time></trkpt><trkpt lat="40.04680912886874" lon="9.081704068376393"><ele>675.3333333333333</ele><time>2026-04-27T15:40:45.318Z</time></trkpt><trkpt lat="40.04695536582885" lon="9.08178121807015"><ele>676.6666666666666</ele><time>2026-04-27T15:40:46.318Z</time></trkpt><trkpt lat="40.047101300235724" lon="9.081859535585824"><ele>678.0</ele><time>2026-04-27T15:40:47.318Z</time></trkpt><trkpt lat="40.04724734491769" lon="9.081944148277891"><ele>678.0</ele><time>2026-04-27T15:40:48.318Z</time></trkpt><trkpt lat="40.04736842165533" lon="9.082077105735364"><ele>678.0</ele><time>2026-04-27T15:40:49.318Z</time></trkpt><trkpt lat="40.04745647585111" lon="9.082259266740854"><ele>678.0</ele><time>2026-04-27T15:40:50.318Z</time></trkpt><trkpt lat="40.04752448250144" lon="9.082456681190887"><ele>681.6666666666666</ele><time>2026-04-27T15:40:51.318Z</time></trkpt><trkpt lat="40.047599699277036" lon="9.082644856833172"><ele>685.3333333333333</ele><time>2026-04-27T15:40:52.318Z</time></trkpt><trkpt lat="40.04772851846675" lon="9.082769153808629"><ele>689.0</ele><time>2026-04-27T15:40:53.318Z</time></trkpt><trkpt lat="40.04790881541667" lon="9.082792200866988"><ele>689.0</ele><time>2026-04-27T15:40:54.318Z</time></trkpt><trkpt lat="40.04808258150447" lon="9.082813821978199"><ele>689.0</ele><time>2026-04-27T15:40:55.318Z</time></trkpt><trkpt lat="40.0482575058204" lon="9.082884732402443"><ele>689.0</ele><time>2026-04-27T15:40:56.318Z</time></trkpt><trkpt lat="40.048416177417856" lon="9.083013068368142"><ele>691.6666666666666</ele><time>2026-04-27T15:40:57.318Z</time></trkpt><trkpt lat="40.04857239379314" lon="9.083164676612087"><ele>694.3333333333334</ele><time>2026-04-27T15:40:58.319Z</time></trkpt><trkpt lat="40.0487255900978" lon="9.083316452406875"><ele>697.0</ele><time>2026-04-27T15:40:59.319Z</time></trkpt><trkpt lat="40.048886114272065" lon="9.08342483986595"><ele>697.0</ele><time>2026-04-27T15:41:00.319Z</time></trkpt><trkpt lat="40.049055388495965" lon="9.083528879933658"><ele>697.0</ele><time>2026-04-27T15:41:01.319Z</time></trkpt><trkpt lat="40.049216468935974" lon="9.083578312999812"><ele>697.0</ele><time>2026-04-27T15:41:02.319Z</time></trkpt><trkpt lat="40.049373776762" lon="9.083580378579734"><ele>700.6666666666667</ele><time>2026-04-27T15:41:03.319Z</time></trkpt><trkpt lat="40.04952701282347" lon="9.08349339933854"><ele>704.3333333333334</ele><time>2026-04-27T15:41:04.319Z</time></trkpt><trkpt lat="40.049695522710344" lon="9.083364571235593"><ele>708.0</ele><time>2026-04-27T15:41:05.319Z</time></trkpt><trkpt lat="40.04987269302185" lon="9.083303286732685"><ele>709.0</ele><time>2026-04-27T15:41:06.319Z</time></trkpt><trkpt lat="40.05005087634033" lon="9.083304894578898"><ele>710.0</ele><time>2026-04-27T15:41:07.319Z</time></trkpt><trkpt lat="40.05023534767563" lon="9.08341957715041"><ele>711.0</ele><time>2026-04-27T15:41:08.319Z</time></trkpt><trkpt lat="40.050408948567885" lon="9.08353720884655"><ele>711.0</ele><time>2026-04-27T15:41:09.319Z</time></trkpt><trkpt lat="40.05059598680047" lon="9.083625630025029"><ele>711.0</ele><time>2026-04-27T15:41:10.319Z</time></trkpt><trkpt lat="40.05077243106468" lon="9.083697515374407"><ele>711.0</ele><time>2026-04-27T15:41:11.319Z</time></trkpt><trkpt lat="40.05093241313877" lon="9.083718806590134"><ele>714.0</ele><time>2026-04-27T15:41:12.319Z</time></trkpt><trkpt lat="40.05109542140183" lon="9.083667915595646"><ele>717.0</ele><time>2026-04-27T15:41:13.319Z</time></trkpt><trkpt lat="40.051258854576304" lon="9.083567193151326"><ele>720.0</ele><time>2026-04-27T15:41:14.319Z</time></trkpt><trkpt lat="40.05142300466328" lon="9.083472070471348"><ele>720.0</ele><time>2026-04-27T15:41:15.319Z</time></trkpt><trkpt lat="40.05159732153822" lon="9.083405303653388"><ele>720.0</ele><time>2026-04-27T15:41:16.319Z</time></trkpt><trkpt lat="40.051762071032854" lon="9.083380011647947"><ele>720.0</ele><time>2026-04-27T15:41:17.319Z</time></trkpt><trkpt lat="40.051925790064914" lon="9.083456099539687"><ele>720.3333333333334</ele><time>2026-04-27T15:41:18.319Z</time></trkpt><trkpt lat="40.05208406624677" lon="9.083585356480835"><ele>720.6666666666667</ele><time>2026-04-27T15:41:19.319Z</time></trkpt><trkpt lat="40.0522305911662" lon="9.083712212245379"><ele>721.0</ele><time>2026-04-27T15:41:20.319Z</time></trkpt><trkpt lat="40.05238090252079" lon="9.083838459155636"><ele>719.3333333333334</ele><time>2026-04-27T15:41:21.319Z</time></trkpt><trkpt lat="40.05252410281121" lon="9.083995458922892"><ele>717.6666666666666</ele><time>2026-04-27T15:41:22.319Z</time></trkpt><trkpt lat="40.052665165855935" lon="9.08409566521008"><ele>716.0</ele><time>2026-04-27T15:41:23.319Z</time></trkpt><trkpt lat="40.05281378905363" lon="9.084139975009835"><ele>716.0</ele><time>2026-04-27T15:41:24.319Z</time></trkpt><trkpt lat="40.052980848833826" lon="9.084106216176306"><ele>716.0</ele><time>2026-04-27T15:41:25.319Z</time></trkpt><trkpt lat="40.05312808715686" lon="9.083984888117447"><ele>716.0</ele><time>2026-04-27T15:41:26.319Z</time></trkpt><trkpt lat="40.05323994990783" lon="9.083835290967178"><ele>717.6666666666666</ele><time>2026-04-27T15:41:27.319Z</time></trkpt><trkpt lat="40.05335575520487" lon="9.083675700675526"><ele>719.3333333333334</ele><time>2026-04-27T15:41:28.319Z</time></trkpt><trkpt lat="40.05351782433563" lon="9.083580576900625"><ele>721.0</ele><time>2026-04-27T15:41:29.319Z</time></trkpt><trkpt lat="40.053699584550756" lon="9.08356418634808"><ele>721.0</ele><time>2026-04-27T15:41:30.319Z</time></trkpt><trkpt lat="40.053903804723745" lon="9.083602258285834"><ele>721.0</ele><time>2026-04-27T15:41:31.319Z</time></trkpt><trkpt lat="40.054108466339144" lon="9.083669040861162"><ele>721.0</ele><time>2026-04-27T15:41:32.319Z</time></trkpt><trkpt lat="40.05416468864838" lon="9.083459854058427"><ele>721.6666666666667</ele><time>2026-04-27T15:41:33.319Z</time></trkpt><trkpt lat="40.05432991199552" lon="9.083359254319996"><ele>722.3333333333334</ele><time>2026-04-27T15:41:34.319Z</time></trkpt><trkpt lat="40.05443555435867" lon="9.083166303244662"><ele>723.0</ele><time>2026-04-27T15:41:35.319Z</time></trkpt><trkpt lat="40.05450385618152" lon="9.082925514403817"><ele>723.0</ele><time>2026-04-27T15:41:36.319Z</time></trkpt><trkpt lat="40.054574427380075" lon="9.08269536123452"><ele>723.0</ele><time>2026-04-27T15:41:37.319Z</time></trkpt><trkpt lat="40.05465276213157" lon="9.082465298052293"><ele>723.0</ele><time>2026-04-27T15:41:38.319Z</time></trkpt><trkpt lat="40.05475822272263" lon="9.08224858873932"><ele>725.3333333333334</ele><time>2026-04-27T15:41:39.319Z</time></trkpt><trkpt lat="40.05490780873797" lon="9.082085769426627"><ele>727.6666666666667</ele><time>2026-04-27T15:41:40.319Z</time></trkpt><trkpt lat="40.05508753038315" lon="9.081983055108827"><ele>730.0</ele><time>2026-04-27T15:41:41.319Z</time></trkpt><trkpt lat="40.055282611387526" lon="9.0819340986355"><ele>730.0</ele><time>2026-04-27T15:41:42.319Z</time></trkpt><trkpt lat="40.055462806601874" lon="9.081903601561734"><ele>730.0</ele><time>2026-04-27T15:41:43.319Z</time></trkpt><trkpt lat="40.05561130202341" lon="9.081847003313984"><ele>730.0</ele><time>2026-04-27T15:41:44.319Z</time></trkpt><trkpt lat="40.055724620914695" lon="9.081686712548741"><ele>735.0</ele><time>2026-04-27T15:41:45.321Z</time></trkpt><trkpt lat="40.05579848769407" lon="9.081475047036184"><ele>740.0</ele><time>2026-04-27T15:41:46.321Z</time></trkpt><trkpt lat="40.05585661074413" lon="9.081250494178697"><ele>745.0</ele><time>2026-04-27T15:41:47.321Z</time></trkpt><trkpt lat="40.05594009291597" lon="9.0810553487671"><ele>745.0</ele><time>2026-04-27T15:41:48.322Z</time></trkpt><trkpt lat="40.05605531378858" lon="9.080918377998621"><ele>745.0</ele><time>2026-04-27T15:41:49.321Z</time></trkpt><trkpt lat="40.05621851868009" lon="9.08085405471141"><ele>745.0</ele><time>2026-04-27T15:41:50.321Z</time></trkpt><trkpt lat="40.056387111333486" lon="9.08087768820793"><ele>745.0</ele><time>2026-04-27T15:41:51.322Z</time></trkpt><trkpt lat="40.056543898495896" lon="9.080983817086013"><ele>745.0</ele><time>2026-04-27T15:41:52.321Z</time></trkpt><trkpt lat="40.056693831583736" lon="9.081112395720423"><ele>745.0</ele><time>2026-04-27T15:41:53.321Z</time></trkpt><trkpt lat="40.0568145982428" lon="9.081271789503706"><ele>745.3333333333334</ele><time>2026-04-27T15:41:54.322Z</time></trkpt><trkpt lat="40.05688545262786" lon="9.081495947844274"><ele>745.6666666666666</ele><time>2026-04-27T15:41:55.321Z</time></trkpt><trkpt lat="40.05690821652354" lon="9.081767189919733"><ele>746.0</ele><time>2026-04-27T15:41:56.321Z</time></trkpt><trkpt lat="40.05690653263828" lon="9.082046351433315"><ele>746.0</ele><time>2026-04-27T15:41:57.321Z</time></trkpt><trkpt lat="40.056910853562755" lon="9.082319121157663"><ele>746.0</ele><time>2026-04-27T15:41:58.321Z</time></trkpt><trkpt lat="40.05691890554015" lon="9.082573522689918"><ele>746.0</ele><time>2026-04-27T15:41:59.321Z</time></trkpt><trkpt lat="40.05693679841651" lon="9.082806549346802"><ele>746.6666666666666</ele><time>2026-04-27T15:42:00.321Z</time></trkpt><trkpt lat="40.056994545900395" lon="9.083002889979774"><ele>747.3333333333334</ele><time>2026-04-27T15:42:01.321Z</time></trkpt><trkpt lat="40.0571225215608" lon="9.083147399632754"><ele>748.0</ele><time>2026-04-27T15:42:02.321Z</time></trkpt><trkpt lat="40.057308822617145" lon="9.083239490299617"><ele>743.0</ele><time>2026-04-27T15:42:03.321Z</time></trkpt><trkpt lat="40.05750104633437" lon="9.083306707914156"><ele>738.0</ele><time>2026-04-27T15:42:04.321Z</time></trkpt><trkpt lat="40.05768886558381" lon="9.083397057136743"><ele>733.0</ele><time>2026-04-27T15:42:05.321Z</time></trkpt><trkpt lat="40.0578886058277" lon="9.083496616043833"><ele>733.0</ele><time>2026-04-27T15:42:06.321Z</time></trkpt><trkpt lat="40.0580775334008" lon="9.083588610378694"><ele>733.0</ele><time>2026-04-27T15:42:07.321Z</time></trkpt><trkpt lat="40.05827329128759" lon="9.083687378647284"><ele>733.0</ele><time>2026-04-27T15:42:08.321Z</time></trkpt><trkpt lat="40.058458102988304" lon="9.083785039666237"><ele>729.6666666666667</ele><time>2026-04-27T15:42:09.321Z</time></trkpt><trkpt lat="40.05863667465981" lon="9.083864554804412"><ele>726.3333333333334</ele><time>2026-04-27T15:42:10.321Z</time></trkpt><trkpt lat="40.058802446662085" lon="9.083919464939486"><ele>723.0</ele><time>2026-04-27T15:42:11.321Z</time></trkpt><trkpt lat="40.05897274543049" lon="9.083899849863206"><ele>722.0</ele><time>2026-04-27T15:42:12.321Z</time></trkpt><trkpt lat="40.059135855577765" lon="9.083789508963823"><ele>721.0</ele><time>2026-04-27T15:42:13.321Z</time></trkpt><trkpt lat="40.05927769647788" lon="9.083616056636167"><ele>720.0</ele><time>2026-04-27T15:42:14.322Z</time></trkpt><trkpt lat="40.05937581274054" lon="9.083388805223027"><ele>717.6666666666666</ele><time>2026-04-27T15:42:15.322Z</time></trkpt><trkpt lat="40.05944815427225" lon="9.083139075629017"><ele>715.3333333333333</ele><time>2026-04-27T15:42:16.322Z</time></trkpt><trkpt lat="40.05953914953926" lon="9.082901042948638"><ele>713.0</ele><time>2026-04-27T15:42:17.322Z</time></trkpt><trkpt lat="40.059640319188176" lon="9.082694200203983"><ele>713.0</ele><time>2026-04-27T15:42:18.322Z</time></trkpt><trkpt lat="40.05976233085936" lon="9.082522969556214"><ele>713.0</ele><time>2026-04-27T15:42:19.322Z</time></trkpt><trkpt lat="40.05992431037712" lon="9.082415540904305"><ele>713.0</ele><time>2026-04-27T15:42:20.322Z</time></trkpt><trkpt lat="40.060130614481004" lon="9.082354236096366"><ele>710.3333333333333</ele><time>2026-04-27T15:42:21.322Z</time></trkpt><trkpt lat="40.060342860303635" lon="9.082285988352341"><ele>707.6666666666666</ele><time>2026-04-27T15:42:22.322Z</time></trkpt><trkpt lat="40.060557558798195" lon="9.082212997523872"><ele>705.0</ele><time>2026-04-27T15:42:23.322Z</time></trkpt><trkpt lat="40.06076914946383" lon="9.082121201002503"><ele>703.0</ele><time>2026-04-27T15:42:24.322Z</time></trkpt><trkpt lat="40.06098844789117" lon="9.082041913156159"><ele>701.0</ele><time>2026-04-27T15:42:25.322Z</time></trkpt><trkpt lat="40.06120840960832" lon="9.081960329535368"><ele>701.0</ele><time>2026-04-27T15:42:26.322Z</time></trkpt><trkpt lat="40.06142686079251" lon="9.081877792147687"><ele>701.0</ele><time>2026-04-27T15:42:27.322Z</time></trkpt><trkpt lat="40.06163272456504" lon="9.081799218863198"><ele>701.0</ele><time>2026-04-27T15:42:28.322Z</time></trkpt><trkpt lat="40.06182151082247" lon="9.081728885392161"><ele>700.0</ele><time>2026-04-27T15:42:29.322Z</time></trkpt><trkpt lat="40.06199384974019" lon="9.08166504796076"><ele>699.0</ele><time>2026-04-27T15:42:30.322Z</time></trkpt><trkpt lat="40.06215192825247" lon="9.081629340988615"><ele>698.0</ele><time>2026-04-27T15:42:31.322Z</time></trkpt><trkpt lat="40.06230594596822" lon="9.081661344880215"><ele>694.3333333333333</ele><time>2026-04-27T15:42:32.322Z</time></trkpt><trkpt lat="40.06245722024896" lon="9.081771911702987"><ele>690.6666666666666</ele><time>2026-04-27T15:42:33.322Z</time></trkpt><trkpt lat="40.062570461943345" lon="9.081949295550775"><ele>687.0</ele><time>2026-04-27T15:42:34.322Z</time></trkpt><trkpt lat="40.062640283852524" lon="9.08218139736015"><ele>690.5</ele><time>2026-04-27T15:42:35.322Z</time></trkpt><trkpt lat="40.06266869699009" lon="9.082449201720694"><ele>694.0</ele><time>2026-04-27T15:42:36.322Z</time></trkpt><trkpt lat="40.06264637643214" lon="9.08280727808518"><ele>694.0</ele><time>2026-04-27T15:42:37.322Z</time></trkpt><trkpt lat="40.06269600058675" lon="9.083060894856091"><ele>694.0</ele><time>2026-04-27T15:42:38.322Z</time></trkpt><trkpt lat="40.06273299207765" lon="9.083317300193354"><ele>694.0</ele><time>2026-04-27T15:42:39.322Z</time></trkpt><trkpt lat="40.06277928358126" lon="9.083587348155113"><ele>693.3333333333334</ele><time>2026-04-27T15:42:40.322Z</time></trkpt><trkpt lat="40.062826764180656" lon="9.083850423728439"><ele>692.6666666666666</ele><time>2026-04-27T15:42:41.322Z</time></trkpt><trkpt lat="40.06286069790576" lon="9.084131485626108"><ele>692.0</ele><time>2026-04-27T15:42:42.322Z</time></trkpt><trkpt lat="40.06290136765437" lon="9.084391214959894"><ele>691.0</ele><time>2026-04-27T15:42:43.322Z</time></trkpt><trkpt lat="40.062938268063924" lon="9.084632953419735"><ele>690.0</ele><time>2026-04-27T15:42:44.322Z</time></trkpt><trkpt lat="40.06297659841469" lon="9.08484391470099"><ele>689.0</ele><time>2026-04-27T15:42:45.322Z</time></trkpt><trkpt lat="40.06304169178735" lon="9.085013194829063"><ele>689.0</ele><time>2026-04-27T15:42:46.322Z</time></trkpt><trkpt lat="40.06315557720425" lon="9.085158399340965"><ele>689.0</ele><time>2026-04-27T15:42:47.322Z</time></trkpt><trkpt lat="40.06332233227374" lon="9.08523206232927"><ele>689.0</ele><time>2026-04-27T15:42:48.322Z</time></trkpt><trkpt lat="40.063513878055666" lon="9.085233692760545"><ele>688.0</ele><time>2026-04-27T15:42:49.322Z</time></trkpt><trkpt lat="40.063678008143796" lon="9.085144288357696"><ele>687.0</ele><time>2026-04-27T15:42:50.322Z</time></trkpt><trkpt lat="40.06381748902326" lon="9.085005639779972"><ele>686.0</ele><time>2026-04-27T15:42:51.322Z</time></trkpt><trkpt lat="40.063918678701384" lon="9.084811340980336"><ele>686.0</ele><time>2026-04-27T15:42:52.322Z</time></trkpt><trkpt lat="40.06401288291314" lon="9.084622220467228"><ele>686.0</ele><time>2026-04-27T15:42:53.322Z</time></trkpt><trkpt lat="40.064128486555916" lon="9.08446903341702"><ele>686.0</ele><time>2026-04-27T15:42:54.322Z</time></trkpt><trkpt lat="40.06429857308871" lon="9.084418367352406"><ele>686.0</ele><time>2026-04-27T15:42:55.322Z</time></trkpt><trkpt lat="40.0644968881406" lon="9.084427447035972"><ele>686.0</ele><time>2026-04-27T15:42:56.322Z</time></trkpt><trkpt lat="40.064699898436736" lon="9.084435917512316"><ele>686.0</ele><time>2026-04-27T15:42:57.322Z</time></trkpt><trkpt lat="40.06490597672708" lon="9.084396493608926"><ele>689.0</ele><time>2026-04-27T15:42:58.322Z</time></trkpt><trkpt lat="40.065104503368495" lon="9.084317805859841"><ele>692.0</ele><time>2026-04-27T15:42:59.322Z</time></trkpt><trkpt lat="40.06528523732045" lon="9.084237777760563"><ele>695.0</ele><time>2026-04-27T15:43:00.322Z</time></trkpt><trkpt lat="40.0654582546649" lon="9.084192455429074"><ele>695.0</ele><time>2026-04-27T15:43:01.322Z</time></trkpt><trkpt lat="40.06563833017161" lon="9.084189490232301"><ele>695.0</ele><time>2026-04-27T15:43:02.322Z</time></trkpt><trkpt lat="40.06582012148833" lon="9.084277225784321"><ele>695.0</ele><time>2026-04-27T15:43:03.322Z</time></trkpt><trkpt lat="40.06599582006522" lon="9.084406829727149"><ele>696.0</ele><time>2026-04-27T15:43:04.322Z</time></trkpt><trkpt lat="40.06617523687492" lon="9.084535100468687"><ele>697.0</ele><time>2026-04-27T15:43:05.322Z</time></trkpt><trkpt lat="40.06635815568406" lon="9.08463916961593"><ele>698.0</ele><time>2026-04-27T15:43:06.322Z</time></trkpt><trkpt lat="40.066538702838486" lon="9.084732701553488"><ele>698.6666666666666</ele><time>2026-04-27T15:43:07.322Z</time></trkpt><trkpt lat="40.06671679637333" lon="9.084836562577252"><ele>699.3333333333334</ele><time>2026-04-27T15:43:08.322Z</time></trkpt><trkpt lat="40.066895056636284" lon="9.084938352842963"><ele>700.0</ele><time>2026-04-27T15:43:09.322Z</time></trkpt><trkpt lat="40.06706873108998" lon="9.08503439391055"><ele>703.6666666666667</ele><time>2026-04-27T15:43:10.322Z</time></trkpt><trkpt lat="40.067241799304234" lon="9.085134611958052"><ele>707.3333333333334</ele><time>2026-04-27T15:43:11.322Z</time></trkpt><trkpt lat="40.06741507113238" lon="9.085230514172514"><ele>711.0</ele><time>2026-04-27T15:43:12.322Z</time></trkpt><trkpt lat="40.06758356499294" lon="9.085321814922645"><ele>711.3333333333334</ele><time>2026-04-27T15:43:13.322Z</time></trkpt><trkpt lat="40.06774779220035" lon="9.085409942739778"><ele>711.6666666666667</ele><time>2026-04-27T15:43:14.322Z</time></trkpt><trkpt lat="40.06791508707567" lon="9.08547760842286"><ele>712.0</ele><time>2026-04-27T15:43:15.322Z</time></trkpt><trkpt lat="40.06807887215417" lon="9.085533541973614"><ele>712.0</ele><time>2026-04-27T15:43:16.322Z</time></trkpt><trkpt lat="40.0682433050436" lon="9.08559902503413"><ele>712.0</ele><time>2026-04-27T15:43:17.322Z</time></trkpt><trkpt lat="40.06839881936997" lon="9.085664927839588"><ele>712.0</ele><time>2026-04-27T15:43:18.322Z</time></trkpt><trkpt lat="40.068546796819135" lon="9.085725204644358"><ele>714.75</ele><time>2026-04-27T15:43:19.322Z</time></trkpt><trkpt lat="40.068697247895706" lon="9.085781712142735"><ele>717.5</ele><time>2026-04-27T15:43:20.322Z</time></trkpt><trkpt lat="40.06882582922879" lon="9.085871242279886"><ele>720.25</ele><time>2026-04-27T15:43:21.322Z</time></trkpt><trkpt lat="40.06892754178123" lon="9.085993289639536"><ele>723.0</ele><time>2026-04-27T15:43:22.322Z</time></trkpt><trkpt lat="40.06903454578908" lon="9.086113732953308"><ele>722.5</ele><time>2026-04-27T15:43:23.322Z</time></trkpt><trkpt lat="40.069137239265004" lon="9.086233236249626"><ele>722.0</ele><time>2026-04-27T15:43:24.322Z</time></trkpt><trkpt lat="40.06924630488336" lon="9.0863385140603"><ele>721.5</ele><time>2026-04-27T15:43:25.322Z</time></trkpt><trkpt lat="40.06935550612252" lon="9.086443827621059"><ele>721.0</ele><time>2026-04-27T15:43:26.322Z</time></trkpt><trkpt lat="40.06945612797917" lon="9.08655652586673"><ele>722.5999999999999</ele><time>2026-04-27T15:43:27.323Z</time></trkpt><trkpt lat="40.06955147830824" lon="9.086665463201921"><ele>724.2</ele><time>2026-04-27T15:43:28.323Z</time></trkpt><trkpt lat="40.069644321311294" lon="9.086757156749687"><ele>725.8</ele><time>2026-04-27T15:43:29.323Z</time></trkpt><trkpt lat="40.06973391404435" lon="9.086831618214768"><ele>727.4000000000001</ele><time>2026-04-27T15:43:30.323Z</time></trkpt><trkpt lat="40.069804364854534" lon="9.086908723647044"><ele>729.0</ele><time>2026-04-27T15:43:31.323Z</time></trkpt><trkpt lat="40.06987134507953" lon="9.0869782596306"><ele>728.4000000000001</ele><time>2026-04-27T15:43:32.323Z</time></trkpt><trkpt lat="40.06995417240014" lon="9.087012625763549"><ele>727.8</ele><time>2026-04-27T15:43:33.323Z</time></trkpt><trkpt lat="40.07004846181827" lon="9.087017981090623"><ele>727.2</ele><time>2026-04-27T15:43:34.323Z</time></trkpt><trkpt lat="40.070130555311245" lon="9.087023013450425"><ele>726.5999999999999</ele><time>2026-04-27T15:43:35.323Z</time></trkpt><trkpt lat="40.07022918558931" lon="9.086996844201428"><ele>726.0</ele><time>2026-04-27T15:43:36.323Z</time></trkpt><trkpt lat="40.07032157641588" lon="9.086978478441063"><ele>726.0</ele><time>2026-04-27T15:43:37.323Z</time></trkpt><trkpt lat="40.07040492342785" lon="9.08696953562702"><ele>726.0</ele><time>2026-04-27T15:43:38.323Z</time></trkpt><trkpt lat="40.070479566268894" lon="9.086961082407797"><ele>726.0</ele><time>2026-04-27T15:43:39.323Z</time></trkpt><trkpt lat="40.07057511449106" lon="9.086930824554749"><ele>726.0</ele><time>2026-04-27T15:43:40.323Z</time></trkpt><trkpt lat="40.070660148740764" lon="9.086923642501416"><ele>726.0</ele><time>2026-04-27T15:43:41.323Z</time></trkpt><trkpt lat="40.070768329024695" lon="9.08691068894969"><ele>725.6666666666666</ele><time>2026-04-27T15:43:43.323Z</time></trkpt><trkpt lat="40.070826811771795" lon="9.086944349602584"><ele>725.3333333333334</ele><time>2026-04-27T15:43:49.323Z</time></trkpt><trkpt lat="40.070844970446444" lon="9.087094923648303"><ele>725.0</ele><time>2026-04-27T15:43:51.324Z</time></trkpt><trkpt lat="40.07083327929834" lon="9.087204271506684"><ele>724.6666666666667</ele><time>2026-04-27T15:43:52.324Z</time></trkpt><trkpt lat="40.07084425130614" lon="9.087298850061591"><ele>724.3333333333334</ele><time>2026-04-27T15:43:53.324Z</time></trkpt><trkpt lat="40.070857090533714" lon="9.087384091695972"><ele>724.0</ele><time>2026-04-27T15:43:54.324Z</time></trkpt><trkpt lat="40.07085781064613" lon="9.087472083039357"><ele>724.6666666666667</ele><time>2026-04-27T15:43:55.325Z</time></trkpt><trkpt lat="40.07086200355288" lon="9.08755536801011"><ele>725.3333333333334</ele><time>2026-04-27T15:43:56.325Z</time></trkpt><trkpt lat="40.070865519632676" lon="9.087647667384473"><ele>726.0</ele><time>2026-04-27T15:43:57.325Z</time></trkpt><trkpt lat="40.07088718667301" lon="9.08780864971946"><ele>726.6666666666666</ele><time>2026-04-27T15:43:59.324Z</time></trkpt><trkpt lat="40.07090786921445" lon="9.087896299010225"><ele>727.3333333333333</ele><time>2026-04-27T15:44:00.324Z</time></trkpt><trkpt lat="40.07092921865942" lon="9.08797661085349"><ele>728.0</ele><time>2026-04-27T15:44:01.324Z</time></trkpt><trkpt lat="40.070950178864635" lon="9.088056938173542"><ele>728.0</ele><time>2026-04-27T15:44:02.324Z</time></trkpt><trkpt lat="40.07097123797622" lon="9.088135463087319"><ele>728.0</ele><time>2026-04-27T15:44:03.325Z</time></trkpt><trkpt lat="40.070986567537965" lon="9.088219356136563"><ele>728.0</ele><time>2026-04-27T15:44:04.324Z</time></trkpt><trkpt lat="40.07100532630737" lon="9.08830136341436"><ele>728.0</ele><time>2026-04-27T15:44:05.324Z</time></trkpt><trkpt lat="40.071030559332435" lon="9.088448930313914"><ele>728.0</ele><time>2026-04-27T15:44:07.324Z</time></trkpt><trkpt lat="40.0710195092048" lon="9.088609935831801"><ele>728.0</ele><time>2026-04-27T15:44:09.325Z</time></trkpt><trkpt lat="40.07096950449883" lon="9.088759785058322"><ele>729.0</ele><time>2026-04-27T15:44:11.325Z</time></trkpt><trkpt lat="40.070938903833266" lon="9.088906706121346"><ele>730.0</ele><time>2026-04-27T15:44:13.325Z</time></trkpt><trkpt lat="40.07090819078094" lon="9.089044726709226"><ele>731.0</ele><time>2026-04-27T15:44:15.325Z</time></trkpt><trkpt lat="40.07095301025406" lon="9.089157123430892"><ele>732.0</ele><time>2026-04-27T15:44:17.325Z</time></trkpt><trkpt lat="40.070988056582614" lon="9.089225711147302"><ele>733.0</ele><time>2026-04-27T15:44:21.325Z</time></trkpt><trkpt lat="40.07103101057708" lon="9.089308535681743"><ele>733.7142857142857</ele><time>2026-04-27T15:44:26.325Z</time></trkpt><trkpt lat="40.07107480386746" lon="9.089377842496045"><ele>734.4285714285714</ele><time>2026-04-27T15:44:28.325Z</time></trkpt><trkpt lat="40.07111438851285" lon="9.089466885397888"><ele>735.1428571428571</ele><time>2026-04-27T15:44:32.325Z</time></trkpt><trkpt lat="40.071151226577804" lon="9.089552834992872"><ele>735.8571428571429</ele><time>2026-04-27T15:44:34.325Z</time></trkpt><trkpt lat="40.071179110016395" lon="9.08964137771704"><ele>736.5714285714286</ele><time>2026-04-27T15:44:36.325Z</time></trkpt><trkpt lat="40.07119774743725" lon="9.089737323342542"><ele>737.2857142857142</ele><time>2026-04-27T15:44:38.325Z</time></trkpt><trkpt lat="40.07120238868638" lon="9.089838320579167"><ele>738.0</ele><time>2026-04-27T15:44:40.325Z</time></trkpt><trkpt lat="40.0711953419457" lon="9.089944356962599"><ele>738.6666666666666</ele><time>2026-04-27T15:44:42.325Z</time></trkpt><trkpt lat="40.07118749704417" lon="9.090077770054645"><ele>739.3333333333334</ele><time>2026-04-27T15:44:44.325Z</time></trkpt><trkpt lat="40.071185285728006" lon="9.090197193692308"><ele>740.0</ele><time>2026-04-27T15:44:46.325Z</time></trkpt><trkpt lat="40.071178531193446" lon="9.090305668793146"><ele>740.6666666666667</ele><time>2026-04-27T15:44:48.325Z</time></trkpt><trkpt lat="40.07117854078435" lon="9.090414850795598"><ele>741.3333333333334</ele><time>2026-04-27T15:44:50.325Z</time></trkpt><trkpt lat="40.07117128509929" lon="9.090526390583355"><ele>742.0</ele><time>2026-04-27T15:44:52.325Z</time></trkpt><trkpt lat="40.071166970567866" lon="9.090656953757405"><ele>741.8333333333334</ele><time>2026-04-27T15:44:54.325Z</time></trkpt><trkpt lat="40.07115696395819" lon="9.090782959304127"><ele>741.6666666666667</ele><time>2026-04-27T15:44:56.325Z</time></trkpt><trkpt lat="40.071139510058245" lon="9.09093476663323"><ele>741.5</ele><time>2026-04-27T15:44:58.325Z</time></trkpt><trkpt lat="40.07113451566216" lon="9.091023814323338"><ele>741.3333333333334</ele><time>2026-04-27T15:44:59.325Z</time></trkpt><trkpt lat="40.071125701845" lon="9.091114966154192"><ele>741.1666666666666</ele><time>2026-04-27T15:45:00.325Z</time></trkpt><trkpt lat="40.07111582742631" lon="9.091214789917887"><ele>741.0</ele><time>2026-04-27T15:45:01.325Z</time></trkpt><trkpt lat="40.07110648430897" lon="9.091322839676222"><ele>741.0</ele><time>2026-04-27T15:45:02.325Z</time></trkpt><trkpt lat="40.07109981082026" lon="9.091431537966105"><ele>741.0</ele><time>2026-04-27T15:45:03.325Z</time></trkpt><trkpt lat="40.07109197135772" lon="9.091550066954706"><ele>741.0</ele><time>2026-04-27T15:45:04.325Z</time></trkpt><trkpt lat="40.07107750343642" lon="9.09167943622396"><ele>741.0</ele><time>2026-04-27T15:45:05.325Z</time></trkpt><trkpt lat="40.07105799187803" lon="9.09181432793701"><ele>741.0</ele><time>2026-04-27T15:45:06.325Z</time></trkpt><trkpt lat="40.071035054211016" lon="9.09195520514077"><ele>741.4</ele><time>2026-04-27T15:45:07.325Z</time></trkpt><trkpt lat="40.07100967859119" lon="9.092097581609297"><ele>741.8</ele><time>2026-04-27T15:45:08.325Z</time></trkpt><trkpt lat="40.07098297309421" lon="9.09223616423612"><ele>742.1999999999999</ele><time>2026-04-27T15:45:09.325Z</time></trkpt><trkpt lat="40.070955865093126" lon="9.092368923936608"><ele>742.5999999999999</ele><time>2026-04-27T15:45:10.325Z</time></trkpt><trkpt lat="40.07093536749355" lon="9.09250697830041"><ele>743.0</ele><time>2026-04-27T15:45:11.325Z</time></trkpt><trkpt lat="40.0709198323893" lon="9.092651760503896"><ele>744.25</ele><time>2026-04-27T15:45:12.325Z</time></trkpt><trkpt lat="40.070905784307605" lon="9.092808006528243"><ele>745.5</ele><time>2026-04-27T15:45:13.325Z</time></trkpt><trkpt lat="40.07090211265686" lon="9.09297963486849"><ele>746.75</ele><time>2026-04-27T15:45:14.325Z</time></trkpt><trkpt lat="40.07089221084153" lon="9.093164071703034"><ele>748.0</ele><time>2026-04-27T15:45:15.325Z</time></trkpt><trkpt lat="40.07089371044833" lon="9.093365418281854"><ele>749.6666666666667</ele><time>2026-04-27T15:45:16.325Z</time></trkpt><trkpt lat="40.07090190846545" lon="9.093578205009408"><ele>751.3333333333334</ele><time>2026-04-27T15:45:17.325Z</time></trkpt><trkpt lat="40.07091210001778" lon="9.09379930788101"><ele>753.0</ele><time>2026-04-27T15:45:18.325Z</time></trkpt><trkpt lat="40.07091474756575" lon="9.094028440275258"><ele>753.6666666666666</ele><time>2026-04-27T15:45:19.325Z</time></trkpt><trkpt lat="40.07089537866049" lon="9.09425751790714"><ele>754.3333333333333</ele><time>2026-04-27T15:45:20.325Z</time></trkpt><trkpt lat="40.07085103321944" lon="9.094472223734765"><ele>755.0</ele><time>2026-04-27T15:45:21.326Z</time></trkpt><trkpt lat="40.07079772709708" lon="9.094675920786154"><ele>756.0</ele><time>2026-04-27T15:45:22.326Z</time></trkpt><trkpt lat="40.070755284095604" lon="9.094874904998623"><ele>757.0</ele><time>2026-04-27T15:45:23.326Z</time></trkpt><trkpt lat="40.07074972763047" lon="9.095058750603043"><ele>758.0</ele><time>2026-04-27T15:45:24.326Z</time></trkpt><trkpt lat="40.07079782330636" lon="9.095236353034858"><ele>759.0</ele><time>2026-04-27T15:45:25.326Z</time></trkpt><trkpt lat="40.07089239670628" lon="9.09541864868451"><ele>759.0</ele><time>2026-04-27T15:45:26.326Z</time></trkpt><trkpt lat="40.07101162809208" lon="9.095589785963789"><ele>759.0</ele><time>2026-04-27T15:45:27.326Z</time></trkpt><trkpt lat="40.07114165667016" lon="9.095722270790707"><ele>759.0</ele><time>2026-04-27T15:45:28.326Z</time></trkpt><trkpt lat="40.07129859202965" lon="9.095807946591172"><ele>758.0</ele><time>2026-04-27T15:45:29.326Z</time></trkpt><trkpt lat="40.07146378337868" lon="9.09587673212527"><ele>757.0</ele><time>2026-04-27T15:45:30.326Z</time></trkpt><trkpt lat="40.071640420805664" lon="9.095924817730618"><ele>756.0</ele><time>2026-04-27T15:45:31.326Z</time></trkpt><trkpt lat="40.07182805310946" lon="9.095949444933414"><ele>759.6666666666666</ele><time>2026-04-27T15:45:32.326Z</time></trkpt><trkpt lat="40.07202204071208" lon="9.095964065802452"><ele>763.3333333333333</ele><time>2026-04-27T15:45:33.326Z</time></trkpt><trkpt lat="40.07221504840956" lon="9.09595759958809"><ele>767.0</ele><time>2026-04-27T15:45:34.326Z</time></trkpt><trkpt lat="40.07240705710977" lon="9.095935088856612"><ele>769.3333333333333</ele><time>2026-04-27T15:45:35.326Z</time></trkpt><trkpt lat="40.07258215255156" lon="9.09593643681585"><ele>771.6666666666666</ele><time>2026-04-27T15:45:36.326Z</time></trkpt><trkpt lat="40.0727476908474" lon="9.095962044492163"><ele>774.0</ele><time>2026-04-27T15:45:37.326Z</time></trkpt><trkpt lat="40.07291459914265" lon="9.096017699994434"><ele>774.0</ele><time>2026-04-27T15:45:38.326Z</time></trkpt><trkpt lat="40.07308590622712" lon="9.096102016045226"><ele>774.0</ele><time>2026-04-27T15:45:39.326Z</time></trkpt><trkpt lat="40.07325523629356" lon="9.096218197217171"><ele>774.0</ele><time>2026-04-27T15:45:40.326Z</time></trkpt><trkpt lat="40.07344397401148" lon="9.096325933463744"><ele>776.0</ele><time>2026-04-27T15:45:41.326Z</time></trkpt><trkpt lat="40.07372187969028" lon="9.096256267356779"><ele>778.0</ele><time>2026-04-27T15:45:42.326Z</time></trkpt><trkpt lat="40.07392101683323" lon="9.096355810279015"><ele>779.0</ele><time>2026-04-27T15:45:43.326Z</time></trkpt><trkpt lat="40.07411101668332" lon="9.096444745575285"><ele>780.0</ele><time>2026-04-27T15:45:44.326Z</time></trkpt><trkpt lat="40.07428179219749" lon="9.096539610525904"><ele>781.0</ele><time>2026-04-27T15:45:45.326Z</time></trkpt><trkpt lat="40.074416898919594" lon="9.096668334500077"><ele>781.0</ele><time>2026-04-27T15:45:46.326Z</time></trkpt><trkpt lat="40.07451057653365" lon="9.096850719374658"><ele>781.0</ele><time>2026-04-27T15:45:47.326Z</time></trkpt><trkpt lat="40.074565249084124" lon="9.097062076398077"><ele>781.0</ele><time>2026-04-27T15:45:48.326Z</time></trkpt><trkpt lat="40.07456306983561" lon="9.097291185688263"><ele>782.6666666666666</ele><time>2026-04-27T15:45:49.326Z</time></trkpt><trkpt lat="40.07450216356502" lon="9.0975144048249"><ele>784.3333333333333</ele><time>2026-04-27T15:45:50.326Z</time></trkpt><trkpt lat="40.07440643231003" lon="9.097718900690923"><ele>786.0</ele><time>2026-04-27T15:45:51.326Z</time></trkpt><trkpt lat="40.074267640168834" lon="9.097878232068803"><ele>784.3333333333333</ele><time>2026-04-27T15:45:52.326Z</time></trkpt><trkpt lat="40.07409492987953" lon="9.097973192608803"><ele>782.6666666666666</ele><time>2026-04-27T15:45:53.326Z</time></trkpt><trkpt lat="40.07389528768538" lon="9.097994871993206"><ele>781.0</ele><time>2026-04-27T15:45:54.326Z</time></trkpt><trkpt lat="40.07369045484009" lon="9.097970481791615"><ele>781.0</ele><time>2026-04-27T15:45:55.326Z</time></trkpt><trkpt lat="40.07348216887396" lon="9.097959283871857"><ele>781.0</ele><time>2026-04-27T15:45:56.326Z</time></trkpt><trkpt lat="40.07328691459198" lon="9.097990082074793"><ele>781.0</ele><time>2026-04-27T15:45:57.328Z</time></trkpt><trkpt lat="40.07309213495871" lon="9.09807378203577"><ele>779.3333333333333</ele><time>2026-04-27T15:45:58.327Z</time></trkpt><trkpt lat="40.07291659343775" lon="9.098197059726562"><ele>777.6666666666667</ele><time>2026-04-27T15:45:59.327Z</time></trkpt><trkpt lat="40.07277761350408" lon="9.098338089813312"><ele>776.0</ele><time>2026-04-27T15:46:00.328Z</time></trkpt><trkpt lat="40.07269215222071" lon="9.098525129845337"><ele>780.0</ele><time>2026-04-27T15:46:01.328Z</time></trkpt><trkpt lat="40.07265720921697" lon="9.098756615953382"><ele>784.0</ele><time>2026-04-27T15:46:02.328Z</time></trkpt><trkpt lat="40.07265133791357" lon="9.099009254232968"><ele>788.0</ele><time>2026-04-27T15:46:03.328Z</time></trkpt><trkpt lat="40.07266269562568" lon="9.099264118116979"><ele>791.0</ele><time>2026-04-27T15:46:04.327Z</time></trkpt><trkpt lat="40.07275614224291" lon="9.099553844785685"><ele>794.0</ele><time>2026-04-27T15:46:05.327Z</time></trkpt><trkpt lat="40.07286522423244" lon="9.099777531980921"><ele>797.0</ele><time>2026-04-27T15:46:06.328Z</time></trkpt><trkpt lat="40.073016503549134" lon="9.09996956781148"><ele>798.3333333333334</ele><time>2026-04-27T15:46:07.327Z</time></trkpt><trkpt lat="40.073212944770816" lon="9.100089071352063"><ele>799.6666666666667</ele><time>2026-04-27T15:46:08.327Z</time></trkpt><trkpt lat="40.073430667884466" lon="9.100179931898614"><ele>801.0</ele><time>2026-04-27T15:46:09.327Z</time></trkpt><trkpt lat="40.07365363648393" lon="9.10026011539502"><ele>801.0</ele><time>2026-04-27T15:46:10.327Z</time></trkpt><trkpt lat="40.073860798276385" lon="9.100372518463791"><ele>801.0</ele><time>2026-04-27T15:46:11.327Z</time></trkpt><trkpt lat="40.07406230450071" lon="9.100494804178636"><ele>801.0</ele><time>2026-04-27T15:46:12.327Z</time></trkpt><trkpt lat="40.07424923148" lon="9.100632693981389"><ele>798.3333333333333</ele><time>2026-04-27T15:46:13.327Z</time></trkpt><trkpt lat="40.07442413860803" lon="9.10080152911622"><ele>795.6666666666666</ele><time>2026-04-27T15:46:14.327Z</time></trkpt><trkpt lat="40.07459021933463" lon="9.100998285826597"><ele>793.0</ele><time>2026-04-27T15:46:15.327Z</time></trkpt><trkpt lat="40.074753782608845" lon="9.101209877733147"><ele>793.0</ele><time>2026-04-27T15:46:16.327Z</time></trkpt><trkpt lat="40.074920810315966" lon="9.101418225081835"><ele>793.0</ele><time>2026-04-27T15:46:17.327Z</time></trkpt><trkpt lat="40.0750883176027" lon="9.10161484457032"><ele>793.0</ele><time>2026-04-27T15:46:18.327Z</time></trkpt><trkpt lat="40.0752514865246" lon="9.101814203032554"><ele>793.0</ele><time>2026-04-27T15:46:19.327Z</time></trkpt><trkpt lat="40.075410020905196" lon="9.101988358609036"><ele>793.0</ele><time>2026-04-27T15:46:20.327Z</time></trkpt><trkpt lat="40.07553109509762" lon="9.102159110745257"><ele>793.0</ele><time>2026-04-27T15:46:21.328Z</time></trkpt><trkpt lat="40.075607427376326" lon="9.102344938731294"><ele>793.0</ele><time>2026-04-27T15:46:22.328Z</time></trkpt><trkpt lat="40.07559954925789" lon="9.102570789910253"><ele>793.0</ele><time>2026-04-27T15:46:23.328Z</time></trkpt><trkpt lat="40.07554889496927" lon="9.102807991336494"><ele>792.3333333333333</ele><time>2026-04-27T15:46:24.328Z</time></trkpt><trkpt lat="40.07544910483719" lon="9.103022342007405"><ele>791.6666666666667</ele><time>2026-04-27T15:46:25.328Z</time></trkpt><trkpt lat="40.075317828852725" lon="9.103177425072674"><ele>791.0</ele><time>2026-04-27T15:46:26.328Z</time></trkpt><trkpt lat="40.0751702813755" lon="9.10328775543552"><ele>791.0</ele><time>2026-04-27T15:46:27.328Z</time></trkpt><trkpt lat="40.07506497846799" lon="9.103401773641314"><ele>791.0</ele><time>2026-04-27T15:46:28.328Z</time></trkpt><trkpt lat="40.0750322309518" lon="9.103564953941625"><ele>791.0</ele><time>2026-04-27T15:46:29.328Z</time></trkpt><trkpt lat="40.07508214805928" lon="9.103765452878818"><ele>791.0</ele><time>2026-04-27T15:46:30.328Z</time></trkpt><trkpt lat="40.07519321957282" lon="9.103935268962983"><ele>791.0</ele><time>2026-04-27T15:46:31.328Z</time></trkpt><trkpt lat="40.075337880278994" lon="9.104018319644167"><ele>791.0</ele><time>2026-04-27T15:46:32.328Z</time></trkpt><trkpt lat="40.07550316524106" lon="9.104000689004685"><ele>791.0</ele><time>2026-04-27T15:46:33.328Z</time></trkpt><trkpt lat="40.07568185452433" lon="9.103917679521286"><ele>794.6666666666667</ele><time>2026-04-27T15:46:34.328Z</time></trkpt><trkpt lat="40.07586510072786" lon="9.103855345272443"><ele>798.3333333333333</ele><time>2026-04-27T15:46:35.328Z</time></trkpt><trkpt lat="40.07604643078573" lon="9.103839575917682"><ele>802.0</ele><time>2026-04-27T15:46:36.328Z</time></trkpt><trkpt lat="40.07623107076877" lon="9.103842884824523"><ele>802.0</ele><time>2026-04-27T15:46:37.328Z</time></trkpt><trkpt lat="40.076412234034855" lon="9.103864912722315"><ele>802.0</ele><time>2026-04-27T15:46:38.328Z</time></trkpt><trkpt lat="40.076604917518885" lon="9.103904899824448"><ele>802.0</ele><time>2026-04-27T15:46:39.328Z</time></trkpt><trkpt lat="40.07679640763573" lon="9.103948060394952"><ele>802.6666666666666</ele><time>2026-04-27T15:46:40.328Z</time></trkpt><trkpt lat="40.07699367111176" lon="9.103980197402432"><ele>803.3333333333333</ele><time>2026-04-27T15:46:41.328Z</time></trkpt><trkpt lat="40.07718754764873" lon="9.104019542400188"><ele>804.0</ele><time>2026-04-27T15:46:42.328Z</time></trkpt><trkpt lat="40.07736428325916" lon="9.104090835940248"><ele>806.6666666666667</ele><time>2026-04-27T15:46:43.328Z</time></trkpt><trkpt lat="40.07751725686" lon="9.10422795376651"><ele>809.3333333333334</ele><time>2026-04-27T15:46:44.328Z</time></trkpt><trkpt lat="40.077616100768736" lon="9.104435591946311"><ele>812.0</ele><time>2026-04-27T15:46:45.328Z</time></trkpt><trkpt lat="40.07767057353462" lon="9.1046838988424"><ele>811.0</ele><time>2026-04-27T15:46:46.328Z</time></trkpt><trkpt lat="40.077692889187155" lon="9.10493385437007"><ele>810.0</ele><time>2026-04-27T15:46:47.328Z</time></trkpt><trkpt lat="40.07772641253292" lon="9.105171267982767"><ele>809.0</ele><time>2026-04-27T15:46:48.328Z</time></trkpt><trkpt lat="40.07781747358615" lon="9.105388540596548"><ele>809.0</ele><time>2026-04-27T15:46:49.328Z</time></trkpt><trkpt lat="40.077966686208995" lon="9.105578927952545"><ele>809.0</ele><time>2026-04-27T15:46:50.328Z</time></trkpt><trkpt lat="40.07814316148541" lon="9.105695742754808"><ele>809.0</ele><time>2026-04-27T15:46:51.328Z</time></trkpt><trkpt lat="40.07834111093916" lon="9.1057113503746"><ele>813.6666666666667</ele><time>2026-04-27T15:46:52.328Z</time></trkpt><trkpt lat="40.07854664406091" lon="9.105659923691263"><ele>818.3333333333333</ele><time>2026-04-27T15:46:53.328Z</time></trkpt><trkpt lat="40.07873901765041" lon="9.105578331892923"><ele>823.0</ele><time>2026-04-27T15:46:54.328Z</time></trkpt><trkpt lat="40.07894542119277" lon="9.105523615304675"><ele>825.6666666666666</ele><time>2026-04-27T15:46:55.328Z</time></trkpt><trkpt lat="40.07915866638576" lon="9.105539331781733"><ele>828.3333333333333</ele><time>2026-04-27T15:46:56.328Z</time></trkpt><trkpt lat="40.079371490182254" lon="9.105582258497652"><ele>831.0</ele><time>2026-04-27T15:46:57.328Z</time></trkpt><trkpt lat="40.079590504481125" lon="9.10562111490039"><ele>831.0</ele><time>2026-04-27T15:46:58.328Z</time></trkpt><trkpt lat="40.07980559240623" lon="9.105656778587162"><ele>831.0</ele><time>2026-04-27T15:46:59.328Z</time></trkpt><trkpt lat="40.08002270328606" lon="9.105686989961585"><ele>831.0</ele><time>2026-04-27T15:47:00.328Z</time></trkpt><trkpt lat="40.08024243667966" lon="9.10572234848246"><ele>830.0</ele><time>2026-04-27T15:47:01.328Z</time></trkpt><trkpt lat="40.080457691345856" lon="9.105777674869726"><ele>829.0</ele><time>2026-04-27T15:47:02.328Z</time></trkpt><trkpt lat="40.080666810815806" lon="9.105871306809213"><ele>828.0</ele><time>2026-04-27T15:47:03.328Z</time></trkpt><trkpt lat="40.08087200616628" lon="9.105967743747788"><ele>828.0</ele><time>2026-04-27T15:47:04.328Z</time></trkpt><trkpt lat="40.08108422105466" lon="9.10605966940651"><ele>828.0</ele><time>2026-04-27T15:47:05.328Z</time></trkpt><trkpt lat="40.081292017724074" lon="9.106147445269173"><ele>828.0</ele><time>2026-04-27T15:47:06.328Z</time></trkpt><trkpt lat="40.081497440625796" lon="9.10623414052417"><ele>831.0</ele><time>2026-04-27T15:47:07.328Z</time></trkpt><trkpt lat="40.081700182855194" lon="9.106322803205554"><ele>834.0</ele><time>2026-04-27T15:47:08.328Z</time></trkpt><trkpt lat="40.08191360454162" lon="9.106406378586444"><ele>837.0</ele><time>2026-04-27T15:47:09.328Z</time></trkpt><trkpt lat="40.08212275937633" lon="9.106500755664756"><ele>833.6666666666667</ele><time>2026-04-27T15:47:10.328Z</time></trkpt><trkpt lat="40.08232901029856" lon="9.106586475860693"><ele>830.3333333333334</ele><time>2026-04-27T15:47:11.328Z</time></trkpt><trkpt lat="40.08253960476018" lon="9.106693026295238"><ele>827.0</ele><time>2026-04-27T15:47:12.328Z</time></trkpt><trkpt lat="40.082751400583845" lon="9.106797748336406"><ele>827.0</ele><time>2026-04-27T15:47:13.328Z</time></trkpt><trkpt lat="40.08295542038044" lon="9.106925247786299"><ele>827.0</ele><time>2026-04-27T15:47:14.328Z</time></trkpt><trkpt lat="40.083157802607026" lon="9.107044010257992"><ele>827.0</ele><time>2026-04-27T15:47:15.328Z</time></trkpt><trkpt lat="40.083354811629796" lon="9.107163494574522"><ele>827.6666666666667</ele><time>2026-04-27T15:47:16.328Z</time></trkpt><trkpt lat="40.083521995708296" lon="9.10729605651904"><ele>828.3333333333333</ele><time>2026-04-27T15:47:17.328Z</time></trkpt><trkpt lat="40.083646390239615" lon="9.10748998379629"><ele>829.0</ele><time>2026-04-27T15:47:18.328Z</time></trkpt><trkpt lat="40.08374780607031" lon="9.107724911156122"><ele>829.0</ele><time>2026-04-27T15:47:19.328Z</time></trkpt><trkpt lat="40.083806048600785" lon="9.107983222749036"><ele>829.0</ele><time>2026-04-27T15:47:20.328Z</time></trkpt><trkpt lat="40.08381902729756" lon="9.108255329694387"><ele>829.0</ele><time>2026-04-27T15:47:21.328Z</time></trkpt><trkpt lat="40.083779641941675" lon="9.108529531367754"><ele>829.0</ele><time>2026-04-27T15:47:22.328Z</time></trkpt><trkpt lat="40.0836925112857" lon="9.108790304987448"><ele>829.0</ele><time>2026-04-27T15:47:23.328Z</time></trkpt><trkpt lat="40.0835664497514" lon="9.109023392764156"><ele>829.0</ele><time>2026-04-27T15:47:24.328Z</time></trkpt><trkpt lat="40.08340497670499" lon="9.109208979853696"><ele>831.0</ele><time>2026-04-27T15:47:25.328Z</time></trkpt><trkpt lat="40.08322686996138" lon="9.10937574921565"><ele>833.0</ele><time>2026-04-27T15:47:26.328Z</time></trkpt><trkpt lat="40.0830627031476" lon="9.109563929124828"><ele>835.0</ele><time>2026-04-27T15:47:27.328Z</time></trkpt><trkpt lat="40.08290781002311" lon="9.109748964314251"><ele>837.3333333333333</ele><time>2026-04-27T15:47:28.328Z</time></trkpt><trkpt lat="40.082792117742436" lon="9.10994805061784"><ele>839.6666666666667</ele><time>2026-04-27T15:47:29.328Z</time></trkpt><trkpt lat="40.08270676522887" lon="9.110155145237014"><ele>842.0</ele><time>2026-04-27T15:47:30.328Z</time></trkpt><trkpt lat="40.08270365135115" lon="9.110394747642673"><ele>842.0</ele><time>2026-04-27T15:47:31.328Z</time></trkpt><trkpt lat="40.0827341995169" lon="9.110601184765518"><ele>842.0</ele><time>2026-04-27T15:47:32.328Z</time></trkpt><trkpt lat="40.08278971912539" lon="9.11077822939687"><ele>842.0</ele><time>2026-04-27T15:47:33.328Z</time></trkpt><trkpt lat="40.082856064599746" lon="9.110924449213277"><ele>842.0</ele><time>2026-04-27T15:47:34.329Z</time></trkpt><trkpt lat="40.082919351161195" lon="9.11103170697174"><ele>841.8</ele><time>2026-04-27T15:47:35.329Z</time></trkpt><trkpt lat="40.08299508862576" lon="9.111118767182127"><ele>841.6</ele><time>2026-04-27T15:47:36.329Z</time></trkpt><trkpt lat="40.0830864931134" lon="9.111206460211022"><ele>841.4</ele><time>2026-04-27T15:47:37.329Z</time></trkpt><trkpt lat="40.0831911677817" lon="9.111271760129256"><ele>841.1999999999999</ele><time>2026-04-27T15:47:38.329Z</time></trkpt><trkpt lat="40.083301825041886" lon="9.111329487510108"><ele>841.0</ele><time>2026-04-27T15:47:39.329Z</time></trkpt><trkpt lat="40.08341825326274" lon="9.111378675836166"><ele>842.5</ele><time>2026-04-27T15:47:40.329Z</time></trkpt><trkpt lat="40.08353880210835" lon="9.111428433824724"><ele>844.0</ele><time>2026-04-27T15:47:41.329Z</time></trkpt><trkpt lat="40.08366358862662" lon="9.111485209169873"><ele>845.5</ele><time>2026-04-27T15:47:42.329Z</time></trkpt><trkpt lat="40.08378975715205" lon="9.11154340604584"><ele>847.0</ele><time>2026-04-27T15:47:43.329Z</time></trkpt><trkpt lat="40.08391594431085" lon="9.111607147345579"><ele>847.0</ele><time>2026-04-27T15:47:44.329Z</time></trkpt><trkpt lat="40.08403889150148" lon="9.111674226833221"><ele>847.0</ele><time>2026-04-27T15:47:45.329Z</time></trkpt><trkpt lat="40.084162184655966" lon="9.1117486642863"><ele>847.0</ele><time>2026-04-27T15:47:46.329Z</time></trkpt><trkpt lat="40.084279339684606" lon="9.111837985918891"><ele>847.0</ele><time>2026-04-27T15:47:47.329Z</time></trkpt><trkpt lat="40.084387376049285" lon="9.111951836733121"><ele>846.5</ele><time>2026-04-27T15:47:48.329Z</time></trkpt><trkpt lat="40.084494269814" lon="9.112073351488059"><ele>846.0</ele><time>2026-04-27T15:47:49.329Z</time></trkpt><trkpt lat="40.0846068160773" lon="9.112185311214551"><ele>845.5</ele><time>2026-04-27T15:47:50.329Z</time></trkpt><trkpt lat="40.084745257951546" lon="9.112268867456693"><ele>845.0</ele><time>2026-04-27T15:47:51.329Z</time></trkpt><trkpt lat="40.084923285372525" lon="9.112341327416228"><ele>844.0</ele><time>2026-04-27T15:47:52.329Z</time></trkpt><trkpt lat="40.085119569804384" lon="9.112405512667838"><ele>843.0</ele><time>2026-04-27T15:47:53.329Z</time></trkpt><trkpt lat="40.08531805244089" lon="9.112474688807437"><ele>842.0</ele><time>2026-04-27T15:47:54.329Z</time></trkpt><trkpt lat="40.085502830896175" lon="9.112537966766583"><ele>842.0</ele><time>2026-04-27T15:47:55.329Z</time></trkpt><trkpt lat="40.085667966465756" lon="9.112623982319155"><ele>842.0</ele><time>2026-04-27T15:47:56.329Z</time></trkpt><trkpt lat="40.085812859833176" lon="9.112747676889526"><ele>842.0</ele><time>2026-04-27T15:47:57.329Z</time></trkpt><trkpt lat="40.085938279149076" lon="9.112902222041866"><ele>842.0</ele><time>2026-04-27T15:47:58.329Z</time></trkpt><trkpt lat="40.08605269039386" lon="9.113058246309976"><ele>842.0</ele><time>2026-04-27T15:47:59.329Z</time></trkpt><trkpt lat="40.08616665284667" lon="9.113197674953586"><ele>842.0</ele><time>2026-04-27T15:48:00.329Z</time></trkpt><trkpt lat="40.08629086740421" lon="9.113301218917703"><ele>842.0</ele><time>2026-04-27T15:48:01.329Z</time></trkpt><trkpt lat="40.08645068041229" lon="9.11334919182278"><ele>842.0</ele><time>2026-04-27T15:48:02.329Z</time></trkpt><trkpt lat="40.08664942773102" lon="9.113355359326889"><ele>842.0</ele><time>2026-04-27T15:48:03.331Z</time></trkpt><trkpt lat="40.08686001997367" lon="9.11337246954541"><ele>837.3333333333334</ele><time>2026-04-27T15:48:04.331Z</time></trkpt><trkpt lat="40.08706789177423" lon="9.113418822010612"><ele>832.6666666666667</ele><time>2026-04-27T15:48:05.331Z</time></trkpt><trkpt lat="40.08728948653276" lon="9.11348141363434"><ele>828.0</ele><time>2026-04-27T15:48:06.331Z</time></trkpt><trkpt lat="40.08751433296719" lon="9.113534927571164"><ele>823.5</ele><time>2026-04-27T15:48:07.331Z</time></trkpt><trkpt lat="40.0877414587506" lon="9.113571383185024"><ele>819.0</ele><time>2026-04-27T15:48:08.331Z</time></trkpt><trkpt lat="40.08796588427887" lon="9.113608951349748"><ele>819.0</ele><time>2026-04-27T15:48:09.331Z</time></trkpt><trkpt lat="40.08818142074965" lon="9.113636774938866"><ele>819.0</ele><time>2026-04-27T15:48:10.331Z</time></trkpt><trkpt lat="40.08838696665293" lon="9.113657483230684"><ele>819.0</ele><time>2026-04-27T15:48:11.331Z</time></trkpt><trkpt lat="40.08858214080407" lon="9.113665807680725"><ele>815.6666666666667</ele><time>2026-04-27T15:48:12.331Z</time></trkpt><trkpt lat="40.088766804142736" lon="9.113659014728254"><ele>812.3333333333334</ele><time>2026-04-27T15:48:13.331Z</time></trkpt><trkpt lat="40.08893595576566" lon="9.113674658175814"><ele>809.0</ele><time>2026-04-27T15:48:14.331Z</time></trkpt><trkpt lat="40.08907912457774" lon="9.113783710239264"><ele>811.3333333333334</ele><time>2026-04-27T15:48:15.331Z</time></trkpt><trkpt lat="40.08922199073293" lon="9.113924578058084"><ele>813.6666666666667</ele><time>2026-04-27T15:48:16.331Z</time></trkpt><trkpt lat="40.089352809076196" lon="9.114046811189118"><ele>816.0</ele><time>2026-04-27T15:48:17.331Z</time></trkpt><trkpt lat="40.08945922981613" lon="9.114257272243735"><ele>816.0</ele><time>2026-04-27T15:48:18.331Z</time></trkpt><trkpt lat="40.08959018913986" lon="9.114431182236183"><ele>816.0</ele><time>2026-04-27T15:48:19.331Z</time></trkpt><trkpt lat="40.08975613973726" lon="9.11456236313039"><ele>816.0</ele><time>2026-04-27T15:48:20.331Z</time></trkpt><trkpt lat="40.089927666616525" lon="9.114687596216807"><ele>812.6666666666667</ele><time>2026-04-27T15:48:21.331Z</time></trkpt><trkpt lat="40.090084851245145" lon="9.114824541574183"><ele>809.3333333333334</ele><time>2026-04-27T15:48:22.331Z</time></trkpt><trkpt lat="40.0902042138679" lon="9.115013157022553"><ele>806.0</ele><time>2026-04-27T15:48:23.331Z</time></trkpt><trkpt lat="40.09029998178513" lon="9.11522782614489"><ele>806.0</ele><time>2026-04-27T15:48:24.331Z</time></trkpt><trkpt lat="40.09035860817005" lon="9.11546962649318"><ele>806.0</ele><time>2026-04-27T15:48:25.331Z</time></trkpt><trkpt lat="40.09038468849521" lon="9.115730355754696"><ele>806.0</ele><time>2026-04-27T15:48:26.331Z</time></trkpt><trkpt lat="40.09043386707063" lon="9.115957560983746"><ele>807.0</ele><time>2026-04-27T15:48:27.331Z</time></trkpt><trkpt lat="40.09053079732437" lon="9.116149453782047"><ele>808.0</ele><time>2026-04-27T15:48:28.331Z</time></trkpt><trkpt lat="40.09067428891836" lon="9.116297006936287"><ele>809.0</ele><time>2026-04-27T15:48:29.331Z</time></trkpt><trkpt lat="40.09083975808479" lon="9.116390893762933"><ele>804.0</ele><time>2026-04-27T15:48:30.331Z</time></trkpt><trkpt lat="40.091035778415005" lon="9.116408179031222"><ele>799.0</ele><time>2026-04-27T15:48:31.331Z</time></trkpt><trkpt lat="40.09123534581257" lon="9.116367750744073"><ele>794.0</ele><time>2026-04-27T15:48:32.331Z</time></trkpt><trkpt lat="40.091429079695544" lon="9.116313574418212"><ele>790.6666666666667</ele><time>2026-04-27T15:48:33.331Z</time></trkpt><trkpt lat="40.09163475149266" lon="9.116295105743838"><ele>787.3333333333333</ele><time>2026-04-27T15:48:34.331Z</time></trkpt><trkpt lat="40.09183751232874" lon="9.116329317778154"><ele>784.0</ele><time>2026-04-27T15:48:35.331Z</time></trkpt><trkpt lat="40.092033640561155" lon="9.116400297310138"><ele>784.0</ele><time>2026-04-27T15:48:36.331Z</time></trkpt><trkpt lat="40.092213196971166" lon="9.116535060667065"><ele>784.0</ele><time>2026-04-27T15:48:37.331Z</time></trkpt><trkpt lat="40.09236976922234" lon="9.11670791045939"><ele>784.0</ele><time>2026-04-27T15:48:38.331Z</time></trkpt><trkpt lat="40.092490224178626" lon="9.116944828535914"><ele>783.6666666666666</ele><time>2026-04-27T15:48:39.331Z</time></trkpt><trkpt lat="40.09258821957006" lon="9.117173304565394"><ele>783.3333333333333</ele><time>2026-04-27T15:48:40.331Z</time></trkpt><trkpt lat="40.09267588721922" lon="9.117400795224347"><ele>783.0</ele><time>2026-04-27T15:48:41.331Z</time></trkpt><trkpt lat="40.092792253289886" lon="9.117605890772145"><ele>783.0</ele><time>2026-04-27T15:48:42.331Z</time></trkpt><trkpt lat="40.09294011496706" lon="9.117760120307448"><ele>783.0</ele><time>2026-04-27T15:48:43.331Z</time></trkpt><trkpt lat="40.09310639147213" lon="9.117876513930755"><ele>783.0</ele><time>2026-04-27T15:48:44.331Z</time></trkpt><trkpt lat="40.09325691478347" lon="9.117979130857563"><ele>780.75</ele><time>2026-04-27T15:48:45.331Z</time></trkpt><trkpt lat="40.09339585680641" lon="9.118078605898138"><ele>778.5</ele><time>2026-04-27T15:48:46.331Z</time></trkpt><trkpt lat="40.093497199440385" lon="9.11820495983427"><ele>776.25</ele><time>2026-04-27T15:48:47.331Z</time></trkpt><trkpt lat="40.093551815708416" lon="9.118366933414537"><ele>774.0</ele><time>2026-04-27T15:48:48.331Z</time></trkpt><trkpt lat="40.09355567598181" lon="9.118540656902564"><ele>774.0</ele><time>2026-04-27T15:48:49.331Z</time></trkpt><trkpt lat="40.093543711237956" lon="9.118726804167734"><ele>774.0</ele><time>2026-04-27T15:48:50.331Z</time></trkpt><trkpt lat="40.09351888683601" lon="9.118898305836154"><ele>774.0</ele><time>2026-04-27T15:48:51.331Z</time></trkpt><trkpt lat="40.09348341009186" lon="9.119066336749524"><ele>774.0</ele><time>2026-04-27T15:48:52.331Z</time></trkpt><trkpt lat="40.09348804878937" lon="9.119213785661298"><ele>775.25</ele><time>2026-04-27T15:48:53.331Z</time></trkpt><trkpt lat="40.093528272329735" lon="9.119338921407126"><ele>776.5</ele><time>2026-04-27T15:48:54.331Z</time></trkpt><trkpt lat="40.093611425014075" lon="9.11943304313315"><ele>777.75</ele><time>2026-04-27T15:48:55.331Z</time></trkpt><trkpt lat="40.09373102537435" lon="9.119465261555613"><ele>779.0</ele><time>2026-04-27T15:48:56.331Z</time></trkpt><trkpt lat="40.093843279188086" lon="9.119425956461983"><ele>779.0</ele><time>2026-04-27T15:48:57.331Z</time></trkpt><trkpt lat="40.09393444257405" lon="9.119338559263975"><ele>779.0</ele><time>2026-04-27T15:48:58.331Z</time></trkpt><trkpt lat="40.0939784628993" lon="9.119205782263828"><ele>779.0</ele><time>2026-04-27T15:48:59.331Z</time></trkpt><trkpt lat="40.093983171995774" lon="9.11905425889408"><ele>779.0</ele><time>2026-04-27T15:49:00.331Z</time></trkpt><trkpt lat="40.09397624429696" lon="9.1189095338792"><ele>778.0</ele><time>2026-04-27T15:49:01.331Z</time></trkpt><trkpt lat="40.09398962212337" lon="9.118771865970439"><ele>777.0</ele><time>2026-04-27T15:49:02.331Z</time></trkpt><trkpt lat="40.094015625780415" lon="9.118636331883733"><ele>776.0</ele><time>2026-04-27T15:49:03.331Z</time></trkpt><trkpt lat="40.09403833856292" lon="9.118504804453696"><ele>775.0</ele><time>2026-04-27T15:49:04.332Z</time></trkpt><trkpt lat="40.09405983660088" lon="9.118373458771494"><ele>774.0</ele><time>2026-04-27T15:49:05.332Z</time></trkpt><trkpt lat="40.094084518115885" lon="9.118242004197898"><ele>770.2</ele><time>2026-04-27T15:49:06.332Z</time></trkpt><trkpt lat="40.09411145370024" lon="9.118109588212693"><ele>766.4000000000001</ele><time>2026-04-27T15:49:07.332Z</time></trkpt><trkpt lat="40.09413019560643" lon="9.117975648717623"><ele>762.6</ele><time>2026-04-27T15:49:08.332Z</time></trkpt><trkpt lat="40.09413898573812" lon="9.117840303311896"><ele>758.8</ele><time>2026-04-27T15:49:09.332Z</time></trkpt><trkpt lat="40.09413253042323" lon="9.117705219881607"><ele>755.0</ele><time>2026-04-27T15:49:10.332Z</time></trkpt><trkpt lat="40.09410736637858" lon="9.117585602329306"><ele>755.4</ele><time>2026-04-27T15:49:11.332Z</time></trkpt><trkpt lat="40.09406032150378" lon="9.117485540080553"><ele>755.8</ele><time>2026-04-27T15:49:12.332Z</time></trkpt><trkpt lat="40.09399804026304" lon="9.117396895115842"><ele>756.2</ele><time>2026-04-27T15:49:13.332Z</time></trkpt><trkpt lat="40.093927608439664" lon="9.117323697410956"><ele>756.6</ele><time>2026-04-27T15:49:14.332Z</time></trkpt><trkpt lat="40.09384646157665" lon="9.117260824931888"><ele>757.0</ele><time>2026-04-27T15:49:15.332Z</time></trkpt><trkpt lat="40.093768336581235" lon="9.117211474258179"><ele>757.0</ele><time>2026-04-27T15:49:16.332Z</time></trkpt><trkpt lat="40.093696302382796" lon="9.117152156543579"><ele>757.0</ele><time>2026-04-27T15:49:17.332Z</time></trkpt><trkpt lat="40.093630075033" lon="9.117091527446426"><ele>757.0</ele><time>2026-04-27T15:49:18.332Z</time></trkpt><trkpt lat="40.09356814049079" lon="9.117033149549385"><ele>757.0</ele><time>2026-04-27T15:49:19.332Z</time></trkpt><trkpt lat="40.093509662321274" lon="9.116977147167324"><ele>757.0</ele><time>2026-04-27T15:49:20.332Z</time></trkpt><trkpt lat="40.093451148986645" lon="9.116918104279618"><ele>757.0</ele><time>2026-04-27T15:49:21.332Z</time></trkpt><trkpt lat="40.0933972632538" lon="9.11685303554723"><ele>757.0</ele><time>2026-04-27T15:49:22.332Z</time></trkpt><trkpt lat="40.09335271378061" lon="9.116784297293812"><ele>757.0</ele><time>2026-04-27T15:49:23.332Z</time></trkpt><trkpt lat="40.09331588305526" lon="9.116714847281278"><ele>757.0</ele><time>2026-04-27T15:49:24.332Z</time></trkpt><trkpt lat="40.093245500165374" lon="9.11658805877963"><ele>757.0</ele><time>2026-04-27T15:49:26.332Z</time></trkpt><trkpt lat="40.093196190041034" lon="9.1164473251118"><ele>757.0</ele><time>2026-04-27T15:49:28.332Z</time></trkpt><trkpt lat="40.09318322225094" lon="9.116282127911832"><ele>756.1428571428572</ele><time>2026-04-27T15:49:30.332Z</time></trkpt><trkpt lat="40.09319277406895" lon="9.116197749200408"><ele>755.2857142857142</ele><time>2026-04-27T15:49:31.332Z</time></trkpt><trkpt lat="40.09320691047334" lon="9.11611488976643"><ele>754.4285714285714</ele><time>2026-04-27T15:49:32.332Z</time></trkpt><trkpt lat="40.09322309810329" lon="9.116033314410243"><ele>753.5714285714287</ele><time>2026-04-27T15:49:33.332Z</time></trkpt><trkpt lat="40.09324362079035" lon="9.115943774380218"><ele>752.7142857142858</ele><time>2026-04-27T15:49:34.332Z</time></trkpt><trkpt lat="40.09327365662293" lon="9.115845167019286"><ele>751.8571428571429</ele><time>2026-04-27T15:49:35.332Z</time></trkpt><trkpt lat="40.093306672249994" lon="9.115739360421557"><ele>751.0</ele><time>2026-04-27T15:49:36.332Z</time></trkpt><trkpt lat="40.09333649103168" lon="9.115627219779594"><ele>751.0</ele><time>2026-04-27T15:49:37.332Z</time></trkpt><trkpt lat="40.09336908777653" lon="9.115500924569703"><ele>751.0</ele><time>2026-04-27T15:49:38.332Z</time></trkpt><trkpt lat="40.093397339588236" lon="9.115370344684539"><ele>751.0</ele><time>2026-04-27T15:49:39.332Z</time></trkpt><trkpt lat="40.09343196023987" lon="9.115241832353231"><ele>751.0</ele><time>2026-04-27T15:49:40.332Z</time></trkpt><trkpt lat="40.09346738230413" lon="9.115113315539858"><ele>751.0</ele><time>2026-04-27T15:49:41.332Z</time></trkpt><trkpt lat="40.093502651293065" lon="9.114986970006383"><ele>749.4</ele><time>2026-04-27T15:49:42.332Z</time></trkpt><trkpt lat="40.09355072305455" lon="9.114864029268011"><ele>747.8</ele><time>2026-04-27T15:49:43.332Z</time></trkpt><trkpt lat="40.09363447086016" lon="9.114790709888048"><ele>746.1999999999999</ele><time>2026-04-27T15:49:44.332Z</time></trkpt><trkpt lat="40.09373607750876" lon="9.11475948297255"><ele>744.5999999999999</ele><time>2026-04-27T15:49:45.332Z</time></trkpt><trkpt lat="40.09384656468686" lon="9.11476614285532"><ele>743.0</ele><time>2026-04-27T15:49:46.332Z</time></trkpt><trkpt lat="40.093939192817444" lon="9.11482952642331"><ele>745.0</ele><time>2026-04-27T15:49:47.332Z</time></trkpt><trkpt lat="40.09401595478704" lon="9.114934186480324"><ele>747.0</ele><time>2026-04-27T15:49:48.332Z</time></trkpt><trkpt lat="40.0940471885889" lon="9.115056235866545"><ele>749.0</ele><time>2026-04-27T15:49:49.332Z</time></trkpt><trkpt lat="40.093996875491946" lon="9.115197615901335"><ele>751.0</ele><time>2026-04-27T15:49:50.332Z</time></trkpt><trkpt lat="40.09391808040798" lon="9.11531959172567"><ele>751.0</ele><time>2026-04-27T15:49:51.332Z</time></trkpt><trkpt lat="40.093853179904265" lon="9.115433374410431"><ele>751.0</ele><time>2026-04-27T15:49:52.332Z</time></trkpt><trkpt lat="40.09379934244393" lon="9.11555778574723"><ele>751.0</ele><time>2026-04-27T15:49:53.332Z</time></trkpt><trkpt lat="40.093768966675135" lon="9.115690196162001"><ele>751.0</ele><time>2026-04-27T15:49:54.332Z</time></trkpt><trkpt lat="40.09376506327788" lon="9.115819373342884"><ele>751.0</ele><time>2026-04-27T15:49:55.332Z</time></trkpt><trkpt lat="40.09380468260224" lon="9.115953070258048"><ele>751.0</ele><time>2026-04-27T15:49:56.332Z</time></trkpt><trkpt lat="40.093873582419825" lon="9.116070222427197"><ele>751.0</ele><time>2026-04-27T15:49:57.332Z</time></trkpt><trkpt lat="40.09396152421852" lon="9.116153490935588"><ele>751.0</ele><time>2026-04-27T15:49:58.332Z</time></trkpt><trkpt lat="40.09407139757074" lon="9.116192816728487"><ele>751.0</ele><time>2026-04-27T15:49:59.332Z</time></trkpt><trkpt lat="40.09418927392091" lon="9.116198507250473"><ele>747.75</ele><time>2026-04-27T15:50:00.332Z</time></trkpt><trkpt lat="40.09431188883383" lon="9.116208229591686"><ele>744.5</ele><time>2026-04-27T15:50:01.332Z</time></trkpt><trkpt lat="40.09443053011649" lon="9.116224959897755"><ele>741.25</ele><time>2026-04-27T15:50:02.332Z</time></trkpt><trkpt lat="40.09454929093345" lon="9.116240894923852"><ele>738.0</ele><time>2026-04-27T15:50:03.332Z</time></trkpt><trkpt lat="40.09467051989931" lon="9.116244857653808"><ele>738.0</ele><time>2026-04-27T15:50:04.332Z</time></trkpt><trkpt lat="40.094792574965155" lon="9.116273550217182"><ele>738.0</ele><time>2026-04-27T15:50:05.332Z</time></trkpt><trkpt lat="40.09490405945712" lon="9.116303226900905"><ele>738.0</ele><time>2026-04-27T15:50:06.332Z</time></trkpt><trkpt lat="40.09500839725312" lon="9.116368767827451"><ele>738.0</ele><time>2026-04-27T15:50:07.332Z</time></trkpt><trkpt lat="40.095090678894806" lon="9.116476583158594"><ele>736.0</ele><time>2026-04-27T15:50:08.332Z</time></trkpt><trkpt lat="40.095150502986776" lon="9.116622493760499"><ele>734.0</ele><time>2026-04-27T15:50:09.334Z</time></trkpt><trkpt lat="40.095206734457115" lon="9.116760033370907"><ele>732.0</ele><time>2026-04-27T15:50:10.334Z</time></trkpt><trkpt lat="40.09527866031272" lon="9.116867660583045"><ele>730.0</ele><time>2026-04-27T15:50:11.334Z</time></trkpt><trkpt lat="40.09536160600458" lon="9.116930478760798"><ele>730.0</ele><time>2026-04-27T15:50:12.335Z</time></trkpt><trkpt lat="40.09544052057863" lon="9.11697514853692"><ele>730.0</ele><time>2026-04-27T15:50:13.334Z</time></trkpt><trkpt lat="40.09551460548157" lon="9.117004538909828"><ele>730.0</ele><time>2026-04-27T15:50:14.334Z</time></trkpt><trkpt lat="40.09559808501015" lon="9.117012694769873"><ele>730.0</ele><time>2026-04-27T15:50:16.334Z</time></trkpt><trkpt lat="40.09567917464171" lon="9.117030712870642"><ele>730.0</ele><time>2026-04-27T15:50:19.335Z</time></trkpt><trkpt lat="40.095742233754486" lon="9.117044916502925"><ele>730.0</ele><time>2026-04-27T15:50:21.334Z</time></trkpt><trkpt lat="40.09585063352861" lon="9.117086744160275"><ele>729.5</ele><time>2026-04-27T15:50:23.335Z</time></trkpt><trkpt lat="40.09591424453209" lon="9.117109592011985"><ele>729.0</ele><time>2026-04-27T15:50:24.335Z</time></trkpt><trkpt lat="40.095987569936675" lon="9.117155088722276"><ele>728.5</ele><time>2026-04-27T15:50:25.335Z</time></trkpt><trkpt lat="40.09605900865654" lon="9.117210782505362"><ele>728.0</ele><time>2026-04-27T15:50:26.335Z</time></trkpt><trkpt lat="40.09613339373563" lon="9.11728104984186"><ele>727.5</ele><time>2026-04-27T15:50:27.335Z</time></trkpt><trkpt lat="40.09620405032442" lon="9.117360980517214"><ele>727.0</ele><time>2026-04-27T15:50:28.335Z</time></trkpt><trkpt lat="40.09625722948115" lon="9.117450028461047"><ele>727.0</ele><time>2026-04-27T15:50:29.335Z</time></trkpt><trkpt lat="40.09629909797537" lon="9.117553107271204"><ele>727.0</ele><time>2026-04-27T15:50:30.335Z</time></trkpt><trkpt lat="40.0963291091165" lon="9.11764155696703"><ele>727.0</ele><time>2026-04-27T15:50:31.335Z</time></trkpt><trkpt lat="40.096353297251945" lon="9.117749579451962"><ele>727.0</ele><time>2026-04-27T15:50:32.335Z</time></trkpt><trkpt lat="40.09636631779645" lon="9.11786669302583"><ele>727.0</ele><time>2026-04-27T15:50:33.335Z</time></trkpt><trkpt lat="40.09637728269981" lon="9.117998077084774"><ele>727.0</ele><time>2026-04-27T15:50:34.335Z</time></trkpt><trkpt lat="40.09639953618564" lon="9.118114228373589"><ele>727.0</ele><time>2026-04-27T15:50:35.335Z</time></trkpt><trkpt lat="40.09639026757143" lon="9.11823034614294"><ele>727.0</ele><time>2026-04-27T15:50:36.335Z</time></trkpt><trkpt lat="40.09638060289281" lon="9.118354071323004"><ele>727.0</ele><time>2026-04-27T15:50:37.335Z</time></trkpt><trkpt lat="40.09636882298886" lon="9.118469730598276"><ele>727.0</ele><time>2026-04-27T15:50:38.335Z</time></trkpt><trkpt lat="40.096368014028926" lon="9.118590604277818"><ele>727.0</ele><time>2026-04-27T15:50:39.335Z</time></trkpt><trkpt lat="40.09636901366594" lon="9.118726899739242"><ele>727.6</ele><time>2026-04-27T15:50:40.335Z</time></trkpt><trkpt lat="40.09638009499558" lon="9.11886594132706"><ele>728.2</ele><time>2026-04-27T15:50:41.335Z</time></trkpt><trkpt lat="40.09638494347199" lon="9.119012049427043"><ele>728.8</ele><time>2026-04-27T15:50:42.335Z</time></trkpt><trkpt lat="40.096411586295865" lon="9.119143824573316"><ele>729.4</ele><time>2026-04-27T15:50:43.335Z</time></trkpt><trkpt lat="40.09643257016614" lon="9.119281013052897"><ele>730.0</ele><time>2026-04-27T15:50:44.335Z</time></trkpt><trkpt lat="40.09645061113037" lon="9.119412301623122"><ele>730.0</ele><time>2026-04-27T15:50:45.335Z</time></trkpt><trkpt lat="40.09647399581161" lon="9.119544703252025"><ele>730.0</ele><time>2026-04-27T15:50:46.335Z</time></trkpt><trkpt lat="40.09649416031059" lon="9.11966739193923"><ele>730.0</ele><time>2026-04-27T15:50:47.335Z</time></trkpt><trkpt lat="40.09651816524704" lon="9.11977707355212"><ele>730.0</ele><time>2026-04-27T15:50:48.335Z</time></trkpt><trkpt lat="40.096530703208174" lon="9.119898608407592"><ele>730.0</ele><time>2026-04-27T15:50:49.335Z</time></trkpt><trkpt lat="40.096536591105355" lon="9.120009484747287"><ele>729.0</ele><time>2026-04-27T15:50:50.335Z</time></trkpt><trkpt lat="40.09650790440575" lon="9.120122947277244"><ele>728.0</ele><time>2026-04-27T15:50:51.335Z</time></trkpt><trkpt lat="40.09645811962315" lon="9.120224881937267"><ele>727.0</ele><time>2026-04-27T15:50:52.335Z</time></trkpt><trkpt lat="40.09639796661431" lon="9.120317009318779"><ele>726.0</ele><time>2026-04-27T15:50:53.335Z</time></trkpt><trkpt lat="40.09633395579273" lon="9.120407916382074"><ele>725.0</ele><time>2026-04-27T15:50:54.335Z</time></trkpt><trkpt lat="40.096267926973475" lon="9.120493432536446"><ele>725.0</ele><time>2026-04-27T15:50:55.335Z</time></trkpt><trkpt lat="40.09621373262543" lon="9.120578943354042"><ele>725.0</ele><time>2026-04-27T15:50:56.335Z</time></trkpt><trkpt lat="40.09616893931275" lon="9.120672600299061"><ele>725.0</ele><time>2026-04-27T15:50:57.335Z</time></trkpt><trkpt lat="40.09613077802727" lon="9.12076266165603"><ele>725.0</ele><time>2026-04-27T15:50:58.335Z</time></trkpt><trkpt lat="40.09610499834637" lon="9.120883202095927"><ele>725.0</ele><time>2026-04-27T15:50:59.335Z</time></trkpt><trkpt lat="40.0960645821256" lon="9.120996177296107"><ele>725.0</ele><time>2026-04-27T15:51:00.335Z</time></trkpt><trkpt lat="40.096025875450714" lon="9.121097158532455"><ele>723.1666666666666</ele><time>2026-04-27T15:51:01.335Z</time></trkpt><trkpt lat="40.09600115204157" lon="9.121198241050537"><ele>721.3333333333333</ele><time>2026-04-27T15:51:02.335Z</time></trkpt><trkpt lat="40.096003589353074" lon="9.121304242564928"><ele>719.5</ele><time>2026-04-27T15:51:03.335Z</time></trkpt><trkpt lat="40.09603671757856" lon="9.121416736533371"><ele>717.6666666666666</ele><time>2026-04-27T15:51:04.335Z</time></trkpt><trkpt lat="40.096086842074115" lon="9.121505327841854"><ele>715.8333333333334</ele><time>2026-04-27T15:51:05.335Z</time></trkpt><trkpt lat="40.09613783133792" lon="9.12158624448936"><ele>714.0</ele><time>2026-04-27T15:51:06.335Z</time></trkpt><trkpt lat="40.09618660107987" lon="9.1216710519957"><ele>712.8333333333334</ele><time>2026-04-27T15:51:07.335Z</time></trkpt><trkpt lat="40.096227317717926" lon="9.121755209834374"><ele>711.6666666666666</ele><time>2026-04-27T15:51:08.335Z</time></trkpt><trkpt lat="40.09625852609523" lon="9.121847216841049"><ele>710.5</ele><time>2026-04-27T15:51:09.335Z</time></trkpt><trkpt lat="40.096278138950254" lon="9.121953817509013"><ele>709.3333333333333</ele><time>2026-04-27T15:51:10.335Z</time></trkpt><trkpt lat="40.096284544857795" lon="9.122075550752756"><ele>708.1666666666666</ele><time>2026-04-27T15:51:11.335Z</time></trkpt><trkpt lat="40.096300155229656" lon="9.122195881776385"><ele>707.0</ele><time>2026-04-27T15:51:12.335Z</time></trkpt><trkpt lat="40.09631403226809" lon="9.122316486945772"><ele>708.2</ele><time>2026-04-27T15:51:13.335Z</time></trkpt><trkpt lat="40.09633084827744" lon="9.122437323571992"><ele>709.4000000000001</ele><time>2026-04-27T15:51:14.335Z</time></trkpt><trkpt lat="40.09634574521025" lon="9.122572115224665"><ele>710.5999999999999</ele><time>2026-04-27T15:51:15.336Z</time></trkpt><trkpt lat="40.09635903374006" lon="9.122708259740607"><ele>711.8</ele><time>2026-04-27T15:51:16.336Z</time></trkpt><trkpt lat="40.09637608525913" lon="9.122844437909283"><ele>713.0</ele><time>2026-04-27T15:51:17.336Z</time></trkpt><trkpt lat="40.09640210881701" lon="9.122982746244139"><ele>713.0</ele><time>2026-04-27T15:51:18.336Z</time></trkpt><trkpt lat="40.09644424768153" lon="9.123123869806554"><ele>713.0</ele><time>2026-04-27T15:51:19.336Z</time></trkpt><trkpt lat="40.0964778585442" lon="9.123269313674061"><ele>713.0</ele><time>2026-04-27T15:51:20.336Z</time></trkpt><trkpt lat="40.09651944710063" lon="9.123409300151476"><ele>713.0</ele><time>2026-04-27T15:51:21.336Z</time></trkpt><trkpt lat="40.096564643103946" lon="9.12354946392461"><ele>707.75</ele><time>2026-04-27T15:51:22.336Z</time></trkpt><trkpt lat="40.09661224310562" lon="9.123693312449507"><ele>702.5</ele><time>2026-04-27T15:51:23.336Z</time></trkpt><trkpt lat="40.09665796608874" lon="9.123845464973867"><ele>697.25</ele><time>2026-04-27T15:51:24.336Z</time></trkpt><trkpt lat="40.09670378193763" lon="9.123997766845969"><ele>692.0</ele><time>2026-04-27T15:51:25.336Z</time></trkpt><trkpt lat="40.09675916285861" lon="9.124149469971872"><ele>692.0</ele><time>2026-04-27T15:51:26.336Z</time></trkpt><trkpt lat="40.09681422107099" lon="9.12430384535244"><ele>692.0</ele><time>2026-04-27T15:51:27.336Z</time></trkpt><trkpt lat="40.09686966448821" lon="9.124457258079124"><ele>692.0</ele><time>2026-04-27T15:51:28.336Z</time></trkpt><trkpt lat="40.096934727896695" lon="9.124607957904646"><ele>692.0</ele><time>2026-04-27T15:51:29.336Z</time></trkpt><trkpt lat="40.09699237318918" lon="9.124748051411707"><ele>692.0</ele><time>2026-04-27T15:51:30.336Z</time></trkpt><trkpt lat="40.09702262308335" lon="9.124894546456286"><ele>692.0</ele><time>2026-04-27T15:51:31.336Z</time></trkpt><trkpt lat="40.09702727429784" lon="9.125065006388326"><ele>692.0</ele><time>2026-04-27T15:51:32.336Z</time></trkpt><trkpt lat="40.09699248828425" lon="9.125232326548343"><ele>692.0</ele><time>2026-04-27T15:51:33.336Z</time></trkpt><trkpt lat="40.09693755641276" lon="9.125387334696738"><ele>692.0</ele><time>2026-04-27T15:51:34.336Z</time></trkpt><trkpt lat="40.096888736151065" lon="9.1255278403859"><ele>692.0</ele><time>2026-04-27T15:51:35.336Z</time></trkpt><trkpt lat="40.09687191352761" lon="9.125682958809024"><ele>692.0</ele><time>2026-04-27T15:51:36.336Z</time></trkpt><trkpt lat="40.09689326363454" lon="9.12583478614672"><ele>692.0</ele><time>2026-04-27T15:51:37.336Z</time></trkpt><trkpt lat="40.096941285313434" lon="9.12598443945505"><ele>692.0</ele><time>2026-04-27T15:51:38.336Z</time></trkpt><trkpt lat="40.09698782902485" lon="9.12613858807392"><ele>692.0</ele><time>2026-04-27T15:51:39.336Z</time></trkpt><trkpt lat="40.09702473992802" lon="9.126300122471848"><ele>692.0</ele><time>2026-04-27T15:51:40.336Z</time></trkpt><trkpt lat="40.09705925124248" lon="9.126463356033891"><ele>692.0</ele><time>2026-04-27T15:51:41.336Z</time></trkpt><trkpt lat="40.097089523148426" lon="9.126629205806335"><ele>692.0</ele><time>2026-04-27T15:51:42.336Z</time></trkpt><trkpt lat="40.09712105593371" lon="9.12679500046224"><ele>692.0</ele><time>2026-04-27T15:51:43.336Z</time></trkpt><trkpt lat="40.09716255057194" lon="9.12695832599531"><ele>692.0</ele><time>2026-04-27T15:51:44.336Z</time></trkpt><trkpt lat="40.0971997280963" lon="9.127115576158404"><ele>692.0</ele><time>2026-04-27T15:51:45.336Z</time></trkpt><trkpt lat="40.097251775580816" lon="9.12727048345537"><ele>689.5</ele><time>2026-04-27T15:51:46.336Z</time></trkpt><trkpt lat="40.09730430878013" lon="9.127422857712393"><ele>687.0</ele><time>2026-04-27T15:51:47.336Z</time></trkpt><trkpt lat="40.09736574317827" lon="9.127574045882612"><ele>684.5</ele><time>2026-04-27T15:51:48.336Z</time></trkpt><trkpt lat="40.09742213764883" lon="9.127720379772473"><ele>682.0</ele><time>2026-04-27T15:51:49.336Z</time></trkpt><trkpt lat="40.09747189839906" lon="9.127861028333374"><ele>678.25</ele><time>2026-04-27T15:51:50.336Z</time></trkpt><trkpt lat="40.09752316950568" lon="9.127991041218692"><ele>674.5</ele><time>2026-04-27T15:51:51.336Z</time></trkpt><trkpt lat="40.09757803903828" lon="9.128119425297157"><ele>670.75</ele><time>2026-04-27T15:51:52.336Z</time></trkpt><trkpt lat="40.09764873686506" lon="9.128240108971383"><ele>667.0</ele><time>2026-04-27T15:51:53.336Z</time></trkpt><trkpt lat="40.097745177771195" lon="9.128333095494026"><ele>666.5</ele><time>2026-04-27T15:51:54.336Z</time></trkpt><trkpt lat="40.09785904113274" lon="9.128383993614484"><ele>666.0</ele><time>2026-04-27T15:51:55.336Z</time></trkpt><trkpt lat="40.09798546292814" lon="9.128386276154247"><ele>665.5</ele><time>2026-04-27T15:51:56.336Z</time></trkpt><trkpt lat="40.098107676429585" lon="9.128342936621705"><ele>665.0</ele><time>2026-04-27T15:51:57.336Z</time></trkpt><trkpt lat="40.09822444201243" lon="9.128301141949905"><ele>663.25</ele><time>2026-04-27T15:51:58.336Z</time></trkpt><trkpt lat="40.09835083631011" lon="9.12830205922614"><ele>661.5</ele><time>2026-04-27T15:51:59.336Z</time></trkpt><trkpt lat="40.09847669041847" lon="9.12833926775198"><ele>659.75</ele><time>2026-04-27T15:52:00.336Z</time></trkpt><trkpt lat="40.09860309576015" lon="9.12839218994532"><ele>658.0</ele><time>2026-04-27T15:52:01.336Z</time></trkpt><trkpt lat="40.09873387440804" lon="9.128433497939298"><ele>658.0</ele><time>2026-04-27T15:52:02.336Z</time></trkpt><trkpt lat="40.09886718862376" lon="9.128471778918"><ele>658.0</ele><time>2026-04-27T15:52:03.336Z</time></trkpt><trkpt lat="40.099004682957634" lon="9.12849343687974"><ele>658.0</ele><time>2026-04-27T15:52:04.336Z</time></trkpt><trkpt lat="40.09915124322347" lon="9.128475399091288"><ele>658.0</ele><time>2026-04-27T15:52:05.336Z</time></trkpt><trkpt lat="40.09929077506428" lon="9.128412805764434"><ele>657.75</ele><time>2026-04-27T15:52:06.336Z</time></trkpt><trkpt lat="40.09942723101029" lon="9.128327240174572"><ele>657.5</ele><time>2026-04-27T15:52:07.336Z</time></trkpt><trkpt lat="40.09955610252745" lon="9.12822512422528"><ele>657.25</ele><time>2026-04-27T15:52:08.336Z</time></trkpt><trkpt lat="40.09965999391311" lon="9.128098804663017"><ele>657.0</ele><time>2026-04-27T15:52:09.336Z</time></trkpt><trkpt lat="40.09972817295003" lon="9.127940036821833"><ele>658.0</ele><time>2026-04-27T15:52:10.336Z</time></trkpt><trkpt lat="40.09975428310936" lon="9.127762070872961"><ele>659.0</ele><time>2026-04-27T15:52:11.336Z</time></trkpt><trkpt lat="40.09974558235384" lon="9.127581761141704"><ele>660.0</ele><time>2026-04-27T15:52:12.336Z</time></trkpt><trkpt lat="40.099707074482886" lon="9.12741762440339"><ele>661.0</ele><time>2026-04-27T15:52:13.336Z</time></trkpt><trkpt lat="40.09964744290309" lon="9.127279546586356"><ele>659.0</ele><time>2026-04-27T15:52:14.336Z</time></trkpt><trkpt lat="40.099592358033455" lon="9.127152345936105"><ele>657.0</ele><time>2026-04-27T15:52:15.337Z</time></trkpt><trkpt lat="40.09955241382596" lon="9.127052040136023"><ele>655.0</ele><time>2026-04-27T15:52:16.337Z</time></trkpt><trkpt lat="40.09952723939911" lon="9.126922305156851"><ele>653.0</ele><time>2026-04-27T15:52:18.337Z</time></trkpt><trkpt lat="40.09948693595015" lon="9.126838908171528"><ele>651.0</ele><time>2026-04-27T15:52:21.338Z</time></trkpt><trkpt lat="40.09940307807857" lon="9.126811911697434"><ele>651.0</ele><time>2026-04-27T16:10:44.367Z</time></trkpt><trkpt lat="40.09936166114181" lon="9.126697008547312"><ele>651.0</ele><time>2026-04-27T16:10:46.367Z</time></trkpt><trkpt lat="40.0993046976475" lon="9.126566550505284"><ele>651.0</ele><time>2026-04-27T16:10:48.367Z</time></trkpt><trkpt lat="40.09925763150841" lon="9.126427550987271"><ele>651.0</ele><time>2026-04-27T16:10:50.367Z</time></trkpt><trkpt lat="40.09921055657059" lon="9.126275365628391"><ele>649.0</ele><time>2026-04-27T16:10:52.367Z</time></trkpt><trkpt lat="40.09920916686068" lon="9.126162709943914"><ele>647.0</ele><time>2026-04-27T16:10:53.367Z</time></trkpt><trkpt lat="40.0992061143621" lon="9.126060343662694"><ele>645.0</ele><time>2026-04-27T16:10:54.367Z</time></trkpt><trkpt lat="40.09921224351422" lon="9.125949063600165"><ele>643.0</ele><time>2026-04-27T16:10:55.367Z</time></trkpt><trkpt lat="40.09921923159889" lon="9.12583344374459"><ele>641.0</ele><time>2026-04-27T16:10:56.367Z</time></trkpt><trkpt lat="40.09923484898925" lon="9.125714552208471"><ele>639.0</ele><time>2026-04-27T16:10:57.367Z</time></trkpt><trkpt lat="40.09923985089313" lon="9.125586582021588"><ele>638.6</ele><time>2026-04-27T16:10:58.367Z</time></trkpt><trkpt lat="40.099253633981135" lon="9.125461624429295"><ele>638.2</ele><time>2026-04-27T16:10:59.367Z</time></trkpt><trkpt lat="40.099267289219604" lon="9.125335065324357"><ele>637.8000000000001</ele><time>2026-04-27T16:11:00.367Z</time></trkpt><trkpt lat="40.099276714682766" lon="9.125202588724902"><ele>637.4</ele><time>2026-04-27T16:11:01.367Z</time></trkpt><trkpt lat="40.09929578899056" lon="9.125066082579112"><ele>637.0</ele><time>2026-04-27T16:11:02.367Z</time></trkpt><trkpt lat="40.09930722266419" lon="9.124921218997342"><ele>636.25</ele><time>2026-04-27T16:11:03.367Z</time></trkpt><trkpt lat="40.09932191883202" lon="9.12475062552781"><ele>635.5</ele><time>2026-04-27T16:11:04.367Z</time></trkpt><trkpt lat="40.09933170182633" lon="9.124579062041448"><ele>634.75</ele><time>2026-04-27T16:11:05.367Z</time></trkpt><trkpt lat="40.099347201444296" lon="9.124403059146104"><ele>634.0</ele><time>2026-04-27T16:11:06.367Z</time></trkpt><trkpt lat="40.099366072097524" lon="9.124221254494369"><ele>633.5</ele><time>2026-04-27T16:11:07.367Z</time></trkpt><trkpt lat="40.099384618117405" lon="9.124036944967601"><ele>633.0</ele><time>2026-04-27T16:11:08.367Z</time></trkpt><trkpt lat="40.09940274622267" lon="9.123848085726696"><ele>632.5</ele><time>2026-04-27T16:11:09.369Z</time></trkpt><trkpt lat="40.09942861207993" lon="9.123654878503283"><ele>632.0</ele><time>2026-04-27T16:11:10.368Z</time></trkpt><trkpt lat="40.099446156075295" lon="9.123467993063938"><ele>632.0</ele><time>2026-04-27T16:11:11.368Z</time></trkpt><trkpt lat="40.09946592193327" lon="9.123279497976323"><ele>632.0</ele><time>2026-04-27T16:11:12.37Z</time></trkpt><trkpt lat="40.09948515520313" lon="9.12308104246485"><ele>632.0</ele><time>2026-04-27T16:11:13.369Z</time></trkpt><trkpt lat="40.09949796297645" lon="9.122877354818673"><ele>629.3333333333333</ele><time>2026-04-27T16:11:14.369Z</time></trkpt><trkpt lat="40.099504911393616" lon="9.122673206586006"><ele>626.6666666666666</ele><time>2026-04-27T16:11:15.37Z</time></trkpt><trkpt lat="40.099513907168685" lon="9.122465457053908"><ele>624.0</ele><time>2026-04-27T16:11:16.369Z</time></trkpt><trkpt lat="40.09952098011044" lon="9.122257375240071"><ele>622.5</ele><time>2026-04-27T16:11:17.369Z</time></trkpt><trkpt lat="40.09952918058054" lon="9.122059329124587"><ele>621.0</ele><time>2026-04-27T16:11:18.369Z</time></trkpt><trkpt lat="40.09954542600664" lon="9.12186576924309"><ele>619.5</ele><time>2026-04-27T16:11:19.369Z</time></trkpt><trkpt lat="40.099603453472206" lon="9.12169547415195"><ele>618.0</ele><time>2026-04-27T16:11:20.369Z</time></trkpt><trkpt lat="40.09969642542127" lon="9.121576061835437"><ele>618.25</ele><time>2026-04-27T16:11:21.37Z</time></trkpt><trkpt lat="40.09981638067487" lon="9.121495538944105"><ele>618.5</ele><time>2026-04-27T16:11:22.369Z</time></trkpt><trkpt lat="40.099954524103914" lon="9.121485143223062"><ele>618.75</ele><time>2026-04-27T16:11:23.369Z</time></trkpt><trkpt lat="40.10009257688339" lon="9.121527139788451"><ele>619.0</ele><time>2026-04-27T16:11:24.369Z</time></trkpt><trkpt lat="40.10022494105259" lon="9.121625387584144"><ele>615.3333333333334</ele><time>2026-04-27T16:11:25.369Z</time></trkpt><trkpt lat="40.10035277657512" lon="9.12174354289983"><ele>611.6666666666666</ele><time>2026-04-27T16:11:26.369Z</time></trkpt><trkpt lat="40.100486854118515" lon="9.121860978558546"><ele>608.0</ele><time>2026-04-27T16:11:27.369Z</time></trkpt><trkpt lat="40.100622049108395" lon="9.121975673771177"><ele>610.3333333333333</ele><time>2026-04-27T16:11:28.369Z</time></trkpt><trkpt lat="40.100766031089435" lon="9.122095971883908"><ele>612.6666666666666</ele><time>2026-04-27T16:11:29.369Z</time></trkpt><trkpt lat="40.10091887807568" lon="9.122216949335684"><ele>615.0</ele><time>2026-04-27T16:11:30.369Z</time></trkpt><trkpt lat="40.101070964671585" lon="9.1223457486821"><ele>610.6666666666666</ele><time>2026-04-27T16:11:31.369Z</time></trkpt><trkpt lat="40.10122653100706" lon="9.122478223757177"><ele>606.3333333333333</ele><time>2026-04-27T16:11:32.369Z</time></trkpt><trkpt lat="40.101382399604375" lon="9.12260537778251"><ele>602.0</ele><time>2026-04-27T16:11:33.369Z</time></trkpt><trkpt lat="40.10154177027402" lon="9.122738617494264"><ele>604.0</ele><time>2026-04-27T16:11:34.369Z</time></trkpt><trkpt lat="40.10170208819398" lon="9.122873665769088"><ele>606.0</ele><time>2026-04-27T16:11:35.369Z</time></trkpt><trkpt lat="40.10186295482087" lon="9.123014051957036"><ele>608.0</ele><time>2026-04-27T16:11:36.369Z</time></trkpt><trkpt lat="40.102017157498345" lon="9.123151536528665"><ele>605.6666666666666</ele><time>2026-04-27T16:11:37.369Z</time></trkpt><trkpt lat="40.10216447999533" lon="9.123255499691725"><ele>603.3333333333334</ele><time>2026-04-27T16:11:38.369Z</time></trkpt><trkpt lat="40.10231760166907" lon="9.123296783712446"><ele>601.0</ele><time>2026-04-27T16:11:39.369Z</time></trkpt><trkpt lat="40.10248978299629" lon="9.123270680348465"><ele>606.0</ele><time>2026-04-27T16:11:40.369Z</time></trkpt><trkpt lat="40.10265811047727" lon="9.123174462714854"><ele>611.0</ele><time>2026-04-27T16:11:41.369Z</time></trkpt><trkpt lat="40.10282210556611" lon="9.123070613302577"><ele>616.0</ele><time>2026-04-27T16:11:42.369Z</time></trkpt><trkpt lat="40.10299701997681" lon="9.122973380949473"><ele>616.0</ele><time>2026-04-27T16:11:43.369Z</time></trkpt><trkpt lat="40.10318064596039" lon="9.122878789682574"><ele>616.0</ele><time>2026-04-27T16:11:44.369Z</time></trkpt><trkpt lat="40.103363971797" lon="9.122773514431193"><ele>616.0</ele><time>2026-04-27T16:11:45.369Z</time></trkpt><trkpt lat="40.10355058534791" lon="9.122675361851641"><ele>612.6666666666667</ele><time>2026-04-27T16:11:46.369Z</time></trkpt><trkpt lat="40.1037444581084" lon="9.122619177930746"><ele>609.3333333333334</ele><time>2026-04-27T16:11:47.369Z</time></trkpt><trkpt lat="40.10394255581558" lon="9.122585272822098"><ele>606.0</ele><time>2026-04-27T16:11:48.369Z</time></trkpt><trkpt lat="40.104146435539874" lon="9.122559376580408"><ele>602.3333333333334</ele><time>2026-04-27T16:11:49.369Z</time></trkpt><trkpt lat="40.10434789520272" lon="9.12253577659096"><ele>598.6666666666667</ele><time>2026-04-27T16:11:50.369Z</time></trkpt><trkpt lat="40.10454455731325" lon="9.122506953698302"><ele>595.0</ele><time>2026-04-27T16:11:51.369Z</time></trkpt><trkpt lat="40.104748192778054" lon="9.12247855467318"><ele>594.0</ele><time>2026-04-27T16:11:52.369Z</time></trkpt><trkpt lat="40.10494189851489" lon="9.122468610106555"><ele>593.0</ele><time>2026-04-27T16:11:53.369Z</time></trkpt><trkpt lat="40.105131766828336" lon="9.122491027353927"><ele>592.0</ele><time>2026-04-27T16:11:54.369Z</time></trkpt><trkpt lat="40.10531283057897" lon="9.122546381475438"><ele>592.0</ele><time>2026-04-27T16:11:55.369Z</time></trkpt><trkpt lat="40.10548202026566" lon="9.122609944016824"><ele>592.0</ele><time>2026-04-27T16:11:56.369Z</time></trkpt><trkpt lat="40.10563124465586" lon="9.122655785033292"><ele>592.0</ele><time>2026-04-27T16:11:57.369Z</time></trkpt><trkpt lat="40.10580260631117" lon="9.122634582855506"><ele>589.6666666666667</ele><time>2026-04-27T16:11:58.369Z</time></trkpt><trkpt lat="40.10596356217039" lon="9.12252574178654"><ele>587.3333333333334</ele><time>2026-04-27T16:11:59.369Z</time></trkpt><trkpt lat="40.106096242054164" lon="9.122365292791905"><ele>585.0</ele><time>2026-04-27T16:12:00.369Z</time></trkpt><trkpt lat="40.1062027678459" lon="9.12217300187234"><ele>585.0</ele><time>2026-04-27T16:12:01.369Z</time></trkpt><trkpt lat="40.10630543714229" lon="9.122036711676026"><ele>585.0</ele><time>2026-04-27T16:12:02.37Z</time></trkpt><trkpt lat="40.10638517204489" lon="9.121987525440998"><ele>585.0</ele><time>2026-04-27T16:12:03.37Z</time></trkpt><trkpt lat="40.10651775842418" lon="9.121966092818328"><ele>585.0</ele><time>2026-04-27T16:12:04.37Z</time></trkpt><trkpt lat="40.106673606045845" lon="9.12194372519417"><ele>585.0</ele><time>2026-04-27T16:12:05.37Z</time></trkpt><trkpt lat="40.10684146780927" lon="9.121916314358215"><ele>585.0</ele><time>2026-04-27T16:12:06.37Z</time></trkpt><trkpt lat="40.10701682400157" lon="9.12189235883975"><ele>585.0</ele><time>2026-04-27T16:12:07.37Z</time></trkpt><trkpt lat="40.10719439510253" lon="9.121863242221172"><ele>585.0</ele><time>2026-04-27T16:12:08.37Z</time></trkpt><trkpt lat="40.107375547233865" lon="9.121829948466988"><ele>585.0</ele><time>2026-04-27T16:12:09.37Z</time></trkpt><trkpt lat="40.10755780883458" lon="9.121806806446742"><ele>585.0</ele><time>2026-04-27T16:12:10.37Z</time></trkpt><trkpt lat="40.10772618937386" lon="9.12178229984221"><ele>584.3333333333334</ele><time>2026-04-27T16:12:11.37Z</time></trkpt><trkpt lat="40.107886616397714" lon="9.121750039948424"><ele>583.6666666666667</ele><time>2026-04-27T16:12:12.37Z</time></trkpt><trkpt lat="40.10803593567193" lon="9.121687185279018"><ele>583.0</ele><time>2026-04-27T16:12:13.37Z</time></trkpt><trkpt lat="40.10816273750249" lon="9.12156681594385"><ele>580.3333333333334</ele><time>2026-04-27T16:12:14.37Z</time></trkpt><trkpt lat="40.10825566654096" lon="9.121396738810537"><ele>577.6666666666666</ele><time>2026-04-27T16:12:15.37Z</time></trkpt><trkpt lat="40.108312531659706" lon="9.121186706696298"><ele>575.0</ele><time>2026-04-27T16:12:16.37Z</time></trkpt><trkpt lat="40.10834141518045" lon="9.12096033002534"><ele>576.0</ele><time>2026-04-27T16:12:17.37Z</time></trkpt><trkpt lat="40.10836631634969" lon="9.1207275772344"><ele>577.0</ele><time>2026-04-27T16:12:18.37Z</time></trkpt><trkpt lat="40.108397145143805" lon="9.120514930827655"><ele>578.0</ele><time>2026-04-27T16:12:19.37Z</time></trkpt><trkpt lat="40.108442371452746" lon="9.120322638513663"><ele>578.0</ele><time>2026-04-27T16:12:20.37Z</time></trkpt><trkpt lat="40.10852387929605" lon="9.120174107312124"><ele>578.0</ele><time>2026-04-27T16:12:21.37Z</time></trkpt><trkpt lat="40.10864610717044" lon="9.12007676581428"><ele>578.0</ele><time>2026-04-27T16:12:22.37Z</time></trkpt><trkpt lat="40.10879805153708" lon="9.120018013375654"><ele>578.0</ele><time>2026-04-27T16:12:23.37Z</time></trkpt><trkpt lat="40.108965430984966" lon="9.12000002420705"><ele>575.6666666666666</ele><time>2026-04-27T16:12:24.37Z</time></trkpt><trkpt lat="40.10914167212559" lon="9.119998866571114"><ele>573.3333333333334</ele><time>2026-04-27T16:12:25.37Z</time></trkpt><trkpt lat="40.10932326202886" lon="9.119989350417049"><ele>571.0</ele><time>2026-04-27T16:12:26.37Z</time></trkpt><trkpt lat="40.10949923226281" lon="9.119968577041409"><ele>571.0</ele><time>2026-04-27T16:12:27.37Z</time></trkpt><trkpt lat="40.109659433494265" lon="9.11990919701335"><ele>571.0</ele><time>2026-04-27T16:12:28.37Z</time></trkpt><trkpt lat="40.10980615214558" lon="9.11979808923996"><ele>571.0</ele><time>2026-04-27T16:12:29.37Z</time></trkpt><trkpt lat="40.10994397619943" lon="9.119667164695603"><ele>570.3333333333334</ele><time>2026-04-27T16:12:30.37Z</time></trkpt><trkpt lat="40.110076156865595" lon="9.119528473368211"><ele>569.6666666666666</ele><time>2026-04-27T16:12:31.37Z</time></trkpt><trkpt lat="40.11019478141307" lon="9.119395500173159"><ele>569.0</ele><time>2026-04-27T16:12:32.37Z</time></trkpt><trkpt lat="40.11030275911161" lon="9.119255732947389"><ele>569.0</ele><time>2026-04-27T16:12:33.37Z</time></trkpt><trkpt lat="40.11038092175698" lon="9.11909296592538"><ele>569.0</ele><time>2026-04-27T16:12:34.37Z</time></trkpt><trkpt lat="40.110414268841446" lon="9.118907903598927"><ele>569.0</ele><time>2026-04-27T16:12:35.37Z</time></trkpt><trkpt lat="40.11038964346874" lon="9.118721334225866"><ele>569.0</ele><time>2026-04-27T16:12:36.37Z</time></trkpt><trkpt lat="40.1103120094061" lon="9.118546630884865"><ele>566.0</ele><time>2026-04-27T16:12:37.37Z</time></trkpt><trkpt lat="40.11019775149815" lon="9.118397101857804"><ele>563.0</ele><time>2026-04-27T16:12:38.37Z</time></trkpt><trkpt lat="40.11006421792119" lon="9.118269113500956"><ele>560.0</ele><time>2026-04-27T16:12:39.37Z</time></trkpt><trkpt lat="40.10992521536219" lon="9.118154626841356"><ele>561.5</ele><time>2026-04-27T16:12:40.37Z</time></trkpt><trkpt lat="40.109796971309834" lon="9.118039122484824"><ele>563.0</ele><time>2026-04-27T16:12:41.37Z</time></trkpt><trkpt lat="40.109682875832554" lon="9.117918066560527"><ele>564.5</ele><time>2026-04-27T16:12:42.37Z</time></trkpt><trkpt lat="40.109589186348636" lon="9.117780805494458"><ele>566.0</ele><time>2026-04-27T16:12:43.37Z</time></trkpt><trkpt lat="40.109527943620755" lon="9.117612209426097"><ele>566.0</ele><time>2026-04-27T16:12:44.37Z</time></trkpt><trkpt lat="40.10950455166289" lon="9.117423600988952"><ele>566.0</ele><time>2026-04-27T16:12:45.37Z</time></trkpt><trkpt lat="40.10953912782809" lon="9.117232845301567"><ele>566.0</ele><time>2026-04-27T16:12:46.37Z</time></trkpt><trkpt lat="40.109613901645275" lon="9.117033252252895"><ele>567.6666666666666</ele><time>2026-04-27T16:12:47.37Z</time></trkpt><trkpt lat="40.109697363381294" lon="9.116804060381071"><ele>569.3333333333334</ele><time>2026-04-27T16:12:48.37Z</time></trkpt><trkpt lat="40.10977534856626" lon="9.116547998817689"><ele>571.0</ele><time>2026-04-27T16:12:49.37Z</time></trkpt><trkpt lat="40.10986672182474" lon="9.116285943976184"><ele>559.0</ele><time>2026-04-27T16:12:50.37Z</time></trkpt><trkpt lat="40.109971102758145" lon="9.116010542606364"><ele>547.0</ele><time>2026-04-27T16:12:51.37Z</time></trkpt><trkpt lat="40.11006792722722" lon="9.115742687750004"><ele>547.6666666666667</ele><time>2026-04-27T16:12:52.37Z</time></trkpt><trkpt lat="40.11015841159787" lon="9.115478553925156"><ele>548.3333333333334</ele><time>2026-04-27T16:12:53.37Z</time></trkpt><trkpt lat="40.11024615962826" lon="9.115230826348617"><ele>549.0</ele><time>2026-04-27T16:12:54.37Z</time></trkpt><trkpt lat="40.110332844080375" lon="9.11500958992395"><ele>545.6666666666666</ele><time>2026-04-27T16:12:55.37Z</time></trkpt><trkpt lat="40.11041721263216" lon="9.114820122101342"><ele>542.3333333333333</ele><time>2026-04-27T16:12:56.37Z</time></trkpt><trkpt lat="40.110532983212416" lon="9.114698052095092"><ele>539.0</ele><time>2026-04-27T16:12:57.37Z</time></trkpt><trkpt lat="40.11067832369059" lon="9.114670030575866"><ele>540.3333333333333</ele><time>2026-04-27T16:12:58.37Z</time></trkpt><trkpt lat="40.11080588962413" lon="9.114730741328932"><ele>541.6666666666666</ele><time>2026-04-27T16:12:59.37Z</time></trkpt><trkpt lat="40.110923793472615" lon="9.114876904959944"><ele>543.0</ele><time>2026-04-27T16:13:00.37Z</time></trkpt><trkpt lat="40.111066285663476" lon="9.115018629716337"><ele>539.3333333333334</ele><time>2026-04-27T16:13:01.37Z</time></trkpt><trkpt lat="40.11120507918382" lon="9.115189234257732"><ele>535.6666666666667</ele><time>2026-04-27T16:13:02.37Z</time></trkpt><trkpt lat="40.11136591584924" lon="9.11534364267753"><ele>532.0</ele><time>2026-04-27T16:13:03.37Z</time></trkpt><trkpt lat="40.111517486775575" lon="9.115533717488312"><ele>531.6666666666667</ele><time>2026-04-27T16:13:04.37Z</time></trkpt><trkpt lat="40.11167921120857" lon="9.11572681551635"><ele>531.3333333333334</ele><time>2026-04-27T16:13:05.37Z</time></trkpt><trkpt lat="40.11182913747198" lon="9.115911014412015"><ele>531.0</ele><time>2026-04-27T16:13:06.37Z</time></trkpt><trkpt lat="40.11198472490359" lon="9.116061385087324"><ele>531.0</ele><time>2026-04-27T16:13:07.37Z</time></trkpt><trkpt lat="40.1121704040263" lon="9.116150197421558"><ele>531.0</ele><time>2026-04-27T16:13:08.37Z</time></trkpt><trkpt lat="40.112376413061014" lon="9.116147766339083"><ele>531.0</ele><time>2026-04-27T16:13:09.37Z</time></trkpt><trkpt lat="40.112563742908115" lon="9.116112915459807"><ele>535.0</ele><time>2026-04-27T16:13:10.37Z</time></trkpt><trkpt lat="40.11270498739822" lon="9.116138992539176"><ele>539.0</ele><time>2026-04-27T16:13:11.37Z</time></trkpt><trkpt lat="40.112869614957845" lon="9.11621406522721"><ele>543.0</ele><time>2026-04-27T16:13:12.37Z</time></trkpt><trkpt lat="40.11301180052633" lon="9.116338791102313"><ele>543.0</ele><time>2026-04-27T16:13:13.37Z</time></trkpt><trkpt lat="40.11311949556218" lon="9.116503876151372"><ele>543.0</ele><time>2026-04-27T16:13:14.37Z</time></trkpt><trkpt lat="40.11322164653659" lon="9.11668255519986"><ele>543.0</ele><time>2026-04-27T16:13:15.373Z</time></trkpt><trkpt lat="40.113176034113145" lon="9.117075208229688"><ele>538.6666666666666</ele><time>2026-04-27T16:13:16.373Z</time></trkpt><trkpt lat="40.113222486791976" lon="9.117360532462708"><ele>534.3333333333333</ele><time>2026-04-27T16:13:17.373Z</time></trkpt><trkpt lat="40.113316699873906" lon="9.117594263166149"><ele>530.0</ele><time>2026-04-27T16:13:18.373Z</time></trkpt><trkpt lat="40.113458358709345" lon="9.117771300846014"><ele>530.0</ele><time>2026-04-27T16:13:19.373Z</time></trkpt><trkpt lat="40.11363741779646" lon="9.11791335794861"><ele>530.0</ele><time>2026-04-27T16:13:20.373Z</time></trkpt><trkpt lat="40.113830903058904" lon="9.118033439073004"><ele>530.0</ele><time>2026-04-27T16:13:21.372Z</time></trkpt><trkpt lat="40.1140335034455" lon="9.118151747812155"><ele>522.0</ele><time>2026-04-27T16:13:22.372Z</time></trkpt><trkpt lat="40.114237576095945" lon="9.11827407619693"><ele>514.0</ele><time>2026-04-27T16:13:23.372Z</time></trkpt><trkpt lat="40.11444837162675" lon="9.118380269421593"><ele>514.0</ele><time>2026-04-27T16:13:24.373Z</time></trkpt><trkpt lat="40.11465194594046" lon="9.118490509974915"><ele>514.0</ele><time>2026-04-27T16:13:25.372Z</time></trkpt><trkpt lat="40.114850159426965" lon="9.118604372927987"><ele>514.0</ele><time>2026-04-27T16:13:26.372Z</time></trkpt><trkpt lat="40.11504126147802" lon="9.118730323157735"><ele>509.33333333333337</ele><time>2026-04-27T16:13:27.373Z</time></trkpt><trkpt lat="40.115216779773206" lon="9.118896710658477"><ele>504.66666666666663</ele><time>2026-04-27T16:13:28.372Z</time></trkpt><trkpt lat="40.11538672318496" lon="9.119070259426207"><ele>500.0</ele><time>2026-04-27T16:13:29.372Z</time></trkpt><trkpt lat="40.11555863621836" lon="9.119245274370144"><ele>500.0</ele><time>2026-04-27T16:13:30.372Z</time></trkpt><trkpt lat="40.115731913166336" lon="9.119421583137397"><ele>500.0</ele><time>2026-04-27T16:13:31.372Z</time></trkpt><trkpt lat="40.11589634730588" lon="9.119595218022077"><ele>500.0</ele><time>2026-04-27T16:13:32.372Z</time></trkpt><trkpt lat="40.11604179778798" lon="9.11976007731144"><ele>500.3333333333333</ele><time>2026-04-27T16:13:33.373Z</time></trkpt><trkpt lat="40.116156022490344" lon="9.119921899678067"><ele>500.66666666666663</ele><time>2026-04-27T16:13:34.373Z</time></trkpt><trkpt lat="40.11621228323714" lon="9.120125918185757"><ele>501.0</ele><time>2026-04-27T16:13:35.373Z</time></trkpt><trkpt lat="40.116232075301134" lon="9.120381489022916"><ele>501.0</ele><time>2026-04-27T16:13:36.373Z</time></trkpt><trkpt lat="40.116229855032536" lon="9.120612857110013"><ele>501.0</ele><time>2026-04-27T16:13:37.373Z</time></trkpt><trkpt lat="40.11624232233114" lon="9.120855519492777"><ele>501.0</ele><time>2026-04-27T16:13:38.373Z</time></trkpt><trkpt lat="40.11639784377213" lon="9.120935178442558"><ele>502.0</ele><time>2026-04-27T16:13:39.373Z</time></trkpt><trkpt lat="40.11653763988199" lon="9.121008114455801"><ele>503.0</ele><time>2026-04-27T16:13:40.373Z</time></trkpt><trkpt lat="40.1167103008728" lon="9.121021897662017"><ele>504.0</ele><time>2026-04-27T16:13:41.373Z</time></trkpt><trkpt lat="40.11691043643084" lon="9.120952374969546"><ele>504.0</ele><time>2026-04-27T16:13:42.373Z</time></trkpt><trkpt lat="40.11711342348777" lon="9.120888375032969"><ele>504.0</ele><time>2026-04-27T16:13:43.373Z</time></trkpt><trkpt lat="40.11729385131789" lon="9.120846093304332"><ele>504.0</ele><time>2026-04-27T16:13:44.373Z</time></trkpt><trkpt lat="40.117448336292426" lon="9.120874258821715"><ele>503.66666666666663</ele><time>2026-04-27T16:13:45.373Z</time></trkpt><trkpt lat="40.117597839715685" lon="9.120996862865745"><ele>503.3333333333333</ele><time>2026-04-27T16:13:46.373Z</time></trkpt><trkpt lat="40.11774921432911" lon="9.12115101375178"><ele>503.0</ele><time>2026-04-27T16:13:47.373Z</time></trkpt><trkpt lat="40.11790717534921" lon="9.121309613841728"><ele>503.0</ele><time>2026-04-27T16:13:48.373Z</time></trkpt><trkpt lat="40.11806454673195" lon="9.12144660620875"><ele>503.0</ele><time>2026-04-27T16:13:49.373Z</time></trkpt><trkpt lat="40.11824172647207" lon="9.121530996332869"><ele>503.0</ele><time>2026-04-27T16:13:50.373Z</time></trkpt><trkpt lat="40.118444810133695" lon="9.121576335352817"><ele>498.66666666666663</ele><time>2026-04-27T16:13:51.373Z</time></trkpt><trkpt lat="40.11865195781352" lon="9.121599250973704"><ele>494.33333333333337</ele><time>2026-04-27T16:13:52.373Z</time></trkpt><trkpt lat="40.11884261942651" lon="9.12162704793929"><ele>490.0</ele><time>2026-04-27T16:13:53.373Z</time></trkpt><trkpt lat="40.119013850719014" lon="9.121646590739322"><ele>492.0</ele><time>2026-04-27T16:13:54.373Z</time></trkpt><trkpt lat="40.119171689321824" lon="9.121618005855787"><ele>494.0</ele><time>2026-04-27T16:13:55.373Z</time></trkpt><trkpt lat="40.11932122155123" lon="9.121527843234327"><ele>496.0</ele><time>2026-04-27T16:13:56.373Z</time></trkpt><trkpt lat="40.119461182943915" lon="9.121380568863767"><ele>496.0</ele><time>2026-04-27T16:13:57.373Z</time></trkpt><trkpt lat="40.11957656726092" lon="9.121175969542934"><ele>496.0</ele><time>2026-04-27T16:13:58.373Z</time></trkpt><trkpt lat="40.119665607409075" lon="9.120936958778614"><ele>496.0</ele><time>2026-04-27T16:13:59.373Z</time></trkpt><trkpt lat="40.11975825406403" lon="9.12068372953108"><ele>498.6666666666667</ele><time>2026-04-27T16:14:00.373Z</time></trkpt><trkpt lat="40.11985867433709" lon="9.120428459064657"><ele>501.33333333333337</ele><time>2026-04-27T16:14:01.373Z</time></trkpt><trkpt lat="40.11997365507939" lon="9.120229142414109"><ele>504.0</ele><time>2026-04-27T16:14:02.373Z</time></trkpt><trkpt lat="40.12007991039346" lon="9.11995206605969"><ele>493.0</ele><time>2026-04-27T16:14:03.373Z</time></trkpt><trkpt lat="40.12019549526767" lon="9.119676448883432"><ele>482.0</ele><time>2026-04-27T16:14:04.373Z</time></trkpt><trkpt lat="40.120306763163086" lon="9.11939812440849"><ele>482.0</ele><time>2026-04-27T16:14:05.373Z</time></trkpt><trkpt lat="40.12041260453419" lon="9.11913730816658"><ele>482.0</ele><time>2026-04-27T16:14:06.373Z</time></trkpt><trkpt lat="40.120511532627965" lon="9.118890256992671"><ele>482.0</ele><time>2026-04-27T16:14:07.373Z</time></trkpt><trkpt lat="40.120603288199746" lon="9.118652201388063"><ele>480.66666666666663</ele><time>2026-04-27T16:14:08.373Z</time></trkpt><trkpt lat="40.12069783854829" lon="9.118428681822136"><ele>479.33333333333337</ele><time>2026-04-27T16:14:09.373Z</time></trkpt><trkpt lat="40.120794914753205" lon="9.118253671053791"><ele>478.0</ele><time>2026-04-27T16:14:10.373Z</time></trkpt><trkpt lat="40.12091675907411" lon="9.118144542602602"><ele>476.0</ele><time>2026-04-27T16:14:11.373Z</time></trkpt><trkpt lat="40.12105660385237" lon="9.118113859332388"><ele>474.0</ele><time>2026-04-27T16:14:12.373Z</time></trkpt><trkpt lat="40.12120441863429" lon="9.118178524013317"><ele>472.0</ele><time>2026-04-27T16:14:13.373Z</time></trkpt><trkpt lat="40.1213362721022" lon="9.118306751256219"><ele>470.33333333333337</ele><time>2026-04-27T16:14:14.373Z</time></trkpt><trkpt lat="40.1214264394395" lon="9.118505775703078"><ele>468.66666666666663</ele><time>2026-04-27T16:14:15.373Z</time></trkpt><trkpt lat="40.121447470450484" lon="9.118746806017224"><ele>467.0</ele><time>2026-04-27T16:14:16.373Z</time></trkpt><trkpt lat="40.121395585105184" lon="9.118992819754412"><ele>465.0</ele><time>2026-04-27T16:14:17.373Z</time></trkpt><trkpt lat="40.121308901633896" lon="9.119239721089235"><ele>463.0</ele><time>2026-04-27T16:14:18.373Z</time></trkpt><trkpt lat="40.121241386962986" lon="9.119495817420615"><ele>461.0</ele><time>2026-04-27T16:14:19.373Z</time></trkpt><trkpt lat="40.12117337232914" lon="9.119768914748029"><ele>460.3333333333333</ele><time>2026-04-27T16:14:20.373Z</time></trkpt><trkpt lat="40.12110863497327" lon="9.120052834724834"><ele>459.66666666666663</ele><time>2026-04-27T16:14:21.373Z</time></trkpt><trkpt lat="40.1210359614449" lon="9.120325717161986"><ele>459.0</ele><time>2026-04-27T16:14:22.373Z</time></trkpt><trkpt lat="40.12096933514373" lon="9.120579519019456"><ele>458.0</ele><time>2026-04-27T16:14:23.373Z</time></trkpt><trkpt lat="40.12091226337514" lon="9.12082343135397"><ele>457.0</ele><time>2026-04-27T16:14:24.373Z</time></trkpt><trkpt lat="40.120859703297796" lon="9.12104762609806"><ele>456.0</ele><time>2026-04-27T16:14:25.373Z</time></trkpt><trkpt lat="40.12083853247156" lon="9.121252606510202"><ele>456.0</ele><time>2026-04-27T16:14:26.373Z</time></trkpt><trkpt lat="40.12087524908953" lon="9.121446652019381"><ele>456.0</ele><time>2026-04-27T16:14:27.373Z</time></trkpt><trkpt lat="40.120985958714606" lon="9.121621834439246"><ele>456.0</ele><time>2026-04-27T16:14:28.373Z</time></trkpt><trkpt lat="40.121145583406104" lon="9.12177215149279"><ele>455.66666666666663</ele><time>2026-04-27T16:14:29.373Z</time></trkpt><trkpt lat="40.12133086183769" lon="9.121874067437279"><ele>455.3333333333333</ele><time>2026-04-27T16:14:30.373Z</time></trkpt><trkpt lat="40.12154804106737" lon="9.121930402734401"><ele>455.0</ele><time>2026-04-27T16:14:31.373Z</time></trkpt><trkpt lat="40.12176534517759" lon="9.12200745425358"><ele>455.0</ele><time>2026-04-27T16:14:32.373Z</time></trkpt><trkpt lat="40.12197768574508" lon="9.12209812398983"><ele>455.0</ele><time>2026-04-27T16:14:33.373Z</time></trkpt><trkpt lat="40.12220064500868" lon="9.122189176793034"><ele>457.0</ele><time>2026-04-27T16:14:34.373Z</time></trkpt><trkpt lat="40.12242359953003" lon="9.122277448484677"><ele>459.0</ele><time>2026-04-27T16:14:35.373Z</time></trkpt><trkpt lat="40.122710316567805" lon="9.122346542945204"><ele>450.0</ele><time>2026-04-27T16:14:36.373Z</time></trkpt><trkpt lat="40.122927230255385" lon="9.122444685158174"><ele>441.0</ele><time>2026-04-27T16:14:37.373Z</time></trkpt><trkpt lat="40.1231450229343" lon="9.12253461283922"><ele>441.33333333333337</ele><time>2026-04-27T16:14:38.373Z</time></trkpt><trkpt lat="40.12336408918094" lon="9.122627352733685"><ele>441.6666666666667</ele><time>2026-04-27T16:14:39.373Z</time></trkpt><trkpt lat="40.123558468117814" lon="9.122713794851293"><ele>442.0</ele><time>2026-04-27T16:14:40.373Z</time></trkpt><trkpt lat="40.12373810434139" lon="9.122796782380865"><ele>442.0</ele><time>2026-04-27T16:14:41.373Z</time></trkpt><trkpt lat="40.123887631715455" lon="9.122889748775432"><ele>442.0</ele><time>2026-04-27T16:14:42.373Z</time></trkpt><trkpt lat="40.12400646107758" lon="9.123035341531747"><ele>442.0</ele><time>2026-04-27T16:14:43.373Z</time></trkpt><trkpt lat="40.12410676927595" lon="9.123244189307846"><ele>441.0</ele><time>2026-04-27T16:14:44.373Z</time></trkpt><trkpt lat="40.12418074486876" lon="9.123500258470564"><ele>440.0</ele><time>2026-04-27T16:14:45.373Z</time></trkpt><trkpt lat="40.124254553095035" lon="9.12376717199925"><ele>439.0</ele><time>2026-04-27T16:14:46.374Z</time></trkpt><trkpt lat="40.124338009005264" lon="9.12403072345104"><ele>435.6666666666667</ele><time>2026-04-27T16:14:47.374Z</time></trkpt><trkpt lat="40.12442086339056" lon="9.124272893510158"><ele>432.33333333333337</ele><time>2026-04-27T16:14:48.374Z</time></trkpt><trkpt lat="40.1244931723755" lon="9.124494302904656"><ele>429.0</ele><time>2026-04-27T16:14:49.374Z</time></trkpt><trkpt lat="40.12457858421925" lon="9.124685327712319"><ele>429.0</ele><time>2026-04-27T16:14:50.374Z</time></trkpt><trkpt lat="40.12469046333205" lon="9.12481245192327"><ele>429.0</ele><time>2026-04-27T16:14:51.374Z</time></trkpt><trkpt lat="40.124847697446384" lon="9.124860689793763"><ele>429.0</ele><time>2026-04-27T16:14:52.374Z</time></trkpt><trkpt lat="40.125049843541575" lon="9.124804054273778"><ele>433.33333333333337</ele><time>2026-04-27T16:14:53.374Z</time></trkpt><trkpt lat="40.12526378253982" lon="9.12473211623763"><ele>437.6666666666667</ele><time>2026-04-27T16:14:54.374Z</time></trkpt><trkpt lat="40.12547622231476" lon="9.124691655151048"><ele>442.0</ele><time>2026-04-27T16:14:55.374Z</time></trkpt><trkpt lat="40.12566507936132" lon="9.124687776084826"><ele>440.0</ele><time>2026-04-27T16:14:56.374Z</time></trkpt><trkpt lat="40.125815528564736" lon="9.124711824814117"><ele>438.0</ele><time>2026-04-27T16:14:57.374Z</time></trkpt><trkpt lat="40.125934890349505" lon="9.124807389531757"><ele>436.0</ele><time>2026-04-27T16:14:58.374Z</time></trkpt><trkpt lat="40.12602909986109" lon="9.124988155077785"><ele>432.33333333333337</ele><time>2026-04-27T16:14:59.374Z</time></trkpt><trkpt lat="40.126094400858214" lon="9.125220023780654"><ele>428.66666666666663</ele><time>2026-04-27T16:15:00.374Z</time></trkpt><trkpt lat="40.126125382293345" lon="9.1254861303707"><ele>425.0</ele><time>2026-04-27T16:15:01.374Z</time></trkpt><trkpt lat="40.12617888907423" lon="9.125724850652965"><ele>422.0</ele><time>2026-04-27T16:15:02.374Z</time></trkpt><trkpt lat="40.12622629730591" lon="9.125919456704134"><ele>419.0</ele><time>2026-04-27T16:15:03.374Z</time></trkpt><trkpt lat="40.12625712643027" lon="9.126096211255025"><ele>416.0</ele><time>2026-04-27T16:15:04.374Z</time></trkpt><trkpt lat="40.126262531058316" lon="9.126305674933384"><ele>416.0</ele><time>2026-04-27T16:15:05.374Z</time></trkpt><trkpt lat="40.12626602808226" lon="9.126544185075671"><ele>416.0</ele><time>2026-04-27T16:15:06.374Z</time></trkpt><trkpt lat="40.12626859677536" lon="9.126797759223335"><ele>416.0</ele><time>2026-04-27T16:15:07.374Z</time></trkpt><trkpt lat="40.12627434918006" lon="9.127068121292094"><ele>413.0</ele><time>2026-04-27T16:15:08.374Z</time></trkpt><trkpt lat="40.12627357519487" lon="9.127341097730278"><ele>410.0</ele><time>2026-04-27T16:15:09.374Z</time></trkpt><trkpt lat="40.126272846638884" lon="9.127613211664636"><ele>407.0</ele><time>2026-04-27T16:15:10.374Z</time></trkpt><trkpt lat="40.12627706427236" lon="9.127869427250703"><ele>404.0</ele><time>2026-04-27T16:15:11.374Z</time></trkpt><trkpt lat="40.12628294696905" lon="9.128084218363394"><ele>401.0</ele><time>2026-04-27T16:15:12.374Z</time></trkpt><trkpt lat="40.12631547847936" lon="9.128267360726129"><ele>398.0</ele><time>2026-04-27T16:15:13.374Z</time></trkpt><trkpt lat="40.12640397844457" lon="9.128415825790299"><ele>397.0</ele><time>2026-04-27T16:15:14.374Z</time></trkpt><trkpt lat="40.12654841350165" lon="9.128513960698381"><ele>396.0</ele><time>2026-04-27T16:15:15.374Z</time></trkpt><trkpt lat="40.12673000806001" lon="9.128552487146095"><ele>395.0</ele><time>2026-04-27T16:15:16.374Z</time></trkpt><trkpt lat="40.12694097400614" lon="9.128569184958238"><ele>398.66666666666663</ele><time>2026-04-27T16:15:17.374Z</time></trkpt><trkpt lat="40.12714598204253" lon="9.128615814431502"><ele>402.33333333333337</ele><time>2026-04-27T16:15:18.374Z</time></trkpt><trkpt lat="40.12733772147347" lon="9.128678313830747"><ele>406.0</ele><time>2026-04-27T16:15:19.374Z</time></trkpt><trkpt lat="40.12751727069506" lon="9.128757624106777"><ele>408.33333333333337</ele><time>2026-04-27T16:15:20.374Z</time></trkpt><trkpt lat="40.12766472396337" lon="9.128868243964378"><ele>410.66666666666663</ele><time>2026-04-27T16:15:21.376Z</time></trkpt><trkpt lat="40.12777849098595" lon="9.129044149482167"><ele>413.0</ele><time>2026-04-27T16:15:22.376Z</time></trkpt><trkpt lat="40.127852966656484" lon="9.12928014200428"><ele>406.0</ele><time>2026-04-27T16:15:23.376Z</time></trkpt><trkpt lat="40.127869710172874" lon="9.129533153242027"><ele>399.0</ele><time>2026-04-27T16:15:24.376Z</time></trkpt><trkpt lat="40.127855860492" lon="9.129767968425353"><ele>392.0</ele><time>2026-04-27T16:15:25.376Z</time></trkpt><trkpt lat="40.12787332217479" lon="9.129957255372378"><ele>393.66666666666663</ele><time>2026-04-27T16:15:26.376Z</time></trkpt><trkpt lat="40.127969009200946" lon="9.130107386099882"><ele>395.33333333333337</ele><time>2026-04-27T16:15:27.376Z</time></trkpt><trkpt lat="40.128132505955804" lon="9.130189320738758"><ele>397.0</ele><time>2026-04-27T16:15:28.376Z</time></trkpt><trkpt lat="40.12833401712647" lon="9.130209867281271"><ele>397.0</ele><time>2026-04-27T16:15:29.376Z</time></trkpt><trkpt lat="40.12854219391487" lon="9.130244734429713"><ele>397.0</ele><time>2026-04-27T16:15:30.376Z</time></trkpt><trkpt lat="40.128735109661086" lon="9.130358783255744"><ele>397.0</ele><time>2026-04-27T16:15:31.376Z</time></trkpt><trkpt lat="40.12891338456418" lon="9.13052933246574"><ele>394.6666666666667</ele><time>2026-04-27T16:15:32.376Z</time></trkpt><trkpt lat="40.12907800429113" lon="9.130725529977706"><ele>392.33333333333337</ele><time>2026-04-27T16:15:33.376Z</time></trkpt><trkpt lat="40.129226037930955" lon="9.130945535043985"><ele>390.0</ele><time>2026-04-27T16:15:34.376Z</time></trkpt><trkpt lat="40.129347568340876" lon="9.131187429069776"><ele>390.0</ele><time>2026-04-27T16:15:35.376Z</time></trkpt><trkpt lat="40.12943812363988" lon="9.131456792445057"><ele>390.0</ele><time>2026-04-27T16:15:36.376Z</time></trkpt><trkpt lat="40.12951724167801" lon="9.131706207296011"><ele>390.0</ele><time>2026-04-27T16:15:37.376Z</time></trkpt><trkpt lat="40.129595289465875" lon="9.13191528436218"><ele>385.5</ele><time>2026-04-27T16:15:38.376Z</time></trkpt><trkpt lat="40.129685247267695" lon="9.132072359347124"><ele>381.0</ele><time>2026-04-27T16:15:39.376Z</time></trkpt><trkpt lat="40.12979297604654" lon="9.132157207863015"><ele>376.5</ele><time>2026-04-27T16:15:40.376Z</time></trkpt><trkpt lat="40.12991349470039" lon="9.132164335906793"><ele>372.0</ele><time>2026-04-27T16:15:41.376Z</time></trkpt><trkpt lat="40.130029870072" lon="9.132060948424407"><ele>370.6666666666667</ele><time>2026-04-27T16:15:42.376Z</time></trkpt><trkpt lat="40.13009228785184" lon="9.13191147397041"><ele>369.33333333333337</ele><time>2026-04-27T16:15:43.376Z</time></trkpt><trkpt lat="40.130097007341995" lon="9.131683179486618"><ele>368.0</ele><time>2026-04-27T16:15:44.376Z</time></trkpt><trkpt lat="40.13009842536189" lon="9.131439471270538"><ele>374.0</ele><time>2026-04-27T16:15:45.376Z</time></trkpt><trkpt lat="40.13012859187975" lon="9.131184903633859"><ele>380.0</ele><time>2026-04-27T16:15:46.376Z</time></trkpt><trkpt lat="40.13016888984118" lon="9.130918955322322"><ele>386.0</ele><time>2026-04-27T16:15:47.376Z</time></trkpt><trkpt lat="40.13023835699927" lon="9.130657059405845"><ele>386.0</ele><time>2026-04-27T16:15:48.376Z</time></trkpt><trkpt lat="40.1303381930916" lon="9.13041296072777"><ele>386.0</ele><time>2026-04-27T16:15:49.376Z</time></trkpt><trkpt lat="40.13045131015944" lon="9.130183819015876"><ele>386.0</ele><time>2026-04-27T16:15:50.376Z</time></trkpt><trkpt lat="40.13054853792102" lon="9.129976105447225"><ele>384.0</ele><time>2026-04-27T16:15:51.376Z</time></trkpt><trkpt lat="40.130608888221246" lon="9.129816736973817"><ele>382.0</ele><time>2026-04-27T16:15:52.376Z</time></trkpt><trkpt lat="40.13061014589319" lon="9.129642427219483"><ele>380.0</ele><time>2026-04-27T16:15:53.376Z</time></trkpt><trkpt lat="40.13053541856235" lon="9.129478623071865"><ele>378.0</ele><time>2026-04-27T16:15:54.376Z</time></trkpt><trkpt lat="40.130391760360766" lon="9.129333238169332"><ele>378.0</ele><time>2026-04-27T16:15:55.376Z</time></trkpt><trkpt lat="40.130239482921816" lon="9.129209291590099"><ele>378.0</ele><time>2026-04-27T16:15:56.376Z</time></trkpt><trkpt lat="40.13015486774336" lon="9.129080904555908"><ele>378.0</ele><time>2026-04-27T16:15:57.376Z</time></trkpt><trkpt lat="40.130155688544164" lon="9.128913600002832"><ele>378.0</ele><time>2026-04-27T16:15:58.376Z</time></trkpt><trkpt lat="40.13022251797441" lon="9.12874559116657"><ele>378.0</ele><time>2026-04-27T16:15:59.376Z</time></trkpt><trkpt lat="40.13030244227958" lon="9.128647982561727"><ele>378.0</ele><time>2026-04-27T16:16:00.376Z</time></trkpt><trkpt lat="40.13039515640609" lon="9.128648843444727"><ele>378.0</ele><time>2026-04-27T16:16:01.376Z</time></trkpt><trkpt lat="40.13047768098767" lon="9.12872458810016"><ele>378.0</ele><time>2026-04-27T16:16:02.376Z</time></trkpt><trkpt lat="40.130503520057566" lon="9.128894700883134"><ele>378.0</ele><time>2026-04-27T16:16:03.376Z</time></trkpt><trkpt lat="40.1304671149741" lon="9.129107154994847"><ele>378.0</ele><time>2026-04-27T16:16:04.377Z</time></trkpt><trkpt lat="40.130478469067775" lon="9.129296713976517"><ele>378.0</ele><time>2026-04-27T16:16:05.377Z</time></trkpt><trkpt lat="40.13056696164472" lon="9.129430525461569"><ele>378.0</ele><time>2026-04-27T16:16:06.377Z</time></trkpt><trkpt lat="40.13070922851295" lon="9.12953103610111"><ele>378.0</ele><time>2026-04-27T16:16:07.377Z</time></trkpt><trkpt lat="40.13084267102355" lon="9.129619156152614"><ele>370.75</ele><time>2026-04-27T16:16:08.377Z</time></trkpt><trkpt lat="40.13090048327908" lon="9.12977007099596"><ele>363.5</ele><time>2026-04-27T16:16:09.377Z</time></trkpt><trkpt lat="40.13088441749008" lon="9.129966779515492"><ele>356.25</ele><time>2026-04-27T16:16:10.377Z</time></trkpt><trkpt lat="40.130878849212024" lon="9.130139948367205"><ele>349.0</ele><time>2026-04-27T16:16:11.377Z</time></trkpt><trkpt lat="40.13091594723336" lon="9.130277821686077"><ele>349.0</ele><time>2026-04-27T16:16:12.377Z</time></trkpt><trkpt lat="40.13102861904802" lon="9.130379261205396"><ele>349.0</ele><time>2026-04-27T16:16:13.377Z</time></trkpt><trkpt lat="40.131144011295284" lon="9.130452206483636"><ele>349.0</ele><time>2026-04-27T16:16:14.377Z</time></trkpt><trkpt lat="40.131256199713995" lon="9.130519396589209"><ele>349.0</ele><time>2026-04-27T16:16:15.377Z</time></trkpt><trkpt lat="40.1313614011063" lon="9.130599899031221"><ele>349.0</ele><time>2026-04-27T16:16:16.377Z</time></trkpt><trkpt lat="40.131474570544164" lon="9.130686503992123"><ele>349.0</ele><time>2026-04-27T16:16:17.377Z</time></trkpt><trkpt lat="40.131590029389486" lon="9.13077903086731"><ele>349.0</ele><time>2026-04-27T16:16:18.377Z</time></trkpt><trkpt lat="40.131710964059685" lon="9.130860666113541"><ele>349.0</ele><time>2026-04-27T16:16:19.377Z</time></trkpt><trkpt lat="40.131836683433974" lon="9.130945334735113"><ele>346.0</ele><time>2026-04-27T16:16:20.377Z</time></trkpt><trkpt lat="40.13195366527714" lon="9.131051377566934"><ele>343.0</ele><time>2026-04-27T16:16:21.377Z</time></trkpt><trkpt lat="40.132053763468896" lon="9.131196061472329"><ele>340.0</ele><time>2026-04-27T16:16:22.377Z</time></trkpt><trkpt lat="40.132148608080534" lon="9.131367812000176"><ele>340.0</ele><time>2026-04-27T16:16:23.377Z</time></trkpt><trkpt lat="40.132237532553" lon="9.13154781625078"><ele>340.0</ele><time>2026-04-27T16:16:24.377Z</time></trkpt><trkpt lat="40.13233107157085" lon="9.131727611084516"><ele>340.0</ele><time>2026-04-27T16:16:25.377Z</time></trkpt><trkpt lat="40.13243735797719" lon="9.13190870423733"><ele>344.0</ele><time>2026-04-27T16:16:26.377Z</time></trkpt><trkpt lat="40.132548598692836" lon="9.132098052243785"><ele>348.0</ele><time>2026-04-27T16:16:27.377Z</time></trkpt><trkpt lat="40.13266909868251" lon="9.132297246082503"><ele>352.0</ele><time>2026-04-27T16:16:28.377Z</time></trkpt><trkpt lat="40.13278034199692" lon="9.132505238784844"><ele>352.0</ele><time>2026-04-27T16:16:29.377Z</time></trkpt><trkpt lat="40.13285795332931" lon="9.132740868571537"><ele>352.0</ele><time>2026-04-27T16:16:30.377Z</time></trkpt><trkpt lat="40.132903086077036" lon="9.132994942716085"><ele>352.0</ele><time>2026-04-27T16:16:31.377Z</time></trkpt><trkpt lat="40.13293818607694" lon="9.133245929110556"><ele>350.3333333333333</ele><time>2026-04-27T16:16:32.377Z</time></trkpt><trkpt lat="40.13295091157885" lon="9.133499949188215"><ele>348.6666666666667</ele><time>2026-04-27T16:16:33.377Z</time></trkpt><trkpt lat="40.1329146443438" lon="9.13375680510524"><ele>347.0</ele><time>2026-04-27T16:16:34.377Z</time></trkpt><trkpt lat="40.13285736749218" lon="9.134016437671912"><ele>347.33333333333337</ele><time>2026-04-27T16:16:35.377Z</time></trkpt><trkpt lat="40.13280254603947" lon="9.134276852886575"><ele>347.6666666666667</ele><time>2026-04-27T16:16:36.377Z</time></trkpt><trkpt lat="40.13275080509594" lon="9.134547816461282"><ele>348.0</ele><time>2026-04-27T16:16:37.377Z</time></trkpt><trkpt lat="40.132697762700495" lon="9.134823452401864"><ele>349.3333333333333</ele><time>2026-04-27T16:16:38.377Z</time></trkpt><trkpt lat="40.132644352437545" lon="9.135084301897502"><ele>350.66666666666663</ele><time>2026-04-27T16:16:39.377Z</time></trkpt><trkpt lat="40.132592831342926" lon="9.135321027420105"><ele>352.0</ele><time>2026-04-27T16:16:40.377Z</time></trkpt><trkpt lat="40.13254095884516" lon="9.135539219298751"><ele>353.3333333333333</ele><time>2026-04-27T16:16:41.377Z</time></trkpt><trkpt lat="40.13250219640745" lon="9.135751454516715"><ele>354.6666666666667</ele><time>2026-04-27T16:16:42.377Z</time></trkpt><trkpt lat="40.13250569353383" lon="9.135991767011879"><ele>356.0</ele><time>2026-04-27T16:16:43.377Z</time></trkpt><trkpt lat="40.13254955730141" lon="9.136245153068433"><ele>356.0</ele><time>2026-04-27T16:16:44.377Z</time></trkpt><trkpt lat="40.13261578669164" lon="9.136481506395459"><ele>356.0</ele><time>2026-04-27T16:16:45.377Z</time></trkpt><trkpt lat="40.13267808014023" lon="9.136668285817569"><ele>356.0</ele><time>2026-04-27T16:16:46.377Z</time></trkpt><trkpt lat="40.132750207399866" lon="9.136827319229672"><ele>354.6666666666667</ele><time>2026-04-27T16:16:47.377Z</time></trkpt><trkpt lat="40.13285300949506" lon="9.136990202604025"><ele>353.3333333333333</ele><time>2026-04-27T16:16:48.377Z</time></trkpt><trkpt lat="40.13297723413595" lon="9.137144939837322"><ele>352.0</ele><time>2026-04-27T16:16:49.377Z</time></trkpt><trkpt lat="40.13310921895973" lon="9.137296484662484"><ele>356.66666666666663</ele><time>2026-04-27T16:16:50.377Z</time></trkpt><trkpt lat="40.133253906468106" lon="9.137447018666368"><ele>361.3333333333333</ele><time>2026-04-27T16:16:51.377Z</time></trkpt><trkpt lat="40.13341448126115" lon="9.137573885776677"><ele>366.0</ele><time>2026-04-27T16:16:52.377Z</time></trkpt><trkpt lat="40.133583224682035" lon="9.137676589415376"><ele>366.0</ele><time>2026-04-27T16:16:53.377Z</time></trkpt><trkpt lat="40.13376703542339" lon="9.137784057759959"><ele>366.0</ele><time>2026-04-27T16:16:54.377Z</time></trkpt><trkpt lat="40.133947499258134" lon="9.13790938021541"><ele>366.0</ele><time>2026-04-27T16:16:55.377Z</time></trkpt><trkpt lat="40.134127035492746" lon="9.138047472805845"><ele>365.3333333333333</ele><time>2026-04-27T16:16:56.377Z</time></trkpt><trkpt lat="40.13429776535411" lon="9.138183336370721"><ele>364.66666666666663</ele><time>2026-04-27T16:16:57.377Z</time></trkpt><trkpt lat="40.13448644277244" lon="9.138276310728116"><ele>364.0</ele><time>2026-04-27T16:16:58.377Z</time></trkpt><trkpt lat="40.13468364105694" lon="9.138336949537774"><ele>370.3333333333333</ele><time>2026-04-27T16:16:59.377Z</time></trkpt><trkpt lat="40.13489426091267" lon="9.138374719218486"><ele>376.6666666666667</ele><time>2026-04-27T16:17:00.377Z</time></trkpt><trkpt lat="40.13510493043997" lon="9.138396267816661"><ele>383.0</ele><time>2026-04-27T16:17:01.377Z</time></trkpt><trkpt lat="40.13530921021909" lon="9.138451913872796"><ele>383.0</ele><time>2026-04-27T16:17:02.377Z</time></trkpt><trkpt lat="40.135498516130575" lon="9.138557439682547"><ele>383.0</ele><time>2026-04-27T16:17:03.377Z</time></trkpt><trkpt lat="40.135688848512025" lon="9.138682276278416"><ele>383.0</ele><time>2026-04-27T16:17:04.377Z</time></trkpt><trkpt lat="40.13588728963753" lon="9.138788222400771"><ele>389.6666666666667</ele><time>2026-04-27T16:17:05.377Z</time></trkpt><trkpt lat="40.13610045278704" lon="9.13886950868873"><ele>396.33333333333337</ele><time>2026-04-27T16:17:06.377Z</time></trkpt><trkpt lat="40.13631851061898" lon="9.138936990942852"><ele>403.0</ele><time>2026-04-27T16:17:07.377Z</time></trkpt><trkpt lat="40.136538113716185" lon="9.139006655318566"><ele>398.0</ele><time>2026-04-27T16:17:08.377Z</time></trkpt><trkpt lat="40.136759036744856" lon="9.139084636055594"><ele>393.0</ele><time>2026-04-27T16:17:09.377Z</time></trkpt><trkpt lat="40.136983438148384" lon="9.139168349216176"><ele>393.0</ele><time>2026-04-27T16:17:10.377Z</time></trkpt><trkpt lat="40.13720511294672" lon="9.139248985519558"><ele>393.0</ele><time>2026-04-27T16:17:11.377Z</time></trkpt><trkpt lat="40.13742026914327" lon="9.139340645633096"><ele>400.5</ele><time>2026-04-27T16:17:12.377Z</time></trkpt><trkpt lat="40.13763995877978" lon="9.13940706370931"><ele>408.0</ele><time>2026-04-27T16:17:13.377Z</time></trkpt><trkpt lat="40.13786518091973" lon="9.13944590280601"><ele>408.0</ele><time>2026-04-27T16:17:14.377Z</time></trkpt><trkpt lat="40.13808607485428" lon="9.139479066141183"><ele>408.0</ele><time>2026-04-27T16:17:15.377Z</time></trkpt><trkpt lat="40.138295030164706" lon="9.139555821895534"><ele>408.0</ele><time>2026-04-27T16:17:16.377Z</time></trkpt><trkpt lat="40.13849228765048" lon="9.139673657571722"><ele>411.66666666666663</ele><time>2026-04-27T16:17:17.378Z</time></trkpt><trkpt lat="40.13867058763642" lon="9.139781206584534"><ele>415.3333333333333</ele><time>2026-04-27T16:17:18.378Z</time></trkpt><trkpt lat="40.13885404601014" lon="9.13984047212147"><ele>419.0</ele><time>2026-04-27T16:17:19.378Z</time></trkpt><trkpt lat="40.13905495866221" lon="9.139833246450726"><ele>421.66666666666663</ele><time>2026-04-27T16:17:20.378Z</time></trkpt><trkpt lat="40.13926180553776" lon="9.139783224984185"><ele>424.33333333333337</ele><time>2026-04-27T16:17:21.378Z</time></trkpt><trkpt lat="40.13947130950816" lon="9.139729453721547"><ele>427.0</ele><time>2026-04-27T16:17:22.378Z</time></trkpt><trkpt lat="40.13968850829295" lon="9.139688694021128"><ele>431.33333333333337</ele><time>2026-04-27T16:17:23.378Z</time></trkpt><trkpt lat="40.13991377070013" lon="9.139683153448951"><ele>435.66666666666663</ele><time>2026-04-27T16:17:24.378Z</time></trkpt><trkpt lat="40.14013545915896" lon="9.139713474425706"><ele>440.0</ele><time>2026-04-27T16:17:25.378Z</time></trkpt><trkpt lat="40.1403583063668" lon="9.139748002530467"><ele>440.0</ele><time>2026-04-27T16:17:26.378Z</time></trkpt><trkpt lat="40.1405836739437" lon="9.139777726398192"><ele>440.0</ele><time>2026-04-27T16:17:27.379Z</time></trkpt><trkpt lat="40.14081183084237" lon="9.139803945783374"><ele>443.5</ele><time>2026-04-27T16:17:28.379Z</time></trkpt><trkpt lat="40.141037675015966" lon="9.139801999432725"><ele>447.0</ele><time>2026-04-27T16:17:29.379Z</time></trkpt><trkpt lat="40.1412654413204" lon="9.13977914442327"><ele>447.0</ele><time>2026-04-27T16:17:30.379Z</time></trkpt><trkpt lat="40.14149028006946" lon="9.139758661575875"><ele>447.0</ele><time>2026-04-27T16:17:31.379Z</time></trkpt><trkpt lat="40.14169470040342" lon="9.139740332230186"><ele>447.0</ele><time>2026-04-27T16:17:32.379Z</time></trkpt><trkpt lat="40.14187766165291" lon="9.139734757730357"><ele>449.66666666666663</ele><time>2026-04-27T16:17:33.379Z</time></trkpt><trkpt lat="40.14203860726492" lon="9.139776658027035"><ele>452.3333333333333</ele><time>2026-04-27T16:17:34.379Z</time></trkpt><trkpt lat="40.14219908906085" lon="9.139861105252237"><ele>455.0</ele><time>2026-04-27T16:17:35.379Z</time></trkpt><trkpt lat="40.14236093933361" lon="9.13995181491952"><ele>452.66666666666663</ele><time>2026-04-27T16:17:36.379Z</time></trkpt><trkpt lat="40.14251927301509" lon="9.140047865067586"><ele>450.33333333333337</ele><time>2026-04-27T16:17:37.379Z</time></trkpt><trkpt lat="40.142680957079975" lon="9.140140292506391"><ele>448.0</ele><time>2026-04-27T16:17:38.379Z</time></trkpt><trkpt lat="40.142841139741165" lon="9.140209820010428"><ele>448.0</ele><time>2026-04-27T16:17:39.379Z</time></trkpt><trkpt lat="40.14299893316593" lon="9.140230426160482"><ele>448.0</ele><time>2026-04-27T16:17:40.379Z</time></trkpt><trkpt lat="40.143147125787365" lon="9.140171953613946"><ele>448.0</ele><time>2026-04-27T16:17:41.379Z</time></trkpt><trkpt lat="40.143281157348106" lon="9.140054624537356"><ele>451.33333333333337</ele><time>2026-04-27T16:17:42.379Z</time></trkpt><trkpt lat="40.14340033588392" lon="9.13990278222429"><ele>454.66666666666663</ele><time>2026-04-27T16:17:43.379Z</time></trkpt><trkpt lat="40.143527161839025" lon="9.139749781725088"><ele>458.0</ele><time>2026-04-27T16:17:44.379Z</time></trkpt><trkpt lat="40.14366310659934" lon="9.13960710905809"><ele>461.3333333333333</ele><time>2026-04-27T16:17:45.379Z</time></trkpt><trkpt lat="40.14379929608956" lon="9.139460651467587"><ele>464.66666666666663</ele><time>2026-04-27T16:17:46.379Z</time></trkpt><trkpt lat="40.1439355501369" lon="9.13930775814121"><ele>468.0</ele><time>2026-04-27T16:17:47.379Z</time></trkpt><trkpt lat="40.14407123281669" lon="9.139158109907111"><ele>467.59999999999997</ele><time>2026-04-27T16:17:48.379Z</time></trkpt><trkpt lat="40.144185476207795" lon="9.139032464941383"><ele>467.19999999999993</ele><time>2026-04-27T16:17:49.379Z</time></trkpt><trkpt lat="40.14426989799984" lon="9.138934174619099"><ele>466.8</ele><time>2026-04-27T16:17:50.379Z</time></trkpt><trkpt lat="40.14433589488144" lon="9.1388608613531"><ele>466.4</ele><time>2026-04-27T16:17:51.379Z</time></trkpt><trkpt lat="40.14442905560947" lon="9.138822372989411"><ele>466.0</ele><time>2026-04-27T16:17:53.379Z</time></trkpt><trkpt lat="40.14445747269842" lon="9.138909161483381"><ele>466.0</ele><time>2026-04-27T16:17:55.379Z</time></trkpt><trkpt lat="40.1443757328589" lon="9.138998360812106"><ele>466.0</ele><time>2026-04-27T16:17:57.379Z</time></trkpt><trkpt lat="40.144316906620446" lon="9.139038716623386"><ele>466.0</ele><time>2026-04-27T16:17:58.379Z</time></trkpt><trkpt lat="40.144254376860616" lon="9.139113743598365"><ele>466.0</ele><time>2026-04-27T16:17:59.379Z</time></trkpt><trkpt lat="40.14418360887981" lon="9.139198326025785"><ele>466.0</ele><time>2026-04-27T16:18:00.379Z</time></trkpt><trkpt lat="40.14411591527097" lon="9.139290647369059"><ele>466.4</ele><time>2026-04-27T16:18:01.379Z</time></trkpt><trkpt lat="40.144041581221096" lon="9.139385269144904"><ele>466.8</ele><time>2026-04-27T16:18:02.379Z</time></trkpt><trkpt lat="40.14396146162782" lon="9.139485061627735"><ele>467.19999999999993</ele><time>2026-04-27T16:18:03.379Z</time></trkpt><trkpt lat="40.14387949119305" lon="9.139585341849696"><ele>467.59999999999997</ele><time>2026-04-27T16:18:04.379Z</time></trkpt><trkpt lat="40.143790857086536" lon="9.139681232477312"><ele>468.0</ele><time>2026-04-27T16:18:05.379Z</time></trkpt><trkpt lat="40.14370059369053" lon="9.139773656002589"><ele>468.0</ele><time>2026-04-27T16:18:06.379Z</time></trkpt><trkpt lat="40.143621526685095" lon="9.139883474980339"><ele>468.0</ele><time>2026-04-27T16:18:07.379Z</time></trkpt><trkpt lat="40.1435741907479" lon="9.140021740610859"><ele>468.0</ele><time>2026-04-27T16:18:08.379Z</time></trkpt><trkpt lat="40.143546763711704" lon="9.1401678082181"><ele>468.0</ele><time>2026-04-27T16:18:09.379Z</time></trkpt><trkpt lat="40.143532493888365" lon="9.140308897508607"><ele>466.4</ele><time>2026-04-27T16:18:10.379Z</time></trkpt><trkpt lat="40.14353351577352" lon="9.14044929605772"><ele>464.79999999999995</ele><time>2026-04-27T16:18:11.379Z</time></trkpt><trkpt lat="40.14353673794309" lon="9.140592517632689"><ele>463.2</ele><time>2026-04-27T16:18:12.379Z</time></trkpt><trkpt lat="40.14353858362664" lon="9.140733176696038"><ele>461.6</ele><time>2026-04-27T16:18:13.379Z</time></trkpt><trkpt lat="40.14353967197644" lon="9.140871584133809"><ele>460.0</ele><time>2026-04-27T16:18:14.379Z</time></trkpt><trkpt lat="40.14354348928669" lon="9.141005002634062"><ele>460.0</ele><time>2026-04-27T16:18:15.379Z</time></trkpt><trkpt lat="40.14355186342704" lon="9.141137232587846"><ele>460.0</ele><time>2026-04-27T16:18:16.379Z</time></trkpt><trkpt lat="40.14356176321772" lon="9.141266749443798"><ele>460.0</ele><time>2026-04-27T16:18:17.379Z</time></trkpt><trkpt lat="40.14357931547249" lon="9.141398082081627"><ele>460.0</ele><time>2026-04-27T16:18:18.379Z</time></trkpt><trkpt lat="40.14360436530086" lon="9.141521351020566"><ele>460.0</ele><time>2026-04-27T16:18:19.379Z</time></trkpt><trkpt lat="40.1436436610144" lon="9.141638515315487"><ele>461.0</ele><time>2026-04-27T16:18:20.379Z</time></trkpt><trkpt lat="40.143706428125405" lon="9.14173156958453"><ele>462.0</ele><time>2026-04-27T16:18:21.379Z</time></trkpt><trkpt lat="40.1437911880309" lon="9.141789523340258"><ele>463.0</ele><time>2026-04-27T16:18:22.379Z</time></trkpt><trkpt lat="40.14387817334762" lon="9.141805009571657"><ele>464.0</ele><time>2026-04-27T16:18:23.38Z</time></trkpt><trkpt lat="40.14397311745563" lon="9.141781246611615"><ele>465.0</ele><time>2026-04-27T16:18:24.38Z</time></trkpt><trkpt lat="40.14406728832856" lon="9.141740423608615"><ele>466.6</ele><time>2026-04-27T16:18:25.38Z</time></trkpt><trkpt lat="40.14416506870061" lon="9.141683833666603"><ele>468.2</ele><time>2026-04-27T16:18:26.38Z</time></trkpt><trkpt lat="40.14426302740024" lon="9.141625782972332"><ele>469.79999999999995</ele><time>2026-04-27T16:18:27.38Z</time></trkpt><trkpt lat="40.14436308100818" lon="9.141574393052855"><ele>471.4</ele><time>2026-04-27T16:18:28.38Z</time></trkpt><trkpt lat="40.14446251293105" lon="9.14151657442177"><ele>473.0</ele><time>2026-04-27T16:18:29.38Z</time></trkpt><trkpt lat="40.14455910103245" lon="9.141457993575703"><ele>473.0</ele><time>2026-04-27T16:18:30.38Z</time></trkpt><trkpt lat="40.14466096833002" lon="9.14140592708138"><ele>473.0</ele><time>2026-04-27T16:18:31.38Z</time></trkpt><trkpt lat="40.14476294496884" lon="9.141341056055683"><ele>473.0</ele><time>2026-04-27T16:18:32.38Z</time></trkpt><trkpt lat="40.14486540314624" lon="9.14127057930374"><ele>473.0</ele><time>2026-04-27T16:18:33.38Z</time></trkpt><trkpt lat="40.14497331377243" lon="9.141205852824688"><ele>475.79999999999995</ele><time>2026-04-27T16:18:34.38Z</time></trkpt><trkpt lat="40.14508212197331" lon="9.14115019829392"><ele>478.59999999999997</ele><time>2026-04-27T16:18:35.38Z</time></trkpt><trkpt lat="40.145191213075606" lon="9.14110825708713"><ele>481.40000000000003</ele><time>2026-04-27T16:18:36.38Z</time></trkpt><trkpt lat="40.14530059766427" lon="9.141077908519302"><ele>484.20000000000005</ele><time>2026-04-27T16:18:37.38Z</time></trkpt><trkpt lat="40.14540282417878" lon="9.14106672728286"><ele>487.0</ele><time>2026-04-27T16:18:38.38Z</time></trkpt><trkpt lat="40.14548990473675" lon="9.14109356084641"><ele>487.0</ele><time>2026-04-27T16:18:39.38Z</time></trkpt><trkpt lat="40.14555601961236" lon="9.141156989064815"><ele>487.00000000000006</ele><time>2026-04-27T16:18:40.38Z</time></trkpt><trkpt lat="40.145601421496785" lon="9.141242368226115"><ele>487.00000000000006</ele><time>2026-04-27T16:18:41.38Z</time></trkpt><trkpt lat="40.14562188913942" lon="9.141355439437628"><ele>487.0</ele><time>2026-04-27T16:18:42.38Z</time></trkpt><trkpt lat="40.145611258965495" lon="9.141477869342694"><ele>487.0</ele><time>2026-04-27T16:18:43.38Z</time></trkpt><trkpt lat="40.145584674162" lon="9.141612844749579"><ele>488.0</ele><time>2026-04-27T16:18:44.38Z</time></trkpt><trkpt lat="40.14555606689961" lon="9.141765978899056"><ele>489.0</ele><time>2026-04-27T16:18:45.38Z</time></trkpt><trkpt lat="40.14552596827933" lon="9.14191676194141"><ele>490.0</ele><time>2026-04-27T16:18:46.38Z</time></trkpt><trkpt lat="40.14549224602046" lon="9.142072880477567"><ele>491.0</ele><time>2026-04-27T16:18:47.38Z</time></trkpt><trkpt lat="40.14545585488399" lon="9.14223263937683"><ele>493.0</ele><time>2026-04-27T16:18:48.38Z</time></trkpt><trkpt lat="40.14541409763393" lon="9.142389218080943"><ele>495.0</ele><time>2026-04-27T16:18:49.38Z</time></trkpt><trkpt lat="40.14535819870574" lon="9.14254383187017"><ele>497.0</ele><time>2026-04-27T16:18:50.38Z</time></trkpt><trkpt lat="40.145291712121136" lon="9.142687586308561"><ele>499.0</ele><time>2026-04-27T16:18:51.38Z</time></trkpt><trkpt lat="40.14520787450807" lon="9.142816985820009"><ele>499.0</ele><time>2026-04-27T16:18:52.38Z</time></trkpt><trkpt lat="40.145105019774434" lon="9.142930943113363"><ele>499.0</ele><time>2026-04-27T16:18:53.38Z</time></trkpt><trkpt lat="40.14498788926368" lon="9.143024228352179"><ele>499.0</ele><time>2026-04-27T16:18:54.38Z</time></trkpt><trkpt lat="40.144874144325755" lon="9.143113070309893"><ele>499.0</ele><time>2026-04-27T16:18:55.38Z</time></trkpt><trkpt lat="40.14475914265783" lon="9.143202004686826"><ele>501.0</ele><time>2026-04-27T16:18:56.38Z</time></trkpt><trkpt lat="40.14464233144535" lon="9.14328922486872"><ele>503.0</ele><time>2026-04-27T16:18:57.38Z</time></trkpt><trkpt lat="40.14451715153688" lon="9.14336842773858"><ele>505.0</ele><time>2026-04-27T16:18:58.38Z</time></trkpt><trkpt lat="40.14439140821565" lon="9.143444410589709"><ele>507.0</ele><time>2026-04-27T16:18:59.38Z</time></trkpt><trkpt lat="40.144266308891666" lon="9.143525122942558"><ele>507.0</ele><time>2026-04-27T16:19:00.38Z</time></trkpt><trkpt lat="40.14414310608342" lon="9.143602083582593"><ele>507.0</ele><time>2026-04-27T16:19:01.38Z</time></trkpt><trkpt lat="40.14402800612227" lon="9.143692860101918"><ele>507.0</ele><time>2026-04-27T16:19:02.38Z</time></trkpt><trkpt lat="40.14391827211198" lon="9.14380736348228"><ele>507.0</ele><time>2026-04-27T16:19:03.38Z</time></trkpt><trkpt lat="40.143817127305766" lon="9.143933758744756"><ele>509.75</ele><time>2026-04-27T16:19:04.38Z</time></trkpt><trkpt lat="40.14371656501062" lon="9.144062085427606"><ele>512.5</ele><time>2026-04-27T16:19:05.38Z</time></trkpt><trkpt lat="40.14361296780819" lon="9.144189719299918"><ele>515.25</ele><time>2026-04-27T16:19:06.38Z</time></trkpt><trkpt lat="40.14350701511265" lon="9.14431724655757"><ele>518.0</ele><time>2026-04-27T16:19:07.38Z</time></trkpt><trkpt lat="40.143400337950524" lon="9.14444431851099"><ele>518.0</ele><time>2026-04-27T16:19:08.38Z</time></trkpt><trkpt lat="40.14329500210414" lon="9.144564887059955"><ele>518.0</ele><time>2026-04-27T16:19:09.38Z</time></trkpt><trkpt lat="40.14319373503109" lon="9.14468874733411"><ele>518.0</ele><time>2026-04-27T16:19:10.38Z</time></trkpt><trkpt lat="40.14309305565812" lon="9.144814267602666"><ele>518.0</ele><time>2026-04-27T16:19:11.38Z</time></trkpt><trkpt lat="40.14298683230002" lon="9.144939625950842"><ele>520.75</ele><time>2026-04-27T16:19:12.38Z</time></trkpt><trkpt lat="40.14288057079684" lon="9.145063831007992"><ele>523.5</ele><time>2026-04-27T16:19:13.38Z</time></trkpt><trkpt lat="40.14277455206808" lon="9.145187493670132"><ele>526.25</ele><time>2026-04-27T16:19:14.38Z</time></trkpt><trkpt lat="40.142674479540915" lon="9.14531124501752"><ele>529.0</ele><time>2026-04-27T16:19:15.38Z</time></trkpt><trkpt lat="40.14257870836136" lon="9.14541269129796"><ele>529.0</ele><time>2026-04-27T16:19:16.38Z</time></trkpt><trkpt lat="40.14247841030096" lon="9.145474264321836"><ele>529.0</ele><time>2026-04-27T16:19:17.38Z</time></trkpt><trkpt lat="40.142362978342206" lon="9.145500176662445"><ele>529.0</ele><time>2026-04-27T16:19:18.38Z</time></trkpt><trkpt lat="40.142244696694625" lon="9.145505724171873"><ele>529.0</ele><time>2026-04-27T16:19:19.38Z</time></trkpt><trkpt lat="40.14211662082552" lon="9.145494657519176"><ele>530.25</ele><time>2026-04-27T16:19:20.38Z</time></trkpt><trkpt lat="40.14198486991463" lon="9.145475430378841"><ele>531.5</ele><time>2026-04-27T16:19:21.38Z</time></trkpt><trkpt lat="40.141851405390184" lon="9.145454116720535"><ele>532.75</ele><time>2026-04-27T16:19:22.38Z</time></trkpt><trkpt lat="40.14171694456461" lon="9.145432972927031"><ele>534.0</ele><time>2026-04-27T16:19:23.38Z</time></trkpt><trkpt lat="40.14158505128806" lon="9.145415542773984"><ele>537.75</ele><time>2026-04-27T16:19:24.38Z</time></trkpt><trkpt lat="40.14145319840184" lon="9.145403812244538"><ele>541.5</ele><time>2026-04-27T16:19:25.38Z</time></trkpt><trkpt lat="40.14132369528351" lon="9.145393591791244"><ele>545.25</ele><time>2026-04-27T16:19:26.38Z</time></trkpt><trkpt lat="40.14119653247145" lon="9.145364318563198"><ele>549.0</ele><time>2026-04-27T16:19:27.38Z</time></trkpt><trkpt lat="40.14107240843329" lon="9.145330191329723"><ele>549.0</ele><time>2026-04-27T16:19:28.38Z</time></trkpt><trkpt lat="40.14095228078853" lon="9.145301232642101"><ele>549.0</ele><time>2026-04-27T16:19:29.38Z</time></trkpt><trkpt lat="40.14083777456187" lon="9.14529525252143"><ele>549.0</ele><time>2026-04-27T16:19:30.38Z</time></trkpt><trkpt lat="40.1407327020283" lon="9.145298219988401"><ele>549.0</ele><time>2026-04-27T16:19:31.38Z</time></trkpt><trkpt lat="40.14063293371641" lon="9.14530846421278"><ele>549.0</ele><time>2026-04-27T16:19:32.38Z</time></trkpt><trkpt lat="40.140533847708085" lon="9.14532441033411"><ele>548.0</ele><time>2026-04-27T16:19:33.382Z</time></trkpt><trkpt lat="40.140435165434816" lon="9.14535544062135"><ele>547.0</ele><time>2026-04-27T16:19:34.382Z</time></trkpt><trkpt lat="40.140346033772516" lon="9.145395762568034"><ele>546.0</ele><time>2026-04-27T16:19:35.382Z</time></trkpt><trkpt lat="40.14025186072696" lon="9.145457392085358"><ele>545.0</ele><time>2026-04-27T16:19:36.383Z</time></trkpt><trkpt lat="40.14016356824293" lon="9.145528808118433"><ele>544.0</ele><time>2026-04-27T16:19:37.382Z</time></trkpt><trkpt lat="40.14007591589892" lon="9.145617108243576"><ele>541.2</ele><time>2026-04-27T16:19:38.382Z</time></trkpt><trkpt lat="40.139996222288495" lon="9.145725436666565"><ele>538.4</ele><time>2026-04-27T16:19:39.383Z</time></trkpt><trkpt lat="40.139937490065535" lon="9.145835752361583"><ele>535.6</ele><time>2026-04-27T16:19:40.383Z</time></trkpt><trkpt lat="40.139894613412466" lon="9.145941791361412"><ele>532.8</ele><time>2026-04-27T16:19:41.383Z</time></trkpt><trkpt lat="40.13986080758251" lon="9.146024217101811"><ele>530.0</ele><time>2026-04-27T16:19:42.382Z</time></trkpt><trkpt lat="40.13983752237258" lon="9.146164967618164"><ele>530.0</ele><time>2026-04-27T16:19:44.383Z</time></trkpt><trkpt lat="40.13983473655004" lon="9.146257446967743"><ele>530.0</ele><time>2026-04-27T16:19:45.383Z</time></trkpt><trkpt lat="40.139827209993165" lon="9.146364922712632"><ele>530.0</ele><time>2026-04-27T16:19:46.383Z</time></trkpt><trkpt lat="40.13982047891093" lon="9.14647654386374"><ele>530.0</ele><time>2026-04-27T16:19:47.383Z</time></trkpt><trkpt lat="40.139829253729374" lon="9.146590383924712"><ele>530.0</ele><time>2026-04-27T16:19:48.383Z</time></trkpt><trkpt lat="40.13983725305949" lon="9.146711425200248"><ele>530.0</ele><time>2026-04-27T16:19:49.383Z</time></trkpt><trkpt lat="40.139849035051206" lon="9.146841312856123"><ele>528.8</ele><time>2026-04-27T16:19:50.383Z</time></trkpt><trkpt lat="40.13986201648678" lon="9.146967783105415"><ele>527.6</ele><time>2026-04-27T16:19:51.383Z</time></trkpt><trkpt lat="40.13987437472507" lon="9.147098479130543"><ele>526.4</ele><time>2026-04-27T16:19:52.383Z</time></trkpt><trkpt lat="40.13988467080265" lon="9.147231053617189"><ele>525.2</ele><time>2026-04-27T16:19:53.383Z</time></trkpt><trkpt lat="40.13991067068248" lon="9.147359032471496"><ele>524.0</ele><time>2026-04-27T16:19:54.383Z</time></trkpt><trkpt lat="40.13995340669675" lon="9.147481808775114"><ele>532.6</ele><time>2026-04-27T16:19:55.383Z</time></trkpt><trkpt lat="40.14000977560117" lon="9.147602474681348"><ele>541.2</ele><time>2026-04-27T16:19:56.383Z</time></trkpt><trkpt lat="40.14006866700135" lon="9.147718419992872"><ele>549.8000000000001</ele><time>2026-04-27T16:19:57.383Z</time></trkpt><trkpt lat="40.140130276559375" lon="9.147834742600335"><ele>558.4</ele><time>2026-04-27T16:19:58.383Z</time></trkpt><trkpt lat="40.14018653120818" lon="9.14795200306375"><ele>567.0</ele><time>2026-04-27T16:19:59.383Z</time></trkpt><trkpt lat="40.14024129351125" lon="9.14806945739007"><ele>567.0</ele><time>2026-04-27T16:20:00.383Z</time></trkpt><trkpt lat="40.14028579952379" lon="9.148205013318249"><ele>567.0</ele><time>2026-04-27T16:20:01.383Z</time></trkpt><trkpt lat="40.14031225660094" lon="9.148336364278558"><ele>567.0</ele><time>2026-04-27T16:20:02.383Z</time></trkpt><trkpt lat="40.14033645800551" lon="9.148468924732882"><ele>567.0</ele><time>2026-04-27T16:20:03.383Z</time></trkpt><trkpt lat="40.14035744955524" lon="9.148591672580155"><ele>567.0</ele><time>2026-04-27T16:20:04.383Z</time></trkpt><trkpt lat="40.14037620047409" lon="9.148694699784135"><ele>565.2</ele><time>2026-04-27T16:20:05.383Z</time></trkpt><trkpt lat="40.140402525853204" lon="9.148769535044648"><ele>563.4000000000001</ele><time>2026-04-27T16:20:06.383Z</time></trkpt><trkpt lat="40.14048518228688" lon="9.148889689501909"><ele>561.5999999999999</ele><time>2026-04-27T16:20:08.383Z</time></trkpt><trkpt lat="40.14054535652553" lon="9.148958150007706"><ele>559.8</ele><time>2026-04-27T16:20:09.383Z</time></trkpt><trkpt lat="40.14060570411456" lon="9.149054629860494"><ele>558.0</ele><time>2026-04-27T16:20:10.383Z</time></trkpt><trkpt lat="40.140656239583485" lon="9.14916621323072"><ele>557.1999999999999</ele><time>2026-04-27T16:20:11.383Z</time></trkpt><trkpt lat="40.14070401730109" lon="9.1492843707955"><ele>556.4</ele><time>2026-04-27T16:20:12.383Z</time></trkpt><trkpt lat="40.14074455896954" lon="9.149417257711356"><ele>555.5999999999999</ele><time>2026-04-27T16:20:13.383Z</time></trkpt><trkpt lat="40.140776491165454" lon="9.14955840003194"><ele>554.8</ele><time>2026-04-27T16:20:14.383Z</time></trkpt><trkpt lat="40.14078634570486" lon="9.149697680174103"><ele>554.0</ele><time>2026-04-27T16:20:15.383Z</time></trkpt><trkpt lat="40.14077667451697" lon="9.149838872886148"><ele>554.4</ele><time>2026-04-27T16:20:16.383Z</time></trkpt><trkpt lat="40.14075939812006" lon="9.14997886338664"><ele>554.8</ele><time>2026-04-27T16:20:17.383Z</time></trkpt><trkpt lat="40.140724221833416" lon="9.150117182593183"><ele>555.2</ele><time>2026-04-27T16:20:18.383Z</time></trkpt><trkpt lat="40.14067280178055" lon="9.150250686793214"><ele>555.6</ele><time>2026-04-27T16:20:19.383Z</time></trkpt><trkpt lat="40.14062461821548" lon="9.15037850334462"><ele>556.0</ele><time>2026-04-27T16:20:20.383Z</time></trkpt><trkpt lat="40.14057415426529" lon="9.15052308048663"><ele>556.0</ele><time>2026-04-27T16:20:21.383Z</time></trkpt><trkpt lat="40.14052913854899" lon="9.150669210842823"><ele>556.0</ele><time>2026-04-27T16:20:22.383Z</time></trkpt><trkpt lat="40.140480608269264" lon="9.150815030355261"><ele>556.0</ele><time>2026-04-27T16:20:23.383Z</time></trkpt><trkpt lat="40.140430449709605" lon="9.150956863926076"><ele>556.0</ele><time>2026-04-27T16:20:24.383Z</time></trkpt><trkpt lat="40.140385375840154" lon="9.151104445042941"><ele>561.25</ele><time>2026-04-27T16:20:25.383Z</time></trkpt><trkpt lat="40.14035142386778" lon="9.151248840578718"><ele>566.5</ele><time>2026-04-27T16:20:26.383Z</time></trkpt><trkpt lat="40.14031791547124" lon="9.151395006692711"><ele>571.75</ele><time>2026-04-27T16:20:27.383Z</time></trkpt><trkpt lat="40.14028352465567" lon="9.151538007696427"><ele>577.0</ele><time>2026-04-27T16:20:28.383Z</time></trkpt><trkpt lat="40.140251564000614" lon="9.15168226070295"><ele>580.8000000000001</ele><time>2026-04-27T16:20:29.383Z</time></trkpt><trkpt lat="40.14021609050729" lon="9.151823505852596"><ele>584.6</ele><time>2026-04-27T16:20:30.383Z</time></trkpt><trkpt lat="40.14018276680921" lon="9.151961018173493"><ele>588.4000000000001</ele><time>2026-04-27T16:20:31.383Z</time></trkpt><trkpt lat="40.14016250788794" lon="9.152088605588375"><ele>592.2</ele><time>2026-04-27T16:20:32.383Z</time></trkpt><trkpt lat="40.14016781298246" lon="9.15220855128866"><ele>596.0</ele><time>2026-04-27T16:20:33.383Z</time></trkpt><trkpt lat="40.14020705280222" lon="9.152325828591357"><ele>596.0</ele><time>2026-04-27T16:20:34.383Z</time></trkpt><trkpt lat="40.14027902175976" lon="9.152415411618895"><ele>596.0</ele><time>2026-04-27T16:20:35.383Z</time></trkpt><trkpt lat="40.1403764613967" lon="9.152482831953966"><ele>596.0</ele><time>2026-04-27T16:20:36.383Z</time></trkpt><trkpt lat="40.14048004690465" lon="9.152534234526438"><ele>596.0</ele><time>2026-04-27T16:20:37.383Z</time></trkpt><trkpt lat="40.1405900775579" lon="9.152587013376008"><ele>596.0</ele><time>2026-04-27T16:20:38.383Z</time></trkpt><trkpt lat="40.14069994523356" lon="9.152643156670573"><ele>601.25</ele><time>2026-04-27T16:20:39.383Z</time></trkpt><trkpt lat="40.140811060521465" lon="9.152704026023256"><ele>606.5</ele><time>2026-04-27T16:20:40.383Z</time></trkpt><trkpt lat="40.140918052592795" lon="9.15275022700036"><ele>611.75</ele><time>2026-04-27T16:20:41.383Z</time></trkpt><trkpt lat="40.1410322850484" lon="9.152763435113995"><ele>617.0</ele><time>2026-04-27T16:20:42.383Z</time></trkpt><trkpt lat="40.141149541332005" lon="9.152751649445772"><ele>617.0</ele><time>2026-04-27T16:20:43.383Z</time></trkpt><trkpt lat="40.14126979916851" lon="9.152727623425072"><ele>617.0</ele><time>2026-04-27T16:20:44.383Z</time></trkpt><trkpt lat="40.14139129793025" lon="9.152701724263832"><ele>617.0</ele><time>2026-04-27T16:20:45.383Z</time></trkpt><trkpt lat="40.14151319726156" lon="9.152689715404394"><ele>617.0</ele><time>2026-04-27T16:20:46.383Z</time></trkpt><trkpt lat="40.141631827687775" lon="9.152695879569503"><ele>620.5</ele><time>2026-04-27T16:20:47.383Z</time></trkpt><trkpt lat="40.14174567694244" lon="9.152718251559298"><ele>624.0</ele><time>2026-04-27T16:20:48.384Z</time></trkpt><trkpt lat="40.141853372152354" lon="9.152753558528698"><ele>627.5</ele><time>2026-04-27T16:20:49.384Z</time></trkpt><trkpt lat="40.141953944870814" lon="9.15282279508704"><ele>631.0</ele><time>2026-04-27T16:20:50.384Z</time></trkpt><trkpt lat="40.14204269802249" lon="9.15291599813433"><ele>631.0</ele><time>2026-04-27T16:20:51.384Z</time></trkpt><trkpt lat="40.14212786907667" lon="9.153015619925405"><ele>631.0</ele><time>2026-04-27T16:20:52.384Z</time></trkpt><trkpt lat="40.142216239663504" lon="9.153109771697423"><ele>631.0</ele><time>2026-04-27T16:20:53.384Z</time></trkpt><trkpt lat="40.14230604050702" lon="9.153207291315475"><ele>631.0</ele><time>2026-04-27T16:20:54.384Z</time></trkpt><trkpt lat="40.142391359147155" lon="9.153311776114723"><ele>632.0</ele><time>2026-04-27T16:20:55.384Z</time></trkpt><trkpt lat="40.142477113255225" lon="9.153421476545622"><ele>633.0</ele><time>2026-04-27T16:20:56.384Z</time></trkpt><trkpt lat="40.142564972563044" lon="9.1535311784721"><ele>634.0</ele><time>2026-04-27T16:20:57.384Z</time></trkpt><trkpt lat="40.14264909341729" lon="9.1536376898487"><ele>635.0</ele><time>2026-04-27T16:20:58.384Z</time></trkpt><trkpt lat="40.14272836873285" lon="9.153748175689994"><ele>635.0</ele><time>2026-04-27T16:20:59.384Z</time></trkpt><trkpt lat="40.142808431178366" lon="9.153862691003875"><ele>635.0</ele><time>2026-04-27T16:21:00.384Z</time></trkpt><trkpt lat="40.14287335993446" lon="9.153981474410026"><ele>635.0</ele><time>2026-04-27T16:21:01.384Z</time></trkpt><trkpt lat="40.14294430392631" lon="9.154096634211534"><ele>635.0</ele><time>2026-04-27T16:21:02.384Z</time></trkpt><trkpt lat="40.143021738914044" lon="9.154196471038166"><ele>636.4</ele><time>2026-04-27T16:21:03.384Z</time></trkpt><trkpt lat="40.14311355546741" lon="9.154236737948535"><ele>637.8</ele><time>2026-04-27T16:21:04.384Z</time></trkpt><trkpt lat="40.14321978797139" lon="9.154243391408642"><ele>639.2</ele><time>2026-04-27T16:21:05.384Z</time></trkpt><trkpt lat="40.14333836966379" lon="9.154233682603982"><ele>640.6</ele><time>2026-04-27T16:21:06.384Z</time></trkpt><trkpt lat="40.14345866262021" lon="9.154243570808426"><ele>642.0</ele><time>2026-04-27T16:21:07.384Z</time></trkpt><trkpt lat="40.14357048628736" lon="9.154286781853758"><ele>642.0</ele><time>2026-04-27T16:21:08.384Z</time></trkpt><trkpt lat="40.14366069271721" lon="9.154383656222443"><ele>642.0</ele><time>2026-04-27T16:21:09.384Z</time></trkpt><trkpt lat="40.143744716239596" lon="9.154506961967389"><ele>642.0</ele><time>2026-04-27T16:21:10.384Z</time></trkpt><trkpt lat="40.14383362876629" lon="9.154614326256546"><ele>642.0</ele><time>2026-04-27T16:21:11.384Z</time></trkpt><trkpt lat="40.143947640821935" lon="9.1546912407571"><ele>647.0</ele><time>2026-04-27T16:21:12.384Z</time></trkpt><trkpt lat="40.1440754884858" lon="9.154730978365972"><ele>652.0</ele><time>2026-04-27T16:21:13.384Z</time></trkpt><trkpt lat="40.14420436883273" lon="9.154752036995479"><ele>657.0</ele><time>2026-04-27T16:21:14.384Z</time></trkpt><trkpt lat="40.1443411656109" lon="9.154769406109756"><ele>662.0</ele><time>2026-04-27T16:21:15.384Z</time></trkpt><trkpt lat="40.14446923655569" lon="9.154807234945322"><ele>662.0</ele><time>2026-04-27T16:21:16.384Z</time></trkpt><trkpt lat="40.144593552317545" lon="9.154868028546096"><ele>662.0</ele><time>2026-04-27T16:21:17.384Z</time></trkpt><trkpt lat="40.14471139189145" lon="9.154933610492908"><ele>662.0</ele><time>2026-04-27T16:21:18.384Z</time></trkpt><trkpt lat="40.14482400526515" lon="9.154996888555353"><ele>662.0</ele><time>2026-04-27T16:21:19.384Z</time></trkpt><trkpt lat="40.14493905731614" lon="9.155055987713311"><ele>659.5</ele><time>2026-04-27T16:21:20.384Z</time></trkpt><trkpt lat="40.14505675001246" lon="9.155099112225834"><ele>657.0</ele><time>2026-04-27T16:21:21.384Z</time></trkpt><trkpt lat="40.14517278386977" lon="9.155122734849513"><ele>654.5</ele><time>2026-04-27T16:21:22.384Z</time></trkpt><trkpt lat="40.14529384022161" lon="9.155145755181332"><ele>652.0</ele><time>2026-04-27T16:21:23.384Z</time></trkpt><trkpt lat="40.14541176308411" lon="9.155163502717134"><ele>652.0</ele><time>2026-04-27T16:21:24.384Z</time></trkpt><trkpt lat="40.14553149820698" lon="9.155170884881231"><ele>652.0</ele><time>2026-04-27T16:21:25.384Z</time></trkpt><trkpt lat="40.145660817201346" lon="9.155166033049225"><ele>652.0</ele><time>2026-04-27T16:21:26.384Z</time></trkpt><trkpt lat="40.14578392206497" lon="9.155147872502189"><ele>652.0</ele><time>2026-04-27T16:21:27.384Z</time></trkpt><trkpt lat="40.1459048610785" lon="9.155116936426712"><ele>653.5</ele><time>2026-04-27T16:21:28.384Z</time></trkpt><trkpt lat="40.14601807961833" lon="9.155051368026598"><ele>655.0</ele><time>2026-04-27T16:21:29.384Z</time></trkpt><trkpt lat="40.14611518073619" lon="9.154940119062264"><ele>656.5</ele><time>2026-04-27T16:21:30.384Z</time></trkpt><trkpt lat="40.146203743765" lon="9.154806400123043"><ele>658.0</ele><time>2026-04-27T16:21:31.384Z</time></trkpt><trkpt lat="40.14629850804048" lon="9.154676281604006"><ele>662.0</ele><time>2026-04-27T16:21:32.384Z</time></trkpt><trkpt lat="40.14640913818248" lon="9.154559651297124"><ele>666.0</ele><time>2026-04-27T16:21:33.384Z</time></trkpt><trkpt lat="40.14651915600982" lon="9.154443429766282"><ele>670.0</ele><time>2026-04-27T16:21:34.384Z</time></trkpt><trkpt lat="40.146630546092766" lon="9.154325876870798"><ele>674.0</ele><time>2026-04-27T16:21:35.384Z</time></trkpt><trkpt lat="40.14674425915247" lon="9.154212627191125"><ele>674.0</ele><time>2026-04-27T16:21:36.384Z</time></trkpt><trkpt lat="40.14686511286551" lon="9.154098223670196"><ele>674.0</ele><time>2026-04-27T16:21:37.384Z</time></trkpt><trkpt lat="40.14698813292849" lon="9.153989252770158"><ele>674.0</ele><time>2026-04-27T16:21:38.385Z</time></trkpt><trkpt lat="40.14710994293351" lon="9.153880686711746"><ele>674.0</ele><time>2026-04-27T16:21:39.385Z</time></trkpt><trkpt lat="40.14723278031498" lon="9.153772608460487"><ele>677.6666666666666</ele><time>2026-04-27T16:21:40.385Z</time></trkpt><trkpt lat="40.14735906143723" lon="9.153664954626676"><ele>681.3333333333334</ele><time>2026-04-27T16:21:41.386Z</time></trkpt><trkpt lat="40.14748447861009" lon="9.153559790369629"><ele>685.0</ele><time>2026-04-27T16:21:42.385Z</time></trkpt><trkpt lat="40.14762451138285" lon="9.153465430956913"><ele>685.0</ele><time>2026-04-27T16:21:43.385Z</time></trkpt><trkpt lat="40.14776053379519" lon="9.153373836421007"><ele>685.0</ele><time>2026-04-27T16:21:44.386Z</time></trkpt><trkpt lat="40.14789262525425" lon="9.153287604503205"><ele>685.0</ele><time>2026-04-27T16:21:45.385Z</time></trkpt><trkpt lat="40.14802393195086" lon="9.153224916212253"><ele>685.0</ele><time>2026-04-27T16:21:46.385Z</time></trkpt><trkpt lat="40.14815367219842" lon="9.153171619357217"><ele>690.25</ele><time>2026-04-27T16:21:47.386Z</time></trkpt><trkpt lat="40.14829824764987" lon="9.153130192211433"><ele>695.5</ele><time>2026-04-27T16:21:48.386Z</time></trkpt><trkpt lat="40.148441016275264" lon="9.153092268470193"><ele>700.75</ele><time>2026-04-27T16:21:49.386Z</time></trkpt><trkpt lat="40.14858651818442" lon="9.153060696648675"><ele>706.0</ele><time>2026-04-27T16:21:50.386Z</time></trkpt><trkpt lat="40.148733695969945" lon="9.1530332760193"><ele>706.0</ele><time>2026-04-27T16:21:51.386Z</time></trkpt><trkpt lat="40.14888182372518" lon="9.153007691926609"><ele>706.0</ele><time>2026-04-27T16:21:52.386Z</time></trkpt><trkpt lat="40.14902713187992" lon="9.15298465938175"><ele>706.0</ele><time>2026-04-27T16:21:53.386Z</time></trkpt><trkpt lat="40.149174199870764" lon="9.152958857636863"><ele>706.0</ele><time>2026-04-27T16:21:54.386Z</time></trkpt><trkpt lat="40.14931571936987" lon="9.15293609672572"><ele>706.0</ele><time>2026-04-27T16:21:55.386Z</time></trkpt><trkpt lat="40.14946504657683" lon="9.152914355395808"><ele>706.0</ele><time>2026-04-27T16:21:56.386Z</time></trkpt><trkpt lat="40.14960992305723" lon="9.152899763931424"><ele>706.0</ele><time>2026-04-27T16:21:57.386Z</time></trkpt><trkpt lat="40.149755888377875" lon="9.152889737302615"><ele>706.0</ele><time>2026-04-27T16:21:58.386Z</time></trkpt><trkpt lat="40.14989744717016" lon="9.152871640643703"><ele>705.5</ele><time>2026-04-27T16:21:59.386Z</time></trkpt><trkpt lat="40.150037100227365" lon="9.15285028187747"><ele>705.0</ele><time>2026-04-27T16:22:00.386Z</time></trkpt><trkpt lat="40.15017218842608" lon="9.152823208653963"><ele>704.5</ele><time>2026-04-27T16:22:01.386Z</time></trkpt><trkpt lat="40.15029532450737" lon="9.152785713295868"><ele>704.0</ele><time>2026-04-27T16:22:02.386Z</time></trkpt><trkpt lat="40.15041870511636" lon="9.152737534893104"><ele>704.0</ele><time>2026-04-27T16:22:03.386Z</time></trkpt><trkpt lat="40.150534204185945" lon="9.15267246650625"><ele>704.0</ele><time>2026-04-27T16:22:04.386Z</time></trkpt><trkpt lat="40.15064625011878" lon="9.152592707927706"><ele>704.0</ele><time>2026-04-27T16:22:05.386Z</time></trkpt><trkpt lat="40.15075172716254" lon="9.152504607419264"><ele>704.0</ele><time>2026-04-27T16:22:06.386Z</time></trkpt><trkpt lat="40.1508643764649" lon="9.152425065955196"><ele>707.5</ele><time>2026-04-27T16:22:07.386Z</time></trkpt><trkpt lat="40.15097695753883" lon="9.152359350587275"><ele>711.0</ele><time>2026-04-27T16:22:08.386Z</time></trkpt><trkpt lat="40.15108736899019" lon="9.152314582774695"><ele>714.5</ele><time>2026-04-27T16:22:09.386Z</time></trkpt><trkpt lat="40.15119902345434" lon="9.152292845480682"><ele>718.0</ele><time>2026-04-27T16:22:10.386Z</time></trkpt><trkpt lat="40.15131418178979" lon="9.1523113630726"><ele>718.0</ele><time>2026-04-27T16:22:11.386Z</time></trkpt><trkpt lat="40.15143690517427" lon="9.152347270056323"><ele>718.0</ele><time>2026-04-27T16:22:12.386Z</time></trkpt><trkpt lat="40.15155355450919" lon="9.15238814292279"><ele>718.0</ele><time>2026-04-27T16:22:13.386Z</time></trkpt><trkpt lat="40.15167725403041" lon="9.152434129879685"><ele>718.0</ele><time>2026-04-27T16:22:14.386Z</time></trkpt><trkpt lat="40.15179728366285" lon="9.152479604750535"><ele>716.0</ele><time>2026-04-27T16:22:15.386Z</time></trkpt><trkpt lat="40.15192064977619" lon="9.152534907474074"><ele>714.0</ele><time>2026-04-27T16:22:16.386Z</time></trkpt><trkpt lat="40.15204122131722" lon="9.152596902565678"><ele>712.0</ele><time>2026-04-27T16:22:17.386Z</time></trkpt><trkpt lat="40.152164578257654" lon="9.152658180815326"><ele>710.0</ele><time>2026-04-27T16:22:18.386Z</time></trkpt><trkpt lat="40.152290349519454" lon="9.15271463119363"><ele>713.75</ele><time>2026-04-27T16:22:19.386Z</time></trkpt><trkpt lat="40.15242134613996" lon="9.152762463215375"><ele>717.5</ele><time>2026-04-27T16:22:20.386Z</time></trkpt><trkpt lat="40.152555077026875" lon="9.15279425147534"><ele>721.25</ele><time>2026-04-27T16:22:21.386Z</time></trkpt><trkpt lat="40.15269020049976" lon="9.152820263458725"><ele>725.0</ele><time>2026-04-27T16:22:22.386Z</time></trkpt><trkpt lat="40.15282811761959" lon="9.15284860374691"><ele>725.0</ele><time>2026-04-27T16:22:23.386Z</time></trkpt><trkpt lat="40.152964377553346" lon="9.152874815575972"><ele>725.0</ele><time>2026-04-27T16:22:24.386Z</time></trkpt><trkpt lat="40.15310123608499" lon="9.152882254212287"><ele>725.0</ele><time>2026-04-27T16:22:25.386Z</time></trkpt><trkpt lat="40.15323680898341" lon="9.152882095631165"><ele>725.0</ele><time>2026-04-27T16:22:26.386Z</time></trkpt><trkpt lat="40.15337131507217" lon="9.152889404164007"><ele>728.0</ele><time>2026-04-27T16:22:27.386Z</time></trkpt><trkpt lat="40.153503590405904" lon="9.152880282547983"><ele>731.0</ele><time>2026-04-27T16:22:28.386Z</time></trkpt><trkpt lat="40.15363534559334" lon="9.15286155526289"><ele>734.0</ele><time>2026-04-27T16:22:29.386Z</time></trkpt><trkpt lat="40.15377594684196" lon="9.152825661400247"><ele>737.0</ele><time>2026-04-27T16:22:30.386Z</time></trkpt><trkpt lat="40.15391670739736" lon="9.152781856072846"><ele>736.3333333333333</ele><time>2026-04-27T16:22:31.386Z</time></trkpt><trkpt lat="40.15406191286292" lon="9.152750024287188"><ele>735.6666666666666</ele><time>2026-04-27T16:22:32.386Z</time></trkpt><trkpt lat="40.15421733846421" lon="9.152746161179957"><ele>735.0</ele><time>2026-04-27T16:22:33.386Z</time></trkpt><trkpt lat="40.154365659011354" lon="9.152753546267947"><ele>735.0</ele><time>2026-04-27T16:22:34.386Z</time></trkpt><trkpt lat="40.15451080888805" lon="9.152770284668183"><ele>735.0</ele><time>2026-04-27T16:22:35.386Z</time></trkpt><trkpt lat="40.15465832053891" lon="9.152772103250477"><ele>735.0</ele><time>2026-04-27T16:22:36.386Z</time></trkpt><trkpt lat="40.15480819830229" lon="9.152770178168025"><ele>735.0</ele><time>2026-04-27T16:22:37.386Z</time></trkpt><trkpt lat="40.15495253089973" lon="9.152760548972164"><ele>735.25</ele><time>2026-04-27T16:22:38.386Z</time></trkpt><trkpt lat="40.15508841763245" lon="9.152747689793863"><ele>735.5</ele><time>2026-04-27T16:22:39.386Z</time></trkpt><trkpt lat="40.155225816520066" lon="9.152744106629642"><ele>735.75</ele><time>2026-04-27T16:22:40.386Z</time></trkpt><trkpt lat="40.15535914512615" lon="9.152738940067328"><ele>736.0</ele><time>2026-04-27T16:22:41.386Z</time></trkpt><trkpt lat="40.15548535545015" lon="9.152740061106721"><ele>736.0</ele><time>2026-04-27T16:22:42.386Z</time></trkpt><trkpt lat="40.155601384741026" lon="9.15274721575748"><ele>736.0</ele><time>2026-04-27T16:22:43.386Z</time></trkpt><trkpt lat="40.155707954024514" lon="9.152760461274429"><ele>736.0</ele><time>2026-04-27T16:22:44.386Z</time></trkpt><trkpt lat="40.15580944999475" lon="9.152774291212657"><ele>736.0</ele><time>2026-04-27T16:22:45.386Z</time></trkpt><trkpt lat="40.15590943760577" lon="9.152798326013537"><ele>736.0</ele><time>2026-04-27T16:22:46.386Z</time></trkpt><trkpt lat="40.155997536075915" lon="9.15285118284807"><ele>735.5999999999999</ele><time>2026-04-27T16:22:47.386Z</time></trkpt><trkpt lat="40.15607103769315" lon="9.152935631579798"><ele>735.2</ele><time>2026-04-27T16:22:48.386Z</time></trkpt><trkpt lat="40.15612516024469" lon="9.15304828704775"><ele>734.8</ele><time>2026-04-27T16:22:49.386Z</time></trkpt><trkpt lat="40.15616866480117" lon="9.1531772806352"><ele>734.4000000000001</ele><time>2026-04-27T16:22:50.386Z</time></trkpt><trkpt lat="40.15620186568581" lon="9.153319975541546"><ele>734.0</ele><time>2026-04-27T16:22:51.386Z</time></trkpt><trkpt lat="40.15621482708627" lon="9.153467033503212"><ele>734.0</ele><time>2026-04-27T16:22:52.386Z</time></trkpt><trkpt lat="40.156207792337085" lon="9.153608362336321"><ele>734.0</ele><time>2026-04-27T16:22:53.387Z</time></trkpt><trkpt lat="40.156174964097616" lon="9.153747669747226"><ele>734.0</ele><time>2026-04-27T16:22:54.387Z</time></trkpt><trkpt lat="40.15612920201471" lon="9.153887259438015"><ele>734.0</ele><time>2026-04-27T16:22:55.387Z</time></trkpt><trkpt lat="40.15606911781029" lon="9.154015653899366"><ele>734.5</ele><time>2026-04-27T16:22:56.387Z</time></trkpt><trkpt lat="40.1559871614611" lon="9.154135785694177"><ele>735.0</ele><time>2026-04-27T16:22:57.387Z</time></trkpt><trkpt lat="40.15590090099367" lon="9.154254836801682"><ele>735.5</ele><time>2026-04-27T16:22:58.387Z</time></trkpt><trkpt lat="40.15580347380255" lon="9.15436358071955"><ele>736.0</ele><time>2026-04-27T16:22:59.387Z</time></trkpt><trkpt lat="40.155699132135574" lon="9.154468058248742"><ele>736.0</ele><time>2026-04-27T16:23:00.387Z</time></trkpt><trkpt lat="40.15558332136736" lon="9.154563907637826"><ele>736.0</ele><time>2026-04-27T16:23:01.387Z</time></trkpt><trkpt lat="40.155457905260285" lon="9.154650528604607"><ele>736.0</ele><time>2026-04-27T16:23:02.387Z</time></trkpt><trkpt lat="40.15532729149731" lon="9.154731244109586"><ele>736.0</ele><time>2026-04-27T16:23:03.387Z</time></trkpt><trkpt lat="40.15519694996582" lon="9.154809115187756"><ele>740.0</ele><time>2026-04-27T16:23:04.387Z</time></trkpt><trkpt lat="40.1550643665803" lon="9.154887009355138"><ele>744.0</ele><time>2026-04-27T16:23:05.387Z</time></trkpt><trkpt lat="40.154932010861394" lon="9.154964186132668"><ele>748.0</ele><time>2026-04-27T16:23:06.387Z</time></trkpt><trkpt lat="40.15479752302354" lon="9.155038991709791"><ele>752.0</ele><time>2026-04-27T16:23:07.387Z</time></trkpt><trkpt lat="40.15465518339035" lon="9.155114195034795"><ele>752.0</ele><time>2026-04-27T16:23:08.387Z</time></trkpt><trkpt lat="40.15451556908567" lon="9.155198492140158"><ele>752.0</ele><time>2026-04-27T16:23:09.387Z</time></trkpt><trkpt lat="40.154376930053054" lon="9.155292731128577"><ele>752.0</ele><time>2026-04-27T16:23:10.387Z</time></trkpt><trkpt lat="40.15424162297152" lon="9.15538966541809"><ele>752.0</ele><time>2026-04-27T16:23:11.387Z</time></trkpt><trkpt lat="40.15410839949758" lon="9.155481351069024"><ele>752.0</ele><time>2026-04-27T16:23:12.387Z</time></trkpt><trkpt lat="40.153975527290065" lon="9.155571621083922"><ele>752.0</ele><time>2026-04-27T16:23:13.387Z</time></trkpt><trkpt lat="40.15383927353381" lon="9.155656485364332"><ele>755.75</ele><time>2026-04-27T16:23:14.387Z</time></trkpt><trkpt lat="40.153700223041724" lon="9.155733454105437"><ele>759.5</ele><time>2026-04-27T16:23:15.387Z</time></trkpt><trkpt lat="40.15356605004625" lon="9.155802849055386"><ele>763.25</ele><time>2026-04-27T16:23:16.387Z</time></trkpt><trkpt lat="40.15343020480673" lon="9.155867624174618"><ele>767.0</ele><time>2026-04-27T16:23:17.387Z</time></trkpt><trkpt lat="40.15330334520738" lon="9.155958481644403"><ele>761.75</ele><time>2026-04-27T16:23:18.387Z</time></trkpt><trkpt lat="40.1531887668588" lon="9.156076010062318"><ele>756.5</ele><time>2026-04-27T16:23:19.387Z</time></trkpt><trkpt lat="40.15308294466464" lon="9.156207900917186"><ele>751.25</ele><time>2026-04-27T16:23:20.387Z</time></trkpt><trkpt lat="40.15298516999568" lon="9.156346078572497"><ele>746.0</ele><time>2026-04-27T16:23:21.387Z</time></trkpt><trkpt lat="40.15289845510185" lon="9.156497449674246"><ele>752.0</ele><time>2026-04-27T16:23:22.387Z</time></trkpt><trkpt lat="40.152815110576775" lon="9.156654193817275"><ele>758.0</ele><time>2026-04-27T16:23:23.387Z</time></trkpt><trkpt lat="40.15273370678642" lon="9.156808652213371"><ele>764.0</ele><time>2026-04-27T16:23:24.387Z</time></trkpt><trkpt lat="40.15264540094092" lon="9.15694801142679"><ele>770.0</ele><time>2026-04-27T16:23:25.387Z</time></trkpt><trkpt lat="40.15255575439851" lon="9.157081331508635"><ele>770.0</ele><time>2026-04-27T16:23:26.387Z</time></trkpt><trkpt lat="40.152456183342466" lon="9.157203735226716"><ele>770.0</ele><time>2026-04-27T16:23:27.387Z</time></trkpt><trkpt lat="40.152372576399955" lon="9.157338337326093"><ele>770.0</ele><time>2026-04-27T16:23:28.387Z</time></trkpt><trkpt lat="40.15230470882412" lon="9.15747258078553"><ele>770.0</ele><time>2026-04-27T16:23:29.387Z</time></trkpt><trkpt lat="40.15226905348654" lon="9.157620945613726"><ele>768.25</ele><time>2026-04-27T16:23:30.387Z</time></trkpt><trkpt lat="40.15226698671952" lon="9.157778716038148"><ele>766.5</ele><time>2026-04-27T16:23:31.387Z</time></trkpt><trkpt lat="40.15229210043149" lon="9.157937548664252"><ele>764.75</ele><time>2026-04-27T16:23:32.387Z</time></trkpt><trkpt lat="40.15234615653407" lon="9.158091244661794"><ele>763.0</ele><time>2026-04-27T16:23:33.387Z</time></trkpt><trkpt lat="40.15241895070653" lon="9.158233848970795"><ele>770.75</ele><time>2026-04-27T16:23:34.387Z</time></trkpt><trkpt lat="40.152513002680024" lon="9.158364894413387"><ele>778.5</ele><time>2026-04-27T16:23:35.387Z</time></trkpt><trkpt lat="40.15260696685251" lon="9.158490991387698"><ele>786.25</ele><time>2026-04-27T16:23:36.387Z</time></trkpt><trkpt lat="40.15268658011817" lon="9.158615993027402"><ele>794.0</ele><time>2026-04-27T16:23:37.387Z</time></trkpt><trkpt lat="40.15275729347379" lon="9.158749397246684"><ele>794.0</ele><time>2026-04-27T16:23:38.387Z</time></trkpt><trkpt lat="40.15281621445849" lon="9.1588967609315"><ele>794.0</ele><time>2026-04-27T16:23:39.387Z</time></trkpt><trkpt lat="40.15285314239708" lon="9.15904901107781"><ele>794.0</ele><time>2026-04-27T16:23:40.387Z</time></trkpt><trkpt lat="40.152875705661955" lon="9.159203683241152"><ele>794.0</ele><time>2026-04-27T16:23:41.387Z</time></trkpt><trkpt lat="40.15285974078981" lon="9.159353275481966"><ele>794.25</ele><time>2026-04-27T16:23:42.387Z</time></trkpt><trkpt lat="40.152822337750145" lon="9.159495347361922"><ele>794.5</ele><time>2026-04-27T16:23:43.387Z</time></trkpt><trkpt lat="40.152796124213324" lon="9.159646723409011"><ele>794.75</ele><time>2026-04-27T16:23:44.389Z</time></trkpt><trkpt lat="40.152765546334464" lon="9.159807317884306"><ele>795.0</ele><time>2026-04-27T16:23:45.389Z</time></trkpt><trkpt lat="40.15273951350503" lon="9.159954262420966"><ele>797.5</ele><time>2026-04-27T16:23:46.389Z</time></trkpt><trkpt lat="40.152714373932774" lon="9.160099218298333"><ele>800.0</ele><time>2026-04-27T16:23:47.389Z</time></trkpt><trkpt lat="40.15268676053228" lon="9.160243921694871"><ele>802.5</ele><time>2026-04-27T16:23:48.389Z</time></trkpt><trkpt lat="40.15265803585067" lon="9.16039456070351"><ele>805.0</ele><time>2026-04-27T16:23:49.389Z</time></trkpt><trkpt lat="40.15262336883478" lon="9.16055000634555"><ele>808.25</ele><time>2026-04-27T16:23:50.389Z</time></trkpt><trkpt lat="40.152581500538346" lon="9.16070016341123"><ele>811.5</ele><time>2026-04-27T16:23:51.389Z</time></trkpt><trkpt lat="40.15253378219083" lon="9.160851986837905"><ele>814.75</ele><time>2026-04-27T16:23:52.389Z</time></trkpt><trkpt lat="40.152481664865256" lon="9.160999258675997"><ele>818.0</ele><time>2026-04-27T16:23:53.389Z</time></trkpt><trkpt lat="40.15242775850397" lon="9.161144301487305"><ele>818.0</ele><time>2026-04-27T16:23:54.389Z</time></trkpt><trkpt lat="40.1523757170186" lon="9.161291507706927"><ele>818.0</ele><time>2026-04-27T16:23:55.389Z</time></trkpt><trkpt lat="40.1523162118175" lon="9.161429498346578"><ele>818.0</ele><time>2026-04-27T16:23:56.389Z</time></trkpt><trkpt lat="40.152241558211806" lon="9.161551587315284"><ele>818.0</ele><time>2026-04-27T16:23:57.389Z</time></trkpt><trkpt lat="40.152161443636814" lon="9.161659821743088"><ele>820.2</ele><time>2026-04-27T16:23:58.389Z</time></trkpt><trkpt lat="40.152070442804444" lon="9.161746132198582"><ele>822.4</ele><time>2026-04-27T16:23:59.389Z</time></trkpt><trkpt lat="40.151977652855614" lon="9.161789269646404"><ele>824.6</ele><time>2026-04-27T16:24:00.389Z</time></trkpt><trkpt lat="40.15187484665911" lon="9.161801184486755"><ele>826.8000000000001</ele><time>2026-04-27T16:24:01.389Z</time></trkpt><trkpt lat="40.151765643381815" lon="9.16177160918912"><ele>829.0</ele><time>2026-04-27T16:24:02.389Z</time></trkpt><trkpt lat="40.15165092925867" lon="9.161722343727218"><ele>826.75</ele><time>2026-04-27T16:24:03.389Z</time></trkpt><trkpt lat="40.15153593642032" lon="9.161673303937938"><ele>824.5</ele><time>2026-04-27T16:24:04.389Z</time></trkpt><trkpt lat="40.1514172377759" lon="9.161623301431629"><ele>822.25</ele><time>2026-04-27T16:24:05.389Z</time></trkpt><trkpt lat="40.15129506652461" lon="9.161574685247514"><ele>820.0</ele><time>2026-04-27T16:24:06.389Z</time></trkpt><trkpt lat="40.15117701829067" lon="9.16150647896038"><ele>820.0</ele><time>2026-04-27T16:24:07.389Z</time></trkpt><trkpt lat="40.151067019502214" lon="9.16143420178386"><ele>820.0</ele><time>2026-04-27T16:24:08.39Z</time></trkpt><trkpt lat="40.150948581047565" lon="9.16137425413042"><ele>820.0</ele><time>2026-04-27T16:24:09.39Z</time></trkpt><trkpt lat="40.150824803590076" lon="9.16132273798566"><ele>820.0</ele><time>2026-04-27T16:24:10.39Z</time></trkpt><trkpt lat="40.15070683065116" lon="9.161268277135953"><ele>824.5</ele><time>2026-04-27T16:24:11.39Z</time></trkpt><trkpt lat="40.15059128801538" lon="9.161200505825065"><ele>829.0</ele><time>2026-04-27T16:24:12.39Z</time></trkpt><trkpt lat="40.15049250011726" lon="9.16111969720823"><ele>833.5</ele><time>2026-04-27T16:24:13.39Z</time></trkpt><trkpt lat="40.150416231222685" lon="9.16101020703752"><ele>838.0</ele><time>2026-04-27T16:24:14.39Z</time></trkpt><trkpt lat="40.15033790577954" lon="9.160900667254458"><ele>838.0</ele><time>2026-04-27T16:24:15.39Z</time></trkpt><trkpt lat="40.15025328196726" lon="9.16079909829316"><ele>838.0</ele><time>2026-04-27T16:24:16.39Z</time></trkpt><trkpt lat="40.15016254871342" lon="9.160718156049658"><ele>838.0</ele><time>2026-04-27T16:24:17.39Z</time></trkpt><trkpt lat="40.150069405307065" lon="9.160667890502106"><ele>838.0</ele><time>2026-04-27T16:24:18.39Z</time></trkpt><trkpt lat="40.14996563476696" lon="9.160653414050289"><ele>838.0</ele><time>2026-04-27T16:24:19.39Z</time></trkpt><trkpt lat="40.149848319995776" lon="9.160666372881124"><ele>833.5999999999999</ele><time>2026-04-27T16:24:20.39Z</time></trkpt><trkpt lat="40.14973123870957" lon="9.160685291909344"><ele>829.1999999999999</ele><time>2026-04-27T16:24:21.39Z</time></trkpt><trkpt lat="40.14962172818948" lon="9.160676140152601"><ele>824.8</ele><time>2026-04-27T16:24:22.39Z</time></trkpt><trkpt lat="40.14952784360839" lon="9.160646721535826"><ele>820.4</ele><time>2026-04-27T16:24:23.39Z</time></trkpt><trkpt lat="40.14944824509291" lon="9.160603870050721"><ele>816.0</ele><time>2026-04-27T16:24:24.39Z</time></trkpt><trkpt lat="40.14937499573171" lon="9.1605688831725"><ele>816.0</ele><time>2026-04-27T16:24:25.39Z</time></trkpt><trkpt lat="40.14929478424151" lon="9.160543855206578"><ele>816.0</ele><time>2026-04-27T16:24:26.39Z</time></trkpt><trkpt lat="40.14920645227772" lon="9.160543825765064"><ele>816.0</ele><time>2026-04-27T16:24:27.39Z</time></trkpt><trkpt lat="40.149118567024566" lon="9.160565327017347"><ele>816.0</ele><time>2026-04-27T16:24:28.39Z</time></trkpt><trkpt lat="40.149047476331575" lon="9.160624529519305"><ele>816.0</ele><time>2026-04-27T16:24:29.39Z</time></trkpt><trkpt lat="40.1489987264128" lon="9.160714578914858"><ele>816.0</ele><time>2026-04-27T16:24:30.39Z</time></trkpt><trkpt lat="40.14895380026426" lon="9.160820338582432"><ele>816.1999999999999</ele><time>2026-04-27T16:24:31.39Z</time></trkpt><trkpt lat="40.14890887528451" lon="9.16092988522652"><ele>816.4</ele><time>2026-04-27T16:24:32.39Z</time></trkpt><trkpt lat="40.14886831535974" lon="9.161041340852737"><ele>816.6</ele><time>2026-04-27T16:24:33.39Z</time></trkpt><trkpt lat="40.14881723635899" lon="9.161154697151343"><ele>816.8</ele><time>2026-04-27T16:24:34.39Z</time></trkpt><trkpt lat="40.14876011326278" lon="9.161268932003107"><ele>817.0</ele><time>2026-04-27T16:24:35.39Z</time></trkpt><trkpt lat="40.14870344369529" lon="9.16138084657349"><ele>817.0</ele><time>2026-04-27T16:24:36.39Z</time></trkpt><trkpt lat="40.1486405017229" lon="9.161495906813016"><ele>817.0</ele><time>2026-04-27T16:24:37.39Z</time></trkpt><trkpt lat="40.148572413366594" lon="9.161612492085036"><ele>817.0</ele><time>2026-04-27T16:24:38.39Z</time></trkpt><trkpt lat="40.14850086101421" lon="9.161724700164639"><ele>817.0</ele><time>2026-04-27T16:24:39.39Z</time></trkpt><trkpt lat="40.14842850386463" lon="9.161841596430683"><ele>817.0</ele><time>2026-04-27T16:24:40.39Z</time></trkpt><trkpt lat="40.14835645657429" lon="9.16196161986365"><ele>813.5</ele><time>2026-04-27T16:24:41.39Z</time></trkpt><trkpt lat="40.14828374096007" lon="9.162082910850494"><ele>810.0</ele><time>2026-04-27T16:24:42.39Z</time></trkpt><trkpt lat="40.14820781971918" lon="9.162200168506942"><ele>806.5</ele><time>2026-04-27T16:24:43.39Z</time></trkpt><trkpt lat="40.14813615395965" lon="9.162313683810982"><ele>803.0</ele><time>2026-04-27T16:24:44.39Z</time></trkpt><trkpt lat="40.148069625114935" lon="9.162428497757173"><ele>808.5999999999999</ele><time>2026-04-27T16:24:45.39Z</time></trkpt><trkpt lat="40.14801720674251" lon="9.162547184622834"><ele>814.1999999999999</ele><time>2026-04-27T16:24:46.39Z</time></trkpt><trkpt lat="40.14799000060942" lon="9.162675680158689"><ele>819.8</ele><time>2026-04-27T16:24:47.39Z</time></trkpt><trkpt lat="40.147998396742935" lon="9.162819720287914"><ele>825.4</ele><time>2026-04-27T16:24:48.39Z</time></trkpt><trkpt lat="40.1480431882846" lon="9.162957918574497"><ele>831.0</ele><time>2026-04-27T16:24:49.39Z</time></trkpt><trkpt lat="40.148099546472835" lon="9.163089910944116"><ele>831.0</ele><time>2026-04-27T16:24:50.39Z</time></trkpt><trkpt lat="40.1481683786722" lon="9.163213365204975"><ele>831.0</ele><time>2026-04-27T16:24:51.39Z</time></trkpt><trkpt lat="40.14826084738156" lon="9.16330787014401"><ele>831.0</ele><time>2026-04-27T16:24:52.39Z</time></trkpt><trkpt lat="40.148364934949264" lon="9.163379491661578"><ele>831.0</ele><time>2026-04-27T16:24:53.39Z</time></trkpt><trkpt lat="40.14846895566243" lon="9.163451212066356"><ele>839.5</ele><time>2026-04-27T16:24:54.39Z</time></trkpt><trkpt lat="40.148568692998296" lon="9.163524540287494"><ele>848.0</ele><time>2026-04-27T16:24:55.39Z</time></trkpt><trkpt lat="40.148675269395696" lon="9.163580699602152"><ele>856.5</ele><time>2026-04-27T16:24:56.39Z</time></trkpt><trkpt lat="40.14879784458948" lon="9.163612415438157"><ele>865.0</ele><time>2026-04-27T16:24:57.39Z</time></trkpt><trkpt lat="40.148925027195176" lon="9.163623446430385"><ele>866.8</ele><time>2026-04-27T16:24:58.39Z</time></trkpt><trkpt lat="40.149049073448204" lon="9.16362961680051"><ele>868.6</ele><time>2026-04-27T16:24:59.39Z</time></trkpt><trkpt lat="40.1491597181016" lon="9.163641317947505"><ele>870.4000000000001</ele><time>2026-04-27T16:25:00.39Z</time></trkpt><trkpt lat="40.14925988806256" lon="9.163639462271393"><ele>872.2</ele><time>2026-04-27T16:25:01.39Z</time></trkpt><trkpt lat="40.14935114258615" lon="9.163603691330552"><ele>874.0</ele><time>2026-04-27T16:25:02.39Z</time></trkpt><trkpt lat="40.14943671742888" lon="9.163528573870515"><ele>874.0</ele><time>2026-04-27T16:25:03.39Z</time></trkpt><trkpt lat="40.149506010749896" lon="9.163424352166421"><ele>874.0000000000001</ele><time>2026-04-27T16:25:04.39Z</time></trkpt><trkpt lat="40.14957548668741" lon="9.163311258403615"><ele>874.0000000000001</ele><time>2026-04-27T16:25:05.39Z</time></trkpt><trkpt lat="40.14964752199357" lon="9.163213456288817"><ele>874.0</ele><time>2026-04-27T16:25:06.39Z</time></trkpt><trkpt lat="40.14972575607949" lon="9.163150450994975"><ele>874.0</ele><time>2026-04-27T16:25:07.39Z</time></trkpt><trkpt lat="40.14980136429899" lon="9.163123049141415"><ele>873.2</ele><time>2026-04-27T16:25:08.39Z</time></trkpt><trkpt lat="40.14988154366765" lon="9.1631257921894"><ele>872.4000000000001</ele><time>2026-04-27T16:25:09.39Z</time></trkpt><trkpt lat="40.14997071454225" lon="9.163133172130614"><ele>871.6</ele><time>2026-04-27T16:25:10.39Z</time></trkpt><trkpt lat="40.15006669150834" lon="9.163146563966546"><ele>870.8</ele><time>2026-04-27T16:25:11.39Z</time></trkpt><trkpt lat="40.15016794989064" lon="9.163170396904084"><ele>870.0</ele><time>2026-04-27T16:25:12.39Z</time></trkpt><trkpt lat="40.15027049281361" lon="9.163194528016705"><ele>869.4</ele><time>2026-04-27T16:25:13.39Z</time></trkpt><trkpt lat="40.150370087950854" lon="9.163221573039419"><ele>868.8</ele><time>2026-04-27T16:25:14.39Z</time></trkpt><trkpt lat="40.15046758004049" lon="9.163271579345981"><ele>868.2</ele><time>2026-04-27T16:25:15.39Z</time></trkpt><trkpt lat="40.150554599219426" lon="9.163349446971845"><ele>867.6</ele><time>2026-04-27T16:25:16.39Z</time></trkpt><trkpt lat="40.15063319290978" lon="9.163443355392065"><ele>867.0</ele><time>2026-04-27T16:25:17.39Z</time></trkpt><trkpt lat="40.150709202729985" lon="9.163540664028261"><ele>870.25</ele><time>2026-04-27T16:25:18.39Z</time></trkpt><trkpt lat="40.15078747707465" lon="9.163638610915205"><ele>873.5</ele><time>2026-04-27T16:25:19.39Z</time></trkpt><trkpt lat="40.15086939778937" lon="9.163742076093015"><ele>876.75</ele><time>2026-04-27T16:25:20.39Z</time></trkpt><trkpt lat="40.15095748259469" lon="9.163842695513376"><ele>880.0</ele><time>2026-04-27T16:25:21.391Z</time></trkpt><trkpt lat="40.151044283119695" lon="9.163957456739201"><ele>879.0</ele><time>2026-04-27T16:25:22.391Z</time></trkpt><trkpt lat="40.151128105346196" lon="9.164074423277823"><ele>878.0</ele><time>2026-04-27T16:25:23.391Z</time></trkpt><trkpt lat="40.151214548621994" lon="9.164191137507684"><ele>877.0</ele><time>2026-04-27T16:25:24.391Z</time></trkpt><trkpt lat="40.15130688597832" lon="9.164296629697825"><ele>876.0</ele><time>2026-04-27T16:25:25.391Z</time></trkpt><trkpt lat="40.151412541595185" lon="9.164381913396063"><ele>876.0</ele><time>2026-04-27T16:25:26.391Z</time></trkpt><trkpt lat="40.15153365576068" lon="9.164435441469573"><ele>876.0</ele><time>2026-04-27T16:25:27.391Z</time></trkpt><trkpt lat="40.1516541767308" lon="9.16447353180669"><ele>876.0</ele><time>2026-04-27T16:25:28.391Z</time></trkpt><trkpt lat="40.15177353313605" lon="9.164519284355965"><ele>876.0</ele><time>2026-04-27T16:25:29.391Z</time></trkpt><trkpt lat="40.151887720312324" lon="9.1645834149736"><ele>877.25</ele><time>2026-04-27T16:25:30.391Z</time></trkpt><trkpt lat="40.1519920749917" lon="9.164671554989733"><ele>878.5</ele><time>2026-04-27T16:25:31.391Z</time></trkpt><trkpt lat="40.15209163311001" lon="9.164778506266614"><ele>879.75</ele><time>2026-04-27T16:25:32.391Z</time></trkpt><trkpt lat="40.152169771107644" lon="9.16490061279973"><ele>881.0</ele><time>2026-04-27T16:25:33.391Z</time></trkpt><trkpt lat="40.152229131792524" lon="9.16503963302101"><ele>881.0</ele><time>2026-04-27T16:25:34.391Z</time></trkpt><trkpt lat="40.152289428404174" lon="9.165177387134776"><ele>881.0</ele><time>2026-04-27T16:25:35.391Z</time></trkpt><trkpt lat="40.15236376756436" lon="9.165300818810758"><ele>881.0</ele><time>2026-04-27T16:25:36.391Z</time></trkpt><trkpt lat="40.15242815517603" lon="9.165431614782129"><ele>881.0</ele><time>2026-04-27T16:25:37.391Z</time></trkpt><trkpt lat="40.15248030266147" lon="9.165581131607748"><ele>886.75</ele><time>2026-04-27T16:25:38.391Z</time></trkpt><trkpt lat="40.152527906278955" lon="9.165728225479432"><ele>892.5</ele><time>2026-04-27T16:25:39.391Z</time></trkpt><trkpt lat="40.15257898103512" lon="9.165877532520115"><ele>898.25</ele><time>2026-04-27T16:25:40.391Z</time></trkpt><trkpt lat="40.15263780809768" lon="9.166024119691926"><ele>904.0</ele><time>2026-04-27T16:25:41.391Z</time></trkpt><trkpt lat="40.15270627917129" lon="9.166168000464713"><ele>904.0</ele><time>2026-04-27T16:25:42.391Z</time></trkpt><trkpt lat="40.15277736058564" lon="9.166300245028827"><ele>904.0000000000001</ele><time>2026-04-27T16:25:43.391Z</time></trkpt><trkpt lat="40.15285598463863" lon="9.16640254619378"><ele>904.0000000000001</ele><time>2026-04-27T16:25:44.391Z</time></trkpt><trkpt lat="40.152931131911814" lon="9.166474676524896"><ele>904.0</ele><time>2026-04-27T16:25:45.391Z</time></trkpt><trkpt lat="40.15301076654683" lon="9.166513453978725"><ele>904.0</ele><time>2026-04-27T16:25:46.391Z</time></trkpt><trkpt lat="40.153107144131404" lon="9.166513645766285"><ele>905.8000000000001</ele><time>2026-04-27T16:25:47.391Z</time></trkpt><trkpt lat="40.15320887096286" lon="9.166487789728222"><ele>907.6000000000001</ele><time>2026-04-27T16:25:48.391Z</time></trkpt><trkpt lat="40.15331181434996" lon="9.16645306101696"><ele>909.4</ele><time>2026-04-27T16:25:49.391Z</time></trkpt><trkpt lat="40.15340285236222" lon="9.166443575059194"><ele>911.2</ele><time>2026-04-27T16:25:50.392Z</time></trkpt><trkpt lat="40.15347367500287" lon="9.166467766685084"><ele>913.0</ele><time>2026-04-27T16:25:51.393Z</time></trkpt><trkpt lat="40.153555939364786" lon="9.166626071850056"><ele>913.0</ele><time>2026-04-27T16:25:53.392Z</time></trkpt><trkpt lat="40.15360252627054" lon="9.166759864825686"><ele>913.0</ele><time>2026-04-27T16:25:54.392Z</time></trkpt><trkpt lat="40.15365907578644" lon="9.16689770621192"><ele>913.0</ele><time>2026-04-27T16:25:55.392Z</time></trkpt><trkpt lat="40.153737167381266" lon="9.167044135378394"><ele>913.0</ele><time>2026-04-27T16:25:56.392Z</time></trkpt><trkpt lat="40.15380920251149" lon="9.167191486831358"><ele>913.0</ele><time>2026-04-27T16:25:57.392Z</time></trkpt><trkpt lat="40.15387044946059" lon="9.16734298194502"><ele>913.0</ele><time>2026-04-27T16:25:58.392Z</time></trkpt><trkpt lat="40.15393579267311" lon="9.167503303141473"><ele>913.0</ele><time>2026-04-27T16:25:59.392Z</time></trkpt><trkpt lat="40.154006937779755" lon="9.167665169006852"><ele>913.0</ele><time>2026-04-27T16:26:00.392Z</time></trkpt><trkpt lat="40.154079078596574" lon="9.167822318536205"><ele>913.25</ele><time>2026-04-27T16:26:01.392Z</time></trkpt><trkpt lat="40.15414123731493" lon="9.167998886229192"><ele>913.5</ele><time>2026-04-27T16:26:02.393Z</time></trkpt><trkpt lat="40.15419785666568" lon="9.168178162532731"><ele>913.75</ele><time>2026-04-27T16:26:03.392Z</time></trkpt><trkpt lat="40.15425844704059" lon="9.168354320433771"><ele>914.0</ele><time>2026-04-27T16:26:04.392Z</time></trkpt><trkpt lat="40.15431837312297" lon="9.168523915449956"><ele>913.25</ele><time>2026-04-27T16:26:05.392Z</time></trkpt><trkpt lat="40.15438979381886" lon="9.168679991861252"><ele>912.5</ele><time>2026-04-27T16:26:06.392Z</time></trkpt><trkpt lat="40.154479402981174" lon="9.168816623018945"><ele>911.75</ele><time>2026-04-27T16:26:07.392Z</time></trkpt><trkpt lat="40.1545775775564" lon="9.16895126304055"><ele>911.0</ele><time>2026-04-27T16:26:08.392Z</time></trkpt><trkpt lat="40.15467522018364" lon="9.169086054506101"><ele>911.0</ele><time>2026-04-27T16:26:09.392Z</time></trkpt><trkpt lat="40.15477658228137" lon="9.169216506631832"><ele>911.0</ele><time>2026-04-27T16:26:10.392Z</time></trkpt><trkpt lat="40.15487158882277" lon="9.169344946315533"><ele>911.0</ele><time>2026-04-27T16:26:11.392Z</time></trkpt><trkpt lat="40.154967201223" lon="9.169475521788522"><ele>911.0</ele><time>2026-04-27T16:26:12.392Z</time></trkpt><trkpt lat="40.15506381105396" lon="9.1696078121296"><ele>911.75</ele><time>2026-04-27T16:26:13.392Z</time></trkpt><trkpt lat="40.1551566372914" lon="9.169740456036786"><ele>912.5</ele><time>2026-04-27T16:26:14.392Z</time></trkpt><trkpt lat="40.15525296279159" lon="9.169870312542493"><ele>913.25</ele><time>2026-04-27T16:26:15.393Z</time></trkpt><trkpt lat="40.155350417823776" lon="9.169998238625144"><ele>914.0</ele><time>2026-04-27T16:26:16.393Z</time></trkpt><trkpt lat="40.155446040077884" lon="9.17012285122314"><ele>914.0</ele><time>2026-04-27T16:26:17.393Z</time></trkpt><trkpt lat="40.15554732043733" lon="9.170251489818314"><ele>914.0</ele><time>2026-04-27T16:26:18.393Z</time></trkpt><trkpt lat="40.15564259772973" lon="9.170378935675469"><ele>914.0</ele><time>2026-04-27T16:26:19.393Z</time></trkpt><trkpt lat="40.155717641575336" lon="9.170515285917356"><ele>914.0</ele><time>2026-04-27T16:26:20.393Z</time></trkpt><trkpt lat="40.1557940975446" lon="9.17065081825316"><ele>915.25</ele><time>2026-04-27T16:26:21.393Z</time></trkpt><trkpt lat="40.155842741835585" lon="9.170811063477915"><ele>916.5</ele><time>2026-04-27T16:26:22.393Z</time></trkpt><trkpt lat="40.15587473252943" lon="9.170977662796167"><ele>917.75</ele><time>2026-04-27T16:26:23.393Z</time></trkpt><trkpt lat="40.155896326783136" lon="9.17114217890286"><ele>919.0</ele><time>2026-04-27T16:26:24.393Z</time></trkpt><trkpt lat="40.155921363031894" lon="9.1712964605904"><ele>919.0</ele><time>2026-04-27T16:26:25.393Z</time></trkpt><trkpt lat="40.155959408656" lon="9.171452704585883"><ele>919.0</ele><time>2026-04-27T16:26:26.393Z</time></trkpt><trkpt lat="40.15601678879873" lon="9.171606957753026"><ele>919.0</ele><time>2026-04-27T16:26:27.393Z</time></trkpt><trkpt lat="40.156095972082866" lon="9.171750916190161"><ele>919.0</ele><time>2026-04-27T16:26:28.393Z</time></trkpt><trkpt lat="40.15618869830585" lon="9.17187327933764"><ele>921.0</ele><time>2026-04-27T16:26:29.393Z</time></trkpt><trkpt lat="40.15629071241237" lon="9.17198641474018"><ele>923.0</ele><time>2026-04-27T16:26:30.393Z</time></trkpt><trkpt lat="40.15638590635503" lon="9.172105733386028"><ele>925.0</ele><time>2026-04-27T16:26:31.393Z</time></trkpt><trkpt lat="40.15647659715134" lon="9.1722306741577"><ele>927.0</ele><time>2026-04-27T16:26:32.393Z</time></trkpt><trkpt lat="40.156553770573495" lon="9.172371511440435"><ele>928.5</ele><time>2026-04-27T16:26:33.393Z</time></trkpt><trkpt lat="40.156616662576994" lon="9.172533904737417"><ele>930.0</ele><time>2026-04-27T16:26:34.393Z</time></trkpt><trkpt lat="40.15668050049646" lon="9.172700358480071"><ele>931.5</ele><time>2026-04-27T16:26:35.393Z</time></trkpt><trkpt lat="40.156741864321866" lon="9.172866318746234"><ele>933.0</ele><time>2026-04-27T16:26:36.393Z</time></trkpt><trkpt lat="40.15681888490279" lon="9.173019359862167"><ele>933.0</ele><time>2026-04-27T16:26:37.393Z</time></trkpt><trkpt lat="40.156914101534205" lon="9.17314413413472"><ele>933.0</ele><time>2026-04-27T16:26:38.393Z</time></trkpt><trkpt lat="40.15702619509806" lon="9.173254886770192"><ele>933.0</ele><time>2026-04-27T16:26:39.393Z</time></trkpt><trkpt lat="40.15715701553799" lon="9.173338239189489"><ele>933.0</ele><time>2026-04-27T16:26:40.393Z</time></trkpt><trkpt lat="40.15729854304944" lon="9.17340659103344"><ele>934.6666666666667</ele><time>2026-04-27T16:26:41.393Z</time></trkpt><trkpt lat="40.15744601219947" lon="9.173473511479283"><ele>936.3333333333334</ele><time>2026-04-27T16:26:42.393Z</time></trkpt><trkpt lat="40.15759303306419" lon="9.173543315125857"><ele>938.0</ele><time>2026-04-27T16:26:43.393Z</time></trkpt><trkpt lat="40.157742603263976" lon="9.17361358809953"><ele>938.0</ele><time>2026-04-27T16:26:44.393Z</time></trkpt><trkpt lat="40.15788565479023" lon="9.173681905302542"><ele>938.0</ele><time>2026-04-27T16:26:45.393Z</time></trkpt><trkpt lat="40.15803384918671" lon="9.173750687115414"><ele>938.0</ele><time>2026-04-27T16:26:46.393Z</time></trkpt><trkpt lat="40.15817981198173" lon="9.173808777001168"><ele>939.0</ele><time>2026-04-27T16:26:47.393Z</time></trkpt><trkpt lat="40.158327383138214" lon="9.173870660110802"><ele>940.0</ele><time>2026-04-27T16:26:48.393Z</time></trkpt><trkpt lat="40.15847221263739" lon="9.173934766467621"><ele>941.0</ele><time>2026-04-27T16:26:49.393Z</time></trkpt><trkpt lat="40.15861738873136" lon="9.17400280528689"><ele>942.3333333333334</ele><time>2026-04-27T16:26:50.393Z</time></trkpt><trkpt lat="40.158760676801705" lon="9.17406428173861"><ele>943.6666666666667</ele><time>2026-04-27T16:26:51.393Z</time></trkpt><trkpt lat="40.158906865540814" lon="9.174123225518073"><ele>945.0</ele><time>2026-04-27T16:26:52.393Z</time></trkpt><trkpt lat="40.159051129443924" lon="9.174185565820158"><ele>947.0</ele><time>2026-04-27T16:26:53.393Z</time></trkpt><trkpt lat="40.15919133574965" lon="9.174249853558273"><ele>949.0</ele><time>2026-04-27T16:26:54.393Z</time></trkpt><trkpt lat="40.15932660161814" lon="9.174336340940778"><ele>951.0</ele><time>2026-04-27T16:26:55.393Z</time></trkpt><trkpt lat="40.15944975441002" lon="9.174447802766494"><ele>953.0</ele><time>2026-04-27T16:26:56.393Z</time></trkpt><trkpt lat="40.15956738009541" lon="9.174581894235015"><ele>953.0</ele><time>2026-04-27T16:26:57.393Z</time></trkpt><trkpt lat="40.15968052900761" lon="9.174721447956543"><ele>953.0</ele><time>2026-04-27T16:26:58.393Z</time></trkpt><trkpt lat="40.15979941505754" lon="9.174862235450043"><ele>953.0</ele><time>2026-04-27T16:26:59.393Z</time></trkpt><trkpt lat="40.15992362691915" lon="9.175004486701445"><ele>956.3333333333334</ele><time>2026-04-27T16:27:00.393Z</time></trkpt><trkpt lat="40.16004864879004" lon="9.175151322152955"><ele>959.6666666666667</ele><time>2026-04-27T16:27:01.393Z</time></trkpt><trkpt lat="40.1601750879161" lon="9.175301398123276"><ele>963.0</ele><time>2026-04-27T16:27:02.393Z</time></trkpt><trkpt lat="40.16029992964216" lon="9.175447466167071"><ele>963.0</ele><time>2026-04-27T16:27:03.393Z</time></trkpt><trkpt lat="40.16042375786869" lon="9.175586476096036"><ele>963.0</ele><time>2026-04-27T16:27:04.393Z</time></trkpt><trkpt lat="40.16055331929172" lon="9.175719196370244"><ele>963.0</ele><time>2026-04-27T16:27:05.393Z</time></trkpt><trkpt lat="40.16068321808835" lon="9.175848319724631"><ele>965.3333333333333</ele><time>2026-04-27T16:27:06.393Z</time></trkpt><trkpt lat="40.16081456256183" lon="9.17597246402664"><ele>967.6666666666666</ele><time>2026-04-27T16:27:07.393Z</time></trkpt><trkpt lat="40.16094040641498" lon="9.176093827578377"><ele>970.0</ele><time>2026-04-27T16:27:08.393Z</time></trkpt><trkpt lat="40.16106690674833" lon="9.176214827831716"><ele>970.0</ele><time>2026-04-27T16:27:09.393Z</time></trkpt><trkpt lat="40.161193707723115" lon="9.176335713979633"><ele>970.0</ele><time>2026-04-27T16:27:10.393Z</time></trkpt><trkpt lat="40.161323439133014" lon="9.176459056184592"><ele>970.0</ele><time>2026-04-27T16:27:11.393Z</time></trkpt><trkpt lat="40.1614466339656" lon="9.176580245289745"><ele>971.0</ele><time>2026-04-27T16:27:12.393Z</time></trkpt><trkpt lat="40.16156709090906" lon="9.176695994577825"><ele>972.0</ele><time>2026-04-27T16:27:13.393Z</time></trkpt><trkpt lat="40.16168533877875" lon="9.176806429816702"><ele>973.0</ele><time>2026-04-27T16:27:14.393Z</time></trkpt><trkpt lat="40.16179830170237" lon="9.17691016860342"><ele>974.0</ele><time>2026-04-27T16:27:15.393Z</time></trkpt><trkpt lat="40.161911447555745" lon="9.177014972098837"><ele>974.0</ele><time>2026-04-27T16:27:16.393Z</time></trkpt><trkpt lat="40.16203081704513" lon="9.177120843792812"><ele>974.0</ele><time>2026-04-27T16:27:17.393Z</time></trkpt><trkpt lat="40.16214545167676" lon="9.17723519393641"><ele>974.0</ele><time>2026-04-27T16:27:18.393Z</time></trkpt><trkpt lat="40.162265724112636" lon="9.177338579125857"><ele>974.0</ele><time>2026-04-27T16:27:19.393Z</time></trkpt><trkpt lat="40.162372642827236" lon="9.177439247797583"><ele>973.4000000000001</ele><time>2026-04-27T16:27:20.393Z</time></trkpt><trkpt lat="40.16247293990343" lon="9.1775188466355"><ele>972.8000000000001</ele><time>2026-04-27T16:27:21.393Z</time></trkpt><trkpt lat="40.16256816121087" lon="9.177607175432188"><ele>972.1999999999999</ele><time>2026-04-27T16:27:22.393Z</time></trkpt><trkpt lat="40.16265921311875" lon="9.177682533462455"><ele>971.5999999999999</ele><time>2026-04-27T16:27:23.393Z</time></trkpt><trkpt lat="40.16273895222206" lon="9.177764219696252"><ele>971.0</ele><time>2026-04-27T16:27:24.393Z</time></trkpt><trkpt lat="40.16281442765098" lon="9.177834523767002"><ele>971.0000000000001</ele><time>2026-04-27T16:27:25.393Z</time></trkpt><trkpt lat="40.16287957118911" lon="9.177890822679299"><ele>971.0</ele><time>2026-04-27T16:27:26.393Z</time></trkpt><trkpt lat="40.16294048134664" lon="9.177941665361965"><ele>971.0</ele><time>2026-04-27T16:27:27.393Z</time></trkpt><trkpt lat="40.16302222901745" lon="9.177966474356058"><ele>971.0</ele><time>2026-04-27T16:27:29.394Z</time></trkpt><trkpt lat="40.1630829345912" lon="9.17784508596926"><ele>971.0000000000001</ele><time>2026-04-27T16:27:31.394Z</time></trkpt><trkpt lat="40.163109705500574" lon="9.177758434706096"><ele>971.0</ele><time>2026-04-27T16:27:32.394Z</time></trkpt><trkpt lat="40.1631349066736" lon="9.177657238578352"><ele>971.0000000000001</ele><time>2026-04-27T16:27:33.394Z</time></trkpt><trkpt lat="40.163163416483634" lon="9.177539815150423"><ele>971.0</ele><time>2026-04-27T16:27:34.394Z</time></trkpt><trkpt lat="40.16319051612013" lon="9.177431443079701"><ele>971.0</ele><time>2026-04-27T16:27:35.394Z</time></trkpt><trkpt lat="40.16320792715253" lon="9.177322369525594"><ele>971.0</ele><time>2026-04-27T16:27:36.394Z</time></trkpt><trkpt lat="40.16322928894998" lon="9.177219284221845"><ele>971.0000000000001</ele><time>2026-04-27T16:27:37.394Z</time></trkpt><trkpt lat="40.16325990575156" lon="9.177138426065614"><ele>971.0</ele><time>2026-04-27T16:27:38.394Z</time></trkpt><trkpt lat="40.16329915989276" lon="9.177062382271359"><ele>971.1999999999999</ele><time>2026-04-27T16:27:39.394Z</time></trkpt><trkpt lat="40.1633535044088" lon="9.176994594331546"><ele>971.3999999999999</ele><time>2026-04-27T16:27:40.394Z</time></trkpt><trkpt lat="40.16341895774291" lon="9.176926407485666"><ele>971.6</ele><time>2026-04-27T16:27:41.394Z</time></trkpt><trkpt lat="40.163490593272996" lon="9.176839436470793"><ele>971.8</ele><time>2026-04-27T16:27:42.394Z</time></trkpt><trkpt lat="40.16355073734208" lon="9.17672869387045"><ele>972.0</ele><time>2026-04-27T16:27:43.394Z</time></trkpt><trkpt lat="40.16358902589745" lon="9.17660832114939"><ele>973.5</ele><time>2026-04-27T16:27:44.394Z</time></trkpt><trkpt lat="40.16362608583503" lon="9.176473094643498"><ele>975.0</ele><time>2026-04-27T16:27:45.394Z</time></trkpt><trkpt lat="40.16367246261611" lon="9.176332352192826"><ele>976.5</ele><time>2026-04-27T16:27:46.394Z</time></trkpt><trkpt lat="40.163719328363314" lon="9.17618876319385"><ele>978.0</ele><time>2026-04-27T16:27:47.394Z</time></trkpt><trkpt lat="40.16377354308516" lon="9.176046509133199"><ele>978.0</ele><time>2026-04-27T16:27:48.394Z</time></trkpt><trkpt lat="40.16384977727356" lon="9.175934575098875"><ele>978.0</ele><time>2026-04-27T16:27:49.394Z</time></trkpt><trkpt lat="40.163950179051554" lon="9.175860463698745"><ele>978.0</ele><time>2026-04-27T16:27:50.394Z</time></trkpt><trkpt lat="40.16406738425876" lon="9.175829816819105"><ele>978.0</ele><time>2026-04-27T16:27:51.394Z</time></trkpt><trkpt lat="40.164185432164636" lon="9.175846819336916"><ele>975.75</ele><time>2026-04-27T16:27:52.394Z</time></trkpt><trkpt lat="40.16429941858624" lon="9.175893073519111"><ele>973.5</ele><time>2026-04-27T16:27:53.394Z</time></trkpt><trkpt lat="40.16441212178635" lon="9.17594676043804"><ele>971.25</ele><time>2026-04-27T16:27:54.394Z</time></trkpt><trkpt lat="40.16452450240838" lon="9.176002721374884"><ele>969.0</ele><time>2026-04-27T16:27:55.394Z</time></trkpt><trkpt lat="40.16463834540991" lon="9.176060856062449"><ele>969.0</ele><time>2026-04-27T16:27:56.395Z</time></trkpt><trkpt lat="40.16475258985545" lon="9.176113009858202"><ele>969.0</ele><time>2026-04-27T16:27:57.395Z</time></trkpt><trkpt lat="40.16486081099118" lon="9.176163320396691"><ele>969.0</ele><time>2026-04-27T16:27:58.396Z</time></trkpt><trkpt lat="40.16496653916094" lon="9.176220096341622"><ele>969.0</ele><time>2026-04-27T16:27:59.396Z</time></trkpt><trkpt lat="40.165066305761286" lon="9.176281359816521"><ele>969.25</ele><time>2026-04-27T16:28:00.395Z</time></trkpt><trkpt lat="40.165178857985616" lon="9.176332143328635"><ele>969.5</ele><time>2026-04-27T16:28:01.395Z</time></trkpt><trkpt lat="40.165301986793544" lon="9.176358676100286"><ele>969.75</ele><time>2026-04-27T16:28:02.395Z</time></trkpt><trkpt lat="40.165434400452945" lon="9.176372771662276"><ele>970.0</ele><time>2026-04-27T16:28:03.395Z</time></trkpt><trkpt lat="40.16556858489872" lon="9.176379852230772"><ele>970.25</ele><time>2026-04-27T16:28:04.395Z</time></trkpt><trkpt lat="40.16569947251754" lon="9.176378147408288"><ele>970.5</ele><time>2026-04-27T16:28:05.396Z</time></trkpt><trkpt lat="40.16583543459808" lon="9.176361346482727"><ele>970.75</ele><time>2026-04-27T16:28:06.395Z</time></trkpt><trkpt lat="40.16597374337244" lon="9.176344487463453"><ele>971.0</ele><time>2026-04-27T16:28:07.395Z</time></trkpt><trkpt lat="40.16611010016824" lon="9.176339020221265"><ele>971.0</ele><time>2026-04-27T16:28:08.396Z</time></trkpt><trkpt lat="40.16624563735556" lon="9.176336747550836"><ele>971.0</ele><time>2026-04-27T16:28:09.395Z</time></trkpt><trkpt lat="40.16638502502297" lon="9.176337759187929"><ele>971.0</ele><time>2026-04-27T16:28:10.395Z</time></trkpt><trkpt lat="40.166523608542946" lon="9.176326487339804"><ele>971.0</ele><time>2026-04-27T16:28:11.395Z</time></trkpt><trkpt lat="40.16665886626061" lon="9.176313654910082"><ele>968.5</ele><time>2026-04-27T16:28:12.395Z</time></trkpt><trkpt lat="40.16679754777066" lon="9.176313826721705"><ele>966.0</ele><time>2026-04-27T16:28:13.395Z</time></trkpt><trkpt lat="40.16692923301221" lon="9.176305279930531"><ele>963.5</ele><time>2026-04-27T16:28:14.395Z</time></trkpt><trkpt lat="40.16705686096075" lon="9.176307727255386"><ele>961.0</ele><time>2026-04-27T16:28:15.395Z</time></trkpt><trkpt lat="40.167178616987485" lon="9.176304209791821"><ele>961.0</ele><time>2026-04-27T16:28:16.395Z</time></trkpt><trkpt lat="40.1672894081587" lon="9.176296749132577"><ele>961.0</ele><time>2026-04-27T16:28:17.395Z</time></trkpt><trkpt lat="40.167411819265695" lon="9.176281116459368"><ele>961.0</ele><time>2026-04-27T16:28:18.395Z</time></trkpt><trkpt lat="40.167531646144454" lon="9.176238420772261"><ele>961.0</ele><time>2026-04-27T16:28:19.395Z</time></trkpt><trkpt lat="40.16766265301881" lon="9.176182416499723"><ele>960.0</ele><time>2026-04-27T16:28:20.395Z</time></trkpt><trkpt lat="40.16779357283979" lon="9.176132974844942"><ele>959.0</ele><time>2026-04-27T16:28:21.395Z</time></trkpt><trkpt lat="40.16792511219002" lon="9.176093478996908"><ele>958.0</ele><time>2026-04-27T16:28:22.395Z</time></trkpt><trkpt lat="40.16806125216723" lon="9.176064994497795"><ele>957.0</ele><time>2026-04-27T16:28:23.396Z</time></trkpt><trkpt lat="40.16819182126194" lon="9.176020531343957"><ele>955.75</ele><time>2026-04-27T16:28:24.396Z</time></trkpt><trkpt lat="40.16832621218578" lon="9.175984504230582"><ele>954.5</ele><time>2026-04-27T16:28:25.396Z</time></trkpt><trkpt lat="40.16845152371755" lon="9.175954709861626"><ele>953.25</ele><time>2026-04-27T16:28:26.396Z</time></trkpt><trkpt lat="40.168571784750256" lon="9.175919645289222"><ele>952.0</ele><time>2026-04-27T16:28:27.396Z</time></trkpt><trkpt lat="40.16869184704197" lon="9.175874531448267"><ele>952.0</ele><time>2026-04-27T16:28:28.396Z</time></trkpt><trkpt lat="40.16882134282144" lon="9.175858591826561"><ele>952.0</ele><time>2026-04-27T16:28:29.396Z</time></trkpt><trkpt lat="40.16894579641642" lon="9.175868374322896"><ele>952.0</ele><time>2026-04-27T16:28:30.396Z</time></trkpt><trkpt lat="40.16904025227565" lon="9.17588285220875"><ele>952.0</ele><time>2026-04-27T16:28:31.396Z</time></trkpt><trkpt lat="40.169103283427454" lon="9.175929900039954"><ele>952.0</ele><time>2026-04-27T16:28:32.396Z</time></trkpt><trkpt lat="40.169140817705156" lon="9.176011017375078"><ele>952.0</ele><time>2026-04-27T16:28:33.396Z</time></trkpt><trkpt lat="40.16914214721248" lon="9.176129119217425"><ele>952.0</ele><time>2026-04-27T16:28:34.396Z</time></trkpt><trkpt lat="40.16910967958947" lon="9.176247548912938"><ele>952.0</ele><time>2026-04-27T16:28:35.396Z</time></trkpt><trkpt lat="40.169062934413084" lon="9.176359400493215"><ele>952.0</ele><time>2026-04-27T16:28:36.396Z</time></trkpt><trkpt lat="40.169013475792624" lon="9.176463478283281"><ele>952.0</ele><time>2026-04-27T16:28:37.396Z</time></trkpt><trkpt lat="40.168972918730056" lon="9.176580041320394"><ele>951.2</ele><time>2026-04-27T16:28:38.396Z</time></trkpt><trkpt lat="40.16893347713472" lon="9.176664313963618"><ele>950.4000000000001</ele><time>2026-04-27T16:28:39.396Z</time></trkpt><trkpt lat="40.16881572388513" lon="9.17671585718826"><ele>949.5999999999999</ele><time>2026-04-27T16:28:41.396Z</time></trkpt><trkpt lat="40.16873660684697" lon="9.176653094733958"><ele>948.8</ele><time>2026-04-27T16:28:42.396Z</time></trkpt><trkpt lat="40.16865732421691" lon="9.176587198645498"><ele>948.0</ele><time>2026-04-27T16:28:43.396Z</time></trkpt><trkpt lat="40.168573074662994" lon="9.176550537363825"><ele>948.0</ele><time>2026-04-27T16:28:44.396Z</time></trkpt><trkpt lat="40.168492700255875" lon="9.176545998902615"><ele>948.0</ele><time>2026-04-27T16:28:45.396Z</time></trkpt><trkpt lat="40.168425169119594" lon="9.176629222824738"><ele>948.0</ele><time>2026-04-27T16:28:46.396Z</time></trkpt><trkpt lat="40.16838635263191" lon="9.176737592153628"><ele>948.0</ele><time>2026-04-27T16:28:47.396Z</time></trkpt><trkpt lat="40.168343086883546" lon="9.17684319987924"><ele>948.0</ele><time>2026-04-27T16:28:48.396Z</time></trkpt><trkpt lat="40.16829022342523" lon="9.176952617483213"><ele>948.0</ele><time>2026-04-27T16:28:49.396Z</time></trkpt><trkpt lat="40.16824098525905" lon="9.1770566439546"><ele>948.0</ele><time>2026-04-27T16:28:50.396Z</time></trkpt><trkpt lat="40.16818551899655" lon="9.177171567794996"><ele>948.0</ele><time>2026-04-27T16:28:51.396Z</time></trkpt><trkpt lat="40.168135064296116" lon="9.177277703154445"><ele>948.0</ele><time>2026-04-27T16:28:52.396Z</time></trkpt><trkpt lat="40.16808203100829" lon="9.177390289852019"><ele>948.0</ele><time>2026-04-27T16:28:53.396Z</time></trkpt><trkpt lat="40.16803128120289" lon="9.177497560711608"><ele>947.1666666666666</ele><time>2026-04-27T16:28:54.396Z</time></trkpt><trkpt lat="40.16798609375037" lon="9.1776028757896"><ele>946.3333333333333</ele><time>2026-04-27T16:28:55.396Z</time></trkpt><trkpt lat="40.16794730526331" lon="9.177696901707137"><ele>945.5</ele><time>2026-04-27T16:28:56.396Z</time></trkpt><trkpt lat="40.16793273023877" lon="9.177786768369765"><ele>944.6666666666666</ele><time>2026-04-27T16:28:57.396Z</time></trkpt><trkpt lat="40.167940660113935" lon="9.1778821304532"><ele>943.8333333333333</ele><time>2026-04-27T16:28:58.396Z</time></trkpt><trkpt lat="40.16797508829265" lon="9.177971249072295"><ele>943.0</ele><time>2026-04-27T16:28:59.396Z</time></trkpt><trkpt lat="40.16800565370514" lon="9.178066420717261"><ele>942.9999999999999</ele><time>2026-04-27T16:29:00.396Z</time></trkpt><trkpt lat="40.168043989122125" lon="9.178156913987529"><ele>943.0</ele><time>2026-04-27T16:29:01.396Z</time></trkpt><trkpt lat="40.16809446531422" lon="9.17823642042847"><ele>943.0</ele><time>2026-04-27T16:29:02.396Z</time></trkpt><trkpt lat="40.16816377440767" lon="9.178308111632887"><ele>943.0</ele><time>2026-04-27T16:29:03.396Z</time></trkpt><trkpt lat="40.1682374587476" lon="9.178370184859281"><ele>942.9999999999999</ele><time>2026-04-27T16:29:04.396Z</time></trkpt><trkpt lat="40.16831157491926" lon="9.178432105460633"><ele>943.0</ele><time>2026-04-27T16:29:05.396Z</time></trkpt><trkpt lat="40.16838833143228" lon="9.178503394436882"><ele>941.1666666666666</ele><time>2026-04-27T16:29:06.396Z</time></trkpt><trkpt lat="40.168463704806186" lon="9.178575063016552"><ele>939.3333333333333</ele><time>2026-04-27T16:29:07.396Z</time></trkpt><trkpt lat="40.16853448848656" lon="9.178633094172653"><ele>937.5</ele><time>2026-04-27T16:29:08.396Z</time></trkpt><trkpt lat="40.168603538807346" lon="9.178680907041128"><ele>935.6666666666667</ele><time>2026-04-27T16:29:09.396Z</time></trkpt><trkpt lat="40.168674368297474" lon="9.178739562320143"><ele>933.8333333333334</ele><time>2026-04-27T16:29:10.396Z</time></trkpt><trkpt lat="40.16874637736063" lon="9.178760467701325"><ele>932.0</ele><time>2026-04-27T16:29:11.396Z</time></trkpt><trkpt lat="40.168839639721334" lon="9.178844869474927"><ele>932.0000000000001</ele><time>2026-04-27T16:29:13.396Z</time></trkpt><trkpt lat="40.1688849265534" lon="9.178951624657085"><ele>932.0</ele><time>2026-04-27T16:29:15.396Z</time></trkpt><trkpt lat="40.168929956617674" lon="9.17901310675131"><ele>932.0</ele><time>2026-04-27T16:29:20.396Z</time></trkpt><trkpt lat="40.168865261639844" lon="9.179102197052421"><ele>932.0</ele><time>2026-04-27T16:29:22.396Z</time></trkpt><trkpt lat="40.1688038085235" lon="9.179121215897364"><ele>932.0000000000001</ele><time>2026-04-27T16:29:23.396Z</time></trkpt><trkpt lat="40.168694234255355" lon="9.17916470144933"><ele>932.0</ele><time>2026-04-27T16:29:25.396Z</time></trkpt><trkpt lat="40.16860084427809" lon="9.17923710287209"><ele>930.8</ele><time>2026-04-27T16:29:27.396Z</time></trkpt><trkpt lat="40.16857269607917" lon="9.179333234697964"><ele>929.6</ele><time>2026-04-27T16:29:29.396Z</time></trkpt><trkpt lat="40.16862395949507" lon="9.179423040425768"><ele>928.3999999999999</ele><time>2026-04-27T16:29:31.396Z</time></trkpt><trkpt lat="40.16871724924208" lon="9.179473719799526"><ele>927.1999999999999</ele><time>2026-04-27T16:29:33.396Z</time></trkpt><trkpt lat="40.16883499188468" lon="9.179547655810465"><ele>926.0</ele><time>2026-04-27T16:29:35.396Z</time></trkpt><trkpt lat="40.16894230602368" lon="9.179611508045308"><ele>926.0</ele><time>2026-04-27T16:29:37.397Z</time></trkpt><trkpt lat="40.16899488209333" lon="9.179698705513083"><ele>925.9999999999999</ele><time>2026-04-27T16:29:39.397Z</time></trkpt><trkpt lat="40.16898638899386" lon="9.179834672229601"><ele>925.9999999999999</ele><time>2026-04-27T16:29:41.397Z</time></trkpt><trkpt lat="40.168975845414344" lon="9.179996148741083"><ele>926.0</ele><time>2026-04-27T16:29:43.397Z</time></trkpt><trkpt lat="40.16896346915406" lon="9.180089143608539"><ele>926.0</ele><time>2026-04-27T16:29:44.397Z</time></trkpt><trkpt lat="40.168950364437634" lon="9.180190817584473"><ele>926.6666666666667</ele><time>2026-04-27T16:29:45.397Z</time></trkpt><trkpt lat="40.16893795857808" lon="9.180296731540789"><ele>927.3333333333334</ele><time>2026-04-27T16:29:46.397Z</time></trkpt><trkpt lat="40.168937990908255" lon="9.180404829845893"><ele>928.0</ele><time>2026-04-27T16:29:47.397Z</time></trkpt><trkpt lat="40.168958697588906" lon="9.180512372539857"><ele>928.6666666666667</ele><time>2026-04-27T16:29:48.397Z</time></trkpt><trkpt lat="40.16898962340583" lon="9.180633689201116"><ele>929.3333333333334</ele><time>2026-04-27T16:29:49.397Z</time></trkpt><trkpt lat="40.16902427472421" lon="9.180737616048992"><ele>930.0</ele><time>2026-04-27T16:29:50.397Z</time></trkpt><trkpt lat="40.16906042992796" lon="9.180840442358635"><ele>927.2</ele><time>2026-04-27T16:29:51.397Z</time></trkpt><trkpt lat="40.16910100442302" lon="9.180936704205179"><ele>924.4</ele><time>2026-04-27T16:29:52.397Z</time></trkpt><trkpt lat="40.16912687448122" lon="9.181041440618987"><ele>921.5999999999999</ele><time>2026-04-27T16:29:53.397Z</time></trkpt><trkpt lat="40.16915742075832" lon="9.1811569066528"><ele>918.8</ele><time>2026-04-27T16:29:54.397Z</time></trkpt><trkpt lat="40.16919893421819" lon="9.181269139057793"><ele>916.0</ele><time>2026-04-27T16:29:55.397Z</time></trkpt><trkpt lat="40.16924754500852" lon="9.181386386014088"><ele>916.0</ele><time>2026-04-27T16:29:56.397Z</time></trkpt><trkpt lat="40.16930850994699" lon="9.181500563941569"><ele>916.0</ele><time>2026-04-27T16:29:57.397Z</time></trkpt><trkpt lat="40.16937489782509" lon="9.181616948423722"><ele>916.0</ele><time>2026-04-27T16:29:58.397Z</time></trkpt><trkpt lat="40.16945814729899" lon="9.181726644258584"><ele>916.0</ele><time>2026-04-27T16:29:59.397Z</time></trkpt><trkpt lat="40.16954767758953" lon="9.181831034194477"><ele>916.75</ele><time>2026-04-27T16:30:00.397Z</time></trkpt><trkpt lat="40.1696421722277" lon="9.181929623382755"><ele>917.5</ele><time>2026-04-27T16:30:01.397Z</time></trkpt><trkpt lat="40.16973828684297" lon="9.182025484375822"><ele>918.25</ele><time>2026-04-27T16:30:02.399Z</time></trkpt><trkpt lat="40.16983530950662" lon="9.182117645685482"><ele>919.0</ele><time>2026-04-27T16:30:03.399Z</time></trkpt><trkpt lat="40.169943212022396" lon="9.182195476759281"><ele>916.75</ele><time>2026-04-27T16:30:04.399Z</time></trkpt><trkpt lat="40.170060004173195" lon="9.182259944518377"><ele>914.5</ele><time>2026-04-27T16:30:05.399Z</time></trkpt><trkpt lat="40.170181850418686" lon="9.18231456253171"><ele>912.25</ele><time>2026-04-27T16:30:06.399Z</time></trkpt><trkpt lat="40.17030300549307" lon="9.182360011502029"><ele>910.0</ele><time>2026-04-27T16:30:07.399Z</time></trkpt><trkpt lat="40.17042857285451" lon="9.1824079512914"><ele>910.0</ele><time>2026-04-27T16:30:08.399Z</time></trkpt><trkpt lat="40.17055682960509" lon="9.182459020826608"><ele>910.0</ele><time>2026-04-27T16:30:09.399Z</time></trkpt><trkpt lat="40.17068588168088" lon="9.182512767633284"><ele>910.0</ele><time>2026-04-27T16:30:10.399Z</time></trkpt><trkpt lat="40.17081770803601" lon="9.182558774854781"><ele>910.0</ele><time>2026-04-27T16:30:11.399Z</time></trkpt><trkpt lat="40.17094475464368" lon="9.182612589714955"><ele>907.0</ele><time>2026-04-27T16:30:12.399Z</time></trkpt><trkpt lat="40.17107410516736" lon="9.1826608998446"><ele>904.0</ele><time>2026-04-27T16:30:13.399Z</time></trkpt><trkpt lat="40.17120069060471" lon="9.18272750222322"><ele>901.0</ele><time>2026-04-27T16:30:14.399Z</time></trkpt><trkpt lat="40.171321213615904" lon="9.182829855335688"><ele>898.0</ele><time>2026-04-27T16:30:15.399Z</time></trkpt><trkpt lat="40.17142876907508" lon="9.18295405809791"><ele>895.6666666666666</ele><time>2026-04-27T16:30:16.399Z</time></trkpt><trkpt lat="40.17152907594238" lon="9.18310358088483"><ele>893.3333333333333</ele><time>2026-04-27T16:30:17.399Z</time></trkpt><trkpt lat="40.17163851469901" lon="9.18326299070359"><ele>891.0</ele><time>2026-04-27T16:30:18.399Z</time></trkpt><trkpt lat="40.17174565232071" lon="9.183444002816971"><ele>891.0</ele><time>2026-04-27T16:30:19.399Z</time></trkpt><trkpt lat="40.17187724036748" lon="9.183613685146316"><ele>891.0</ele><time>2026-04-27T16:30:20.399Z</time></trkpt><trkpt lat="40.17201659679775" lon="9.183791683454986"><ele>891.0</ele><time>2026-04-27T16:30:21.399Z</time></trkpt><trkpt lat="40.17217215313865" lon="9.183954891314476"><ele>886.6666666666667</ele><time>2026-04-27T16:30:22.399Z</time></trkpt><trkpt lat="40.17236288061215" lon="9.184105105415975"><ele>882.3333333333334</ele><time>2026-04-27T16:30:23.399Z</time></trkpt><trkpt lat="40.17255868896145" lon="9.184253288710275"><ele>878.0</ele><time>2026-04-27T16:30:24.399Z</time></trkpt><trkpt lat="40.17276266887938" lon="9.184390060935508"><ele>878.0</ele><time>2026-04-27T16:30:25.399Z</time></trkpt><trkpt lat="40.172937634037616" lon="9.184537850761725"><ele>878.0</ele><time>2026-04-27T16:30:26.399Z</time></trkpt><trkpt lat="40.1731206645547" lon="9.184679530264805"><ele>878.0</ele><time>2026-04-27T16:30:27.399Z</time></trkpt><trkpt lat="40.173264982877164" lon="9.184835803959198"><ele>874.3333333333334</ele><time>2026-04-27T16:30:28.399Z</time></trkpt><trkpt lat="40.17341500277638" lon="9.184980074651746"><ele>870.6666666666667</ele><time>2026-04-27T16:30:29.399Z</time></trkpt><trkpt lat="40.17353316460125" lon="9.185157760163522"><ele>867.0</ele><time>2026-04-27T16:30:30.399Z</time></trkpt><trkpt lat="40.17364452672207" lon="9.185322516224096"><ele>867.0</ele><time>2026-04-27T16:30:31.399Z</time></trkpt><trkpt lat="40.17366534334356" lon="9.185568385789255"><ele>867.0</ele><time>2026-04-27T16:30:32.399Z</time></trkpt><trkpt lat="40.173670697074385" lon="9.185801429773582"><ele>867.0</ele><time>2026-04-27T16:30:33.399Z</time></trkpt><trkpt lat="40.17363692804696" lon="9.186036464999482"><ele>867.0</ele><time>2026-04-27T16:30:34.399Z</time></trkpt><trkpt lat="40.173567294258085" lon="9.1862852602423"><ele>867.0</ele><time>2026-04-27T16:30:35.399Z</time></trkpt><trkpt lat="40.173497291397105" lon="9.186513317283246"><ele>867.0</ele><time>2026-04-27T16:30:36.399Z</time></trkpt><trkpt lat="40.17340571813421" lon="9.186723570566446"><ele>867.0</ele><time>2026-04-27T16:30:37.399Z</time></trkpt><trkpt lat="40.173296522483376" lon="9.186907245518865"><ele>867.0</ele><time>2026-04-27T16:30:38.399Z</time></trkpt><trkpt lat="40.173166547467005" lon="9.187076101881049"><ele>867.0</ele><time>2026-04-27T16:30:39.399Z</time></trkpt><trkpt lat="40.17302048600212" lon="9.187235811125221"><ele>867.3333333333333</ele><time>2026-04-27T16:30:40.399Z</time></trkpt><trkpt lat="40.17286848435774" lon="9.187400076684954"><ele>867.6666666666666</ele><time>2026-04-27T16:30:41.399Z</time></trkpt><trkpt lat="40.1727234303187" lon="9.187572837763042"><ele>868.0</ele><time>2026-04-27T16:30:42.399Z</time></trkpt><trkpt lat="40.17258971403813" lon="9.187742773416666"><ele>868.0</ele><time>2026-04-27T16:30:43.399Z</time></trkpt><trkpt lat="40.172457894059875" lon="9.187898751756144"><ele>868.0</ele><time>2026-04-27T16:30:44.399Z</time></trkpt><trkpt lat="40.1722982193561" lon="9.18799640581423"><ele>868.0</ele><time>2026-04-27T16:30:45.4Z</time></trkpt><trkpt lat="40.17211611426581" lon="9.188005406106337"><ele>872.25</ele><time>2026-04-27T16:30:46.4Z</time></trkpt><trkpt lat="40.17194764947308" lon="9.18795868651604"><ele>876.5</ele><time>2026-04-27T16:30:47.4Z</time></trkpt><trkpt lat="40.1718178941571" lon="9.18788432267544"><ele>880.75</ele><time>2026-04-27T16:30:48.4Z</time></trkpt><trkpt lat="40.17171943836393" lon="9.187827600957027"><ele>885.0</ele><time>2026-04-27T16:30:49.4Z</time></trkpt><trkpt lat="40.17162812831432" lon="9.18785620593812"><ele>885.0</ele><time>2026-04-27T16:30:50.4Z</time></trkpt><trkpt lat="40.17157902959021" lon="9.187914504806155"><ele>885.0</ele><time>2026-04-27T16:30:51.4Z</time></trkpt><trkpt lat="40.171673184316006" lon="9.187979710723116"><ele>885.0</ele><time>2026-04-27T16:30:53.4Z</time></trkpt><trkpt lat="40.171825195189356" lon="9.187992846893492"><ele>885.0</ele><time>2026-04-27T16:30:54.4Z</time></trkpt><trkpt lat="40.17197230781099" lon="9.188050452007696"><ele>885.0</ele><time>2026-04-27T16:30:55.4Z</time></trkpt><trkpt lat="40.172152944469936" lon="9.188141509444579"><ele>885.0</ele><time>2026-04-27T16:30:56.4Z</time></trkpt><trkpt lat="40.172319297690876" lon="9.188114935913726"><ele>885.0</ele><time>2026-04-27T16:30:57.4Z</time></trkpt><trkpt lat="40.17249573772752" lon="9.18804069608724"><ele>879.3333333333333</ele><time>2026-04-27T16:30:58.4Z</time></trkpt><trkpt lat="40.172680965170514" lon="9.187964158279438"><ele>873.6666666666666</ele><time>2026-04-27T16:30:59.4Z</time></trkpt><trkpt lat="40.172857016113845" lon="9.187905411066678"><ele>868.0</ele><time>2026-04-27T16:31:00.4Z</time></trkpt><trkpt lat="40.17304167158025" lon="9.187901426707546"><ele>861.3333333333333</ele><time>2026-04-27T16:31:01.4Z</time></trkpt><trkpt lat="40.17321659592572" lon="9.187858215526374"><ele>854.6666666666667</ele><time>2026-04-27T16:31:02.4Z</time></trkpt><trkpt lat="40.17338806034634" lon="9.187798967301223"><ele>848.0</ele><time>2026-04-27T16:31:03.4Z</time></trkpt><trkpt lat="40.1735749362024" lon="9.187756092162736"><ele>848.0</ele><time>2026-04-27T16:31:04.4Z</time></trkpt><trkpt lat="40.17374554319281" lon="9.187712077235506"><ele>848.0</ele><time>2026-04-27T16:31:05.4Z</time></trkpt><trkpt lat="40.173928490801394" lon="9.187676976357697"><ele>848.0</ele><time>2026-04-27T16:31:06.4Z</time></trkpt><trkpt lat="40.17408503553076" lon="9.187591372250216"><ele>846.3333333333334</ele><time>2026-04-27T16:31:07.4Z</time></trkpt><trkpt lat="40.1742228105741" lon="9.187484569648129"><ele>844.6666666666667</ele><time>2026-04-27T16:31:08.4Z</time></trkpt><trkpt lat="40.17435595526615" lon="9.187363043592287"><ele>843.0</ele><time>2026-04-27T16:31:09.4Z</time></trkpt><trkpt lat="40.17448109587832" lon="9.187218411526532"><ele>843.0</ele><time>2026-04-27T16:31:10.4Z</time></trkpt><trkpt lat="40.174604215223894" lon="9.187074645791506"><ele>843.0</ele><time>2026-04-27T16:31:11.4Z</time></trkpt><trkpt lat="40.17472480796948" lon="9.186946676204807"><ele>843.0</ele><time>2026-04-27T16:31:12.4Z</time></trkpt><trkpt lat="40.17485610416333" lon="9.186850968707528"><ele>840.2</ele><time>2026-04-27T16:31:13.4Z</time></trkpt><trkpt lat="40.17498981389471" lon="9.186809141854448"><ele>837.4</ele><time>2026-04-27T16:31:14.4Z</time></trkpt><trkpt lat="40.17511340298488" lon="9.186818440740065"><ele>834.6</ele><time>2026-04-27T16:31:15.4Z</time></trkpt><trkpt lat="40.17519503613363" lon="9.186874669372237"><ele>831.8000000000001</ele><time>2026-04-27T16:31:16.4Z</time></trkpt><trkpt lat="40.17523536685109" lon="9.186980703803124"><ele>829.0</ele><time>2026-04-27T16:31:17.4Z</time></trkpt><trkpt lat="40.17523189211317" lon="9.187129496287012"><ele>829.0</ele><time>2026-04-27T16:31:18.4Z</time></trkpt><trkpt lat="40.17519980570591" lon="9.187302209655993"><ele>829.0</ele><time>2026-04-27T16:31:19.4Z</time></trkpt><trkpt lat="40.17515514598958" lon="9.187496098168953"><ele>829.0</ele><time>2026-04-27T16:31:20.4Z</time></trkpt><trkpt lat="40.17510174057502" lon="9.187698420699915"><ele>826.75</ele><time>2026-04-27T16:31:21.4Z</time></trkpt><trkpt lat="40.17505634514388" lon="9.187888056996433"><ele>824.5</ele><time>2026-04-27T16:31:22.4Z</time></trkpt><trkpt lat="40.17503495776981" lon="9.188056369458607"><ele>822.25</ele><time>2026-04-27T16:31:23.4Z</time></trkpt><trkpt lat="40.17505605319446" lon="9.188219964592612"><ele>820.0</ele><time>2026-04-27T16:31:24.4Z</time></trkpt><trkpt lat="40.175129453187736" lon="9.188368226655667"><ele>819.0</ele><time>2026-04-27T16:31:25.4Z</time></trkpt><trkpt lat="40.175235462047446" lon="9.18848979885027"><ele>818.0</ele><time>2026-04-27T16:31:26.4Z</time></trkpt><trkpt lat="40.17535226747142" lon="9.188597386305275"><ele>817.0</ele><time>2026-04-27T16:31:27.4Z</time></trkpt><trkpt lat="40.17547392429609" lon="9.188709069610663"><ele>816.0</ele><time>2026-04-27T16:31:28.4Z</time></trkpt><trkpt lat="40.175593953604434" lon="9.188818450018491"><ele>815.5</ele><time>2026-04-27T16:31:29.4Z</time></trkpt><trkpt lat="40.17570343942326" lon="9.188937427546955"><ele>815.0</ele><time>2026-04-27T16:31:30.4Z</time></trkpt><trkpt lat="40.175794021424075" lon="9.189051396483707"><ele>814.5</ele><time>2026-04-27T16:31:31.4Z</time></trkpt><trkpt lat="40.17585457466341" lon="9.189175851723634"><ele>814.0</ele><time>2026-04-27T16:31:32.4Z</time></trkpt><trkpt lat="40.175878221883806" lon="9.189327239888119"><ele>812.8000000000001</ele><time>2026-04-27T16:31:33.4Z</time></trkpt><trkpt lat="40.17588597799784" lon="9.189488299018803"><ele>811.6</ele><time>2026-04-27T16:31:34.4Z</time></trkpt><trkpt lat="40.17588931348353" lon="9.189629197344258"><ele>810.4</ele><time>2026-04-27T16:31:35.4Z</time></trkpt><trkpt lat="40.17589150883484" lon="9.18973266000467"><ele>809.2</ele><time>2026-04-27T16:31:36.4Z</time></trkpt><trkpt lat="40.17587538759821" lon="9.189823474910943"><ele>808.0</ele><time>2026-04-27T16:31:37.4Z</time></trkpt><trkpt lat="40.1758234065326" lon="9.189912274823797"><ele>806.25</ele><time>2026-04-27T16:31:38.4Z</time></trkpt><trkpt lat="40.17574272224721" lon="9.189986741362398"><ele>804.5</ele><time>2026-04-27T16:31:39.4Z</time></trkpt><trkpt lat="40.17564416668915" lon="9.190053924619862"><ele>802.75</ele><time>2026-04-27T16:31:40.4Z</time></trkpt><trkpt lat="40.175536315531964" lon="9.190119221302409"><ele>801.0</ele><time>2026-04-27T16:31:41.4Z</time></trkpt><trkpt lat="40.17542484526208" lon="9.190187356848748"><ele>801.0</ele><time>2026-04-27T16:31:42.4Z</time></trkpt><trkpt lat="40.17530662691878" lon="9.190257461495367"><ele>801.0</ele><time>2026-04-27T16:31:43.4Z</time></trkpt><trkpt lat="40.17518594270387" lon="9.190323835467156"><ele>801.0</ele><time>2026-04-27T16:31:44.4Z</time></trkpt><trkpt lat="40.17505884488613" lon="9.190378566631578"><ele>801.0</ele><time>2026-04-27T16:31:45.4Z</time></trkpt><trkpt lat="40.17493615604111" lon="9.190426768090004"><ele>801.25</ele><time>2026-04-27T16:31:46.4Z</time></trkpt><trkpt lat="40.17480820707574" lon="9.190469568807785"><ele>801.5</ele><time>2026-04-27T16:31:47.4Z</time></trkpt><trkpt lat="40.17466930812225" lon="9.190511997372813"><ele>801.75</ele><time>2026-04-27T16:31:48.4Z</time></trkpt><trkpt lat="40.17451408848338" lon="9.190552082478987"><ele>802.0</ele><time>2026-04-27T16:31:49.4Z</time></trkpt><trkpt lat="40.174348327991886" lon="9.190588772561409"><ele>802.0</ele><time>2026-04-27T16:31:50.4Z</time></trkpt><trkpt lat="40.174165597900895" lon="9.190620242690263"><ele>802.0</ele><time>2026-04-27T16:31:51.4Z</time></trkpt><trkpt lat="40.173977966219105" lon="9.19065523675448"><ele>802.0</ele><time>2026-04-27T16:31:52.4Z</time></trkpt><trkpt lat="40.17378006932311" lon="9.190694309620403"><ele>800.0</ele><time>2026-04-27T16:31:53.4Z</time></trkpt><trkpt lat="40.173569211689504" lon="9.190711366013232"><ele>798.0</ele><time>2026-04-27T16:31:54.4Z</time></trkpt><trkpt lat="40.17334756852787" lon="9.190724678466232"><ele>796.0</ele><time>2026-04-27T16:31:55.4Z</time></trkpt><trkpt lat="40.17311477925683" lon="9.190711586539415"><ele>796.0</ele><time>2026-04-27T16:31:56.4Z</time></trkpt><trkpt lat="40.172886338346395" lon="9.190698375493419"><ele>796.0</ele><time>2026-04-27T16:31:57.4Z</time></trkpt><trkpt lat="40.172658577941185" lon="9.190703923986051"><ele>796.0</ele><time>2026-04-27T16:31:58.401Z</time></trkpt><trkpt lat="40.172467860258436" lon="9.190729523776877"><ele>796.0</ele><time>2026-04-27T16:31:59.401Z</time></trkpt><trkpt lat="40.172295102796504" lon="9.190804901086159"><ele>796.0</ele><time>2026-04-27T16:32:00.401Z</time></trkpt><trkpt lat="40.172142314000084" lon="9.19089226477944"><ele>798.6666666666666</ele><time>2026-04-27T16:32:01.401Z</time></trkpt><trkpt lat="40.17199933741485" lon="9.191028032380837"><ele>801.3333333333333</ele><time>2026-04-27T16:32:02.401Z</time></trkpt><trkpt lat="40.17188755991329" lon="9.191166285624442"><ele>804.0</ele><time>2026-04-27T16:32:03.401Z</time></trkpt><trkpt lat="40.17174812501869" lon="9.19126434281443"><ele>804.0</ele><time>2026-04-27T16:32:04.401Z</time></trkpt><trkpt lat="40.171578871182454" lon="9.19137689877471"><ele>804.0</ele><time>2026-04-27T16:32:05.401Z</time></trkpt><trkpt lat="40.171432598965914" lon="9.191513121216952"><ele>804.0</ele><time>2026-04-27T16:32:06.401Z</time></trkpt><trkpt lat="40.17121778609076" lon="9.191641976870002"><ele>799.3333333333333</ele><time>2026-04-27T16:32:07.401Z</time></trkpt><trkpt lat="40.1710038382259" lon="9.19174370338004"><ele>794.6666666666666</ele><time>2026-04-27T16:32:08.402Z</time></trkpt><trkpt lat="40.170790698427005" lon="9.191780960796091"><ele>790.0</ele><time>2026-04-27T16:32:09.402Z</time></trkpt><trkpt lat="40.170586730191076" lon="9.19183971374563"><ele>790.0</ele><time>2026-04-27T16:32:10.402Z</time></trkpt><trkpt lat="40.17039507047422" lon="9.191928671967705"><ele>790.0</ele><time>2026-04-27T16:32:11.403Z</time></trkpt><trkpt lat="40.17022487593682" lon="9.19203501820221"><ele>790.0</ele><time>2026-04-27T16:32:12.403Z</time></trkpt><trkpt lat="40.17004399207485" lon="9.192105462995698"><ele>790.0</ele><time>2026-04-27T16:32:13.403Z</time></trkpt><trkpt lat="40.1698695548927" lon="9.192125842807075"><ele>790.0</ele><time>2026-04-27T16:32:14.403Z</time></trkpt><trkpt lat="40.16968041713816" lon="9.192100306188847"><ele>790.0</ele><time>2026-04-27T16:32:15.402Z</time></trkpt><trkpt lat="40.16948278382598" lon="9.192058761641876"><ele>790.3333333333333</ele><time>2026-04-27T16:32:16.402Z</time></trkpt><trkpt lat="40.16929423829075" lon="9.192042466455145"><ele>790.6666666666667</ele><time>2026-04-27T16:32:17.402Z</time></trkpt><trkpt lat="40.16911356606333" lon="9.192071004608295"><ele>791.0</ele><time>2026-04-27T16:32:18.402Z</time></trkpt><trkpt lat="40.16893651222432" lon="9.192126256588482"><ele>792.3333333333334</ele><time>2026-04-27T16:32:19.402Z</time></trkpt><trkpt lat="40.16875157026745" lon="9.192199475999027"><ele>793.6666666666667</ele><time>2026-04-27T16:32:20.402Z</time></trkpt><trkpt lat="40.16856162960589" lon="9.192280840605964"><ele>795.0</ele><time>2026-04-27T16:32:21.403Z</time></trkpt><trkpt lat="40.16838279135681" lon="9.192350809789334"><ele>794.6666666666667</ele><time>2026-04-27T16:32:22.403Z</time></trkpt><trkpt lat="40.16821248222266" lon="9.192380247949298"><ele>794.3333333333334</ele><time>2026-04-27T16:32:23.403Z</time></trkpt><trkpt lat="40.16803875261761" lon="9.192373119512238"><ele>794.0</ele><time>2026-04-27T16:32:24.403Z</time></trkpt><trkpt lat="40.1678591702464" lon="9.192320516342528"><ele>794.0</ele><time>2026-04-27T16:32:25.403Z</time></trkpt><trkpt lat="40.167679286928035" lon="9.192256396330752"><ele>794.0</ele><time>2026-04-27T16:32:26.403Z</time></trkpt><trkpt lat="40.16752158947063" lon="9.192201897890355"><ele>794.0</ele><time>2026-04-27T16:32:27.403Z</time></trkpt><trkpt lat="40.167377710303704" lon="9.19220584814523"><ele>796.6666666666667</ele><time>2026-04-27T16:32:28.403Z</time></trkpt><trkpt lat="40.16723793801714" lon="9.192307036393208"><ele>799.3333333333333</ele><time>2026-04-27T16:32:29.403Z</time></trkpt><trkpt lat="40.16712708001022" lon="9.192460726206814"><ele>802.0</ele><time>2026-04-27T16:32:30.403Z</time></trkpt><trkpt lat="40.16700911864401" lon="9.19258485266783"><ele>797.5</ele><time>2026-04-27T16:32:31.403Z</time></trkpt><trkpt lat="40.16689366976678" lon="9.19271161971369"><ele>793.0</ele><time>2026-04-27T16:32:32.403Z</time></trkpt><trkpt lat="40.16677397551109" lon="9.192815502477593"><ele>788.5</ele><time>2026-04-27T16:32:33.403Z</time></trkpt><trkpt lat="40.166641130918634" lon="9.192888409706619"><ele>784.0</ele><time>2026-04-27T16:32:34.403Z</time></trkpt><trkpt lat="40.16648686263913" lon="9.192931603752168"><ele>784.0</ele><time>2026-04-27T16:32:35.403Z</time></trkpt><trkpt lat="40.166330723229926" lon="9.193005894692774"><ele>784.0</ele><time>2026-04-27T16:32:36.403Z</time></trkpt><trkpt lat="40.166184600866686" lon="9.193127585200342"><ele>784.0</ele><time>2026-04-27T16:32:37.403Z</time></trkpt><trkpt lat="40.16605541279686" lon="9.193293404250618"><ele>778.6666666666666</ele><time>2026-04-27T16:32:38.403Z</time></trkpt><trkpt lat="40.1659419340753" lon="9.193450184533699"><ele>773.3333333333333</ele><time>2026-04-27T16:32:39.403Z</time></trkpt><trkpt lat="40.1658221039438" lon="9.193572411410962"><ele>768.0</ele><time>2026-04-27T16:32:40.403Z</time></trkpt><trkpt lat="40.16568880250454" lon="9.193648657063035"><ele>765.0</ele><time>2026-04-27T16:32:41.403Z</time></trkpt><trkpt lat="40.16552818484477" lon="9.19366820083075"><ele>762.0</ele><time>2026-04-27T16:32:42.403Z</time></trkpt><trkpt lat="40.1653672260795" lon="9.193637245593761"><ele>759.0</ele><time>2026-04-27T16:32:43.403Z</time></trkpt><trkpt lat="40.16523089826125" lon="9.19360171358193"><ele>759.0</ele><time>2026-04-27T16:32:44.403Z</time></trkpt><trkpt lat="40.16513198757964" lon="9.193511826943817"><ele>759.0</ele><time>2026-04-27T16:32:45.403Z</time></trkpt><trkpt lat="40.16509148220006" lon="9.193373324757275"><ele>759.0</ele><time>2026-04-27T16:32:46.403Z</time></trkpt><trkpt lat="40.165084241943234" lon="9.193219437965146"><ele>759.0</ele><time>2026-04-27T16:32:47.403Z</time></trkpt><trkpt lat="40.16507652939158" lon="9.193045507645376"><ele>760.5</ele><time>2026-04-27T16:32:48.403Z</time></trkpt><trkpt lat="40.16503083432842" lon="9.192896358948067"><ele>762.0</ele><time>2026-04-27T16:32:49.403Z</time></trkpt><trkpt lat="40.16496645636585" lon="9.192765597933859"><ele>763.5</ele><time>2026-04-27T16:32:50.403Z</time></trkpt><trkpt lat="40.16487506998088" lon="9.192677304430429"><ele>765.0</ele><time>2026-04-27T16:32:51.403Z</time></trkpt><trkpt lat="40.1647634657417" lon="9.192643610414695"><ele>765.0</ele><time>2026-04-27T16:32:52.403Z</time></trkpt><trkpt lat="40.164642948381164" lon="9.192642068740213"><ele>765.0</ele><time>2026-04-27T16:32:53.403Z</time></trkpt><trkpt lat="40.16452353544967" lon="9.192666523362492"><ele>765.0</ele><time>2026-04-27T16:32:54.403Z</time></trkpt><trkpt lat="40.16439818107382" lon="9.192690132139024"><ele>765.0</ele><time>2026-04-27T16:32:55.403Z</time></trkpt><trkpt lat="40.1642708682295" lon="9.192718306364732"><ele>765.0</ele><time>2026-04-27T16:32:56.403Z</time></trkpt><trkpt lat="40.16414787517867" lon="9.192712992818556"><ele>765.0</ele><time>2026-04-27T16:32:57.403Z</time></trkpt><trkpt lat="40.16402381241492" lon="9.192656397381882"><ele>765.0</ele><time>2026-04-27T16:32:58.403Z</time></trkpt><trkpt lat="40.16391219652392" lon="9.19256507805504"><ele>765.0</ele><time>2026-04-27T16:32:59.403Z</time></trkpt><trkpt lat="40.16380861389053" lon="9.19245277631603"><ele>768.75</ele><time>2026-04-27T16:33:00.403Z</time></trkpt><trkpt lat="40.16370727881229" lon="9.192330934756427"><ele>772.5</ele><time>2026-04-27T16:33:01.403Z</time></trkpt><trkpt lat="40.16360447570953" lon="9.19221084179435"><ele>776.25</ele><time>2026-04-27T16:33:02.403Z</time></trkpt><trkpt lat="40.16348254729737" lon="9.192134793776901"><ele>780.0</ele><time>2026-04-27T16:33:03.403Z</time></trkpt><trkpt lat="40.16334633990375" lon="9.19210459399728"><ele>780.0</ele><time>2026-04-27T16:33:04.403Z</time></trkpt><trkpt lat="40.16320519055886" lon="9.192108864933559"><ele>780.0</ele><time>2026-04-27T16:33:05.403Z</time></trkpt><trkpt lat="40.16306891431741" lon="9.192133921605862"><ele>780.0</ele><time>2026-04-27T16:33:06.403Z</time></trkpt><trkpt lat="40.16294106661088" lon="9.192191851788438"><ele>780.0</ele><time>2026-04-27T16:33:07.403Z</time></trkpt><trkpt lat="40.16283740448661" lon="9.192269106646501"><ele>778.6</ele><time>2026-04-27T16:33:08.403Z</time></trkpt><trkpt lat="40.16276300786548" lon="9.19236607595786"><ele>777.2</ele><time>2026-04-27T16:33:09.403Z</time></trkpt><trkpt lat="40.16272794768863" lon="9.192476332307647"><ele>775.8</ele><time>2026-04-27T16:33:10.403Z</time></trkpt><trkpt lat="40.16274359247299" lon="9.19260429527385"><ele>774.4</ele><time>2026-04-27T16:33:11.403Z</time></trkpt><trkpt lat="40.16280141432381" lon="9.192727173464624"><ele>773.0</ele><time>2026-04-27T16:33:12.403Z</time></trkpt><trkpt lat="40.16287852258408" lon="9.192842883891341"><ele>773.0</ele><time>2026-04-27T16:33:13.403Z</time></trkpt><trkpt lat="40.16294748965653" lon="9.19297011189999"><ele>773.0</ele><time>2026-04-27T16:33:14.403Z</time></trkpt><trkpt lat="40.16300720133976" lon="9.193111034031604"><ele>773.0</ele><time>2026-04-27T16:33:15.403Z</time></trkpt><trkpt lat="40.163061241091654" lon="9.193250811682258"><ele>773.0</ele><time>2026-04-27T16:33:16.403Z</time></trkpt><trkpt lat="40.16310220604109" lon="9.193396739248135"><ele>772.5</ele><time>2026-04-27T16:33:17.403Z</time></trkpt><trkpt lat="40.1631295564921" lon="9.193547643783743"><ele>772.0</ele><time>2026-04-27T16:33:18.404Z</time></trkpt><trkpt lat="40.16314051625239" lon="9.193700762342557"><ele>771.5</ele><time>2026-04-27T16:33:19.404Z</time></trkpt><trkpt lat="40.163134134543476" lon="9.19385747121284"><ele>771.0</ele><time>2026-04-27T16:33:20.404Z</time></trkpt><trkpt lat="40.16311292090079" lon="9.194012368453226"><ele>771.0</ele><time>2026-04-27T16:33:21.404Z</time></trkpt><trkpt lat="40.16308422611756" lon="9.19416869382909"><ele>771.0</ele><time>2026-04-27T16:33:22.404Z</time></trkpt><trkpt lat="40.16305482179952" lon="9.194319648673945"><ele>771.0</ele><time>2026-04-27T16:33:23.404Z</time></trkpt><trkpt lat="40.16302042207045" lon="9.194465884614896"><ele>771.0</ele><time>2026-04-27T16:33:24.404Z</time></trkpt><trkpt lat="40.16296352284697" lon="9.194606822546291"><ele>771.0</ele><time>2026-04-27T16:33:25.404Z</time></trkpt><trkpt lat="40.1628848369603" lon="9.194732710085773"><ele>771.0</ele><time>2026-04-27T16:33:26.404Z</time></trkpt><trkpt lat="40.162804703318805" lon="9.19485618280449"><ele>771.0</ele><time>2026-04-27T16:33:27.404Z</time></trkpt><trkpt lat="40.162714572784424" lon="9.194982922054876"><ele>771.0</ele><time>2026-04-27T16:33:28.404Z</time></trkpt><trkpt lat="40.16263020483061" lon="9.19510816030813"><ele>770.75</ele><time>2026-04-27T16:33:29.404Z</time></trkpt><trkpt lat="40.162538992415826" lon="9.195215051228661"><ele>770.5</ele><time>2026-04-27T16:33:30.404Z</time></trkpt><trkpt lat="40.16244445301908" lon="9.19530594432087"><ele>770.25</ele><time>2026-04-27T16:33:31.404Z</time></trkpt><trkpt lat="40.16234562979762" lon="9.195378027858371"><ele>770.0</ele><time>2026-04-27T16:33:32.404Z</time></trkpt><trkpt lat="40.16224967871205" lon="9.195436040776718"><ele>770.0</ele><time>2026-04-27T16:33:33.404Z</time></trkpt><trkpt lat="40.16215745353299" lon="9.19549172632965"><ele>770.0</ele><time>2026-04-27T16:33:34.404Z</time></trkpt><trkpt lat="40.16208605758689" lon="9.195530090291642"><ele>770.0</ele><time>2026-04-27T16:33:35.404Z</time></trkpt><trkpt lat="40.16196977583542" lon="9.195539188829382"><ele>770.0</ele><time>2026-04-27T16:33:37.404Z</time></trkpt><trkpt lat="40.1618889453091" lon="9.19562251634423"><ele>770.0</ele><time>2026-04-27T16:33:39.404Z</time></trkpt><trkpt lat="40.16192655237662" lon="9.195730629993362"><ele>769.0000000000001</ele><time>2026-04-27T16:33:41.404Z</time></trkpt><trkpt lat="40.16199139856336" lon="9.195721409563825"><ele>768.0</ele><time>2026-04-27T16:33:42.404Z</time></trkpt><trkpt lat="40.16206148773493" lon="9.19568950682501"><ele>767.0</ele><time>2026-04-27T16:33:43.404Z</time></trkpt><trkpt lat="40.16217758571618" lon="9.195718059878477"><ele>766.0</ele><time>2026-04-27T16:33:45.404Z</time></trkpt><trkpt lat="40.162237895319336" lon="9.19574498371115"><ele>765.0</ele><time>2026-04-27T16:33:46.404Z</time></trkpt><trkpt lat="40.16229899442771" lon="9.195772097879473"><ele>764.0</ele><time>2026-04-27T16:33:47.404Z</time></trkpt><trkpt lat="40.162413804412935" lon="9.195827926318874"><ele>764.0</ele><time>2026-04-27T16:33:49.404Z</time></trkpt><trkpt lat="40.16248037925795" lon="9.19585102372816"><ele>764.0</ele><time>2026-04-27T16:33:51.404Z</time></trkpt><trkpt lat="40.162396091001455" lon="9.1957903631663"><ele>764.0</ele><time>2026-04-27T16:34:20.406Z</time></trkpt><trkpt lat="40.16229121590762" lon="9.195757407011055"><ele>764.0</ele><time>2026-04-27T16:34:22.406Z</time></trkpt><trkpt lat="40.16222845029835" lon="9.195739132212747"><ele>764.0</ele><time>2026-04-27T16:34:23.406Z</time></trkpt><trkpt lat="40.16213882938004" lon="9.195704547064844"><ele>764.0</ele><time>2026-04-27T16:34:25.406Z</time></trkpt><trkpt lat="40.162079091697535" lon="9.19566424822205"><ele>765.2</ele><time>2026-04-27T16:34:28.406Z</time></trkpt><trkpt lat="40.16200133387282" lon="9.195608017528182"><ele>766.4000000000001</ele><time>2026-04-27T16:34:30.406Z</time></trkpt><trkpt lat="40.16189080370403" lon="9.195534156826666"><ele>767.6</ele><time>2026-04-27T16:34:32.406Z</time></trkpt><trkpt lat="40.16182898927762" lon="9.195502598609698"><ele>768.8</ele><time>2026-04-27T16:34:33.406Z</time></trkpt><trkpt lat="40.16176840127983" lon="9.195470187411868"><ele>770.0</ele><time>2026-04-27T16:34:34.406Z</time></trkpt><trkpt lat="40.161651055561016" lon="9.195438947406162"><ele>770.0</ele><time>2026-04-27T16:34:36.406Z</time></trkpt><trkpt lat="40.161538553522824" lon="9.195398826437474"><ele>770.0</ele><time>2026-04-27T16:34:38.406Z</time></trkpt><trkpt lat="40.161420023737314" lon="9.195352396359366"><ele>770.0</ele><time>2026-04-27T16:34:40.406Z</time></trkpt><trkpt lat="40.16135292167405" lon="9.195324384589782"><ele>770.0</ele><time>2026-04-27T16:34:41.406Z</time></trkpt><trkpt lat="40.16128687414425" lon="9.19529655463521"><ele>770.0</ele><time>2026-04-27T16:34:42.406Z</time></trkpt><trkpt lat="40.16121892188198" lon="9.195269585386743"><ele>769.3333333333334</ele><time>2026-04-27T16:34:43.406Z</time></trkpt><trkpt lat="40.16115059978981" lon="9.195234099497725"><ele>768.6666666666667</ele><time>2026-04-27T16:34:44.406Z</time></trkpt><trkpt lat="40.161086947495946" lon="9.195193145912095"><ele>768.0</ele><time>2026-04-27T16:34:45.406Z</time></trkpt><trkpt lat="40.161030988026866" lon="9.195148035751311"><ele>767.3333333333334</ele><time>2026-04-27T16:34:46.406Z</time></trkpt><trkpt lat="40.16096598103019" lon="9.195041277284693"><ele>766.6666666666667</ele><time>2026-04-27T16:34:48.407Z</time></trkpt><trkpt lat="40.16091864161423" lon="9.194947674952592"><ele>766.0</ele><time>2026-04-27T16:34:49.407Z</time></trkpt><trkpt lat="40.16086751065619" lon="9.194882696561201"><ele>769.1999999999999</ele><time>2026-04-27T16:34:50.407Z</time></trkpt><trkpt lat="40.16080128435385" lon="9.194813847674219"><ele>772.4</ele><time>2026-04-27T16:34:51.407Z</time></trkpt><trkpt lat="40.16073375633097" lon="9.194777976672805"><ele>775.6</ele><time>2026-04-27T16:34:52.407Z</time></trkpt><trkpt lat="40.160668353054014" lon="9.194735910169495"><ele>778.8</ele><time>2026-04-27T16:34:53.407Z</time></trkpt><trkpt lat="40.160565559653165" lon="9.194711895300953"><ele>782.0</ele><time>2026-04-27T16:34:55.407Z</time></trkpt><trkpt lat="40.160452188415775" lon="9.194670184544412"><ele>782.5000000000001</ele><time>2026-04-27T16:34:57.407Z</time></trkpt><trkpt lat="40.16033721822948" lon="9.194618640653346"><ele>783.0</ele><time>2026-04-27T16:34:59.407Z</time></trkpt><trkpt lat="40.16027406619643" lon="9.194587967078078"><ele>783.5</ele><time>2026-04-27T16:35:00.407Z</time></trkpt><trkpt lat="40.1602113857238" lon="9.19456089439685"><ele>784.0</ele><time>2026-04-27T16:35:01.407Z</time></trkpt><trkpt lat="40.16011746864501" lon="9.194534913216826"><ele>784.5000000000001</ele><time>2026-04-27T16:35:03.407Z</time></trkpt><trkpt lat="40.16002846042819" lon="9.194514106036664"><ele>785.0</ele><time>2026-04-27T16:35:05.407Z</time></trkpt><trkpt lat="40.159934594772125" lon="9.194432467076119"><ele>785.0000000000001</ele><time>2026-04-27T16:35:07.407Z</time></trkpt><trkpt lat="40.15987452535601" lon="9.194394645038145"><ele>785.0</ele><time>2026-04-27T16:35:08.407Z</time></trkpt><trkpt lat="40.15976688886042" lon="9.194379575870844"><ele>785.0</ele><time>2026-04-27T16:35:10.407Z</time></trkpt><trkpt lat="40.15968530815881" lon="9.194376491194753"><ele>785.0</ele><time>2026-04-27T16:35:12.407Z</time></trkpt><trkpt lat="40.15961683361508" lon="9.194384089901021"><ele>785.0000000000001</ele><time>2026-04-27T16:35:14.407Z</time></trkpt><trkpt lat="40.15955030199975" lon="9.194426378412185"><ele>785.0</ele><time>2026-04-27T16:35:16.407Z</time></trkpt><trkpt lat="40.159498019675844" lon="9.194494200328586"><ele>780.0</ele><time>2026-04-27T16:35:18.407Z</time></trkpt><trkpt lat="40.15942031787995" lon="9.19447824103198"><ele>780.0</ele><time>2026-04-27T16:35:20.407Z</time></trkpt><trkpt lat="40.15935024620858" lon="9.194468096076436"><ele>780.0</ele><time>2026-04-27T16:35:22.407Z</time></trkpt></trkseg></trk></gpx>